<?xml version="1.0" encoding="UTF-8" standalone="no" ?>
<gpx xmlns="http://www.topografix.com/GPX/1/1" xmlns:xsi="http://www.w3.org/2001/XMLSchema-instance" xsi:schemaLocation="http://www.topografix.com/GPX/1/1 http://www.topografix.com/GPX/1/1/gpx.xsd" version="1.1" creator="VisuGPX - https://www.visugpx.com">
  <metadata>
    <name>Sortie du mercredi avec Melvyn</name>
    <desc><![CDATA[Tout est dans le titre ! Une sortie tranquille de plus de 40km]]></desc>
  </metadata>
  <trk>
    <name><![CDATA[Sortie du mercredi avec Melvyn_1]]></name>
    <trkseg>
      <trkpt lat="48.51848" lon="2.65857">
        <ele>114</ele>
        <time>2017-05-17T09:10:19.633</time>
      </trkpt>
      <trkpt lat="48.51848" lon="2.65857">
        <ele>114</ele>
        <time>2017-05-17T09:10:20.696</time>
      </trkpt>
      <trkpt lat="48.51848" lon="2.65857">
        <ele>114</ele>
        <time>2017-05-17T09:10:21.621</time>
      </trkpt>
      <trkpt lat="48.51848" lon="2.65857">
        <ele>114</ele>
        <time>2017-05-17T09:10:22.623</time>
      </trkpt>
      <trkpt lat="48.51848" lon="2.65857">
        <ele>114</ele>
        <time>2017-05-17T09:10:23.624</time>
      </trkpt>
      <trkpt lat="48.51848" lon="2.65858">
        <ele>114</ele>
        <time>2017-05-17T09:10:24.623</time>
      </trkpt>
      <trkpt lat="48.51849" lon="2.65857">
        <ele>114</ele>
        <time>2017-05-17T09:10:25.623</time>
      </trkpt>
      <trkpt lat="48.51848" lon="2.65858">
        <ele>115</ele>
        <time>2017-05-17T09:10:26.624</time>
      </trkpt>
      <trkpt lat="48.51846" lon="2.6586">
        <ele>116</ele>
        <time>2017-05-17T09:10:27.624</time>
      </trkpt>
      <trkpt lat="48.51845" lon="2.6586">
        <ele>116</ele>
        <time>2017-05-17T09:10:28.627</time>
      </trkpt>
      <trkpt lat="48.51844" lon="2.6586">
        <ele>116</ele>
        <time>2017-05-17T09:10:29.627</time>
      </trkpt>
      <trkpt lat="48.51845" lon="2.65863">
        <ele>115</ele>
        <time>2017-05-17T09:10:30.624</time>
      </trkpt>
      <trkpt lat="48.51845" lon="2.65866">
        <ele>115</ele>
        <time>2017-05-17T09:10:31.625</time>
      </trkpt>
      <trkpt lat="48.51845" lon="2.6587">
        <ele>114</ele>
        <time>2017-05-17T09:10:32.623</time>
      </trkpt>
      <trkpt lat="48.51846" lon="2.65874">
        <ele>113</ele>
        <time>2017-05-17T09:10:33.625</time>
      </trkpt>
      <trkpt lat="48.51846" lon="2.65877">
        <ele>113</ele>
        <time>2017-05-17T09:10:34.626</time>
      </trkpt>
      <trkpt lat="48.51847" lon="2.65882">
        <ele>112</ele>
        <time>2017-05-17T09:10:35.624</time>
      </trkpt>
      <trkpt lat="48.51846" lon="2.65887">
        <ele>112</ele>
        <time>2017-05-17T09:10:36.625</time>
      </trkpt>
      <trkpt lat="48.51847" lon="2.65891">
        <ele>111</ele>
        <time>2017-05-17T09:10:37.625</time>
      </trkpt>
      <trkpt lat="48.51847" lon="2.65896">
        <ele>110</ele>
        <time>2017-05-17T09:10:38.627</time>
      </trkpt>
      <trkpt lat="48.51847" lon="2.65901">
        <ele>110</ele>
        <time>2017-05-17T09:10:39.627</time>
      </trkpt>
      <trkpt lat="48.51848" lon="2.65906">
        <ele>110</ele>
        <time>2017-05-17T09:10:40.625</time>
      </trkpt>
      <trkpt lat="48.51849" lon="2.65912">
        <ele>109</ele>
        <time>2017-05-17T09:10:41.625</time>
      </trkpt>
      <trkpt lat="48.51849" lon="2.65917">
        <ele>109</ele>
        <time>2017-05-17T09:10:42.623</time>
      </trkpt>
      <trkpt lat="48.51849" lon="2.65923">
        <ele>109</ele>
        <time>2017-05-17T09:10:43.624</time>
      </trkpt>
      <trkpt lat="48.51849" lon="2.65929">
        <ele>108</ele>
        <time>2017-05-17T09:10:44.625</time>
      </trkpt>
      <trkpt lat="48.51849" lon="2.65935">
        <ele>109</ele>
        <time>2017-05-17T09:10:45.624</time>
      </trkpt>
      <trkpt lat="48.5185" lon="2.65942">
        <ele>108</ele>
        <time>2017-05-17T09:10:46.624</time>
      </trkpt>
      <trkpt lat="48.5185" lon="2.65948">
        <ele>109</ele>
        <time>2017-05-17T09:10:47.622</time>
      </trkpt>
      <trkpt lat="48.5185" lon="2.65954">
        <ele>108</ele>
        <time>2017-05-17T09:10:48.630</time>
      </trkpt>
      <trkpt lat="48.5185" lon="2.65961">
        <ele>109</ele>
        <time>2017-05-17T09:10:49.630</time>
      </trkpt>
      <trkpt lat="48.5185" lon="2.65967">
        <ele>109</ele>
        <time>2017-05-17T09:10:50.624</time>
      </trkpt>
      <trkpt lat="48.51849" lon="2.65973">
        <ele>109</ele>
        <time>2017-05-17T09:10:51.622</time>
      </trkpt>
      <trkpt lat="48.51849" lon="2.6598">
        <ele>109</ele>
        <time>2017-05-17T09:10:52.625</time>
      </trkpt>
      <trkpt lat="48.51849" lon="2.65986">
        <ele>109</ele>
        <time>2017-05-17T09:10:53.625</time>
      </trkpt>
      <trkpt lat="48.51848" lon="2.65992">
        <ele>108</ele>
        <time>2017-05-17T09:10:54.624</time>
      </trkpt>
      <trkpt lat="48.51848" lon="2.65997">
        <ele>108</ele>
        <time>2017-05-17T09:10:55.623</time>
      </trkpt>
      <trkpt lat="48.51846" lon="2.66001">
        <ele>108</ele>
        <time>2017-05-17T09:10:56.625</time>
      </trkpt>
      <trkpt lat="48.51842" lon="2.66004">
        <ele>107</ele>
        <time>2017-05-17T09:10:57.625</time>
      </trkpt>
      <trkpt lat="48.51838" lon="2.66006">
        <ele>107</ele>
        <time>2017-05-17T09:10:58.626</time>
      </trkpt>
      <trkpt lat="48.51834" lon="2.66008">
        <ele>107</ele>
        <time>2017-05-17T09:10:59.627</time>
      </trkpt>
      <trkpt lat="48.51829" lon="2.6601">
        <ele>107</ele>
        <time>2017-05-17T09:11:00.624</time>
      </trkpt>
      <trkpt lat="48.51825" lon="2.66012">
        <ele>107</ele>
        <time>2017-05-17T09:11:01.624</time>
      </trkpt>
      <trkpt lat="48.51821" lon="2.66013">
        <ele>107</ele>
        <time>2017-05-17T09:11:02.624</time>
      </trkpt>
      <trkpt lat="48.51816" lon="2.66015">
        <ele>107</ele>
        <time>2017-05-17T09:11:03.623</time>
      </trkpt>
      <trkpt lat="48.51811" lon="2.66016">
        <ele>106</ele>
        <time>2017-05-17T09:11:04.625</time>
      </trkpt>
      <trkpt lat="48.51807" lon="2.66017">
        <ele>105</ele>
        <time>2017-05-17T09:11:05.625</time>
      </trkpt>
      <trkpt lat="48.51803" lon="2.66019">
        <ele>105</ele>
        <time>2017-05-17T09:11:06.625</time>
      </trkpt>
      <trkpt lat="48.51799" lon="2.6602">
        <ele>104</ele>
        <time>2017-05-17T09:11:07.624</time>
      </trkpt>
      <trkpt lat="48.51795" lon="2.66021">
        <ele>104</ele>
        <time>2017-05-17T09:11:08.628</time>
      </trkpt>
      <trkpt lat="48.51791" lon="2.66021">
        <ele>104</ele>
        <time>2017-05-17T09:11:09.626</time>
      </trkpt>
      <trkpt lat="48.51787" lon="2.66022">
        <ele>104</ele>
        <time>2017-05-17T09:11:10.625</time>
      </trkpt>
      <trkpt lat="48.51784" lon="2.66021">
        <ele>103</ele>
        <time>2017-05-17T09:11:11.626</time>
      </trkpt>
      <trkpt lat="48.5178" lon="2.66019">
        <ele>103</ele>
        <time>2017-05-17T09:11:12.625</time>
      </trkpt>
      <trkpt lat="48.51779" lon="2.66018">
        <ele>102</ele>
        <time>2017-05-17T09:11:13.624</time>
      </trkpt>
      <trkpt lat="48.51778" lon="2.66015">
        <ele>102</ele>
        <time>2017-05-17T09:11:14.625</time>
      </trkpt>
      <trkpt lat="48.51777" lon="2.66011">
        <ele>102</ele>
        <time>2017-05-17T09:11:15.626</time>
      </trkpt>
      <trkpt lat="48.51775" lon="2.66007">
        <ele>102</ele>
        <time>2017-05-17T09:11:16.626</time>
      </trkpt>
      <trkpt lat="48.51773" lon="2.66002">
        <ele>102</ele>
        <time>2017-05-17T09:11:17.626</time>
      </trkpt>
      <trkpt lat="48.5177" lon="2.65999">
        <ele>102</ele>
        <time>2017-05-17T09:11:18.637</time>
      </trkpt>
      <trkpt lat="48.51768" lon="2.65998">
        <ele>101</ele>
        <time>2017-05-17T09:11:19.637</time>
      </trkpt>
      <trkpt lat="48.51765" lon="2.65998">
        <ele>102</ele>
        <time>2017-05-17T09:11:20.626</time>
      </trkpt>
      <trkpt lat="48.51762" lon="2.65996">
        <ele>101</ele>
        <time>2017-05-17T09:11:21.626</time>
      </trkpt>
      <trkpt lat="48.51759" lon="2.65994">
        <ele>100</ele>
        <time>2017-05-17T09:11:22.626</time>
      </trkpt>
      <trkpt lat="48.51757" lon="2.6599">
        <ele>100</ele>
        <time>2017-05-17T09:11:23.627</time>
      </trkpt>
      <trkpt lat="48.51754" lon="2.65987">
        <ele>100</ele>
        <time>2017-05-17T09:11:24.626</time>
      </trkpt>
      <trkpt lat="48.51752" lon="2.65984">
        <ele>100</ele>
        <time>2017-05-17T09:11:25.626</time>
      </trkpt>
      <trkpt lat="48.51749" lon="2.65981">
        <ele>101</ele>
        <time>2017-05-17T09:11:26.627</time>
      </trkpt>
      <trkpt lat="48.51747" lon="2.65979">
        <ele>101</ele>
        <time>2017-05-17T09:11:27.628</time>
      </trkpt>
      <trkpt lat="48.51746" lon="2.65973">
        <ele>100</ele>
        <time>2017-05-17T09:11:28.630</time>
      </trkpt>
      <trkpt lat="48.51742" lon="2.65971">
        <ele>101</ele>
        <time>2017-05-17T09:11:29.628</time>
      </trkpt>
      <trkpt lat="48.51739" lon="2.6597">
        <ele>100</ele>
        <time>2017-05-17T09:11:30.627</time>
      </trkpt>
      <trkpt lat="48.51735" lon="2.65967">
        <ele>99</ele>
        <time>2017-05-17T09:11:31.628</time>
      </trkpt>
      <trkpt lat="48.51732" lon="2.65965">
        <ele>99</ele>
        <time>2017-05-17T09:11:32.628</time>
      </trkpt>
      <trkpt lat="48.51729" lon="2.65966">
        <ele>99</ele>
        <time>2017-05-17T09:11:33.628</time>
      </trkpt>
      <trkpt lat="48.51728" lon="2.65967">
        <ele>98</ele>
        <time>2017-05-17T09:11:34.627</time>
      </trkpt>
      <trkpt lat="48.51725" lon="2.65965">
        <ele>99</ele>
        <time>2017-05-17T09:11:35.627</time>
      </trkpt>
      <trkpt lat="48.51723" lon="2.65964">
        <ele>98</ele>
        <time>2017-05-17T09:11:36.626</time>
      </trkpt>
      <trkpt lat="48.5172" lon="2.65962">
        <ele>97</ele>
        <time>2017-05-17T09:11:37.626</time>
      </trkpt>
      <trkpt lat="48.51717" lon="2.65961">
        <ele>96</ele>
        <time>2017-05-17T09:11:38.628</time>
      </trkpt>
      <trkpt lat="48.51715" lon="2.65959">
        <ele>96</ele>
        <time>2017-05-17T09:11:39.629</time>
      </trkpt>
      <trkpt lat="48.51712" lon="2.65958">
        <ele>95</ele>
        <time>2017-05-17T09:11:40.626</time>
      </trkpt>
      <trkpt lat="48.51711" lon="2.65954">
        <ele>96</ele>
        <time>2017-05-17T09:11:41.627</time>
      </trkpt>
      <trkpt lat="48.5171" lon="2.65954">
        <ele>96</ele>
        <time>2017-05-17T09:11:42.626</time>
      </trkpt>
      <trkpt lat="48.51707" lon="2.65952">
        <ele>95</ele>
        <time>2017-05-17T09:11:43.627</time>
      </trkpt>
      <trkpt lat="48.51704" lon="2.65951">
        <ele>95</ele>
        <time>2017-05-17T09:11:44.627</time>
      </trkpt>
      <trkpt lat="48.51701" lon="2.65949">
        <ele>96</ele>
        <time>2017-05-17T09:11:45.626</time>
      </trkpt>
      <trkpt lat="48.51699" lon="2.65948">
        <ele>95</ele>
        <time>2017-05-17T09:11:46.626</time>
      </trkpt>
      <trkpt lat="48.51696" lon="2.65946">
        <ele>96</ele>
        <time>2017-05-17T09:11:47.627</time>
      </trkpt>
      <trkpt lat="48.51693" lon="2.65943">
        <ele>96</ele>
        <time>2017-05-17T09:11:48.628</time>
      </trkpt>
      <trkpt lat="48.51691" lon="2.65941">
        <ele>97</ele>
        <time>2017-05-17T09:11:49.629</time>
      </trkpt>
      <trkpt lat="48.51687" lon="2.6594">
        <ele>98</ele>
        <time>2017-05-17T09:11:50.626</time>
      </trkpt>
      <trkpt lat="48.51686" lon="2.65939">
        <ele>98</ele>
        <time>2017-05-17T09:11:51.626</time>
      </trkpt>
      <trkpt lat="48.51683" lon="2.65937">
        <ele>99</ele>
        <time>2017-05-17T09:11:52.626</time>
      </trkpt>
      <trkpt lat="48.51681" lon="2.65935">
        <ele>98</ele>
        <time>2017-05-17T09:11:53.626</time>
      </trkpt>
      <trkpt lat="48.51679" lon="2.65933">
        <ele>99</ele>
        <time>2017-05-17T09:11:54.627</time>
      </trkpt>
      <trkpt lat="48.51677" lon="2.65931">
        <ele>100</ele>
        <time>2017-05-17T09:11:55.626</time>
      </trkpt>
      <trkpt lat="48.51675" lon="2.65927">
        <ele>101</ele>
        <time>2017-05-17T09:11:56.625</time>
      </trkpt>
      <trkpt lat="48.51673" lon="2.65923">
        <ele>102</ele>
        <time>2017-05-17T09:11:57.625</time>
      </trkpt>
      <trkpt lat="48.51672" lon="2.65917">
        <ele>103</ele>
        <time>2017-05-17T09:11:58.629</time>
      </trkpt>
      <trkpt lat="48.51669" lon="2.65912">
        <ele>103</ele>
        <time>2017-05-17T09:11:59.632</time>
      </trkpt>
      <trkpt lat="48.51667" lon="2.65906">
        <ele>103</ele>
        <time>2017-05-17T09:12:00.626</time>
      </trkpt>
      <trkpt lat="48.51664" lon="2.65903">
        <ele>104</ele>
        <time>2017-05-17T09:12:01.627</time>
      </trkpt>
      <trkpt lat="48.51661" lon="2.65903">
        <ele>105</ele>
        <time>2017-05-17T09:12:02.627</time>
      </trkpt>
      <trkpt lat="48.51657" lon="2.65905">
        <ele>105</ele>
        <time>2017-05-17T09:12:03.627</time>
      </trkpt>
      <trkpt lat="48.51656" lon="2.65908">
        <ele>105</ele>
        <time>2017-05-17T09:12:04.626</time>
      </trkpt>
      <trkpt lat="48.51653" lon="2.6591">
        <ele>105</ele>
        <time>2017-05-17T09:12:05.625</time>
      </trkpt>
      <trkpt lat="48.51652" lon="2.65912">
        <ele>106</ele>
        <time>2017-05-17T09:12:06.626</time>
      </trkpt>
      <trkpt lat="48.5165" lon="2.65914">
        <ele>107</ele>
        <time>2017-05-17T09:12:07.628</time>
      </trkpt>
      <trkpt lat="48.51648" lon="2.65916">
        <ele>107</ele>
        <time>2017-05-17T09:12:08.629</time>
      </trkpt>
      <trkpt lat="48.51646" lon="2.65921">
        <ele>106</ele>
        <time>2017-05-17T09:12:09.629</time>
      </trkpt>
      <trkpt lat="48.51644" lon="2.65926">
        <ele>106</ele>
        <time>2017-05-17T09:12:10.627</time>
      </trkpt>
      <trkpt lat="48.51641" lon="2.65928">
        <ele>109</ele>
        <time>2017-05-17T09:12:11.626</time>
      </trkpt>
      <trkpt lat="48.51639" lon="2.65929">
        <ele>111</ele>
        <time>2017-05-17T09:12:12.627</time>
      </trkpt>
      <trkpt lat="48.51638" lon="2.65935">
        <ele>110</ele>
        <time>2017-05-17T09:12:13.627</time>
      </trkpt>
      <trkpt lat="48.51636" lon="2.65937">
        <ele>110</ele>
        <time>2017-05-17T09:12:14.626</time>
      </trkpt>
      <trkpt lat="48.51633" lon="2.65941">
        <ele>112</ele>
        <time>2017-05-17T09:12:15.628</time>
      </trkpt>
      <trkpt lat="48.51631" lon="2.65944">
        <ele>111</ele>
        <time>2017-05-17T09:12:16.626</time>
      </trkpt>
      <trkpt lat="48.51629" lon="2.65948">
        <ele>112</ele>
        <time>2017-05-17T09:12:17.625</time>
      </trkpt>
      <trkpt lat="48.51626" lon="2.6595">
        <ele>113</ele>
        <time>2017-05-17T09:12:18.628</time>
      </trkpt>
      <trkpt lat="48.51624" lon="2.65954">
        <ele>113</ele>
        <time>2017-05-17T09:12:19.629</time>
      </trkpt>
      <trkpt lat="48.5162" lon="2.65959">
        <ele>115</ele>
        <time>2017-05-17T09:12:20.627</time>
      </trkpt>
      <trkpt lat="48.51617" lon="2.65962">
        <ele>115</ele>
        <time>2017-05-17T09:12:21.628</time>
      </trkpt>
      <trkpt lat="48.51615" lon="2.65963">
        <ele>114</ele>
        <time>2017-05-17T09:12:22.626</time>
      </trkpt>
      <trkpt lat="48.51611" lon="2.65968">
        <ele>113</ele>
        <time>2017-05-17T09:12:23.625</time>
      </trkpt>
      <trkpt lat="48.51609" lon="2.65974">
        <ele>114</ele>
        <time>2017-05-17T09:12:24.627</time>
      </trkpt>
      <trkpt lat="48.51606" lon="2.65977">
        <ele>114</ele>
        <time>2017-05-17T09:12:25.625</time>
      </trkpt>
      <trkpt lat="48.51603" lon="2.65983">
        <ele>114</ele>
        <time>2017-05-17T09:12:26.626</time>
      </trkpt>
      <trkpt lat="48.51599" lon="2.6599">
        <ele>114</ele>
        <time>2017-05-17T09:12:27.627</time>
      </trkpt>
      <trkpt lat="48.51597" lon="2.65994">
        <ele>114</ele>
        <time>2017-05-17T09:12:28.629</time>
      </trkpt>
      <trkpt lat="48.51594" lon="2.66001">
        <ele>114</ele>
        <time>2017-05-17T09:12:29.627</time>
      </trkpt>
      <trkpt lat="48.51592" lon="2.66006">
        <ele>115</ele>
        <time>2017-05-17T09:12:30.625</time>
      </trkpt>
      <trkpt lat="48.51589" lon="2.66012">
        <ele>116</ele>
        <time>2017-05-17T09:12:31.626</time>
      </trkpt>
      <trkpt lat="48.51588" lon="2.66018">
        <ele>116</ele>
        <time>2017-05-17T09:12:32.624</time>
      </trkpt>
      <trkpt lat="48.51586" lon="2.66023">
        <ele>117</ele>
        <time>2017-05-17T09:12:33.625</time>
      </trkpt>
      <trkpt lat="48.51584" lon="2.66026">
        <ele>117</ele>
        <time>2017-05-17T09:12:34.625</time>
      </trkpt>
      <trkpt lat="48.5158" lon="2.6603">
        <ele>118</ele>
        <time>2017-05-17T09:12:35.627</time>
      </trkpt>
      <trkpt lat="48.51578" lon="2.66033">
        <ele>119</ele>
        <time>2017-05-17T09:12:36.625</time>
      </trkpt>
      <trkpt lat="48.51576" lon="2.66037">
        <ele>119</ele>
        <time>2017-05-17T09:12:37.625</time>
      </trkpt>
      <trkpt lat="48.51575" lon="2.6604">
        <ele>120</ele>
        <time>2017-05-17T09:12:38.627</time>
      </trkpt>
      <trkpt lat="48.51574" lon="2.66043">
        <ele>120</ele>
        <time>2017-05-17T09:12:39.628</time>
      </trkpt>
      <trkpt lat="48.51568" lon="2.66051">
        <ele>118</ele>
        <time>2017-05-17T09:12:40.626</time>
      </trkpt>
      <trkpt lat="48.51565" lon="2.66057">
        <ele>118</ele>
        <time>2017-05-17T09:12:41.626</time>
      </trkpt>
      <trkpt lat="48.51561" lon="2.66062">
        <ele>119</ele>
        <time>2017-05-17T09:12:42.628</time>
      </trkpt>
      <trkpt lat="48.51558" lon="2.66067">
        <ele>118</ele>
        <time>2017-05-17T09:12:43.627</time>
      </trkpt>
      <trkpt lat="48.51555" lon="2.66071">
        <ele>118</ele>
        <time>2017-05-17T09:12:44.629</time>
      </trkpt>
      <trkpt lat="48.51551" lon="2.66075">
        <ele>118</ele>
        <time>2017-05-17T09:12:45.628</time>
      </trkpt>
      <trkpt lat="48.51547" lon="2.6608">
        <ele>119</ele>
        <time>2017-05-17T09:12:46.636</time>
      </trkpt>
      <trkpt lat="48.51543" lon="2.66084">
        <ele>120</ele>
        <time>2017-05-17T09:12:47.638</time>
      </trkpt>
      <trkpt lat="48.51541" lon="2.66084">
        <ele>120</ele>
        <time>2017-05-17T09:12:48.637</time>
      </trkpt>
      <trkpt lat="48.51539" lon="2.66089">
        <ele>122</ele>
        <time>2017-05-17T09:12:49.637</time>
      </trkpt>
      <trkpt lat="48.51536" lon="2.66092">
        <ele>123</ele>
        <time>2017-05-17T09:12:50.636</time>
      </trkpt>
      <trkpt lat="48.51534" lon="2.66095">
        <ele>124</ele>
        <time>2017-05-17T09:12:51.629</time>
      </trkpt>
      <trkpt lat="48.51532" lon="2.661">
        <ele>124</ele>
        <time>2017-05-17T09:12:52.649</time>
      </trkpt>
      <trkpt lat="48.5153" lon="2.66108">
        <ele>124</ele>
        <time>2017-05-17T09:12:53.648</time>
      </trkpt>
      <trkpt lat="48.51528" lon="2.66111">
        <ele>124</ele>
        <time>2017-05-17T09:12:54.626</time>
      </trkpt>
      <trkpt lat="48.51526" lon="2.66116">
        <ele>123</ele>
        <time>2017-05-17T09:12:55.627</time>
      </trkpt>
      <trkpt lat="48.51523" lon="2.6612">
        <ele>122</ele>
        <time>2017-05-17T09:12:56.626</time>
      </trkpt>
      <trkpt lat="48.51521" lon="2.66124">
        <ele>121</ele>
        <time>2017-05-17T09:12:57.626</time>
      </trkpt>
      <trkpt lat="48.51518" lon="2.66128">
        <ele>122</ele>
        <time>2017-05-17T09:12:58.629</time>
      </trkpt>
      <trkpt lat="48.51514" lon="2.66129">
        <ele>122</ele>
        <time>2017-05-17T09:12:59.628</time>
      </trkpt>
      <trkpt lat="48.51512" lon="2.66127">
        <ele>122</ele>
        <time>2017-05-17T09:13:00.626</time>
      </trkpt>
      <trkpt lat="48.5151" lon="2.66126">
        <ele>121</ele>
        <time>2017-05-17T09:13:01.626</time>
      </trkpt>
      <trkpt lat="48.51507" lon="2.66125">
        <ele>121</ele>
        <time>2017-05-17T09:13:02.628</time>
      </trkpt>
      <trkpt lat="48.51506" lon="2.66121">
        <ele>119</ele>
        <time>2017-05-17T09:13:03.627</time>
      </trkpt>
      <trkpt lat="48.51506" lon="2.66116">
        <ele>118</ele>
        <time>2017-05-17T09:13:04.626</time>
      </trkpt>
      <trkpt lat="48.51505" lon="2.66112">
        <ele>119</ele>
        <time>2017-05-17T09:13:05.626</time>
      </trkpt>
      <trkpt lat="48.51505" lon="2.66106">
        <ele>119</ele>
        <time>2017-05-17T09:13:06.627</time>
      </trkpt>
      <trkpt lat="48.51505" lon="2.661">
        <ele>119</ele>
        <time>2017-05-17T09:13:07.628</time>
      </trkpt>
      <trkpt lat="48.51506" lon="2.66094">
        <ele>119</ele>
        <time>2017-05-17T09:13:08.630</time>
      </trkpt>
      <trkpt lat="48.51506" lon="2.66089">
        <ele>119</ele>
        <time>2017-05-17T09:13:09.629</time>
      </trkpt>
      <trkpt lat="48.51506" lon="2.66082">
        <ele>118</ele>
        <time>2017-05-17T09:13:10.627</time>
      </trkpt>
      <trkpt lat="48.51506" lon="2.66076">
        <ele>118</ele>
        <time>2017-05-17T09:13:11.626</time>
      </trkpt>
      <trkpt lat="48.51506" lon="2.6607">
        <ele>119</ele>
        <time>2017-05-17T09:13:12.628</time>
      </trkpt>
      <trkpt lat="48.51506" lon="2.66065">
        <ele>120</ele>
        <time>2017-05-17T09:13:13.628</time>
      </trkpt>
      <trkpt lat="48.51506" lon="2.6606">
        <ele>120</ele>
        <time>2017-05-17T09:13:14.627</time>
      </trkpt>
      <trkpt lat="48.51506" lon="2.66053">
        <ele>120</ele>
        <time>2017-05-17T09:13:15.626</time>
      </trkpt>
      <trkpt lat="48.51506" lon="2.66049">
        <ele>120</ele>
        <time>2017-05-17T09:13:16.627</time>
      </trkpt>
      <trkpt lat="48.51507" lon="2.66045">
        <ele>119</ele>
        <time>2017-05-17T09:13:17.625</time>
      </trkpt>
      <trkpt lat="48.51507" lon="2.6604">
        <ele>119</ele>
        <time>2017-05-17T09:13:18.629</time>
      </trkpt>
      <trkpt lat="48.51506" lon="2.66035">
        <ele>119</ele>
        <time>2017-05-17T09:13:19.629</time>
      </trkpt>
      <trkpt lat="48.51506" lon="2.6603">
        <ele>118</ele>
        <time>2017-05-17T09:13:20.625</time>
      </trkpt>
      <trkpt lat="48.51506" lon="2.66025">
        <ele>117</ele>
        <time>2017-05-17T09:13:21.625</time>
      </trkpt>
      <trkpt lat="48.51505" lon="2.6602">
        <ele>117</ele>
        <time>2017-05-17T09:13:22.625</time>
      </trkpt>
      <trkpt lat="48.51503" lon="2.66016">
        <ele>118</ele>
        <time>2017-05-17T09:13:23.628</time>
      </trkpt>
      <trkpt lat="48.51501" lon="2.66016">
        <ele>117</ele>
        <time>2017-05-17T09:13:24.626</time>
      </trkpt>
      <trkpt lat="48.515" lon="2.66015">
        <ele>118</ele>
        <time>2017-05-17T09:13:25.625</time>
      </trkpt>
      <trkpt lat="48.51498" lon="2.66015">
        <ele>118</ele>
        <time>2017-05-17T09:13:26.626</time>
      </trkpt>
      <trkpt lat="48.51495" lon="2.66014">
        <ele>119</ele>
        <time>2017-05-17T09:13:27.626</time>
      </trkpt>
      <trkpt lat="48.51493" lon="2.66016">
        <ele>118</ele>
        <time>2017-05-17T09:13:28.627</time>
      </trkpt>
      <trkpt lat="48.5149" lon="2.66019">
        <ele>119</ele>
        <time>2017-05-17T09:13:29.629</time>
      </trkpt>
      <trkpt lat="48.51489" lon="2.66021">
        <ele>118</ele>
        <time>2017-05-17T09:13:30.625</time>
      </trkpt>
      <trkpt lat="48.51487" lon="2.66025">
        <ele>117</ele>
        <time>2017-05-17T09:13:31.626</time>
      </trkpt>
      <trkpt lat="48.51484" lon="2.66027">
        <ele>116</ele>
        <time>2017-05-17T09:13:32.626</time>
      </trkpt>
      <trkpt lat="48.51482" lon="2.66026">
        <ele>117</ele>
        <time>2017-05-17T09:13:33.626</time>
      </trkpt>
      <trkpt lat="48.51478" lon="2.66027">
        <ele>116</ele>
        <time>2017-05-17T09:13:34.625</time>
      </trkpt>
      <trkpt lat="48.51475" lon="2.66025">
        <ele>116</ele>
        <time>2017-05-17T09:13:35.626</time>
      </trkpt>
      <trkpt lat="48.51472" lon="2.66024">
        <ele>115</ele>
        <time>2017-05-17T09:13:36.625</time>
      </trkpt>
      <trkpt lat="48.5147" lon="2.66022">
        <ele>114</ele>
        <time>2017-05-17T09:13:37.626</time>
      </trkpt>
      <trkpt lat="48.51467" lon="2.66018">
        <ele>114</ele>
        <time>2017-05-17T09:13:38.630</time>
      </trkpt>
      <trkpt lat="48.51464" lon="2.66014">
        <ele>114</ele>
        <time>2017-05-17T09:13:39.630</time>
      </trkpt>
      <trkpt lat="48.51463" lon="2.66011">
        <ele>111</ele>
        <time>2017-05-17T09:13:40.626</time>
      </trkpt>
      <trkpt lat="48.5146" lon="2.66008">
        <ele>110</ele>
        <time>2017-05-17T09:13:41.625</time>
      </trkpt>
      <trkpt lat="48.51458" lon="2.66005">
        <ele>110</ele>
        <time>2017-05-17T09:13:42.625</time>
      </trkpt>
      <trkpt lat="48.51455" lon="2.66004">
        <ele>109</ele>
        <time>2017-05-17T09:13:43.625</time>
      </trkpt>
      <trkpt lat="48.51451" lon="2.66004">
        <ele>109</ele>
        <time>2017-05-17T09:13:44.626</time>
      </trkpt>
      <trkpt lat="48.51448" lon="2.66005">
        <ele>107</ele>
        <time>2017-05-17T09:13:45.627</time>
      </trkpt>
      <trkpt lat="48.51443" lon="2.66007">
        <ele>108</ele>
        <time>2017-05-17T09:13:46.626</time>
      </trkpt>
      <trkpt lat="48.5144" lon="2.6601">
        <ele>109</ele>
        <time>2017-05-17T09:13:47.626</time>
      </trkpt>
      <trkpt lat="48.51437" lon="2.66012">
        <ele>109</ele>
        <time>2017-05-17T09:13:48.629</time>
      </trkpt>
      <trkpt lat="48.51434" lon="2.66015">
        <ele>109</ele>
        <time>2017-05-17T09:13:49.628</time>
      </trkpt>
      <trkpt lat="48.51431" lon="2.66019">
        <ele>109</ele>
        <time>2017-05-17T09:13:50.626</time>
      </trkpt>
      <trkpt lat="48.51426" lon="2.66021">
        <ele>110</ele>
        <time>2017-05-17T09:13:51.626</time>
      </trkpt>
      <trkpt lat="48.51423" lon="2.66024">
        <ele>110</ele>
        <time>2017-05-17T09:13:52.625</time>
      </trkpt>
      <trkpt lat="48.51419" lon="2.66028">
        <ele>110</ele>
        <time>2017-05-17T09:13:53.624</time>
      </trkpt>
      <trkpt lat="48.51414" lon="2.66029">
        <ele>111</ele>
        <time>2017-05-17T09:13:54.625</time>
      </trkpt>
      <trkpt lat="48.5141" lon="2.66032">
        <ele>111</ele>
        <time>2017-05-17T09:13:55.625</time>
      </trkpt>
      <trkpt lat="48.51406" lon="2.66035">
        <ele>111</ele>
        <time>2017-05-17T09:13:56.626</time>
      </trkpt>
      <trkpt lat="48.51402" lon="2.66036">
        <ele>112</ele>
        <time>2017-05-17T09:13:57.626</time>
      </trkpt>
      <trkpt lat="48.51398" lon="2.66039">
        <ele>113</ele>
        <time>2017-05-17T09:13:58.629</time>
      </trkpt>
      <trkpt lat="48.51395" lon="2.66038">
        <ele>112</ele>
        <time>2017-05-17T09:13:59.628</time>
      </trkpt>
      <trkpt lat="48.51392" lon="2.66038">
        <ele>113</ele>
        <time>2017-05-17T09:14:00.627</time>
      </trkpt>
      <trkpt lat="48.51388" lon="2.6604">
        <ele>115</ele>
        <time>2017-05-17T09:14:01.626</time>
      </trkpt>
      <trkpt lat="48.51386" lon="2.66042">
        <ele>115</ele>
        <time>2017-05-17T09:14:02.626</time>
      </trkpt>
      <trkpt lat="48.51382" lon="2.66045">
        <ele>115</ele>
        <time>2017-05-17T09:14:03.628</time>
      </trkpt>
      <trkpt lat="48.5138" lon="2.66046">
        <ele>114</ele>
        <time>2017-05-17T09:14:04.626</time>
      </trkpt>
      <trkpt lat="48.51375" lon="2.66047">
        <ele>113</ele>
        <time>2017-05-17T09:14:05.625</time>
      </trkpt>
      <trkpt lat="48.51371" lon="2.66049">
        <ele>116</ele>
        <time>2017-05-17T09:14:06.626</time>
      </trkpt>
      <trkpt lat="48.51367" lon="2.6605">
        <ele>115</ele>
        <time>2017-05-17T09:14:07.629</time>
      </trkpt>
      <trkpt lat="48.51363" lon="2.6605">
        <ele>115</ele>
        <time>2017-05-17T09:14:08.630</time>
      </trkpt>
      <trkpt lat="48.51359" lon="2.66048">
        <ele>116</ele>
        <time>2017-05-17T09:14:09.629</time>
      </trkpt>
      <trkpt lat="48.51355" lon="2.66048">
        <ele>115</ele>
        <time>2017-05-17T09:14:10.626</time>
      </trkpt>
      <trkpt lat="48.51353" lon="2.66048">
        <ele>113</ele>
        <time>2017-05-17T09:14:11.626</time>
      </trkpt>
      <trkpt lat="48.51348" lon="2.66049">
        <ele>114</ele>
        <time>2017-05-17T09:14:12.626</time>
      </trkpt>
      <trkpt lat="48.51344" lon="2.66052">
        <ele>114</ele>
        <time>2017-05-17T09:14:13.626</time>
      </trkpt>
      <trkpt lat="48.51341" lon="2.66055">
        <ele>114</ele>
        <time>2017-05-17T09:14:14.626</time>
      </trkpt>
      <trkpt lat="48.51337" lon="2.66057">
        <ele>114</ele>
        <time>2017-05-17T09:14:15.627</time>
      </trkpt>
      <trkpt lat="48.51335" lon="2.6606">
        <ele>111</ele>
        <time>2017-05-17T09:14:16.626</time>
      </trkpt>
      <trkpt lat="48.51332" lon="2.66062">
        <ele>110</ele>
        <time>2017-05-17T09:14:17.625</time>
      </trkpt>
      <trkpt lat="48.51328" lon="2.66062">
        <ele>110</ele>
        <time>2017-05-17T09:14:18.629</time>
      </trkpt>
      <trkpt lat="48.51324" lon="2.66061">
        <ele>110</ele>
        <time>2017-05-17T09:14:19.629</time>
      </trkpt>
      <trkpt lat="48.5132" lon="2.6606">
        <ele>110</ele>
        <time>2017-05-17T09:14:20.625</time>
      </trkpt>
      <trkpt lat="48.51315" lon="2.6606">
        <ele>111</ele>
        <time>2017-05-17T09:14:21.627</time>
      </trkpt>
      <trkpt lat="48.51312" lon="2.66062">
        <ele>110</ele>
        <time>2017-05-17T09:14:22.627</time>
      </trkpt>
      <trkpt lat="48.51308" lon="2.66064">
        <ele>111</ele>
        <time>2017-05-17T09:14:23.626</time>
      </trkpt>
      <trkpt lat="48.51304" lon="2.66063">
        <ele>112</ele>
        <time>2017-05-17T09:14:24.627</time>
      </trkpt>
      <trkpt lat="48.513" lon="2.66059">
        <ele>112</ele>
        <time>2017-05-17T09:14:25.627</time>
      </trkpt>
      <trkpt lat="48.51297" lon="2.66055">
        <ele>111</ele>
        <time>2017-05-17T09:14:26.626</time>
      </trkpt>
      <trkpt lat="48.51293" lon="2.66053">
        <ele>111</ele>
        <time>2017-05-17T09:14:27.626</time>
      </trkpt>
      <trkpt lat="48.51291" lon="2.6605">
        <ele>112</ele>
        <time>2017-05-17T09:14:28.629</time>
      </trkpt>
      <trkpt lat="48.51287" lon="2.66047">
        <ele>113</ele>
        <time>2017-05-17T09:14:29.630</time>
      </trkpt>
      <trkpt lat="48.51283" lon="2.66042">
        <ele>113</ele>
        <time>2017-05-17T09:14:30.625</time>
      </trkpt>
      <trkpt lat="48.51279" lon="2.66041">
        <ele>113</ele>
        <time>2017-05-17T09:14:31.625</time>
      </trkpt>
      <trkpt lat="48.51275" lon="2.66039">
        <ele>113</ele>
        <time>2017-05-17T09:14:32.626</time>
      </trkpt>
      <trkpt lat="48.5127" lon="2.66042">
        <ele>115</ele>
        <time>2017-05-17T09:14:33.627</time>
      </trkpt>
      <trkpt lat="48.51268" lon="2.66043">
        <ele>115</ele>
        <time>2017-05-17T09:14:34.628</time>
      </trkpt>
      <trkpt lat="48.51267" lon="2.66046">
        <ele>114</ele>
        <time>2017-05-17T09:14:35.626</time>
      </trkpt>
      <trkpt lat="48.51266" lon="2.66049">
        <ele>114</ele>
        <time>2017-05-17T09:14:36.627</time>
      </trkpt>
      <trkpt lat="48.51264" lon="2.66052">
        <ele>115</ele>
        <time>2017-05-17T09:14:37.628</time>
      </trkpt>
      <trkpt lat="48.51263" lon="2.66054">
        <ele>116</ele>
        <time>2017-05-17T09:14:38.630</time>
      </trkpt>
      <trkpt lat="48.51262" lon="2.66057">
        <ele>118</ele>
        <time>2017-05-17T09:14:39.630</time>
      </trkpt>
      <trkpt lat="48.51257" lon="2.66059">
        <ele>119</ele>
        <time>2017-05-17T09:14:40.628</time>
      </trkpt>
      <trkpt lat="48.51254" lon="2.6606">
        <ele>118</ele>
        <time>2017-05-17T09:14:41.626</time>
      </trkpt>
      <trkpt lat="48.51249" lon="2.66063">
        <ele>118</ele>
        <time>2017-05-17T09:14:42.625</time>
      </trkpt>
      <trkpt lat="48.51245" lon="2.66062">
        <ele>118</ele>
        <time>2017-05-17T09:14:43.626</time>
      </trkpt>
      <trkpt lat="48.51241" lon="2.66062">
        <ele>118</ele>
        <time>2017-05-17T09:14:44.626</time>
      </trkpt>
      <trkpt lat="48.51238" lon="2.66065">
        <ele>120</ele>
        <time>2017-05-17T09:14:45.626</time>
      </trkpt>
      <trkpt lat="48.51236" lon="2.66068">
        <ele>120</ele>
        <time>2017-05-17T09:14:46.627</time>
      </trkpt>
      <trkpt lat="48.51235" lon="2.66072">
        <ele>120</ele>
        <time>2017-05-17T09:14:47.627</time>
      </trkpt>
      <trkpt lat="48.51236" lon="2.66078">
        <ele>120</ele>
        <time>2017-05-17T09:14:48.629</time>
      </trkpt>
      <trkpt lat="48.51237" lon="2.66083">
        <ele>119</ele>
        <time>2017-05-17T09:14:49.629</time>
      </trkpt>
      <trkpt lat="48.51237" lon="2.66089">
        <ele>119</ele>
        <time>2017-05-17T09:14:50.626</time>
      </trkpt>
      <trkpt lat="48.51237" lon="2.66095">
        <ele>118</ele>
        <time>2017-05-17T09:14:51.625</time>
      </trkpt>
      <trkpt lat="48.51236" lon="2.66102">
        <ele>118</ele>
        <time>2017-05-17T09:14:52.625</time>
      </trkpt>
      <trkpt lat="48.51235" lon="2.66108">
        <ele>117</ele>
        <time>2017-05-17T09:14:53.625</time>
      </trkpt>
      <trkpt lat="48.51234" lon="2.66114">
        <ele>118</ele>
        <time>2017-05-17T09:14:54.628</time>
      </trkpt>
      <trkpt lat="48.51234" lon="2.6612">
        <ele>118</ele>
        <time>2017-05-17T09:14:55.625</time>
      </trkpt>
      <trkpt lat="48.51234" lon="2.66126">
        <ele>119</ele>
        <time>2017-05-17T09:14:56.624</time>
      </trkpt>
      <trkpt lat="48.51234" lon="2.66131">
        <ele>118</ele>
        <time>2017-05-17T09:14:57.626</time>
      </trkpt>
      <trkpt lat="48.51233" lon="2.66137">
        <ele>119</ele>
        <time>2017-05-17T09:14:58.628</time>
      </trkpt>
      <trkpt lat="48.51233" lon="2.66142">
        <ele>119</ele>
        <time>2017-05-17T09:14:59.626</time>
      </trkpt>
      <trkpt lat="48.51232" lon="2.66145">
        <ele>119</ele>
        <time>2017-05-17T09:15:00.625</time>
      </trkpt>
      <trkpt lat="48.51232" lon="2.66148">
        <ele>119</ele>
        <time>2017-05-17T09:15:01.626</time>
      </trkpt>
      <trkpt lat="48.51232" lon="2.66148">
        <ele>117</ele>
        <time>2017-05-17T09:15:02.626</time>
      </trkpt>
      <trkpt lat="48.51231" lon="2.66149">
        <ele>118</ele>
        <time>2017-05-17T09:15:03.625</time>
      </trkpt>
      <trkpt lat="48.5123" lon="2.66148">
        <ele>117</ele>
        <time>2017-05-17T09:15:04.624</time>
      </trkpt>
      <trkpt lat="48.5123" lon="2.66148">
        <ele>117</ele>
        <time>2017-05-17T09:15:05.623</time>
      </trkpt>
      <trkpt lat="48.5123" lon="2.66149">
        <ele>117</ele>
        <time>2017-05-17T09:15:06.622</time>
      </trkpt>
      <trkpt lat="48.5123" lon="2.66149">
        <ele>117</ele>
        <time>2017-05-17T09:15:07.625</time>
      </trkpt>
      <trkpt lat="48.5123" lon="2.66149">
        <ele>118</ele>
        <time>2017-05-17T09:15:08.628</time>
      </trkpt>
      <trkpt lat="48.5123" lon="2.66149">
        <ele>118</ele>
        <time>2017-05-17T09:15:09.627</time>
      </trkpt>
      <trkpt lat="48.5123" lon="2.66149">
        <ele>118</ele>
        <time>2017-05-17T09:15:10.624</time>
      </trkpt>
      <trkpt lat="48.51229" lon="2.66149">
        <ele>118</ele>
        <time>2017-05-17T09:15:11.626</time>
      </trkpt>
      <trkpt lat="48.5123" lon="2.66149">
        <ele>118</ele>
        <time>2017-05-17T09:15:12.633</time>
      </trkpt>
      <trkpt lat="48.5123" lon="2.66149">
        <ele>119</ele>
        <time>2017-05-17T09:15:13.625</time>
      </trkpt>
      <trkpt lat="48.51229" lon="2.66149">
        <ele>118</ele>
        <time>2017-05-17T09:15:14.624</time>
      </trkpt>
      <trkpt lat="48.51229" lon="2.6615">
        <ele>119</ele>
        <time>2017-05-17T09:15:15.624</time>
      </trkpt>
      <trkpt lat="48.51229" lon="2.6615">
        <ele>119</ele>
        <time>2017-05-17T09:15:16.624</time>
      </trkpt>
      <trkpt lat="48.51229" lon="2.6615">
        <ele>119</ele>
        <time>2017-05-17T09:15:17.625</time>
      </trkpt>
      <trkpt lat="48.51229" lon="2.6615">
        <ele>119</ele>
        <time>2017-05-17T09:15:18.632</time>
      </trkpt>
      <trkpt lat="48.51229" lon="2.6615">
        <ele>119</ele>
        <time>2017-05-17T09:15:19.632</time>
      </trkpt>
      <trkpt lat="48.51229" lon="2.6615">
        <ele>119</ele>
        <time>2017-05-17T09:15:20.625</time>
      </trkpt>
      <trkpt lat="48.51229" lon="2.6615">
        <ele>119</ele>
        <time>2017-05-17T09:15:21.623</time>
      </trkpt>
      <trkpt lat="48.51229" lon="2.6615">
        <ele>119</ele>
        <time>2017-05-17T09:15:22.623</time>
      </trkpt>
      <trkpt lat="48.51229" lon="2.6615">
        <ele>119</ele>
        <time>2017-05-17T09:15:23.623</time>
      </trkpt>
      <trkpt lat="48.51229" lon="2.6615">
        <ele>119</ele>
        <time>2017-05-17T09:15:24.623</time>
      </trkpt>
      <trkpt lat="48.51229" lon="2.6615">
        <ele>119</ele>
        <time>2017-05-17T09:15:25.623</time>
      </trkpt>
      <trkpt lat="48.51229" lon="2.6615">
        <ele>119</ele>
        <time>2017-05-17T09:15:26.624</time>
      </trkpt>
      <trkpt lat="48.51229" lon="2.6615">
        <ele>119</ele>
        <time>2017-05-17T09:15:27.624</time>
      </trkpt>
      <trkpt lat="48.51229" lon="2.6615">
        <ele>119</ele>
        <time>2017-05-17T09:15:28.626</time>
      </trkpt>
      <trkpt lat="48.51229" lon="2.66152">
        <ele>119</ele>
        <time>2017-05-17T09:15:29.628</time>
      </trkpt>
      <trkpt lat="48.51228" lon="2.66155">
        <ele>119</ele>
        <time>2017-05-17T09:15:30.626</time>
      </trkpt>
      <trkpt lat="48.51227" lon="2.66158">
        <ele>119</ele>
        <time>2017-05-17T09:15:31.625</time>
      </trkpt>
      <trkpt lat="48.51225" lon="2.66161">
        <ele>120</ele>
        <time>2017-05-17T09:15:32.631</time>
      </trkpt>
      <trkpt lat="48.51223" lon="2.66163">
        <ele>120</ele>
        <time>2017-05-17T09:15:33.627</time>
      </trkpt>
      <trkpt lat="48.5122" lon="2.66166">
        <ele>119</ele>
        <time>2017-05-17T09:15:34.627</time>
      </trkpt>
      <trkpt lat="48.51216" lon="2.66167">
        <ele>120</ele>
        <time>2017-05-17T09:15:35.628</time>
      </trkpt>
      <trkpt lat="48.51213" lon="2.66167">
        <ele>120</ele>
        <time>2017-05-17T09:15:36.627</time>
      </trkpt>
      <trkpt lat="48.51209" lon="2.66168">
        <ele>120</ele>
        <time>2017-05-17T09:15:37.632</time>
      </trkpt>
      <trkpt lat="48.51205" lon="2.66167">
        <ele>119</ele>
        <time>2017-05-17T09:15:38.633</time>
      </trkpt>
      <trkpt lat="48.51201" lon="2.66168">
        <ele>120</ele>
        <time>2017-05-17T09:15:39.632</time>
      </trkpt>
      <trkpt lat="48.51196" lon="2.66168">
        <ele>120</ele>
        <time>2017-05-17T09:15:40.634</time>
      </trkpt>
      <trkpt lat="48.51191" lon="2.66167">
        <ele>121</ele>
        <time>2017-05-17T09:15:41.633</time>
      </trkpt>
      <trkpt lat="48.51186" lon="2.66167">
        <ele>120</ele>
        <time>2017-05-17T09:15:42.627</time>
      </trkpt>
      <trkpt lat="48.51182" lon="2.66167">
        <ele>121</ele>
        <time>2017-05-17T09:15:43.625</time>
      </trkpt>
      <trkpt lat="48.51177" lon="2.66168">
        <ele>120</ele>
        <time>2017-05-17T09:15:44.625</time>
      </trkpt>
      <trkpt lat="48.51172" lon="2.66168">
        <ele>120</ele>
        <time>2017-05-17T09:15:45.626</time>
      </trkpt>
      <trkpt lat="48.51168" lon="2.66168">
        <ele>120</ele>
        <time>2017-05-17T09:15:46.625</time>
      </trkpt>
      <trkpt lat="48.51163" lon="2.66169">
        <ele>120</ele>
        <time>2017-05-17T09:15:47.625</time>
      </trkpt>
      <trkpt lat="48.51159" lon="2.66169">
        <ele>120</ele>
        <time>2017-05-17T09:15:48.636</time>
      </trkpt>
      <trkpt lat="48.51154" lon="2.66171">
        <ele>121</ele>
        <time>2017-05-17T09:15:49.637</time>
      </trkpt>
      <trkpt lat="48.5115" lon="2.66172">
        <ele>120</ele>
        <time>2017-05-17T09:15:50.626</time>
      </trkpt>
      <trkpt lat="48.51145" lon="2.66172">
        <ele>121</ele>
        <time>2017-05-17T09:15:51.625</time>
      </trkpt>
      <trkpt lat="48.5114" lon="2.66172">
        <ele>121</ele>
        <time>2017-05-17T09:15:52.625</time>
      </trkpt>
      <trkpt lat="48.51136" lon="2.66172">
        <ele>121</ele>
        <time>2017-05-17T09:15:53.625</time>
      </trkpt>
      <trkpt lat="48.51132" lon="2.66172">
        <ele>121</ele>
        <time>2017-05-17T09:15:54.625</time>
      </trkpt>
      <trkpt lat="48.51128" lon="2.66172">
        <ele>121</ele>
        <time>2017-05-17T09:15:55.626</time>
      </trkpt>
      <trkpt lat="48.51124" lon="2.66172">
        <ele>121</ele>
        <time>2017-05-17T09:15:56.626</time>
      </trkpt>
      <trkpt lat="48.51119" lon="2.66172">
        <ele>122</ele>
        <time>2017-05-17T09:15:57.625</time>
      </trkpt>
      <trkpt lat="48.51115" lon="2.66173">
        <ele>122</ele>
        <time>2017-05-17T09:15:58.628</time>
      </trkpt>
      <trkpt lat="48.51111" lon="2.66172">
        <ele>121</ele>
        <time>2017-05-17T09:15:59.628</time>
      </trkpt>
      <trkpt lat="48.51107" lon="2.66173">
        <ele>121</ele>
        <time>2017-05-17T09:16:00.625</time>
      </trkpt>
      <trkpt lat="48.51103" lon="2.66174">
        <ele>121</ele>
        <time>2017-05-17T09:16:01.625</time>
      </trkpt>
      <trkpt lat="48.51099" lon="2.66175">
        <ele>121</ele>
        <time>2017-05-17T09:16:02.627</time>
      </trkpt>
      <trkpt lat="48.51095" lon="2.66174">
        <ele>121</ele>
        <time>2017-05-17T09:16:03.627</time>
      </trkpt>
      <trkpt lat="48.5109" lon="2.66175">
        <ele>122</ele>
        <time>2017-05-17T09:16:04.625</time>
      </trkpt>
      <trkpt lat="48.51086" lon="2.66176">
        <ele>122</ele>
        <time>2017-05-17T09:16:05.625</time>
      </trkpt>
      <trkpt lat="48.51082" lon="2.66176">
        <ele>122</ele>
        <time>2017-05-17T09:16:06.625</time>
      </trkpt>
      <trkpt lat="48.51078" lon="2.66177">
        <ele>123</ele>
        <time>2017-05-17T09:16:07.628</time>
      </trkpt>
      <trkpt lat="48.51074" lon="2.66177">
        <ele>123</ele>
        <time>2017-05-17T09:16:08.629</time>
      </trkpt>
      <trkpt lat="48.51069" lon="2.66178">
        <ele>123</ele>
        <time>2017-05-17T09:16:09.627</time>
      </trkpt>
      <trkpt lat="48.51065" lon="2.6618">
        <ele>124</ele>
        <time>2017-05-17T09:16:10.625</time>
      </trkpt>
      <trkpt lat="48.5106" lon="2.66181">
        <ele>125</ele>
        <time>2017-05-17T09:16:11.626</time>
      </trkpt>
      <trkpt lat="48.51056" lon="2.66181">
        <ele>125</ele>
        <time>2017-05-17T09:16:12.626</time>
      </trkpt>
      <trkpt lat="48.51051" lon="2.66181">
        <ele>125</ele>
        <time>2017-05-17T09:16:13.624</time>
      </trkpt>
      <trkpt lat="48.51047" lon="2.66182">
        <ele>125</ele>
        <time>2017-05-17T09:16:14.624</time>
      </trkpt>
      <trkpt lat="48.51043" lon="2.66183">
        <ele>126</ele>
        <time>2017-05-17T09:16:15.626</time>
      </trkpt>
      <trkpt lat="48.51039" lon="2.66183">
        <ele>125</ele>
        <time>2017-05-17T09:16:16.626</time>
      </trkpt>
      <trkpt lat="48.51035" lon="2.66183">
        <ele>126</ele>
        <time>2017-05-17T09:16:17.625</time>
      </trkpt>
      <trkpt lat="48.5103" lon="2.66183">
        <ele>126</ele>
        <time>2017-05-17T09:16:18.635</time>
      </trkpt>
      <trkpt lat="48.51026" lon="2.66184">
        <ele>127</ele>
        <time>2017-05-17T09:16:19.634</time>
      </trkpt>
      <trkpt lat="48.51022" lon="2.66185">
        <ele>127</ele>
        <time>2017-05-17T09:16:20.625</time>
      </trkpt>
      <trkpt lat="48.51018" lon="2.66185">
        <ele>127</ele>
        <time>2017-05-17T09:16:21.625</time>
      </trkpt>
      <trkpt lat="48.51014" lon="2.66185">
        <ele>127</ele>
        <time>2017-05-17T09:16:22.625</time>
      </trkpt>
      <trkpt lat="48.5101" lon="2.66185">
        <ele>127</ele>
        <time>2017-05-17T09:16:23.627</time>
      </trkpt>
      <trkpt lat="48.51006" lon="2.66185">
        <ele>128</ele>
        <time>2017-05-17T09:16:24.624</time>
      </trkpt>
      <trkpt lat="48.51003" lon="2.66185">
        <ele>127</ele>
        <time>2017-05-17T09:16:25.625</time>
      </trkpt>
      <trkpt lat="48.50999" lon="2.66185">
        <ele>127</ele>
        <time>2017-05-17T09:16:26.626</time>
      </trkpt>
      <trkpt lat="48.50995" lon="2.66185">
        <ele>127</ele>
        <time>2017-05-17T09:16:27.626</time>
      </trkpt>
      <trkpt lat="48.50991" lon="2.66186">
        <ele>127</ele>
        <time>2017-05-17T09:16:28.627</time>
      </trkpt>
      <trkpt lat="48.50987" lon="2.66188">
        <ele>127</ele>
        <time>2017-05-17T09:16:29.627</time>
      </trkpt>
      <trkpt lat="48.50983" lon="2.66189">
        <ele>127</ele>
        <time>2017-05-17T09:16:30.622</time>
      </trkpt>
      <trkpt lat="48.50979" lon="2.66193">
        <ele>126</ele>
        <time>2017-05-17T09:16:31.626</time>
      </trkpt>
      <trkpt lat="48.50976" lon="2.66196">
        <ele>127</ele>
        <time>2017-05-17T09:16:32.626</time>
      </trkpt>
      <trkpt lat="48.50972" lon="2.66198">
        <ele>128</ele>
        <time>2017-05-17T09:16:33.625</time>
      </trkpt>
      <trkpt lat="48.50968" lon="2.662">
        <ele>128</ele>
        <time>2017-05-17T09:16:34.625</time>
      </trkpt>
      <trkpt lat="48.50965" lon="2.66201">
        <ele>127</ele>
        <time>2017-05-17T09:16:35.626</time>
      </trkpt>
      <trkpt lat="48.50962" lon="2.66203">
        <ele>128</ele>
        <time>2017-05-17T09:16:36.627</time>
      </trkpt>
      <trkpt lat="48.50959" lon="2.66206">
        <ele>127</ele>
        <time>2017-05-17T09:16:37.628</time>
      </trkpt>
      <trkpt lat="48.50955" lon="2.66209">
        <ele>127</ele>
        <time>2017-05-17T09:16:38.629</time>
      </trkpt>
      <trkpt lat="48.50952" lon="2.66212">
        <ele>128</ele>
        <time>2017-05-17T09:16:39.630</time>
      </trkpt>
      <trkpt lat="48.50949" lon="2.66214">
        <ele>127</ele>
        <time>2017-05-17T09:16:40.626</time>
      </trkpt>
      <trkpt lat="48.50945" lon="2.66218">
        <ele>127</ele>
        <time>2017-05-17T09:16:41.626</time>
      </trkpt>
      <trkpt lat="48.50942" lon="2.66222">
        <ele>127</ele>
        <time>2017-05-17T09:16:42.625</time>
      </trkpt>
      <trkpt lat="48.50939" lon="2.66226">
        <ele>126</ele>
        <time>2017-05-17T09:16:43.625</time>
      </trkpt>
      <trkpt lat="48.50937" lon="2.6623">
        <ele>125</ele>
        <time>2017-05-17T09:16:44.626</time>
      </trkpt>
      <trkpt lat="48.50934" lon="2.66235">
        <ele>126</ele>
        <time>2017-05-17T09:16:45.646</time>
      </trkpt>
      <trkpt lat="48.50931" lon="2.6624">
        <ele>126</ele>
        <time>2017-05-17T09:16:46.652</time>
      </trkpt>
      <trkpt lat="48.50928" lon="2.66244">
        <ele>126</ele>
        <time>2017-05-17T09:16:47.626</time>
      </trkpt>
      <trkpt lat="48.50926" lon="2.66249">
        <ele>126</ele>
        <time>2017-05-17T09:16:48.630</time>
      </trkpt>
      <trkpt lat="48.50924" lon="2.66253">
        <ele>126</ele>
        <time>2017-05-17T09:16:49.631</time>
      </trkpt>
      <trkpt lat="48.50922" lon="2.66258">
        <ele>125</ele>
        <time>2017-05-17T09:16:50.627</time>
      </trkpt>
      <trkpt lat="48.50919" lon="2.66263">
        <ele>125</ele>
        <time>2017-05-17T09:16:51.625</time>
      </trkpt>
      <trkpt lat="48.50917" lon="2.66268">
        <ele>125</ele>
        <time>2017-05-17T09:16:52.625</time>
      </trkpt>
      <trkpt lat="48.50915" lon="2.66273">
        <ele>125</ele>
        <time>2017-05-17T09:16:53.625</time>
      </trkpt>
      <trkpt lat="48.50915" lon="2.66278">
        <ele>125</ele>
        <time>2017-05-17T09:16:54.627</time>
      </trkpt>
      <trkpt lat="48.50914" lon="2.66282">
        <ele>126</ele>
        <time>2017-05-17T09:16:55.626</time>
      </trkpt>
      <trkpt lat="48.50912" lon="2.66286">
        <ele>126</ele>
        <time>2017-05-17T09:16:56.626</time>
      </trkpt>
      <trkpt lat="48.50911" lon="2.6629">
        <ele>126</ele>
        <time>2017-05-17T09:16:57.625</time>
      </trkpt>
      <trkpt lat="48.50909" lon="2.66294">
        <ele>126</ele>
        <time>2017-05-17T09:16:58.628</time>
      </trkpt>
      <trkpt lat="48.50909" lon="2.66299">
        <ele>127</ele>
        <time>2017-05-17T09:16:59.628</time>
      </trkpt>
      <trkpt lat="48.50908" lon="2.66302">
        <ele>127</ele>
        <time>2017-05-17T09:17:00.625</time>
      </trkpt>
      <trkpt lat="48.50906" lon="2.66304">
        <ele>127</ele>
        <time>2017-05-17T09:17:01.625</time>
      </trkpt>
      <trkpt lat="48.50906" lon="2.66305">
        <ele>127</ele>
        <time>2017-05-17T09:17:02.623</time>
      </trkpt>
      <trkpt lat="48.50906" lon="2.66306">
        <ele>127</ele>
        <time>2017-05-17T09:17:03.624</time>
      </trkpt>
      <trkpt lat="48.50905" lon="2.66308">
        <ele>126</ele>
        <time>2017-05-17T09:17:04.625</time>
      </trkpt>
      <trkpt lat="48.50905" lon="2.66308">
        <ele>127</ele>
        <time>2017-05-17T09:17:05.626</time>
      </trkpt>
      <trkpt lat="48.50905" lon="2.66309">
        <ele>126</ele>
        <time>2017-05-17T09:17:06.623</time>
      </trkpt>
      <trkpt lat="48.50905" lon="2.66309">
        <ele>126</ele>
        <time>2017-05-17T09:17:07.622</time>
      </trkpt>
      <trkpt lat="48.50905" lon="2.6631">
        <ele>126</ele>
        <time>2017-05-17T09:17:08.627</time>
      </trkpt>
      <trkpt lat="48.50904" lon="2.66311">
        <ele>126</ele>
        <time>2017-05-17T09:17:09.628</time>
      </trkpt>
      <trkpt lat="48.50903" lon="2.66313">
        <ele>125</ele>
        <time>2017-05-17T09:17:10.626</time>
      </trkpt>
      <trkpt lat="48.50899" lon="2.66314">
        <ele>125</ele>
        <time>2017-05-17T09:17:11.627</time>
      </trkpt>
      <trkpt lat="48.50896" lon="2.66312">
        <ele>125</ele>
        <time>2017-05-17T09:17:12.626</time>
      </trkpt>
      <trkpt lat="48.50893" lon="2.66309">
        <ele>125</ele>
        <time>2017-05-17T09:17:13.625</time>
      </trkpt>
      <trkpt lat="48.50889" lon="2.66306">
        <ele>125</ele>
        <time>2017-05-17T09:17:14.629</time>
      </trkpt>
      <trkpt lat="48.50886" lon="2.66304">
        <ele>126</ele>
        <time>2017-05-17T09:17:15.627</time>
      </trkpt>
      <trkpt lat="48.50882" lon="2.66302">
        <ele>126</ele>
        <time>2017-05-17T09:17:16.625</time>
      </trkpt>
      <trkpt lat="48.50879" lon="2.66299">
        <ele>126</ele>
        <time>2017-05-17T09:17:17.626</time>
      </trkpt>
      <trkpt lat="48.50876" lon="2.66298">
        <ele>126</ele>
        <time>2017-05-17T09:17:18.633</time>
      </trkpt>
      <trkpt lat="48.50872" lon="2.66296">
        <ele>126</ele>
        <time>2017-05-17T09:17:19.634</time>
      </trkpt>
      <trkpt lat="48.50868" lon="2.66294">
        <ele>126</ele>
        <time>2017-05-17T09:17:20.627</time>
      </trkpt>
      <trkpt lat="48.50865" lon="2.66292">
        <ele>126</ele>
        <time>2017-05-17T09:17:21.626</time>
      </trkpt>
      <trkpt lat="48.50861" lon="2.66291">
        <ele>127</ele>
        <time>2017-05-17T09:17:22.625</time>
      </trkpt>
      <trkpt lat="48.50858" lon="2.66289">
        <ele>127</ele>
        <time>2017-05-17T09:17:23.625</time>
      </trkpt>
      <trkpt lat="48.50854" lon="2.66287">
        <ele>127</ele>
        <time>2017-05-17T09:17:24.626</time>
      </trkpt>
      <trkpt lat="48.5085" lon="2.66285">
        <ele>127</ele>
        <time>2017-05-17T09:17:25.627</time>
      </trkpt>
      <trkpt lat="48.50847" lon="2.66284">
        <ele>127</ele>
        <time>2017-05-17T09:17:26.625</time>
      </trkpt>
      <trkpt lat="48.50843" lon="2.66281">
        <ele>127</ele>
        <time>2017-05-17T09:17:27.626</time>
      </trkpt>
      <trkpt lat="48.5084" lon="2.66278">
        <ele>127</ele>
        <time>2017-05-17T09:17:28.629</time>
      </trkpt>
      <trkpt lat="48.50836" lon="2.66276">
        <ele>127</ele>
        <time>2017-05-17T09:17:29.628</time>
      </trkpt>
      <trkpt lat="48.50833" lon="2.66273">
        <ele>127</ele>
        <time>2017-05-17T09:17:30.625</time>
      </trkpt>
      <trkpt lat="48.5083" lon="2.66271">
        <ele>128</ele>
        <time>2017-05-17T09:17:31.624</time>
      </trkpt>
      <trkpt lat="48.50827" lon="2.66267">
        <ele>128</ele>
        <time>2017-05-17T09:17:32.627</time>
      </trkpt>
      <trkpt lat="48.50824" lon="2.66265">
        <ele>128</ele>
        <time>2017-05-17T09:17:33.626</time>
      </trkpt>
      <trkpt lat="48.50821" lon="2.66262">
        <ele>128</ele>
        <time>2017-05-17T09:17:34.624</time>
      </trkpt>
      <trkpt lat="48.50818" lon="2.6626">
        <ele>129</ele>
        <time>2017-05-17T09:17:35.625</time>
      </trkpt>
      <trkpt lat="48.50814" lon="2.66257">
        <ele>130</ele>
        <time>2017-05-17T09:17:36.626</time>
      </trkpt>
      <trkpt lat="48.50812" lon="2.66254">
        <ele>130</ele>
        <time>2017-05-17T09:17:37.625</time>
      </trkpt>
      <trkpt lat="48.50809" lon="2.66252">
        <ele>130</ele>
        <time>2017-05-17T09:17:38.627</time>
      </trkpt>
      <trkpt lat="48.50806" lon="2.6625">
        <ele>130</ele>
        <time>2017-05-17T09:17:39.628</time>
      </trkpt>
      <trkpt lat="48.50803" lon="2.66248">
        <ele>130</ele>
        <time>2017-05-17T09:17:40.626</time>
      </trkpt>
      <trkpt lat="48.508" lon="2.66246">
        <ele>130</ele>
        <time>2017-05-17T09:17:41.627</time>
      </trkpt>
      <trkpt lat="48.50797" lon="2.66244">
        <ele>131</ele>
        <time>2017-05-17T09:17:42.626</time>
      </trkpt>
      <trkpt lat="48.50794" lon="2.66242">
        <ele>132</ele>
        <time>2017-05-17T09:17:43.624</time>
      </trkpt>
      <trkpt lat="48.50791" lon="2.66241">
        <ele>132</ele>
        <time>2017-05-17T09:17:44.626</time>
      </trkpt>
      <trkpt lat="48.50787" lon="2.6624">
        <ele>132</ele>
        <time>2017-05-17T09:17:45.627</time>
      </trkpt>
      <trkpt lat="48.50784" lon="2.66238">
        <ele>132</ele>
        <time>2017-05-17T09:17:46.625</time>
      </trkpt>
      <trkpt lat="48.50781" lon="2.66237">
        <ele>132</ele>
        <time>2017-05-17T09:17:47.626</time>
      </trkpt>
      <trkpt lat="48.50778" lon="2.66236">
        <ele>132</ele>
        <time>2017-05-17T09:17:48.638</time>
      </trkpt>
      <trkpt lat="48.50775" lon="2.66235">
        <ele>133</ele>
        <time>2017-05-17T09:17:49.638</time>
      </trkpt>
      <trkpt lat="48.50772" lon="2.66234">
        <ele>133</ele>
        <time>2017-05-17T09:17:50.626</time>
      </trkpt>
      <trkpt lat="48.50768" lon="2.66233">
        <ele>133</ele>
        <time>2017-05-17T09:17:51.625</time>
      </trkpt>
      <trkpt lat="48.50765" lon="2.66231">
        <ele>134</ele>
        <time>2017-05-17T09:17:52.627</time>
      </trkpt>
      <trkpt lat="48.50762" lon="2.6623">
        <ele>134</ele>
        <time>2017-05-17T09:17:53.626</time>
      </trkpt>
      <trkpt lat="48.50759" lon="2.66229">
        <ele>134</ele>
        <time>2017-05-17T09:17:54.625</time>
      </trkpt>
      <trkpt lat="48.50755" lon="2.66227">
        <ele>135</ele>
        <time>2017-05-17T09:17:55.627</time>
      </trkpt>
      <trkpt lat="48.50752" lon="2.66225">
        <ele>135</ele>
        <time>2017-05-17T09:17:56.627</time>
      </trkpt>
      <trkpt lat="48.5075" lon="2.66222">
        <ele>136</ele>
        <time>2017-05-17T09:17:57.624</time>
      </trkpt>
      <trkpt lat="48.50748" lon="2.66219">
        <ele>136</ele>
        <time>2017-05-17T09:17:58.628</time>
      </trkpt>
      <trkpt lat="48.50745" lon="2.66216">
        <ele>136</ele>
        <time>2017-05-17T09:17:59.630</time>
      </trkpt>
      <trkpt lat="48.50743" lon="2.66213">
        <ele>136</ele>
        <time>2017-05-17T09:18:00.628</time>
      </trkpt>
      <trkpt lat="48.5074" lon="2.66209">
        <ele>136</ele>
        <time>2017-05-17T09:18:01.626</time>
      </trkpt>
      <trkpt lat="48.50738" lon="2.66205">
        <ele>136</ele>
        <time>2017-05-17T09:18:02.626</time>
      </trkpt>
      <trkpt lat="48.50735" lon="2.66201">
        <ele>136</ele>
        <time>2017-05-17T09:18:03.626</time>
      </trkpt>
      <trkpt lat="48.50733" lon="2.66197">
        <ele>137</ele>
        <time>2017-05-17T09:18:04.627</time>
      </trkpt>
      <trkpt lat="48.5073" lon="2.66193">
        <ele>136</ele>
        <time>2017-05-17T09:18:05.627</time>
      </trkpt>
      <trkpt lat="48.50727" lon="2.6619">
        <ele>137</ele>
        <time>2017-05-17T09:18:06.626</time>
      </trkpt>
      <trkpt lat="48.50725" lon="2.66186">
        <ele>137</ele>
        <time>2017-05-17T09:18:07.625</time>
      </trkpt>
      <trkpt lat="48.50722" lon="2.66183">
        <ele>138</ele>
        <time>2017-05-17T09:18:08.628</time>
      </trkpt>
      <trkpt lat="48.50719" lon="2.6618">
        <ele>138</ele>
        <time>2017-05-17T09:18:09.629</time>
      </trkpt>
      <trkpt lat="48.50716" lon="2.66176">
        <ele>139</ele>
        <time>2017-05-17T09:18:10.626</time>
      </trkpt>
      <trkpt lat="48.50714" lon="2.66172">
        <ele>138</ele>
        <time>2017-05-17T09:18:11.624</time>
      </trkpt>
      <trkpt lat="48.50711" lon="2.66169">
        <ele>138</ele>
        <time>2017-05-17T09:18:12.626</time>
      </trkpt>
      <trkpt lat="48.50708" lon="2.66166">
        <ele>138</ele>
        <time>2017-05-17T09:18:13.624</time>
      </trkpt>
      <trkpt lat="48.50705" lon="2.66163">
        <ele>138</ele>
        <time>2017-05-17T09:18:14.626</time>
      </trkpt>
      <trkpt lat="48.50703" lon="2.66159">
        <ele>138</ele>
        <time>2017-05-17T09:18:15.625</time>
      </trkpt>
      <trkpt lat="48.507" lon="2.66156">
        <ele>138</ele>
        <time>2017-05-17T09:18:16.626</time>
      </trkpt>
      <trkpt lat="48.50697" lon="2.66153">
        <ele>138</ele>
        <time>2017-05-17T09:18:17.629</time>
      </trkpt>
      <trkpt lat="48.50694" lon="2.66152">
        <ele>138</ele>
        <time>2017-05-17T09:18:18.641</time>
      </trkpt>
      <trkpt lat="48.50691" lon="2.6615">
        <ele>138</ele>
        <time>2017-05-17T09:18:19.645</time>
      </trkpt>
      <trkpt lat="48.50689" lon="2.66146">
        <ele>137</ele>
        <time>2017-05-17T09:18:20.627</time>
      </trkpt>
      <trkpt lat="48.50686" lon="2.66142">
        <ele>136</ele>
        <time>2017-05-17T09:18:21.625</time>
      </trkpt>
      <trkpt lat="48.50683" lon="2.66137">
        <ele>136</ele>
        <time>2017-05-17T09:18:22.624</time>
      </trkpt>
      <trkpt lat="48.5068" lon="2.66134">
        <ele>135</ele>
        <time>2017-05-17T09:18:23.624</time>
      </trkpt>
      <trkpt lat="48.50677" lon="2.6613">
        <ele>136</ele>
        <time>2017-05-17T09:18:24.624</time>
      </trkpt>
      <trkpt lat="48.50673" lon="2.66126">
        <ele>135</ele>
        <time>2017-05-17T09:18:25.624</time>
      </trkpt>
      <trkpt lat="48.5067" lon="2.66123">
        <ele>135</ele>
        <time>2017-05-17T09:18:26.625</time>
      </trkpt>
      <trkpt lat="48.50668" lon="2.66119">
        <ele>134</ele>
        <time>2017-05-17T09:18:27.625</time>
      </trkpt>
      <trkpt lat="48.50665" lon="2.66115">
        <ele>135</ele>
        <time>2017-05-17T09:18:28.627</time>
      </trkpt>
      <trkpt lat="48.50661" lon="2.66113">
        <ele>135</ele>
        <time>2017-05-17T09:18:29.628</time>
      </trkpt>
      <trkpt lat="48.50657" lon="2.66112">
        <ele>135</ele>
        <time>2017-05-17T09:18:30.625</time>
      </trkpt>
      <trkpt lat="48.50653" lon="2.66113">
        <ele>136</ele>
        <time>2017-05-17T09:18:31.623</time>
      </trkpt>
      <trkpt lat="48.50648" lon="2.66115">
        <ele>137</ele>
        <time>2017-05-17T09:18:32.625</time>
      </trkpt>
      <trkpt lat="48.50644" lon="2.66119">
        <ele>136</ele>
        <time>2017-05-17T09:18:33.625</time>
      </trkpt>
      <trkpt lat="48.5064" lon="2.66124">
        <ele>137</ele>
        <time>2017-05-17T09:18:34.625</time>
      </trkpt>
      <trkpt lat="48.50635" lon="2.66129">
        <ele>137</ele>
        <time>2017-05-17T09:18:35.625</time>
      </trkpt>
      <trkpt lat="48.50632" lon="2.66134">
        <ele>138</ele>
        <time>2017-05-17T09:18:36.625</time>
      </trkpt>
      <trkpt lat="48.50628" lon="2.66138">
        <ele>138</ele>
        <time>2017-05-17T09:18:37.624</time>
      </trkpt>
      <trkpt lat="48.50625" lon="2.66143">
        <ele>138</ele>
        <time>2017-05-17T09:18:38.626</time>
      </trkpt>
      <trkpt lat="48.50622" lon="2.66147">
        <ele>138</ele>
        <time>2017-05-17T09:18:39.627</time>
      </trkpt>
      <trkpt lat="48.50618" lon="2.66151">
        <ele>138</ele>
        <time>2017-05-17T09:18:40.625</time>
      </trkpt>
      <trkpt lat="48.50615" lon="2.66155">
        <ele>139</ele>
        <time>2017-05-17T09:18:41.635</time>
      </trkpt>
      <trkpt lat="48.50612" lon="2.66159">
        <ele>139</ele>
        <time>2017-05-17T09:18:42.635</time>
      </trkpt>
      <trkpt lat="48.50608" lon="2.66163">
        <ele>139</ele>
        <time>2017-05-17T09:18:43.634</time>
      </trkpt>
      <trkpt lat="48.50605" lon="2.66167">
        <ele>139</ele>
        <time>2017-05-17T09:18:44.632</time>
      </trkpt>
      <trkpt lat="48.50602" lon="2.66171">
        <ele>139</ele>
        <time>2017-05-17T09:18:45.633</time>
      </trkpt>
      <trkpt lat="48.50598" lon="2.66175">
        <ele>140</ele>
        <time>2017-05-17T09:18:46.634</time>
      </trkpt>
      <trkpt lat="48.50595" lon="2.66179">
        <ele>140</ele>
        <time>2017-05-17T09:18:47.642</time>
      </trkpt>
      <trkpt lat="48.50591" lon="2.66183">
        <ele>140</ele>
        <time>2017-05-17T09:18:48.648</time>
      </trkpt>
      <trkpt lat="48.50588" lon="2.66188">
        <ele>140</ele>
        <time>2017-05-17T09:18:49.648</time>
      </trkpt>
      <trkpt lat="48.50584" lon="2.66192">
        <ele>140</ele>
        <time>2017-05-17T09:18:50.627</time>
      </trkpt>
      <trkpt lat="48.5058" lon="2.66195">
        <ele>140</ele>
        <time>2017-05-17T09:18:51.625</time>
      </trkpt>
      <trkpt lat="48.50576" lon="2.66199">
        <ele>140</ele>
        <time>2017-05-17T09:18:52.626</time>
      </trkpt>
      <trkpt lat="48.50573" lon="2.66204">
        <ele>141</ele>
        <time>2017-05-17T09:18:53.626</time>
      </trkpt>
      <trkpt lat="48.50569" lon="2.66207">
        <ele>141</ele>
        <time>2017-05-17T09:18:54.625</time>
      </trkpt>
      <trkpt lat="48.50565" lon="2.66211">
        <ele>141</ele>
        <time>2017-05-17T09:18:55.624</time>
      </trkpt>
      <trkpt lat="48.50562" lon="2.66214">
        <ele>141</ele>
        <time>2017-05-17T09:18:56.625</time>
      </trkpt>
      <trkpt lat="48.50559" lon="2.66217">
        <ele>141</ele>
        <time>2017-05-17T09:18:57.625</time>
      </trkpt>
      <trkpt lat="48.50556" lon="2.6622">
        <ele>141</ele>
        <time>2017-05-17T09:18:58.628</time>
      </trkpt>
      <trkpt lat="48.50551" lon="2.66223">
        <ele>142</ele>
        <time>2017-05-17T09:18:59.628</time>
      </trkpt>
      <trkpt lat="48.50547" lon="2.66227">
        <ele>142</ele>
        <time>2017-05-17T09:19:00.625</time>
      </trkpt>
      <trkpt lat="48.50543" lon="2.6623">
        <ele>143</ele>
        <time>2017-05-17T09:19:01.625</time>
      </trkpt>
      <trkpt lat="48.50539" lon="2.66233">
        <ele>143</ele>
        <time>2017-05-17T09:19:02.625</time>
      </trkpt>
      <trkpt lat="48.50535" lon="2.66235">
        <ele>142</ele>
        <time>2017-05-17T09:19:03.625</time>
      </trkpt>
      <trkpt lat="48.50531" lon="2.66238">
        <ele>142</ele>
        <time>2017-05-17T09:19:04.627</time>
      </trkpt>
      <trkpt lat="48.50527" lon="2.66242">
        <ele>143</ele>
        <time>2017-05-17T09:19:05.627</time>
      </trkpt>
      <trkpt lat="48.50523" lon="2.66245">
        <ele>143</ele>
        <time>2017-05-17T09:19:06.627</time>
      </trkpt>
      <trkpt lat="48.50519" lon="2.66249">
        <ele>143</ele>
        <time>2017-05-17T09:19:07.626</time>
      </trkpt>
      <trkpt lat="48.50515" lon="2.66252">
        <ele>143</ele>
        <time>2017-05-17T09:19:08.628</time>
      </trkpt>
      <trkpt lat="48.50512" lon="2.66255">
        <ele>143</ele>
        <time>2017-05-17T09:19:09.628</time>
      </trkpt>
      <trkpt lat="48.50508" lon="2.66257">
        <ele>142</ele>
        <time>2017-05-17T09:19:10.625</time>
      </trkpt>
      <trkpt lat="48.50503" lon="2.6626">
        <ele>143</ele>
        <time>2017-05-17T09:19:11.626</time>
      </trkpt>
      <trkpt lat="48.50499" lon="2.66263">
        <ele>144</ele>
        <time>2017-05-17T09:19:12.626</time>
      </trkpt>
      <trkpt lat="48.50495" lon="2.66266">
        <ele>143</ele>
        <time>2017-05-17T09:19:13.626</time>
      </trkpt>
      <trkpt lat="48.5049" lon="2.66269">
        <ele>144</ele>
        <time>2017-05-17T09:19:14.626</time>
      </trkpt>
      <trkpt lat="48.50486" lon="2.66271">
        <ele>144</ele>
        <time>2017-05-17T09:19:15.627</time>
      </trkpt>
      <trkpt lat="48.50482" lon="2.66275">
        <ele>144</ele>
        <time>2017-05-17T09:19:16.625</time>
      </trkpt>
      <trkpt lat="48.50477" lon="2.66278">
        <ele>144</ele>
        <time>2017-05-17T09:19:17.625</time>
      </trkpt>
      <trkpt lat="48.50473" lon="2.66281">
        <ele>144</ele>
        <time>2017-05-17T09:19:18.637</time>
      </trkpt>
      <trkpt lat="48.50468" lon="2.66285">
        <ele>145</ele>
        <time>2017-05-17T09:19:19.639</time>
      </trkpt>
      <trkpt lat="48.50463" lon="2.66287">
        <ele>145</ele>
        <time>2017-05-17T09:19:20.625</time>
      </trkpt>
      <trkpt lat="48.50458" lon="2.6629">
        <ele>145</ele>
        <time>2017-05-17T09:19:21.625</time>
      </trkpt>
      <trkpt lat="48.50454" lon="2.66293">
        <ele>146</ele>
        <time>2017-05-17T09:19:22.625</time>
      </trkpt>
      <trkpt lat="48.50449" lon="2.66296">
        <ele>146</ele>
        <time>2017-05-17T09:19:23.625</time>
      </trkpt>
      <trkpt lat="48.50444" lon="2.66298">
        <ele>147</ele>
        <time>2017-05-17T09:19:24.625</time>
      </trkpt>
      <trkpt lat="48.50438" lon="2.663">
        <ele>147</ele>
        <time>2017-05-17T09:19:25.625</time>
      </trkpt>
      <trkpt lat="48.50434" lon="2.66302">
        <ele>148</ele>
        <time>2017-05-17T09:19:26.625</time>
      </trkpt>
      <trkpt lat="48.50429" lon="2.66305">
        <ele>148</ele>
        <time>2017-05-17T09:19:27.625</time>
      </trkpt>
      <trkpt lat="48.50424" lon="2.66308">
        <ele>149</ele>
        <time>2017-05-17T09:19:28.629</time>
      </trkpt>
      <trkpt lat="48.50419" lon="2.66311">
        <ele>148</ele>
        <time>2017-05-17T09:19:29.630</time>
      </trkpt>
      <trkpt lat="48.50415" lon="2.66314">
        <ele>149</ele>
        <time>2017-05-17T09:19:30.627</time>
      </trkpt>
      <trkpt lat="48.5041" lon="2.66317">
        <ele>149</ele>
        <time>2017-05-17T09:19:31.625</time>
      </trkpt>
      <trkpt lat="48.50406" lon="2.66319">
        <ele>150</ele>
        <time>2017-05-17T09:19:32.627</time>
      </trkpt>
      <trkpt lat="48.50401" lon="2.66323">
        <ele>150</ele>
        <time>2017-05-17T09:19:33.628</time>
      </trkpt>
      <trkpt lat="48.50396" lon="2.66325">
        <ele>151</ele>
        <time>2017-05-17T09:19:34.629</time>
      </trkpt>
      <trkpt lat="48.50392" lon="2.66328">
        <ele>151</ele>
        <time>2017-05-17T09:19:35.629</time>
      </trkpt>
      <trkpt lat="48.50387" lon="2.66331">
        <ele>151</ele>
        <time>2017-05-17T09:19:36.629</time>
      </trkpt>
      <trkpt lat="48.50383" lon="2.66334">
        <ele>150</ele>
        <time>2017-05-17T09:19:37.629</time>
      </trkpt>
      <trkpt lat="48.50378" lon="2.66337">
        <ele>150</ele>
        <time>2017-05-17T09:19:38.632</time>
      </trkpt>
      <trkpt lat="48.50374" lon="2.6634">
        <ele>150</ele>
        <time>2017-05-17T09:19:39.632</time>
      </trkpt>
      <trkpt lat="48.50369" lon="2.66343">
        <ele>150</ele>
        <time>2017-05-17T09:19:40.629</time>
      </trkpt>
      <trkpt lat="48.50364" lon="2.66346">
        <ele>150</ele>
        <time>2017-05-17T09:19:41.630</time>
      </trkpt>
      <trkpt lat="48.50359" lon="2.66347">
        <ele>150</ele>
        <time>2017-05-17T09:19:42.632</time>
      </trkpt>
      <trkpt lat="48.50354" lon="2.66349">
        <ele>150</ele>
        <time>2017-05-17T09:19:43.631</time>
      </trkpt>
      <trkpt lat="48.50349" lon="2.66352">
        <ele>151</ele>
        <time>2017-05-17T09:19:44.629</time>
      </trkpt>
      <trkpt lat="48.50344" lon="2.66354">
        <ele>151</ele>
        <time>2017-05-17T09:19:45.627</time>
      </trkpt>
      <trkpt lat="48.5034" lon="2.66357">
        <ele>150</ele>
        <time>2017-05-17T09:19:46.629</time>
      </trkpt>
      <trkpt lat="48.50336" lon="2.66359">
        <ele>150</ele>
        <time>2017-05-17T09:19:47.630</time>
      </trkpt>
      <trkpt lat="48.50332" lon="2.66361">
        <ele>150</ele>
        <time>2017-05-17T09:19:48.652</time>
      </trkpt>
      <trkpt lat="48.50327" lon="2.6636">
        <ele>149</ele>
        <time>2017-05-17T09:19:49.634</time>
      </trkpt>
      <trkpt lat="48.50323" lon="2.66364">
        <ele>149</ele>
        <time>2017-05-17T09:19:50.627</time>
      </trkpt>
      <trkpt lat="48.50318" lon="2.6637">
        <ele>149</ele>
        <time>2017-05-17T09:19:51.630</time>
      </trkpt>
      <trkpt lat="48.50313" lon="2.66376">
        <ele>149</ele>
        <time>2017-05-17T09:19:52.629</time>
      </trkpt>
      <trkpt lat="48.50307" lon="2.66377">
        <ele>150</ele>
        <time>2017-05-17T09:19:53.628</time>
      </trkpt>
      <trkpt lat="48.50302" lon="2.66379">
        <ele>149</ele>
        <time>2017-05-17T09:19:54.628</time>
      </trkpt>
      <trkpt lat="48.50296" lon="2.66381">
        <ele>149</ele>
        <time>2017-05-17T09:19:55.626</time>
      </trkpt>
      <trkpt lat="48.50291" lon="2.66385">
        <ele>149</ele>
        <time>2017-05-17T09:19:56.628</time>
      </trkpt>
      <trkpt lat="48.50286" lon="2.66388">
        <ele>149</ele>
        <time>2017-05-17T09:19:57.629</time>
      </trkpt>
      <trkpt lat="48.5028" lon="2.66392">
        <ele>149</ele>
        <time>2017-05-17T09:19:58.630</time>
      </trkpt>
      <trkpt lat="48.50276" lon="2.66395">
        <ele>149</ele>
        <time>2017-05-17T09:19:59.630</time>
      </trkpt>
      <trkpt lat="48.50271" lon="2.66398">
        <ele>149</ele>
        <time>2017-05-17T09:20:00.629</time>
      </trkpt>
      <trkpt lat="48.50264" lon="2.66401">
        <ele>150</ele>
        <time>2017-05-17T09:20:01.626</time>
      </trkpt>
      <trkpt lat="48.5026" lon="2.66404">
        <ele>150</ele>
        <time>2017-05-17T09:20:02.627</time>
      </trkpt>
      <trkpt lat="48.50255" lon="2.66408">
        <ele>151</ele>
        <time>2017-05-17T09:20:03.627</time>
      </trkpt>
      <trkpt lat="48.50249" lon="2.66411">
        <ele>152</ele>
        <time>2017-05-17T09:20:04.629</time>
      </trkpt>
      <trkpt lat="48.50243" lon="2.66416">
        <ele>151</ele>
        <time>2017-05-17T09:20:05.630</time>
      </trkpt>
      <trkpt lat="48.50238" lon="2.66418">
        <ele>151</ele>
        <time>2017-05-17T09:20:06.629</time>
      </trkpt>
      <trkpt lat="48.50234" lon="2.66427">
        <ele>151</ele>
        <time>2017-05-17T09:20:07.629</time>
      </trkpt>
      <trkpt lat="48.50231" lon="2.66433">
        <ele>152</ele>
        <time>2017-05-17T09:20:08.632</time>
      </trkpt>
      <trkpt lat="48.50228" lon="2.66441">
        <ele>153</ele>
        <time>2017-05-17T09:20:09.634</time>
      </trkpt>
      <trkpt lat="48.50224" lon="2.66447">
        <ele>153</ele>
        <time>2017-05-17T09:20:10.631</time>
      </trkpt>
      <trkpt lat="48.5022" lon="2.6645">
        <ele>152</ele>
        <time>2017-05-17T09:20:11.628</time>
      </trkpt>
      <trkpt lat="48.50215" lon="2.66457">
        <ele>154</ele>
        <time>2017-05-17T09:20:12.630</time>
      </trkpt>
      <trkpt lat="48.50211" lon="2.66462">
        <ele>154</ele>
        <time>2017-05-17T09:20:13.630</time>
      </trkpt>
      <trkpt lat="48.50206" lon="2.66467">
        <ele>155</ele>
        <time>2017-05-17T09:20:14.629</time>
      </trkpt>
      <trkpt lat="48.50199" lon="2.66471">
        <ele>157</ele>
        <time>2017-05-17T09:20:15.630</time>
      </trkpt>
      <trkpt lat="48.50192" lon="2.66469">
        <ele>156</ele>
        <time>2017-05-17T09:20:16.631</time>
      </trkpt>
      <trkpt lat="48.50187" lon="2.66469">
        <ele>156</ele>
        <time>2017-05-17T09:20:17.629</time>
      </trkpt>
      <trkpt lat="48.50182" lon="2.66468">
        <ele>156</ele>
        <time>2017-05-17T09:20:18.630</time>
      </trkpt>
      <trkpt lat="48.50177" lon="2.66469">
        <ele>156</ele>
        <time>2017-05-17T09:20:19.630</time>
      </trkpt>
      <trkpt lat="48.50173" lon="2.66473">
        <ele>157</ele>
        <time>2017-05-17T09:20:20.628</time>
      </trkpt>
      <trkpt lat="48.50168" lon="2.66477">
        <ele>157</ele>
        <time>2017-05-17T09:20:21.629</time>
      </trkpt>
      <trkpt lat="48.50161" lon="2.66482">
        <ele>157</ele>
        <time>2017-05-17T09:20:22.628</time>
      </trkpt>
      <trkpt lat="48.50155" lon="2.66486">
        <ele>157</ele>
        <time>2017-05-17T09:20:23.629</time>
      </trkpt>
      <trkpt lat="48.50151" lon="2.66487">
        <ele>155</ele>
        <time>2017-05-17T09:20:24.628</time>
      </trkpt>
      <trkpt lat="48.50145" lon="2.66489">
        <ele>154</ele>
        <time>2017-05-17T09:20:25.628</time>
      </trkpt>
      <trkpt lat="48.5014" lon="2.6649">
        <ele>154</ele>
        <time>2017-05-17T09:20:26.628</time>
      </trkpt>
      <trkpt lat="48.50134" lon="2.66492">
        <ele>153</ele>
        <time>2017-05-17T09:20:27.628</time>
      </trkpt>
      <trkpt lat="48.50128" lon="2.66495">
        <ele>154</ele>
        <time>2017-05-17T09:20:28.632</time>
      </trkpt>
      <trkpt lat="48.50124" lon="2.66495">
        <ele>154</ele>
        <time>2017-05-17T09:20:29.631</time>
      </trkpt>
      <trkpt lat="48.50118" lon="2.66498">
        <ele>155</ele>
        <time>2017-05-17T09:20:30.628</time>
      </trkpt>
      <trkpt lat="48.50113" lon="2.66499">
        <ele>154</ele>
        <time>2017-05-17T09:20:31.629</time>
      </trkpt>
      <trkpt lat="48.50108" lon="2.665">
        <ele>154</ele>
        <time>2017-05-17T09:20:32.629</time>
      </trkpt>
      <trkpt lat="48.50103" lon="2.66502">
        <ele>153</ele>
        <time>2017-05-17T09:20:33.626</time>
      </trkpt>
      <trkpt lat="48.50099" lon="2.66505">
        <ele>153</ele>
        <time>2017-05-17T09:20:34.627</time>
      </trkpt>
      <trkpt lat="48.50094" lon="2.66507">
        <ele>152</ele>
        <time>2017-05-17T09:20:35.628</time>
      </trkpt>
      <trkpt lat="48.50089" lon="2.66509">
        <ele>151</ele>
        <time>2017-05-17T09:20:36.627</time>
      </trkpt>
      <trkpt lat="48.50084" lon="2.66506">
        <ele>150</ele>
        <time>2017-05-17T09:20:37.626</time>
      </trkpt>
      <trkpt lat="48.50079" lon="2.66504">
        <ele>149</ele>
        <time>2017-05-17T09:20:38.630</time>
      </trkpt>
      <trkpt lat="48.50074" lon="2.66503">
        <ele>148</ele>
        <time>2017-05-17T09:20:39.634</time>
      </trkpt>
      <trkpt lat="48.50069" lon="2.66502">
        <ele>147</ele>
        <time>2017-05-17T09:20:40.629</time>
      </trkpt>
      <trkpt lat="48.50064" lon="2.66502">
        <ele>148</ele>
        <time>2017-05-17T09:20:41.628</time>
      </trkpt>
      <trkpt lat="48.5006" lon="2.66499">
        <ele>147</ele>
        <time>2017-05-17T09:20:42.631</time>
      </trkpt>
      <trkpt lat="48.50057" lon="2.66496">
        <ele>147</ele>
        <time>2017-05-17T09:20:43.628</time>
      </trkpt>
      <trkpt lat="48.50057" lon="2.66492">
        <ele>146</ele>
        <time>2017-05-17T09:20:44.627</time>
      </trkpt>
      <trkpt lat="48.50056" lon="2.66487">
        <ele>146</ele>
        <time>2017-05-17T09:20:45.628</time>
      </trkpt>
      <trkpt lat="48.50057" lon="2.66482">
        <ele>146</ele>
        <time>2017-05-17T09:20:46.628</time>
      </trkpt>
      <trkpt lat="48.50057" lon="2.66479">
        <ele>146</ele>
        <time>2017-05-17T09:20:47.631</time>
      </trkpt>
      <trkpt lat="48.50055" lon="2.66477">
        <ele>147</ele>
        <time>2017-05-17T09:20:48.631</time>
      </trkpt>
      <trkpt lat="48.50053" lon="2.66475">
        <ele>146</ele>
        <time>2017-05-17T09:20:49.629</time>
      </trkpt>
      <trkpt lat="48.5005" lon="2.66474">
        <ele>147</ele>
        <time>2017-05-17T09:20:50.628</time>
      </trkpt>
      <trkpt lat="48.50045" lon="2.66475">
        <ele>146</ele>
        <time>2017-05-17T09:20:51.629</time>
      </trkpt>
      <trkpt lat="48.50042" lon="2.66475">
        <ele>146</ele>
        <time>2017-05-17T09:20:52.628</time>
      </trkpt>
      <trkpt lat="48.50038" lon="2.66475">
        <ele>146</ele>
        <time>2017-05-17T09:20:53.629</time>
      </trkpt>
      <trkpt lat="48.50034" lon="2.66476">
        <ele>145</ele>
        <time>2017-05-17T09:20:54.629</time>
      </trkpt>
      <trkpt lat="48.50029" lon="2.66478">
        <ele>146</ele>
        <time>2017-05-17T09:20:55.627</time>
      </trkpt>
      <trkpt lat="48.50024" lon="2.66477">
        <ele>147</ele>
        <time>2017-05-17T09:20:56.628</time>
      </trkpt>
      <trkpt lat="48.5002" lon="2.66479">
        <ele>147</ele>
        <time>2017-05-17T09:20:57.628</time>
      </trkpt>
      <trkpt lat="48.50015" lon="2.6648">
        <ele>148</ele>
        <time>2017-05-17T09:20:58.631</time>
      </trkpt>
      <trkpt lat="48.50011" lon="2.66481">
        <ele>148</ele>
        <time>2017-05-17T09:20:59.629</time>
      </trkpt>
      <trkpt lat="48.50008" lon="2.66481">
        <ele>148</ele>
        <time>2017-05-17T09:21:00.628</time>
      </trkpt>
      <trkpt lat="48.50005" lon="2.66482">
        <ele>148</ele>
        <time>2017-05-17T09:21:01.628</time>
      </trkpt>
      <trkpt lat="48.49999" lon="2.66482">
        <ele>148</ele>
        <time>2017-05-17T09:21:02.628</time>
      </trkpt>
      <trkpt lat="48.49994" lon="2.66485">
        <ele>148</ele>
        <time>2017-05-17T09:21:03.629</time>
      </trkpt>
      <trkpt lat="48.4999" lon="2.66486">
        <ele>149</ele>
        <time>2017-05-17T09:21:04.630</time>
      </trkpt>
      <trkpt lat="48.49985" lon="2.66489">
        <ele>149</ele>
        <time>2017-05-17T09:21:05.628</time>
      </trkpt>
      <trkpt lat="48.49979" lon="2.6649">
        <ele>149</ele>
        <time>2017-05-17T09:21:06.627</time>
      </trkpt>
      <trkpt lat="48.49975" lon="2.66491">
        <ele>148</ele>
        <time>2017-05-17T09:21:07.628</time>
      </trkpt>
      <trkpt lat="48.49971" lon="2.66491">
        <ele>148</ele>
        <time>2017-05-17T09:21:08.630</time>
      </trkpt>
      <trkpt lat="48.49966" lon="2.66492">
        <ele>148</ele>
        <time>2017-05-17T09:21:09.630</time>
      </trkpt>
      <trkpt lat="48.49961" lon="2.66494">
        <ele>146</ele>
        <time>2017-05-17T09:21:10.628</time>
      </trkpt>
      <trkpt lat="48.49956" lon="2.66496">
        <ele>145</ele>
        <time>2017-05-17T09:21:11.627</time>
      </trkpt>
      <trkpt lat="48.49951" lon="2.66496">
        <ele>145</ele>
        <time>2017-05-17T09:21:12.626</time>
      </trkpt>
      <trkpt lat="48.49946" lon="2.66498">
        <ele>146</ele>
        <time>2017-05-17T09:21:13.629</time>
      </trkpt>
      <trkpt lat="48.49942" lon="2.665">
        <ele>145</ele>
        <time>2017-05-17T09:21:14.628</time>
      </trkpt>
      <trkpt lat="48.49938" lon="2.66501">
        <ele>144</ele>
        <time>2017-05-17T09:21:15.627</time>
      </trkpt>
      <trkpt lat="48.49935" lon="2.66507">
        <ele>143</ele>
        <time>2017-05-17T09:21:16.626</time>
      </trkpt>
      <trkpt lat="48.49931" lon="2.66509">
        <ele>143</ele>
        <time>2017-05-17T09:21:17.627</time>
      </trkpt>
      <trkpt lat="48.49926" lon="2.66511">
        <ele>144</ele>
        <time>2017-05-17T09:21:18.631</time>
      </trkpt>
      <trkpt lat="48.49921" lon="2.66512">
        <ele>145</ele>
        <time>2017-05-17T09:21:19.632</time>
      </trkpt>
      <trkpt lat="48.49917" lon="2.66515">
        <ele>145</ele>
        <time>2017-05-17T09:21:20.627</time>
      </trkpt>
      <trkpt lat="48.49912" lon="2.66518">
        <ele>145</ele>
        <time>2017-05-17T09:21:21.628</time>
      </trkpt>
      <trkpt lat="48.49908" lon="2.66522">
        <ele>146</ele>
        <time>2017-05-17T09:21:22.629</time>
      </trkpt>
      <trkpt lat="48.49902" lon="2.66528">
        <ele>148</ele>
        <time>2017-05-17T09:21:23.627</time>
      </trkpt>
      <trkpt lat="48.49899" lon="2.66531">
        <ele>147</ele>
        <time>2017-05-17T09:21:24.626</time>
      </trkpt>
      <trkpt lat="48.49893" lon="2.66533">
        <ele>148</ele>
        <time>2017-05-17T09:21:25.628</time>
      </trkpt>
      <trkpt lat="48.49888" lon="2.66534">
        <ele>148</ele>
        <time>2017-05-17T09:21:26.628</time>
      </trkpt>
      <trkpt lat="48.49883" lon="2.66536">
        <ele>149</ele>
        <time>2017-05-17T09:21:27.628</time>
      </trkpt>
      <trkpt lat="48.49878" lon="2.66536">
        <ele>149</ele>
        <time>2017-05-17T09:21:28.630</time>
      </trkpt>
      <trkpt lat="48.49873" lon="2.66534">
        <ele>147</ele>
        <time>2017-05-17T09:21:29.629</time>
      </trkpt>
      <trkpt lat="48.49866" lon="2.66533">
        <ele>147</ele>
        <time>2017-05-17T09:21:30.626</time>
      </trkpt>
      <trkpt lat="48.49861" lon="2.66531">
        <ele>147</ele>
        <time>2017-05-17T09:21:31.625</time>
      </trkpt>
      <trkpt lat="48.49856" lon="2.66532">
        <ele>146</ele>
        <time>2017-05-17T09:21:32.626</time>
      </trkpt>
      <trkpt lat="48.49851" lon="2.66533">
        <ele>146</ele>
        <time>2017-05-17T09:21:33.626</time>
      </trkpt>
      <trkpt lat="48.49846" lon="2.66535">
        <ele>146</ele>
        <time>2017-05-17T09:21:34.627</time>
      </trkpt>
      <trkpt lat="48.49842" lon="2.66536">
        <ele>146</ele>
        <time>2017-05-17T09:21:35.626</time>
      </trkpt>
      <trkpt lat="48.49837" lon="2.66537">
        <ele>146</ele>
        <time>2017-05-17T09:21:36.626</time>
      </trkpt>
      <trkpt lat="48.49833" lon="2.66538">
        <ele>147</ele>
        <time>2017-05-17T09:21:37.627</time>
      </trkpt>
      <trkpt lat="48.49829" lon="2.66541">
        <ele>148</ele>
        <time>2017-05-17T09:21:38.630</time>
      </trkpt>
      <trkpt lat="48.49827" lon="2.66549">
        <ele>148</ele>
        <time>2017-05-17T09:21:39.631</time>
      </trkpt>
      <trkpt lat="48.49829" lon="2.66558">
        <ele>146</ele>
        <time>2017-05-17T09:21:40.627</time>
      </trkpt>
      <trkpt lat="48.49831" lon="2.66565">
        <ele>145</ele>
        <time>2017-05-17T09:21:41.626</time>
      </trkpt>
      <trkpt lat="48.49834" lon="2.66573">
        <ele>143</ele>
        <time>2017-05-17T09:21:42.630</time>
      </trkpt>
      <trkpt lat="48.49836" lon="2.66582">
        <ele>142</ele>
        <time>2017-05-17T09:21:43.629</time>
      </trkpt>
      <trkpt lat="48.49838" lon="2.66592">
        <ele>142</ele>
        <time>2017-05-17T09:21:44.629</time>
      </trkpt>
      <trkpt lat="48.49844" lon="2.66603">
        <ele>142</ele>
        <time>2017-05-17T09:21:45.630</time>
      </trkpt>
      <trkpt lat="48.49848" lon="2.66614">
        <ele>141</ele>
        <time>2017-05-17T09:21:46.629</time>
      </trkpt>
      <trkpt lat="48.4985" lon="2.66625">
        <ele>142</ele>
        <time>2017-05-17T09:21:47.638</time>
      </trkpt>
      <trkpt lat="48.49856" lon="2.66632">
        <ele>143</ele>
        <time>2017-05-17T09:21:48.637</time>
      </trkpt>
      <trkpt lat="48.49857" lon="2.66638">
        <ele>142</ele>
        <time>2017-05-17T09:21:49.638</time>
      </trkpt>
      <trkpt lat="48.49858" lon="2.66643">
        <ele>142</ele>
        <time>2017-05-17T09:21:50.637</time>
      </trkpt>
      <trkpt lat="48.49858" lon="2.66644">
        <ele>144</ele>
        <time>2017-05-17T09:21:51.636</time>
      </trkpt>
      <trkpt lat="48.49859" lon="2.66645">
        <ele>145</ele>
        <time>2017-05-17T09:21:52.639</time>
      </trkpt>
      <trkpt lat="48.4986" lon="2.66648">
        <ele>144</ele>
        <time>2017-05-17T09:21:53.648</time>
      </trkpt>
      <trkpt lat="48.4986" lon="2.66652">
        <ele>143</ele>
        <time>2017-05-17T09:21:54.629</time>
      </trkpt>
      <trkpt lat="48.49859" lon="2.66653">
        <ele>143</ele>
        <time>2017-05-17T09:21:55.629</time>
      </trkpt>
      <trkpt lat="48.49857" lon="2.66653">
        <ele>142</ele>
        <time>2017-05-17T09:21:56.629</time>
      </trkpt>
      <trkpt lat="48.49856" lon="2.66653">
        <ele>141</ele>
        <time>2017-05-17T09:21:57.628</time>
      </trkpt>
      <trkpt lat="48.49854" lon="2.66653">
        <ele>140</ele>
        <time>2017-05-17T09:21:58.630</time>
      </trkpt>
      <trkpt lat="48.49851" lon="2.66652">
        <ele>140</ele>
        <time>2017-05-17T09:21:59.630</time>
      </trkpt>
      <trkpt lat="48.49848" lon="2.66651">
        <ele>139</ele>
        <time>2017-05-17T09:22:00.630</time>
      </trkpt>
      <trkpt lat="48.49844" lon="2.6665">
        <ele>139</ele>
        <time>2017-05-17T09:22:01.630</time>
      </trkpt>
      <trkpt lat="48.49843" lon="2.66652">
        <ele>137</ele>
        <time>2017-05-17T09:22:02.630</time>
      </trkpt>
      <trkpt lat="48.49842" lon="2.66652">
        <ele>136</ele>
        <time>2017-05-17T09:22:03.629</time>
      </trkpt>
      <trkpt lat="48.49842" lon="2.66652">
        <ele>136</ele>
        <time>2017-05-17T09:22:04.628</time>
      </trkpt>
      <trkpt lat="48.49841" lon="2.66652">
        <ele>136</ele>
        <time>2017-05-17T09:22:05.628</time>
      </trkpt>
      <trkpt lat="48.49839" lon="2.66653">
        <ele>136</ele>
        <time>2017-05-17T09:22:06.627</time>
      </trkpt>
      <trkpt lat="48.49838" lon="2.66654">
        <ele>135</ele>
        <time>2017-05-17T09:22:07.628</time>
      </trkpt>
      <trkpt lat="48.49837" lon="2.6666">
        <ele>136</ele>
        <time>2017-05-17T09:22:08.632</time>
      </trkpt>
      <trkpt lat="48.49836" lon="2.66666">
        <ele>135</ele>
        <time>2017-05-17T09:22:09.631</time>
      </trkpt>
      <trkpt lat="48.49839" lon="2.66671">
        <ele>137</ele>
        <time>2017-05-17T09:22:10.631</time>
      </trkpt>
      <trkpt lat="48.49838" lon="2.6668">
        <ele>137</ele>
        <time>2017-05-17T09:22:11.630</time>
      </trkpt>
      <trkpt lat="48.49838" lon="2.66691">
        <ele>137</ele>
        <time>2017-05-17T09:22:12.628</time>
      </trkpt>
      <trkpt lat="48.49839" lon="2.667">
        <ele>136</ele>
        <time>2017-05-17T09:22:13.628</time>
      </trkpt>
      <trkpt lat="48.49842" lon="2.66714">
        <ele>135</ele>
        <time>2017-05-17T09:22:14.626</time>
      </trkpt>
      <trkpt lat="48.49845" lon="2.66724">
        <ele>134</ele>
        <time>2017-05-17T09:22:15.628</time>
      </trkpt>
      <trkpt lat="48.49848" lon="2.6673">
        <ele>133</ele>
        <time>2017-05-17T09:22:16.628</time>
      </trkpt>
      <trkpt lat="48.4985" lon="2.66734">
        <ele>132</ele>
        <time>2017-05-17T09:22:17.627</time>
      </trkpt>
      <trkpt lat="48.49851" lon="2.66737">
        <ele>132</ele>
        <time>2017-05-17T09:22:18.630</time>
      </trkpt>
      <trkpt lat="48.49849" lon="2.66739">
        <ele>130</ele>
        <time>2017-05-17T09:22:19.630</time>
      </trkpt>
      <trkpt lat="48.4985" lon="2.66739">
        <ele>130</ele>
        <time>2017-05-17T09:22:20.626</time>
      </trkpt>
      <trkpt lat="48.49851" lon="2.6674">
        <ele>130</ele>
        <time>2017-05-17T09:22:21.625</time>
      </trkpt>
      <trkpt lat="48.49851" lon="2.6674">
        <ele>130</ele>
        <time>2017-05-17T09:22:22.627</time>
      </trkpt>
      <trkpt lat="48.49851" lon="2.66741">
        <ele>130</ele>
        <time>2017-05-17T09:22:23.628</time>
      </trkpt>
      <trkpt lat="48.49852" lon="2.66742">
        <ele>130</ele>
        <time>2017-05-17T09:22:24.628</time>
      </trkpt>
      <trkpt lat="48.49853" lon="2.66743">
        <ele>129</ele>
        <time>2017-05-17T09:22:25.627</time>
      </trkpt>
      <trkpt lat="48.49855" lon="2.66745">
        <ele>129</ele>
        <time>2017-05-17T09:22:26.627</time>
      </trkpt>
      <trkpt lat="48.49859" lon="2.66747">
        <ele>128</ele>
        <time>2017-05-17T09:22:27.628</time>
      </trkpt>
      <trkpt lat="48.49862" lon="2.66748">
        <ele>128</ele>
        <time>2017-05-17T09:22:28.629</time>
      </trkpt>
      <trkpt lat="48.49865" lon="2.6675">
        <ele>128</ele>
        <time>2017-05-17T09:22:29.630</time>
      </trkpt>
      <trkpt lat="48.49867" lon="2.66753">
        <ele>127</ele>
        <time>2017-05-17T09:22:30.628</time>
      </trkpt>
      <trkpt lat="48.49866" lon="2.66757">
        <ele>127</ele>
        <time>2017-05-17T09:22:31.627</time>
      </trkpt>
      <trkpt lat="48.49864" lon="2.6676">
        <ele>125</ele>
        <time>2017-05-17T09:22:32.628</time>
      </trkpt>
      <trkpt lat="48.49862" lon="2.66764">
        <ele>125</ele>
        <time>2017-05-17T09:22:33.628</time>
      </trkpt>
      <trkpt lat="48.49861" lon="2.66768">
        <ele>125</ele>
        <time>2017-05-17T09:22:34.627</time>
      </trkpt>
      <trkpt lat="48.49859" lon="2.66772">
        <ele>124</ele>
        <time>2017-05-17T09:22:35.628</time>
      </trkpt>
      <trkpt lat="48.49857" lon="2.66773">
        <ele>125</ele>
        <time>2017-05-17T09:22:36.628</time>
      </trkpt>
      <trkpt lat="48.49854" lon="2.66774">
        <ele>124</ele>
        <time>2017-05-17T09:22:37.627</time>
      </trkpt>
      <trkpt lat="48.49853" lon="2.66773">
        <ele>125</ele>
        <time>2017-05-17T09:22:38.630</time>
      </trkpt>
      <trkpt lat="48.49851" lon="2.66772">
        <ele>125</ele>
        <time>2017-05-17T09:22:39.632</time>
      </trkpt>
      <trkpt lat="48.4985" lon="2.6677">
        <ele>124</ele>
        <time>2017-05-17T09:22:40.629</time>
      </trkpt>
      <trkpt lat="48.4985" lon="2.66768">
        <ele>125</ele>
        <time>2017-05-17T09:22:41.629</time>
      </trkpt>
      <trkpt lat="48.49849" lon="2.66766">
        <ele>124</ele>
        <time>2017-05-17T09:22:42.630</time>
      </trkpt>
      <trkpt lat="48.49851" lon="2.66766">
        <ele>125</ele>
        <time>2017-05-17T09:22:43.629</time>
      </trkpt>
      <trkpt lat="48.49846" lon="2.66767">
        <ele>124</ele>
        <time>2017-05-17T09:22:44.627</time>
      </trkpt>
      <trkpt lat="48.49844" lon="2.66767">
        <ele>124</ele>
        <time>2017-05-17T09:22:45.628</time>
      </trkpt>
      <trkpt lat="48.49841" lon="2.66768">
        <ele>124</ele>
        <time>2017-05-17T09:22:46.629</time>
      </trkpt>
      <trkpt lat="48.49838" lon="2.66768">
        <ele>124</ele>
        <time>2017-05-17T09:22:47.629</time>
      </trkpt>
      <trkpt lat="48.49836" lon="2.66767">
        <ele>124</ele>
        <time>2017-05-17T09:22:48.633</time>
      </trkpt>
      <trkpt lat="48.49833" lon="2.66767">
        <ele>124</ele>
        <time>2017-05-17T09:22:49.633</time>
      </trkpt>
      <trkpt lat="48.49828" lon="2.66769">
        <ele>124</ele>
        <time>2017-05-17T09:22:50.629</time>
      </trkpt>
      <trkpt lat="48.49825" lon="2.6677">
        <ele>124</ele>
        <time>2017-05-17T09:22:51.629</time>
      </trkpt>
      <trkpt lat="48.49821" lon="2.66771">
        <ele>123</ele>
        <time>2017-05-17T09:22:52.630</time>
      </trkpt>
      <trkpt lat="48.49819" lon="2.6677">
        <ele>121</ele>
        <time>2017-05-17T09:22:53.627</time>
      </trkpt>
      <trkpt lat="48.49816" lon="2.66771">
        <ele>121</ele>
        <time>2017-05-17T09:22:54.630</time>
      </trkpt>
      <trkpt lat="48.49812" lon="2.66771">
        <ele>120</ele>
        <time>2017-05-17T09:22:55.630</time>
      </trkpt>
      <trkpt lat="48.49808" lon="2.66772">
        <ele>121</ele>
        <time>2017-05-17T09:22:56.629</time>
      </trkpt>
      <trkpt lat="48.49806" lon="2.66773">
        <ele>120</ele>
        <time>2017-05-17T09:22:57.630</time>
      </trkpt>
      <trkpt lat="48.49802" lon="2.66773">
        <ele>120</ele>
        <time>2017-05-17T09:22:58.632</time>
      </trkpt>
      <trkpt lat="48.49799" lon="2.66772">
        <ele>120</ele>
        <time>2017-05-17T09:22:59.631</time>
      </trkpt>
      <trkpt lat="48.49796" lon="2.66773">
        <ele>120</ele>
        <time>2017-05-17T09:23:00.629</time>
      </trkpt>
      <trkpt lat="48.49791" lon="2.66773">
        <ele>120</ele>
        <time>2017-05-17T09:23:01.628</time>
      </trkpt>
      <trkpt lat="48.49788" lon="2.66772">
        <ele>121</ele>
        <time>2017-05-17T09:23:02.628</time>
      </trkpt>
      <trkpt lat="48.49784" lon="2.66772">
        <ele>122</ele>
        <time>2017-05-17T09:23:03.627</time>
      </trkpt>
      <trkpt lat="48.49781" lon="2.66773">
        <ele>121</ele>
        <time>2017-05-17T09:23:04.628</time>
      </trkpt>
      <trkpt lat="48.49778" lon="2.66774">
        <ele>122</ele>
        <time>2017-05-17T09:23:05.628</time>
      </trkpt>
      <trkpt lat="48.49775" lon="2.66772">
        <ele>120</ele>
        <time>2017-05-17T09:23:06.629</time>
      </trkpt>
      <trkpt lat="48.49773" lon="2.66769">
        <ele>119</ele>
        <time>2017-05-17T09:23:07.627</time>
      </trkpt>
      <trkpt lat="48.4977" lon="2.66768">
        <ele>120</ele>
        <time>2017-05-17T09:23:08.631</time>
      </trkpt>
      <trkpt lat="48.49767" lon="2.66767">
        <ele>121</ele>
        <time>2017-05-17T09:23:09.631</time>
      </trkpt>
      <trkpt lat="48.49765" lon="2.66768">
        <ele>121</ele>
        <time>2017-05-17T09:23:10.629</time>
      </trkpt>
      <trkpt lat="48.49763" lon="2.66768">
        <ele>122</ele>
        <time>2017-05-17T09:23:11.628</time>
      </trkpt>
      <trkpt lat="48.49762" lon="2.66767">
        <ele>122</ele>
        <time>2017-05-17T09:23:12.628</time>
      </trkpt>
      <trkpt lat="48.4976" lon="2.66766">
        <ele>123</ele>
        <time>2017-05-17T09:23:13.628</time>
      </trkpt>
      <trkpt lat="48.49758" lon="2.66765">
        <ele>123</ele>
        <time>2017-05-17T09:23:14.628</time>
      </trkpt>
      <trkpt lat="48.49756" lon="2.66765">
        <ele>123</ele>
        <time>2017-05-17T09:23:15.629</time>
      </trkpt>
      <trkpt lat="48.49753" lon="2.66765">
        <ele>123</ele>
        <time>2017-05-17T09:23:16.627</time>
      </trkpt>
      <trkpt lat="48.49751" lon="2.66765">
        <ele>123</ele>
        <time>2017-05-17T09:23:17.628</time>
      </trkpt>
      <trkpt lat="48.49748" lon="2.66766">
        <ele>123</ele>
        <time>2017-05-17T09:23:18.630</time>
      </trkpt>
      <trkpt lat="48.49747" lon="2.66767">
        <ele>124</ele>
        <time>2017-05-17T09:23:19.631</time>
      </trkpt>
      <trkpt lat="48.49745" lon="2.66767">
        <ele>124</ele>
        <time>2017-05-17T09:23:20.628</time>
      </trkpt>
      <trkpt lat="48.49742" lon="2.66768">
        <ele>123</ele>
        <time>2017-05-17T09:23:21.627</time>
      </trkpt>
      <trkpt lat="48.49739" lon="2.66769">
        <ele>124</ele>
        <time>2017-05-17T09:23:22.627</time>
      </trkpt>
      <trkpt lat="48.49735" lon="2.66769">
        <ele>124</ele>
        <time>2017-05-17T09:23:23.627</time>
      </trkpt>
      <trkpt lat="48.49731" lon="2.66769">
        <ele>123</ele>
        <time>2017-05-17T09:23:24.626</time>
      </trkpt>
      <trkpt lat="48.49727" lon="2.66772">
        <ele>124</ele>
        <time>2017-05-17T09:23:25.626</time>
      </trkpt>
      <trkpt lat="48.49724" lon="2.66774">
        <ele>124</ele>
        <time>2017-05-17T09:23:26.626</time>
      </trkpt>
      <trkpt lat="48.49719" lon="2.66776">
        <ele>124</ele>
        <time>2017-05-17T09:23:27.627</time>
      </trkpt>
      <trkpt lat="48.49716" lon="2.66777">
        <ele>124</ele>
        <time>2017-05-17T09:23:28.629</time>
      </trkpt>
      <trkpt lat="48.49712" lon="2.66777">
        <ele>123</ele>
        <time>2017-05-17T09:23:29.630</time>
      </trkpt>
      <trkpt lat="48.49708" lon="2.66778">
        <ele>123</ele>
        <time>2017-05-17T09:23:30.627</time>
      </trkpt>
      <trkpt lat="48.49703" lon="2.66779">
        <ele>122</ele>
        <time>2017-05-17T09:23:31.627</time>
      </trkpt>
      <trkpt lat="48.49699" lon="2.66782">
        <ele>122</ele>
        <time>2017-05-17T09:23:32.626</time>
      </trkpt>
      <trkpt lat="48.49697" lon="2.66783">
        <ele>122</ele>
        <time>2017-05-17T09:23:33.626</time>
      </trkpt>
      <trkpt lat="48.49696" lon="2.66784">
        <ele>122</ele>
        <time>2017-05-17T09:23:34.626</time>
      </trkpt>
      <trkpt lat="48.49696" lon="2.66784">
        <ele>123</ele>
        <time>2017-05-17T09:23:35.625</time>
      </trkpt>
      <trkpt lat="48.49695" lon="2.66784">
        <ele>123</ele>
        <time>2017-05-17T09:23:36.627</time>
      </trkpt>
      <trkpt lat="48.49694" lon="2.66785">
        <ele>123</ele>
        <time>2017-05-17T09:23:37.626</time>
      </trkpt>
      <trkpt lat="48.49694" lon="2.66786">
        <ele>123</ele>
        <time>2017-05-17T09:23:38.629</time>
      </trkpt>
      <trkpt lat="48.49693" lon="2.66787">
        <ele>123</ele>
        <time>2017-05-17T09:23:39.629</time>
      </trkpt>
      <trkpt lat="48.49693" lon="2.66788">
        <ele>123</ele>
        <time>2017-05-17T09:23:40.627</time>
      </trkpt>
      <trkpt lat="48.49692" lon="2.66788">
        <ele>123</ele>
        <time>2017-05-17T09:23:41.627</time>
      </trkpt>
      <trkpt lat="48.49692" lon="2.66789">
        <ele>123</ele>
        <time>2017-05-17T09:23:42.627</time>
      </trkpt>
      <trkpt lat="48.49691" lon="2.66789">
        <ele>123</ele>
        <time>2017-05-17T09:23:43.626</time>
      </trkpt>
      <trkpt lat="48.49691" lon="2.66789">
        <ele>123</ele>
        <time>2017-05-17T09:23:44.626</time>
      </trkpt>
      <trkpt lat="48.4969" lon="2.66788">
        <ele>123</ele>
        <time>2017-05-17T09:23:45.627</time>
      </trkpt>
      <trkpt lat="48.49688" lon="2.66788">
        <ele>122</ele>
        <time>2017-05-17T09:23:46.627</time>
      </trkpt>
      <trkpt lat="48.49686" lon="2.66787">
        <ele>122</ele>
        <time>2017-05-17T09:23:47.625</time>
      </trkpt>
      <trkpt lat="48.49684" lon="2.66787">
        <ele>123</ele>
        <time>2017-05-17T09:23:48.634</time>
      </trkpt>
      <trkpt lat="48.49682" lon="2.66787">
        <ele>122</ele>
        <time>2017-05-17T09:23:49.635</time>
      </trkpt>
      <trkpt lat="48.4968" lon="2.66787">
        <ele>122</ele>
        <time>2017-05-17T09:23:50.627</time>
      </trkpt>
      <trkpt lat="48.49677" lon="2.66786">
        <ele>122</ele>
        <time>2017-05-17T09:23:51.627</time>
      </trkpt>
      <trkpt lat="48.49674" lon="2.66786">
        <ele>122</ele>
        <time>2017-05-17T09:23:52.627</time>
      </trkpt>
      <trkpt lat="48.49671" lon="2.66786">
        <ele>122</ele>
        <time>2017-05-17T09:23:53.628</time>
      </trkpt>
      <trkpt lat="48.49668" lon="2.66786">
        <ele>122</ele>
        <time>2017-05-17T09:23:54.628</time>
      </trkpt>
      <trkpt lat="48.49663" lon="2.66787">
        <ele>123</ele>
        <time>2017-05-17T09:23:55.628</time>
      </trkpt>
      <trkpt lat="48.4966" lon="2.66787">
        <ele>123</ele>
        <time>2017-05-17T09:23:56.628</time>
      </trkpt>
      <trkpt lat="48.49656" lon="2.66789">
        <ele>122</ele>
        <time>2017-05-17T09:23:57.630</time>
      </trkpt>
      <trkpt lat="48.49652" lon="2.6679">
        <ele>123</ele>
        <time>2017-05-17T09:23:58.632</time>
      </trkpt>
      <trkpt lat="48.49648" lon="2.66792">
        <ele>123</ele>
        <time>2017-05-17T09:23:59.630</time>
      </trkpt>
      <trkpt lat="48.49644" lon="2.66793">
        <ele>122</ele>
        <time>2017-05-17T09:24:00.627</time>
      </trkpt>
      <trkpt lat="48.49639" lon="2.66795">
        <ele>122</ele>
        <time>2017-05-17T09:24:01.627</time>
      </trkpt>
      <trkpt lat="48.49634" lon="2.66796">
        <ele>122</ele>
        <time>2017-05-17T09:24:02.627</time>
      </trkpt>
      <trkpt lat="48.4963" lon="2.66795">
        <ele>121</ele>
        <time>2017-05-17T09:24:03.626</time>
      </trkpt>
      <trkpt lat="48.49626" lon="2.66795">
        <ele>121</ele>
        <time>2017-05-17T09:24:04.626</time>
      </trkpt>
      <trkpt lat="48.49622" lon="2.66796">
        <ele>122</ele>
        <time>2017-05-17T09:24:05.627</time>
      </trkpt>
      <trkpt lat="48.49618" lon="2.66797">
        <ele>122</ele>
        <time>2017-05-17T09:24:06.628</time>
      </trkpt>
      <trkpt lat="48.49614" lon="2.66799">
        <ele>123</ele>
        <time>2017-05-17T09:24:07.626</time>
      </trkpt>
      <trkpt lat="48.49609" lon="2.668">
        <ele>122</ele>
        <time>2017-05-17T09:24:08.630</time>
      </trkpt>
      <trkpt lat="48.49605" lon="2.668">
        <ele>123</ele>
        <time>2017-05-17T09:24:09.630</time>
      </trkpt>
      <trkpt lat="48.496" lon="2.66802">
        <ele>123</ele>
        <time>2017-05-17T09:24:10.626</time>
      </trkpt>
      <trkpt lat="48.49597" lon="2.66802">
        <ele>123</ele>
        <time>2017-05-17T09:24:11.627</time>
      </trkpt>
      <trkpt lat="48.49593" lon="2.66803">
        <ele>123</ele>
        <time>2017-05-17T09:24:12.628</time>
      </trkpt>
      <trkpt lat="48.49589" lon="2.66803">
        <ele>123</ele>
        <time>2017-05-17T09:24:13.627</time>
      </trkpt>
      <trkpt lat="48.49585" lon="2.66804">
        <ele>123</ele>
        <time>2017-05-17T09:24:14.627</time>
      </trkpt>
      <trkpt lat="48.49582" lon="2.66803">
        <ele>122</ele>
        <time>2017-05-17T09:24:15.627</time>
      </trkpt>
      <trkpt lat="48.49579" lon="2.66803">
        <ele>121</ele>
        <time>2017-05-17T09:24:16.627</time>
      </trkpt>
      <trkpt lat="48.49575" lon="2.66802">
        <ele>121</ele>
        <time>2017-05-17T09:24:17.629</time>
      </trkpt>
      <trkpt lat="48.49572" lon="2.66804">
        <ele>120</ele>
        <time>2017-05-17T09:24:18.630</time>
      </trkpt>
      <trkpt lat="48.49568" lon="2.66805">
        <ele>119</ele>
        <time>2017-05-17T09:24:19.629</time>
      </trkpt>
      <trkpt lat="48.49564" lon="2.66806">
        <ele>120</ele>
        <time>2017-05-17T09:24:20.629</time>
      </trkpt>
      <trkpt lat="48.4956" lon="2.66808">
        <ele>120</ele>
        <time>2017-05-17T09:24:21.627</time>
      </trkpt>
      <trkpt lat="48.49556" lon="2.6681">
        <ele>121</ele>
        <time>2017-05-17T09:24:22.626</time>
      </trkpt>
      <trkpt lat="48.49553" lon="2.6681">
        <ele>120</ele>
        <time>2017-05-17T09:24:23.627</time>
      </trkpt>
      <trkpt lat="48.49548" lon="2.66811">
        <ele>119</ele>
        <time>2017-05-17T09:24:24.625</time>
      </trkpt>
      <trkpt lat="48.49545" lon="2.66812">
        <ele>119</ele>
        <time>2017-05-17T09:24:25.626</time>
      </trkpt>
      <trkpt lat="48.49541" lon="2.66814">
        <ele>120</ele>
        <time>2017-05-17T09:24:26.627</time>
      </trkpt>
      <trkpt lat="48.49536" lon="2.66815">
        <ele>119</ele>
        <time>2017-05-17T09:24:27.628</time>
      </trkpt>
      <trkpt lat="48.49532" lon="2.66815">
        <ele>119</ele>
        <time>2017-05-17T09:24:28.630</time>
      </trkpt>
      <trkpt lat="48.49528" lon="2.66815">
        <ele>119</ele>
        <time>2017-05-17T09:24:29.630</time>
      </trkpt>
      <trkpt lat="48.49524" lon="2.66817">
        <ele>120</ele>
        <time>2017-05-17T09:24:30.628</time>
      </trkpt>
      <trkpt lat="48.4952" lon="2.66818">
        <ele>120</ele>
        <time>2017-05-17T09:24:31.627</time>
      </trkpt>
      <trkpt lat="48.49516" lon="2.66819">
        <ele>120</ele>
        <time>2017-05-17T09:24:32.626</time>
      </trkpt>
      <trkpt lat="48.49512" lon="2.66821">
        <ele>120</ele>
        <time>2017-05-17T09:24:33.627</time>
      </trkpt>
      <trkpt lat="48.49509" lon="2.66821">
        <ele>119</ele>
        <time>2017-05-17T09:24:34.627</time>
      </trkpt>
      <trkpt lat="48.49506" lon="2.66822">
        <ele>120</ele>
        <time>2017-05-17T09:24:35.628</time>
      </trkpt>
      <trkpt lat="48.49503" lon="2.66822">
        <ele>121</ele>
        <time>2017-05-17T09:24:36.627</time>
      </trkpt>
      <trkpt lat="48.495" lon="2.66823">
        <ele>122</ele>
        <time>2017-05-17T09:24:37.627</time>
      </trkpt>
      <trkpt lat="48.49497" lon="2.66822">
        <ele>121</ele>
        <time>2017-05-17T09:24:38.633</time>
      </trkpt>
      <trkpt lat="48.49494" lon="2.66822">
        <ele>121</ele>
        <time>2017-05-17T09:24:39.633</time>
      </trkpt>
      <trkpt lat="48.49492" lon="2.66821">
        <ele>121</ele>
        <time>2017-05-17T09:24:40.629</time>
      </trkpt>
      <trkpt lat="48.49489" lon="2.66821">
        <ele>121</ele>
        <time>2017-05-17T09:24:41.628</time>
      </trkpt>
      <trkpt lat="48.49486" lon="2.66821">
        <ele>120</ele>
        <time>2017-05-17T09:24:42.627</time>
      </trkpt>
      <trkpt lat="48.49484" lon="2.66821">
        <ele>121</ele>
        <time>2017-05-17T09:24:43.631</time>
      </trkpt>
      <trkpt lat="48.4948" lon="2.66821">
        <ele>121</ele>
        <time>2017-05-17T09:24:44.633</time>
      </trkpt>
      <trkpt lat="48.49478" lon="2.66821">
        <ele>121</ele>
        <time>2017-05-17T09:24:45.632</time>
      </trkpt>
      <trkpt lat="48.49474" lon="2.6682">
        <ele>122</ele>
        <time>2017-05-17T09:24:46.633</time>
      </trkpt>
      <trkpt lat="48.49471" lon="2.6682">
        <ele>121</ele>
        <time>2017-05-17T09:24:47.631</time>
      </trkpt>
      <trkpt lat="48.49467" lon="2.6682">
        <ele>122</ele>
        <time>2017-05-17T09:24:48.648</time>
      </trkpt>
      <trkpt lat="48.49463" lon="2.66819">
        <ele>122</ele>
        <time>2017-05-17T09:24:49.650</time>
      </trkpt>
      <trkpt lat="48.4946" lon="2.66816">
        <ele>121</ele>
        <time>2017-05-17T09:24:50.629</time>
      </trkpt>
      <trkpt lat="48.49457" lon="2.66813">
        <ele>121</ele>
        <time>2017-05-17T09:24:51.629</time>
      </trkpt>
      <trkpt lat="48.49454" lon="2.66812">
        <ele>122</ele>
        <time>2017-05-17T09:24:52.628</time>
      </trkpt>
      <trkpt lat="48.49451" lon="2.66811">
        <ele>122</ele>
        <time>2017-05-17T09:24:53.629</time>
      </trkpt>
      <trkpt lat="48.49448" lon="2.66813">
        <ele>122</ele>
        <time>2017-05-17T09:24:54.627</time>
      </trkpt>
      <trkpt lat="48.49446" lon="2.66812">
        <ele>122</ele>
        <time>2017-05-17T09:24:55.629</time>
      </trkpt>
      <trkpt lat="48.49444" lon="2.66812">
        <ele>123</ele>
        <time>2017-05-17T09:24:56.628</time>
      </trkpt>
      <trkpt lat="48.49442" lon="2.66814">
        <ele>124</ele>
        <time>2017-05-17T09:24:57.629</time>
      </trkpt>
      <trkpt lat="48.49438" lon="2.66815">
        <ele>124</ele>
        <time>2017-05-17T09:24:58.632</time>
      </trkpt>
      <trkpt lat="48.49434" lon="2.66818">
        <ele>125</ele>
        <time>2017-05-17T09:24:59.631</time>
      </trkpt>
      <trkpt lat="48.49431" lon="2.6682">
        <ele>124</ele>
        <time>2017-05-17T09:25:00.629</time>
      </trkpt>
      <trkpt lat="48.49427" lon="2.66822">
        <ele>124</ele>
        <time>2017-05-17T09:25:01.626</time>
      </trkpt>
      <trkpt lat="48.49422" lon="2.66824">
        <ele>124</ele>
        <time>2017-05-17T09:25:02.629</time>
      </trkpt>
      <trkpt lat="48.49417" lon="2.66828">
        <ele>124</ele>
        <time>2017-05-17T09:25:03.630</time>
      </trkpt>
      <trkpt lat="48.49413" lon="2.66832">
        <ele>123</ele>
        <time>2017-05-17T09:25:04.630</time>
      </trkpt>
      <trkpt lat="48.49408" lon="2.66834">
        <ele>123</ele>
        <time>2017-05-17T09:25:05.627</time>
      </trkpt>
      <trkpt lat="48.49403" lon="2.66837">
        <ele>123</ele>
        <time>2017-05-17T09:25:06.627</time>
      </trkpt>
      <trkpt lat="48.49397" lon="2.66841">
        <ele>124</ele>
        <time>2017-05-17T09:25:07.629</time>
      </trkpt>
      <trkpt lat="48.49392" lon="2.66844">
        <ele>125</ele>
        <time>2017-05-17T09:25:08.631</time>
      </trkpt>
      <trkpt lat="48.49387" lon="2.66845">
        <ele>126</ele>
        <time>2017-05-17T09:25:09.632</time>
      </trkpt>
      <trkpt lat="48.49381" lon="2.66847">
        <ele>127</ele>
        <time>2017-05-17T09:25:10.629</time>
      </trkpt>
      <trkpt lat="48.49377" lon="2.66849">
        <ele>127</ele>
        <time>2017-05-17T09:25:11.628</time>
      </trkpt>
      <trkpt lat="48.49374" lon="2.66852">
        <ele>127</ele>
        <time>2017-05-17T09:25:12.628</time>
      </trkpt>
      <trkpt lat="48.49369" lon="2.66853">
        <ele>126</ele>
        <time>2017-05-17T09:25:13.628</time>
      </trkpt>
      <trkpt lat="48.49365" lon="2.66856">
        <ele>126</ele>
        <time>2017-05-17T09:25:14.626</time>
      </trkpt>
      <trkpt lat="48.4936" lon="2.66861">
        <ele>126</ele>
        <time>2017-05-17T09:25:15.628</time>
      </trkpt>
      <trkpt lat="48.49356" lon="2.66864">
        <ele>125</ele>
        <time>2017-05-17T09:25:16.627</time>
      </trkpt>
      <trkpt lat="48.49352" lon="2.66867">
        <ele>126</ele>
        <time>2017-05-17T09:25:17.628</time>
      </trkpt>
      <trkpt lat="48.49347" lon="2.66873">
        <ele>126</ele>
        <time>2017-05-17T09:25:18.633</time>
      </trkpt>
      <trkpt lat="48.49343" lon="2.66875">
        <ele>126</ele>
        <time>2017-05-17T09:25:19.631</time>
      </trkpt>
      <trkpt lat="48.49338" lon="2.6688">
        <ele>127</ele>
        <time>2017-05-17T09:25:20.629</time>
      </trkpt>
      <trkpt lat="48.49333" lon="2.66883">
        <ele>125</ele>
        <time>2017-05-17T09:25:21.628</time>
      </trkpt>
      <trkpt lat="48.49328" lon="2.66885">
        <ele>125</ele>
        <time>2017-05-17T09:25:22.628</time>
      </trkpt>
      <trkpt lat="48.49324" lon="2.66888">
        <ele>124</ele>
        <time>2017-05-17T09:25:23.629</time>
      </trkpt>
      <trkpt lat="48.49319" lon="2.66889">
        <ele>124</ele>
        <time>2017-05-17T09:25:24.627</time>
      </trkpt>
      <trkpt lat="48.49314" lon="2.66891">
        <ele>124</ele>
        <time>2017-05-17T09:25:25.627</time>
      </trkpt>
      <trkpt lat="48.49309" lon="2.66894">
        <ele>123</ele>
        <time>2017-05-17T09:25:26.628</time>
      </trkpt>
      <trkpt lat="48.49304" lon="2.66898">
        <ele>124</ele>
        <time>2017-05-17T09:25:27.629</time>
      </trkpt>
      <trkpt lat="48.493" lon="2.66901">
        <ele>125</ele>
        <time>2017-05-17T09:25:28.631</time>
      </trkpt>
      <trkpt lat="48.49296" lon="2.66902">
        <ele>125</ele>
        <time>2017-05-17T09:25:29.631</time>
      </trkpt>
      <trkpt lat="48.49292" lon="2.66904">
        <ele>125</ele>
        <time>2017-05-17T09:25:30.629</time>
      </trkpt>
      <trkpt lat="48.49288" lon="2.66906">
        <ele>125</ele>
        <time>2017-05-17T09:25:31.628</time>
      </trkpt>
      <trkpt lat="48.49284" lon="2.66907">
        <ele>126</ele>
        <time>2017-05-17T09:25:32.627</time>
      </trkpt>
      <trkpt lat="48.49281" lon="2.66908">
        <ele>126</ele>
        <time>2017-05-17T09:25:33.628</time>
      </trkpt>
      <trkpt lat="48.49278" lon="2.6691">
        <ele>126</ele>
        <time>2017-05-17T09:25:34.629</time>
      </trkpt>
      <trkpt lat="48.49275" lon="2.66912">
        <ele>124</ele>
        <time>2017-05-17T09:25:35.629</time>
      </trkpt>
      <trkpt lat="48.49273" lon="2.66914">
        <ele>123</ele>
        <time>2017-05-17T09:25:36.628</time>
      </trkpt>
      <trkpt lat="48.49272" lon="2.66914">
        <ele>123</ele>
        <time>2017-05-17T09:25:37.627</time>
      </trkpt>
      <trkpt lat="48.49268" lon="2.66914">
        <ele>125</ele>
        <time>2017-05-17T09:25:38.632</time>
      </trkpt>
      <trkpt lat="48.49264" lon="2.66917">
        <ele>125</ele>
        <time>2017-05-17T09:25:39.631</time>
      </trkpt>
      <trkpt lat="48.4926" lon="2.6692">
        <ele>125</ele>
        <time>2017-05-17T09:25:40.627</time>
      </trkpt>
      <trkpt lat="48.49256" lon="2.66922">
        <ele>125</ele>
        <time>2017-05-17T09:25:41.630</time>
      </trkpt>
      <trkpt lat="48.49253" lon="2.66924">
        <ele>126</ele>
        <time>2017-05-17T09:25:42.628</time>
      </trkpt>
      <trkpt lat="48.49247" lon="2.66928">
        <ele>127</ele>
        <time>2017-05-17T09:25:43.629</time>
      </trkpt>
      <trkpt lat="48.49242" lon="2.66932">
        <ele>129</ele>
        <time>2017-05-17T09:25:44.630</time>
      </trkpt>
      <trkpt lat="48.49238" lon="2.66935">
        <ele>129</ele>
        <time>2017-05-17T09:25:45.629</time>
      </trkpt>
      <trkpt lat="48.49233" lon="2.66937">
        <ele>130</ele>
        <time>2017-05-17T09:25:46.631</time>
      </trkpt>
      <trkpt lat="48.4923" lon="2.6694">
        <ele>130</ele>
        <time>2017-05-17T09:25:47.629</time>
      </trkpt>
      <trkpt lat="48.49226" lon="2.66942">
        <ele>130</ele>
        <time>2017-05-17T09:25:48.631</time>
      </trkpt>
      <trkpt lat="48.49222" lon="2.66944">
        <ele>129</ele>
        <time>2017-05-17T09:25:49.630</time>
      </trkpt>
      <trkpt lat="48.49217" lon="2.66946">
        <ele>129</ele>
        <time>2017-05-17T09:25:50.628</time>
      </trkpt>
      <trkpt lat="48.49213" lon="2.66948">
        <ele>129</ele>
        <time>2017-05-17T09:25:51.628</time>
      </trkpt>
      <trkpt lat="48.49211" lon="2.66947">
        <ele>128</ele>
        <time>2017-05-17T09:25:52.628</time>
      </trkpt>
      <trkpt lat="48.49208" lon="2.66947">
        <ele>128</ele>
        <time>2017-05-17T09:25:53.629</time>
      </trkpt>
      <trkpt lat="48.49205" lon="2.66947">
        <ele>126</ele>
        <time>2017-05-17T09:25:54.629</time>
      </trkpt>
      <trkpt lat="48.49203" lon="2.66947">
        <ele>126</ele>
        <time>2017-05-17T09:25:55.628</time>
      </trkpt>
      <trkpt lat="48.49201" lon="2.66947">
        <ele>126</ele>
        <time>2017-05-17T09:25:56.629</time>
      </trkpt>
      <trkpt lat="48.49197" lon="2.66949">
        <ele>126</ele>
        <time>2017-05-17T09:25:57.628</time>
      </trkpt>
      <trkpt lat="48.49193" lon="2.6695">
        <ele>126</ele>
        <time>2017-05-17T09:25:58.631</time>
      </trkpt>
      <trkpt lat="48.49189" lon="2.66953">
        <ele>127</ele>
        <time>2017-05-17T09:25:59.633</time>
      </trkpt>
      <trkpt lat="48.49186" lon="2.66953">
        <ele>128</ele>
        <time>2017-05-17T09:26:00.630</time>
      </trkpt>
      <trkpt lat="48.49182" lon="2.66955">
        <ele>129</ele>
        <time>2017-05-17T09:26:01.627</time>
      </trkpt>
      <trkpt lat="48.49179" lon="2.66955">
        <ele>129</ele>
        <time>2017-05-17T09:26:02.630</time>
      </trkpt>
      <trkpt lat="48.49174" lon="2.66956">
        <ele>129</ele>
        <time>2017-05-17T09:26:03.630</time>
      </trkpt>
      <trkpt lat="48.4917" lon="2.66957">
        <ele>130</ele>
        <time>2017-05-17T09:26:04.629</time>
      </trkpt>
      <trkpt lat="48.49167" lon="2.66957">
        <ele>129</ele>
        <time>2017-05-17T09:26:05.629</time>
      </trkpt>
      <trkpt lat="48.49163" lon="2.66958">
        <ele>130</ele>
        <time>2017-05-17T09:26:06.629</time>
      </trkpt>
      <trkpt lat="48.4916" lon="2.66959">
        <ele>130</ele>
        <time>2017-05-17T09:26:07.628</time>
      </trkpt>
      <trkpt lat="48.49157" lon="2.6696">
        <ele>129</ele>
        <time>2017-05-17T09:26:08.631</time>
      </trkpt>
      <trkpt lat="48.49153" lon="2.66961">
        <ele>129</ele>
        <time>2017-05-17T09:26:09.630</time>
      </trkpt>
      <trkpt lat="48.4915" lon="2.66961">
        <ele>128</ele>
        <time>2017-05-17T09:26:10.628</time>
      </trkpt>
      <trkpt lat="48.49148" lon="2.66962">
        <ele>129</ele>
        <time>2017-05-17T09:26:11.630</time>
      </trkpt>
      <trkpt lat="48.49145" lon="2.66962">
        <ele>128</ele>
        <time>2017-05-17T09:26:12.630</time>
      </trkpt>
      <trkpt lat="48.49142" lon="2.66962">
        <ele>129</ele>
        <time>2017-05-17T09:26:13.628</time>
      </trkpt>
      <trkpt lat="48.49139" lon="2.66963">
        <ele>129</ele>
        <time>2017-05-17T09:26:14.629</time>
      </trkpt>
      <trkpt lat="48.49136" lon="2.66963">
        <ele>129</ele>
        <time>2017-05-17T09:26:15.628</time>
      </trkpt>
      <trkpt lat="48.49133" lon="2.66963">
        <ele>129</ele>
        <time>2017-05-17T09:26:16.629</time>
      </trkpt>
      <trkpt lat="48.4913" lon="2.66965">
        <ele>128</ele>
        <time>2017-05-17T09:26:17.630</time>
      </trkpt>
      <trkpt lat="48.49128" lon="2.66966">
        <ele>128</ele>
        <time>2017-05-17T09:26:18.632</time>
      </trkpt>
      <trkpt lat="48.49125" lon="2.66965">
        <ele>127</ele>
        <time>2017-05-17T09:26:19.633</time>
      </trkpt>
      <trkpt lat="48.49121" lon="2.66966">
        <ele>127</ele>
        <time>2017-05-17T09:26:20.629</time>
      </trkpt>
      <trkpt lat="48.49117" lon="2.66967">
        <ele>127</ele>
        <time>2017-05-17T09:26:21.627</time>
      </trkpt>
      <trkpt lat="48.49113" lon="2.66969">
        <ele>127</ele>
        <time>2017-05-17T09:26:22.628</time>
      </trkpt>
      <trkpt lat="48.4911" lon="2.66971">
        <ele>126</ele>
        <time>2017-05-17T09:26:23.628</time>
      </trkpt>
      <trkpt lat="48.49106" lon="2.66974">
        <ele>125</ele>
        <time>2017-05-17T09:26:24.627</time>
      </trkpt>
      <trkpt lat="48.49104" lon="2.66977">
        <ele>123</ele>
        <time>2017-05-17T09:26:25.627</time>
      </trkpt>
      <trkpt lat="48.49101" lon="2.6698">
        <ele>123</ele>
        <time>2017-05-17T09:26:26.627</time>
      </trkpt>
      <trkpt lat="48.49097" lon="2.66982">
        <ele>123</ele>
        <time>2017-05-17T09:26:27.628</time>
      </trkpt>
      <trkpt lat="48.49094" lon="2.66985">
        <ele>123</ele>
        <time>2017-05-17T09:26:28.630</time>
      </trkpt>
      <trkpt lat="48.4909" lon="2.66987">
        <ele>123</ele>
        <time>2017-05-17T09:26:29.630</time>
      </trkpt>
      <trkpt lat="48.49085" lon="2.6699">
        <ele>125</ele>
        <time>2017-05-17T09:26:30.627</time>
      </trkpt>
      <trkpt lat="48.49081" lon="2.66992">
        <ele>125</ele>
        <time>2017-05-17T09:26:31.629</time>
      </trkpt>
      <trkpt lat="48.49075" lon="2.66995">
        <ele>127</ele>
        <time>2017-05-17T09:26:32.627</time>
      </trkpt>
      <trkpt lat="48.49069" lon="2.66998">
        <ele>127</ele>
        <time>2017-05-17T09:26:33.627</time>
      </trkpt>
      <trkpt lat="48.49065" lon="2.67002">
        <ele>129</ele>
        <time>2017-05-17T09:26:34.628</time>
      </trkpt>
      <trkpt lat="48.49062" lon="2.67008">
        <ele>130</ele>
        <time>2017-05-17T09:26:35.629</time>
      </trkpt>
      <trkpt lat="48.49058" lon="2.67013">
        <ele>131</ele>
        <time>2017-05-17T09:26:36.627</time>
      </trkpt>
      <trkpt lat="48.49053" lon="2.67014">
        <ele>132</ele>
        <time>2017-05-17T09:26:37.627</time>
      </trkpt>
      <trkpt lat="48.49051" lon="2.67014">
        <ele>132</ele>
        <time>2017-05-17T09:26:38.632</time>
      </trkpt>
      <trkpt lat="48.49048" lon="2.67019">
        <ele>131</ele>
        <time>2017-05-17T09:26:39.631</time>
      </trkpt>
      <trkpt lat="48.49045" lon="2.67021">
        <ele>130</ele>
        <time>2017-05-17T09:26:40.629</time>
      </trkpt>
      <trkpt lat="48.49041" lon="2.67026">
        <ele>130</ele>
        <time>2017-05-17T09:26:41.628</time>
      </trkpt>
      <trkpt lat="48.49038" lon="2.67028">
        <ele>129</ele>
        <time>2017-05-17T09:26:42.627</time>
      </trkpt>
      <trkpt lat="48.49033" lon="2.67034">
        <ele>127</ele>
        <time>2017-05-17T09:26:43.627</time>
      </trkpt>
      <trkpt lat="48.49029" lon="2.67038">
        <ele>126</ele>
        <time>2017-05-17T09:26:44.628</time>
      </trkpt>
      <trkpt lat="48.49023" lon="2.67041">
        <ele>127</ele>
        <time>2017-05-17T09:26:45.629</time>
      </trkpt>
      <trkpt lat="48.49017" lon="2.67045">
        <ele>126</ele>
        <time>2017-05-17T09:26:46.629</time>
      </trkpt>
      <trkpt lat="48.49011" lon="2.67049">
        <ele>127</ele>
        <time>2017-05-17T09:26:47.629</time>
      </trkpt>
      <trkpt lat="48.49005" lon="2.67051">
        <ele>127</ele>
        <time>2017-05-17T09:26:48.630</time>
      </trkpt>
      <trkpt lat="48.48999" lon="2.67054">
        <ele>128</ele>
        <time>2017-05-17T09:26:49.631</time>
      </trkpt>
      <trkpt lat="48.48994" lon="2.67056">
        <ele>130</ele>
        <time>2017-05-17T09:26:50.630</time>
      </trkpt>
      <trkpt lat="48.48988" lon="2.67058">
        <ele>131</ele>
        <time>2017-05-17T09:26:51.630</time>
      </trkpt>
      <trkpt lat="48.48983" lon="2.6706">
        <ele>132</ele>
        <time>2017-05-17T09:26:52.630</time>
      </trkpt>
      <trkpt lat="48.48978" lon="2.6706">
        <ele>132</ele>
        <time>2017-05-17T09:26:53.631</time>
      </trkpt>
      <trkpt lat="48.48973" lon="2.67065">
        <ele>132</ele>
        <time>2017-05-17T09:26:54.631</time>
      </trkpt>
      <trkpt lat="48.48969" lon="2.67066">
        <ele>133</ele>
        <time>2017-05-17T09:26:55.629</time>
      </trkpt>
      <trkpt lat="48.48967" lon="2.67065">
        <ele>133</ele>
        <time>2017-05-17T09:26:56.627</time>
      </trkpt>
      <trkpt lat="48.48964" lon="2.67066">
        <ele>134</ele>
        <time>2017-05-17T09:26:57.629</time>
      </trkpt>
      <trkpt lat="48.48959" lon="2.67067">
        <ele>136</ele>
        <time>2017-05-17T09:26:58.633</time>
      </trkpt>
      <trkpt lat="48.48955" lon="2.67068">
        <ele>136</ele>
        <time>2017-05-17T09:26:59.631</time>
      </trkpt>
      <trkpt lat="48.4895" lon="2.67069">
        <ele>136</ele>
        <time>2017-05-17T09:27:00.628</time>
      </trkpt>
      <trkpt lat="48.48945" lon="2.6707">
        <ele>136</ele>
        <time>2017-05-17T09:27:01.629</time>
      </trkpt>
      <trkpt lat="48.48941" lon="2.6707">
        <ele>137</ele>
        <time>2017-05-17T09:27:02.628</time>
      </trkpt>
      <trkpt lat="48.48937" lon="2.6707">
        <ele>137</ele>
        <time>2017-05-17T09:27:03.628</time>
      </trkpt>
      <trkpt lat="48.48933" lon="2.67072">
        <ele>136</ele>
        <time>2017-05-17T09:27:04.627</time>
      </trkpt>
      <trkpt lat="48.48929" lon="2.67073">
        <ele>137</ele>
        <time>2017-05-17T09:27:05.627</time>
      </trkpt>
      <trkpt lat="48.48925" lon="2.67075">
        <ele>137</ele>
        <time>2017-05-17T09:27:06.630</time>
      </trkpt>
      <trkpt lat="48.48922" lon="2.67079">
        <ele>138</ele>
        <time>2017-05-17T09:27:07.632</time>
      </trkpt>
      <trkpt lat="48.48917" lon="2.67083">
        <ele>139</ele>
        <time>2017-05-17T09:27:08.633</time>
      </trkpt>
      <trkpt lat="48.48914" lon="2.67084">
        <ele>140</ele>
        <time>2017-05-17T09:27:09.632</time>
      </trkpt>
      <trkpt lat="48.4891" lon="2.67085">
        <ele>140</ele>
        <time>2017-05-17T09:27:10.629</time>
      </trkpt>
      <trkpt lat="48.48905" lon="2.67087">
        <ele>139</ele>
        <time>2017-05-17T09:27:11.630</time>
      </trkpt>
      <trkpt lat="48.489" lon="2.67088">
        <ele>141</ele>
        <time>2017-05-17T09:27:12.631</time>
      </trkpt>
      <trkpt lat="48.48896" lon="2.6709">
        <ele>141</ele>
        <time>2017-05-17T09:27:13.631</time>
      </trkpt>
      <trkpt lat="48.48891" lon="2.67091">
        <ele>140</ele>
        <time>2017-05-17T09:27:14.631</time>
      </trkpt>
      <trkpt lat="48.48887" lon="2.67092">
        <ele>140</ele>
        <time>2017-05-17T09:27:15.630</time>
      </trkpt>
      <trkpt lat="48.48882" lon="2.67094">
        <ele>142</ele>
        <time>2017-05-17T09:27:16.636</time>
      </trkpt>
      <trkpt lat="48.48877" lon="2.67095">
        <ele>143</ele>
        <time>2017-05-17T09:27:17.631</time>
      </trkpt>
      <trkpt lat="48.48872" lon="2.67097">
        <ele>142</ele>
        <time>2017-05-17T09:27:18.631</time>
      </trkpt>
      <trkpt lat="48.48869" lon="2.67097">
        <ele>141</ele>
        <time>2017-05-17T09:27:19.631</time>
      </trkpt>
      <trkpt lat="48.48864" lon="2.67099">
        <ele>140</ele>
        <time>2017-05-17T09:27:20.629</time>
      </trkpt>
      <trkpt lat="48.4886" lon="2.67103">
        <ele>141</ele>
        <time>2017-05-17T09:27:21.630</time>
      </trkpt>
      <trkpt lat="48.48857" lon="2.67106">
        <ele>143</ele>
        <time>2017-05-17T09:27:22.632</time>
      </trkpt>
      <trkpt lat="48.48852" lon="2.67112">
        <ele>143</ele>
        <time>2017-05-17T09:27:23.629</time>
      </trkpt>
      <trkpt lat="48.48847" lon="2.67113">
        <ele>143</ele>
        <time>2017-05-17T09:27:24.629</time>
      </trkpt>
      <trkpt lat="48.48842" lon="2.67116">
        <ele>143</ele>
        <time>2017-05-17T09:27:25.630</time>
      </trkpt>
      <trkpt lat="48.48837" lon="2.67117">
        <ele>142</ele>
        <time>2017-05-17T09:27:26.630</time>
      </trkpt>
      <trkpt lat="48.48833" lon="2.67119">
        <ele>142</ele>
        <time>2017-05-17T09:27:27.629</time>
      </trkpt>
      <trkpt lat="48.48829" lon="2.67121">
        <ele>141</ele>
        <time>2017-05-17T09:27:28.631</time>
      </trkpt>
      <trkpt lat="48.48823" lon="2.67124">
        <ele>142</ele>
        <time>2017-05-17T09:27:29.632</time>
      </trkpt>
      <trkpt lat="48.48818" lon="2.67126">
        <ele>142</ele>
        <time>2017-05-17T09:27:30.628</time>
      </trkpt>
      <trkpt lat="48.48814" lon="2.67128">
        <ele>141</ele>
        <time>2017-05-17T09:27:31.629</time>
      </trkpt>
      <trkpt lat="48.48809" lon="2.67131">
        <ele>141</ele>
        <time>2017-05-17T09:27:32.629</time>
      </trkpt>
      <trkpt lat="48.48805" lon="2.67132">
        <ele>141</ele>
        <time>2017-05-17T09:27:33.629</time>
      </trkpt>
      <trkpt lat="48.48801" lon="2.67133">
        <ele>141</ele>
        <time>2017-05-17T09:27:34.629</time>
      </trkpt>
      <trkpt lat="48.48798" lon="2.67135">
        <ele>141</ele>
        <time>2017-05-17T09:27:35.628</time>
      </trkpt>
      <trkpt lat="48.48794" lon="2.67136">
        <ele>142</ele>
        <time>2017-05-17T09:27:36.628</time>
      </trkpt>
      <trkpt lat="48.4879" lon="2.67137">
        <ele>143</ele>
        <time>2017-05-17T09:27:37.629</time>
      </trkpt>
      <trkpt lat="48.48787" lon="2.6714">
        <ele>143</ele>
        <time>2017-05-17T09:27:38.632</time>
      </trkpt>
      <trkpt lat="48.48782" lon="2.67142">
        <ele>144</ele>
        <time>2017-05-17T09:27:39.634</time>
      </trkpt>
      <trkpt lat="48.48778" lon="2.67145">
        <ele>144</ele>
        <time>2017-05-17T09:27:40.633</time>
      </trkpt>
      <trkpt lat="48.48774" lon="2.67149">
        <ele>144</ele>
        <time>2017-05-17T09:27:41.633</time>
      </trkpt>
      <trkpt lat="48.48773" lon="2.67149">
        <ele>139</ele>
        <time>2017-05-17T09:27:42.632</time>
      </trkpt>
      <trkpt lat="48.48771" lon="2.67149">
        <ele>139</ele>
        <time>2017-05-17T09:27:43.632</time>
      </trkpt>
      <trkpt lat="48.48768" lon="2.67151">
        <ele>139</ele>
        <time>2017-05-17T09:27:44.637</time>
      </trkpt>
      <trkpt lat="48.48763" lon="2.67156">
        <ele>139</ele>
        <time>2017-05-17T09:27:45.637</time>
      </trkpt>
      <trkpt lat="48.48758" lon="2.67158">
        <ele>139</ele>
        <time>2017-05-17T09:27:46.639</time>
      </trkpt>
      <trkpt lat="48.48756" lon="2.67163">
        <ele>137</ele>
        <time>2017-05-17T09:27:47.637</time>
      </trkpt>
      <trkpt lat="48.48751" lon="2.67166">
        <ele>139</ele>
        <time>2017-05-17T09:27:48.640</time>
      </trkpt>
      <trkpt lat="48.48746" lon="2.67168">
        <ele>140</ele>
        <time>2017-05-17T09:27:49.631</time>
      </trkpt>
      <trkpt lat="48.48743" lon="2.6717">
        <ele>140</ele>
        <time>2017-05-17T09:27:50.629</time>
      </trkpt>
      <trkpt lat="48.48738" lon="2.67176">
        <ele>140</ele>
        <time>2017-05-17T09:27:51.628</time>
      </trkpt>
      <trkpt lat="48.48735" lon="2.67181">
        <ele>140</ele>
        <time>2017-05-17T09:27:52.630</time>
      </trkpt>
      <trkpt lat="48.48732" lon="2.67186">
        <ele>140</ele>
        <time>2017-05-17T09:27:53.629</time>
      </trkpt>
      <trkpt lat="48.48728" lon="2.67188">
        <ele>141</ele>
        <time>2017-05-17T09:27:54.628</time>
      </trkpt>
      <trkpt lat="48.48724" lon="2.6719">
        <ele>140</ele>
        <time>2017-05-17T09:27:55.631</time>
      </trkpt>
      <trkpt lat="48.4872" lon="2.67193">
        <ele>140</ele>
        <time>2017-05-17T09:27:56.630</time>
      </trkpt>
      <trkpt lat="48.48716" lon="2.67198">
        <ele>142</ele>
        <time>2017-05-17T09:27:57.631</time>
      </trkpt>
      <trkpt lat="48.48712" lon="2.67204">
        <ele>142</ele>
        <time>2017-05-17T09:27:58.633</time>
      </trkpt>
      <trkpt lat="48.48711" lon="2.67208">
        <ele>141</ele>
        <time>2017-05-17T09:27:59.631</time>
      </trkpt>
      <trkpt lat="48.48708" lon="2.67212">
        <ele>141</ele>
        <time>2017-05-17T09:28:00.630</time>
      </trkpt>
      <trkpt lat="48.48704" lon="2.67217">
        <ele>141</ele>
        <time>2017-05-17T09:28:01.630</time>
      </trkpt>
      <trkpt lat="48.48698" lon="2.67222">
        <ele>141</ele>
        <time>2017-05-17T09:28:02.631</time>
      </trkpt>
      <trkpt lat="48.48695" lon="2.67225">
        <ele>142</ele>
        <time>2017-05-17T09:28:03.630</time>
      </trkpt>
      <trkpt lat="48.48691" lon="2.67229">
        <ele>141</ele>
        <time>2017-05-17T09:28:04.629</time>
      </trkpt>
      <trkpt lat="48.48688" lon="2.67234">
        <ele>142</ele>
        <time>2017-05-17T09:28:05.629</time>
      </trkpt>
      <trkpt lat="48.48685" lon="2.67238">
        <ele>142</ele>
        <time>2017-05-17T09:28:06.629</time>
      </trkpt>
      <trkpt lat="48.48683" lon="2.67242">
        <ele>143</ele>
        <time>2017-05-17T09:28:07.630</time>
      </trkpt>
      <trkpt lat="48.4868" lon="2.67247">
        <ele>142</ele>
        <time>2017-05-17T09:28:08.633</time>
      </trkpt>
      <trkpt lat="48.48679" lon="2.67254">
        <ele>142</ele>
        <time>2017-05-17T09:28:09.632</time>
      </trkpt>
      <trkpt lat="48.48677" lon="2.67258">
        <ele>141</ele>
        <time>2017-05-17T09:28:10.629</time>
      </trkpt>
      <trkpt lat="48.48673" lon="2.67262">
        <ele>142</ele>
        <time>2017-05-17T09:28:11.629</time>
      </trkpt>
      <trkpt lat="48.48668" lon="2.67268">
        <ele>141</ele>
        <time>2017-05-17T09:28:12.630</time>
      </trkpt>
      <trkpt lat="48.48665" lon="2.67271">
        <ele>142</ele>
        <time>2017-05-17T09:28:13.629</time>
      </trkpt>
      <trkpt lat="48.48662" lon="2.67273">
        <ele>142</ele>
        <time>2017-05-17T09:28:14.629</time>
      </trkpt>
      <trkpt lat="48.48658" lon="2.67275">
        <ele>143</ele>
        <time>2017-05-17T09:28:15.630</time>
      </trkpt>
      <trkpt lat="48.48653" lon="2.67276">
        <ele>142</ele>
        <time>2017-05-17T09:28:16.630</time>
      </trkpt>
      <trkpt lat="48.48649" lon="2.67277">
        <ele>142</ele>
        <time>2017-05-17T09:28:17.630</time>
      </trkpt>
      <trkpt lat="48.48644" lon="2.67279">
        <ele>142</ele>
        <time>2017-05-17T09:28:18.634</time>
      </trkpt>
      <trkpt lat="48.48639" lon="2.6728">
        <ele>142</ele>
        <time>2017-05-17T09:28:19.633</time>
      </trkpt>
      <trkpt lat="48.48636" lon="2.67284">
        <ele>144</ele>
        <time>2017-05-17T09:28:20.632</time>
      </trkpt>
      <trkpt lat="48.48633" lon="2.67289">
        <ele>144</ele>
        <time>2017-05-17T09:28:21.631</time>
      </trkpt>
      <trkpt lat="48.48628" lon="2.67292">
        <ele>144</ele>
        <time>2017-05-17T09:28:22.628</time>
      </trkpt>
      <trkpt lat="48.48623" lon="2.67294">
        <ele>144</ele>
        <time>2017-05-17T09:28:23.630</time>
      </trkpt>
      <trkpt lat="48.48619" lon="2.67297">
        <ele>143</ele>
        <time>2017-05-17T09:28:24.629</time>
      </trkpt>
      <trkpt lat="48.48616" lon="2.67299">
        <ele>142</ele>
        <time>2017-05-17T09:28:25.630</time>
      </trkpt>
      <trkpt lat="48.48613" lon="2.67302">
        <ele>141</ele>
        <time>2017-05-17T09:28:26.630</time>
      </trkpt>
      <trkpt lat="48.48609" lon="2.67308">
        <ele>141</ele>
        <time>2017-05-17T09:28:27.629</time>
      </trkpt>
      <trkpt lat="48.48604" lon="2.67312">
        <ele>141</ele>
        <time>2017-05-17T09:28:28.632</time>
      </trkpt>
      <trkpt lat="48.48601" lon="2.67315">
        <ele>140</ele>
        <time>2017-05-17T09:28:29.633</time>
      </trkpt>
      <trkpt lat="48.48598" lon="2.67318">
        <ele>141</ele>
        <time>2017-05-17T09:28:30.631</time>
      </trkpt>
      <trkpt lat="48.48591" lon="2.67325">
        <ele>140</ele>
        <time>2017-05-17T09:28:31.630</time>
      </trkpt>
      <trkpt lat="48.48588" lon="2.67328">
        <ele>141</ele>
        <time>2017-05-17T09:28:32.629</time>
      </trkpt>
      <trkpt lat="48.48583" lon="2.67331">
        <ele>138</ele>
        <time>2017-05-17T09:28:33.627</time>
      </trkpt>
      <trkpt lat="48.4858" lon="2.67335">
        <ele>138</ele>
        <time>2017-05-17T09:28:34.628</time>
      </trkpt>
      <trkpt lat="48.48577" lon="2.6734">
        <ele>138</ele>
        <time>2017-05-17T09:28:35.628</time>
      </trkpt>
      <trkpt lat="48.48574" lon="2.67343">
        <ele>138</ele>
        <time>2017-05-17T09:28:36.628</time>
      </trkpt>
      <trkpt lat="48.48571" lon="2.67346">
        <ele>138</ele>
        <time>2017-05-17T09:28:37.628</time>
      </trkpt>
      <trkpt lat="48.48566" lon="2.67351">
        <ele>137</ele>
        <time>2017-05-17T09:28:38.633</time>
      </trkpt>
      <trkpt lat="48.48562" lon="2.67353">
        <ele>136</ele>
        <time>2017-05-17T09:28:39.632</time>
      </trkpt>
      <trkpt lat="48.48558" lon="2.67356">
        <ele>136</ele>
        <time>2017-05-17T09:28:40.628</time>
      </trkpt>
      <trkpt lat="48.48552" lon="2.67359">
        <ele>135</ele>
        <time>2017-05-17T09:28:41.628</time>
      </trkpt>
      <trkpt lat="48.48547" lon="2.67362">
        <ele>134</ele>
        <time>2017-05-17T09:28:42.628</time>
      </trkpt>
      <trkpt lat="48.48542" lon="2.67364">
        <ele>134</ele>
        <time>2017-05-17T09:28:43.629</time>
      </trkpt>
      <trkpt lat="48.4854" lon="2.67369">
        <ele>135</ele>
        <time>2017-05-17T09:28:44.629</time>
      </trkpt>
      <trkpt lat="48.48536" lon="2.67372">
        <ele>133</ele>
        <time>2017-05-17T09:28:45.630</time>
      </trkpt>
      <trkpt lat="48.48534" lon="2.67376">
        <ele>132</ele>
        <time>2017-05-17T09:28:46.629</time>
      </trkpt>
      <trkpt lat="48.48531" lon="2.67378">
        <ele>132</ele>
        <time>2017-05-17T09:28:47.627</time>
      </trkpt>
      <trkpt lat="48.48527" lon="2.67382">
        <ele>131</ele>
        <time>2017-05-17T09:28:48.630</time>
      </trkpt>
      <trkpt lat="48.48522" lon="2.67384">
        <ele>131</ele>
        <time>2017-05-17T09:28:49.631</time>
      </trkpt>
      <trkpt lat="48.48521" lon="2.67388">
        <ele>132</ele>
        <time>2017-05-17T09:28:50.629</time>
      </trkpt>
      <trkpt lat="48.48518" lon="2.67395">
        <ele>132</ele>
        <time>2017-05-17T09:28:51.629</time>
      </trkpt>
      <trkpt lat="48.48515" lon="2.67399">
        <ele>133</ele>
        <time>2017-05-17T09:28:52.628</time>
      </trkpt>
      <trkpt lat="48.48512" lon="2.67403">
        <ele>132</ele>
        <time>2017-05-17T09:28:53.628</time>
      </trkpt>
      <trkpt lat="48.48511" lon="2.67407">
        <ele>131</ele>
        <time>2017-05-17T09:28:54.628</time>
      </trkpt>
      <trkpt lat="48.4851" lon="2.67408">
        <ele>131</ele>
        <time>2017-05-17T09:28:55.629</time>
      </trkpt>
      <trkpt lat="48.48512" lon="2.67408">
        <ele>129</ele>
        <time>2017-05-17T09:28:56.629</time>
      </trkpt>
      <trkpt lat="48.48512" lon="2.67412">
        <ele>130</ele>
        <time>2017-05-17T09:28:57.628</time>
      </trkpt>
      <trkpt lat="48.48513" lon="2.67414">
        <ele>129</ele>
        <time>2017-05-17T09:28:58.632</time>
      </trkpt>
      <trkpt lat="48.48514" lon="2.67418">
        <ele>130</ele>
        <time>2017-05-17T09:28:59.631</time>
      </trkpt>
      <trkpt lat="48.48515" lon="2.67422">
        <ele>129</ele>
        <time>2017-05-17T09:29:00.628</time>
      </trkpt>
      <trkpt lat="48.48516" lon="2.67426">
        <ele>129</ele>
        <time>2017-05-17T09:29:01.630</time>
      </trkpt>
      <trkpt lat="48.48515" lon="2.67428">
        <ele>129</ele>
        <time>2017-05-17T09:29:02.631</time>
      </trkpt>
      <trkpt lat="48.48512" lon="2.6743">
        <ele>129</ele>
        <time>2017-05-17T09:29:03.629</time>
      </trkpt>
      <trkpt lat="48.4851" lon="2.67432">
        <ele>128</ele>
        <time>2017-05-17T09:29:04.629</time>
      </trkpt>
      <trkpt lat="48.48508" lon="2.67434">
        <ele>128</ele>
        <time>2017-05-17T09:29:05.631</time>
      </trkpt>
      <trkpt lat="48.48505" lon="2.67442">
        <ele>129</ele>
        <time>2017-05-17T09:29:06.629</time>
      </trkpt>
      <trkpt lat="48.48503" lon="2.67449">
        <ele>129</ele>
        <time>2017-05-17T09:29:07.629</time>
      </trkpt>
      <trkpt lat="48.48499" lon="2.67453">
        <ele>129</ele>
        <time>2017-05-17T09:29:08.631</time>
      </trkpt>
      <trkpt lat="48.48496" lon="2.6746">
        <ele>128</ele>
        <time>2017-05-17T09:29:09.632</time>
      </trkpt>
      <trkpt lat="48.48493" lon="2.67463">
        <ele>128</ele>
        <time>2017-05-17T09:29:10.630</time>
      </trkpt>
      <trkpt lat="48.4849" lon="2.67467">
        <ele>128</ele>
        <time>2017-05-17T09:29:11.629</time>
      </trkpt>
      <trkpt lat="48.48486" lon="2.6747">
        <ele>128</ele>
        <time>2017-05-17T09:29:12.628</time>
      </trkpt>
      <trkpt lat="48.48483" lon="2.67474">
        <ele>127</ele>
        <time>2017-05-17T09:29:13.629</time>
      </trkpt>
      <trkpt lat="48.48482" lon="2.67475">
        <ele>126</ele>
        <time>2017-05-17T09:29:14.627</time>
      </trkpt>
      <trkpt lat="48.48481" lon="2.6748">
        <ele>123</ele>
        <time>2017-05-17T09:29:15.629</time>
      </trkpt>
      <trkpt lat="48.48477" lon="2.67484">
        <ele>126</ele>
        <time>2017-05-17T09:29:16.630</time>
      </trkpt>
      <trkpt lat="48.48474" lon="2.67488">
        <ele>129</ele>
        <time>2017-05-17T09:29:17.631</time>
      </trkpt>
      <trkpt lat="48.48471" lon="2.67492">
        <ele>131</ele>
        <time>2017-05-17T09:29:18.633</time>
      </trkpt>
      <trkpt lat="48.48466" lon="2.67497">
        <ele>132</ele>
        <time>2017-05-17T09:29:19.633</time>
      </trkpt>
      <trkpt lat="48.48462" lon="2.67503">
        <ele>132</ele>
        <time>2017-05-17T09:29:20.629</time>
      </trkpt>
      <trkpt lat="48.48459" lon="2.67505">
        <ele>131</ele>
        <time>2017-05-17T09:29:21.628</time>
      </trkpt>
      <trkpt lat="48.48456" lon="2.6751">
        <ele>132</ele>
        <time>2017-05-17T09:29:22.629</time>
      </trkpt>
      <trkpt lat="48.48453" lon="2.67512">
        <ele>131</ele>
        <time>2017-05-17T09:29:23.631</time>
      </trkpt>
      <trkpt lat="48.48449" lon="2.67515">
        <ele>132</ele>
        <time>2017-05-17T09:29:24.630</time>
      </trkpt>
      <trkpt lat="48.48448" lon="2.67519">
        <ele>132</ele>
        <time>2017-05-17T09:29:25.631</time>
      </trkpt>
      <trkpt lat="48.48446" lon="2.67521">
        <ele>131</ele>
        <time>2017-05-17T09:29:26.629</time>
      </trkpt>
      <trkpt lat="48.48443" lon="2.67524">
        <ele>130</ele>
        <time>2017-05-17T09:29:27.628</time>
      </trkpt>
      <trkpt lat="48.4844" lon="2.67531">
        <ele>129</ele>
        <time>2017-05-17T09:29:28.631</time>
      </trkpt>
      <trkpt lat="48.48435" lon="2.67538">
        <ele>132</ele>
        <time>2017-05-17T09:29:29.632</time>
      </trkpt>
      <trkpt lat="48.4843" lon="2.67544">
        <ele>133</ele>
        <time>2017-05-17T09:29:30.631</time>
      </trkpt>
      <trkpt lat="48.48432" lon="2.67544">
        <ele>135</ele>
        <time>2017-05-17T09:29:31.631</time>
      </trkpt>
      <trkpt lat="48.4843" lon="2.67547">
        <ele>135</ele>
        <time>2017-05-17T09:29:32.630</time>
      </trkpt>
      <trkpt lat="48.4843" lon="2.67551">
        <ele>134</ele>
        <time>2017-05-17T09:29:33.630</time>
      </trkpt>
      <trkpt lat="48.4843" lon="2.67556">
        <ele>134</ele>
        <time>2017-05-17T09:29:34.629</time>
      </trkpt>
      <trkpt lat="48.48429" lon="2.6756">
        <ele>135</ele>
        <time>2017-05-17T09:29:35.630</time>
      </trkpt>
      <trkpt lat="48.48423" lon="2.67569">
        <ele>135</ele>
        <time>2017-05-17T09:29:36.630</time>
      </trkpt>
      <trkpt lat="48.48421" lon="2.67575">
        <ele>134</ele>
        <time>2017-05-17T09:29:37.632</time>
      </trkpt>
      <trkpt lat="48.48419" lon="2.67578">
        <ele>133</ele>
        <time>2017-05-17T09:29:38.632</time>
      </trkpt>
      <trkpt lat="48.48412" lon="2.67593">
        <ele>133</ele>
        <time>2017-05-17T09:29:39.633</time>
      </trkpt>
      <trkpt lat="48.48409" lon="2.67602">
        <ele>133</ele>
        <time>2017-05-17T09:29:40.632</time>
      </trkpt>
      <trkpt lat="48.48406" lon="2.67608">
        <ele>133</ele>
        <time>2017-05-17T09:29:41.630</time>
      </trkpt>
      <trkpt lat="48.48404" lon="2.67617">
        <ele>133</ele>
        <time>2017-05-17T09:29:42.631</time>
      </trkpt>
      <trkpt lat="48.48399" lon="2.67623">
        <ele>133</ele>
        <time>2017-05-17T09:29:43.631</time>
      </trkpt>
      <trkpt lat="48.48395" lon="2.67629">
        <ele>132</ele>
        <time>2017-05-17T09:29:44.630</time>
      </trkpt>
      <trkpt lat="48.48393" lon="2.67635">
        <ele>132</ele>
        <time>2017-05-17T09:29:45.629</time>
      </trkpt>
      <trkpt lat="48.48389" lon="2.67642">
        <ele>131</ele>
        <time>2017-05-17T09:29:46.631</time>
      </trkpt>
      <trkpt lat="48.48385" lon="2.67646">
        <ele>131</ele>
        <time>2017-05-17T09:29:47.632</time>
      </trkpt>
      <trkpt lat="48.48381" lon="2.6765">
        <ele>131</ele>
        <time>2017-05-17T09:29:48.632</time>
      </trkpt>
      <trkpt lat="48.48378" lon="2.67653">
        <ele>132</ele>
        <time>2017-05-17T09:29:49.631</time>
      </trkpt>
      <trkpt lat="48.48374" lon="2.67656">
        <ele>131</ele>
        <time>2017-05-17T09:29:50.630</time>
      </trkpt>
      <trkpt lat="48.48369" lon="2.67664">
        <ele>131</ele>
        <time>2017-05-17T09:29:51.630</time>
      </trkpt>
      <trkpt lat="48.48364" lon="2.67669">
        <ele>130</ele>
        <time>2017-05-17T09:29:52.629</time>
      </trkpt>
      <trkpt lat="48.48362" lon="2.67673">
        <ele>128</ele>
        <time>2017-05-17T09:29:53.630</time>
      </trkpt>
      <trkpt lat="48.48359" lon="2.67677">
        <ele>126</ele>
        <time>2017-05-17T09:29:54.629</time>
      </trkpt>
      <trkpt lat="48.48356" lon="2.67682">
        <ele>125</ele>
        <time>2017-05-17T09:29:55.629</time>
      </trkpt>
      <trkpt lat="48.48351" lon="2.67688">
        <ele>125</ele>
        <time>2017-05-17T09:29:56.629</time>
      </trkpt>
      <trkpt lat="48.48348" lon="2.67693">
        <ele>125</ele>
        <time>2017-05-17T09:29:57.629</time>
      </trkpt>
      <trkpt lat="48.48344" lon="2.67698">
        <ele>125</ele>
        <time>2017-05-17T09:29:58.630</time>
      </trkpt>
      <trkpt lat="48.48339" lon="2.67702">
        <ele>126</ele>
        <time>2017-05-17T09:29:59.630</time>
      </trkpt>
      <trkpt lat="48.48334" lon="2.67706">
        <ele>125</ele>
        <time>2017-05-17T09:30:00.629</time>
      </trkpt>
      <trkpt lat="48.4833" lon="2.67707">
        <ele>125</ele>
        <time>2017-05-17T09:30:01.629</time>
      </trkpt>
      <trkpt lat="48.48326" lon="2.67711">
        <ele>125</ele>
        <time>2017-05-17T09:30:02.630</time>
      </trkpt>
      <trkpt lat="48.48321" lon="2.67715">
        <ele>125</ele>
        <time>2017-05-17T09:30:03.629</time>
      </trkpt>
      <trkpt lat="48.48317" lon="2.67718">
        <ele>125</ele>
        <time>2017-05-17T09:30:04.629</time>
      </trkpt>
      <trkpt lat="48.48313" lon="2.67721">
        <ele>124</ele>
        <time>2017-05-17T09:30:05.629</time>
      </trkpt>
      <trkpt lat="48.48309" lon="2.67723">
        <ele>124</ele>
        <time>2017-05-17T09:30:06.628</time>
      </trkpt>
      <trkpt lat="48.48305" lon="2.67726">
        <ele>124</ele>
        <time>2017-05-17T09:30:07.629</time>
      </trkpt>
      <trkpt lat="48.48301" lon="2.67731">
        <ele>124</ele>
        <time>2017-05-17T09:30:08.632</time>
      </trkpt>
      <trkpt lat="48.48296" lon="2.67736">
        <ele>125</ele>
        <time>2017-05-17T09:30:09.631</time>
      </trkpt>
      <trkpt lat="48.48292" lon="2.67739">
        <ele>124</ele>
        <time>2017-05-17T09:30:10.629</time>
      </trkpt>
      <trkpt lat="48.48288" lon="2.67743">
        <ele>125</ele>
        <time>2017-05-17T09:30:11.629</time>
      </trkpt>
      <trkpt lat="48.48283" lon="2.67748">
        <ele>125</ele>
        <time>2017-05-17T09:30:12.630</time>
      </trkpt>
      <trkpt lat="48.48279" lon="2.67753">
        <ele>126</ele>
        <time>2017-05-17T09:30:13.627</time>
      </trkpt>
      <trkpt lat="48.48275" lon="2.67758">
        <ele>127</ele>
        <time>2017-05-17T09:30:14.627</time>
      </trkpt>
      <trkpt lat="48.48271" lon="2.67761">
        <ele>128</ele>
        <time>2017-05-17T09:30:15.629</time>
      </trkpt>
      <trkpt lat="48.48268" lon="2.67765">
        <ele>128</ele>
        <time>2017-05-17T09:30:16.628</time>
      </trkpt>
      <trkpt lat="48.48265" lon="2.67769">
        <ele>128</ele>
        <time>2017-05-17T09:30:17.627</time>
      </trkpt>
      <trkpt lat="48.48261" lon="2.67774">
        <ele>129</ele>
        <time>2017-05-17T09:30:18.634</time>
      </trkpt>
      <trkpt lat="48.48258" lon="2.67777">
        <ele>129</ele>
        <time>2017-05-17T09:30:19.634</time>
      </trkpt>
      <trkpt lat="48.48254" lon="2.67782">
        <ele>129</ele>
        <time>2017-05-17T09:30:20.629</time>
      </trkpt>
      <trkpt lat="48.48251" lon="2.67787">
        <ele>130</ele>
        <time>2017-05-17T09:30:21.628</time>
      </trkpt>
      <trkpt lat="48.48247" lon="2.67793">
        <ele>130</ele>
        <time>2017-05-17T09:30:22.629</time>
      </trkpt>
      <trkpt lat="48.48245" lon="2.67799">
        <ele>130</ele>
        <time>2017-05-17T09:30:23.629</time>
      </trkpt>
      <trkpt lat="48.48244" lon="2.67804">
        <ele>130</ele>
        <time>2017-05-17T09:30:24.627</time>
      </trkpt>
      <trkpt lat="48.48242" lon="2.6781">
        <ele>130</ele>
        <time>2017-05-17T09:30:25.631</time>
      </trkpt>
      <trkpt lat="48.4824" lon="2.67816">
        <ele>130</ele>
        <time>2017-05-17T09:30:26.630</time>
      </trkpt>
      <trkpt lat="48.48238" lon="2.67823">
        <ele>130</ele>
        <time>2017-05-17T09:30:27.630</time>
      </trkpt>
      <trkpt lat="48.48237" lon="2.67828">
        <ele>131</ele>
        <time>2017-05-17T09:30:28.632</time>
      </trkpt>
      <trkpt lat="48.48235" lon="2.67833">
        <ele>131</ele>
        <time>2017-05-17T09:30:29.630</time>
      </trkpt>
      <trkpt lat="48.48232" lon="2.67838">
        <ele>131</ele>
        <time>2017-05-17T09:30:30.637</time>
      </trkpt>
      <trkpt lat="48.48229" lon="2.67844">
        <ele>130</ele>
        <time>2017-05-17T09:30:31.638</time>
      </trkpt>
      <trkpt lat="48.48226" lon="2.67848">
        <ele>131</ele>
        <time>2017-05-17T09:30:32.632</time>
      </trkpt>
      <trkpt lat="48.48224" lon="2.67853">
        <ele>131</ele>
        <time>2017-05-17T09:30:33.639</time>
      </trkpt>
      <trkpt lat="48.48224" lon="2.67858">
        <ele>131</ele>
        <time>2017-05-17T09:30:34.638</time>
      </trkpt>
      <trkpt lat="48.48226" lon="2.67861">
        <ele>131</ele>
        <time>2017-05-17T09:30:35.649</time>
      </trkpt>
      <trkpt lat="48.48228" lon="2.67864">
        <ele>131</ele>
        <time>2017-05-17T09:30:36.650</time>
      </trkpt>
      <trkpt lat="48.4823" lon="2.67869">
        <ele>130</ele>
        <time>2017-05-17T09:30:37.649</time>
      </trkpt>
      <trkpt lat="48.48232" lon="2.67874">
        <ele>130</ele>
        <time>2017-05-17T09:30:38.632</time>
      </trkpt>
      <trkpt lat="48.48233" lon="2.67881">
        <ele>130</ele>
        <time>2017-05-17T09:30:39.634</time>
      </trkpt>
      <trkpt lat="48.48232" lon="2.67888">
        <ele>130</ele>
        <time>2017-05-17T09:30:40.628</time>
      </trkpt>
      <trkpt lat="48.48228" lon="2.67894">
        <ele>129</ele>
        <time>2017-05-17T09:30:41.628</time>
      </trkpt>
      <trkpt lat="48.48227" lon="2.679">
        <ele>129</ele>
        <time>2017-05-17T09:30:42.628</time>
      </trkpt>
      <trkpt lat="48.48227" lon="2.67906">
        <ele>129</ele>
        <time>2017-05-17T09:30:43.629</time>
      </trkpt>
      <trkpt lat="48.48225" lon="2.6791">
        <ele>127</ele>
        <time>2017-05-17T09:30:44.629</time>
      </trkpt>
      <trkpt lat="48.48224" lon="2.67915">
        <ele>126</ele>
        <time>2017-05-17T09:30:45.628</time>
      </trkpt>
      <trkpt lat="48.48223" lon="2.67921">
        <ele>126</ele>
        <time>2017-05-17T09:30:46.631</time>
      </trkpt>
      <trkpt lat="48.48222" lon="2.67929">
        <ele>125</ele>
        <time>2017-05-17T09:30:47.630</time>
      </trkpt>
      <trkpt lat="48.48222" lon="2.67937">
        <ele>125</ele>
        <time>2017-05-17T09:30:48.631</time>
      </trkpt>
      <trkpt lat="48.48224" lon="2.67943">
        <ele>125</ele>
        <time>2017-05-17T09:30:49.630</time>
      </trkpt>
      <trkpt lat="48.4823" lon="2.67949">
        <ele>124</ele>
        <time>2017-05-17T09:30:50.628</time>
      </trkpt>
      <trkpt lat="48.48232" lon="2.67958">
        <ele>124</ele>
        <time>2017-05-17T09:30:51.629</time>
      </trkpt>
      <trkpt lat="48.48233" lon="2.67967">
        <ele>124</ele>
        <time>2017-05-17T09:30:52.630</time>
      </trkpt>
      <trkpt lat="48.48236" lon="2.67973">
        <ele>124</ele>
        <time>2017-05-17T09:30:53.628</time>
      </trkpt>
      <trkpt lat="48.4824" lon="2.67979">
        <ele>124</ele>
        <time>2017-05-17T09:30:54.628</time>
      </trkpt>
      <trkpt lat="48.48241" lon="2.67987">
        <ele>125</ele>
        <time>2017-05-17T09:30:55.628</time>
      </trkpt>
      <trkpt lat="48.48241" lon="2.67993">
        <ele>125</ele>
        <time>2017-05-17T09:30:56.629</time>
      </trkpt>
      <trkpt lat="48.48242" lon="2.67998">
        <ele>125</ele>
        <time>2017-05-17T09:30:57.628</time>
      </trkpt>
      <trkpt lat="48.48241" lon="2.68004">
        <ele>125</ele>
        <time>2017-05-17T09:30:58.631</time>
      </trkpt>
      <trkpt lat="48.48236" lon="2.68008">
        <ele>123</ele>
        <time>2017-05-17T09:30:59.632</time>
      </trkpt>
      <trkpt lat="48.48235" lon="2.68014">
        <ele>123</ele>
        <time>2017-05-17T09:31:00.628</time>
      </trkpt>
      <trkpt lat="48.48232" lon="2.68018">
        <ele>123</ele>
        <time>2017-05-17T09:31:01.628</time>
      </trkpt>
      <trkpt lat="48.48229" lon="2.68023">
        <ele>123</ele>
        <time>2017-05-17T09:31:02.628</time>
      </trkpt>
      <trkpt lat="48.48224" lon="2.68027">
        <ele>123</ele>
        <time>2017-05-17T09:31:03.628</time>
      </trkpt>
      <trkpt lat="48.4822" lon="2.6803">
        <ele>123</ele>
        <time>2017-05-17T09:31:04.628</time>
      </trkpt>
      <trkpt lat="48.48217" lon="2.68034">
        <ele>123</ele>
        <time>2017-05-17T09:31:05.627</time>
      </trkpt>
      <trkpt lat="48.48213" lon="2.68037">
        <ele>124</ele>
        <time>2017-05-17T09:31:06.629</time>
      </trkpt>
      <trkpt lat="48.4821" lon="2.68043">
        <ele>124</ele>
        <time>2017-05-17T09:31:07.629</time>
      </trkpt>
      <trkpt lat="48.48207" lon="2.68049">
        <ele>125</ele>
        <time>2017-05-17T09:31:08.631</time>
      </trkpt>
      <trkpt lat="48.48204" lon="2.68053">
        <ele>125</ele>
        <time>2017-05-17T09:31:09.631</time>
      </trkpt>
      <trkpt lat="48.48201" lon="2.68056">
        <ele>125</ele>
        <time>2017-05-17T09:31:10.628</time>
      </trkpt>
      <trkpt lat="48.48198" lon="2.68059">
        <ele>125</ele>
        <time>2017-05-17T09:31:11.629</time>
      </trkpt>
      <trkpt lat="48.48195" lon="2.68064">
        <ele>127</ele>
        <time>2017-05-17T09:31:12.629</time>
      </trkpt>
      <trkpt lat="48.48192" lon="2.68069">
        <ele>127</ele>
        <time>2017-05-17T09:31:13.629</time>
      </trkpt>
      <trkpt lat="48.4819" lon="2.68074">
        <ele>127</ele>
        <time>2017-05-17T09:31:14.628</time>
      </trkpt>
      <trkpt lat="48.48187" lon="2.68077">
        <ele>127</ele>
        <time>2017-05-17T09:31:15.628</time>
      </trkpt>
      <trkpt lat="48.48185" lon="2.68081">
        <ele>127</ele>
        <time>2017-05-17T09:31:16.629</time>
      </trkpt>
      <trkpt lat="48.48183" lon="2.68083">
        <ele>126</ele>
        <time>2017-05-17T09:31:17.628</time>
      </trkpt>
      <trkpt lat="48.4818" lon="2.68088">
        <ele>127</ele>
        <time>2017-05-17T09:31:18.634</time>
      </trkpt>
      <trkpt lat="48.48177" lon="2.68092">
        <ele>128</ele>
        <time>2017-05-17T09:31:19.633</time>
      </trkpt>
      <trkpt lat="48.48176" lon="2.68097">
        <ele>128</ele>
        <time>2017-05-17T09:31:20.628</time>
      </trkpt>
      <trkpt lat="48.48174" lon="2.681">
        <ele>128</ele>
        <time>2017-05-17T09:31:21.629</time>
      </trkpt>
      <trkpt lat="48.48171" lon="2.68104">
        <ele>129</ele>
        <time>2017-05-17T09:31:22.629</time>
      </trkpt>
      <trkpt lat="48.48169" lon="2.68107">
        <ele>129</ele>
        <time>2017-05-17T09:31:23.628</time>
      </trkpt>
      <trkpt lat="48.48167" lon="2.68108">
        <ele>128</ele>
        <time>2017-05-17T09:31:24.628</time>
      </trkpt>
      <trkpt lat="48.48165" lon="2.68111">
        <ele>128</ele>
        <time>2017-05-17T09:31:25.629</time>
      </trkpt>
      <trkpt lat="48.48163" lon="2.68117">
        <ele>129</ele>
        <time>2017-05-17T09:31:26.628</time>
      </trkpt>
      <trkpt lat="48.48161" lon="2.68122">
        <ele>128</ele>
        <time>2017-05-17T09:31:27.628</time>
      </trkpt>
      <trkpt lat="48.48158" lon="2.68126">
        <ele>128</ele>
        <time>2017-05-17T09:31:28.632</time>
      </trkpt>
      <trkpt lat="48.48155" lon="2.68131">
        <ele>128</ele>
        <time>2017-05-17T09:31:29.631</time>
      </trkpt>
      <trkpt lat="48.48153" lon="2.68135">
        <ele>128</ele>
        <time>2017-05-17T09:31:30.628</time>
      </trkpt>
      <trkpt lat="48.4815" lon="2.6814">
        <ele>129</ele>
        <time>2017-05-17T09:31:31.629</time>
      </trkpt>
      <trkpt lat="48.48147" lon="2.68144">
        <ele>129</ele>
        <time>2017-05-17T09:31:32.630</time>
      </trkpt>
      <trkpt lat="48.48144" lon="2.68147">
        <ele>129</ele>
        <time>2017-05-17T09:31:33.630</time>
      </trkpt>
      <trkpt lat="48.48142" lon="2.68152">
        <ele>129</ele>
        <time>2017-05-17T09:31:34.629</time>
      </trkpt>
      <trkpt lat="48.48139" lon="2.68156">
        <ele>129</ele>
        <time>2017-05-17T09:31:35.630</time>
      </trkpt>
      <trkpt lat="48.48137" lon="2.68158">
        <ele>128</ele>
        <time>2017-05-17T09:31:36.630</time>
      </trkpt>
      <trkpt lat="48.48135" lon="2.68161">
        <ele>128</ele>
        <time>2017-05-17T09:31:37.631</time>
      </trkpt>
      <trkpt lat="48.48133" lon="2.68166">
        <ele>128</ele>
        <time>2017-05-17T09:31:38.634</time>
      </trkpt>
      <trkpt lat="48.48131" lon="2.68172">
        <ele>128</ele>
        <time>2017-05-17T09:31:39.632</time>
      </trkpt>
      <trkpt lat="48.48128" lon="2.68177">
        <ele>128</ele>
        <time>2017-05-17T09:31:40.629</time>
      </trkpt>
      <trkpt lat="48.48125" lon="2.68183">
        <ele>129</ele>
        <time>2017-05-17T09:31:41.628</time>
      </trkpt>
      <trkpt lat="48.48122" lon="2.68186">
        <ele>128</ele>
        <time>2017-05-17T09:31:42.629</time>
      </trkpt>
      <trkpt lat="48.48118" lon="2.6819">
        <ele>128</ele>
        <time>2017-05-17T09:31:43.627</time>
      </trkpt>
      <trkpt lat="48.48116" lon="2.68197">
        <ele>128</ele>
        <time>2017-05-17T09:31:44.629</time>
      </trkpt>
      <trkpt lat="48.48113" lon="2.68202">
        <ele>128</ele>
        <time>2017-05-17T09:31:45.628</time>
      </trkpt>
      <trkpt lat="48.4811" lon="2.68207">
        <ele>127</ele>
        <time>2017-05-17T09:31:46.628</time>
      </trkpt>
      <trkpt lat="48.48107" lon="2.68213">
        <ele>127</ele>
        <time>2017-05-17T09:31:47.630</time>
      </trkpt>
      <trkpt lat="48.48105" lon="2.68221">
        <ele>129</ele>
        <time>2017-05-17T09:31:48.635</time>
      </trkpt>
      <trkpt lat="48.48102" lon="2.68226">
        <ele>129</ele>
        <time>2017-05-17T09:31:49.633</time>
      </trkpt>
      <trkpt lat="48.48098" lon="2.68232">
        <ele>130</ele>
        <time>2017-05-17T09:31:50.627</time>
      </trkpt>
      <trkpt lat="48.48095" lon="2.68237">
        <ele>129</ele>
        <time>2017-05-17T09:31:51.628</time>
      </trkpt>
      <trkpt lat="48.48093" lon="2.68242">
        <ele>129</ele>
        <time>2017-05-17T09:31:52.627</time>
      </trkpt>
      <trkpt lat="48.48089" lon="2.68247">
        <ele>128</ele>
        <time>2017-05-17T09:31:53.628</time>
      </trkpt>
      <trkpt lat="48.48086" lon="2.68254">
        <ele>127</ele>
        <time>2017-05-17T09:31:54.628</time>
      </trkpt>
      <trkpt lat="48.48081" lon="2.68262">
        <ele>128</ele>
        <time>2017-05-17T09:31:55.629</time>
      </trkpt>
      <trkpt lat="48.48078" lon="2.68267">
        <ele>127</ele>
        <time>2017-05-17T09:31:56.628</time>
      </trkpt>
      <trkpt lat="48.48074" lon="2.68274">
        <ele>127</ele>
        <time>2017-05-17T09:31:57.628</time>
      </trkpt>
      <trkpt lat="48.4807" lon="2.68281">
        <ele>127</ele>
        <time>2017-05-17T09:31:58.632</time>
      </trkpt>
      <trkpt lat="48.48066" lon="2.68288">
        <ele>127</ele>
        <time>2017-05-17T09:31:59.631</time>
      </trkpt>
      <trkpt lat="48.48063" lon="2.68295">
        <ele>128</ele>
        <time>2017-05-17T09:32:00.629</time>
      </trkpt>
      <trkpt lat="48.4806" lon="2.68301">
        <ele>127</ele>
        <time>2017-05-17T09:32:01.628</time>
      </trkpt>
      <trkpt lat="48.48056" lon="2.68307">
        <ele>128</ele>
        <time>2017-05-17T09:32:02.628</time>
      </trkpt>
      <trkpt lat="48.48052" lon="2.68314">
        <ele>129</ele>
        <time>2017-05-17T09:32:03.628</time>
      </trkpt>
      <trkpt lat="48.48047" lon="2.68321">
        <ele>129</ele>
        <time>2017-05-17T09:32:04.627</time>
      </trkpt>
      <trkpt lat="48.48043" lon="2.68327">
        <ele>129</ele>
        <time>2017-05-17T09:32:05.635</time>
      </trkpt>
      <trkpt lat="48.4804" lon="2.68334">
        <ele>129</ele>
        <time>2017-05-17T09:32:06.632</time>
      </trkpt>
      <trkpt lat="48.48037" lon="2.6834">
        <ele>129</ele>
        <time>2017-05-17T09:32:07.626</time>
      </trkpt>
      <trkpt lat="48.48033" lon="2.68345">
        <ele>129</ele>
        <time>2017-05-17T09:32:08.636</time>
      </trkpt>
      <trkpt lat="48.48031" lon="2.68351">
        <ele>129</ele>
        <time>2017-05-17T09:32:09.632</time>
      </trkpt>
      <trkpt lat="48.48027" lon="2.68357">
        <ele>129</ele>
        <time>2017-05-17T09:32:10.630</time>
      </trkpt>
      <trkpt lat="48.48023" lon="2.68363">
        <ele>129</ele>
        <time>2017-05-17T09:32:11.628</time>
      </trkpt>
      <trkpt lat="48.48019" lon="2.68368">
        <ele>130</ele>
        <time>2017-05-17T09:32:12.629</time>
      </trkpt>
      <trkpt lat="48.48016" lon="2.68374">
        <ele>130</ele>
        <time>2017-05-17T09:32:13.629</time>
      </trkpt>
      <trkpt lat="48.48014" lon="2.6838">
        <ele>130</ele>
        <time>2017-05-17T09:32:14.628</time>
      </trkpt>
      <trkpt lat="48.4801" lon="2.68386">
        <ele>130</ele>
        <time>2017-05-17T09:32:15.630</time>
      </trkpt>
      <trkpt lat="48.48007" lon="2.68392">
        <ele>130</ele>
        <time>2017-05-17T09:32:16.628</time>
      </trkpt>
      <trkpt lat="48.48004" lon="2.68397">
        <ele>129</ele>
        <time>2017-05-17T09:32:17.629</time>
      </trkpt>
      <trkpt lat="48.48001" lon="2.68403">
        <ele>129</ele>
        <time>2017-05-17T09:32:18.637</time>
      </trkpt>
      <trkpt lat="48.47998" lon="2.68409">
        <ele>129</ele>
        <time>2017-05-17T09:32:19.638</time>
      </trkpt>
      <trkpt lat="48.47994" lon="2.68415">
        <ele>129</ele>
        <time>2017-05-17T09:32:20.629</time>
      </trkpt>
      <trkpt lat="48.47991" lon="2.6842">
        <ele>129</ele>
        <time>2017-05-17T09:32:21.630</time>
      </trkpt>
      <trkpt lat="48.47988" lon="2.68424">
        <ele>129</ele>
        <time>2017-05-17T09:32:22.630</time>
      </trkpt>
      <trkpt lat="48.47985" lon="2.6843">
        <ele>130</ele>
        <time>2017-05-17T09:32:23.631</time>
      </trkpt>
      <trkpt lat="48.47982" lon="2.68435">
        <ele>129</ele>
        <time>2017-05-17T09:32:24.629</time>
      </trkpt>
      <trkpt lat="48.47979" lon="2.6844">
        <ele>129</ele>
        <time>2017-05-17T09:32:25.629</time>
      </trkpt>
      <trkpt lat="48.47976" lon="2.68445">
        <ele>129</ele>
        <time>2017-05-17T09:32:26.629</time>
      </trkpt>
      <trkpt lat="48.47973" lon="2.68449">
        <ele>130</ele>
        <time>2017-05-17T09:32:27.630</time>
      </trkpt>
      <trkpt lat="48.47973" lon="2.68452">
        <ele>129</ele>
        <time>2017-05-17T09:32:28.632</time>
      </trkpt>
      <trkpt lat="48.47973" lon="2.68454">
        <ele>130</ele>
        <time>2017-05-17T09:32:29.632</time>
      </trkpt>
      <trkpt lat="48.47974" lon="2.68456">
        <ele>130</ele>
        <time>2017-05-17T09:32:30.629</time>
      </trkpt>
      <trkpt lat="48.47975" lon="2.68458">
        <ele>130</ele>
        <time>2017-05-17T09:32:31.629</time>
      </trkpt>
      <trkpt lat="48.47976" lon="2.68459">
        <ele>130</ele>
        <time>2017-05-17T09:32:32.631</time>
      </trkpt>
      <trkpt lat="48.47976" lon="2.68459">
        <ele>129</ele>
        <time>2017-05-17T09:32:33.686</time>
      </trkpt>
      <trkpt lat="48.47976" lon="2.6846">
        <ele>130</ele>
        <time>2017-05-17T09:32:34.630</time>
      </trkpt>
      <trkpt lat="48.47976" lon="2.68459">
        <ele>131</ele>
        <time>2017-05-17T09:32:35.629</time>
      </trkpt>
      <trkpt lat="48.47976" lon="2.6846">
        <ele>131</ele>
        <time>2017-05-17T09:32:36.635</time>
      </trkpt>
      <trkpt lat="48.47977" lon="2.68461">
        <ele>132</ele>
        <time>2017-05-17T09:32:37.626</time>
      </trkpt>
      <trkpt lat="48.47977" lon="2.68462">
        <ele>132</ele>
        <time>2017-05-17T09:32:38.632</time>
      </trkpt>
      <trkpt lat="48.47978" lon="2.68462">
        <ele>133</ele>
        <time>2017-05-17T09:32:39.632</time>
      </trkpt>
      <trkpt lat="48.47978" lon="2.68463">
        <ele>133</ele>
        <time>2017-05-17T09:32:40.629</time>
      </trkpt>
      <trkpt lat="48.47978" lon="2.68463">
        <ele>133</ele>
        <time>2017-05-17T09:32:41.627</time>
      </trkpt>
      <trkpt lat="48.47978" lon="2.68464">
        <ele>133</ele>
        <time>2017-05-17T09:32:42.629</time>
      </trkpt>
      <trkpt lat="48.4798" lon="2.68465">
        <ele>133</ele>
        <time>2017-05-17T09:32:43.631</time>
      </trkpt>
      <trkpt lat="48.47981" lon="2.68466">
        <ele>133</ele>
        <time>2017-05-17T09:32:44.631</time>
      </trkpt>
      <trkpt lat="48.47982" lon="2.68468">
        <ele>132</ele>
        <time>2017-05-17T09:32:45.631</time>
      </trkpt>
      <trkpt lat="48.47983" lon="2.6847">
        <ele>132</ele>
        <time>2017-05-17T09:32:46.634</time>
      </trkpt>
      <trkpt lat="48.47983" lon="2.68471">
        <ele>132</ele>
        <time>2017-05-17T09:32:47.632</time>
      </trkpt>
      <trkpt lat="48.47984" lon="2.68472">
        <ele>132</ele>
        <time>2017-05-17T09:32:48.641</time>
      </trkpt>
      <trkpt lat="48.47985" lon="2.68472">
        <ele>132</ele>
        <time>2017-05-17T09:32:49.639</time>
      </trkpt>
      <trkpt lat="48.47987" lon="2.68473">
        <ele>132</ele>
        <time>2017-05-17T09:32:50.629</time>
      </trkpt>
      <trkpt lat="48.47988" lon="2.68473">
        <ele>132</ele>
        <time>2017-05-17T09:32:51.629</time>
      </trkpt>
      <trkpt lat="48.4799" lon="2.68474">
        <ele>132</ele>
        <time>2017-05-17T09:32:52.628</time>
      </trkpt>
      <trkpt lat="48.47991" lon="2.68475">
        <ele>131</ele>
        <time>2017-05-17T09:32:53.632</time>
      </trkpt>
      <trkpt lat="48.47993" lon="2.68475">
        <ele>132</ele>
        <time>2017-05-17T09:32:54.629</time>
      </trkpt>
      <trkpt lat="48.47995" lon="2.68476">
        <ele>132</ele>
        <time>2017-05-17T09:32:55.627</time>
      </trkpt>
      <trkpt lat="48.47998" lon="2.68476">
        <ele>131</ele>
        <time>2017-05-17T09:32:56.628</time>
      </trkpt>
      <trkpt lat="48.48001" lon="2.68477">
        <ele>131</ele>
        <time>2017-05-17T09:32:57.628</time>
      </trkpt>
      <trkpt lat="48.48004" lon="2.68479">
        <ele>131</ele>
        <time>2017-05-17T09:32:58.632</time>
      </trkpt>
      <trkpt lat="48.48007" lon="2.68481">
        <ele>130</ele>
        <time>2017-05-17T09:32:59.631</time>
      </trkpt>
      <trkpt lat="48.4801" lon="2.68483">
        <ele>130</ele>
        <time>2017-05-17T09:33:00.627</time>
      </trkpt>
      <trkpt lat="48.48013" lon="2.68484">
        <ele>130</ele>
        <time>2017-05-17T09:33:01.628</time>
      </trkpt>
      <trkpt lat="48.48017" lon="2.68486">
        <ele>130</ele>
        <time>2017-05-17T09:33:02.630</time>
      </trkpt>
      <trkpt lat="48.4802" lon="2.68488">
        <ele>130</ele>
        <time>2017-05-17T09:33:03.628</time>
      </trkpt>
      <trkpt lat="48.48022" lon="2.68489">
        <ele>129</ele>
        <time>2017-05-17T09:33:04.627</time>
      </trkpt>
      <trkpt lat="48.48024" lon="2.68491">
        <ele>129</ele>
        <time>2017-05-17T09:33:05.627</time>
      </trkpt>
      <trkpt lat="48.48024" lon="2.68491">
        <ele>130</ele>
        <time>2017-05-17T09:33:06.627</time>
      </trkpt>
      <trkpt lat="48.48024" lon="2.68492">
        <ele>130</ele>
        <time>2017-05-17T09:33:07.627</time>
      </trkpt>
      <trkpt lat="48.48023" lon="2.68492">
        <ele>130</ele>
        <time>2017-05-17T09:33:08.630</time>
      </trkpt>
      <trkpt lat="48.48023" lon="2.68492">
        <ele>130</ele>
        <time>2017-05-17T09:33:09.629</time>
      </trkpt>
      <trkpt lat="48.48023" lon="2.68492">
        <ele>130</ele>
        <time>2017-05-17T09:33:10.627</time>
      </trkpt>
      <trkpt lat="48.48023" lon="2.68493">
        <ele>131</ele>
        <time>2017-05-17T09:33:11.627</time>
      </trkpt>
      <trkpt lat="48.48023" lon="2.68493">
        <ele>130</ele>
        <time>2017-05-17T09:33:12.627</time>
      </trkpt>
      <trkpt lat="48.48023" lon="2.68493">
        <ele>130</ele>
        <time>2017-05-17T09:33:13.627</time>
      </trkpt>
      <trkpt lat="48.48023" lon="2.68493">
        <ele>131</ele>
        <time>2017-05-17T09:33:14.626</time>
      </trkpt>
      <trkpt lat="48.48023" lon="2.68493">
        <ele>131</ele>
        <time>2017-05-17T09:33:15.627</time>
      </trkpt>
      <trkpt lat="48.48023" lon="2.68493">
        <ele>131</ele>
        <time>2017-05-17T09:33:16.626</time>
      </trkpt>
      <trkpt lat="48.48023" lon="2.68493">
        <ele>131</ele>
        <time>2017-05-17T09:33:17.628</time>
      </trkpt>
      <trkpt lat="48.48023" lon="2.68493">
        <ele>131</ele>
        <time>2017-05-17T09:33:18.641</time>
      </trkpt>
      <trkpt lat="48.48023" lon="2.68493">
        <ele>131</ele>
        <time>2017-05-17T09:33:19.640</time>
      </trkpt>
      <trkpt lat="48.48023" lon="2.68493">
        <ele>131</ele>
        <time>2017-05-17T09:33:20.628</time>
      </trkpt>
      <trkpt lat="48.48023" lon="2.68493">
        <ele>130</ele>
        <time>2017-05-17T09:33:21.627</time>
      </trkpt>
      <trkpt lat="48.48024" lon="2.68494">
        <ele>131</ele>
        <time>2017-05-17T09:33:22.629</time>
      </trkpt>
      <trkpt lat="48.48026" lon="2.68495">
        <ele>131</ele>
        <time>2017-05-17T09:33:23.628</time>
      </trkpt>
      <trkpt lat="48.48028" lon="2.68496">
        <ele>131</ele>
        <time>2017-05-17T09:33:24.630</time>
      </trkpt>
      <trkpt lat="48.48031" lon="2.68498">
        <ele>131</ele>
        <time>2017-05-17T09:33:25.629</time>
      </trkpt>
      <trkpt lat="48.48034" lon="2.68498">
        <ele>130</ele>
        <time>2017-05-17T09:33:26.629</time>
      </trkpt>
      <trkpt lat="48.48037" lon="2.68499">
        <ele>130</ele>
        <time>2017-05-17T09:33:27.627</time>
      </trkpt>
      <trkpt lat="48.4804" lon="2.68502">
        <ele>129</ele>
        <time>2017-05-17T09:33:28.631</time>
      </trkpt>
      <trkpt lat="48.48044" lon="2.68504">
        <ele>129</ele>
        <time>2017-05-17T09:33:29.632</time>
      </trkpt>
      <trkpt lat="48.48049" lon="2.68507">
        <ele>129</ele>
        <time>2017-05-17T09:33:30.628</time>
      </trkpt>
      <trkpt lat="48.48053" lon="2.68509">
        <ele>129</ele>
        <time>2017-05-17T09:33:31.627</time>
      </trkpt>
      <trkpt lat="48.48058" lon="2.68512">
        <ele>128</ele>
        <time>2017-05-17T09:33:32.629</time>
      </trkpt>
      <trkpt lat="48.48064" lon="2.68514">
        <ele>127</ele>
        <time>2017-05-17T09:33:33.629</time>
      </trkpt>
      <trkpt lat="48.4807" lon="2.68517">
        <ele>127</ele>
        <time>2017-05-17T09:33:34.628</time>
      </trkpt>
      <trkpt lat="48.48076" lon="2.68521">
        <ele>126</ele>
        <time>2017-05-17T09:33:35.627</time>
      </trkpt>
      <trkpt lat="48.48083" lon="2.68523">
        <ele>126</ele>
        <time>2017-05-17T09:33:36.628</time>
      </trkpt>
      <trkpt lat="48.4809" lon="2.68527">
        <ele>125</ele>
        <time>2017-05-17T09:33:37.627</time>
      </trkpt>
      <trkpt lat="48.48098" lon="2.68531">
        <ele>124</ele>
        <time>2017-05-17T09:33:38.629</time>
      </trkpt>
      <trkpt lat="48.48106" lon="2.68536">
        <ele>123</ele>
        <time>2017-05-17T09:33:39.631</time>
      </trkpt>
      <trkpt lat="48.48111" lon="2.68543">
        <ele>121</ele>
        <time>2017-05-17T09:33:40.627</time>
      </trkpt>
      <trkpt lat="48.48115" lon="2.68552">
        <ele>121</ele>
        <time>2017-05-17T09:33:41.626</time>
      </trkpt>
      <trkpt lat="48.48119" lon="2.68562">
        <ele>120</ele>
        <time>2017-05-17T09:33:42.628</time>
      </trkpt>
      <trkpt lat="48.48122" lon="2.68574">
        <ele>119</ele>
        <time>2017-05-17T09:33:43.628</time>
      </trkpt>
      <trkpt lat="48.48124" lon="2.68588">
        <ele>118</ele>
        <time>2017-05-17T09:33:44.627</time>
      </trkpt>
      <trkpt lat="48.48127" lon="2.68601">
        <ele>117</ele>
        <time>2017-05-17T09:33:45.626</time>
      </trkpt>
      <trkpt lat="48.48129" lon="2.68615">
        <ele>117</ele>
        <time>2017-05-17T09:33:46.627</time>
      </trkpt>
      <trkpt lat="48.48131" lon="2.68628">
        <ele>116</ele>
        <time>2017-05-17T09:33:47.627</time>
      </trkpt>
      <trkpt lat="48.48133" lon="2.68642">
        <ele>116</ele>
        <time>2017-05-17T09:33:48.636</time>
      </trkpt>
      <trkpt lat="48.48136" lon="2.68653">
        <ele>116</ele>
        <time>2017-05-17T09:33:49.637</time>
      </trkpt>
      <trkpt lat="48.48136" lon="2.68666">
        <ele>115</ele>
        <time>2017-05-17T09:33:50.627</time>
      </trkpt>
      <trkpt lat="48.48137" lon="2.68678">
        <ele>114</ele>
        <time>2017-05-17T09:33:51.628</time>
      </trkpt>
      <trkpt lat="48.48135" lon="2.6869">
        <ele>113</ele>
        <time>2017-05-17T09:33:52.629</time>
      </trkpt>
      <trkpt lat="48.48132" lon="2.68705">
        <ele>113</ele>
        <time>2017-05-17T09:33:53.628</time>
      </trkpt>
      <trkpt lat="48.48131" lon="2.6872">
        <ele>112</ele>
        <time>2017-05-17T09:33:54.626</time>
      </trkpt>
      <trkpt lat="48.48131" lon="2.68735">
        <ele>113</ele>
        <time>2017-05-17T09:33:55.627</time>
      </trkpt>
      <trkpt lat="48.48133" lon="2.68751">
        <ele>112</ele>
        <time>2017-05-17T09:33:56.627</time>
      </trkpt>
      <trkpt lat="48.48135" lon="2.68766">
        <ele>112</ele>
        <time>2017-05-17T09:33:57.628</time>
      </trkpt>
      <trkpt lat="48.48141" lon="2.68779">
        <ele>110</ele>
        <time>2017-05-17T09:33:58.631</time>
      </trkpt>
      <trkpt lat="48.48143" lon="2.68788">
        <ele>108</ele>
        <time>2017-05-17T09:33:59.629</time>
      </trkpt>
      <trkpt lat="48.48146" lon="2.68795">
        <ele>107</ele>
        <time>2017-05-17T09:34:00.752</time>
      </trkpt>
      <trkpt lat="48.48149" lon="2.68799">
        <ele>106</ele>
        <time>2017-05-17T09:34:01.628</time>
      </trkpt>
      <trkpt lat="48.48152" lon="2.68807">
        <ele>105</ele>
        <time>2017-05-17T09:34:02.626</time>
      </trkpt>
      <trkpt lat="48.48151" lon="2.68815">
        <ele>105</ele>
        <time>2017-05-17T09:34:03.626</time>
      </trkpt>
      <trkpt lat="48.48147" lon="2.68823">
        <ele>102</ele>
        <time>2017-05-17T09:34:04.626</time>
      </trkpt>
      <trkpt lat="48.48146" lon="2.6883">
        <ele>102</ele>
        <time>2017-05-17T09:34:05.627</time>
      </trkpt>
      <trkpt lat="48.48144" lon="2.68837">
        <ele>102</ele>
        <time>2017-05-17T09:34:06.627</time>
      </trkpt>
      <trkpt lat="48.48142" lon="2.68845">
        <ele>101</ele>
        <time>2017-05-17T09:34:07.628</time>
      </trkpt>
      <trkpt lat="48.48141" lon="2.68852">
        <ele>101</ele>
        <time>2017-05-17T09:34:08.629</time>
      </trkpt>
      <trkpt lat="48.4814" lon="2.68859">
        <ele>102</ele>
        <time>2017-05-17T09:34:09.630</time>
      </trkpt>
      <trkpt lat="48.48138" lon="2.68866">
        <ele>102</ele>
        <time>2017-05-17T09:34:10.628</time>
      </trkpt>
      <trkpt lat="48.48137" lon="2.68872">
        <ele>102</ele>
        <time>2017-05-17T09:34:11.627</time>
      </trkpt>
      <trkpt lat="48.48135" lon="2.68879">
        <ele>102</ele>
        <time>2017-05-17T09:34:12.627</time>
      </trkpt>
      <trkpt lat="48.48133" lon="2.68885">
        <ele>101</ele>
        <time>2017-05-17T09:34:13.627</time>
      </trkpt>
      <trkpt lat="48.48131" lon="2.68893">
        <ele>101</ele>
        <time>2017-05-17T09:34:14.627</time>
      </trkpt>
      <trkpt lat="48.48129" lon="2.689">
        <ele>100</ele>
        <time>2017-05-17T09:34:15.628</time>
      </trkpt>
      <trkpt lat="48.48127" lon="2.68908">
        <ele>100</ele>
        <time>2017-05-17T09:34:16.626</time>
      </trkpt>
      <trkpt lat="48.48126" lon="2.68915">
        <ele>101</ele>
        <time>2017-05-17T09:34:17.627</time>
      </trkpt>
      <trkpt lat="48.48124" lon="2.68923">
        <ele>100</ele>
        <time>2017-05-17T09:34:18.637</time>
      </trkpt>
      <trkpt lat="48.48122" lon="2.6893">
        <ele>100</ele>
        <time>2017-05-17T09:34:19.638</time>
      </trkpt>
      <trkpt lat="48.48121" lon="2.68938">
        <ele>100</ele>
        <time>2017-05-17T09:34:20.628</time>
      </trkpt>
      <trkpt lat="48.4812" lon="2.68946">
        <ele>100</ele>
        <time>2017-05-17T09:34:21.627</time>
      </trkpt>
      <trkpt lat="48.48118" lon="2.68954">
        <ele>100</ele>
        <time>2017-05-17T09:34:22.628</time>
      </trkpt>
      <trkpt lat="48.48117" lon="2.68962">
        <ele>100</ele>
        <time>2017-05-17T09:34:23.628</time>
      </trkpt>
      <trkpt lat="48.48116" lon="2.68969">
        <ele>100</ele>
        <time>2017-05-17T09:34:24.626</time>
      </trkpt>
      <trkpt lat="48.48116" lon="2.68976">
        <ele>100</ele>
        <time>2017-05-17T09:34:25.629</time>
      </trkpt>
      <trkpt lat="48.48114" lon="2.68984">
        <ele>100</ele>
        <time>2017-05-17T09:34:26.630</time>
      </trkpt>
      <trkpt lat="48.48113" lon="2.68992">
        <ele>100</ele>
        <time>2017-05-17T09:34:27.626</time>
      </trkpt>
      <trkpt lat="48.48113" lon="2.69001">
        <ele>101</ele>
        <time>2017-05-17T09:34:28.630</time>
      </trkpt>
      <trkpt lat="48.48112" lon="2.6901">
        <ele>100</ele>
        <time>2017-05-17T09:34:29.631</time>
      </trkpt>
      <trkpt lat="48.48111" lon="2.69019">
        <ele>100</ele>
        <time>2017-05-17T09:34:30.633</time>
      </trkpt>
      <trkpt lat="48.4811" lon="2.69029">
        <ele>100</ele>
        <time>2017-05-17T09:34:31.640</time>
      </trkpt>
      <trkpt lat="48.48109" lon="2.69038">
        <ele>100</ele>
        <time>2017-05-17T09:34:32.634</time>
      </trkpt>
      <trkpt lat="48.48108" lon="2.69047">
        <ele>101</ele>
        <time>2017-05-17T09:34:33.639</time>
      </trkpt>
      <trkpt lat="48.48107" lon="2.69057">
        <ele>101</ele>
        <time>2017-05-17T09:34:34.640</time>
      </trkpt>
      <trkpt lat="48.48106" lon="2.69066">
        <ele>101</ele>
        <time>2017-05-17T09:34:35.639</time>
      </trkpt>
      <trkpt lat="48.48105" lon="2.69076">
        <ele>102</ele>
        <time>2017-05-17T09:34:36.650</time>
      </trkpt>
      <trkpt lat="48.48105" lon="2.69085">
        <ele>101</ele>
        <time>2017-05-17T09:34:37.648</time>
      </trkpt>
      <trkpt lat="48.48104" lon="2.69094">
        <ele>101</ele>
        <time>2017-05-17T09:34:38.630</time>
      </trkpt>
      <trkpt lat="48.48103" lon="2.69104">
        <ele>101</ele>
        <time>2017-05-17T09:34:39.632</time>
      </trkpt>
      <trkpt lat="48.48102" lon="2.69113">
        <ele>101</ele>
        <time>2017-05-17T09:34:40.628</time>
      </trkpt>
      <trkpt lat="48.48102" lon="2.69122">
        <ele>101</ele>
        <time>2017-05-17T09:34:41.628</time>
      </trkpt>
      <trkpt lat="48.48101" lon="2.69132">
        <ele>101</ele>
        <time>2017-05-17T09:34:42.629</time>
      </trkpt>
      <trkpt lat="48.481" lon="2.69142">
        <ele>101</ele>
        <time>2017-05-17T09:34:43.629</time>
      </trkpt>
      <trkpt lat="48.481" lon="2.69152">
        <ele>100</ele>
        <time>2017-05-17T09:34:44.629</time>
      </trkpt>
      <trkpt lat="48.48098" lon="2.69162">
        <ele>101</ele>
        <time>2017-05-17T09:34:45.630</time>
      </trkpt>
      <trkpt lat="48.48098" lon="2.69171">
        <ele>101</ele>
        <time>2017-05-17T09:34:46.629</time>
      </trkpt>
      <trkpt lat="48.48097" lon="2.6918">
        <ele>101</ele>
        <time>2017-05-17T09:34:47.629</time>
      </trkpt>
      <trkpt lat="48.48095" lon="2.6919">
        <ele>101</ele>
        <time>2017-05-17T09:34:48.641</time>
      </trkpt>
      <trkpt lat="48.48094" lon="2.69199">
        <ele>101</ele>
        <time>2017-05-17T09:34:49.641</time>
      </trkpt>
      <trkpt lat="48.48094" lon="2.69207">
        <ele>101</ele>
        <time>2017-05-17T09:34:50.630</time>
      </trkpt>
      <trkpt lat="48.48093" lon="2.69216">
        <ele>102</ele>
        <time>2017-05-17T09:34:51.629</time>
      </trkpt>
      <trkpt lat="48.48092" lon="2.69225">
        <ele>102</ele>
        <time>2017-05-17T09:34:52.629</time>
      </trkpt>
      <trkpt lat="48.4809" lon="2.69234">
        <ele>103</ele>
        <time>2017-05-17T09:34:53.630</time>
      </trkpt>
      <trkpt lat="48.4809" lon="2.69243">
        <ele>103</ele>
        <time>2017-05-17T09:34:54.630</time>
      </trkpt>
      <trkpt lat="48.48087" lon="2.69251">
        <ele>103</ele>
        <time>2017-05-17T09:34:55.630</time>
      </trkpt>
      <trkpt lat="48.48086" lon="2.69259">
        <ele>103</ele>
        <time>2017-05-17T09:34:56.633</time>
      </trkpt>
      <trkpt lat="48.48084" lon="2.69267">
        <ele>103</ele>
        <time>2017-05-17T09:34:57.631</time>
      </trkpt>
      <trkpt lat="48.48083" lon="2.69276">
        <ele>103</ele>
        <time>2017-05-17T09:34:58.633</time>
      </trkpt>
      <trkpt lat="48.48082" lon="2.69285">
        <ele>103</ele>
        <time>2017-05-17T09:34:59.632</time>
      </trkpt>
      <trkpt lat="48.4808" lon="2.69294">
        <ele>103</ele>
        <time>2017-05-17T09:35:00.628</time>
      </trkpt>
      <trkpt lat="48.48079" lon="2.69302">
        <ele>103</ele>
        <time>2017-05-17T09:35:01.628</time>
      </trkpt>
      <trkpt lat="48.48078" lon="2.6931">
        <ele>103</ele>
        <time>2017-05-17T09:35:02.629</time>
      </trkpt>
      <trkpt lat="48.48076" lon="2.69318">
        <ele>103</ele>
        <time>2017-05-17T09:35:03.629</time>
      </trkpt>
      <trkpt lat="48.48074" lon="2.69327">
        <ele>103</ele>
        <time>2017-05-17T09:35:04.629</time>
      </trkpt>
      <trkpt lat="48.48073" lon="2.69335">
        <ele>103</ele>
        <time>2017-05-17T09:35:05.628</time>
      </trkpt>
      <trkpt lat="48.48072" lon="2.69343">
        <ele>103</ele>
        <time>2017-05-17T09:35:06.631</time>
      </trkpt>
      <trkpt lat="48.48071" lon="2.69351">
        <ele>103</ele>
        <time>2017-05-17T09:35:07.630</time>
      </trkpt>
      <trkpt lat="48.4807" lon="2.69359">
        <ele>103</ele>
        <time>2017-05-17T09:35:08.633</time>
      </trkpt>
      <trkpt lat="48.4807" lon="2.69367">
        <ele>103</ele>
        <time>2017-05-17T09:35:09.632</time>
      </trkpt>
      <trkpt lat="48.48069" lon="2.69375">
        <ele>102</ele>
        <time>2017-05-17T09:35:10.630</time>
      </trkpt>
      <trkpt lat="48.48068" lon="2.69382">
        <ele>102</ele>
        <time>2017-05-17T09:35:11.630</time>
      </trkpt>
      <trkpt lat="48.48067" lon="2.69389">
        <ele>103</ele>
        <time>2017-05-17T09:35:12.630</time>
      </trkpt>
      <trkpt lat="48.48067" lon="2.69395">
        <ele>103</ele>
        <time>2017-05-17T09:35:13.631</time>
      </trkpt>
      <trkpt lat="48.48066" lon="2.69401">
        <ele>103</ele>
        <time>2017-05-17T09:35:14.630</time>
      </trkpt>
      <trkpt lat="48.48066" lon="2.69407">
        <ele>103</ele>
        <time>2017-05-17T09:35:15.630</time>
      </trkpt>
      <trkpt lat="48.48065" lon="2.69414">
        <ele>103</ele>
        <time>2017-05-17T09:35:16.630</time>
      </trkpt>
      <trkpt lat="48.48065" lon="2.6942">
        <ele>102</ele>
        <time>2017-05-17T09:35:17.628</time>
      </trkpt>
      <trkpt lat="48.48065" lon="2.69426">
        <ele>102</ele>
        <time>2017-05-17T09:35:18.639</time>
      </trkpt>
      <trkpt lat="48.48065" lon="2.69432">
        <ele>102</ele>
        <time>2017-05-17T09:35:19.639</time>
      </trkpt>
      <trkpt lat="48.48064" lon="2.69439">
        <ele>102</ele>
        <time>2017-05-17T09:35:20.629</time>
      </trkpt>
      <trkpt lat="48.48064" lon="2.69445">
        <ele>102</ele>
        <time>2017-05-17T09:35:21.629</time>
      </trkpt>
      <trkpt lat="48.48063" lon="2.69451">
        <ele>102</ele>
        <time>2017-05-17T09:35:22.629</time>
      </trkpt>
      <trkpt lat="48.48063" lon="2.69457">
        <ele>103</ele>
        <time>2017-05-17T09:35:23.629</time>
      </trkpt>
      <trkpt lat="48.48063" lon="2.69464">
        <ele>103</ele>
        <time>2017-05-17T09:35:24.629</time>
      </trkpt>
      <trkpt lat="48.48063" lon="2.69469">
        <ele>103</ele>
        <time>2017-05-17T09:35:25.629</time>
      </trkpt>
      <trkpt lat="48.48063" lon="2.69475">
        <ele>103</ele>
        <time>2017-05-17T09:35:26.631</time>
      </trkpt>
      <trkpt lat="48.48062" lon="2.69481">
        <ele>103</ele>
        <time>2017-05-17T09:35:27.631</time>
      </trkpt>
      <trkpt lat="48.48062" lon="2.69487">
        <ele>103</ele>
        <time>2017-05-17T09:35:28.634</time>
      </trkpt>
      <trkpt lat="48.48061" lon="2.69492">
        <ele>104</ele>
        <time>2017-05-17T09:35:29.632</time>
      </trkpt>
      <trkpt lat="48.4806" lon="2.69496">
        <ele>104</ele>
        <time>2017-05-17T09:35:30.630</time>
      </trkpt>
      <trkpt lat="48.4806" lon="2.69498">
        <ele>104</ele>
        <time>2017-05-17T09:35:31.629</time>
      </trkpt>
      <trkpt lat="48.4806" lon="2.69498">
        <ele>104</ele>
        <time>2017-05-17T09:35:32.631</time>
      </trkpt>
      <trkpt lat="48.48059" lon="2.69499">
        <ele>104</ele>
        <time>2017-05-17T09:35:33.630</time>
      </trkpt>
      <trkpt lat="48.4806" lon="2.69499">
        <ele>104</ele>
        <time>2017-05-17T09:35:34.629</time>
      </trkpt>
      <trkpt lat="48.4806" lon="2.69498">
        <ele>103</ele>
        <time>2017-05-17T09:35:35.627</time>
      </trkpt>
      <trkpt lat="48.4806" lon="2.69498">
        <ele>104</ele>
        <time>2017-05-17T09:35:36.628</time>
      </trkpt>
      <trkpt lat="48.48059" lon="2.69498">
        <ele>103</ele>
        <time>2017-05-17T09:35:37.628</time>
      </trkpt>
      <trkpt lat="48.48059" lon="2.69499">
        <ele>103</ele>
        <time>2017-05-17T09:35:38.632</time>
      </trkpt>
      <trkpt lat="48.48059" lon="2.69502">
        <ele>103</ele>
        <time>2017-05-17T09:35:39.633</time>
      </trkpt>
      <trkpt lat="48.48059" lon="2.69505">
        <ele>103</ele>
        <time>2017-05-17T09:35:40.630</time>
      </trkpt>
      <trkpt lat="48.48059" lon="2.6951">
        <ele>103</ele>
        <time>2017-05-17T09:35:41.629</time>
      </trkpt>
      <trkpt lat="48.4806" lon="2.69515">
        <ele>102</ele>
        <time>2017-05-17T09:35:42.629</time>
      </trkpt>
      <trkpt lat="48.4806" lon="2.6952">
        <ele>102</ele>
        <time>2017-05-17T09:35:43.629</time>
      </trkpt>
      <trkpt lat="48.48061" lon="2.69527">
        <ele>102</ele>
        <time>2017-05-17T09:35:44.629</time>
      </trkpt>
      <trkpt lat="48.48061" lon="2.69534">
        <ele>101</ele>
        <time>2017-05-17T09:35:45.628</time>
      </trkpt>
      <trkpt lat="48.48061" lon="2.69541">
        <ele>101</ele>
        <time>2017-05-17T09:35:46.629</time>
      </trkpt>
      <trkpt lat="48.48061" lon="2.6955">
        <ele>101</ele>
        <time>2017-05-17T09:35:47.629</time>
      </trkpt>
      <trkpt lat="48.4806" lon="2.69559">
        <ele>101</ele>
        <time>2017-05-17T09:35:48.637</time>
      </trkpt>
      <trkpt lat="48.4806" lon="2.69568">
        <ele>101</ele>
        <time>2017-05-17T09:35:49.640</time>
      </trkpt>
      <trkpt lat="48.4806" lon="2.69576">
        <ele>100</ele>
        <time>2017-05-17T09:35:50.628</time>
      </trkpt>
      <trkpt lat="48.48061" lon="2.69585">
        <ele>99</ele>
        <time>2017-05-17T09:35:51.629</time>
      </trkpt>
      <trkpt lat="48.48061" lon="2.69594">
        <ele>99</ele>
        <time>2017-05-17T09:35:52.629</time>
      </trkpt>
      <trkpt lat="48.48061" lon="2.69603">
        <ele>99</ele>
        <time>2017-05-17T09:35:53.628</time>
      </trkpt>
      <trkpt lat="48.48061" lon="2.69611">
        <ele>98</ele>
        <time>2017-05-17T09:35:54.628</time>
      </trkpt>
      <trkpt lat="48.48061" lon="2.69621">
        <ele>98</ele>
        <time>2017-05-17T09:35:55.629</time>
      </trkpt>
      <trkpt lat="48.48062" lon="2.69629">
        <ele>98</ele>
        <time>2017-05-17T09:35:56.631</time>
      </trkpt>
      <trkpt lat="48.48062" lon="2.69638">
        <ele>99</ele>
        <time>2017-05-17T09:35:57.630</time>
      </trkpt>
      <trkpt lat="48.48061" lon="2.69647">
        <ele>99</ele>
        <time>2017-05-17T09:35:58.631</time>
      </trkpt>
      <trkpt lat="48.48061" lon="2.69656">
        <ele>99</ele>
        <time>2017-05-17T09:35:59.632</time>
      </trkpt>
      <trkpt lat="48.48061" lon="2.69664">
        <ele>99</ele>
        <time>2017-05-17T09:36:00.630</time>
      </trkpt>
      <trkpt lat="48.48061" lon="2.69672">
        <ele>99</ele>
        <time>2017-05-17T09:36:01.629</time>
      </trkpt>
      <trkpt lat="48.48061" lon="2.69681">
        <ele>100</ele>
        <time>2017-05-17T09:36:02.629</time>
      </trkpt>
      <trkpt lat="48.48061" lon="2.69689">
        <ele>100</ele>
        <time>2017-05-17T09:36:03.630</time>
      </trkpt>
      <trkpt lat="48.48062" lon="2.69698">
        <ele>100</ele>
        <time>2017-05-17T09:36:04.629</time>
      </trkpt>
      <trkpt lat="48.48062" lon="2.69706">
        <ele>100</ele>
        <time>2017-05-17T09:36:05.629</time>
      </trkpt>
      <trkpt lat="48.48063" lon="2.69715">
        <ele>100</ele>
        <time>2017-05-17T09:36:06.628</time>
      </trkpt>
      <trkpt lat="48.48063" lon="2.69724">
        <ele>100</ele>
        <time>2017-05-17T09:36:07.629</time>
      </trkpt>
      <trkpt lat="48.48063" lon="2.69733">
        <ele>100</ele>
        <time>2017-05-17T09:36:08.632</time>
      </trkpt>
      <trkpt lat="48.48063" lon="2.69742">
        <ele>100</ele>
        <time>2017-05-17T09:36:09.630</time>
      </trkpt>
      <trkpt lat="48.48063" lon="2.6975">
        <ele>100</ele>
        <time>2017-05-17T09:36:10.628</time>
      </trkpt>
      <trkpt lat="48.48064" lon="2.69759">
        <ele>100</ele>
        <time>2017-05-17T09:36:11.628</time>
      </trkpt>
      <trkpt lat="48.48064" lon="2.69768">
        <ele>100</ele>
        <time>2017-05-17T09:36:12.628</time>
      </trkpt>
      <trkpt lat="48.48064" lon="2.69776">
        <ele>100</ele>
        <time>2017-05-17T09:36:13.629</time>
      </trkpt>
      <trkpt lat="48.48064" lon="2.69785">
        <ele>100</ele>
        <time>2017-05-17T09:36:14.630</time>
      </trkpt>
      <trkpt lat="48.48064" lon="2.69793">
        <ele>100</ele>
        <time>2017-05-17T09:36:15.628</time>
      </trkpt>
      <trkpt lat="48.48064" lon="2.69802">
        <ele>100</ele>
        <time>2017-05-17T09:36:16.629</time>
      </trkpt>
      <trkpt lat="48.48065" lon="2.6981">
        <ele>100</ele>
        <time>2017-05-17T09:36:17.629</time>
      </trkpt>
      <trkpt lat="48.48065" lon="2.69818">
        <ele>101</ele>
        <time>2017-05-17T09:36:18.642</time>
      </trkpt>
      <trkpt lat="48.48066" lon="2.69827">
        <ele>101</ele>
        <time>2017-05-17T09:36:19.642</time>
      </trkpt>
      <trkpt lat="48.48066" lon="2.69835">
        <ele>100</ele>
        <time>2017-05-17T09:36:20.630</time>
      </trkpt>
      <trkpt lat="48.48066" lon="2.69844">
        <ele>101</ele>
        <time>2017-05-17T09:36:21.630</time>
      </trkpt>
      <trkpt lat="48.48066" lon="2.69853">
        <ele>100</ele>
        <time>2017-05-17T09:36:22.629</time>
      </trkpt>
      <trkpt lat="48.48067" lon="2.69862">
        <ele>101</ele>
        <time>2017-05-17T09:36:23.628</time>
      </trkpt>
      <trkpt lat="48.48067" lon="2.69871">
        <ele>100</ele>
        <time>2017-05-17T09:36:24.630</time>
      </trkpt>
      <trkpt lat="48.48068" lon="2.69879">
        <ele>100</ele>
        <time>2017-05-17T09:36:25.628</time>
      </trkpt>
      <trkpt lat="48.48068" lon="2.69889">
        <ele>100</ele>
        <time>2017-05-17T09:36:26.627</time>
      </trkpt>
      <trkpt lat="48.48068" lon="2.69898">
        <ele>100</ele>
        <time>2017-05-17T09:36:27.629</time>
      </trkpt>
      <trkpt lat="48.48069" lon="2.69906">
        <ele>100</ele>
        <time>2017-05-17T09:36:28.631</time>
      </trkpt>
      <trkpt lat="48.4807" lon="2.69914">
        <ele>100</ele>
        <time>2017-05-17T09:36:29.631</time>
      </trkpt>
      <trkpt lat="48.4807" lon="2.69923">
        <ele>100</ele>
        <time>2017-05-17T09:36:30.629</time>
      </trkpt>
      <trkpt lat="48.4807" lon="2.69931">
        <ele>100</ele>
        <time>2017-05-17T09:36:31.628</time>
      </trkpt>
      <trkpt lat="48.4807" lon="2.69939">
        <ele>100</ele>
        <time>2017-05-17T09:36:32.628</time>
      </trkpt>
      <trkpt lat="48.4807" lon="2.69948">
        <ele>100</ele>
        <time>2017-05-17T09:36:33.627</time>
      </trkpt>
      <trkpt lat="48.4807" lon="2.69956">
        <ele>101</ele>
        <time>2017-05-17T09:36:34.629</time>
      </trkpt>
      <trkpt lat="48.48071" lon="2.69963">
        <ele>100</ele>
        <time>2017-05-17T09:36:35.629</time>
      </trkpt>
      <trkpt lat="48.48072" lon="2.69972">
        <ele>100</ele>
        <time>2017-05-17T09:36:36.631</time>
      </trkpt>
      <trkpt lat="48.48072" lon="2.6998">
        <ele>101</ele>
        <time>2017-05-17T09:36:37.630</time>
      </trkpt>
      <trkpt lat="48.48073" lon="2.69989">
        <ele>101</ele>
        <time>2017-05-17T09:36:38.631</time>
      </trkpt>
      <trkpt lat="48.48073" lon="2.69997">
        <ele>101</ele>
        <time>2017-05-17T09:36:39.631</time>
      </trkpt>
      <trkpt lat="48.48073" lon="2.70005">
        <ele>101</ele>
        <time>2017-05-17T09:36:40.627</time>
      </trkpt>
      <trkpt lat="48.48073" lon="2.70012">
        <ele>101</ele>
        <time>2017-05-17T09:36:41.627</time>
      </trkpt>
      <trkpt lat="48.48073" lon="2.7002">
        <ele>102</ele>
        <time>2017-05-17T09:36:42.627</time>
      </trkpt>
      <trkpt lat="48.48073" lon="2.70027">
        <ele>101</ele>
        <time>2017-05-17T09:36:43.629</time>
      </trkpt>
      <trkpt lat="48.48073" lon="2.70035">
        <ele>102</ele>
        <time>2017-05-17T09:36:44.629</time>
      </trkpt>
      <trkpt lat="48.48074" lon="2.70042">
        <ele>101</ele>
        <time>2017-05-17T09:36:45.631</time>
      </trkpt>
      <trkpt lat="48.48075" lon="2.70049">
        <ele>102</ele>
        <time>2017-05-17T09:36:46.629</time>
      </trkpt>
      <trkpt lat="48.48075" lon="2.70057">
        <ele>102</ele>
        <time>2017-05-17T09:36:47.628</time>
      </trkpt>
      <trkpt lat="48.48075" lon="2.70065">
        <ele>102</ele>
        <time>2017-05-17T09:36:48.637</time>
      </trkpt>
      <trkpt lat="48.48075" lon="2.70073">
        <ele>101</ele>
        <time>2017-05-17T09:36:49.636</time>
      </trkpt>
      <trkpt lat="48.48076" lon="2.70081">
        <ele>101</ele>
        <time>2017-05-17T09:36:50.628</time>
      </trkpt>
      <trkpt lat="48.48077" lon="2.70089">
        <ele>101</ele>
        <time>2017-05-17T09:36:51.629</time>
      </trkpt>
      <trkpt lat="48.48077" lon="2.70097">
        <ele>102</ele>
        <time>2017-05-17T09:36:52.628</time>
      </trkpt>
      <trkpt lat="48.48078" lon="2.70105">
        <ele>102</ele>
        <time>2017-05-17T09:36:53.628</time>
      </trkpt>
      <trkpt lat="48.48078" lon="2.70114">
        <ele>102</ele>
        <time>2017-05-17T09:36:54.628</time>
      </trkpt>
      <trkpt lat="48.48079" lon="2.70122">
        <ele>103</ele>
        <time>2017-05-17T09:36:55.627</time>
      </trkpt>
      <trkpt lat="48.4808" lon="2.7013">
        <ele>103</ele>
        <time>2017-05-17T09:36:56.628</time>
      </trkpt>
      <trkpt lat="48.48081" lon="2.70139">
        <ele>103</ele>
        <time>2017-05-17T09:36:57.629</time>
      </trkpt>
      <trkpt lat="48.48081" lon="2.70147">
        <ele>103</ele>
        <time>2017-05-17T09:36:58.631</time>
      </trkpt>
      <trkpt lat="48.48081" lon="2.70155">
        <ele>103</ele>
        <time>2017-05-17T09:36:59.631</time>
      </trkpt>
      <trkpt lat="48.48083" lon="2.70163">
        <ele>103</ele>
        <time>2017-05-17T09:37:00.628</time>
      </trkpt>
      <trkpt lat="48.48084" lon="2.70171">
        <ele>104</ele>
        <time>2017-05-17T09:37:01.629</time>
      </trkpt>
      <trkpt lat="48.48084" lon="2.70179">
        <ele>103</ele>
        <time>2017-05-17T09:37:02.629</time>
      </trkpt>
      <trkpt lat="48.48085" lon="2.70187">
        <ele>103</ele>
        <time>2017-05-17T09:37:03.631</time>
      </trkpt>
      <trkpt lat="48.48086" lon="2.70195">
        <ele>103</ele>
        <time>2017-05-17T09:37:04.628</time>
      </trkpt>
      <trkpt lat="48.48087" lon="2.70204">
        <ele>103</ele>
        <time>2017-05-17T09:37:05.630</time>
      </trkpt>
      <trkpt lat="48.48088" lon="2.70213">
        <ele>103</ele>
        <time>2017-05-17T09:37:06.629</time>
      </trkpt>
      <trkpt lat="48.4809" lon="2.70222">
        <ele>103</ele>
        <time>2017-05-17T09:37:07.628</time>
      </trkpt>
      <trkpt lat="48.4809" lon="2.7023">
        <ele>103</ele>
        <time>2017-05-17T09:37:08.632</time>
      </trkpt>
      <trkpt lat="48.48091" lon="2.7024">
        <ele>103</ele>
        <time>2017-05-17T09:37:09.635</time>
      </trkpt>
      <trkpt lat="48.48092" lon="2.70249">
        <ele>103</ele>
        <time>2017-05-17T09:37:10.629</time>
      </trkpt>
      <trkpt lat="48.48093" lon="2.70258">
        <ele>103</ele>
        <time>2017-05-17T09:37:11.628</time>
      </trkpt>
      <trkpt lat="48.48093" lon="2.70267">
        <ele>102</ele>
        <time>2017-05-17T09:37:12.628</time>
      </trkpt>
      <trkpt lat="48.48094" lon="2.70276">
        <ele>102</ele>
        <time>2017-05-17T09:37:13.629</time>
      </trkpt>
      <trkpt lat="48.48095" lon="2.70286">
        <ele>101</ele>
        <time>2017-05-17T09:37:14.628</time>
      </trkpt>
      <trkpt lat="48.48096" lon="2.70295">
        <ele>101</ele>
        <time>2017-05-17T09:37:15.628</time>
      </trkpt>
      <trkpt lat="48.48097" lon="2.70304">
        <ele>101</ele>
        <time>2017-05-17T09:37:16.628</time>
      </trkpt>
      <trkpt lat="48.48098" lon="2.70314">
        <ele>101</ele>
        <time>2017-05-17T09:37:17.628</time>
      </trkpt>
      <trkpt lat="48.48099" lon="2.70323">
        <ele>100</ele>
        <time>2017-05-17T09:37:18.639</time>
      </trkpt>
      <trkpt lat="48.481" lon="2.70332">
        <ele>100</ele>
        <time>2017-05-17T09:37:19.638</time>
      </trkpt>
      <trkpt lat="48.48101" lon="2.70341">
        <ele>100</ele>
        <time>2017-05-17T09:37:20.627</time>
      </trkpt>
      <trkpt lat="48.48102" lon="2.7035">
        <ele>100</ele>
        <time>2017-05-17T09:37:21.628</time>
      </trkpt>
      <trkpt lat="48.48103" lon="2.70358">
        <ele>100</ele>
        <time>2017-05-17T09:37:22.628</time>
      </trkpt>
      <trkpt lat="48.48104" lon="2.70366">
        <ele>100</ele>
        <time>2017-05-17T09:37:23.627</time>
      </trkpt>
      <trkpt lat="48.48105" lon="2.70374">
        <ele>100</ele>
        <time>2017-05-17T09:37:24.627</time>
      </trkpt>
      <trkpt lat="48.48105" lon="2.70383">
        <ele>100</ele>
        <time>2017-05-17T09:37:25.628</time>
      </trkpt>
      <trkpt lat="48.48106" lon="2.70391">
        <ele>101</ele>
        <time>2017-05-17T09:37:26.628</time>
      </trkpt>
      <trkpt lat="48.48106" lon="2.704">
        <ele>101</ele>
        <time>2017-05-17T09:37:27.628</time>
      </trkpt>
      <trkpt lat="48.48107" lon="2.70408">
        <ele>101</ele>
        <time>2017-05-17T09:37:28.630</time>
      </trkpt>
      <trkpt lat="48.48108" lon="2.70417">
        <ele>101</ele>
        <time>2017-05-17T09:37:29.630</time>
      </trkpt>
      <trkpt lat="48.48109" lon="2.70425">
        <ele>102</ele>
        <time>2017-05-17T09:37:30.628</time>
      </trkpt>
      <trkpt lat="48.48109" lon="2.70433">
        <ele>102</ele>
        <time>2017-05-17T09:37:31.628</time>
      </trkpt>
      <trkpt lat="48.4811" lon="2.70441">
        <ele>102</ele>
        <time>2017-05-17T09:37:32.629</time>
      </trkpt>
      <trkpt lat="48.48111" lon="2.70448">
        <ele>102</ele>
        <time>2017-05-17T09:37:33.629</time>
      </trkpt>
      <trkpt lat="48.48111" lon="2.70457">
        <ele>102</ele>
        <time>2017-05-17T09:37:34.631</time>
      </trkpt>
      <trkpt lat="48.48112" lon="2.70463">
        <ele>101</ele>
        <time>2017-05-17T09:37:35.630</time>
      </trkpt>
      <trkpt lat="48.48113" lon="2.70472">
        <ele>101</ele>
        <time>2017-05-17T09:37:36.629</time>
      </trkpt>
      <trkpt lat="48.48113" lon="2.7048">
        <ele>101</ele>
        <time>2017-05-17T09:37:37.629</time>
      </trkpt>
      <trkpt lat="48.48114" lon="2.70488">
        <ele>101</ele>
        <time>2017-05-17T09:37:38.635</time>
      </trkpt>
      <trkpt lat="48.48115" lon="2.70497">
        <ele>101</ele>
        <time>2017-05-17T09:37:39.634</time>
      </trkpt>
      <trkpt lat="48.48115" lon="2.70506">
        <ele>101</ele>
        <time>2017-05-17T09:37:40.634</time>
      </trkpt>
      <trkpt lat="48.48116" lon="2.70514">
        <ele>101</ele>
        <time>2017-05-17T09:37:41.636</time>
      </trkpt>
      <trkpt lat="48.48117" lon="2.70523">
        <ele>101</ele>
        <time>2017-05-17T09:37:42.628</time>
      </trkpt>
      <trkpt lat="48.48117" lon="2.70531">
        <ele>101</ele>
        <time>2017-05-17T09:37:43.628</time>
      </trkpt>
      <trkpt lat="48.48117" lon="2.70539">
        <ele>101</ele>
        <time>2017-05-17T09:37:44.627</time>
      </trkpt>
      <trkpt lat="48.48117" lon="2.70546">
        <ele>102</ele>
        <time>2017-05-17T09:37:45.628</time>
      </trkpt>
      <trkpt lat="48.48117" lon="2.70554">
        <ele>102</ele>
        <time>2017-05-17T09:37:46.628</time>
      </trkpt>
      <trkpt lat="48.48118" lon="2.70561">
        <ele>102</ele>
        <time>2017-05-17T09:37:47.629</time>
      </trkpt>
      <trkpt lat="48.48119" lon="2.70568">
        <ele>103</ele>
        <time>2017-05-17T09:37:48.637</time>
      </trkpt>
      <trkpt lat="48.4812" lon="2.70574">
        <ele>102</ele>
        <time>2017-05-17T09:37:49.639</time>
      </trkpt>
      <trkpt lat="48.48122" lon="2.7058">
        <ele>103</ele>
        <time>2017-05-17T09:37:50.629</time>
      </trkpt>
      <trkpt lat="48.48123" lon="2.70586">
        <ele>103</ele>
        <time>2017-05-17T09:37:51.628</time>
      </trkpt>
      <trkpt lat="48.48124" lon="2.70592">
        <ele>103</ele>
        <time>2017-05-17T09:37:52.628</time>
      </trkpt>
      <trkpt lat="48.48126" lon="2.70599">
        <ele>102</ele>
        <time>2017-05-17T09:37:53.629</time>
      </trkpt>
      <trkpt lat="48.48127" lon="2.70606">
        <ele>102</ele>
        <time>2017-05-17T09:37:54.629</time>
      </trkpt>
      <trkpt lat="48.48127" lon="2.70613">
        <ele>102</ele>
        <time>2017-05-17T09:37:55.629</time>
      </trkpt>
      <trkpt lat="48.48127" lon="2.70621">
        <ele>102</ele>
        <time>2017-05-17T09:37:56.630</time>
      </trkpt>
      <trkpt lat="48.48128" lon="2.70629">
        <ele>102</ele>
        <time>2017-05-17T09:37:57.628</time>
      </trkpt>
      <trkpt lat="48.48128" lon="2.70636">
        <ele>101</ele>
        <time>2017-05-17T09:37:58.632</time>
      </trkpt>
      <trkpt lat="48.4813" lon="2.70644">
        <ele>101</ele>
        <time>2017-05-17T09:37:59.634</time>
      </trkpt>
      <trkpt lat="48.48131" lon="2.70652">
        <ele>101</ele>
        <time>2017-05-17T09:38:00.632</time>
      </trkpt>
      <trkpt lat="48.48133" lon="2.70661">
        <ele>101</ele>
        <time>2017-05-17T09:38:01.629</time>
      </trkpt>
      <trkpt lat="48.48135" lon="2.70669">
        <ele>101</ele>
        <time>2017-05-17T09:38:02.629</time>
      </trkpt>
      <trkpt lat="48.48137" lon="2.70677">
        <ele>101</ele>
        <time>2017-05-17T09:38:03.629</time>
      </trkpt>
      <trkpt lat="48.48138" lon="2.70685">
        <ele>101</ele>
        <time>2017-05-17T09:38:04.629</time>
      </trkpt>
      <trkpt lat="48.48139" lon="2.70693">
        <ele>100</ele>
        <time>2017-05-17T09:38:05.628</time>
      </trkpt>
      <trkpt lat="48.48141" lon="2.70701">
        <ele>100</ele>
        <time>2017-05-17T09:38:06.629</time>
      </trkpt>
      <trkpt lat="48.48142" lon="2.7071">
        <ele>100</ele>
        <time>2017-05-17T09:38:07.631</time>
      </trkpt>
      <trkpt lat="48.48144" lon="2.70718">
        <ele>100</ele>
        <time>2017-05-17T09:38:08.632</time>
      </trkpt>
      <trkpt lat="48.48146" lon="2.70726">
        <ele>100</ele>
        <time>2017-05-17T09:38:09.632</time>
      </trkpt>
      <trkpt lat="48.48148" lon="2.70734">
        <ele>100</ele>
        <time>2017-05-17T09:38:10.630</time>
      </trkpt>
      <trkpt lat="48.4815" lon="2.70744">
        <ele>100</ele>
        <time>2017-05-17T09:38:11.629</time>
      </trkpt>
      <trkpt lat="48.48151" lon="2.70753">
        <ele>100</ele>
        <time>2017-05-17T09:38:12.629</time>
      </trkpt>
      <trkpt lat="48.48152" lon="2.70761">
        <ele>100</ele>
        <time>2017-05-17T09:38:13.629</time>
      </trkpt>
      <trkpt lat="48.48153" lon="2.7077">
        <ele>100</ele>
        <time>2017-05-17T09:38:14.629</time>
      </trkpt>
      <trkpt lat="48.48155" lon="2.70779">
        <ele>101</ele>
        <time>2017-05-17T09:38:15.629</time>
      </trkpt>
      <trkpt lat="48.48156" lon="2.70788">
        <ele>100</ele>
        <time>2017-05-17T09:38:16.634</time>
      </trkpt>
      <trkpt lat="48.48158" lon="2.70797">
        <ele>100</ele>
        <time>2017-05-17T09:38:17.629</time>
      </trkpt>
      <trkpt lat="48.48159" lon="2.70806">
        <ele>99</ele>
        <time>2017-05-17T09:38:18.644</time>
      </trkpt>
      <trkpt lat="48.4816" lon="2.70815">
        <ele>99</ele>
        <time>2017-05-17T09:38:19.642</time>
      </trkpt>
      <trkpt lat="48.48161" lon="2.70823">
        <ele>99</ele>
        <time>2017-05-17T09:38:20.628</time>
      </trkpt>
      <trkpt lat="48.48162" lon="2.70832">
        <ele>99</ele>
        <time>2017-05-17T09:38:21.629</time>
      </trkpt>
      <trkpt lat="48.48163" lon="2.70841">
        <ele>98</ele>
        <time>2017-05-17T09:38:22.629</time>
      </trkpt>
      <trkpt lat="48.48165" lon="2.70849">
        <ele>98</ele>
        <time>2017-05-17T09:38:23.629</time>
      </trkpt>
      <trkpt lat="48.48166" lon="2.70857">
        <ele>98</ele>
        <time>2017-05-17T09:38:24.628</time>
      </trkpt>
      <trkpt lat="48.48166" lon="2.70865">
        <ele>98</ele>
        <time>2017-05-17T09:38:25.628</time>
      </trkpt>
      <trkpt lat="48.48167" lon="2.70873">
        <ele>98</ele>
        <time>2017-05-17T09:38:26.628</time>
      </trkpt>
      <trkpt lat="48.48168" lon="2.7088">
        <ele>98</ele>
        <time>2017-05-17T09:38:27.633</time>
      </trkpt>
      <trkpt lat="48.48169" lon="2.70887">
        <ele>98</ele>
        <time>2017-05-17T09:38:28.632</time>
      </trkpt>
      <trkpt lat="48.4817" lon="2.70895">
        <ele>98</ele>
        <time>2017-05-17T09:38:29.632</time>
      </trkpt>
      <trkpt lat="48.48171" lon="2.70902">
        <ele>98</ele>
        <time>2017-05-17T09:38:30.629</time>
      </trkpt>
      <trkpt lat="48.48171" lon="2.70909">
        <ele>99</ele>
        <time>2017-05-17T09:38:31.631</time>
      </trkpt>
      <trkpt lat="48.48169" lon="2.70916">
        <ele>99</ele>
        <time>2017-05-17T09:38:32.630</time>
      </trkpt>
      <trkpt lat="48.48166" lon="2.7092">
        <ele>99</ele>
        <time>2017-05-17T09:38:33.630</time>
      </trkpt>
      <trkpt lat="48.48161" lon="2.70923">
        <ele>99</ele>
        <time>2017-05-17T09:38:34.629</time>
      </trkpt>
      <trkpt lat="48.48157" lon="2.70924">
        <ele>99</ele>
        <time>2017-05-17T09:38:35.628</time>
      </trkpt>
      <trkpt lat="48.48153" lon="2.70925">
        <ele>99</ele>
        <time>2017-05-17T09:38:36.629</time>
      </trkpt>
      <trkpt lat="48.48148" lon="2.70926">
        <ele>99</ele>
        <time>2017-05-17T09:38:37.629</time>
      </trkpt>
      <trkpt lat="48.48144" lon="2.70929">
        <ele>99</ele>
        <time>2017-05-17T09:38:38.632</time>
      </trkpt>
      <trkpt lat="48.4814" lon="2.70929">
        <ele>100</ele>
        <time>2017-05-17T09:38:39.632</time>
      </trkpt>
      <trkpt lat="48.48137" lon="2.70929">
        <ele>100</ele>
        <time>2017-05-17T09:38:40.630</time>
      </trkpt>
      <trkpt lat="48.48134" lon="2.7093">
        <ele>101</ele>
        <time>2017-05-17T09:38:41.630</time>
      </trkpt>
      <trkpt lat="48.4813" lon="2.70931">
        <ele>101</ele>
        <time>2017-05-17T09:38:42.631</time>
      </trkpt>
      <trkpt lat="48.48125" lon="2.70932">
        <ele>102</ele>
        <time>2017-05-17T09:38:43.628</time>
      </trkpt>
      <trkpt lat="48.48122" lon="2.70932">
        <ele>102</ele>
        <time>2017-05-17T09:38:44.630</time>
      </trkpt>
      <trkpt lat="48.48118" lon="2.70933">
        <ele>102</ele>
        <time>2017-05-17T09:38:45.630</time>
      </trkpt>
      <trkpt lat="48.48115" lon="2.70934">
        <ele>102</ele>
        <time>2017-05-17T09:38:46.629</time>
      </trkpt>
      <trkpt lat="48.48111" lon="2.70934">
        <ele>102</ele>
        <time>2017-05-17T09:38:47.628</time>
      </trkpt>
      <trkpt lat="48.48107" lon="2.70935">
        <ele>102</ele>
        <time>2017-05-17T09:38:48.633</time>
      </trkpt>
      <trkpt lat="48.48103" lon="2.70937">
        <ele>103</ele>
        <time>2017-05-17T09:38:49.635</time>
      </trkpt>
      <trkpt lat="48.48099" lon="2.70938">
        <ele>103</ele>
        <time>2017-05-17T09:38:50.629</time>
      </trkpt>
      <trkpt lat="48.48095" lon="2.70942">
        <ele>104</ele>
        <time>2017-05-17T09:38:51.630</time>
      </trkpt>
      <trkpt lat="48.48095" lon="2.70949">
        <ele>104</ele>
        <time>2017-05-17T09:38:52.630</time>
      </trkpt>
      <trkpt lat="48.48095" lon="2.70952">
        <ele>104</ele>
        <time>2017-05-17T09:38:53.641</time>
      </trkpt>
      <trkpt lat="48.48098" lon="2.70957">
        <ele>105</ele>
        <time>2017-05-17T09:38:54.629</time>
      </trkpt>
      <trkpt lat="48.48099" lon="2.70962">
        <ele>104</ele>
        <time>2017-05-17T09:38:55.628</time>
      </trkpt>
      <trkpt lat="48.48101" lon="2.70966">
        <ele>103</ele>
        <time>2017-05-17T09:38:56.629</time>
      </trkpt>
      <trkpt lat="48.48101" lon="2.70971">
        <ele>104</ele>
        <time>2017-05-17T09:38:57.630</time>
      </trkpt>
      <trkpt lat="48.48102" lon="2.70976">
        <ele>103</ele>
        <time>2017-05-17T09:38:58.633</time>
      </trkpt>
      <trkpt lat="48.48103" lon="2.70982">
        <ele>103</ele>
        <time>2017-05-17T09:38:59.631</time>
      </trkpt>
      <trkpt lat="48.48104" lon="2.70987">
        <ele>103</ele>
        <time>2017-05-17T09:39:00.627</time>
      </trkpt>
      <trkpt lat="48.48106" lon="2.70993">
        <ele>103</ele>
        <time>2017-05-17T09:39:01.631</time>
      </trkpt>
      <trkpt lat="48.48107" lon="2.70998">
        <ele>103</ele>
        <time>2017-05-17T09:39:02.628</time>
      </trkpt>
      <trkpt lat="48.48108" lon="2.71004">
        <ele>103</ele>
        <time>2017-05-17T09:39:03.631</time>
      </trkpt>
      <trkpt lat="48.4811" lon="2.7101">
        <ele>103</ele>
        <time>2017-05-17T09:39:04.629</time>
      </trkpt>
      <trkpt lat="48.48111" lon="2.71016">
        <ele>102</ele>
        <time>2017-05-17T09:39:05.628</time>
      </trkpt>
      <trkpt lat="48.48112" lon="2.71023">
        <ele>103</ele>
        <time>2017-05-17T09:39:06.629</time>
      </trkpt>
      <trkpt lat="48.48114" lon="2.7103">
        <ele>103</ele>
        <time>2017-05-17T09:39:07.628</time>
      </trkpt>
      <trkpt lat="48.48115" lon="2.71037">
        <ele>102</ele>
        <time>2017-05-17T09:39:08.631</time>
      </trkpt>
      <trkpt lat="48.48117" lon="2.71044">
        <ele>102</ele>
        <time>2017-05-17T09:39:09.631</time>
      </trkpt>
      <trkpt lat="48.48118" lon="2.71051">
        <ele>102</ele>
        <time>2017-05-17T09:39:10.628</time>
      </trkpt>
      <trkpt lat="48.4812" lon="2.71058">
        <ele>102</ele>
        <time>2017-05-17T09:39:11.630</time>
      </trkpt>
      <trkpt lat="48.48121" lon="2.71066">
        <ele>102</ele>
        <time>2017-05-17T09:39:12.630</time>
      </trkpt>
      <trkpt lat="48.48122" lon="2.71073">
        <ele>103</ele>
        <time>2017-05-17T09:39:13.628</time>
      </trkpt>
      <trkpt lat="48.48124" lon="2.71081">
        <ele>103</ele>
        <time>2017-05-17T09:39:14.628</time>
      </trkpt>
      <trkpt lat="48.48126" lon="2.71089">
        <ele>103</ele>
        <time>2017-05-17T09:39:15.628</time>
      </trkpt>
      <trkpt lat="48.48127" lon="2.71097">
        <ele>103</ele>
        <time>2017-05-17T09:39:16.629</time>
      </trkpt>
      <trkpt lat="48.48128" lon="2.71105">
        <ele>103</ele>
        <time>2017-05-17T09:39:17.629</time>
      </trkpt>
      <trkpt lat="48.48129" lon="2.71114">
        <ele>103</ele>
        <time>2017-05-17T09:39:18.639</time>
      </trkpt>
      <trkpt lat="48.4813" lon="2.71123">
        <ele>103</ele>
        <time>2017-05-17T09:39:19.639</time>
      </trkpt>
      <trkpt lat="48.4813" lon="2.71131">
        <ele>103</ele>
        <time>2017-05-17T09:39:20.629</time>
      </trkpt>
      <trkpt lat="48.48131" lon="2.7114">
        <ele>103</ele>
        <time>2017-05-17T09:39:21.628</time>
      </trkpt>
      <trkpt lat="48.48132" lon="2.71147">
        <ele>103</ele>
        <time>2017-05-17T09:39:22.628</time>
      </trkpt>
      <trkpt lat="48.48133" lon="2.71155">
        <ele>103</ele>
        <time>2017-05-17T09:39:23.628</time>
      </trkpt>
      <trkpt lat="48.48134" lon="2.71164">
        <ele>103</ele>
        <time>2017-05-17T09:39:24.628</time>
      </trkpt>
      <trkpt lat="48.48134" lon="2.71172">
        <ele>103</ele>
        <time>2017-05-17T09:39:25.630</time>
      </trkpt>
      <trkpt lat="48.48135" lon="2.71181">
        <ele>103</ele>
        <time>2017-05-17T09:39:26.628</time>
      </trkpt>
      <trkpt lat="48.48135" lon="2.7119">
        <ele>103</ele>
        <time>2017-05-17T09:39:27.628</time>
      </trkpt>
      <trkpt lat="48.48136" lon="2.71199">
        <ele>103</ele>
        <time>2017-05-17T09:39:28.631</time>
      </trkpt>
      <trkpt lat="48.48138" lon="2.71208">
        <ele>103</ele>
        <time>2017-05-17T09:39:29.630</time>
      </trkpt>
      <trkpt lat="48.48139" lon="2.71216">
        <ele>102</ele>
        <time>2017-05-17T09:39:30.628</time>
      </trkpt>
      <trkpt lat="48.48141" lon="2.71225">
        <ele>102</ele>
        <time>2017-05-17T09:39:31.628</time>
      </trkpt>
      <trkpt lat="48.48142" lon="2.71234">
        <ele>102</ele>
        <time>2017-05-17T09:39:32.629</time>
      </trkpt>
      <trkpt lat="48.48144" lon="2.71243">
        <ele>102</ele>
        <time>2017-05-17T09:39:33.628</time>
      </trkpt>
      <trkpt lat="48.48147" lon="2.71252">
        <ele>102</ele>
        <time>2017-05-17T09:39:34.627</time>
      </trkpt>
      <trkpt lat="48.48148" lon="2.71261">
        <ele>102</ele>
        <time>2017-05-17T09:39:35.629</time>
      </trkpt>
      <trkpt lat="48.4815" lon="2.7127">
        <ele>102</ele>
        <time>2017-05-17T09:39:36.627</time>
      </trkpt>
      <trkpt lat="48.48151" lon="2.71279">
        <ele>103</ele>
        <time>2017-05-17T09:39:37.627</time>
      </trkpt>
      <trkpt lat="48.48153" lon="2.71288">
        <ele>103</ele>
        <time>2017-05-17T09:39:38.631</time>
      </trkpt>
      <trkpt lat="48.48155" lon="2.71297">
        <ele>103</ele>
        <time>2017-05-17T09:39:39.630</time>
      </trkpt>
      <trkpt lat="48.48157" lon="2.71306">
        <ele>103</ele>
        <time>2017-05-17T09:39:40.629</time>
      </trkpt>
      <trkpt lat="48.48158" lon="2.71316">
        <ele>103</ele>
        <time>2017-05-17T09:39:41.630</time>
      </trkpt>
      <trkpt lat="48.48159" lon="2.71326">
        <ele>103</ele>
        <time>2017-05-17T09:39:42.629</time>
      </trkpt>
      <trkpt lat="48.48161" lon="2.71334">
        <ele>103</ele>
        <time>2017-05-17T09:39:43.627</time>
      </trkpt>
      <trkpt lat="48.48162" lon="2.71344">
        <ele>104</ele>
        <time>2017-05-17T09:39:44.628</time>
      </trkpt>
      <trkpt lat="48.48163" lon="2.71353">
        <ele>103</ele>
        <time>2017-05-17T09:39:45.627</time>
      </trkpt>
      <trkpt lat="48.48164" lon="2.71362">
        <ele>104</ele>
        <time>2017-05-17T09:39:46.629</time>
      </trkpt>
      <trkpt lat="48.48165" lon="2.71371">
        <ele>103</ele>
        <time>2017-05-17T09:39:47.629</time>
      </trkpt>
      <trkpt lat="48.48167" lon="2.71381">
        <ele>103</ele>
        <time>2017-05-17T09:39:48.654</time>
      </trkpt>
      <trkpt lat="48.48169" lon="2.7139">
        <ele>104</ele>
        <time>2017-05-17T09:39:49.636</time>
      </trkpt>
      <trkpt lat="48.4817" lon="2.714">
        <ele>103</ele>
        <time>2017-05-17T09:39:50.629</time>
      </trkpt>
      <trkpt lat="48.48173" lon="2.7141">
        <ele>103</ele>
        <time>2017-05-17T09:39:51.628</time>
      </trkpt>
      <trkpt lat="48.48175" lon="2.7142">
        <ele>104</ele>
        <time>2017-05-17T09:39:52.628</time>
      </trkpt>
      <trkpt lat="48.48176" lon="2.71429">
        <ele>104</ele>
        <time>2017-05-17T09:39:53.628</time>
      </trkpt>
      <trkpt lat="48.48178" lon="2.71439">
        <ele>105</ele>
        <time>2017-05-17T09:39:54.628</time>
      </trkpt>
      <trkpt lat="48.4818" lon="2.71448">
        <ele>105</ele>
        <time>2017-05-17T09:39:55.628</time>
      </trkpt>
      <trkpt lat="48.48182" lon="2.71457">
        <ele>105</ele>
        <time>2017-05-17T09:39:56.628</time>
      </trkpt>
      <trkpt lat="48.48183" lon="2.71466">
        <ele>105</ele>
        <time>2017-05-17T09:39:57.630</time>
      </trkpt>
      <trkpt lat="48.48186" lon="2.71474">
        <ele>105</ele>
        <time>2017-05-17T09:39:58.633</time>
      </trkpt>
      <trkpt lat="48.48187" lon="2.71484">
        <ele>104</ele>
        <time>2017-05-17T09:39:59.630</time>
      </trkpt>
      <trkpt lat="48.48189" lon="2.71492">
        <ele>104</ele>
        <time>2017-05-17T09:40:00.629</time>
      </trkpt>
      <trkpt lat="48.48192" lon="2.71501">
        <ele>104</ele>
        <time>2017-05-17T09:40:01.629</time>
      </trkpt>
      <trkpt lat="48.48195" lon="2.7151">
        <ele>104</ele>
        <time>2017-05-17T09:40:02.630</time>
      </trkpt>
      <trkpt lat="48.48197" lon="2.71519">
        <ele>103</ele>
        <time>2017-05-17T09:40:03.629</time>
      </trkpt>
      <trkpt lat="48.48198" lon="2.71528">
        <ele>103</ele>
        <time>2017-05-17T09:40:04.628</time>
      </trkpt>
      <trkpt lat="48.48199" lon="2.71537">
        <ele>102</ele>
        <time>2017-05-17T09:40:05.628</time>
      </trkpt>
      <trkpt lat="48.482" lon="2.71547">
        <ele>102</ele>
        <time>2017-05-17T09:40:06.629</time>
      </trkpt>
      <trkpt lat="48.482" lon="2.71556">
        <ele>103</ele>
        <time>2017-05-17T09:40:07.629</time>
      </trkpt>
      <trkpt lat="48.48198" lon="2.71564">
        <ele>103</ele>
        <time>2017-05-17T09:40:08.633</time>
      </trkpt>
      <trkpt lat="48.48194" lon="2.71571">
        <ele>103</ele>
        <time>2017-05-17T09:40:09.631</time>
      </trkpt>
      <trkpt lat="48.48189" lon="2.71573">
        <ele>103</ele>
        <time>2017-05-17T09:40:10.630</time>
      </trkpt>
      <trkpt lat="48.48183" lon="2.71572">
        <ele>103</ele>
        <time>2017-05-17T09:40:11.630</time>
      </trkpt>
      <trkpt lat="48.48178" lon="2.71572">
        <ele>103</ele>
        <time>2017-05-17T09:40:12.628</time>
      </trkpt>
      <trkpt lat="48.48173" lon="2.71576">
        <ele>102</ele>
        <time>2017-05-17T09:40:13.630</time>
      </trkpt>
      <trkpt lat="48.48171" lon="2.71583">
        <ele>103</ele>
        <time>2017-05-17T09:40:14.630</time>
      </trkpt>
      <trkpt lat="48.48168" lon="2.71589">
        <ele>103</ele>
        <time>2017-05-17T09:40:15.630</time>
      </trkpt>
      <trkpt lat="48.48165" lon="2.71595">
        <ele>104</ele>
        <time>2017-05-17T09:40:16.629</time>
      </trkpt>
      <trkpt lat="48.48166" lon="2.71599">
        <ele>104</ele>
        <time>2017-05-17T09:40:17.630</time>
      </trkpt>
      <trkpt lat="48.48167" lon="2.716">
        <ele>103</ele>
        <time>2017-05-17T09:40:18.636</time>
      </trkpt>
      <trkpt lat="48.48169" lon="2.71603">
        <ele>103</ele>
        <time>2017-05-17T09:40:19.636</time>
      </trkpt>
      <trkpt lat="48.48176" lon="2.71608">
        <ele>102</ele>
        <time>2017-05-17T09:40:22.317</time>
      </trkpt>
      <trkpt lat="48.48179" lon="2.71611">
        <ele>103</ele>
        <time>2017-05-17T09:40:22.636</time>
      </trkpt>
      <trkpt lat="48.48182" lon="2.71615">
        <ele>103</ele>
        <time>2017-05-17T09:40:23.638</time>
      </trkpt>
      <trkpt lat="48.48185" lon="2.71619">
        <ele>103</ele>
        <time>2017-05-17T09:40:24.639</time>
      </trkpt>
      <trkpt lat="48.48187" lon="2.71623">
        <ele>103</ele>
        <time>2017-05-17T09:40:25.628</time>
      </trkpt>
      <trkpt lat="48.48188" lon="2.71625">
        <ele>104</ele>
        <time>2017-05-17T09:40:26.634</time>
      </trkpt>
      <trkpt lat="48.4819" lon="2.71628">
        <ele>105</ele>
        <time>2017-05-17T09:40:27.636</time>
      </trkpt>
      <trkpt lat="48.48191" lon="2.7163">
        <ele>105</ele>
        <time>2017-05-17T09:40:28.637</time>
      </trkpt>
      <trkpt lat="48.48193" lon="2.71633">
        <ele>105</ele>
        <time>2017-05-17T09:40:29.640</time>
      </trkpt>
      <trkpt lat="48.48193" lon="2.71634">
        <ele>106</ele>
        <time>2017-05-17T09:40:30.635</time>
      </trkpt>
      <trkpt lat="48.48192" lon="2.71636">
        <ele>106</ele>
        <time>2017-05-17T09:40:31.637</time>
      </trkpt>
      <trkpt lat="48.48192" lon="2.71637">
        <ele>107</ele>
        <time>2017-05-17T09:40:32.636</time>
      </trkpt>
      <trkpt lat="48.48192" lon="2.71638">
        <ele>107</ele>
        <time>2017-05-17T09:40:33.635</time>
      </trkpt>
      <trkpt lat="48.48192" lon="2.71639">
        <ele>106</ele>
        <time>2017-05-17T09:40:34.637</time>
      </trkpt>
      <trkpt lat="48.4819" lon="2.71641">
        <ele>107</ele>
        <time>2017-05-17T09:40:35.635</time>
      </trkpt>
      <trkpt lat="48.48188" lon="2.71644">
        <ele>106</ele>
        <time>2017-05-17T09:40:36.637</time>
      </trkpt>
      <trkpt lat="48.48186" lon="2.7165">
        <ele>105</ele>
        <time>2017-05-17T09:40:37.638</time>
      </trkpt>
      <trkpt lat="48.48185" lon="2.71662">
        <ele>106</ele>
        <time>2017-05-17T09:40:38.638</time>
      </trkpt>
      <trkpt lat="48.48182" lon="2.71669">
        <ele>105</ele>
        <time>2017-05-17T09:40:39.639</time>
      </trkpt>
      <trkpt lat="48.48177" lon="2.71673">
        <ele>105</ele>
        <time>2017-05-17T09:40:40.635</time>
      </trkpt>
      <trkpt lat="48.48171" lon="2.71676">
        <ele>105</ele>
        <time>2017-05-17T09:40:41.636</time>
      </trkpt>
      <trkpt lat="48.48164" lon="2.71678">
        <ele>105</ele>
        <time>2017-05-17T09:40:42.636</time>
      </trkpt>
      <trkpt lat="48.48158" lon="2.71681">
        <ele>104</ele>
        <time>2017-05-17T09:40:43.636</time>
      </trkpt>
      <trkpt lat="48.48152" lon="2.71684">
        <ele>104</ele>
        <time>2017-05-17T09:40:44.638</time>
      </trkpt>
      <trkpt lat="48.48146" lon="2.71684">
        <ele>105</ele>
        <time>2017-05-17T09:40:45.634</time>
      </trkpt>
      <trkpt lat="48.4814" lon="2.71687">
        <ele>104</ele>
        <time>2017-05-17T09:40:46.634</time>
      </trkpt>
      <trkpt lat="48.48137" lon="2.71694">
        <ele>104</ele>
        <time>2017-05-17T09:40:47.635</time>
      </trkpt>
      <trkpt lat="48.48135" lon="2.71701">
        <ele>104</ele>
        <time>2017-05-17T09:40:48.639</time>
      </trkpt>
      <trkpt lat="48.48135" lon="2.71709">
        <ele>105</ele>
        <time>2017-05-17T09:40:49.640</time>
      </trkpt>
      <trkpt lat="48.48133" lon="2.71713">
        <ele>105</ele>
        <time>2017-05-17T09:40:50.635</time>
      </trkpt>
      <trkpt lat="48.48129" lon="2.71713">
        <ele>106</ele>
        <time>2017-05-17T09:40:51.634</time>
      </trkpt>
      <trkpt lat="48.48128" lon="2.71712">
        <ele>106</ele>
        <time>2017-05-17T09:40:52.636</time>
      </trkpt>
      <trkpt lat="48.48128" lon="2.71712">
        <ele>106</ele>
        <time>2017-05-17T09:40:53.636</time>
      </trkpt>
      <trkpt lat="48.48128" lon="2.71712">
        <ele>106</ele>
        <time>2017-05-17T09:40:54.639</time>
      </trkpt>
      <trkpt lat="48.48128" lon="2.71712">
        <ele>106</ele>
        <time>2017-05-17T09:40:55.638</time>
      </trkpt>
      <trkpt lat="48.48128" lon="2.71712">
        <ele>107</ele>
        <time>2017-05-17T09:40:56.638</time>
      </trkpt>
      <trkpt lat="48.48128" lon="2.71711">
        <ele>106</ele>
        <time>2017-05-17T09:40:57.637</time>
      </trkpt>
      <trkpt lat="48.48129" lon="2.71711">
        <ele>106</ele>
        <time>2017-05-17T09:40:58.641</time>
      </trkpt>
      <trkpt lat="48.48129" lon="2.71711">
        <ele>106</ele>
        <time>2017-05-17T09:40:59.636</time>
      </trkpt>
      <trkpt lat="48.48129" lon="2.71711">
        <ele>106</ele>
        <time>2017-05-17T09:41:00.635</time>
      </trkpt>
      <trkpt lat="48.48129" lon="2.71711">
        <ele>106</ele>
        <time>2017-05-17T09:41:01.634</time>
      </trkpt>
      <trkpt lat="48.4813" lon="2.71711">
        <ele>106</ele>
        <time>2017-05-17T09:41:02.634</time>
      </trkpt>
      <trkpt lat="48.4813" lon="2.71711">
        <ele>106</ele>
        <time>2017-05-17T09:41:03.633</time>
      </trkpt>
      <trkpt lat="48.4813" lon="2.71711">
        <ele>106</ele>
        <time>2017-05-17T09:41:04.635</time>
      </trkpt>
      <trkpt lat="48.4813" lon="2.71711">
        <ele>106</ele>
        <time>2017-05-17T09:41:05.633</time>
      </trkpt>
      <trkpt lat="48.4813" lon="2.71711">
        <ele>106</ele>
        <time>2017-05-17T09:41:06.634</time>
      </trkpt>
      <trkpt lat="48.4813" lon="2.7171">
        <ele>106</ele>
        <time>2017-05-17T09:41:07.634</time>
      </trkpt>
      <trkpt lat="48.4813" lon="2.7171">
        <ele>106</ele>
        <time>2017-05-17T09:41:08.636</time>
      </trkpt>
      <trkpt lat="48.4813" lon="2.7171">
        <ele>106</ele>
        <time>2017-05-17T09:41:09.639</time>
      </trkpt>
      <trkpt lat="48.48131" lon="2.71709">
        <ele>106</ele>
        <time>2017-05-17T09:41:10.634</time>
      </trkpt>
      <trkpt lat="48.48131" lon="2.7171">
        <ele>106</ele>
        <time>2017-05-17T09:41:11.635</time>
      </trkpt>
      <trkpt lat="48.4813" lon="2.7171">
        <ele>106</ele>
        <time>2017-05-17T09:41:12.636</time>
      </trkpt>
      <trkpt lat="48.48129" lon="2.71712">
        <ele>105</ele>
        <time>2017-05-17T09:41:13.637</time>
      </trkpt>
      <trkpt lat="48.48127" lon="2.71714">
        <ele>105</ele>
        <time>2017-05-17T09:41:14.638</time>
      </trkpt>
      <trkpt lat="48.48124" lon="2.71715">
        <ele>105</ele>
        <time>2017-05-17T09:41:15.637</time>
      </trkpt>
      <trkpt lat="48.48121" lon="2.71716">
        <ele>105</ele>
        <time>2017-05-17T09:41:16.635</time>
      </trkpt>
      <trkpt lat="48.48118" lon="2.71717">
        <ele>105</ele>
        <time>2017-05-17T09:41:17.637</time>
      </trkpt>
      <trkpt lat="48.48115" lon="2.71716">
        <ele>105</ele>
        <time>2017-05-17T09:41:18.652</time>
      </trkpt>
      <trkpt lat="48.48111" lon="2.71717">
        <ele>105</ele>
        <time>2017-05-17T09:41:19.655</time>
      </trkpt>
      <trkpt lat="48.48106" lon="2.71717">
        <ele>105</ele>
        <time>2017-05-17T09:41:20.634</time>
      </trkpt>
      <trkpt lat="48.48103" lon="2.71717">
        <ele>105</ele>
        <time>2017-05-17T09:41:21.636</time>
      </trkpt>
      <trkpt lat="48.48099" lon="2.71717">
        <ele>105</ele>
        <time>2017-05-17T09:41:22.637</time>
      </trkpt>
      <trkpt lat="48.48095" lon="2.71717">
        <ele>105</ele>
        <time>2017-05-17T09:41:23.634</time>
      </trkpt>
      <trkpt lat="48.48092" lon="2.71717">
        <ele>105</ele>
        <time>2017-05-17T09:41:24.637</time>
      </trkpt>
      <trkpt lat="48.48088" lon="2.71717">
        <ele>106</ele>
        <time>2017-05-17T09:41:25.635</time>
      </trkpt>
      <trkpt lat="48.48085" lon="2.71716">
        <ele>106</ele>
        <time>2017-05-17T09:41:26.637</time>
      </trkpt>
      <trkpt lat="48.48081" lon="2.71716">
        <ele>106</ele>
        <time>2017-05-17T09:41:27.630</time>
      </trkpt>
      <trkpt lat="48.48078" lon="2.71716">
        <ele>106</ele>
        <time>2017-05-17T09:41:28.638</time>
      </trkpt>
      <trkpt lat="48.48075" lon="2.71716">
        <ele>106</ele>
        <time>2017-05-17T09:41:29.639</time>
      </trkpt>
      <trkpt lat="48.48072" lon="2.71715">
        <ele>106</ele>
        <time>2017-05-17T09:41:30.636</time>
      </trkpt>
      <trkpt lat="48.48068" lon="2.71715">
        <ele>107</ele>
        <time>2017-05-17T09:41:31.638</time>
      </trkpt>
      <trkpt lat="48.48065" lon="2.71716">
        <ele>107</ele>
        <time>2017-05-17T09:41:32.635</time>
      </trkpt>
      <trkpt lat="48.48061" lon="2.71717">
        <ele>107</ele>
        <time>2017-05-17T09:41:33.635</time>
      </trkpt>
      <trkpt lat="48.48058" lon="2.71718">
        <ele>108</ele>
        <time>2017-05-17T09:41:34.637</time>
      </trkpt>
      <trkpt lat="48.48054" lon="2.71719">
        <ele>108</ele>
        <time>2017-05-17T09:41:35.636</time>
      </trkpt>
      <trkpt lat="48.48051" lon="2.71722">
        <ele>108</ele>
        <time>2017-05-17T09:41:36.635</time>
      </trkpt>
      <trkpt lat="48.48048" lon="2.71724">
        <ele>108</ele>
        <time>2017-05-17T09:41:37.636</time>
      </trkpt>
      <trkpt lat="48.48045" lon="2.71727">
        <ele>109</ele>
        <time>2017-05-17T09:41:38.639</time>
      </trkpt>
      <trkpt lat="48.48042" lon="2.71729">
        <ele>109</ele>
        <time>2017-05-17T09:41:39.641</time>
      </trkpt>
      <trkpt lat="48.48039" lon="2.71731">
        <ele>109</ele>
        <time>2017-05-17T09:41:40.638</time>
      </trkpt>
      <trkpt lat="48.48037" lon="2.71734">
        <ele>109</ele>
        <time>2017-05-17T09:41:41.639</time>
      </trkpt>
      <trkpt lat="48.48036" lon="2.71737">
        <ele>108</ele>
        <time>2017-05-17T09:41:42.639</time>
      </trkpt>
      <trkpt lat="48.48035" lon="2.71741">
        <ele>108</ele>
        <time>2017-05-17T09:41:43.638</time>
      </trkpt>
      <trkpt lat="48.48035" lon="2.71744">
        <ele>107</ele>
        <time>2017-05-17T09:41:44.640</time>
      </trkpt>
      <trkpt lat="48.48036" lon="2.71748">
        <ele>107</ele>
        <time>2017-05-17T09:41:45.639</time>
      </trkpt>
      <trkpt lat="48.48037" lon="2.71751">
        <ele>107</ele>
        <time>2017-05-17T09:41:46.638</time>
      </trkpt>
      <trkpt lat="48.48038" lon="2.71757">
        <ele>107</ele>
        <time>2017-05-17T09:41:47.639</time>
      </trkpt>
      <trkpt lat="48.48038" lon="2.71762">
        <ele>107</ele>
        <time>2017-05-17T09:41:48.662</time>
      </trkpt>
      <trkpt lat="48.48038" lon="2.71769">
        <ele>106</ele>
        <time>2017-05-17T09:41:49.641</time>
      </trkpt>
      <trkpt lat="48.48038" lon="2.71774">
        <ele>106</ele>
        <time>2017-05-17T09:41:50.638</time>
      </trkpt>
      <trkpt lat="48.48039" lon="2.71781">
        <ele>106</ele>
        <time>2017-05-17T09:41:51.637</time>
      </trkpt>
      <trkpt lat="48.48039" lon="2.71785">
        <ele>105</ele>
        <time>2017-05-17T09:41:52.638</time>
      </trkpt>
      <trkpt lat="48.48039" lon="2.71791">
        <ele>104</ele>
        <time>2017-05-17T09:41:53.637</time>
      </trkpt>
      <trkpt lat="48.48041" lon="2.71794">
        <ele>104</ele>
        <time>2017-05-17T09:41:54.641</time>
      </trkpt>
      <trkpt lat="48.48042" lon="2.71797">
        <ele>103</ele>
        <time>2017-05-17T09:41:55.638</time>
      </trkpt>
      <trkpt lat="48.48042" lon="2.71804">
        <ele>103</ele>
        <time>2017-05-17T09:41:56.637</time>
      </trkpt>
      <trkpt lat="48.48043" lon="2.7181">
        <ele>103</ele>
        <time>2017-05-17T09:41:57.637</time>
      </trkpt>
      <trkpt lat="48.48043" lon="2.71816">
        <ele>103</ele>
        <time>2017-05-17T09:41:58.640</time>
      </trkpt>
      <trkpt lat="48.48044" lon="2.71823">
        <ele>104</ele>
        <time>2017-05-17T09:41:59.641</time>
      </trkpt>
      <trkpt lat="48.48045" lon="2.71829">
        <ele>105</ele>
        <time>2017-05-17T09:42:00.637</time>
      </trkpt>
      <trkpt lat="48.48043" lon="2.71837">
        <ele>105</ele>
        <time>2017-05-17T09:42:01.639</time>
      </trkpt>
      <trkpt lat="48.48043" lon="2.71844">
        <ele>105</ele>
        <time>2017-05-17T09:42:02.642</time>
      </trkpt>
      <trkpt lat="48.48043" lon="2.71852">
        <ele>105</ele>
        <time>2017-05-17T09:42:03.638</time>
      </trkpt>
      <trkpt lat="48.48044" lon="2.71858">
        <ele>104</ele>
        <time>2017-05-17T09:42:04.637</time>
      </trkpt>
      <trkpt lat="48.48044" lon="2.71868">
        <ele>106</ele>
        <time>2017-05-17T09:42:05.636</time>
      </trkpt>
      <trkpt lat="48.48044" lon="2.71874">
        <ele>105</ele>
        <time>2017-05-17T09:42:06.637</time>
      </trkpt>
      <trkpt lat="48.48045" lon="2.71881">
        <ele>106</ele>
        <time>2017-05-17T09:42:07.635</time>
      </trkpt>
      <trkpt lat="48.48045" lon="2.71887">
        <ele>106</ele>
        <time>2017-05-17T09:42:08.638</time>
      </trkpt>
      <trkpt lat="48.48044" lon="2.71889">
        <ele>105</ele>
        <time>2017-05-17T09:42:09.643</time>
      </trkpt>
      <trkpt lat="48.4804" lon="2.7189">
        <ele>106</ele>
        <time>2017-05-17T09:42:10.638</time>
      </trkpt>
      <trkpt lat="48.48038" lon="2.71889">
        <ele>105</ele>
        <time>2017-05-17T09:42:11.637</time>
      </trkpt>
      <trkpt lat="48.48035" lon="2.7189">
        <ele>105</ele>
        <time>2017-05-17T09:42:12.639</time>
      </trkpt>
      <trkpt lat="48.48032" lon="2.71891">
        <ele>105</ele>
        <time>2017-05-17T09:42:13.637</time>
      </trkpt>
      <trkpt lat="48.48027" lon="2.71891">
        <ele>105</ele>
        <time>2017-05-17T09:42:14.639</time>
      </trkpt>
      <trkpt lat="48.48022" lon="2.7189">
        <ele>104</ele>
        <time>2017-05-17T09:42:15.638</time>
      </trkpt>
      <trkpt lat="48.48019" lon="2.71889">
        <ele>104</ele>
        <time>2017-05-17T09:42:16.638</time>
      </trkpt>
      <trkpt lat="48.48015" lon="2.71887">
        <ele>105</ele>
        <time>2017-05-17T09:42:17.636</time>
      </trkpt>
      <trkpt lat="48.48011" lon="2.71885">
        <ele>105</ele>
        <time>2017-05-17T09:42:18.645</time>
      </trkpt>
      <trkpt lat="48.48005" lon="2.71886">
        <ele>105</ele>
        <time>2017-05-17T09:42:19.645</time>
      </trkpt>
      <trkpt lat="48.48001" lon="2.71884">
        <ele>105</ele>
        <time>2017-05-17T09:42:20.637</time>
      </trkpt>
      <trkpt lat="48.47997" lon="2.71885">
        <ele>105</ele>
        <time>2017-05-17T09:42:21.639</time>
      </trkpt>
      <trkpt lat="48.47992" lon="2.71885">
        <ele>105</ele>
        <time>2017-05-17T09:42:22.638</time>
      </trkpt>
      <trkpt lat="48.47988" lon="2.71883">
        <ele>104</ele>
        <time>2017-05-17T09:42:23.638</time>
      </trkpt>
      <trkpt lat="48.47983" lon="2.71882">
        <ele>105</ele>
        <time>2017-05-17T09:42:24.636</time>
      </trkpt>
      <trkpt lat="48.47979" lon="2.7188">
        <ele>104</ele>
        <time>2017-05-17T09:42:25.638</time>
      </trkpt>
      <trkpt lat="48.47973" lon="2.71879">
        <ele>105</ele>
        <time>2017-05-17T09:42:26.636</time>
      </trkpt>
      <trkpt lat="48.47968" lon="2.71876">
        <ele>105</ele>
        <time>2017-05-17T09:42:27.637</time>
      </trkpt>
      <trkpt lat="48.47964" lon="2.71875">
        <ele>105</ele>
        <time>2017-05-17T09:42:28.639</time>
      </trkpt>
      <trkpt lat="48.47959" lon="2.71874">
        <ele>105</ele>
        <time>2017-05-17T09:42:29.641</time>
      </trkpt>
      <trkpt lat="48.47953" lon="2.71873">
        <ele>105</ele>
        <time>2017-05-17T09:42:30.636</time>
      </trkpt>
      <trkpt lat="48.47949" lon="2.71873">
        <ele>106</ele>
        <time>2017-05-17T09:42:31.637</time>
      </trkpt>
      <trkpt lat="48.47944" lon="2.71873">
        <ele>106</ele>
        <time>2017-05-17T09:42:32.636</time>
      </trkpt>
      <trkpt lat="48.47941" lon="2.7187">
        <ele>106</ele>
        <time>2017-05-17T09:42:33.636</time>
      </trkpt>
      <trkpt lat="48.47937" lon="2.71868">
        <ele>104</ele>
        <time>2017-05-17T09:42:34.638</time>
      </trkpt>
      <trkpt lat="48.47932" lon="2.71866">
        <ele>104</ele>
        <time>2017-05-17T09:42:35.637</time>
      </trkpt>
      <trkpt lat="48.47926" lon="2.71865">
        <ele>104</ele>
        <time>2017-05-17T09:42:36.636</time>
      </trkpt>
      <trkpt lat="48.47921" lon="2.71864">
        <ele>104</ele>
        <time>2017-05-17T09:42:37.636</time>
      </trkpt>
      <trkpt lat="48.47918" lon="2.71862">
        <ele>104</ele>
        <time>2017-05-17T09:42:38.636</time>
      </trkpt>
      <trkpt lat="48.47912" lon="2.71862">
        <ele>103</ele>
        <time>2017-05-17T09:42:39.638</time>
      </trkpt>
      <trkpt lat="48.47907" lon="2.71861">
        <ele>103</ele>
        <time>2017-05-17T09:42:40.636</time>
      </trkpt>
      <trkpt lat="48.47902" lon="2.7186">
        <ele>103</ele>
        <time>2017-05-17T09:42:41.635</time>
      </trkpt>
      <trkpt lat="48.47898" lon="2.71858">
        <ele>102</ele>
        <time>2017-05-17T09:42:42.636</time>
      </trkpt>
      <trkpt lat="48.47894" lon="2.71857">
        <ele>102</ele>
        <time>2017-05-17T09:42:43.635</time>
      </trkpt>
      <trkpt lat="48.47889" lon="2.71856">
        <ele>102</ele>
        <time>2017-05-17T09:42:44.636</time>
      </trkpt>
      <trkpt lat="48.47883" lon="2.71856">
        <ele>103</ele>
        <time>2017-05-17T09:42:45.636</time>
      </trkpt>
      <trkpt lat="48.47879" lon="2.71856">
        <ele>102</ele>
        <time>2017-05-17T09:42:46.636</time>
      </trkpt>
      <trkpt lat="48.47875" lon="2.71855">
        <ele>103</ele>
        <time>2017-05-17T09:42:47.634</time>
      </trkpt>
      <trkpt lat="48.4787" lon="2.71854">
        <ele>103</ele>
        <time>2017-05-17T09:42:48.639</time>
      </trkpt>
      <trkpt lat="48.47866" lon="2.71854">
        <ele>103</ele>
        <time>2017-05-17T09:42:49.641</time>
      </trkpt>
      <trkpt lat="48.47861" lon="2.71851">
        <ele>104</ele>
        <time>2017-05-17T09:42:50.635</time>
      </trkpt>
      <trkpt lat="48.47857" lon="2.7185">
        <ele>105</ele>
        <time>2017-05-17T09:42:51.628</time>
      </trkpt>
      <trkpt lat="48.47854" lon="2.71846">
        <ele>104</ele>
        <time>2017-05-17T09:42:52.635</time>
      </trkpt>
      <trkpt lat="48.4785" lon="2.71845">
        <ele>103</ele>
        <time>2017-05-17T09:42:53.635</time>
      </trkpt>
      <trkpt lat="48.47844" lon="2.71844">
        <ele>104</ele>
        <time>2017-05-17T09:42:54.639</time>
      </trkpt>
      <trkpt lat="48.47839" lon="2.71844">
        <ele>103</ele>
        <time>2017-05-17T09:42:55.637</time>
      </trkpt>
      <trkpt lat="48.47835" lon="2.71843">
        <ele>102</ele>
        <time>2017-05-17T09:42:56.636</time>
      </trkpt>
      <trkpt lat="48.4783" lon="2.71842">
        <ele>102</ele>
        <time>2017-05-17T09:42:57.637</time>
      </trkpt>
      <trkpt lat="48.47824" lon="2.71841">
        <ele>103</ele>
        <time>2017-05-17T09:42:58.639</time>
      </trkpt>
      <trkpt lat="48.4782" lon="2.7184">
        <ele>103</ele>
        <time>2017-05-17T09:42:59.641</time>
      </trkpt>
      <trkpt lat="48.47815" lon="2.71838">
        <ele>103</ele>
        <time>2017-05-17T09:43:00.638</time>
      </trkpt>
      <trkpt lat="48.4781" lon="2.71838">
        <ele>102</ele>
        <time>2017-05-17T09:43:01.637</time>
      </trkpt>
      <trkpt lat="48.47806" lon="2.71838">
        <ele>101</ele>
        <time>2017-05-17T09:43:02.636</time>
      </trkpt>
      <trkpt lat="48.478" lon="2.71836">
        <ele>101</ele>
        <time>2017-05-17T09:43:03.637</time>
      </trkpt>
      <trkpt lat="48.47795" lon="2.71835">
        <ele>101</ele>
        <time>2017-05-17T09:43:04.639</time>
      </trkpt>
      <trkpt lat="48.4779" lon="2.71834">
        <ele>101</ele>
        <time>2017-05-17T09:43:05.636</time>
      </trkpt>
      <trkpt lat="48.47785" lon="2.71833">
        <ele>102</ele>
        <time>2017-05-17T09:43:06.636</time>
      </trkpt>
      <trkpt lat="48.4778" lon="2.71831">
        <ele>101</ele>
        <time>2017-05-17T09:43:07.636</time>
      </trkpt>
      <trkpt lat="48.47775" lon="2.71829">
        <ele>102</ele>
        <time>2017-05-17T09:43:08.638</time>
      </trkpt>
      <trkpt lat="48.4777" lon="2.71827">
        <ele>102</ele>
        <time>2017-05-17T09:43:09.639</time>
      </trkpt>
      <trkpt lat="48.47765" lon="2.71826">
        <ele>102</ele>
        <time>2017-05-17T09:43:10.637</time>
      </trkpt>
      <trkpt lat="48.4776" lon="2.71825">
        <ele>102</ele>
        <time>2017-05-17T09:43:11.637</time>
      </trkpt>
      <trkpt lat="48.47755" lon="2.71824">
        <ele>102</ele>
        <time>2017-05-17T09:43:12.636</time>
      </trkpt>
      <trkpt lat="48.4775" lon="2.71823">
        <ele>102</ele>
        <time>2017-05-17T09:43:13.637</time>
      </trkpt>
      <trkpt lat="48.47746" lon="2.71823">
        <ele>103</ele>
        <time>2017-05-17T09:43:14.639</time>
      </trkpt>
      <trkpt lat="48.47742" lon="2.71821">
        <ele>104</ele>
        <time>2017-05-17T09:43:15.639</time>
      </trkpt>
      <trkpt lat="48.47738" lon="2.7182">
        <ele>105</ele>
        <time>2017-05-17T09:43:16.640</time>
      </trkpt>
      <trkpt lat="48.47734" lon="2.71818">
        <ele>104</ele>
        <time>2017-05-17T09:43:17.639</time>
      </trkpt>
      <trkpt lat="48.4773" lon="2.71816">
        <ele>104</ele>
        <time>2017-05-17T09:43:18.639</time>
      </trkpt>
      <trkpt lat="48.47726" lon="2.71815">
        <ele>104</ele>
        <time>2017-05-17T09:43:19.640</time>
      </trkpt>
      <trkpt lat="48.47723" lon="2.71814">
        <ele>104</ele>
        <time>2017-05-17T09:43:20.637</time>
      </trkpt>
      <trkpt lat="48.47718" lon="2.71814">
        <ele>105</ele>
        <time>2017-05-17T09:43:21.637</time>
      </trkpt>
      <trkpt lat="48.47714" lon="2.71814">
        <ele>106</ele>
        <time>2017-05-17T09:43:22.637</time>
      </trkpt>
      <trkpt lat="48.4771" lon="2.71816">
        <ele>105</ele>
        <time>2017-05-17T09:43:23.638</time>
      </trkpt>
      <trkpt lat="48.4771" lon="2.71819">
        <ele>106</ele>
        <time>2017-05-17T09:43:24.640</time>
      </trkpt>
      <trkpt lat="48.47709" lon="2.71822">
        <ele>105</ele>
        <time>2017-05-17T09:43:25.637</time>
      </trkpt>
      <trkpt lat="48.47706" lon="2.71825">
        <ele>107</ele>
        <time>2017-05-17T09:43:26.637</time>
      </trkpt>
      <trkpt lat="48.47705" lon="2.71828">
        <ele>108</ele>
        <time>2017-05-17T09:43:27.638</time>
      </trkpt>
      <trkpt lat="48.47702" lon="2.7183">
        <ele>108</ele>
        <time>2017-05-17T09:43:28.642</time>
      </trkpt>
      <trkpt lat="48.477" lon="2.71827">
        <ele>108</ele>
        <time>2017-05-17T09:43:29.643</time>
      </trkpt>
      <trkpt lat="48.47696" lon="2.71824">
        <ele>107</ele>
        <time>2017-05-17T09:43:30.638</time>
      </trkpt>
      <trkpt lat="48.47693" lon="2.71824">
        <ele>107</ele>
        <time>2017-05-17T09:43:31.638</time>
      </trkpt>
      <trkpt lat="48.47688" lon="2.71821">
        <ele>107</ele>
        <time>2017-05-17T09:43:32.634</time>
      </trkpt>
      <trkpt lat="48.47683" lon="2.71821">
        <ele>107</ele>
        <time>2017-05-17T09:43:33.639</time>
      </trkpt>
      <trkpt lat="48.47679" lon="2.7182">
        <ele>108</ele>
        <time>2017-05-17T09:43:34.641</time>
      </trkpt>
      <trkpt lat="48.47676" lon="2.71819">
        <ele>107</ele>
        <time>2017-05-17T09:43:35.637</time>
      </trkpt>
      <trkpt lat="48.47673" lon="2.71816">
        <ele>107</ele>
        <time>2017-05-17T09:43:36.637</time>
      </trkpt>
      <trkpt lat="48.4767" lon="2.71815">
        <ele>109</ele>
        <time>2017-05-17T09:43:37.639</time>
      </trkpt>
      <trkpt lat="48.47666" lon="2.71812">
        <ele>109</ele>
        <time>2017-05-17T09:43:38.642</time>
      </trkpt>
      <trkpt lat="48.47664" lon="2.7181">
        <ele>108</ele>
        <time>2017-05-17T09:43:39.642</time>
      </trkpt>
      <trkpt lat="48.47661" lon="2.71808">
        <ele>108</ele>
        <time>2017-05-17T09:43:40.637</time>
      </trkpt>
      <trkpt lat="48.47658" lon="2.71813">
        <ele>106</ele>
        <time>2017-05-17T09:43:41.640</time>
      </trkpt>
      <trkpt lat="48.47655" lon="2.71816">
        <ele>107</ele>
        <time>2017-05-17T09:43:42.640</time>
      </trkpt>
      <trkpt lat="48.47651" lon="2.7182">
        <ele>106</ele>
        <time>2017-05-17T09:43:43.638</time>
      </trkpt>
      <trkpt lat="48.4765" lon="2.71826">
        <ele>107</ele>
        <time>2017-05-17T09:43:44.638</time>
      </trkpt>
      <trkpt lat="48.47647" lon="2.7183">
        <ele>109</ele>
        <time>2017-05-17T09:43:45.635</time>
      </trkpt>
      <trkpt lat="48.47645" lon="2.71835">
        <ele>109</ele>
        <time>2017-05-17T09:43:46.635</time>
      </trkpt>
      <trkpt lat="48.47642" lon="2.7184">
        <ele>110</ele>
        <time>2017-05-17T09:43:47.637</time>
      </trkpt>
      <trkpt lat="48.4764" lon="2.71844">
        <ele>111</ele>
        <time>2017-05-17T09:43:48.639</time>
      </trkpt>
      <trkpt lat="48.47638" lon="2.71849">
        <ele>112</ele>
        <time>2017-05-17T09:43:49.662</time>
      </trkpt>
      <trkpt lat="48.47634" lon="2.71853">
        <ele>112</ele>
        <time>2017-05-17T09:43:50.637</time>
      </trkpt>
      <trkpt lat="48.47632" lon="2.71855">
        <ele>112</ele>
        <time>2017-05-17T09:43:51.638</time>
      </trkpt>
      <trkpt lat="48.47629" lon="2.71854">
        <ele>112</ele>
        <time>2017-05-17T09:43:52.638</time>
      </trkpt>
      <trkpt lat="48.47625" lon="2.71851">
        <ele>112</ele>
        <time>2017-05-17T09:43:53.637</time>
      </trkpt>
      <trkpt lat="48.47622" lon="2.71849">
        <ele>112</ele>
        <time>2017-05-17T09:43:54.638</time>
      </trkpt>
      <trkpt lat="48.47618" lon="2.71846">
        <ele>113</ele>
        <time>2017-05-17T09:43:55.637</time>
      </trkpt>
      <trkpt lat="48.47615" lon="2.71844">
        <ele>112</ele>
        <time>2017-05-17T09:43:56.637</time>
      </trkpt>
      <trkpt lat="48.47611" lon="2.71842">
        <ele>112</ele>
        <time>2017-05-17T09:43:57.639</time>
      </trkpt>
      <trkpt lat="48.47608" lon="2.71839">
        <ele>111</ele>
        <time>2017-05-17T09:43:58.640</time>
      </trkpt>
      <trkpt lat="48.47604" lon="2.71835">
        <ele>110</ele>
        <time>2017-05-17T09:43:59.643</time>
      </trkpt>
      <trkpt lat="48.47601" lon="2.71832">
        <ele>111</ele>
        <time>2017-05-17T09:44:01.439</time>
      </trkpt>
      <trkpt lat="48.47598" lon="2.71829">
        <ele>111</ele>
        <time>2017-05-17T09:44:01.634</time>
      </trkpt>
      <trkpt lat="48.47593" lon="2.71827">
        <ele>110</ele>
        <time>2017-05-17T09:44:02.638</time>
      </trkpt>
      <trkpt lat="48.47589" lon="2.71826">
        <ele>110</ele>
        <time>2017-05-17T09:44:03.638</time>
      </trkpt>
      <trkpt lat="48.47585" lon="2.71823">
        <ele>110</ele>
        <time>2017-05-17T09:44:04.638</time>
      </trkpt>
      <trkpt lat="48.4758" lon="2.71822">
        <ele>111</ele>
        <time>2017-05-17T09:44:05.639</time>
      </trkpt>
      <trkpt lat="48.47575" lon="2.7182">
        <ele>111</ele>
        <time>2017-05-17T09:44:06.631</time>
      </trkpt>
      <trkpt lat="48.47572" lon="2.71818">
        <ele>112</ele>
        <time>2017-05-17T09:44:07.636</time>
      </trkpt>
      <trkpt lat="48.47568" lon="2.71817">
        <ele>112</ele>
        <time>2017-05-17T09:44:08.639</time>
      </trkpt>
      <trkpt lat="48.47565" lon="2.71815">
        <ele>112</ele>
        <time>2017-05-17T09:44:09.639</time>
      </trkpt>
      <trkpt lat="48.47562" lon="2.71813">
        <ele>111</ele>
        <time>2017-05-17T09:44:10.637</time>
      </trkpt>
      <trkpt lat="48.4756" lon="2.71813">
        <ele>111</ele>
        <time>2017-05-17T09:44:11.655</time>
      </trkpt>
      <trkpt lat="48.4756" lon="2.71812">
        <ele>112</ele>
        <time>2017-05-17T09:44:12.638</time>
      </trkpt>
      <trkpt lat="48.47559" lon="2.71812">
        <ele>112</ele>
        <time>2017-05-17T09:44:13.639</time>
      </trkpt>
      <trkpt lat="48.47558" lon="2.71808">
        <ele>113</ele>
        <time>2017-05-17T09:44:14.640</time>
      </trkpt>
      <trkpt lat="48.47555" lon="2.71805">
        <ele>114</ele>
        <time>2017-05-17T09:44:15.638</time>
      </trkpt>
      <trkpt lat="48.47553" lon="2.71801">
        <ele>114</ele>
        <time>2017-05-17T09:44:16.639</time>
      </trkpt>
      <trkpt lat="48.4755" lon="2.71796">
        <ele>114</ele>
        <time>2017-05-17T09:44:17.639</time>
      </trkpt>
      <trkpt lat="48.47548" lon="2.71791">
        <ele>115</ele>
        <time>2017-05-17T09:44:18.635</time>
      </trkpt>
      <trkpt lat="48.47545" lon="2.71791">
        <ele>115</ele>
        <time>2017-05-17T09:44:19.641</time>
      </trkpt>
      <trkpt lat="48.47541" lon="2.71791">
        <ele>114</ele>
        <time>2017-05-17T09:44:20.638</time>
      </trkpt>
      <trkpt lat="48.47537" lon="2.71791">
        <ele>114</ele>
        <time>2017-05-17T09:44:21.639</time>
      </trkpt>
      <trkpt lat="48.47534" lon="2.71792">
        <ele>114</ele>
        <time>2017-05-17T09:44:22.638</time>
      </trkpt>
      <trkpt lat="48.47531" lon="2.71794">
        <ele>113</ele>
        <time>2017-05-17T09:44:23.639</time>
      </trkpt>
      <trkpt lat="48.47527" lon="2.71797">
        <ele>112</ele>
        <time>2017-05-17T09:44:24.639</time>
      </trkpt>
      <trkpt lat="48.47523" lon="2.71798">
        <ele>112</ele>
        <time>2017-05-17T09:44:25.639</time>
      </trkpt>
      <trkpt lat="48.4752" lon="2.71796">
        <ele>112</ele>
        <time>2017-05-17T09:44:26.639</time>
      </trkpt>
      <trkpt lat="48.47519" lon="2.71795">
        <ele>111</ele>
        <time>2017-05-17T09:44:27.637</time>
      </trkpt>
      <trkpt lat="48.47518" lon="2.71793">
        <ele>111</ele>
        <time>2017-05-17T09:44:28.641</time>
      </trkpt>
      <trkpt lat="48.47515" lon="2.71791">
        <ele>111</ele>
        <time>2017-05-17T09:44:29.644</time>
      </trkpt>
      <trkpt lat="48.47512" lon="2.7179">
        <ele>111</ele>
        <time>2017-05-17T09:44:30.640</time>
      </trkpt>
      <trkpt lat="48.47509" lon="2.7179">
        <ele>112</ele>
        <time>2017-05-17T09:44:31.639</time>
      </trkpt>
      <trkpt lat="48.47507" lon="2.71788">
        <ele>113</ele>
        <time>2017-05-17T09:44:32.637</time>
      </trkpt>
      <trkpt lat="48.47504" lon="2.71788">
        <ele>112</ele>
        <time>2017-05-17T09:44:33.637</time>
      </trkpt>
      <trkpt lat="48.47501" lon="2.71786">
        <ele>112</ele>
        <time>2017-05-17T09:44:34.640</time>
      </trkpt>
      <trkpt lat="48.47498" lon="2.71783">
        <ele>113</ele>
        <time>2017-05-17T09:44:35.638</time>
      </trkpt>
      <trkpt lat="48.47494" lon="2.71782">
        <ele>112</ele>
        <time>2017-05-17T09:44:36.637</time>
      </trkpt>
      <trkpt lat="48.47489" lon="2.71781">
        <ele>113</ele>
        <time>2017-05-17T09:44:37.638</time>
      </trkpt>
      <trkpt lat="48.47485" lon="2.7178">
        <ele>113</ele>
        <time>2017-05-17T09:44:38.639</time>
      </trkpt>
      <trkpt lat="48.47482" lon="2.7178">
        <ele>112</ele>
        <time>2017-05-17T09:44:39.642</time>
      </trkpt>
      <trkpt lat="48.47478" lon="2.71779">
        <ele>112</ele>
        <time>2017-05-17T09:44:40.639</time>
      </trkpt>
      <trkpt lat="48.47474" lon="2.7178">
        <ele>111</ele>
        <time>2017-05-17T09:44:41.639</time>
      </trkpt>
      <trkpt lat="48.4747" lon="2.71781">
        <ele>111</ele>
        <time>2017-05-17T09:44:42.639</time>
      </trkpt>
      <trkpt lat="48.47467" lon="2.71781">
        <ele>111</ele>
        <time>2017-05-17T09:44:43.638</time>
      </trkpt>
      <trkpt lat="48.47463" lon="2.71781">
        <ele>111</ele>
        <time>2017-05-17T09:44:44.641</time>
      </trkpt>
      <trkpt lat="48.47459" lon="2.71781">
        <ele>111</ele>
        <time>2017-05-17T09:44:45.638</time>
      </trkpt>
      <trkpt lat="48.47454" lon="2.71781">
        <ele>112</ele>
        <time>2017-05-17T09:44:46.638</time>
      </trkpt>
      <trkpt lat="48.4745" lon="2.71781">
        <ele>112</ele>
        <time>2017-05-17T09:44:47.639</time>
      </trkpt>
      <trkpt lat="48.47445" lon="2.71782">
        <ele>113</ele>
        <time>2017-05-17T09:44:48.639</time>
      </trkpt>
      <trkpt lat="48.47441" lon="2.71783">
        <ele>114</ele>
        <time>2017-05-17T09:44:49.641</time>
      </trkpt>
      <trkpt lat="48.47438" lon="2.71783">
        <ele>113</ele>
        <time>2017-05-17T09:44:50.639</time>
      </trkpt>
      <trkpt lat="48.47434" lon="2.71782">
        <ele>113</ele>
        <time>2017-05-17T09:44:51.638</time>
      </trkpt>
      <trkpt lat="48.47431" lon="2.71781">
        <ele>114</ele>
        <time>2017-05-17T09:44:52.640</time>
      </trkpt>
      <trkpt lat="48.47427" lon="2.71781">
        <ele>114</ele>
        <time>2017-05-17T09:44:53.636</time>
      </trkpt>
      <trkpt lat="48.47423" lon="2.71781">
        <ele>115</ele>
        <time>2017-05-17T09:44:54.637</time>
      </trkpt>
      <trkpt lat="48.47418" lon="2.71781">
        <ele>115</ele>
        <time>2017-05-17T09:44:55.637</time>
      </trkpt>
      <trkpt lat="48.47413" lon="2.71782">
        <ele>116</ele>
        <time>2017-05-17T09:44:56.638</time>
      </trkpt>
      <trkpt lat="48.47409" lon="2.71784">
        <ele>117</ele>
        <time>2017-05-17T09:44:57.638</time>
      </trkpt>
      <trkpt lat="48.47406" lon="2.71785">
        <ele>118</ele>
        <time>2017-05-17T09:44:58.641</time>
      </trkpt>
      <trkpt lat="48.47404" lon="2.71783">
        <ele>118</ele>
        <time>2017-05-17T09:44:59.644</time>
      </trkpt>
      <trkpt lat="48.474" lon="2.71781">
        <ele>118</ele>
        <time>2017-05-17T09:45:00.638</time>
      </trkpt>
      <trkpt lat="48.47398" lon="2.7178">
        <ele>118</ele>
        <time>2017-05-17T09:45:01.637</time>
      </trkpt>
      <trkpt lat="48.47394" lon="2.71781">
        <ele>118</ele>
        <time>2017-05-17T09:45:02.637</time>
      </trkpt>
      <trkpt lat="48.47391" lon="2.71784">
        <ele>118</ele>
        <time>2017-05-17T09:45:03.639</time>
      </trkpt>
      <trkpt lat="48.47385" lon="2.71784">
        <ele>118</ele>
        <time>2017-05-17T09:45:04.640</time>
      </trkpt>
      <trkpt lat="48.4738" lon="2.71786">
        <ele>117</ele>
        <time>2017-05-17T09:45:05.638</time>
      </trkpt>
      <trkpt lat="48.47377" lon="2.71786">
        <ele>116</ele>
        <time>2017-05-17T09:45:06.639</time>
      </trkpt>
      <trkpt lat="48.47375" lon="2.71786">
        <ele>116</ele>
        <time>2017-05-17T09:45:07.639</time>
      </trkpt>
      <trkpt lat="48.47371" lon="2.71784">
        <ele>116</ele>
        <time>2017-05-17T09:45:08.640</time>
      </trkpt>
      <trkpt lat="48.47367" lon="2.71785">
        <ele>116</ele>
        <time>2017-05-17T09:45:09.658</time>
      </trkpt>
      <trkpt lat="48.47364" lon="2.71785">
        <ele>117</ele>
        <time>2017-05-17T09:45:10.641</time>
      </trkpt>
      <trkpt lat="48.4736" lon="2.71784">
        <ele>117</ele>
        <time>2017-05-17T09:45:11.636</time>
      </trkpt>
      <trkpt lat="48.47356" lon="2.71785">
        <ele>117</ele>
        <time>2017-05-17T09:45:12.637</time>
      </trkpt>
      <trkpt lat="48.47352" lon="2.71786">
        <ele>118</ele>
        <time>2017-05-17T09:45:13.648</time>
      </trkpt>
      <trkpt lat="48.47348" lon="2.71786">
        <ele>118</ele>
        <time>2017-05-17T09:45:14.643</time>
      </trkpt>
      <trkpt lat="48.47345" lon="2.71785">
        <ele>118</ele>
        <time>2017-05-17T09:45:15.639</time>
      </trkpt>
      <trkpt lat="48.47342" lon="2.71783">
        <ele>118</ele>
        <time>2017-05-17T09:45:16.637</time>
      </trkpt>
      <trkpt lat="48.47337" lon="2.71783">
        <ele>118</ele>
        <time>2017-05-17T09:45:17.636</time>
      </trkpt>
      <trkpt lat="48.47332" lon="2.71782">
        <ele>119</ele>
        <time>2017-05-17T09:45:18.640</time>
      </trkpt>
      <trkpt lat="48.47328" lon="2.7178">
        <ele>120</ele>
        <time>2017-05-17T09:45:19.643</time>
      </trkpt>
      <trkpt lat="48.47324" lon="2.71779">
        <ele>120</ele>
        <time>2017-05-17T09:45:20.638</time>
      </trkpt>
      <trkpt lat="48.47318" lon="2.7178">
        <ele>121</ele>
        <time>2017-05-17T09:45:21.639</time>
      </trkpt>
      <trkpt lat="48.47313" lon="2.7178">
        <ele>120</ele>
        <time>2017-05-17T09:45:22.638</time>
      </trkpt>
      <trkpt lat="48.47309" lon="2.71781">
        <ele>120</ele>
        <time>2017-05-17T09:45:23.639</time>
      </trkpt>
      <trkpt lat="48.47304" lon="2.71779">
        <ele>120</ele>
        <time>2017-05-17T09:45:24.639</time>
      </trkpt>
      <trkpt lat="48.473" lon="2.7178">
        <ele>120</ele>
        <time>2017-05-17T09:45:25.638</time>
      </trkpt>
      <trkpt lat="48.47295" lon="2.7178">
        <ele>121</ele>
        <time>2017-05-17T09:45:26.638</time>
      </trkpt>
      <trkpt lat="48.47292" lon="2.7178">
        <ele>121</ele>
        <time>2017-05-17T09:45:27.639</time>
      </trkpt>
      <trkpt lat="48.47288" lon="2.71779">
        <ele>120</ele>
        <time>2017-05-17T09:45:28.640</time>
      </trkpt>
      <trkpt lat="48.47284" lon="2.71779">
        <ele>120</ele>
        <time>2017-05-17T09:45:29.642</time>
      </trkpt>
      <trkpt lat="48.47279" lon="2.71779">
        <ele>120</ele>
        <time>2017-05-17T09:45:30.639</time>
      </trkpt>
      <trkpt lat="48.47276" lon="2.7178">
        <ele>120</ele>
        <time>2017-05-17T09:45:31.639</time>
      </trkpt>
      <trkpt lat="48.47272" lon="2.71778">
        <ele>120</ele>
        <time>2017-05-17T09:45:32.638</time>
      </trkpt>
      <trkpt lat="48.47269" lon="2.71777">
        <ele>120</ele>
        <time>2017-05-17T09:45:33.638</time>
      </trkpt>
      <trkpt lat="48.47265" lon="2.71778">
        <ele>120</ele>
        <time>2017-05-17T09:45:34.640</time>
      </trkpt>
      <trkpt lat="48.47262" lon="2.71777">
        <ele>120</ele>
        <time>2017-05-17T09:45:35.638</time>
      </trkpt>
      <trkpt lat="48.47259" lon="2.71776">
        <ele>120</ele>
        <time>2017-05-17T09:45:36.638</time>
      </trkpt>
      <trkpt lat="48.47255" lon="2.71775">
        <ele>120</ele>
        <time>2017-05-17T09:45:37.638</time>
      </trkpt>
      <trkpt lat="48.47253" lon="2.71773">
        <ele>120</ele>
        <time>2017-05-17T09:45:38.641</time>
      </trkpt>
      <trkpt lat="48.4725" lon="2.71771">
        <ele>121</ele>
        <time>2017-05-17T09:45:39.641</time>
      </trkpt>
      <trkpt lat="48.47246" lon="2.7177">
        <ele>122</ele>
        <time>2017-05-17T09:45:40.640</time>
      </trkpt>
      <trkpt lat="48.47243" lon="2.71771">
        <ele>121</ele>
        <time>2017-05-17T09:45:41.638</time>
      </trkpt>
      <trkpt lat="48.4724" lon="2.71769">
        <ele>121</ele>
        <time>2017-05-17T09:45:42.638</time>
      </trkpt>
      <trkpt lat="48.47236" lon="2.71767">
        <ele>123</ele>
        <time>2017-05-17T09:45:43.638</time>
      </trkpt>
      <trkpt lat="48.47232" lon="2.71765">
        <ele>124</ele>
        <time>2017-05-17T09:45:44.640</time>
      </trkpt>
      <trkpt lat="48.47228" lon="2.71763">
        <ele>123</ele>
        <time>2017-05-17T09:45:45.639</time>
      </trkpt>
      <trkpt lat="48.47224" lon="2.71762">
        <ele>122</ele>
        <time>2017-05-17T09:45:46.637</time>
      </trkpt>
      <trkpt lat="48.4722" lon="2.71762">
        <ele>121</ele>
        <time>2017-05-17T09:45:47.637</time>
      </trkpt>
      <trkpt lat="48.47215" lon="2.71759">
        <ele>121</ele>
        <time>2017-05-17T09:45:48.642</time>
      </trkpt>
      <trkpt lat="48.47211" lon="2.71758">
        <ele>122</ele>
        <time>2017-05-17T09:45:49.642</time>
      </trkpt>
      <trkpt lat="48.47208" lon="2.71756">
        <ele>121</ele>
        <time>2017-05-17T09:45:50.638</time>
      </trkpt>
      <trkpt lat="48.47205" lon="2.71754">
        <ele>122</ele>
        <time>2017-05-17T09:45:51.640</time>
      </trkpt>
      <trkpt lat="48.472" lon="2.71754">
        <ele>122</ele>
        <time>2017-05-17T09:45:52.638</time>
      </trkpt>
      <trkpt lat="48.47197" lon="2.71752">
        <ele>122</ele>
        <time>2017-05-17T09:45:53.638</time>
      </trkpt>
      <trkpt lat="48.47193" lon="2.71751">
        <ele>122</ele>
        <time>2017-05-17T09:45:54.640</time>
      </trkpt>
      <trkpt lat="48.47189" lon="2.7175">
        <ele>123</ele>
        <time>2017-05-17T09:45:55.638</time>
      </trkpt>
      <trkpt lat="48.47186" lon="2.71748">
        <ele>123</ele>
        <time>2017-05-17T09:45:56.639</time>
      </trkpt>
      <trkpt lat="48.47182" lon="2.71745">
        <ele>123</ele>
        <time>2017-05-17T09:45:57.640</time>
      </trkpt>
      <trkpt lat="48.47178" lon="2.71744">
        <ele>124</ele>
        <time>2017-05-17T09:45:58.642</time>
      </trkpt>
      <trkpt lat="48.47176" lon="2.71741">
        <ele>124</ele>
        <time>2017-05-17T09:45:59.642</time>
      </trkpt>
      <trkpt lat="48.47172" lon="2.7174">
        <ele>124</ele>
        <time>2017-05-17T09:46:00.639</time>
      </trkpt>
      <trkpt lat="48.47172" lon="2.7174">
        <ele>124</ele>
        <time>2017-05-17T09:46:01.640</time>
      </trkpt>
      <trkpt lat="48.47172" lon="2.71741">
        <ele>124</ele>
        <time>2017-05-17T09:46:02.638</time>
      </trkpt>
      <trkpt lat="48.47171" lon="2.71741">
        <ele>125</ele>
        <time>2017-05-17T09:46:03.636</time>
      </trkpt>
      <trkpt lat="48.47171" lon="2.71741">
        <ele>126</ele>
        <time>2017-05-17T09:46:04.635</time>
      </trkpt>
      <trkpt lat="48.47171" lon="2.71741">
        <ele>126</ele>
        <time>2017-05-17T09:46:05.635</time>
      </trkpt>
      <trkpt lat="48.47173" lon="2.71739">
        <ele>126</ele>
        <time>2017-05-17T09:46:06.636</time>
      </trkpt>
      <trkpt lat="48.47174" lon="2.71737">
        <ele>126</ele>
        <time>2017-05-17T09:46:07.635</time>
      </trkpt>
      <trkpt lat="48.47175" lon="2.71736">
        <ele>126</ele>
        <time>2017-05-17T09:46:08.637</time>
      </trkpt>
      <trkpt lat="48.47175" lon="2.71735">
        <ele>126</ele>
        <time>2017-05-17T09:46:09.639</time>
      </trkpt>
      <trkpt lat="48.47176" lon="2.71734">
        <ele>126</ele>
        <time>2017-05-17T09:46:10.634</time>
      </trkpt>
      <trkpt lat="48.47176" lon="2.71734">
        <ele>126</ele>
        <time>2017-05-17T09:46:11.634</time>
      </trkpt>
      <trkpt lat="48.47176" lon="2.71734">
        <ele>126</ele>
        <time>2017-05-17T09:46:12.635</time>
      </trkpt>
      <trkpt lat="48.47176" lon="2.71734">
        <ele>126</ele>
        <time>2017-05-17T09:46:13.634</time>
      </trkpt>
      <trkpt lat="48.47176" lon="2.71734">
        <ele>125</ele>
        <time>2017-05-17T09:46:14.638</time>
      </trkpt>
      <trkpt lat="48.47176" lon="2.71734">
        <ele>125</ele>
        <time>2017-05-17T09:46:15.638</time>
      </trkpt>
      <trkpt lat="48.47175" lon="2.71732">
        <ele>124</ele>
        <time>2017-05-17T09:46:16.636</time>
      </trkpt>
      <trkpt lat="48.47174" lon="2.71732">
        <ele>125</ele>
        <time>2017-05-17T09:46:17.638</time>
      </trkpt>
      <trkpt lat="48.47173" lon="2.7173">
        <ele>125</ele>
        <time>2017-05-17T09:46:18.652</time>
      </trkpt>
      <trkpt lat="48.47173" lon="2.71728">
        <ele>126</ele>
        <time>2017-05-17T09:46:19.652</time>
      </trkpt>
      <trkpt lat="48.47172" lon="2.71726">
        <ele>126</ele>
        <time>2017-05-17T09:46:20.638</time>
      </trkpt>
      <trkpt lat="48.47171" lon="2.71723">
        <ele>127</ele>
        <time>2017-05-17T09:46:21.638</time>
      </trkpt>
      <trkpt lat="48.4717" lon="2.7172">
        <ele>127</ele>
        <time>2017-05-17T09:46:22.641</time>
      </trkpt>
      <trkpt lat="48.4717" lon="2.71715">
        <ele>128</ele>
        <time>2017-05-17T09:46:23.640</time>
      </trkpt>
      <trkpt lat="48.47169" lon="2.71711">
        <ele>127</ele>
        <time>2017-05-17T09:46:24.641</time>
      </trkpt>
      <trkpt lat="48.4717" lon="2.71707">
        <ele>126</ele>
        <time>2017-05-17T09:46:25.638</time>
      </trkpt>
      <trkpt lat="48.47169" lon="2.71702">
        <ele>126</ele>
        <time>2017-05-17T09:46:26.639</time>
      </trkpt>
      <trkpt lat="48.47168" lon="2.71699">
        <ele>124</ele>
        <time>2017-05-17T09:46:27.638</time>
      </trkpt>
      <trkpt lat="48.47167" lon="2.71694">
        <ele>123</ele>
        <time>2017-05-17T09:46:28.639</time>
      </trkpt>
      <trkpt lat="48.47167" lon="2.71689">
        <ele>123</ele>
        <time>2017-05-17T09:46:29.642</time>
      </trkpt>
      <trkpt lat="48.47167" lon="2.71684">
        <ele>123</ele>
        <time>2017-05-17T09:46:30.638</time>
      </trkpt>
      <trkpt lat="48.47166" lon="2.71679">
        <ele>123</ele>
        <time>2017-05-17T09:46:31.637</time>
      </trkpt>
      <trkpt lat="48.47164" lon="2.71674">
        <ele>124</ele>
        <time>2017-05-17T09:46:32.637</time>
      </trkpt>
      <trkpt lat="48.47165" lon="2.71669">
        <ele>123</ele>
        <time>2017-05-17T09:46:33.638</time>
      </trkpt>
      <trkpt lat="48.47165" lon="2.71662">
        <ele>124</ele>
        <time>2017-05-17T09:46:34.641</time>
      </trkpt>
      <trkpt lat="48.47164" lon="2.71657">
        <ele>125</ele>
        <time>2017-05-17T09:46:35.641</time>
      </trkpt>
      <trkpt lat="48.47163" lon="2.71652">
        <ele>125</ele>
        <time>2017-05-17T09:46:36.639</time>
      </trkpt>
      <trkpt lat="48.47162" lon="2.71646">
        <ele>125</ele>
        <time>2017-05-17T09:46:37.640</time>
      </trkpt>
      <trkpt lat="48.4716" lon="2.71641">
        <ele>125</ele>
        <time>2017-05-17T09:46:38.644</time>
      </trkpt>
      <trkpt lat="48.47158" lon="2.71637">
        <ele>126</ele>
        <time>2017-05-17T09:46:39.643</time>
      </trkpt>
      <trkpt lat="48.47157" lon="2.71631">
        <ele>127</ele>
        <time>2017-05-17T09:46:40.637</time>
      </trkpt>
      <trkpt lat="48.47156" lon="2.71628">
        <ele>127</ele>
        <time>2017-05-17T09:46:41.638</time>
      </trkpt>
      <trkpt lat="48.47154" lon="2.71628">
        <ele>128</ele>
        <time>2017-05-17T09:46:42.632</time>
      </trkpt>
      <trkpt lat="48.47152" lon="2.71626">
        <ele>128</ele>
        <time>2017-05-17T09:46:43.639</time>
      </trkpt>
      <trkpt lat="48.4715" lon="2.71625">
        <ele>129</ele>
        <time>2017-05-17T09:46:44.640</time>
      </trkpt>
      <trkpt lat="48.47147" lon="2.71622">
        <ele>129</ele>
        <time>2017-05-17T09:46:45.638</time>
      </trkpt>
      <trkpt lat="48.47143" lon="2.71619">
        <ele>129</ele>
        <time>2017-05-17T09:46:46.638</time>
      </trkpt>
      <trkpt lat="48.47142" lon="2.71615">
        <ele>129</ele>
        <time>2017-05-17T09:46:47.638</time>
      </trkpt>
      <trkpt lat="48.47139" lon="2.71614">
        <ele>128</ele>
        <time>2017-05-17T09:46:48.641</time>
      </trkpt>
      <trkpt lat="48.47136" lon="2.71611">
        <ele>128</ele>
        <time>2017-05-17T09:46:49.643</time>
      </trkpt>
      <trkpt lat="48.47137" lon="2.71608">
        <ele>126</ele>
        <time>2017-05-17T09:46:50.638</time>
      </trkpt>
      <trkpt lat="48.47136" lon="2.71604">
        <ele>125</ele>
        <time>2017-05-17T09:46:51.636</time>
      </trkpt>
      <trkpt lat="48.47134" lon="2.71601">
        <ele>126</ele>
        <time>2017-05-17T09:46:52.638</time>
      </trkpt>
      <trkpt lat="48.47134" lon="2.71597">
        <ele>125</ele>
        <time>2017-05-17T09:46:53.639</time>
      </trkpt>
      <trkpt lat="48.47133" lon="2.71593">
        <ele>125</ele>
        <time>2017-05-17T09:46:54.641</time>
      </trkpt>
      <trkpt lat="48.47134" lon="2.71586">
        <ele>124</ele>
        <time>2017-05-17T09:46:55.638</time>
      </trkpt>
      <trkpt lat="48.47133" lon="2.71579">
        <ele>123</ele>
        <time>2017-05-17T09:46:56.639</time>
      </trkpt>
      <trkpt lat="48.47133" lon="2.71573">
        <ele>123</ele>
        <time>2017-05-17T09:46:57.637</time>
      </trkpt>
      <trkpt lat="48.47132" lon="2.71568">
        <ele>123</ele>
        <time>2017-05-17T09:46:58.639</time>
      </trkpt>
      <trkpt lat="48.4713" lon="2.7156">
        <ele>123</ele>
        <time>2017-05-17T09:46:59.641</time>
      </trkpt>
      <trkpt lat="48.47129" lon="2.71556">
        <ele>123</ele>
        <time>2017-05-17T09:47:00.637</time>
      </trkpt>
      <trkpt lat="48.47128" lon="2.71551">
        <ele>124</ele>
        <time>2017-05-17T09:47:01.638</time>
      </trkpt>
      <trkpt lat="48.47128" lon="2.71546">
        <ele>124</ele>
        <time>2017-05-17T09:47:02.639</time>
      </trkpt>
      <trkpt lat="48.47128" lon="2.7154">
        <ele>123</ele>
        <time>2017-05-17T09:47:03.638</time>
      </trkpt>
      <trkpt lat="48.47126" lon="2.71534">
        <ele>124</ele>
        <time>2017-05-17T09:47:04.639</time>
      </trkpt>
      <trkpt lat="48.47121" lon="2.71528">
        <ele>125</ele>
        <time>2017-05-17T09:47:05.639</time>
      </trkpt>
      <trkpt lat="48.47121" lon="2.71523">
        <ele>124</ele>
        <time>2017-05-17T09:47:06.639</time>
      </trkpt>
      <trkpt lat="48.4712" lon="2.71513">
        <ele>128</ele>
        <time>2017-05-17T09:47:07.639</time>
      </trkpt>
      <trkpt lat="48.47119" lon="2.71508">
        <ele>129</ele>
        <time>2017-05-17T09:47:08.638</time>
      </trkpt>
      <trkpt lat="48.47117" lon="2.71504">
        <ele>128</ele>
        <time>2017-05-17T09:47:09.641</time>
      </trkpt>
      <trkpt lat="48.47115" lon="2.71499">
        <ele>128</ele>
        <time>2017-05-17T09:47:10.637</time>
      </trkpt>
      <trkpt lat="48.47114" lon="2.71495">
        <ele>128</ele>
        <time>2017-05-17T09:47:11.638</time>
      </trkpt>
      <trkpt lat="48.47112" lon="2.7149">
        <ele>129</ele>
        <time>2017-05-17T09:47:12.637</time>
      </trkpt>
      <trkpt lat="48.47111" lon="2.71487">
        <ele>129</ele>
        <time>2017-05-17T09:47:13.637</time>
      </trkpt>
      <trkpt lat="48.47111" lon="2.71483">
        <ele>128</ele>
        <time>2017-05-17T09:47:14.640</time>
      </trkpt>
      <trkpt lat="48.47111" lon="2.71476">
        <ele>127</ele>
        <time>2017-05-17T09:47:15.639</time>
      </trkpt>
      <trkpt lat="48.47111" lon="2.71471">
        <ele>127</ele>
        <time>2017-05-17T09:47:16.638</time>
      </trkpt>
      <trkpt lat="48.47108" lon="2.71467">
        <ele>127</ele>
        <time>2017-05-17T09:47:17.638</time>
      </trkpt>
      <trkpt lat="48.47105" lon="2.71461">
        <ele>133</ele>
        <time>2017-05-17T09:47:18.642</time>
      </trkpt>
      <trkpt lat="48.47104" lon="2.71458">
        <ele>133</ele>
        <time>2017-05-17T09:47:19.643</time>
      </trkpt>
      <trkpt lat="48.47104" lon="2.71454">
        <ele>132</ele>
        <time>2017-05-17T09:47:20.638</time>
      </trkpt>
      <trkpt lat="48.47104" lon="2.71449">
        <ele>132</ele>
        <time>2017-05-17T09:47:21.639</time>
      </trkpt>
      <trkpt lat="48.47106" lon="2.71446">
        <ele>132</ele>
        <time>2017-05-17T09:47:22.637</time>
      </trkpt>
      <trkpt lat="48.47107" lon="2.71441">
        <ele>132</ele>
        <time>2017-05-17T09:47:23.637</time>
      </trkpt>
      <trkpt lat="48.47106" lon="2.71437">
        <ele>132</ele>
        <time>2017-05-17T09:47:24.640</time>
      </trkpt>
      <trkpt lat="48.47105" lon="2.71434">
        <ele>130</ele>
        <time>2017-05-17T09:47:25.638</time>
      </trkpt>
      <trkpt lat="48.47105" lon="2.71428">
        <ele>129</ele>
        <time>2017-05-17T09:47:26.636</time>
      </trkpt>
      <trkpt lat="48.47105" lon="2.71425">
        <ele>129</ele>
        <time>2017-05-17T09:47:27.637</time>
      </trkpt>
      <trkpt lat="48.47105" lon="2.71421">
        <ele>128</ele>
        <time>2017-05-17T09:47:28.640</time>
      </trkpt>
      <trkpt lat="48.47103" lon="2.71418">
        <ele>128</ele>
        <time>2017-05-17T09:47:29.641</time>
      </trkpt>
      <trkpt lat="48.47103" lon="2.71414">
        <ele>128</ele>
        <time>2017-05-17T09:47:30.636</time>
      </trkpt>
      <trkpt lat="48.47102" lon="2.7141">
        <ele>127</ele>
        <time>2017-05-17T09:47:31.638</time>
      </trkpt>
      <trkpt lat="48.471" lon="2.71407">
        <ele>127</ele>
        <time>2017-05-17T09:47:32.639</time>
      </trkpt>
      <trkpt lat="48.47098" lon="2.71403">
        <ele>127</ele>
        <time>2017-05-17T09:47:33.638</time>
      </trkpt>
      <trkpt lat="48.47097" lon="2.71398">
        <ele>127</ele>
        <time>2017-05-17T09:47:34.639</time>
      </trkpt>
      <trkpt lat="48.47096" lon="2.71394">
        <ele>127</ele>
        <time>2017-05-17T09:47:35.637</time>
      </trkpt>
      <trkpt lat="48.47095" lon="2.71389">
        <ele>127</ele>
        <time>2017-05-17T09:47:36.638</time>
      </trkpt>
      <trkpt lat="48.47093" lon="2.71385">
        <ele>127</ele>
        <time>2017-05-17T09:47:37.637</time>
      </trkpt>
      <trkpt lat="48.47091" lon="2.71381">
        <ele>127</ele>
        <time>2017-05-17T09:47:38.639</time>
      </trkpt>
      <trkpt lat="48.4709" lon="2.71378">
        <ele>127</ele>
        <time>2017-05-17T09:47:39.641</time>
      </trkpt>
      <trkpt lat="48.47089" lon="2.71374">
        <ele>128</ele>
        <time>2017-05-17T09:47:40.638</time>
      </trkpt>
      <trkpt lat="48.47088" lon="2.71369">
        <ele>129</ele>
        <time>2017-05-17T09:47:41.639</time>
      </trkpt>
      <trkpt lat="48.47086" lon="2.71366">
        <ele>129</ele>
        <time>2017-05-17T09:47:42.639</time>
      </trkpt>
      <trkpt lat="48.47084" lon="2.71363">
        <ele>129</ele>
        <time>2017-05-17T09:47:43.640</time>
      </trkpt>
      <trkpt lat="48.47083" lon="2.71359">
        <ele>133</ele>
        <time>2017-05-17T09:47:44.639</time>
      </trkpt>
      <trkpt lat="48.47081" lon="2.71356">
        <ele>133</ele>
        <time>2017-05-17T09:47:45.637</time>
      </trkpt>
      <trkpt lat="48.47079" lon="2.71353">
        <ele>132</ele>
        <time>2017-05-17T09:47:46.637</time>
      </trkpt>
      <trkpt lat="48.47079" lon="2.7135">
        <ele>132</ele>
        <time>2017-05-17T09:47:47.638</time>
      </trkpt>
      <trkpt lat="48.47076" lon="2.71351">
        <ele>131</ele>
        <time>2017-05-17T09:47:48.642</time>
      </trkpt>
      <trkpt lat="48.47074" lon="2.71348">
        <ele>131</ele>
        <time>2017-05-17T09:47:49.642</time>
      </trkpt>
      <trkpt lat="48.47072" lon="2.71346">
        <ele>130</ele>
        <time>2017-05-17T09:47:50.637</time>
      </trkpt>
      <trkpt lat="48.47071" lon="2.71343">
        <ele>129</ele>
        <time>2017-05-17T09:47:51.638</time>
      </trkpt>
      <trkpt lat="48.4707" lon="2.71341">
        <ele>129</ele>
        <time>2017-05-17T09:47:52.638</time>
      </trkpt>
      <trkpt lat="48.47068" lon="2.7134">
        <ele>129</ele>
        <time>2017-05-17T09:47:53.637</time>
      </trkpt>
      <trkpt lat="48.47066" lon="2.71336">
        <ele>128</ele>
        <time>2017-05-17T09:47:54.639</time>
      </trkpt>
      <trkpt lat="48.47065" lon="2.71331">
        <ele>129</ele>
        <time>2017-05-17T09:47:55.640</time>
      </trkpt>
      <trkpt lat="48.47064" lon="2.71329">
        <ele>127</ele>
        <time>2017-05-17T09:47:56.640</time>
      </trkpt>
      <trkpt lat="48.47063" lon="2.71326">
        <ele>128</ele>
        <time>2017-05-17T09:47:57.638</time>
      </trkpt>
      <trkpt lat="48.47061" lon="2.71323">
        <ele>128</ele>
        <time>2017-05-17T09:47:58.641</time>
      </trkpt>
      <trkpt lat="48.4706" lon="2.7132">
        <ele>128</ele>
        <time>2017-05-17T09:47:59.642</time>
      </trkpt>
      <trkpt lat="48.47058" lon="2.71318">
        <ele>128</ele>
        <time>2017-05-17T09:48:00.638</time>
      </trkpt>
      <trkpt lat="48.47057" lon="2.71314">
        <ele>127</ele>
        <time>2017-05-17T09:48:01.639</time>
      </trkpt>
      <trkpt lat="48.47058" lon="2.7131">
        <ele>127</ele>
        <time>2017-05-17T09:48:02.641</time>
      </trkpt>
      <trkpt lat="48.47057" lon="2.71306">
        <ele>127</ele>
        <time>2017-05-17T09:48:03.631</time>
      </trkpt>
      <trkpt lat="48.47056" lon="2.71302">
        <ele>128</ele>
        <time>2017-05-17T09:48:04.639</time>
      </trkpt>
      <trkpt lat="48.47056" lon="2.713">
        <ele>127</ele>
        <time>2017-05-17T09:48:05.637</time>
      </trkpt>
      <trkpt lat="48.47056" lon="2.71297">
        <ele>126</ele>
        <time>2017-05-17T09:48:06.637</time>
      </trkpt>
      <trkpt lat="48.47055" lon="2.71293">
        <ele>125</ele>
        <time>2017-05-17T09:48:07.636</time>
      </trkpt>
      <trkpt lat="48.47055" lon="2.71289">
        <ele>124</ele>
        <time>2017-05-17T09:48:08.641</time>
      </trkpt>
      <trkpt lat="48.47056" lon="2.71285">
        <ele>125</ele>
        <time>2017-05-17T09:48:09.641</time>
      </trkpt>
      <trkpt lat="48.47058" lon="2.71281">
        <ele>124</ele>
        <time>2017-05-17T09:48:10.638</time>
      </trkpt>
      <trkpt lat="48.47057" lon="2.71276">
        <ele>124</ele>
        <time>2017-05-17T09:48:11.638</time>
      </trkpt>
      <trkpt lat="48.47057" lon="2.7127">
        <ele>125</ele>
        <time>2017-05-17T09:48:12.638</time>
      </trkpt>
      <trkpt lat="48.47055" lon="2.71266">
        <ele>126</ele>
        <time>2017-05-17T09:48:13.637</time>
      </trkpt>
      <trkpt lat="48.47053" lon="2.7126">
        <ele>129</ele>
        <time>2017-05-17T09:48:14.639</time>
      </trkpt>
      <trkpt lat="48.47052" lon="2.71256">
        <ele>129</ele>
        <time>2017-05-17T09:48:15.637</time>
      </trkpt>
      <trkpt lat="48.47052" lon="2.71251">
        <ele>129</ele>
        <time>2017-05-17T09:48:16.637</time>
      </trkpt>
      <trkpt lat="48.47051" lon="2.71247">
        <ele>129</ele>
        <time>2017-05-17T09:48:17.637</time>
      </trkpt>
      <trkpt lat="48.47051" lon="2.71245">
        <ele>128</ele>
        <time>2017-05-17T09:48:18.639</time>
      </trkpt>
      <trkpt lat="48.47048" lon="2.71242">
        <ele>131</ele>
        <time>2017-05-17T09:48:19.641</time>
      </trkpt>
      <trkpt lat="48.47049" lon="2.71237">
        <ele>132</ele>
        <time>2017-05-17T09:48:20.637</time>
      </trkpt>
      <trkpt lat="48.47049" lon="2.71232">
        <ele>132</ele>
        <time>2017-05-17T09:48:21.638</time>
      </trkpt>
      <trkpt lat="48.47047" lon="2.71229">
        <ele>133</ele>
        <time>2017-05-17T09:48:22.636</time>
      </trkpt>
      <trkpt lat="48.47045" lon="2.71226">
        <ele>133</ele>
        <time>2017-05-17T09:48:23.639</time>
      </trkpt>
      <trkpt lat="48.47044" lon="2.71222">
        <ele>133</ele>
        <time>2017-05-17T09:48:24.639</time>
      </trkpt>
      <trkpt lat="48.47042" lon="2.71215">
        <ele>136</ele>
        <time>2017-05-17T09:48:25.637</time>
      </trkpt>
      <trkpt lat="48.47041" lon="2.71211">
        <ele>135</ele>
        <time>2017-05-17T09:48:26.639</time>
      </trkpt>
      <trkpt lat="48.47038" lon="2.71208">
        <ele>135</ele>
        <time>2017-05-17T09:48:27.636</time>
      </trkpt>
      <trkpt lat="48.47038" lon="2.71202">
        <ele>135</ele>
        <time>2017-05-17T09:48:28.655</time>
      </trkpt>
      <trkpt lat="48.47038" lon="2.71198">
        <ele>134</ele>
        <time>2017-05-17T09:48:29.638</time>
      </trkpt>
      <trkpt lat="48.47037" lon="2.71191">
        <ele>134</ele>
        <time>2017-05-17T09:48:30.635</time>
      </trkpt>
      <trkpt lat="48.47037" lon="2.71186">
        <ele>134</ele>
        <time>2017-05-17T09:48:31.636</time>
      </trkpt>
      <trkpt lat="48.47037" lon="2.71182">
        <ele>132</ele>
        <time>2017-05-17T09:48:32.635</time>
      </trkpt>
      <trkpt lat="48.47037" lon="2.71178">
        <ele>133</ele>
        <time>2017-05-17T09:48:33.635</time>
      </trkpt>
      <trkpt lat="48.47036" lon="2.71171">
        <ele>133</ele>
        <time>2017-05-17T09:48:34.633</time>
      </trkpt>
      <trkpt lat="48.47037" lon="2.71165">
        <ele>133</ele>
        <time>2017-05-17T09:48:35.637</time>
      </trkpt>
      <trkpt lat="48.47039" lon="2.7116">
        <ele>132</ele>
        <time>2017-05-17T09:48:36.637</time>
      </trkpt>
      <trkpt lat="48.4704" lon="2.71155">
        <ele>132</ele>
        <time>2017-05-17T09:48:37.640</time>
      </trkpt>
      <trkpt lat="48.47041" lon="2.71151">
        <ele>132</ele>
        <time>2017-05-17T09:48:38.642</time>
      </trkpt>
      <trkpt lat="48.47041" lon="2.71147">
        <ele>132</ele>
        <time>2017-05-17T09:48:39.643</time>
      </trkpt>
      <trkpt lat="48.47041" lon="2.71143">
        <ele>132</ele>
        <time>2017-05-17T09:48:40.634</time>
      </trkpt>
      <trkpt lat="48.47042" lon="2.71138">
        <ele>132</ele>
        <time>2017-05-17T09:48:41.636</time>
      </trkpt>
      <trkpt lat="48.47044" lon="2.71133">
        <ele>133</ele>
        <time>2017-05-17T09:48:42.644</time>
      </trkpt>
      <trkpt lat="48.47046" lon="2.71128">
        <ele>132</ele>
        <time>2017-05-17T09:48:43.638</time>
      </trkpt>
      <trkpt lat="48.47047" lon="2.71122">
        <ele>132</ele>
        <time>2017-05-17T09:48:44.638</time>
      </trkpt>
      <trkpt lat="48.47047" lon="2.71115">
        <ele>132</ele>
        <time>2017-05-17T09:48:45.635</time>
      </trkpt>
      <trkpt lat="48.47048" lon="2.71109">
        <ele>132</ele>
        <time>2017-05-17T09:48:46.636</time>
      </trkpt>
      <trkpt lat="48.4705" lon="2.71103">
        <ele>132</ele>
        <time>2017-05-17T09:48:47.636</time>
      </trkpt>
      <trkpt lat="48.47051" lon="2.71095">
        <ele>133</ele>
        <time>2017-05-17T09:48:48.638</time>
      </trkpt>
      <trkpt lat="48.47052" lon="2.71089">
        <ele>132</ele>
        <time>2017-05-17T09:48:49.640</time>
      </trkpt>
      <trkpt lat="48.47053" lon="2.71083">
        <ele>132</ele>
        <time>2017-05-17T09:48:50.636</time>
      </trkpt>
      <trkpt lat="48.47054" lon="2.71076">
        <ele>132</ele>
        <time>2017-05-17T09:48:51.636</time>
      </trkpt>
      <trkpt lat="48.47055" lon="2.7107">
        <ele>132</ele>
        <time>2017-05-17T09:48:52.635</time>
      </trkpt>
      <trkpt lat="48.47055" lon="2.71064">
        <ele>133</ele>
        <time>2017-05-17T09:48:53.635</time>
      </trkpt>
      <trkpt lat="48.47054" lon="2.71058">
        <ele>133</ele>
        <time>2017-05-17T09:48:54.638</time>
      </trkpt>
      <trkpt lat="48.47056" lon="2.71053">
        <ele>133</ele>
        <time>2017-05-17T09:48:55.636</time>
      </trkpt>
      <trkpt lat="48.47058" lon="2.71047">
        <ele>131</ele>
        <time>2017-05-17T09:48:56.636</time>
      </trkpt>
      <trkpt lat="48.4706" lon="2.71042">
        <ele>130</ele>
        <time>2017-05-17T09:48:57.636</time>
      </trkpt>
      <trkpt lat="48.47061" lon="2.71036">
        <ele>131</ele>
        <time>2017-05-17T09:48:58.638</time>
      </trkpt>
      <trkpt lat="48.47062" lon="2.71031">
        <ele>130</ele>
        <time>2017-05-17T09:48:59.640</time>
      </trkpt>
      <trkpt lat="48.47064" lon="2.71027">
        <ele>130</ele>
        <time>2017-05-17T09:49:00.635</time>
      </trkpt>
      <trkpt lat="48.47065" lon="2.71022">
        <ele>130</ele>
        <time>2017-05-17T09:49:01.636</time>
      </trkpt>
      <trkpt lat="48.47066" lon="2.71017">
        <ele>130</ele>
        <time>2017-05-17T09:49:02.636</time>
      </trkpt>
      <trkpt lat="48.47066" lon="2.71013">
        <ele>130</ele>
        <time>2017-05-17T09:49:03.636</time>
      </trkpt>
      <trkpt lat="48.47066" lon="2.71007">
        <ele>130</ele>
        <time>2017-05-17T09:49:04.638</time>
      </trkpt>
      <trkpt lat="48.47067" lon="2.71002">
        <ele>129</ele>
        <time>2017-05-17T09:49:05.637</time>
      </trkpt>
      <trkpt lat="48.47067" lon="2.70996">
        <ele>128</ele>
        <time>2017-05-17T09:49:06.637</time>
      </trkpt>
      <trkpt lat="48.47068" lon="2.7099">
        <ele>129</ele>
        <time>2017-05-17T09:49:07.637</time>
      </trkpt>
      <trkpt lat="48.47069" lon="2.70983">
        <ele>128</ele>
        <time>2017-05-17T09:49:08.640</time>
      </trkpt>
      <trkpt lat="48.4707" lon="2.70976">
        <ele>128</ele>
        <time>2017-05-17T09:49:09.642</time>
      </trkpt>
      <trkpt lat="48.47071" lon="2.70969">
        <ele>128</ele>
        <time>2017-05-17T09:49:10.638</time>
      </trkpt>
      <trkpt lat="48.47072" lon="2.70963">
        <ele>128</ele>
        <time>2017-05-17T09:49:11.638</time>
      </trkpt>
      <trkpt lat="48.47073" lon="2.70957">
        <ele>128</ele>
        <time>2017-05-17T09:49:12.635</time>
      </trkpt>
      <trkpt lat="48.47075" lon="2.7095">
        <ele>128</ele>
        <time>2017-05-17T09:49:13.636</time>
      </trkpt>
      <trkpt lat="48.47076" lon="2.70943">
        <ele>128</ele>
        <time>2017-05-17T09:49:14.639</time>
      </trkpt>
      <trkpt lat="48.47078" lon="2.70937">
        <ele>128</ele>
        <time>2017-05-17T09:49:15.636</time>
      </trkpt>
      <trkpt lat="48.47079" lon="2.70931">
        <ele>128</ele>
        <time>2017-05-17T09:49:16.636</time>
      </trkpt>
      <trkpt lat="48.4708" lon="2.70925">
        <ele>128</ele>
        <time>2017-05-17T09:49:17.638</time>
      </trkpt>
      <trkpt lat="48.47082" lon="2.70919">
        <ele>128</ele>
        <time>2017-05-17T09:49:18.654</time>
      </trkpt>
      <trkpt lat="48.47082" lon="2.70912">
        <ele>128</ele>
        <time>2017-05-17T09:49:19.694</time>
      </trkpt>
      <trkpt lat="48.47083" lon="2.70905">
        <ele>128</ele>
        <time>2017-05-17T09:49:20.638</time>
      </trkpt>
      <trkpt lat="48.47084" lon="2.70898">
        <ele>128</ele>
        <time>2017-05-17T09:49:21.636</time>
      </trkpt>
      <trkpt lat="48.47084" lon="2.70891">
        <ele>128</ele>
        <time>2017-05-17T09:49:22.637</time>
      </trkpt>
      <trkpt lat="48.47084" lon="2.70885">
        <ele>128</ele>
        <time>2017-05-17T09:49:23.637</time>
      </trkpt>
      <trkpt lat="48.47084" lon="2.70878">
        <ele>128</ele>
        <time>2017-05-17T09:49:24.638</time>
      </trkpt>
      <trkpt lat="48.47084" lon="2.70871">
        <ele>128</ele>
        <time>2017-05-17T09:49:25.638</time>
      </trkpt>
      <trkpt lat="48.47084" lon="2.70865">
        <ele>128</ele>
        <time>2017-05-17T09:49:26.638</time>
      </trkpt>
      <trkpt lat="48.47083" lon="2.70861">
        <ele>128</ele>
        <time>2017-05-17T09:49:27.637</time>
      </trkpt>
      <trkpt lat="48.47082" lon="2.70858">
        <ele>128</ele>
        <time>2017-05-17T09:49:28.639</time>
      </trkpt>
      <trkpt lat="48.47081" lon="2.70856">
        <ele>129</ele>
        <time>2017-05-17T09:49:29.639</time>
      </trkpt>
      <trkpt lat="48.47079" lon="2.70855">
        <ele>129</ele>
        <time>2017-05-17T09:49:30.637</time>
      </trkpt>
      <trkpt lat="48.47076" lon="2.70855">
        <ele>128</ele>
        <time>2017-05-17T09:49:31.637</time>
      </trkpt>
      <trkpt lat="48.47073" lon="2.70857">
        <ele>128</ele>
        <time>2017-05-17T09:49:32.638</time>
      </trkpt>
      <trkpt lat="48.47071" lon="2.70859">
        <ele>128</ele>
        <time>2017-05-17T09:49:33.638</time>
      </trkpt>
      <trkpt lat="48.47067" lon="2.70862">
        <ele>128</ele>
        <time>2017-05-17T09:49:34.641</time>
      </trkpt>
      <trkpt lat="48.47064" lon="2.70865">
        <ele>128</ele>
        <time>2017-05-17T09:49:35.638</time>
      </trkpt>
      <trkpt lat="48.47061" lon="2.70868">
        <ele>128</ele>
        <time>2017-05-17T09:49:36.638</time>
      </trkpt>
      <trkpt lat="48.47057" lon="2.7087">
        <ele>129</ele>
        <time>2017-05-17T09:49:37.637</time>
      </trkpt>
      <trkpt lat="48.47053" lon="2.70873">
        <ele>129</ele>
        <time>2017-05-17T09:49:38.639</time>
      </trkpt>
      <trkpt lat="48.47049" lon="2.70876">
        <ele>129</ele>
        <time>2017-05-17T09:49:39.641</time>
      </trkpt>
      <trkpt lat="48.47044" lon="2.70879">
        <ele>129</ele>
        <time>2017-05-17T09:49:40.637</time>
      </trkpt>
      <trkpt lat="48.47039" lon="2.70882">
        <ele>129</ele>
        <time>2017-05-17T09:49:41.639</time>
      </trkpt>
      <trkpt lat="48.47034" lon="2.70886">
        <ele>129</ele>
        <time>2017-05-17T09:49:42.637</time>
      </trkpt>
      <trkpt lat="48.47029" lon="2.70889">
        <ele>130</ele>
        <time>2017-05-17T09:49:43.637</time>
      </trkpt>
      <trkpt lat="48.47024" lon="2.70892">
        <ele>131</ele>
        <time>2017-05-17T09:49:44.638</time>
      </trkpt>
      <trkpt lat="48.4702" lon="2.70894">
        <ele>131</ele>
        <time>2017-05-17T09:49:45.637</time>
      </trkpt>
      <trkpt lat="48.47015" lon="2.70896">
        <ele>131</ele>
        <time>2017-05-17T09:49:46.637</time>
      </trkpt>
      <trkpt lat="48.4701" lon="2.70897">
        <ele>132</ele>
        <time>2017-05-17T09:49:47.635</time>
      </trkpt>
      <trkpt lat="48.47006" lon="2.70899">
        <ele>132</ele>
        <time>2017-05-17T09:49:48.644</time>
      </trkpt>
      <trkpt lat="48.47001" lon="2.70901">
        <ele>132</ele>
        <time>2017-05-17T09:49:49.646</time>
      </trkpt>
      <trkpt lat="48.46997" lon="2.70902">
        <ele>132</ele>
        <time>2017-05-17T09:49:50.638</time>
      </trkpt>
      <trkpt lat="48.46992" lon="2.70902">
        <ele>132</ele>
        <time>2017-05-17T09:49:51.638</time>
      </trkpt>
      <trkpt lat="48.46989" lon="2.70901">
        <ele>132</ele>
        <time>2017-05-17T09:49:52.639</time>
      </trkpt>
      <trkpt lat="48.46984" lon="2.70901">
        <ele>132</ele>
        <time>2017-05-17T09:49:53.637</time>
      </trkpt>
      <trkpt lat="48.4698" lon="2.70899">
        <ele>132</ele>
        <time>2017-05-17T09:49:54.639</time>
      </trkpt>
      <trkpt lat="48.46976" lon="2.70898">
        <ele>132</ele>
        <time>2017-05-17T09:49:55.637</time>
      </trkpt>
      <trkpt lat="48.46972" lon="2.70895">
        <ele>132</ele>
        <time>2017-05-17T09:49:56.638</time>
      </trkpt>
      <trkpt lat="48.46968" lon="2.70893">
        <ele>132</ele>
        <time>2017-05-17T09:49:57.637</time>
      </trkpt>
      <trkpt lat="48.46965" lon="2.7089">
        <ele>133</ele>
        <time>2017-05-17T09:49:58.640</time>
      </trkpt>
      <trkpt lat="48.46962" lon="2.70887">
        <ele>133</ele>
        <time>2017-05-17T09:49:59.641</time>
      </trkpt>
      <trkpt lat="48.46958" lon="2.70885">
        <ele>133</ele>
        <time>2017-05-17T09:50:00.637</time>
      </trkpt>
      <trkpt lat="48.46955" lon="2.70883">
        <ele>133</ele>
        <time>2017-05-17T09:50:01.637</time>
      </trkpt>
      <trkpt lat="48.46952" lon="2.70881">
        <ele>133</ele>
        <time>2017-05-17T09:50:02.635</time>
      </trkpt>
      <trkpt lat="48.46949" lon="2.70878">
        <ele>133</ele>
        <time>2017-05-17T09:50:03.636</time>
      </trkpt>
      <trkpt lat="48.46946" lon="2.70875">
        <ele>133</ele>
        <time>2017-05-17T09:50:04.638</time>
      </trkpt>
      <trkpt lat="48.46943" lon="2.70872">
        <ele>133</ele>
        <time>2017-05-17T09:50:05.637</time>
      </trkpt>
      <trkpt lat="48.4694" lon="2.70869">
        <ele>133</ele>
        <time>2017-05-17T09:50:06.637</time>
      </trkpt>
      <trkpt lat="48.46936" lon="2.70867">
        <ele>133</ele>
        <time>2017-05-17T09:50:07.636</time>
      </trkpt>
      <trkpt lat="48.46932" lon="2.70865">
        <ele>133</ele>
        <time>2017-05-17T09:50:08.639</time>
      </trkpt>
      <trkpt lat="48.46929" lon="2.70863">
        <ele>133</ele>
        <time>2017-05-17T09:50:09.642</time>
      </trkpt>
      <trkpt lat="48.46925" lon="2.7086">
        <ele>134</ele>
        <time>2017-05-17T09:50:10.636</time>
      </trkpt>
      <trkpt lat="48.46922" lon="2.70857">
        <ele>134</ele>
        <time>2017-05-17T09:50:11.636</time>
      </trkpt>
      <trkpt lat="48.46917" lon="2.70853">
        <ele>134</ele>
        <time>2017-05-17T09:50:12.637</time>
      </trkpt>
      <trkpt lat="48.46913" lon="2.7085">
        <ele>134</ele>
        <time>2017-05-17T09:50:13.638</time>
      </trkpt>
      <trkpt lat="48.4691" lon="2.70848">
        <ele>134</ele>
        <time>2017-05-17T09:50:14.640</time>
      </trkpt>
      <trkpt lat="48.46906" lon="2.70846">
        <ele>133</ele>
        <time>2017-05-17T09:50:15.636</time>
      </trkpt>
      <trkpt lat="48.46902" lon="2.70844">
        <ele>133</ele>
        <time>2017-05-17T09:50:16.637</time>
      </trkpt>
      <trkpt lat="48.46899" lon="2.70841">
        <ele>133</ele>
        <time>2017-05-17T09:50:17.636</time>
      </trkpt>
      <trkpt lat="48.46894" lon="2.70839">
        <ele>133</ele>
        <time>2017-05-17T09:50:18.642</time>
      </trkpt>
      <trkpt lat="48.46891" lon="2.70836">
        <ele>133</ele>
        <time>2017-05-17T09:50:19.644</time>
      </trkpt>
      <trkpt lat="48.46887" lon="2.70834">
        <ele>134</ele>
        <time>2017-05-17T09:50:20.634</time>
      </trkpt>
      <trkpt lat="48.46882" lon="2.70832">
        <ele>134</ele>
        <time>2017-05-17T09:50:21.637</time>
      </trkpt>
      <trkpt lat="48.46879" lon="2.70829">
        <ele>134</ele>
        <time>2017-05-17T09:50:22.637</time>
      </trkpt>
      <trkpt lat="48.46874" lon="2.70826">
        <ele>134</ele>
        <time>2017-05-17T09:50:23.638</time>
      </trkpt>
      <trkpt lat="48.46871" lon="2.70823">
        <ele>134</ele>
        <time>2017-05-17T09:50:24.638</time>
      </trkpt>
      <trkpt lat="48.46867" lon="2.7082">
        <ele>134</ele>
        <time>2017-05-17T09:50:25.637</time>
      </trkpt>
      <trkpt lat="48.46863" lon="2.70817">
        <ele>135</ele>
        <time>2017-05-17T09:50:26.639</time>
      </trkpt>
      <trkpt lat="48.46859" lon="2.70814">
        <ele>136</ele>
        <time>2017-05-17T09:50:27.636</time>
      </trkpt>
      <trkpt lat="48.46857" lon="2.7081">
        <ele>136</ele>
        <time>2017-05-17T09:50:28.640</time>
      </trkpt>
      <trkpt lat="48.46854" lon="2.70808">
        <ele>136</ele>
        <time>2017-05-17T09:50:29.640</time>
      </trkpt>
      <trkpt lat="48.46852" lon="2.70807">
        <ele>135</ele>
        <time>2017-05-17T09:50:30.632</time>
      </trkpt>
      <trkpt lat="48.46849" lon="2.70805">
        <ele>136</ele>
        <time>2017-05-17T09:50:31.636</time>
      </trkpt>
      <trkpt lat="48.46847" lon="2.70802">
        <ele>136</ele>
        <time>2017-05-17T09:50:32.636</time>
      </trkpt>
      <trkpt lat="48.46845" lon="2.708">
        <ele>134</ele>
        <time>2017-05-17T09:50:33.638</time>
      </trkpt>
      <trkpt lat="48.46843" lon="2.70797">
        <ele>134</ele>
        <time>2017-05-17T09:50:34.639</time>
      </trkpt>
      <trkpt lat="48.46841" lon="2.70795">
        <ele>133</ele>
        <time>2017-05-17T09:50:35.637</time>
      </trkpt>
      <trkpt lat="48.46838" lon="2.70791">
        <ele>133</ele>
        <time>2017-05-17T09:50:36.638</time>
      </trkpt>
      <trkpt lat="48.46836" lon="2.70788">
        <ele>134</ele>
        <time>2017-05-17T09:50:37.638</time>
      </trkpt>
      <trkpt lat="48.46834" lon="2.70786">
        <ele>134</ele>
        <time>2017-05-17T09:50:38.638</time>
      </trkpt>
      <trkpt lat="48.46832" lon="2.70782">
        <ele>134</ele>
        <time>2017-05-17T09:50:39.641</time>
      </trkpt>
      <trkpt lat="48.4683" lon="2.70779">
        <ele>133</ele>
        <time>2017-05-17T09:50:40.638</time>
      </trkpt>
      <trkpt lat="48.46828" lon="2.70777">
        <ele>134</ele>
        <time>2017-05-17T09:50:41.639</time>
      </trkpt>
      <trkpt lat="48.46825" lon="2.70775">
        <ele>135</ele>
        <time>2017-05-17T09:50:42.638</time>
      </trkpt>
      <trkpt lat="48.46823" lon="2.70774">
        <ele>135</ele>
        <time>2017-05-17T09:50:43.638</time>
      </trkpt>
      <trkpt lat="48.4682" lon="2.70774">
        <ele>135</ele>
        <time>2017-05-17T09:50:44.641</time>
      </trkpt>
      <trkpt lat="48.46818" lon="2.70777">
        <ele>135</ele>
        <time>2017-05-17T09:50:45.639</time>
      </trkpt>
      <trkpt lat="48.46816" lon="2.70779">
        <ele>135</ele>
        <time>2017-05-17T09:50:46.638</time>
      </trkpt>
      <trkpt lat="48.46814" lon="2.70782">
        <ele>135</ele>
        <time>2017-05-17T09:50:47.638</time>
      </trkpt>
      <trkpt lat="48.46813" lon="2.70785">
        <ele>136</ele>
        <time>2017-05-17T09:50:48.644</time>
      </trkpt>
      <trkpt lat="48.46811" lon="2.70788">
        <ele>136</ele>
        <time>2017-05-17T09:50:49.642</time>
      </trkpt>
      <trkpt lat="48.46809" lon="2.70791">
        <ele>136</ele>
        <time>2017-05-17T09:50:50.635</time>
      </trkpt>
      <trkpt lat="48.46806" lon="2.70794">
        <ele>136</ele>
        <time>2017-05-17T09:50:51.638</time>
      </trkpt>
      <trkpt lat="48.46804" lon="2.70796">
        <ele>136</ele>
        <time>2017-05-17T09:50:52.641</time>
      </trkpt>
      <trkpt lat="48.46802" lon="2.708">
        <ele>137</ele>
        <time>2017-05-17T09:50:53.638</time>
      </trkpt>
      <trkpt lat="48.468" lon="2.70803">
        <ele>137</ele>
        <time>2017-05-17T09:50:54.637</time>
      </trkpt>
      <trkpt lat="48.46798" lon="2.70807">
        <ele>137</ele>
        <time>2017-05-17T09:50:55.637</time>
      </trkpt>
      <trkpt lat="48.46795" lon="2.70812">
        <ele>138</ele>
        <time>2017-05-17T09:50:56.638</time>
      </trkpt>
      <trkpt lat="48.46793" lon="2.70817">
        <ele>138</ele>
        <time>2017-05-17T09:50:57.638</time>
      </trkpt>
      <trkpt lat="48.4679" lon="2.70823">
        <ele>138</ele>
        <time>2017-05-17T09:50:58.641</time>
      </trkpt>
      <trkpt lat="48.46788" lon="2.7083">
        <ele>138</ele>
        <time>2017-05-17T09:50:59.641</time>
      </trkpt>
      <trkpt lat="48.46786" lon="2.70837">
        <ele>138</ele>
        <time>2017-05-17T09:51:00.637</time>
      </trkpt>
      <trkpt lat="48.46784" lon="2.70844">
        <ele>137</ele>
        <time>2017-05-17T09:51:01.637</time>
      </trkpt>
      <trkpt lat="48.46783" lon="2.70851">
        <ele>137</ele>
        <time>2017-05-17T09:51:02.638</time>
      </trkpt>
      <trkpt lat="48.46781" lon="2.70858">
        <ele>137</ele>
        <time>2017-05-17T09:51:03.632</time>
      </trkpt>
      <trkpt lat="48.4678" lon="2.70865">
        <ele>137</ele>
        <time>2017-05-17T09:51:04.640</time>
      </trkpt>
      <trkpt lat="48.46779" lon="2.70872">
        <ele>137</ele>
        <time>2017-05-17T09:51:05.640</time>
      </trkpt>
      <trkpt lat="48.46777" lon="2.70879">
        <ele>137</ele>
        <time>2017-05-17T09:51:06.640</time>
      </trkpt>
      <trkpt lat="48.46777" lon="2.70886">
        <ele>136</ele>
        <time>2017-05-17T09:51:07.639</time>
      </trkpt>
      <trkpt lat="48.46775" lon="2.70893">
        <ele>136</ele>
        <time>2017-05-17T09:51:08.641</time>
      </trkpt>
      <trkpt lat="48.46774" lon="2.709">
        <ele>136</ele>
        <time>2017-05-17T09:51:09.644</time>
      </trkpt>
      <trkpt lat="48.46772" lon="2.70905">
        <ele>135</ele>
        <time>2017-05-17T09:51:10.640</time>
      </trkpt>
      <trkpt lat="48.46769" lon="2.70912">
        <ele>136</ele>
        <time>2017-05-17T09:51:11.640</time>
      </trkpt>
      <trkpt lat="48.46767" lon="2.70919">
        <ele>136</ele>
        <time>2017-05-17T09:51:12.639</time>
      </trkpt>
      <trkpt lat="48.46764" lon="2.70925">
        <ele>137</ele>
        <time>2017-05-17T09:51:13.638</time>
      </trkpt>
      <trkpt lat="48.4676" lon="2.7093">
        <ele>137</ele>
        <time>2017-05-17T09:51:14.641</time>
      </trkpt>
      <trkpt lat="48.46756" lon="2.70934">
        <ele>138</ele>
        <time>2017-05-17T09:51:15.639</time>
      </trkpt>
      <trkpt lat="48.46752" lon="2.70939">
        <ele>138</ele>
        <time>2017-05-17T09:51:16.638</time>
      </trkpt>
      <trkpt lat="48.46749" lon="2.70944">
        <ele>138</ele>
        <time>2017-05-17T09:51:17.638</time>
      </trkpt>
      <trkpt lat="48.46745" lon="2.70949">
        <ele>139</ele>
        <time>2017-05-17T09:51:18.644</time>
      </trkpt>
      <trkpt lat="48.46741" lon="2.70953">
        <ele>139</ele>
        <time>2017-05-17T09:51:19.646</time>
      </trkpt>
      <trkpt lat="48.46737" lon="2.70958">
        <ele>139</ele>
        <time>2017-05-17T09:51:20.638</time>
      </trkpt>
      <trkpt lat="48.46733" lon="2.70962">
        <ele>139</ele>
        <time>2017-05-17T09:51:21.639</time>
      </trkpt>
      <trkpt lat="48.46729" lon="2.70967">
        <ele>139</ele>
        <time>2017-05-17T09:51:22.636</time>
      </trkpt>
      <trkpt lat="48.46725" lon="2.70972">
        <ele>139</ele>
        <time>2017-05-17T09:51:23.639</time>
      </trkpt>
      <trkpt lat="48.46721" lon="2.70976">
        <ele>139</ele>
        <time>2017-05-17T09:51:24.642</time>
      </trkpt>
      <trkpt lat="48.46718" lon="2.7098">
        <ele>140</ele>
        <time>2017-05-17T09:51:25.638</time>
      </trkpt>
      <trkpt lat="48.46714" lon="2.70984">
        <ele>140</ele>
        <time>2017-05-17T09:51:26.639</time>
      </trkpt>
      <trkpt lat="48.46711" lon="2.70988">
        <ele>141</ele>
        <time>2017-05-17T09:51:27.639</time>
      </trkpt>
      <trkpt lat="48.46707" lon="2.70992">
        <ele>140</ele>
        <time>2017-05-17T09:51:28.642</time>
      </trkpt>
      <trkpt lat="48.46703" lon="2.70996">
        <ele>140</ele>
        <time>2017-05-17T09:51:29.642</time>
      </trkpt>
      <trkpt lat="48.467" lon="2.71">
        <ele>140</ele>
        <time>2017-05-17T09:51:30.637</time>
      </trkpt>
      <trkpt lat="48.46697" lon="2.71005">
        <ele>140</ele>
        <time>2017-05-17T09:51:31.636</time>
      </trkpt>
      <trkpt lat="48.46693" lon="2.71008">
        <ele>140</ele>
        <time>2017-05-17T09:51:32.638</time>
      </trkpt>
      <trkpt lat="48.4669" lon="2.71013">
        <ele>140</ele>
        <time>2017-05-17T09:51:33.639</time>
      </trkpt>
      <trkpt lat="48.46686" lon="2.71018">
        <ele>140</ele>
        <time>2017-05-17T09:51:34.638</time>
      </trkpt>
      <trkpt lat="48.46682" lon="2.71023">
        <ele>140</ele>
        <time>2017-05-17T09:51:35.639</time>
      </trkpt>
      <trkpt lat="48.46678" lon="2.71029">
        <ele>140</ele>
        <time>2017-05-17T09:51:36.638</time>
      </trkpt>
      <trkpt lat="48.46674" lon="2.71034">
        <ele>141</ele>
        <time>2017-05-17T09:51:37.639</time>
      </trkpt>
      <trkpt lat="48.46669" lon="2.7104">
        <ele>141</ele>
        <time>2017-05-17T09:51:38.641</time>
      </trkpt>
      <trkpt lat="48.46665" lon="2.71046">
        <ele>141</ele>
        <time>2017-05-17T09:51:39.643</time>
      </trkpt>
      <trkpt lat="48.46661" lon="2.71052">
        <ele>141</ele>
        <time>2017-05-17T09:51:40.637</time>
      </trkpt>
      <trkpt lat="48.46657" lon="2.71057">
        <ele>141</ele>
        <time>2017-05-17T09:51:41.637</time>
      </trkpt>
      <trkpt lat="48.46654" lon="2.71064">
        <ele>141</ele>
        <time>2017-05-17T09:51:42.637</time>
      </trkpt>
      <trkpt lat="48.4665" lon="2.7107">
        <ele>141</ele>
        <time>2017-05-17T09:51:43.638</time>
      </trkpt>
      <trkpt lat="48.46647" lon="2.71077">
        <ele>141</ele>
        <time>2017-05-17T09:51:44.639</time>
      </trkpt>
      <trkpt lat="48.46643" lon="2.71084">
        <ele>142</ele>
        <time>2017-05-17T09:51:45.636</time>
      </trkpt>
      <trkpt lat="48.46639" lon="2.7109">
        <ele>142</ele>
        <time>2017-05-17T09:51:46.638</time>
      </trkpt>
      <trkpt lat="48.46636" lon="2.71097">
        <ele>142</ele>
        <time>2017-05-17T09:51:47.640</time>
      </trkpt>
      <trkpt lat="48.46632" lon="2.71104">
        <ele>142</ele>
        <time>2017-05-17T09:51:48.650</time>
      </trkpt>
      <trkpt lat="48.46628" lon="2.7111">
        <ele>143</ele>
        <time>2017-05-17T09:51:49.650</time>
      </trkpt>
      <trkpt lat="48.46624" lon="2.71117">
        <ele>143</ele>
        <time>2017-05-17T09:51:50.638</time>
      </trkpt>
      <trkpt lat="48.4662" lon="2.71123">
        <ele>143</ele>
        <time>2017-05-17T09:51:51.639</time>
      </trkpt>
      <trkpt lat="48.46616" lon="2.7113">
        <ele>143</ele>
        <time>2017-05-17T09:51:52.637</time>
      </trkpt>
      <trkpt lat="48.46613" lon="2.71137">
        <ele>142</ele>
        <time>2017-05-17T09:51:53.637</time>
      </trkpt>
      <trkpt lat="48.46609" lon="2.71143">
        <ele>142</ele>
        <time>2017-05-17T09:51:54.639</time>
      </trkpt>
      <trkpt lat="48.46605" lon="2.7115">
        <ele>142</ele>
        <time>2017-05-17T09:51:55.638</time>
      </trkpt>
      <trkpt lat="48.46601" lon="2.71157">
        <ele>142</ele>
        <time>2017-05-17T09:51:56.639</time>
      </trkpt>
      <trkpt lat="48.46597" lon="2.71165">
        <ele>143</ele>
        <time>2017-05-17T09:51:57.638</time>
      </trkpt>
      <trkpt lat="48.46594" lon="2.71171">
        <ele>143</ele>
        <time>2017-05-17T09:51:58.640</time>
      </trkpt>
      <trkpt lat="48.4659" lon="2.71177">
        <ele>143</ele>
        <time>2017-05-17T09:51:59.642</time>
      </trkpt>
      <trkpt lat="48.46586" lon="2.71183">
        <ele>143</ele>
        <time>2017-05-17T09:52:00.639</time>
      </trkpt>
      <trkpt lat="48.46582" lon="2.71188">
        <ele>144</ele>
        <time>2017-05-17T09:52:01.639</time>
      </trkpt>
      <trkpt lat="48.46578" lon="2.71194">
        <ele>144</ele>
        <time>2017-05-17T09:52:02.639</time>
      </trkpt>
      <trkpt lat="48.46575" lon="2.71199">
        <ele>144</ele>
        <time>2017-05-17T09:52:03.638</time>
      </trkpt>
      <trkpt lat="48.4657" lon="2.71204">
        <ele>144</ele>
        <time>2017-05-17T09:52:04.638</time>
      </trkpt>
      <trkpt lat="48.46566" lon="2.71208">
        <ele>144</ele>
        <time>2017-05-17T09:52:05.638</time>
      </trkpt>
      <trkpt lat="48.46562" lon="2.71212">
        <ele>144</ele>
        <time>2017-05-17T09:52:06.640</time>
      </trkpt>
      <trkpt lat="48.46557" lon="2.71217">
        <ele>144</ele>
        <time>2017-05-17T09:52:07.640</time>
      </trkpt>
      <trkpt lat="48.46553" lon="2.71221">
        <ele>145</ele>
        <time>2017-05-17T09:52:08.639</time>
      </trkpt>
      <trkpt lat="48.46548" lon="2.71224">
        <ele>145</ele>
        <time>2017-05-17T09:52:09.642</time>
      </trkpt>
      <trkpt lat="48.46543" lon="2.71227">
        <ele>144</ele>
        <time>2017-05-17T09:52:10.639</time>
      </trkpt>
      <trkpt lat="48.46539" lon="2.71229">
        <ele>144</ele>
        <time>2017-05-17T09:52:11.640</time>
      </trkpt>
      <trkpt lat="48.46533" lon="2.71232">
        <ele>144</ele>
        <time>2017-05-17T09:52:12.639</time>
      </trkpt>
      <trkpt lat="48.46528" lon="2.71234">
        <ele>144</ele>
        <time>2017-05-17T09:52:13.638</time>
      </trkpt>
      <trkpt lat="48.46522" lon="2.71236">
        <ele>144</ele>
        <time>2017-05-17T09:52:14.640</time>
      </trkpt>
      <trkpt lat="48.46516" lon="2.71238">
        <ele>144</ele>
        <time>2017-05-17T09:52:15.638</time>
      </trkpt>
      <trkpt lat="48.46511" lon="2.7124">
        <ele>144</ele>
        <time>2017-05-17T09:52:16.639</time>
      </trkpt>
      <trkpt lat="48.46507" lon="2.71242">
        <ele>144</ele>
        <time>2017-05-17T09:52:17.639</time>
      </trkpt>
      <trkpt lat="48.46501" lon="2.71243">
        <ele>144</ele>
        <time>2017-05-17T09:52:18.645</time>
      </trkpt>
      <trkpt lat="48.46495" lon="2.71244">
        <ele>144</ele>
        <time>2017-05-17T09:52:19.646</time>
      </trkpt>
      <trkpt lat="48.4649" lon="2.71245">
        <ele>144</ele>
        <time>2017-05-17T09:52:20.641</time>
      </trkpt>
      <trkpt lat="48.46485" lon="2.71246">
        <ele>143</ele>
        <time>2017-05-17T09:52:21.638</time>
      </trkpt>
      <trkpt lat="48.46479" lon="2.71247">
        <ele>143</ele>
        <time>2017-05-17T09:52:22.641</time>
      </trkpt>
      <trkpt lat="48.46474" lon="2.71247">
        <ele>143</ele>
        <time>2017-05-17T09:52:23.639</time>
      </trkpt>
      <trkpt lat="48.46468" lon="2.7125">
        <ele>143</ele>
        <time>2017-05-17T09:52:24.642</time>
      </trkpt>
      <trkpt lat="48.46463" lon="2.71251">
        <ele>143</ele>
        <time>2017-05-17T09:52:25.639</time>
      </trkpt>
      <trkpt lat="48.46457" lon="2.71251">
        <ele>143</ele>
        <time>2017-05-17T09:52:26.638</time>
      </trkpt>
      <trkpt lat="48.46452" lon="2.71253">
        <ele>144</ele>
        <time>2017-05-17T09:52:27.642</time>
      </trkpt>
      <trkpt lat="48.46447" lon="2.71255">
        <ele>143</ele>
        <time>2017-05-17T09:52:28.642</time>
      </trkpt>
      <trkpt lat="48.46441" lon="2.71259">
        <ele>144</ele>
        <time>2017-05-17T09:52:29.644</time>
      </trkpt>
      <trkpt lat="48.46436" lon="2.71259">
        <ele>144</ele>
        <time>2017-05-17T09:52:30.639</time>
      </trkpt>
      <trkpt lat="48.46431" lon="2.71261">
        <ele>144</ele>
        <time>2017-05-17T09:52:31.639</time>
      </trkpt>
      <trkpt lat="48.46427" lon="2.71262">
        <ele>144</ele>
        <time>2017-05-17T09:52:32.638</time>
      </trkpt>
      <trkpt lat="48.46422" lon="2.71266">
        <ele>145</ele>
        <time>2017-05-17T09:52:33.637</time>
      </trkpt>
      <trkpt lat="48.46417" lon="2.71269">
        <ele>144</ele>
        <time>2017-05-17T09:52:34.638</time>
      </trkpt>
      <trkpt lat="48.46413" lon="2.71273">
        <ele>146</ele>
        <time>2017-05-17T09:52:35.637</time>
      </trkpt>
      <trkpt lat="48.46407" lon="2.71277">
        <ele>147</ele>
        <time>2017-05-17T09:52:36.639</time>
      </trkpt>
      <trkpt lat="48.46402" lon="2.71281">
        <ele>147</ele>
        <time>2017-05-17T09:52:37.641</time>
      </trkpt>
      <trkpt lat="48.46397" lon="2.71285">
        <ele>147</ele>
        <time>2017-05-17T09:52:38.651</time>
      </trkpt>
      <trkpt lat="48.46393" lon="2.71289">
        <ele>147</ele>
        <time>2017-05-17T09:52:39.645</time>
      </trkpt>
      <trkpt lat="48.46388" lon="2.71293">
        <ele>148</ele>
        <time>2017-05-17T09:52:40.641</time>
      </trkpt>
      <trkpt lat="48.46383" lon="2.71297">
        <ele>148</ele>
        <time>2017-05-17T09:52:41.640</time>
      </trkpt>
      <trkpt lat="48.46378" lon="2.71301">
        <ele>148</ele>
        <time>2017-05-17T09:52:42.640</time>
      </trkpt>
      <trkpt lat="48.46374" lon="2.71306">
        <ele>148</ele>
        <time>2017-05-17T09:52:43.639</time>
      </trkpt>
      <trkpt lat="48.46369" lon="2.71312">
        <ele>148</ele>
        <time>2017-05-17T09:52:44.641</time>
      </trkpt>
      <trkpt lat="48.46364" lon="2.71318">
        <ele>149</ele>
        <time>2017-05-17T09:52:45.640</time>
      </trkpt>
      <trkpt lat="48.46359" lon="2.71323">
        <ele>149</ele>
        <time>2017-05-17T09:52:46.639</time>
      </trkpt>
      <trkpt lat="48.46354" lon="2.71328">
        <ele>149</ele>
        <time>2017-05-17T09:52:47.639</time>
      </trkpt>
      <trkpt lat="48.46349" lon="2.71335">
        <ele>148</ele>
        <time>2017-05-17T09:52:48.646</time>
      </trkpt>
      <trkpt lat="48.46345" lon="2.71343">
        <ele>148</ele>
        <time>2017-05-17T09:52:49.648</time>
      </trkpt>
      <trkpt lat="48.46341" lon="2.7135">
        <ele>148</ele>
        <time>2017-05-17T09:52:50.638</time>
      </trkpt>
      <trkpt lat="48.46336" lon="2.71357">
        <ele>148</ele>
        <time>2017-05-17T09:52:51.639</time>
      </trkpt>
      <trkpt lat="48.46333" lon="2.71364">
        <ele>148</ele>
        <time>2017-05-17T09:52:52.639</time>
      </trkpt>
      <trkpt lat="48.4633" lon="2.71372">
        <ele>148</ele>
        <time>2017-05-17T09:52:53.637</time>
      </trkpt>
      <trkpt lat="48.46326" lon="2.7138">
        <ele>148</ele>
        <time>2017-05-17T09:52:54.639</time>
      </trkpt>
      <trkpt lat="48.46323" lon="2.71387">
        <ele>148</ele>
        <time>2017-05-17T09:52:55.639</time>
      </trkpt>
      <trkpt lat="48.46319" lon="2.71394">
        <ele>148</ele>
        <time>2017-05-17T09:52:56.641</time>
      </trkpt>
      <trkpt lat="48.46316" lon="2.71401">
        <ele>147</ele>
        <time>2017-05-17T09:52:57.640</time>
      </trkpt>
      <trkpt lat="48.46311" lon="2.71408">
        <ele>148</ele>
        <time>2017-05-17T09:52:58.641</time>
      </trkpt>
      <trkpt lat="48.46307" lon="2.71413">
        <ele>148</ele>
        <time>2017-05-17T09:52:59.643</time>
      </trkpt>
      <trkpt lat="48.46303" lon="2.71416">
        <ele>147</ele>
        <time>2017-05-17T09:53:00.639</time>
      </trkpt>
      <trkpt lat="48.463" lon="2.71421">
        <ele>147</ele>
        <time>2017-05-17T09:53:01.639</time>
      </trkpt>
      <trkpt lat="48.46298" lon="2.71426">
        <ele>147</ele>
        <time>2017-05-17T09:53:02.640</time>
      </trkpt>
      <trkpt lat="48.46295" lon="2.71423">
        <ele>146</ele>
        <time>2017-05-17T09:53:03.638</time>
      </trkpt>
      <trkpt lat="48.46293" lon="2.71423">
        <ele>146</ele>
        <time>2017-05-17T09:53:04.640</time>
      </trkpt>
      <trkpt lat="48.46291" lon="2.71422">
        <ele>146</ele>
        <time>2017-05-17T09:53:05.641</time>
      </trkpt>
      <trkpt lat="48.46288" lon="2.71422">
        <ele>146</ele>
        <time>2017-05-17T09:53:06.639</time>
      </trkpt>
      <trkpt lat="48.46287" lon="2.71422">
        <ele>147</ele>
        <time>2017-05-17T09:53:07.638</time>
      </trkpt>
      <trkpt lat="48.46284" lon="2.71423">
        <ele>146</ele>
        <time>2017-05-17T09:53:08.642</time>
      </trkpt>
      <trkpt lat="48.46281" lon="2.71424">
        <ele>146</ele>
        <time>2017-05-17T09:53:09.645</time>
      </trkpt>
      <trkpt lat="48.46277" lon="2.71426">
        <ele>147</ele>
        <time>2017-05-17T09:53:10.639</time>
      </trkpt>
      <trkpt lat="48.46275" lon="2.71427">
        <ele>147</ele>
        <time>2017-05-17T09:53:11.642</time>
      </trkpt>
      <trkpt lat="48.46272" lon="2.71427">
        <ele>148</ele>
        <time>2017-05-17T09:53:12.639</time>
      </trkpt>
      <trkpt lat="48.46269" lon="2.71429">
        <ele>149</ele>
        <time>2017-05-17T09:53:13.638</time>
      </trkpt>
      <trkpt lat="48.46266" lon="2.7143">
        <ele>148</ele>
        <time>2017-05-17T09:53:14.642</time>
      </trkpt>
      <trkpt lat="48.46263" lon="2.71426">
        <ele>148</ele>
        <time>2017-05-17T09:53:15.640</time>
      </trkpt>
      <trkpt lat="48.46261" lon="2.71426">
        <ele>148</ele>
        <time>2017-05-17T09:53:16.640</time>
      </trkpt>
      <trkpt lat="48.46257" lon="2.71427">
        <ele>147</ele>
        <time>2017-05-17T09:53:17.639</time>
      </trkpt>
      <trkpt lat="48.46254" lon="2.71427">
        <ele>147</ele>
        <time>2017-05-17T09:53:18.643</time>
      </trkpt>
      <trkpt lat="48.46252" lon="2.71428">
        <ele>147</ele>
        <time>2017-05-17T09:53:19.643</time>
      </trkpt>
      <trkpt lat="48.46249" lon="2.71431">
        <ele>147</ele>
        <time>2017-05-17T09:53:20.639</time>
      </trkpt>
      <trkpt lat="48.46248" lon="2.71432">
        <ele>147</ele>
        <time>2017-05-17T09:53:21.639</time>
      </trkpt>
      <trkpt lat="48.46245" lon="2.71432">
        <ele>146</ele>
        <time>2017-05-17T09:53:22.640</time>
      </trkpt>
      <trkpt lat="48.46241" lon="2.71433">
        <ele>146</ele>
        <time>2017-05-17T09:53:23.641</time>
      </trkpt>
      <trkpt lat="48.46237" lon="2.71434">
        <ele>146</ele>
        <time>2017-05-17T09:53:24.641</time>
      </trkpt>
      <trkpt lat="48.46235" lon="2.71437">
        <ele>148</ele>
        <time>2017-05-17T09:53:25.641</time>
      </trkpt>
      <trkpt lat="48.46232" lon="2.71439">
        <ele>148</ele>
        <time>2017-05-17T09:53:26.639</time>
      </trkpt>
      <trkpt lat="48.4623" lon="2.7144">
        <ele>147</ele>
        <time>2017-05-17T09:53:27.638</time>
      </trkpt>
      <trkpt lat="48.46229" lon="2.71441">
        <ele>148</ele>
        <time>2017-05-17T09:53:28.641</time>
      </trkpt>
      <trkpt lat="48.46225" lon="2.71441">
        <ele>150</ele>
        <time>2017-05-17T09:53:29.642</time>
      </trkpt>
      <trkpt lat="48.46222" lon="2.71442">
        <ele>150</ele>
        <time>2017-05-17T09:53:30.639</time>
      </trkpt>
      <trkpt lat="48.46218" lon="2.71443">
        <ele>151</ele>
        <time>2017-05-17T09:53:31.640</time>
      </trkpt>
      <trkpt lat="48.46216" lon="2.71445">
        <ele>150</ele>
        <time>2017-05-17T09:53:32.634</time>
      </trkpt>
      <trkpt lat="48.46213" lon="2.71447">
        <ele>152</ele>
        <time>2017-05-17T09:53:33.639</time>
      </trkpt>
      <trkpt lat="48.46211" lon="2.71448">
        <ele>153</ele>
        <time>2017-05-17T09:53:34.641</time>
      </trkpt>
      <trkpt lat="48.46208" lon="2.7145">
        <ele>154</ele>
        <time>2017-05-17T09:53:35.639</time>
      </trkpt>
      <trkpt lat="48.46204" lon="2.71452">
        <ele>152</ele>
        <time>2017-05-17T09:53:36.639</time>
      </trkpt>
      <trkpt lat="48.46199" lon="2.71453">
        <ele>149</ele>
        <time>2017-05-17T09:53:37.638</time>
      </trkpt>
      <trkpt lat="48.46195" lon="2.71454">
        <ele>148</ele>
        <time>2017-05-17T09:53:38.642</time>
      </trkpt>
      <trkpt lat="48.46191" lon="2.71456">
        <ele>149</ele>
        <time>2017-05-17T09:53:39.635</time>
      </trkpt>
      <trkpt lat="48.46188" lon="2.71457">
        <ele>148</ele>
        <time>2017-05-17T09:53:40.639</time>
      </trkpt>
      <trkpt lat="48.46185" lon="2.71458">
        <ele>148</ele>
        <time>2017-05-17T09:53:41.640</time>
      </trkpt>
      <trkpt lat="48.46182" lon="2.7146">
        <ele>149</ele>
        <time>2017-05-17T09:53:42.639</time>
      </trkpt>
      <trkpt lat="48.46179" lon="2.71464">
        <ele>149</ele>
        <time>2017-05-17T09:53:43.638</time>
      </trkpt>
      <trkpt lat="48.46175" lon="2.71465">
        <ele>148</ele>
        <time>2017-05-17T09:53:44.641</time>
      </trkpt>
      <trkpt lat="48.46172" lon="2.71465">
        <ele>148</ele>
        <time>2017-05-17T09:53:45.640</time>
      </trkpt>
      <trkpt lat="48.46168" lon="2.71465">
        <ele>149</ele>
        <time>2017-05-17T09:53:46.638</time>
      </trkpt>
      <trkpt lat="48.46165" lon="2.71466">
        <ele>149</ele>
        <time>2017-05-17T09:53:47.640</time>
      </trkpt>
      <trkpt lat="48.46161" lon="2.71467">
        <ele>150</ele>
        <time>2017-05-17T09:53:48.642</time>
      </trkpt>
      <trkpt lat="48.46158" lon="2.71467">
        <ele>149</ele>
        <time>2017-05-17T09:53:49.641</time>
      </trkpt>
      <trkpt lat="48.46155" lon="2.71467">
        <ele>149</ele>
        <time>2017-05-17T09:53:50.638</time>
      </trkpt>
      <trkpt lat="48.46153" lon="2.71469">
        <ele>150</ele>
        <time>2017-05-17T09:53:51.639</time>
      </trkpt>
      <trkpt lat="48.46152" lon="2.7147">
        <ele>150</ele>
        <time>2017-05-17T09:53:52.638</time>
      </trkpt>
      <trkpt lat="48.46152" lon="2.71473">
        <ele>150</ele>
        <time>2017-05-17T09:53:53.639</time>
      </trkpt>
      <trkpt lat="48.46152" lon="2.71476">
        <ele>150</ele>
        <time>2017-05-17T09:53:54.641</time>
      </trkpt>
      <trkpt lat="48.46154" lon="2.71478">
        <ele>147</ele>
        <time>2017-05-17T09:53:55.639</time>
      </trkpt>
      <trkpt lat="48.46155" lon="2.71481">
        <ele>146</ele>
        <time>2017-05-17T09:53:56.639</time>
      </trkpt>
      <trkpt lat="48.46156" lon="2.71483">
        <ele>145</ele>
        <time>2017-05-17T09:53:57.639</time>
      </trkpt>
      <trkpt lat="48.46158" lon="2.71485">
        <ele>145</ele>
        <time>2017-05-17T09:53:58.642</time>
      </trkpt>
      <trkpt lat="48.46159" lon="2.71488">
        <ele>145</ele>
        <time>2017-05-17T09:53:59.641</time>
      </trkpt>
      <trkpt lat="48.46161" lon="2.71492">
        <ele>146</ele>
        <time>2017-05-17T09:54:00.638</time>
      </trkpt>
      <trkpt lat="48.46162" lon="2.71496">
        <ele>146</ele>
        <time>2017-05-17T09:54:01.639</time>
      </trkpt>
      <trkpt lat="48.46164" lon="2.71499">
        <ele>146</ele>
        <time>2017-05-17T09:54:02.638</time>
      </trkpt>
      <trkpt lat="48.46166" lon="2.71502">
        <ele>147</ele>
        <time>2017-05-17T09:54:03.640</time>
      </trkpt>
      <trkpt lat="48.46168" lon="2.71505">
        <ele>146</ele>
        <time>2017-05-17T09:54:04.640</time>
      </trkpt>
      <trkpt lat="48.46167" lon="2.71507">
        <ele>144</ele>
        <time>2017-05-17T09:54:05.638</time>
      </trkpt>
      <trkpt lat="48.46169" lon="2.7151">
        <ele>143</ele>
        <time>2017-05-17T09:54:06.638</time>
      </trkpt>
      <trkpt lat="48.4617" lon="2.71513">
        <ele>143</ele>
        <time>2017-05-17T09:54:07.639</time>
      </trkpt>
      <trkpt lat="48.46172" lon="2.71517">
        <ele>143</ele>
        <time>2017-05-17T09:54:08.641</time>
      </trkpt>
      <trkpt lat="48.46172" lon="2.71521">
        <ele>142</ele>
        <time>2017-05-17T09:54:09.643</time>
      </trkpt>
      <trkpt lat="48.46175" lon="2.71524">
        <ele>142</ele>
        <time>2017-05-17T09:54:10.639</time>
      </trkpt>
      <trkpt lat="48.46177" lon="2.71526">
        <ele>142</ele>
        <time>2017-05-17T09:54:11.639</time>
      </trkpt>
      <trkpt lat="48.4618" lon="2.7153">
        <ele>143</ele>
        <time>2017-05-17T09:54:12.638</time>
      </trkpt>
      <trkpt lat="48.46184" lon="2.71534">
        <ele>144</ele>
        <time>2017-05-17T09:54:13.639</time>
      </trkpt>
      <trkpt lat="48.46185" lon="2.71539">
        <ele>144</ele>
        <time>2017-05-17T09:54:14.641</time>
      </trkpt>
      <trkpt lat="48.46187" lon="2.71544">
        <ele>144</ele>
        <time>2017-05-17T09:54:15.640</time>
      </trkpt>
      <trkpt lat="48.4619" lon="2.71548">
        <ele>145</ele>
        <time>2017-05-17T09:54:16.658</time>
      </trkpt>
      <trkpt lat="48.46192" lon="2.71552">
        <ele>145</ele>
        <time>2017-05-17T09:54:17.636</time>
      </trkpt>
      <trkpt lat="48.46194" lon="2.71557">
        <ele>146</ele>
        <time>2017-05-17T09:54:18.640</time>
      </trkpt>
      <trkpt lat="48.46197" lon="2.71561">
        <ele>147</ele>
        <time>2017-05-17T09:54:19.644</time>
      </trkpt>
      <trkpt lat="48.46199" lon="2.71565">
        <ele>147</ele>
        <time>2017-05-17T09:54:20.639</time>
      </trkpt>
      <trkpt lat="48.46201" lon="2.7157">
        <ele>147</ele>
        <time>2017-05-17T09:54:21.639</time>
      </trkpt>
      <trkpt lat="48.46205" lon="2.71574">
        <ele>147</ele>
        <time>2017-05-17T09:54:22.638</time>
      </trkpt>
      <trkpt lat="48.46207" lon="2.71578">
        <ele>147</ele>
        <time>2017-05-17T09:54:23.637</time>
      </trkpt>
      <trkpt lat="48.46208" lon="2.71582">
        <ele>147</ele>
        <time>2017-05-17T09:54:24.641</time>
      </trkpt>
      <trkpt lat="48.4621" lon="2.71586">
        <ele>147</ele>
        <time>2017-05-17T09:54:25.639</time>
      </trkpt>
      <trkpt lat="48.46212" lon="2.7159">
        <ele>147</ele>
        <time>2017-05-17T09:54:26.639</time>
      </trkpt>
      <trkpt lat="48.46214" lon="2.71593">
        <ele>147</ele>
        <time>2017-05-17T09:54:27.638</time>
      </trkpt>
      <trkpt lat="48.46215" lon="2.71593">
        <ele>147</ele>
        <time>2017-05-17T09:54:28.640</time>
      </trkpt>
      <trkpt lat="48.46216" lon="2.71594">
        <ele>148</ele>
        <time>2017-05-17T09:54:29.642</time>
      </trkpt>
      <trkpt lat="48.46216" lon="2.71594">
        <ele>147</ele>
        <time>2017-05-17T09:54:30.637</time>
      </trkpt>
      <trkpt lat="48.46216" lon="2.71594">
        <ele>147</ele>
        <time>2017-05-17T09:54:31.636</time>
      </trkpt>
      <trkpt lat="48.46216" lon="2.71595">
        <ele>147</ele>
        <time>2017-05-17T09:54:32.636</time>
      </trkpt>
      <trkpt lat="48.46216" lon="2.71594">
        <ele>147</ele>
        <time>2017-05-17T09:54:33.637</time>
      </trkpt>
      <trkpt lat="48.46217" lon="2.71594">
        <ele>147</ele>
        <time>2017-05-17T09:54:34.639</time>
      </trkpt>
      <trkpt lat="48.46217" lon="2.71593">
        <ele>147</ele>
        <time>2017-05-17T09:54:35.637</time>
      </trkpt>
      <trkpt lat="48.46217" lon="2.71593">
        <ele>147</ele>
        <time>2017-05-17T09:54:36.636</time>
      </trkpt>
      <trkpt lat="48.46217" lon="2.71594">
        <ele>147</ele>
        <time>2017-05-17T09:54:37.637</time>
      </trkpt>
      <trkpt lat="48.46218" lon="2.71596">
        <ele>147</ele>
        <time>2017-05-17T09:54:38.641</time>
      </trkpt>
      <trkpt lat="48.4622" lon="2.71597">
        <ele>147</ele>
        <time>2017-05-17T09:54:39.643</time>
      </trkpt>
      <trkpt lat="48.46222" lon="2.716">
        <ele>146</ele>
        <time>2017-05-17T09:54:40.639</time>
      </trkpt>
      <trkpt lat="48.46224" lon="2.71604">
        <ele>146</ele>
        <time>2017-05-17T09:54:41.640</time>
      </trkpt>
      <trkpt lat="48.46226" lon="2.71608">
        <ele>147</ele>
        <time>2017-05-17T09:54:42.640</time>
      </trkpt>
      <trkpt lat="48.46229" lon="2.71611">
        <ele>146</ele>
        <time>2017-05-17T09:54:43.641</time>
      </trkpt>
      <trkpt lat="48.46231" lon="2.71615">
        <ele>146</ele>
        <time>2017-05-17T09:54:44.641</time>
      </trkpt>
      <trkpt lat="48.46232" lon="2.71621">
        <ele>147</ele>
        <time>2017-05-17T09:54:45.640</time>
      </trkpt>
      <trkpt lat="48.46232" lon="2.71625">
        <ele>146</ele>
        <time>2017-05-17T09:54:46.640</time>
      </trkpt>
      <trkpt lat="48.46234" lon="2.71629">
        <ele>147</ele>
        <time>2017-05-17T09:54:47.639</time>
      </trkpt>
      <trkpt lat="48.46235" lon="2.71633">
        <ele>147</ele>
        <time>2017-05-17T09:54:48.643</time>
      </trkpt>
      <trkpt lat="48.46238" lon="2.71636">
        <ele>147</ele>
        <time>2017-05-17T09:54:49.646</time>
      </trkpt>
      <trkpt lat="48.46239" lon="2.7164">
        <ele>147</ele>
        <time>2017-05-17T09:54:50.639</time>
      </trkpt>
      <trkpt lat="48.46242" lon="2.71645">
        <ele>147</ele>
        <time>2017-05-17T09:54:51.660</time>
      </trkpt>
      <trkpt lat="48.46244" lon="2.71648">
        <ele>147</ele>
        <time>2017-05-17T09:54:52.638</time>
      </trkpt>
      <trkpt lat="48.46246" lon="2.71653">
        <ele>147</ele>
        <time>2017-05-17T09:54:53.637</time>
      </trkpt>
      <trkpt lat="48.46248" lon="2.71658">
        <ele>146</ele>
        <time>2017-05-17T09:54:54.641</time>
      </trkpt>
      <trkpt lat="48.46251" lon="2.71662">
        <ele>147</ele>
        <time>2017-05-17T09:54:55.641</time>
      </trkpt>
      <trkpt lat="48.46254" lon="2.71667">
        <ele>147</ele>
        <time>2017-05-17T09:54:56.639</time>
      </trkpt>
      <trkpt lat="48.46256" lon="2.71672">
        <ele>147</ele>
        <time>2017-05-17T09:54:57.638</time>
      </trkpt>
      <trkpt lat="48.46259" lon="2.71677">
        <ele>147</ele>
        <time>2017-05-17T09:54:58.641</time>
      </trkpt>
      <trkpt lat="48.46262" lon="2.71682">
        <ele>147</ele>
        <time>2017-05-17T09:54:59.642</time>
      </trkpt>
      <trkpt lat="48.46264" lon="2.71686">
        <ele>147</ele>
        <time>2017-05-17T09:55:00.638</time>
      </trkpt>
      <trkpt lat="48.46266" lon="2.71691">
        <ele>146</ele>
        <time>2017-05-17T09:55:01.637</time>
      </trkpt>
      <trkpt lat="48.46269" lon="2.71698">
        <ele>146</ele>
        <time>2017-05-17T09:55:02.638</time>
      </trkpt>
      <trkpt lat="48.46271" lon="2.71704">
        <ele>146</ele>
        <time>2017-05-17T09:55:03.638</time>
      </trkpt>
      <trkpt lat="48.46275" lon="2.71709">
        <ele>146</ele>
        <time>2017-05-17T09:55:04.637</time>
      </trkpt>
      <trkpt lat="48.46278" lon="2.71715">
        <ele>146</ele>
        <time>2017-05-17T09:55:05.637</time>
      </trkpt>
      <trkpt lat="48.46282" lon="2.71721">
        <ele>146</ele>
        <time>2017-05-17T09:55:06.636</time>
      </trkpt>
      <trkpt lat="48.46285" lon="2.71726">
        <ele>145</ele>
        <time>2017-05-17T09:55:07.638</time>
      </trkpt>
      <trkpt lat="48.46288" lon="2.71732">
        <ele>145</ele>
        <time>2017-05-17T09:55:08.642</time>
      </trkpt>
      <trkpt lat="48.46291" lon="2.71738">
        <ele>146</ele>
        <time>2017-05-17T09:55:09.640</time>
      </trkpt>
      <trkpt lat="48.46294" lon="2.71744">
        <ele>146</ele>
        <time>2017-05-17T09:55:10.639</time>
      </trkpt>
      <trkpt lat="48.46297" lon="2.71749">
        <ele>145</ele>
        <time>2017-05-17T09:55:11.639</time>
      </trkpt>
      <trkpt lat="48.463" lon="2.71756">
        <ele>145</ele>
        <time>2017-05-17T09:55:12.639</time>
      </trkpt>
      <trkpt lat="48.46303" lon="2.71762">
        <ele>146</ele>
        <time>2017-05-17T09:55:13.639</time>
      </trkpt>
      <trkpt lat="48.46306" lon="2.71768">
        <ele>145</ele>
        <time>2017-05-17T09:55:14.639</time>
      </trkpt>
      <trkpt lat="48.46309" lon="2.71774">
        <ele>145</ele>
        <time>2017-05-17T09:55:15.638</time>
      </trkpt>
      <trkpt lat="48.46313" lon="2.71781">
        <ele>145</ele>
        <time>2017-05-17T09:55:16.640</time>
      </trkpt>
      <trkpt lat="48.46316" lon="2.71787">
        <ele>145</ele>
        <time>2017-05-17T09:55:17.638</time>
      </trkpt>
      <trkpt lat="48.4632" lon="2.71794">
        <ele>145</ele>
        <time>2017-05-17T09:55:18.653</time>
      </trkpt>
      <trkpt lat="48.46324" lon="2.71801">
        <ele>145</ele>
        <time>2017-05-17T09:55:19.653</time>
      </trkpt>
      <trkpt lat="48.46327" lon="2.71807">
        <ele>145</ele>
        <time>2017-05-17T09:55:20.639</time>
      </trkpt>
      <trkpt lat="48.46331" lon="2.71814">
        <ele>145</ele>
        <time>2017-05-17T09:55:21.638</time>
      </trkpt>
      <trkpt lat="48.46334" lon="2.7182">
        <ele>145</ele>
        <time>2017-05-17T09:55:22.638</time>
      </trkpt>
      <trkpt lat="48.46338" lon="2.71828">
        <ele>145</ele>
        <time>2017-05-17T09:55:23.639</time>
      </trkpt>
      <trkpt lat="48.46341" lon="2.71834">
        <ele>145</ele>
        <time>2017-05-17T09:55:24.641</time>
      </trkpt>
      <trkpt lat="48.46345" lon="2.71841">
        <ele>145</ele>
        <time>2017-05-17T09:55:25.638</time>
      </trkpt>
      <trkpt lat="48.46348" lon="2.71848">
        <ele>145</ele>
        <time>2017-05-17T09:55:26.638</time>
      </trkpt>
      <trkpt lat="48.46352" lon="2.71855">
        <ele>145</ele>
        <time>2017-05-17T09:55:27.639</time>
      </trkpt>
      <trkpt lat="48.46355" lon="2.71862">
        <ele>146</ele>
        <time>2017-05-17T09:55:28.640</time>
      </trkpt>
      <trkpt lat="48.46359" lon="2.71868">
        <ele>146</ele>
        <time>2017-05-17T09:55:29.643</time>
      </trkpt>
      <trkpt lat="48.46363" lon="2.71875">
        <ele>145</ele>
        <time>2017-05-17T09:55:30.638</time>
      </trkpt>
      <trkpt lat="48.46366" lon="2.71882">
        <ele>145</ele>
        <time>2017-05-17T09:55:31.637</time>
      </trkpt>
      <trkpt lat="48.4637" lon="2.71889">
        <ele>145</ele>
        <time>2017-05-17T09:55:32.638</time>
      </trkpt>
      <trkpt lat="48.46374" lon="2.71896">
        <ele>145</ele>
        <time>2017-05-17T09:55:33.638</time>
      </trkpt>
      <trkpt lat="48.46378" lon="2.71902">
        <ele>145</ele>
        <time>2017-05-17T09:55:34.641</time>
      </trkpt>
      <trkpt lat="48.46381" lon="2.7191">
        <ele>145</ele>
        <time>2017-05-17T09:55:35.637</time>
      </trkpt>
      <trkpt lat="48.46385" lon="2.71917">
        <ele>145</ele>
        <time>2017-05-17T09:55:36.638</time>
      </trkpt>
      <trkpt lat="48.46389" lon="2.71924">
        <ele>145</ele>
        <time>2017-05-17T09:55:37.637</time>
      </trkpt>
      <trkpt lat="48.46393" lon="2.71931">
        <ele>144</ele>
        <time>2017-05-17T09:55:38.640</time>
      </trkpt>
      <trkpt lat="48.46397" lon="2.71938">
        <ele>144</ele>
        <time>2017-05-17T09:55:39.665</time>
      </trkpt>
      <trkpt lat="48.464" lon="2.71946">
        <ele>144</ele>
        <time>2017-05-17T09:55:40.637</time>
      </trkpt>
      <trkpt lat="48.46403" lon="2.71953">
        <ele>143</ele>
        <time>2017-05-17T09:55:41.637</time>
      </trkpt>
      <trkpt lat="48.46407" lon="2.71959">
        <ele>144</ele>
        <time>2017-05-17T09:55:42.638</time>
      </trkpt>
      <trkpt lat="48.46411" lon="2.71967">
        <ele>144</ele>
        <time>2017-05-17T09:55:43.637</time>
      </trkpt>
      <trkpt lat="48.46414" lon="2.71973">
        <ele>144</ele>
        <time>2017-05-17T09:55:44.639</time>
      </trkpt>
      <trkpt lat="48.46418" lon="2.7198">
        <ele>144</ele>
        <time>2017-05-17T09:55:45.638</time>
      </trkpt>
      <trkpt lat="48.46422" lon="2.71987">
        <ele>145</ele>
        <time>2017-05-17T09:55:46.638</time>
      </trkpt>
      <trkpt lat="48.46426" lon="2.71993">
        <ele>144</ele>
        <time>2017-05-17T09:55:47.639</time>
      </trkpt>
      <trkpt lat="48.46428" lon="2.72">
        <ele>144</ele>
        <time>2017-05-17T09:55:48.647</time>
      </trkpt>
      <trkpt lat="48.46432" lon="2.72007">
        <ele>144</ele>
        <time>2017-05-17T09:55:49.650</time>
      </trkpt>
      <trkpt lat="48.46435" lon="2.72014">
        <ele>144</ele>
        <time>2017-05-17T09:55:50.637</time>
      </trkpt>
      <trkpt lat="48.46439" lon="2.72021">
        <ele>145</ele>
        <time>2017-05-17T09:55:51.636</time>
      </trkpt>
      <trkpt lat="48.46443" lon="2.72028">
        <ele>145</ele>
        <time>2017-05-17T09:55:52.636</time>
      </trkpt>
      <trkpt lat="48.46447" lon="2.72036">
        <ele>144</ele>
        <time>2017-05-17T09:55:53.640</time>
      </trkpt>
      <trkpt lat="48.4645" lon="2.72043">
        <ele>144</ele>
        <time>2017-05-17T09:55:54.638</time>
      </trkpt>
      <trkpt lat="48.46454" lon="2.7205">
        <ele>144</ele>
        <time>2017-05-17T09:55:55.636</time>
      </trkpt>
      <trkpt lat="48.46458" lon="2.72057">
        <ele>145</ele>
        <time>2017-05-17T09:55:56.637</time>
      </trkpt>
      <trkpt lat="48.46462" lon="2.72064">
        <ele>144</ele>
        <time>2017-05-17T09:55:57.638</time>
      </trkpt>
      <trkpt lat="48.46466" lon="2.72071">
        <ele>143</ele>
        <time>2017-05-17T09:55:58.640</time>
      </trkpt>
      <trkpt lat="48.46469" lon="2.72078">
        <ele>143</ele>
        <time>2017-05-17T09:55:59.641</time>
      </trkpt>
      <trkpt lat="48.46473" lon="2.72086">
        <ele>143</ele>
        <time>2017-05-17T09:56:00.637</time>
      </trkpt>
      <trkpt lat="48.46477" lon="2.72093">
        <ele>143</ele>
        <time>2017-05-17T09:56:01.638</time>
      </trkpt>
      <trkpt lat="48.46481" lon="2.721">
        <ele>143</ele>
        <time>2017-05-17T09:56:02.638</time>
      </trkpt>
      <trkpt lat="48.46485" lon="2.72107">
        <ele>143</ele>
        <time>2017-05-17T09:56:03.638</time>
      </trkpt>
      <trkpt lat="48.46489" lon="2.72114">
        <ele>142</ele>
        <time>2017-05-17T09:56:04.638</time>
      </trkpt>
      <trkpt lat="48.46493" lon="2.72122">
        <ele>142</ele>
        <time>2017-05-17T09:56:05.638</time>
      </trkpt>
      <trkpt lat="48.46497" lon="2.72129">
        <ele>142</ele>
        <time>2017-05-17T09:56:06.640</time>
      </trkpt>
      <trkpt lat="48.46501" lon="2.72136">
        <ele>143</ele>
        <time>2017-05-17T09:56:07.641</time>
      </trkpt>
      <trkpt lat="48.46505" lon="2.72143">
        <ele>143</ele>
        <time>2017-05-17T09:56:08.644</time>
      </trkpt>
      <trkpt lat="48.46508" lon="2.7215">
        <ele>143</ele>
        <time>2017-05-17T09:56:09.646</time>
      </trkpt>
      <trkpt lat="48.46512" lon="2.72158">
        <ele>143</ele>
        <time>2017-05-17T09:56:10.642</time>
      </trkpt>
      <trkpt lat="48.46515" lon="2.72165">
        <ele>143</ele>
        <time>2017-05-17T09:56:11.641</time>
      </trkpt>
      <trkpt lat="48.46519" lon="2.72172">
        <ele>143</ele>
        <time>2017-05-17T09:56:12.638</time>
      </trkpt>
      <trkpt lat="48.46521" lon="2.7218">
        <ele>143</ele>
        <time>2017-05-17T09:56:13.637</time>
      </trkpt>
      <trkpt lat="48.46525" lon="2.72188">
        <ele>144</ele>
        <time>2017-05-17T09:56:14.640</time>
      </trkpt>
      <trkpt lat="48.4653" lon="2.72195">
        <ele>144</ele>
        <time>2017-05-17T09:56:15.634</time>
      </trkpt>
      <trkpt lat="48.46534" lon="2.72202">
        <ele>145</ele>
        <time>2017-05-17T09:56:16.638</time>
      </trkpt>
      <trkpt lat="48.46538" lon="2.7221">
        <ele>144</ele>
        <time>2017-05-17T09:56:17.638</time>
      </trkpt>
      <trkpt lat="48.46542" lon="2.72218">
        <ele>144</ele>
        <time>2017-05-17T09:56:18.644</time>
      </trkpt>
      <trkpt lat="48.46548" lon="2.72226">
        <ele>145</ele>
        <time>2017-05-17T09:56:19.646</time>
      </trkpt>
      <trkpt lat="48.46552" lon="2.72233">
        <ele>145</ele>
        <time>2017-05-17T09:56:20.639</time>
      </trkpt>
      <trkpt lat="48.46556" lon="2.72241">
        <ele>145</ele>
        <time>2017-05-17T09:56:21.638</time>
      </trkpt>
      <trkpt lat="48.46561" lon="2.72248">
        <ele>144</ele>
        <time>2017-05-17T09:56:22.638</time>
      </trkpt>
      <trkpt lat="48.46564" lon="2.72255">
        <ele>144</ele>
        <time>2017-05-17T09:56:23.640</time>
      </trkpt>
      <trkpt lat="48.46566" lon="2.72265">
        <ele>143</ele>
        <time>2017-05-17T09:56:24.641</time>
      </trkpt>
      <trkpt lat="48.46571" lon="2.72272">
        <ele>144</ele>
        <time>2017-05-17T09:56:25.640</time>
      </trkpt>
      <trkpt lat="48.46576" lon="2.72281">
        <ele>144</ele>
        <time>2017-05-17T09:56:26.639</time>
      </trkpt>
      <trkpt lat="48.4658" lon="2.72288">
        <ele>142</ele>
        <time>2017-05-17T09:56:27.640</time>
      </trkpt>
      <trkpt lat="48.46583" lon="2.72295">
        <ele>142</ele>
        <time>2017-05-17T09:56:28.643</time>
      </trkpt>
      <trkpt lat="48.46589" lon="2.72304">
        <ele>143</ele>
        <time>2017-05-17T09:56:29.642</time>
      </trkpt>
      <trkpt lat="48.46595" lon="2.7231">
        <ele>142</ele>
        <time>2017-05-17T09:56:30.638</time>
      </trkpt>
      <trkpt lat="48.46599" lon="2.72318">
        <ele>142</ele>
        <time>2017-05-17T09:56:31.639</time>
      </trkpt>
      <trkpt lat="48.46604" lon="2.72327">
        <ele>142</ele>
        <time>2017-05-17T09:56:32.639</time>
      </trkpt>
      <trkpt lat="48.46609" lon="2.72335">
        <ele>142</ele>
        <time>2017-05-17T09:56:33.639</time>
      </trkpt>
      <trkpt lat="48.46614" lon="2.72343">
        <ele>141</ele>
        <time>2017-05-17T09:56:34.641</time>
      </trkpt>
      <trkpt lat="48.46618" lon="2.72352">
        <ele>142</ele>
        <time>2017-05-17T09:56:35.639</time>
      </trkpt>
      <trkpt lat="48.46621" lon="2.7236">
        <ele>141</ele>
        <time>2017-05-17T09:56:36.639</time>
      </trkpt>
      <trkpt lat="48.46624" lon="2.72369">
        <ele>141</ele>
        <time>2017-05-17T09:56:37.639</time>
      </trkpt>
      <trkpt lat="48.46624" lon="2.72379">
        <ele>141</ele>
        <time>2017-05-17T09:56:38.642</time>
      </trkpt>
      <trkpt lat="48.46622" lon="2.72388">
        <ele>141</ele>
        <time>2017-05-17T09:56:39.643</time>
      </trkpt>
      <trkpt lat="48.46619" lon="2.72396">
        <ele>140</ele>
        <time>2017-05-17T09:56:40.639</time>
      </trkpt>
      <trkpt lat="48.46616" lon="2.72404">
        <ele>141</ele>
        <time>2017-05-17T09:56:41.639</time>
      </trkpt>
      <trkpt lat="48.46614" lon="2.72412">
        <ele>141</ele>
        <time>2017-05-17T09:56:42.639</time>
      </trkpt>
      <trkpt lat="48.46612" lon="2.72419">
        <ele>141</ele>
        <time>2017-05-17T09:56:43.638</time>
      </trkpt>
      <trkpt lat="48.46609" lon="2.72425">
        <ele>140</ele>
        <time>2017-05-17T09:56:44.640</time>
      </trkpt>
      <trkpt lat="48.46605" lon="2.72432">
        <ele>140</ele>
        <time>2017-05-17T09:56:45.640</time>
      </trkpt>
      <trkpt lat="48.46602" lon="2.7244">
        <ele>139</ele>
        <time>2017-05-17T09:56:46.639</time>
      </trkpt>
      <trkpt lat="48.46598" lon="2.72448">
        <ele>140</ele>
        <time>2017-05-17T09:56:47.640</time>
      </trkpt>
      <trkpt lat="48.46596" lon="2.72456">
        <ele>140</ele>
        <time>2017-05-17T09:56:48.644</time>
      </trkpt>
      <trkpt lat="48.46593" lon="2.72464">
        <ele>140</ele>
        <time>2017-05-17T09:56:49.646</time>
      </trkpt>
      <trkpt lat="48.4659" lon="2.7247">
        <ele>139</ele>
        <time>2017-05-17T09:56:50.639</time>
      </trkpt>
      <trkpt lat="48.46588" lon="2.72479">
        <ele>139</ele>
        <time>2017-05-17T09:56:51.637</time>
      </trkpt>
      <trkpt lat="48.46586" lon="2.72487">
        <ele>139</ele>
        <time>2017-05-17T09:56:52.639</time>
      </trkpt>
      <trkpt lat="48.46584" lon="2.72497">
        <ele>140</ele>
        <time>2017-05-17T09:56:53.640</time>
      </trkpt>
      <trkpt lat="48.46583" lon="2.72504">
        <ele>140</ele>
        <time>2017-05-17T09:56:54.640</time>
      </trkpt>
      <trkpt lat="48.46581" lon="2.72512">
        <ele>139</ele>
        <time>2017-05-17T09:56:55.637</time>
      </trkpt>
      <trkpt lat="48.46578" lon="2.7252">
        <ele>140</ele>
        <time>2017-05-17T09:56:56.638</time>
      </trkpt>
      <trkpt lat="48.46575" lon="2.72527">
        <ele>139</ele>
        <time>2017-05-17T09:56:57.640</time>
      </trkpt>
      <trkpt lat="48.46572" lon="2.72535">
        <ele>139</ele>
        <time>2017-05-17T09:56:58.641</time>
      </trkpt>
      <trkpt lat="48.4657" lon="2.72544">
        <ele>139</ele>
        <time>2017-05-17T09:56:59.641</time>
      </trkpt>
      <trkpt lat="48.46567" lon="2.72552">
        <ele>140</ele>
        <time>2017-05-17T09:57:00.639</time>
      </trkpt>
      <trkpt lat="48.46566" lon="2.72562">
        <ele>140</ele>
        <time>2017-05-17T09:57:01.638</time>
      </trkpt>
      <trkpt lat="48.46562" lon="2.72569">
        <ele>140</ele>
        <time>2017-05-17T09:57:02.638</time>
      </trkpt>
      <trkpt lat="48.4656" lon="2.72578">
        <ele>141</ele>
        <time>2017-05-17T09:57:03.638</time>
      </trkpt>
      <trkpt lat="48.46558" lon="2.72586">
        <ele>140</ele>
        <time>2017-05-17T09:57:04.639</time>
      </trkpt>
      <trkpt lat="48.46555" lon="2.72595">
        <ele>141</ele>
        <time>2017-05-17T09:57:05.638</time>
      </trkpt>
      <trkpt lat="48.46552" lon="2.72603">
        <ele>141</ele>
        <time>2017-05-17T09:57:06.637</time>
      </trkpt>
      <trkpt lat="48.4655" lon="2.72612">
        <ele>141</ele>
        <time>2017-05-17T09:57:07.638</time>
      </trkpt>
      <trkpt lat="48.46546" lon="2.72619">
        <ele>141</ele>
        <time>2017-05-17T09:57:08.641</time>
      </trkpt>
      <trkpt lat="48.46545" lon="2.72628">
        <ele>141</ele>
        <time>2017-05-17T09:57:09.642</time>
      </trkpt>
      <trkpt lat="48.46542" lon="2.72635">
        <ele>142</ele>
        <time>2017-05-17T09:57:10.638</time>
      </trkpt>
      <trkpt lat="48.46539" lon="2.72644">
        <ele>142</ele>
        <time>2017-05-17T09:57:11.639</time>
      </trkpt>
      <trkpt lat="48.46534" lon="2.7265">
        <ele>142</ele>
        <time>2017-05-17T09:57:12.640</time>
      </trkpt>
      <trkpt lat="48.46533" lon="2.72657">
        <ele>142</ele>
        <time>2017-05-17T09:57:13.639</time>
      </trkpt>
      <trkpt lat="48.46529" lon="2.72664">
        <ele>142</ele>
        <time>2017-05-17T09:57:14.641</time>
      </trkpt>
      <trkpt lat="48.46523" lon="2.72669">
        <ele>142</ele>
        <time>2017-05-17T09:57:15.642</time>
      </trkpt>
      <trkpt lat="48.46521" lon="2.72678">
        <ele>141</ele>
        <time>2017-05-17T09:57:16.640</time>
      </trkpt>
      <trkpt lat="48.4652" lon="2.72686">
        <ele>141</ele>
        <time>2017-05-17T09:57:17.641</time>
      </trkpt>
      <trkpt lat="48.46517" lon="2.72695">
        <ele>141</ele>
        <time>2017-05-17T09:57:18.644</time>
      </trkpt>
      <trkpt lat="48.46513" lon="2.72702">
        <ele>143</ele>
        <time>2017-05-17T09:57:19.648</time>
      </trkpt>
      <trkpt lat="48.46508" lon="2.72709">
        <ele>142</ele>
        <time>2017-05-17T09:57:20.641</time>
      </trkpt>
      <trkpt lat="48.46504" lon="2.72716">
        <ele>142</ele>
        <time>2017-05-17T09:57:21.641</time>
      </trkpt>
      <trkpt lat="48.46502" lon="2.72725">
        <ele>142</ele>
        <time>2017-05-17T09:57:22.642</time>
      </trkpt>
      <trkpt lat="48.46502" lon="2.72733">
        <ele>142</ele>
        <time>2017-05-17T09:57:23.640</time>
      </trkpt>
      <trkpt lat="48.46499" lon="2.72741">
        <ele>143</ele>
        <time>2017-05-17T09:57:24.642</time>
      </trkpt>
      <trkpt lat="48.46496" lon="2.7275">
        <ele>143</ele>
        <time>2017-05-17T09:57:25.640</time>
      </trkpt>
      <trkpt lat="48.46494" lon="2.72758">
        <ele>143</ele>
        <time>2017-05-17T09:57:26.641</time>
      </trkpt>
      <trkpt lat="48.4649" lon="2.72766">
        <ele>143</ele>
        <time>2017-05-17T09:57:27.640</time>
      </trkpt>
      <trkpt lat="48.4649" lon="2.72775">
        <ele>143</ele>
        <time>2017-05-17T09:57:28.643</time>
      </trkpt>
      <trkpt lat="48.46487" lon="2.72783">
        <ele>142</ele>
        <time>2017-05-17T09:57:29.645</time>
      </trkpt>
      <trkpt lat="48.46484" lon="2.7279">
        <ele>142</ele>
        <time>2017-05-17T09:57:30.639</time>
      </trkpt>
      <trkpt lat="48.46482" lon="2.72798">
        <ele>142</ele>
        <time>2017-05-17T09:57:31.639</time>
      </trkpt>
      <trkpt lat="48.46479" lon="2.72806">
        <ele>142</ele>
        <time>2017-05-17T09:57:32.640</time>
      </trkpt>
      <trkpt lat="48.46476" lon="2.72813">
        <ele>143</ele>
        <time>2017-05-17T09:57:33.640</time>
      </trkpt>
      <trkpt lat="48.46473" lon="2.7282">
        <ele>143</ele>
        <time>2017-05-17T09:57:34.646</time>
      </trkpt>
      <trkpt lat="48.4647" lon="2.72828">
        <ele>144</ele>
        <time>2017-05-17T09:57:35.641</time>
      </trkpt>
      <trkpt lat="48.46466" lon="2.72836">
        <ele>143</ele>
        <time>2017-05-17T09:57:36.639</time>
      </trkpt>
      <trkpt lat="48.46464" lon="2.72844">
        <ele>142</ele>
        <time>2017-05-17T09:57:37.639</time>
      </trkpt>
      <trkpt lat="48.46462" lon="2.72853">
        <ele>143</ele>
        <time>2017-05-17T09:57:38.643</time>
      </trkpt>
      <trkpt lat="48.4646" lon="2.72861">
        <ele>143</ele>
        <time>2017-05-17T09:57:39.645</time>
      </trkpt>
      <trkpt lat="48.46458" lon="2.7287">
        <ele>143</ele>
        <time>2017-05-17T09:57:40.639</time>
      </trkpt>
      <trkpt lat="48.46454" lon="2.72878">
        <ele>144</ele>
        <time>2017-05-17T09:57:41.639</time>
      </trkpt>
      <trkpt lat="48.46451" lon="2.72885">
        <ele>144</ele>
        <time>2017-05-17T09:57:42.639</time>
      </trkpt>
      <trkpt lat="48.46447" lon="2.72893">
        <ele>145</ele>
        <time>2017-05-17T09:57:43.639</time>
      </trkpt>
      <trkpt lat="48.46445" lon="2.72901">
        <ele>145</ele>
        <time>2017-05-17T09:57:44.641</time>
      </trkpt>
      <trkpt lat="48.46442" lon="2.72909">
        <ele>145</ele>
        <time>2017-05-17T09:57:45.639</time>
      </trkpt>
      <trkpt lat="48.46439" lon="2.72918">
        <ele>145</ele>
        <time>2017-05-17T09:57:46.640</time>
      </trkpt>
      <trkpt lat="48.46438" lon="2.72927">
        <ele>145</ele>
        <time>2017-05-17T09:57:47.640</time>
      </trkpt>
      <trkpt lat="48.46436" lon="2.72934">
        <ele>145</ele>
        <time>2017-05-17T09:57:48.645</time>
      </trkpt>
      <trkpt lat="48.46433" lon="2.72942">
        <ele>146</ele>
        <time>2017-05-17T09:57:49.646</time>
      </trkpt>
      <trkpt lat="48.46431" lon="2.7295">
        <ele>147</ele>
        <time>2017-05-17T09:57:50.639</time>
      </trkpt>
      <trkpt lat="48.46427" lon="2.72957">
        <ele>147</ele>
        <time>2017-05-17T09:57:51.642</time>
      </trkpt>
      <trkpt lat="48.46423" lon="2.72964">
        <ele>147</ele>
        <time>2017-05-17T09:57:52.640</time>
      </trkpt>
      <trkpt lat="48.4642" lon="2.72972">
        <ele>147</ele>
        <time>2017-05-17T09:57:53.640</time>
      </trkpt>
      <trkpt lat="48.46417" lon="2.72977">
        <ele>147</ele>
        <time>2017-05-17T09:57:54.641</time>
      </trkpt>
      <trkpt lat="48.46413" lon="2.72986">
        <ele>148</ele>
        <time>2017-05-17T09:57:55.640</time>
      </trkpt>
      <trkpt lat="48.46409" lon="2.72993">
        <ele>148</ele>
        <time>2017-05-17T09:57:56.639</time>
      </trkpt>
      <trkpt lat="48.46405" lon="2.72999">
        <ele>148</ele>
        <time>2017-05-17T09:57:57.638</time>
      </trkpt>
      <trkpt lat="48.464" lon="2.73006">
        <ele>149</ele>
        <time>2017-05-17T09:57:58.641</time>
      </trkpt>
      <trkpt lat="48.46396" lon="2.73013">
        <ele>149</ele>
        <time>2017-05-17T09:57:59.643</time>
      </trkpt>
      <trkpt lat="48.46393" lon="2.7302">
        <ele>149</ele>
        <time>2017-05-17T09:58:00.640</time>
      </trkpt>
      <trkpt lat="48.46389" lon="2.73026">
        <ele>149</ele>
        <time>2017-05-17T09:58:01.639</time>
      </trkpt>
      <trkpt lat="48.46384" lon="2.73033">
        <ele>148</ele>
        <time>2017-05-17T09:58:02.639</time>
      </trkpt>
      <trkpt lat="48.46379" lon="2.73039">
        <ele>148</ele>
        <time>2017-05-17T09:58:03.638</time>
      </trkpt>
      <trkpt lat="48.46375" lon="2.73046">
        <ele>148</ele>
        <time>2017-05-17T09:58:04.639</time>
      </trkpt>
      <trkpt lat="48.46372" lon="2.73053">
        <ele>147</ele>
        <time>2017-05-17T09:58:05.639</time>
      </trkpt>
      <trkpt lat="48.46367" lon="2.73058">
        <ele>146</ele>
        <time>2017-05-17T09:58:06.638</time>
      </trkpt>
      <trkpt lat="48.46363" lon="2.73066">
        <ele>146</ele>
        <time>2017-05-17T09:58:07.640</time>
      </trkpt>
      <trkpt lat="48.46358" lon="2.73072">
        <ele>145</ele>
        <time>2017-05-17T09:58:08.641</time>
      </trkpt>
      <trkpt lat="48.46353" lon="2.73079">
        <ele>146</ele>
        <time>2017-05-17T09:58:09.643</time>
      </trkpt>
      <trkpt lat="48.46349" lon="2.73085">
        <ele>147</ele>
        <time>2017-05-17T09:58:10.640</time>
      </trkpt>
      <trkpt lat="48.46345" lon="2.73093">
        <ele>147</ele>
        <time>2017-05-17T09:58:11.641</time>
      </trkpt>
      <trkpt lat="48.46341" lon="2.731">
        <ele>147</ele>
        <time>2017-05-17T09:58:12.639</time>
      </trkpt>
      <trkpt lat="48.46337" lon="2.73107">
        <ele>147</ele>
        <time>2017-05-17T09:58:13.642</time>
      </trkpt>
      <trkpt lat="48.46333" lon="2.73114">
        <ele>147</ele>
        <time>2017-05-17T09:58:14.642</time>
      </trkpt>
      <trkpt lat="48.4633" lon="2.73121">
        <ele>148</ele>
        <time>2017-05-17T09:58:15.641</time>
      </trkpt>
      <trkpt lat="48.46327" lon="2.73129">
        <ele>147</ele>
        <time>2017-05-17T09:58:16.640</time>
      </trkpt>
      <trkpt lat="48.46323" lon="2.73135">
        <ele>148</ele>
        <time>2017-05-17T09:58:17.639</time>
      </trkpt>
      <trkpt lat="48.4632" lon="2.73141">
        <ele>148</ele>
        <time>2017-05-17T09:58:18.644</time>
      </trkpt>
      <trkpt lat="48.46316" lon="2.73146">
        <ele>147</ele>
        <time>2017-05-17T09:58:19.648</time>
      </trkpt>
      <trkpt lat="48.46313" lon="2.73152">
        <ele>148</ele>
        <time>2017-05-17T09:58:20.641</time>
      </trkpt>
      <trkpt lat="48.4631" lon="2.73158">
        <ele>148</ele>
        <time>2017-05-17T09:58:21.642</time>
      </trkpt>
      <trkpt lat="48.46308" lon="2.73165">
        <ele>148</ele>
        <time>2017-05-17T09:58:22.641</time>
      </trkpt>
      <trkpt lat="48.46305" lon="2.7317">
        <ele>148</ele>
        <time>2017-05-17T09:58:23.639</time>
      </trkpt>
      <trkpt lat="48.46301" lon="2.73175">
        <ele>148</ele>
        <time>2017-05-17T09:58:24.642</time>
      </trkpt>
      <trkpt lat="48.46298" lon="2.7318">
        <ele>148</ele>
        <time>2017-05-17T09:58:25.640</time>
      </trkpt>
      <trkpt lat="48.46294" lon="2.73186">
        <ele>148</ele>
        <time>2017-05-17T09:58:26.641</time>
      </trkpt>
      <trkpt lat="48.46291" lon="2.73191">
        <ele>149</ele>
        <time>2017-05-17T09:58:27.639</time>
      </trkpt>
      <trkpt lat="48.46288" lon="2.73194">
        <ele>150</ele>
        <time>2017-05-17T09:58:28.641</time>
      </trkpt>
      <trkpt lat="48.46285" lon="2.73197">
        <ele>151</ele>
        <time>2017-05-17T09:58:29.643</time>
      </trkpt>
      <trkpt lat="48.46284" lon="2.73198">
        <ele>150</ele>
        <time>2017-05-17T09:58:30.640</time>
      </trkpt>
      <trkpt lat="48.46283" lon="2.73199">
        <ele>151</ele>
        <time>2017-05-17T09:58:31.639</time>
      </trkpt>
      <trkpt lat="48.46284" lon="2.73199">
        <ele>150</ele>
        <time>2017-05-17T09:58:32.639</time>
      </trkpt>
      <trkpt lat="48.46285" lon="2.732">
        <ele>150</ele>
        <time>2017-05-17T09:58:33.637</time>
      </trkpt>
      <trkpt lat="48.46285" lon="2.732">
        <ele>149</ele>
        <time>2017-05-17T09:58:34.639</time>
      </trkpt>
      <trkpt lat="48.46285" lon="2.732">
        <ele>150</ele>
        <time>2017-05-17T09:58:35.637</time>
      </trkpt>
      <trkpt lat="48.46285" lon="2.73201">
        <ele>150</ele>
        <time>2017-05-17T09:58:36.637</time>
      </trkpt>
      <trkpt lat="48.46285" lon="2.73202">
        <ele>150</ele>
        <time>2017-05-17T09:58:37.637</time>
      </trkpt>
      <trkpt lat="48.46285" lon="2.73202">
        <ele>150</ele>
        <time>2017-05-17T09:58:38.639</time>
      </trkpt>
      <trkpt lat="48.46284" lon="2.73202">
        <ele>150</ele>
        <time>2017-05-17T09:58:39.642</time>
      </trkpt>
      <trkpt lat="48.46284" lon="2.73202">
        <ele>151</ele>
        <time>2017-05-17T09:58:40.638</time>
      </trkpt>
      <trkpt lat="48.46284" lon="2.73202">
        <ele>151</ele>
        <time>2017-05-17T09:58:41.637</time>
      </trkpt>
      <trkpt lat="48.46284" lon="2.73202">
        <ele>151</ele>
        <time>2017-05-17T09:58:42.638</time>
      </trkpt>
      <trkpt lat="48.46284" lon="2.73202">
        <ele>151</ele>
        <time>2017-05-17T09:58:43.637</time>
      </trkpt>
      <trkpt lat="48.46284" lon="2.73202">
        <ele>151</ele>
        <time>2017-05-17T09:58:44.637</time>
      </trkpt>
      <trkpt lat="48.46284" lon="2.73202">
        <ele>151</ele>
        <time>2017-05-17T09:58:45.637</time>
      </trkpt>
      <trkpt lat="48.46284" lon="2.73202">
        <ele>151</ele>
        <time>2017-05-17T09:58:46.638</time>
      </trkpt>
      <trkpt lat="48.46284" lon="2.73202">
        <ele>151</ele>
        <time>2017-05-17T09:58:47.639</time>
      </trkpt>
      <trkpt lat="48.46284" lon="2.73202">
        <ele>151</ele>
        <time>2017-05-17T09:58:48.660</time>
      </trkpt>
      <trkpt lat="48.46284" lon="2.73202">
        <ele>151</ele>
        <time>2017-05-17T09:58:49.661</time>
      </trkpt>
      <trkpt lat="48.46283" lon="2.73206">
        <ele>151</ele>
        <time>2017-05-17T09:58:50.641</time>
      </trkpt>
      <trkpt lat="48.46281" lon="2.73208">
        <ele>150</ele>
        <time>2017-05-17T09:58:51.639</time>
      </trkpt>
      <trkpt lat="48.46279" lon="2.73212">
        <ele>149</ele>
        <time>2017-05-17T09:58:52.639</time>
      </trkpt>
      <trkpt lat="48.46277" lon="2.73216">
        <ele>148</ele>
        <time>2017-05-17T09:58:53.641</time>
      </trkpt>
      <trkpt lat="48.46274" lon="2.73222">
        <ele>148</ele>
        <time>2017-05-17T09:58:54.643</time>
      </trkpt>
      <trkpt lat="48.4627" lon="2.73226">
        <ele>148</ele>
        <time>2017-05-17T09:58:55.640</time>
      </trkpt>
      <trkpt lat="48.46267" lon="2.7323">
        <ele>147</ele>
        <time>2017-05-17T09:58:56.640</time>
      </trkpt>
      <trkpt lat="48.46263" lon="2.73236">
        <ele>148</ele>
        <time>2017-05-17T09:58:57.640</time>
      </trkpt>
      <trkpt lat="48.46261" lon="2.7324">
        <ele>148</ele>
        <time>2017-05-17T09:58:58.642</time>
      </trkpt>
      <trkpt lat="48.46258" lon="2.73246">
        <ele>147</ele>
        <time>2017-05-17T09:58:59.643</time>
      </trkpt>
      <trkpt lat="48.46254" lon="2.73252">
        <ele>147</ele>
        <time>2017-05-17T09:59:00.639</time>
      </trkpt>
      <trkpt lat="48.4625" lon="2.73258">
        <ele>148</ele>
        <time>2017-05-17T09:59:01.639</time>
      </trkpt>
      <trkpt lat="48.46247" lon="2.73262">
        <ele>147</ele>
        <time>2017-05-17T09:59:02.638</time>
      </trkpt>
      <trkpt lat="48.46243" lon="2.73268">
        <ele>146</ele>
        <time>2017-05-17T09:59:03.638</time>
      </trkpt>
      <trkpt lat="48.46239" lon="2.73274">
        <ele>144</ele>
        <time>2017-05-17T09:59:04.641</time>
      </trkpt>
      <trkpt lat="48.46236" lon="2.73279">
        <ele>143</ele>
        <time>2017-05-17T09:59:05.639</time>
      </trkpt>
      <trkpt lat="48.46233" lon="2.73284">
        <ele>143</ele>
        <time>2017-05-17T09:59:06.640</time>
      </trkpt>
      <trkpt lat="48.46231" lon="2.7329">
        <ele>144</ele>
        <time>2017-05-17T09:59:07.639</time>
      </trkpt>
      <trkpt lat="48.46228" lon="2.73296">
        <ele>144</ele>
        <time>2017-05-17T09:59:08.642</time>
      </trkpt>
      <trkpt lat="48.46225" lon="2.733">
        <ele>144</ele>
        <time>2017-05-17T09:59:09.645</time>
      </trkpt>
      <trkpt lat="48.46222" lon="2.73306">
        <ele>144</ele>
        <time>2017-05-17T09:59:10.638</time>
      </trkpt>
      <trkpt lat="48.4622" lon="2.73313">
        <ele>144</ele>
        <time>2017-05-17T09:59:11.638</time>
      </trkpt>
      <trkpt lat="48.46216" lon="2.73319">
        <ele>144</ele>
        <time>2017-05-17T09:59:12.639</time>
      </trkpt>
      <trkpt lat="48.46211" lon="2.73323">
        <ele>142</ele>
        <time>2017-05-17T09:59:13.640</time>
      </trkpt>
      <trkpt lat="48.46207" lon="2.73328">
        <ele>141</ele>
        <time>2017-05-17T09:59:14.641</time>
      </trkpt>
      <trkpt lat="48.46204" lon="2.73335">
        <ele>142</ele>
        <time>2017-05-17T09:59:15.640</time>
      </trkpt>
      <trkpt lat="48.46201" lon="2.7334">
        <ele>141</ele>
        <time>2017-05-17T09:59:16.644</time>
      </trkpt>
      <trkpt lat="48.46198" lon="2.73346">
        <ele>141</ele>
        <time>2017-05-17T09:59:17.640</time>
      </trkpt>
      <trkpt lat="48.46195" lon="2.73352">
        <ele>141</ele>
        <time>2017-05-17T09:59:18.646</time>
      </trkpt>
      <trkpt lat="48.46191" lon="2.73359">
        <ele>142</ele>
        <time>2017-05-17T09:59:19.644</time>
      </trkpt>
      <trkpt lat="48.46187" lon="2.73366">
        <ele>142</ele>
        <time>2017-05-17T09:59:20.639</time>
      </trkpt>
      <trkpt lat="48.46184" lon="2.73373">
        <ele>142</ele>
        <time>2017-05-17T09:59:21.639</time>
      </trkpt>
      <trkpt lat="48.4618" lon="2.73379">
        <ele>142</ele>
        <time>2017-05-17T09:59:22.640</time>
      </trkpt>
      <trkpt lat="48.46179" lon="2.73387">
        <ele>143</ele>
        <time>2017-05-17T09:59:23.640</time>
      </trkpt>
      <trkpt lat="48.46176" lon="2.73393">
        <ele>143</ele>
        <time>2017-05-17T09:59:24.640</time>
      </trkpt>
      <trkpt lat="48.46172" lon="2.73399">
        <ele>141</ele>
        <time>2017-05-17T09:59:25.639</time>
      </trkpt>
      <trkpt lat="48.46168" lon="2.73405">
        <ele>140</ele>
        <time>2017-05-17T09:59:26.639</time>
      </trkpt>
      <trkpt lat="48.46163" lon="2.7341">
        <ele>141</ele>
        <time>2017-05-17T09:59:27.639</time>
      </trkpt>
      <trkpt lat="48.46159" lon="2.73417">
        <ele>142</ele>
        <time>2017-05-17T09:59:28.642</time>
      </trkpt>
      <trkpt lat="48.46154" lon="2.73425">
        <ele>142</ele>
        <time>2017-05-17T09:59:29.644</time>
      </trkpt>
      <trkpt lat="48.46151" lon="2.73432">
        <ele>142</ele>
        <time>2017-05-17T09:59:30.639</time>
      </trkpt>
      <trkpt lat="48.46148" lon="2.73438">
        <ele>141</ele>
        <time>2017-05-17T09:59:31.639</time>
      </trkpt>
      <trkpt lat="48.46143" lon="2.73441">
        <ele>141</ele>
        <time>2017-05-17T09:59:32.640</time>
      </trkpt>
      <trkpt lat="48.46139" lon="2.73448">
        <ele>141</ele>
        <time>2017-05-17T09:59:33.638</time>
      </trkpt>
      <trkpt lat="48.46135" lon="2.73454">
        <ele>141</ele>
        <time>2017-05-17T09:59:34.640</time>
      </trkpt>
      <trkpt lat="48.46132" lon="2.73461">
        <ele>141</ele>
        <time>2017-05-17T09:59:35.637</time>
      </trkpt>
      <trkpt lat="48.46128" lon="2.73467">
        <ele>142</ele>
        <time>2017-05-17T09:59:36.637</time>
      </trkpt>
      <trkpt lat="48.46124" lon="2.73474">
        <ele>143</ele>
        <time>2017-05-17T09:59:37.638</time>
      </trkpt>
      <trkpt lat="48.46119" lon="2.73477">
        <ele>143</ele>
        <time>2017-05-17T09:59:38.642</time>
      </trkpt>
      <trkpt lat="48.46115" lon="2.73482">
        <ele>143</ele>
        <time>2017-05-17T09:59:39.642</time>
      </trkpt>
      <trkpt lat="48.46113" lon="2.73489">
        <ele>143</ele>
        <time>2017-05-17T09:59:40.638</time>
      </trkpt>
      <trkpt lat="48.46111" lon="2.73496">
        <ele>143</ele>
        <time>2017-05-17T09:59:41.638</time>
      </trkpt>
      <trkpt lat="48.46107" lon="2.73502">
        <ele>145</ele>
        <time>2017-05-17T09:59:42.639</time>
      </trkpt>
      <trkpt lat="48.46105" lon="2.73507">
        <ele>145</ele>
        <time>2017-05-17T09:59:43.639</time>
      </trkpt>
      <trkpt lat="48.46102" lon="2.73512">
        <ele>144</ele>
        <time>2017-05-17T09:59:44.634</time>
      </trkpt>
      <trkpt lat="48.46099" lon="2.73518">
        <ele>145</ele>
        <time>2017-05-17T09:59:45.640</time>
      </trkpt>
      <trkpt lat="48.46098" lon="2.73525">
        <ele>145</ele>
        <time>2017-05-17T09:59:46.638</time>
      </trkpt>
      <trkpt lat="48.46095" lon="2.73531">
        <ele>144</ele>
        <time>2017-05-17T09:59:47.638</time>
      </trkpt>
      <trkpt lat="48.46092" lon="2.73536">
        <ele>145</ele>
        <time>2017-05-17T09:59:48.641</time>
      </trkpt>
      <trkpt lat="48.46089" lon="2.73541">
        <ele>145</ele>
        <time>2017-05-17T09:59:49.643</time>
      </trkpt>
      <trkpt lat="48.46085" lon="2.73547">
        <ele>145</ele>
        <time>2017-05-17T09:59:50.640</time>
      </trkpt>
      <trkpt lat="48.46082" lon="2.73553">
        <ele>145</ele>
        <time>2017-05-17T09:59:51.639</time>
      </trkpt>
      <trkpt lat="48.46079" lon="2.73558">
        <ele>145</ele>
        <time>2017-05-17T09:59:52.640</time>
      </trkpt>
      <trkpt lat="48.46076" lon="2.73564">
        <ele>146</ele>
        <time>2017-05-17T09:59:53.639</time>
      </trkpt>
      <trkpt lat="48.46072" lon="2.7357">
        <ele>146</ele>
        <time>2017-05-17T09:59:54.639</time>
      </trkpt>
      <trkpt lat="48.46069" lon="2.73575">
        <ele>146</ele>
        <time>2017-05-17T09:59:55.639</time>
      </trkpt>
      <trkpt lat="48.46067" lon="2.73581">
        <ele>145</ele>
        <time>2017-05-17T09:59:56.639</time>
      </trkpt>
      <trkpt lat="48.46064" lon="2.73586">
        <ele>145</ele>
        <time>2017-05-17T09:59:57.637</time>
      </trkpt>
      <trkpt lat="48.46061" lon="2.73591">
        <ele>145</ele>
        <time>2017-05-17T09:59:58.641</time>
      </trkpt>
      <trkpt lat="48.46058" lon="2.73596">
        <ele>145</ele>
        <time>2017-05-17T09:59:59.643</time>
      </trkpt>
      <trkpt lat="48.46055" lon="2.73603">
        <ele>145</ele>
        <time>2017-05-17T10:00:00.813</time>
      </trkpt>
      <trkpt lat="48.46052" lon="2.73608">
        <ele>145</ele>
        <time>2017-05-17T10:00:01.639</time>
      </trkpt>
      <trkpt lat="48.46049" lon="2.73613">
        <ele>145</ele>
        <time>2017-05-17T10:00:02.640</time>
      </trkpt>
      <trkpt lat="48.46045" lon="2.73619">
        <ele>145</ele>
        <time>2017-05-17T10:00:03.639</time>
      </trkpt>
      <trkpt lat="48.46042" lon="2.73625">
        <ele>145</ele>
        <time>2017-05-17T10:00:04.640</time>
      </trkpt>
      <trkpt lat="48.46038" lon="2.73631">
        <ele>145</ele>
        <time>2017-05-17T10:00:05.637</time>
      </trkpt>
      <trkpt lat="48.46035" lon="2.73636">
        <ele>145</ele>
        <time>2017-05-17T10:00:06.638</time>
      </trkpt>
      <trkpt lat="48.46031" lon="2.73642">
        <ele>145</ele>
        <time>2017-05-17T10:00:07.640</time>
      </trkpt>
      <trkpt lat="48.46028" lon="2.73647">
        <ele>145</ele>
        <time>2017-05-17T10:00:08.641</time>
      </trkpt>
      <trkpt lat="48.46025" lon="2.73654">
        <ele>145</ele>
        <time>2017-05-17T10:00:09.642</time>
      </trkpt>
      <trkpt lat="48.46021" lon="2.7366">
        <ele>146</ele>
        <time>2017-05-17T10:00:10.638</time>
      </trkpt>
      <trkpt lat="48.46018" lon="2.73665">
        <ele>145</ele>
        <time>2017-05-17T10:00:11.637</time>
      </trkpt>
      <trkpt lat="48.46014" lon="2.73671">
        <ele>145</ele>
        <time>2017-05-17T10:00:12.638</time>
      </trkpt>
      <trkpt lat="48.46011" lon="2.73676">
        <ele>146</ele>
        <time>2017-05-17T10:00:13.639</time>
      </trkpt>
      <trkpt lat="48.46008" lon="2.73681">
        <ele>145</ele>
        <time>2017-05-17T10:00:14.641</time>
      </trkpt>
      <trkpt lat="48.46006" lon="2.73688">
        <ele>146</ele>
        <time>2017-05-17T10:00:15.641</time>
      </trkpt>
      <trkpt lat="48.46002" lon="2.73693">
        <ele>146</ele>
        <time>2017-05-17T10:00:16.641</time>
      </trkpt>
      <trkpt lat="48.46" lon="2.73699">
        <ele>146</ele>
        <time>2017-05-17T10:00:17.644</time>
      </trkpt>
      <trkpt lat="48.45997" lon="2.73705">
        <ele>145</ele>
        <time>2017-05-17T10:00:18.646</time>
      </trkpt>
      <trkpt lat="48.45994" lon="2.73711">
        <ele>145</ele>
        <time>2017-05-17T10:00:19.648</time>
      </trkpt>
      <trkpt lat="48.4599" lon="2.73717">
        <ele>145</ele>
        <time>2017-05-17T10:00:20.638</time>
      </trkpt>
      <trkpt lat="48.45986" lon="2.73722">
        <ele>146</ele>
        <time>2017-05-17T10:00:21.640</time>
      </trkpt>
      <trkpt lat="48.45983" lon="2.73727">
        <ele>146</ele>
        <time>2017-05-17T10:00:22.640</time>
      </trkpt>
      <trkpt lat="48.45979" lon="2.73732">
        <ele>146</ele>
        <time>2017-05-17T10:00:23.640</time>
      </trkpt>
      <trkpt lat="48.45976" lon="2.73737">
        <ele>146</ele>
        <time>2017-05-17T10:00:24.643</time>
      </trkpt>
      <trkpt lat="48.45974" lon="2.73743">
        <ele>145</ele>
        <time>2017-05-17T10:00:25.641</time>
      </trkpt>
      <trkpt lat="48.45971" lon="2.73749">
        <ele>146</ele>
        <time>2017-05-17T10:00:26.641</time>
      </trkpt>
      <trkpt lat="48.45967" lon="2.73754">
        <ele>146</ele>
        <time>2017-05-17T10:00:27.642</time>
      </trkpt>
      <trkpt lat="48.45963" lon="2.7376">
        <ele>146</ele>
        <time>2017-05-17T10:00:28.642</time>
      </trkpt>
      <trkpt lat="48.45959" lon="2.73765">
        <ele>146</ele>
        <time>2017-05-17T10:00:29.644</time>
      </trkpt>
      <trkpt lat="48.45955" lon="2.73772">
        <ele>147</ele>
        <time>2017-05-17T10:00:30.639</time>
      </trkpt>
      <trkpt lat="48.45952" lon="2.73778">
        <ele>146</ele>
        <time>2017-05-17T10:00:31.638</time>
      </trkpt>
      <trkpt lat="48.45949" lon="2.73784">
        <ele>146</ele>
        <time>2017-05-17T10:00:32.639</time>
      </trkpt>
      <trkpt lat="48.45945" lon="2.73789">
        <ele>146</ele>
        <time>2017-05-17T10:00:33.631</time>
      </trkpt>
      <trkpt lat="48.45942" lon="2.73794">
        <ele>146</ele>
        <time>2017-05-17T10:00:34.631</time>
      </trkpt>
      <trkpt lat="48.45938" lon="2.738">
        <ele>146</ele>
        <time>2017-05-17T10:00:35.632</time>
      </trkpt>
      <trkpt lat="48.45935" lon="2.73806">
        <ele>146</ele>
        <time>2017-05-17T10:00:36.633</time>
      </trkpt>
      <trkpt lat="48.45932" lon="2.73812">
        <ele>145</ele>
        <time>2017-05-17T10:00:37.631</time>
      </trkpt>
      <trkpt lat="48.45928" lon="2.73818">
        <ele>145</ele>
        <time>2017-05-17T10:00:38.635</time>
      </trkpt>
      <trkpt lat="48.45925" lon="2.73824">
        <ele>145</ele>
        <time>2017-05-17T10:00:39.634</time>
      </trkpt>
      <trkpt lat="48.45922" lon="2.73829">
        <ele>145</ele>
        <time>2017-05-17T10:00:40.632</time>
      </trkpt>
      <trkpt lat="48.4592" lon="2.73835">
        <ele>145</ele>
        <time>2017-05-17T10:00:41.633</time>
      </trkpt>
      <trkpt lat="48.45917" lon="2.73839">
        <ele>144</ele>
        <time>2017-05-17T10:00:42.633</time>
      </trkpt>
      <trkpt lat="48.45915" lon="2.73844">
        <ele>144</ele>
        <time>2017-05-17T10:00:43.641</time>
      </trkpt>
      <trkpt lat="48.45911" lon="2.73846">
        <ele>145</ele>
        <time>2017-05-17T10:00:44.642</time>
      </trkpt>
      <trkpt lat="48.45908" lon="2.73845">
        <ele>144</ele>
        <time>2017-05-17T10:00:45.640</time>
      </trkpt>
      <trkpt lat="48.45906" lon="2.73843">
        <ele>144</ele>
        <time>2017-05-17T10:00:46.652</time>
      </trkpt>
      <trkpt lat="48.45902" lon="2.7384">
        <ele>144</ele>
        <time>2017-05-17T10:00:47.631</time>
      </trkpt>
      <trkpt lat="48.459" lon="2.73837">
        <ele>143</ele>
        <time>2017-05-17T10:00:48.634</time>
      </trkpt>
      <trkpt lat="48.45897" lon="2.73834">
        <ele>143</ele>
        <time>2017-05-17T10:00:49.637</time>
      </trkpt>
      <trkpt lat="48.45891" lon="2.73828">
        <ele>143</ele>
        <time>2017-05-17T10:00:51.878</time>
      </trkpt>
      <trkpt lat="48.45887" lon="2.73825">
        <ele>143</ele>
        <time>2017-05-17T10:00:52.634</time>
      </trkpt>
      <trkpt lat="48.45882" lon="2.7382">
        <ele>143</ele>
        <time>2017-05-17T10:00:53.633</time>
      </trkpt>
      <trkpt lat="48.45878" lon="2.73815">
        <ele>143</ele>
        <time>2017-05-17T10:00:54.631</time>
      </trkpt>
      <trkpt lat="48.45874" lon="2.73811">
        <ele>143</ele>
        <time>2017-05-17T10:00:55.630</time>
      </trkpt>
      <trkpt lat="48.4587" lon="2.73807">
        <ele>143</ele>
        <time>2017-05-17T10:00:56.632</time>
      </trkpt>
      <trkpt lat="48.45866" lon="2.73804">
        <ele>142</ele>
        <time>2017-05-17T10:00:57.634</time>
      </trkpt>
      <trkpt lat="48.45862" lon="2.73802">
        <ele>141</ele>
        <time>2017-05-17T10:00:58.636</time>
      </trkpt>
      <trkpt lat="48.45858" lon="2.738">
        <ele>140</ele>
        <time>2017-05-17T10:00:59.636</time>
      </trkpt>
      <trkpt lat="48.45855" lon="2.73796">
        <ele>140</ele>
        <time>2017-05-17T10:01:00.635</time>
      </trkpt>
      <trkpt lat="48.4585" lon="2.73792">
        <ele>139</ele>
        <time>2017-05-17T10:01:01.634</time>
      </trkpt>
      <trkpt lat="48.45847" lon="2.73787">
        <ele>139</ele>
        <time>2017-05-17T10:01:02.636</time>
      </trkpt>
      <trkpt lat="48.45842" lon="2.73782">
        <ele>139</ele>
        <time>2017-05-17T10:01:03.635</time>
      </trkpt>
      <trkpt lat="48.4584" lon="2.73778">
        <ele>140</ele>
        <time>2017-05-17T10:01:04.637</time>
      </trkpt>
      <trkpt lat="48.45836" lon="2.73772">
        <ele>142</ele>
        <time>2017-05-17T10:01:05.637</time>
      </trkpt>
      <trkpt lat="48.45831" lon="2.73768">
        <ele>142</ele>
        <time>2017-05-17T10:01:06.635</time>
      </trkpt>
      <trkpt lat="48.45827" lon="2.73764">
        <ele>143</ele>
        <time>2017-05-17T10:01:07.635</time>
      </trkpt>
      <trkpt lat="48.45823" lon="2.73761">
        <ele>144</ele>
        <time>2017-05-17T10:01:08.637</time>
      </trkpt>
      <trkpt lat="48.45819" lon="2.7376">
        <ele>146</ele>
        <time>2017-05-17T10:01:09.639</time>
      </trkpt>
      <trkpt lat="48.45814" lon="2.73761">
        <ele>146</ele>
        <time>2017-05-17T10:01:10.639</time>
      </trkpt>
      <trkpt lat="48.4581" lon="2.73761">
        <ele>146</ele>
        <time>2017-05-17T10:01:11.636</time>
      </trkpt>
      <trkpt lat="48.45805" lon="2.7376">
        <ele>147</ele>
        <time>2017-05-17T10:01:12.637</time>
      </trkpt>
      <trkpt lat="48.458" lon="2.7376">
        <ele>147</ele>
        <time>2017-05-17T10:01:13.635</time>
      </trkpt>
      <trkpt lat="48.45795" lon="2.73761">
        <ele>147</ele>
        <time>2017-05-17T10:01:14.635</time>
      </trkpt>
      <trkpt lat="48.45789" lon="2.73761">
        <ele>147</ele>
        <time>2017-05-17T10:01:15.634</time>
      </trkpt>
      <trkpt lat="48.45784" lon="2.7376">
        <ele>147</ele>
        <time>2017-05-17T10:01:16.635</time>
      </trkpt>
      <trkpt lat="48.45779" lon="2.73761">
        <ele>147</ele>
        <time>2017-05-17T10:01:17.634</time>
      </trkpt>
      <trkpt lat="48.45774" lon="2.7376">
        <ele>146</ele>
        <time>2017-05-17T10:01:18.638</time>
      </trkpt>
      <trkpt lat="48.45769" lon="2.7376">
        <ele>146</ele>
        <time>2017-05-17T10:01:19.637</time>
      </trkpt>
      <trkpt lat="48.45765" lon="2.73759">
        <ele>146</ele>
        <time>2017-05-17T10:01:20.634</time>
      </trkpt>
      <trkpt lat="48.45759" lon="2.73758">
        <ele>146</ele>
        <time>2017-05-17T10:01:21.632</time>
      </trkpt>
      <trkpt lat="48.45754" lon="2.73758">
        <ele>145</ele>
        <time>2017-05-17T10:01:22.633</time>
      </trkpt>
      <trkpt lat="48.45749" lon="2.73757">
        <ele>145</ele>
        <time>2017-05-17T10:01:23.635</time>
      </trkpt>
      <trkpt lat="48.45743" lon="2.73757">
        <ele>145</ele>
        <time>2017-05-17T10:01:24.634</time>
      </trkpt>
      <trkpt lat="48.45739" lon="2.73757">
        <ele>145</ele>
        <time>2017-05-17T10:01:25.635</time>
      </trkpt>
      <trkpt lat="48.45734" lon="2.73756">
        <ele>145</ele>
        <time>2017-05-17T10:01:26.633</time>
      </trkpt>
      <trkpt lat="48.45727" lon="2.73755">
        <ele>145</ele>
        <time>2017-05-17T10:01:27.633</time>
      </trkpt>
      <trkpt lat="48.45721" lon="2.73754">
        <ele>145</ele>
        <time>2017-05-17T10:01:28.638</time>
      </trkpt>
      <trkpt lat="48.45715" lon="2.73753">
        <ele>144</ele>
        <time>2017-05-17T10:01:29.636</time>
      </trkpt>
      <trkpt lat="48.4571" lon="2.73751">
        <ele>145</ele>
        <time>2017-05-17T10:01:30.633</time>
      </trkpt>
      <trkpt lat="48.45704" lon="2.7375">
        <ele>145</ele>
        <time>2017-05-17T10:01:31.634</time>
      </trkpt>
      <trkpt lat="48.45698" lon="2.7375">
        <ele>146</ele>
        <time>2017-05-17T10:01:32.634</time>
      </trkpt>
      <trkpt lat="48.45694" lon="2.73748">
        <ele>145</ele>
        <time>2017-05-17T10:01:33.635</time>
      </trkpt>
      <trkpt lat="48.45687" lon="2.73748">
        <ele>145</ele>
        <time>2017-05-17T10:01:34.635</time>
      </trkpt>
      <trkpt lat="48.45681" lon="2.73749">
        <ele>144</ele>
        <time>2017-05-17T10:01:35.635</time>
      </trkpt>
      <trkpt lat="48.45677" lon="2.73748">
        <ele>145</ele>
        <time>2017-05-17T10:01:36.636</time>
      </trkpt>
      <trkpt lat="48.45672" lon="2.73747">
        <ele>144</ele>
        <time>2017-05-17T10:01:37.635</time>
      </trkpt>
      <trkpt lat="48.45667" lon="2.73746">
        <ele>143</ele>
        <time>2017-05-17T10:01:38.638</time>
      </trkpt>
      <trkpt lat="48.45661" lon="2.73745">
        <ele>144</ele>
        <time>2017-05-17T10:01:39.637</time>
      </trkpt>
      <trkpt lat="48.45656" lon="2.73746">
        <ele>144</ele>
        <time>2017-05-17T10:01:40.635</time>
      </trkpt>
      <trkpt lat="48.4565" lon="2.73747">
        <ele>144</ele>
        <time>2017-05-17T10:01:41.633</time>
      </trkpt>
      <trkpt lat="48.45644" lon="2.73747">
        <ele>144</ele>
        <time>2017-05-17T10:01:42.634</time>
      </trkpt>
      <trkpt lat="48.45638" lon="2.73748">
        <ele>145</ele>
        <time>2017-05-17T10:01:43.633</time>
      </trkpt>
      <trkpt lat="48.45633" lon="2.73747">
        <ele>145</ele>
        <time>2017-05-17T10:01:44.638</time>
      </trkpt>
      <trkpt lat="48.45628" lon="2.73746">
        <ele>145</ele>
        <time>2017-05-17T10:01:45.634</time>
      </trkpt>
      <trkpt lat="48.45622" lon="2.73746">
        <ele>145</ele>
        <time>2017-05-17T10:01:46.634</time>
      </trkpt>
      <trkpt lat="48.45616" lon="2.73745">
        <ele>145</ele>
        <time>2017-05-17T10:01:47.634</time>
      </trkpt>
      <trkpt lat="48.45611" lon="2.73743">
        <ele>145</ele>
        <time>2017-05-17T10:01:48.637</time>
      </trkpt>
      <trkpt lat="48.45607" lon="2.73743">
        <ele>145</ele>
        <time>2017-05-17T10:01:49.636</time>
      </trkpt>
      <trkpt lat="48.456" lon="2.73742">
        <ele>144</ele>
        <time>2017-05-17T10:01:50.632</time>
      </trkpt>
      <trkpt lat="48.45595" lon="2.73741">
        <ele>144</ele>
        <time>2017-05-17T10:01:51.632</time>
      </trkpt>
      <trkpt lat="48.45591" lon="2.7374">
        <ele>145</ele>
        <time>2017-05-17T10:01:52.633</time>
      </trkpt>
      <trkpt lat="48.45586" lon="2.73739">
        <ele>145</ele>
        <time>2017-05-17T10:01:53.633</time>
      </trkpt>
      <trkpt lat="48.45579" lon="2.7374">
        <ele>144</ele>
        <time>2017-05-17T10:01:54.632</time>
      </trkpt>
      <trkpt lat="48.45575" lon="2.73738">
        <ele>144</ele>
        <time>2017-05-17T10:01:55.634</time>
      </trkpt>
      <trkpt lat="48.4557" lon="2.73737">
        <ele>145</ele>
        <time>2017-05-17T10:01:56.632</time>
      </trkpt>
      <trkpt lat="48.45565" lon="2.73735">
        <ele>145</ele>
        <time>2017-05-17T10:01:57.632</time>
      </trkpt>
      <trkpt lat="48.4556" lon="2.73736">
        <ele>145</ele>
        <time>2017-05-17T10:01:58.634</time>
      </trkpt>
      <trkpt lat="48.45554" lon="2.73735">
        <ele>144</ele>
        <time>2017-05-17T10:01:59.635</time>
      </trkpt>
      <trkpt lat="48.4555" lon="2.73733">
        <ele>143</ele>
        <time>2017-05-17T10:02:01.160</time>
      </trkpt>
      <trkpt lat="48.45544" lon="2.73732">
        <ele>142</ele>
        <time>2017-05-17T10:02:01.634</time>
      </trkpt>
      <trkpt lat="48.4554" lon="2.73732">
        <ele>142</ele>
        <time>2017-05-17T10:02:02.633</time>
      </trkpt>
      <trkpt lat="48.45535" lon="2.73731">
        <ele>141</ele>
        <time>2017-05-17T10:02:03.633</time>
      </trkpt>
      <trkpt lat="48.4553" lon="2.7373">
        <ele>141</ele>
        <time>2017-05-17T10:02:04.634</time>
      </trkpt>
      <trkpt lat="48.45525" lon="2.73729">
        <ele>141</ele>
        <time>2017-05-17T10:02:05.633</time>
      </trkpt>
      <trkpt lat="48.45519" lon="2.7373">
        <ele>141</ele>
        <time>2017-05-17T10:02:06.634</time>
      </trkpt>
      <trkpt lat="48.45514" lon="2.73729">
        <ele>141</ele>
        <time>2017-05-17T10:02:07.635</time>
      </trkpt>
      <trkpt lat="48.45509" lon="2.73731">
        <ele>141</ele>
        <time>2017-05-17T10:02:08.638</time>
      </trkpt>
      <trkpt lat="48.45505" lon="2.73728">
        <ele>141</ele>
        <time>2017-05-17T10:02:09.636</time>
      </trkpt>
      <trkpt lat="48.455" lon="2.73728">
        <ele>142</ele>
        <time>2017-05-17T10:02:10.633</time>
      </trkpt>
      <trkpt lat="48.45495" lon="2.73725">
        <ele>140</ele>
        <time>2017-05-17T10:02:11.634</time>
      </trkpt>
      <trkpt lat="48.4549" lon="2.73724">
        <ele>140</ele>
        <time>2017-05-17T10:02:12.633</time>
      </trkpt>
      <trkpt lat="48.45485" lon="2.73723">
        <ele>141</ele>
        <time>2017-05-17T10:02:13.633</time>
      </trkpt>
      <trkpt lat="48.4548" lon="2.73722">
        <ele>140</ele>
        <time>2017-05-17T10:02:14.645</time>
      </trkpt>
      <trkpt lat="48.45476" lon="2.73721">
        <ele>139</ele>
        <time>2017-05-17T10:02:15.634</time>
      </trkpt>
      <trkpt lat="48.45469" lon="2.7372">
        <ele>138</ele>
        <time>2017-05-17T10:02:16.633</time>
      </trkpt>
      <trkpt lat="48.45463" lon="2.73721">
        <ele>139</ele>
        <time>2017-05-17T10:02:17.633</time>
      </trkpt>
      <trkpt lat="48.45458" lon="2.7372">
        <ele>140</ele>
        <time>2017-05-17T10:02:18.636</time>
      </trkpt>
      <trkpt lat="48.45451" lon="2.7372">
        <ele>140</ele>
        <time>2017-05-17T10:02:19.638</time>
      </trkpt>
      <trkpt lat="48.45445" lon="2.73719">
        <ele>140</ele>
        <time>2017-05-17T10:02:20.633</time>
      </trkpt>
      <trkpt lat="48.45439" lon="2.73718">
        <ele>140</ele>
        <time>2017-05-17T10:02:21.633</time>
      </trkpt>
      <trkpt lat="48.45434" lon="2.73716">
        <ele>140</ele>
        <time>2017-05-17T10:02:22.633</time>
      </trkpt>
      <trkpt lat="48.45429" lon="2.73716">
        <ele>142</ele>
        <time>2017-05-17T10:02:23.634</time>
      </trkpt>
      <trkpt lat="48.45425" lon="2.73716">
        <ele>143</ele>
        <time>2017-05-17T10:02:24.635</time>
      </trkpt>
      <trkpt lat="48.4542" lon="2.73715">
        <ele>144</ele>
        <time>2017-05-17T10:02:25.633</time>
      </trkpt>
      <trkpt lat="48.45415" lon="2.73713">
        <ele>144</ele>
        <time>2017-05-17T10:02:26.633</time>
      </trkpt>
      <trkpt lat="48.45409" lon="2.73713">
        <ele>145</ele>
        <time>2017-05-17T10:02:27.635</time>
      </trkpt>
      <trkpt lat="48.45403" lon="2.73714">
        <ele>145</ele>
        <time>2017-05-17T10:02:28.637</time>
      </trkpt>
      <trkpt lat="48.45398" lon="2.73713">
        <ele>145</ele>
        <time>2017-05-17T10:02:29.637</time>
      </trkpt>
      <trkpt lat="48.45393" lon="2.73712">
        <ele>145</ele>
        <time>2017-05-17T10:02:30.634</time>
      </trkpt>
      <trkpt lat="48.45389" lon="2.73712">
        <ele>146</ele>
        <time>2017-05-17T10:02:31.633</time>
      </trkpt>
      <trkpt lat="48.45384" lon="2.7371">
        <ele>146</ele>
        <time>2017-05-17T10:02:32.635</time>
      </trkpt>
      <trkpt lat="48.4538" lon="2.73708">
        <ele>146</ele>
        <time>2017-05-17T10:02:33.635</time>
      </trkpt>
      <trkpt lat="48.45375" lon="2.73708">
        <ele>146</ele>
        <time>2017-05-17T10:02:34.635</time>
      </trkpt>
      <trkpt lat="48.45372" lon="2.73709">
        <ele>145</ele>
        <time>2017-05-17T10:02:35.634</time>
      </trkpt>
      <trkpt lat="48.45368" lon="2.73708">
        <ele>145</ele>
        <time>2017-05-17T10:02:36.633</time>
      </trkpt>
      <trkpt lat="48.45364" lon="2.73709">
        <ele>146</ele>
        <time>2017-05-17T10:02:37.632</time>
      </trkpt>
      <trkpt lat="48.45361" lon="2.7371">
        <ele>146</ele>
        <time>2017-05-17T10:02:38.635</time>
      </trkpt>
      <trkpt lat="48.45358" lon="2.73708">
        <ele>146</ele>
        <time>2017-05-17T10:02:39.636</time>
      </trkpt>
      <trkpt lat="48.45355" lon="2.73707">
        <ele>146</ele>
        <time>2017-05-17T10:02:40.634</time>
      </trkpt>
      <trkpt lat="48.45352" lon="2.73706">
        <ele>146</ele>
        <time>2017-05-17T10:02:41.633</time>
      </trkpt>
      <trkpt lat="48.45348" lon="2.73705">
        <ele>147</ele>
        <time>2017-05-17T10:02:42.633</time>
      </trkpt>
      <trkpt lat="48.45345" lon="2.73703">
        <ele>147</ele>
        <time>2017-05-17T10:02:43.633</time>
      </trkpt>
      <trkpt lat="48.45342" lon="2.73701">
        <ele>147</ele>
        <time>2017-05-17T10:02:44.632</time>
      </trkpt>
      <trkpt lat="48.45339" lon="2.737">
        <ele>148</ele>
        <time>2017-05-17T10:02:45.633</time>
      </trkpt>
      <trkpt lat="48.45337" lon="2.73702">
        <ele>149</ele>
        <time>2017-05-17T10:02:46.634</time>
      </trkpt>
      <trkpt lat="48.45336" lon="2.73704">
        <ele>149</ele>
        <time>2017-05-17T10:02:47.633</time>
      </trkpt>
      <trkpt lat="48.45335" lon="2.73705">
        <ele>148</ele>
        <time>2017-05-17T10:02:48.635</time>
      </trkpt>
      <trkpt lat="48.45335" lon="2.73707">
        <ele>148</ele>
        <time>2017-05-17T10:02:49.635</time>
      </trkpt>
      <trkpt lat="48.45336" lon="2.73709">
        <ele>148</ele>
        <time>2017-05-17T10:02:50.633</time>
      </trkpt>
      <trkpt lat="48.45336" lon="2.73712">
        <ele>148</ele>
        <time>2017-05-17T10:02:51.632</time>
      </trkpt>
      <trkpt lat="48.45337" lon="2.73714">
        <ele>149</ele>
        <time>2017-05-17T10:02:52.634</time>
      </trkpt>
      <trkpt lat="48.45337" lon="2.73716">
        <ele>148</ele>
        <time>2017-05-17T10:02:53.633</time>
      </trkpt>
      <trkpt lat="48.45336" lon="2.73718">
        <ele>147</ele>
        <time>2017-05-17T10:02:54.633</time>
      </trkpt>
      <trkpt lat="48.45335" lon="2.73718">
        <ele>147</ele>
        <time>2017-05-17T10:02:55.632</time>
      </trkpt>
      <trkpt lat="48.45334" lon="2.73719">
        <ele>148</ele>
        <time>2017-05-17T10:02:56.631</time>
      </trkpt>
      <trkpt lat="48.45334" lon="2.7372">
        <ele>148</ele>
        <time>2017-05-17T10:02:57.632</time>
      </trkpt>
      <trkpt lat="48.45333" lon="2.73721">
        <ele>148</ele>
        <time>2017-05-17T10:02:58.634</time>
      </trkpt>
      <trkpt lat="48.45333" lon="2.73721">
        <ele>149</ele>
        <time>2017-05-17T10:02:59.633</time>
      </trkpt>
      <trkpt lat="48.45334" lon="2.73722">
        <ele>149</ele>
        <time>2017-05-17T10:03:00.636</time>
      </trkpt>
      <trkpt lat="48.45334" lon="2.73722">
        <ele>148</ele>
        <time>2017-05-17T10:03:01.632</time>
      </trkpt>
      <trkpt lat="48.45334" lon="2.73722">
        <ele>148</ele>
        <time>2017-05-17T10:03:02.631</time>
      </trkpt>
      <trkpt lat="48.45334" lon="2.73722">
        <ele>148</ele>
        <time>2017-05-17T10:03:03.631</time>
      </trkpt>
      <trkpt lat="48.45334" lon="2.73722">
        <ele>148</ele>
        <time>2017-05-17T10:03:04.631</time>
      </trkpt>
      <trkpt lat="48.45334" lon="2.73722">
        <ele>148</ele>
        <time>2017-05-17T10:03:05.631</time>
      </trkpt>
      <trkpt lat="48.45334" lon="2.73721">
        <ele>148</ele>
        <time>2017-05-17T10:03:06.630</time>
      </trkpt>
      <trkpt lat="48.45335" lon="2.73722">
        <ele>147</ele>
        <time>2017-05-17T10:03:07.632</time>
      </trkpt>
      <trkpt lat="48.45335" lon="2.73723">
        <ele>148</ele>
        <time>2017-05-17T10:03:08.635</time>
      </trkpt>
      <trkpt lat="48.45336" lon="2.73722">
        <ele>148</ele>
        <time>2017-05-17T10:03:09.636</time>
      </trkpt>
      <trkpt lat="48.45337" lon="2.73721">
        <ele>147</ele>
        <time>2017-05-17T10:03:10.634</time>
      </trkpt>
      <trkpt lat="48.45337" lon="2.73718">
        <ele>148</ele>
        <time>2017-05-17T10:03:11.633</time>
      </trkpt>
      <trkpt lat="48.45335" lon="2.73717">
        <ele>147</ele>
        <time>2017-05-17T10:03:12.634</time>
      </trkpt>
      <trkpt lat="48.45334" lon="2.73715">
        <ele>146</ele>
        <time>2017-05-17T10:03:13.634</time>
      </trkpt>
      <trkpt lat="48.45334" lon="2.73714">
        <ele>147</ele>
        <time>2017-05-17T10:03:14.634</time>
      </trkpt>
      <trkpt lat="48.45334" lon="2.73714">
        <ele>147</ele>
        <time>2017-05-17T10:03:15.632</time>
      </trkpt>
      <trkpt lat="48.45333" lon="2.73715">
        <ele>147</ele>
        <time>2017-05-17T10:03:16.632</time>
      </trkpt>
      <trkpt lat="48.45333" lon="2.73715">
        <ele>146</ele>
        <time>2017-05-17T10:03:17.632</time>
      </trkpt>
      <trkpt lat="48.45333" lon="2.73715">
        <ele>147</ele>
        <time>2017-05-17T10:03:18.636</time>
      </trkpt>
      <trkpt lat="48.45333" lon="2.73715">
        <ele>147</ele>
        <time>2017-05-17T10:03:19.635</time>
      </trkpt>
      <trkpt lat="48.45333" lon="2.73714">
        <ele>148</ele>
        <time>2017-05-17T10:03:20.629</time>
      </trkpt>
      <trkpt lat="48.45333" lon="2.73712">
        <ele>149</ele>
        <time>2017-05-17T10:03:21.630</time>
      </trkpt>
      <trkpt lat="48.45334" lon="2.73711">
        <ele>150</ele>
        <time>2017-05-17T10:03:22.629</time>
      </trkpt>
      <trkpt lat="48.45334" lon="2.73711">
        <ele>151</ele>
        <time>2017-05-17T10:03:23.630</time>
      </trkpt>
      <trkpt lat="48.45334" lon="2.73711">
        <ele>151</ele>
        <time>2017-05-17T10:03:24.631</time>
      </trkpt>
      <trkpt lat="48.45333" lon="2.7371">
        <ele>150</ele>
        <time>2017-05-17T10:03:25.632</time>
      </trkpt>
      <trkpt lat="48.45333" lon="2.73708">
        <ele>149</ele>
        <time>2017-05-17T10:03:26.733</time>
      </trkpt>
      <trkpt lat="48.45332" lon="2.73705">
        <ele>149</ele>
        <time>2017-05-17T10:03:27.632</time>
      </trkpt>
      <trkpt lat="48.45332" lon="2.73702">
        <ele>148</ele>
        <time>2017-05-17T10:03:28.636</time>
      </trkpt>
      <trkpt lat="48.45332" lon="2.73701">
        <ele>148</ele>
        <time>2017-05-17T10:03:29.636</time>
      </trkpt>
      <trkpt lat="48.45329" lon="2.73701">
        <ele>148</ele>
        <time>2017-05-17T10:03:30.632</time>
      </trkpt>
      <trkpt lat="48.45327" lon="2.737">
        <ele>148</ele>
        <time>2017-05-17T10:03:31.633</time>
      </trkpt>
      <trkpt lat="48.45326" lon="2.73701">
        <ele>148</ele>
        <time>2017-05-17T10:03:32.634</time>
      </trkpt>
      <trkpt lat="48.45324" lon="2.73701">
        <ele>148</ele>
        <time>2017-05-17T10:03:33.633</time>
      </trkpt>
      <trkpt lat="48.45322" lon="2.73702">
        <ele>147</ele>
        <time>2017-05-17T10:03:34.634</time>
      </trkpt>
      <trkpt lat="48.4532" lon="2.73702">
        <ele>147</ele>
        <time>2017-05-17T10:03:35.635</time>
      </trkpt>
      <trkpt lat="48.45319" lon="2.73701">
        <ele>147</ele>
        <time>2017-05-17T10:03:36.636</time>
      </trkpt>
      <trkpt lat="48.45316" lon="2.737">
        <ele>147</ele>
        <time>2017-05-17T10:03:37.634</time>
      </trkpt>
      <trkpt lat="48.45313" lon="2.737">
        <ele>147</ele>
        <time>2017-05-17T10:03:38.640</time>
      </trkpt>
      <trkpt lat="48.4531" lon="2.73701">
        <ele>146</ele>
        <time>2017-05-17T10:03:39.637</time>
      </trkpt>
      <trkpt lat="48.45307" lon="2.73701">
        <ele>146</ele>
        <time>2017-05-17T10:03:40.636</time>
      </trkpt>
      <trkpt lat="48.45303" lon="2.737">
        <ele>145</ele>
        <time>2017-05-17T10:03:41.636</time>
      </trkpt>
      <trkpt lat="48.453" lon="2.73699">
        <ele>145</ele>
        <time>2017-05-17T10:03:42.637</time>
      </trkpt>
      <trkpt lat="48.45296" lon="2.73698">
        <ele>146</ele>
        <time>2017-05-17T10:03:43.637</time>
      </trkpt>
      <trkpt lat="48.45292" lon="2.73699">
        <ele>145</ele>
        <time>2017-05-17T10:03:44.634</time>
      </trkpt>
      <trkpt lat="48.45289" lon="2.73698">
        <ele>146</ele>
        <time>2017-05-17T10:03:45.635</time>
      </trkpt>
      <trkpt lat="48.45285" lon="2.73697">
        <ele>147</ele>
        <time>2017-05-17T10:03:46.636</time>
      </trkpt>
      <trkpt lat="48.45282" lon="2.73696">
        <ele>147</ele>
        <time>2017-05-17T10:03:47.635</time>
      </trkpt>
      <trkpt lat="48.4528" lon="2.73695">
        <ele>148</ele>
        <time>2017-05-17T10:03:48.635</time>
      </trkpt>
      <trkpt lat="48.45276" lon="2.73694">
        <ele>148</ele>
        <time>2017-05-17T10:03:49.637</time>
      </trkpt>
      <trkpt lat="48.45271" lon="2.73693">
        <ele>149</ele>
        <time>2017-05-17T10:03:50.636</time>
      </trkpt>
      <trkpt lat="48.45266" lon="2.73693">
        <ele>150</ele>
        <time>2017-05-17T10:03:51.636</time>
      </trkpt>
      <trkpt lat="48.45263" lon="2.73692">
        <ele>151</ele>
        <time>2017-05-17T10:03:52.635</time>
      </trkpt>
      <trkpt lat="48.45259" lon="2.7369">
        <ele>151</ele>
        <time>2017-05-17T10:03:53.633</time>
      </trkpt>
      <trkpt lat="48.45255" lon="2.7369">
        <ele>152</ele>
        <time>2017-05-17T10:03:54.634</time>
      </trkpt>
      <trkpt lat="48.4525" lon="2.73689">
        <ele>152</ele>
        <time>2017-05-17T10:03:55.633</time>
      </trkpt>
      <trkpt lat="48.45246" lon="2.73688">
        <ele>152</ele>
        <time>2017-05-17T10:03:56.635</time>
      </trkpt>
      <trkpt lat="48.45241" lon="2.73688">
        <ele>151</ele>
        <time>2017-05-17T10:03:57.633</time>
      </trkpt>
      <trkpt lat="48.45236" lon="2.73687">
        <ele>151</ele>
        <time>2017-05-17T10:03:58.637</time>
      </trkpt>
      <trkpt lat="48.45231" lon="2.73687">
        <ele>151</ele>
        <time>2017-05-17T10:03:59.640</time>
      </trkpt>
      <trkpt lat="48.45227" lon="2.73686">
        <ele>151</ele>
        <time>2017-05-17T10:04:00.636</time>
      </trkpt>
      <trkpt lat="48.45224" lon="2.73688">
        <ele>150</ele>
        <time>2017-05-17T10:04:01.637</time>
      </trkpt>
      <trkpt lat="48.45223" lon="2.73689">
        <ele>151</ele>
        <time>2017-05-17T10:04:02.636</time>
      </trkpt>
      <trkpt lat="48.45223" lon="2.73692">
        <ele>151</ele>
        <time>2017-05-17T10:04:03.637</time>
      </trkpt>
      <trkpt lat="48.45223" lon="2.73696">
        <ele>151</ele>
        <time>2017-05-17T10:04:04.635</time>
      </trkpt>
      <trkpt lat="48.45223" lon="2.73699">
        <ele>150</ele>
        <time>2017-05-17T10:04:05.634</time>
      </trkpt>
      <trkpt lat="48.45223" lon="2.73703">
        <ele>150</ele>
        <time>2017-05-17T10:04:06.634</time>
      </trkpt>
      <trkpt lat="48.45224" lon="2.73706">
        <ele>150</ele>
        <time>2017-05-17T10:04:07.636</time>
      </trkpt>
      <trkpt lat="48.45223" lon="2.7371">
        <ele>150</ele>
        <time>2017-05-17T10:04:08.637</time>
      </trkpt>
      <trkpt lat="48.45224" lon="2.73714">
        <ele>149</ele>
        <time>2017-05-17T10:04:09.637</time>
      </trkpt>
      <trkpt lat="48.45223" lon="2.73719">
        <ele>150</ele>
        <time>2017-05-17T10:04:10.635</time>
      </trkpt>
      <trkpt lat="48.45222" lon="2.73725">
        <ele>150</ele>
        <time>2017-05-17T10:04:11.634</time>
      </trkpt>
      <trkpt lat="48.45221" lon="2.73729">
        <ele>150</ele>
        <time>2017-05-17T10:04:12.635</time>
      </trkpt>
      <trkpt lat="48.45222" lon="2.73735">
        <ele>150</ele>
        <time>2017-05-17T10:04:13.638</time>
      </trkpt>
      <trkpt lat="48.45222" lon="2.7374">
        <ele>149</ele>
        <time>2017-05-17T10:04:14.637</time>
      </trkpt>
      <trkpt lat="48.45223" lon="2.73746">
        <ele>150</ele>
        <time>2017-05-17T10:04:15.636</time>
      </trkpt>
      <trkpt lat="48.45224" lon="2.73749">
        <ele>149</ele>
        <time>2017-05-17T10:04:16.635</time>
      </trkpt>
      <trkpt lat="48.45224" lon="2.73754">
        <ele>150</ele>
        <time>2017-05-17T10:04:17.636</time>
      </trkpt>
      <trkpt lat="48.45226" lon="2.73759">
        <ele>151</ele>
        <time>2017-05-17T10:04:18.636</time>
      </trkpt>
      <trkpt lat="48.45227" lon="2.73765">
        <ele>149</ele>
        <time>2017-05-17T10:04:19.637</time>
      </trkpt>
      <trkpt lat="48.45227" lon="2.7377">
        <ele>149</ele>
        <time>2017-05-17T10:04:20.633</time>
      </trkpt>
      <trkpt lat="48.45228" lon="2.73775">
        <ele>148</ele>
        <time>2017-05-17T10:04:21.639</time>
      </trkpt>
      <trkpt lat="48.4523" lon="2.73778">
        <ele>148</ele>
        <time>2017-05-17T10:04:22.637</time>
      </trkpt>
      <trkpt lat="48.45232" lon="2.73781">
        <ele>148</ele>
        <time>2017-05-17T10:04:23.639</time>
      </trkpt>
      <trkpt lat="48.45234" lon="2.73784">
        <ele>149</ele>
        <time>2017-05-17T10:04:24.637</time>
      </trkpt>
      <trkpt lat="48.45236" lon="2.73786">
        <ele>149</ele>
        <time>2017-05-17T10:04:25.635</time>
      </trkpt>
      <trkpt lat="48.45237" lon="2.73789">
        <ele>149</ele>
        <time>2017-05-17T10:04:26.635</time>
      </trkpt>
      <trkpt lat="48.45238" lon="2.73794">
        <ele>150</ele>
        <time>2017-05-17T10:04:27.637</time>
      </trkpt>
      <trkpt lat="48.45239" lon="2.73799">
        <ele>150</ele>
        <time>2017-05-17T10:04:28.639</time>
      </trkpt>
      <trkpt lat="48.45238" lon="2.73803">
        <ele>150</ele>
        <time>2017-05-17T10:04:29.639</time>
      </trkpt>
      <trkpt lat="48.45237" lon="2.73809">
        <ele>150</ele>
        <time>2017-05-17T10:04:30.639</time>
      </trkpt>
      <trkpt lat="48.45235" lon="2.73813">
        <ele>150</ele>
        <time>2017-05-17T10:04:31.636</time>
      </trkpt>
      <trkpt lat="48.45234" lon="2.73817">
        <ele>150</ele>
        <time>2017-05-17T10:04:32.637</time>
      </trkpt>
      <trkpt lat="48.45233" lon="2.73823">
        <ele>150</ele>
        <time>2017-05-17T10:04:33.633</time>
      </trkpt>
      <trkpt lat="48.45231" lon="2.73828">
        <ele>150</ele>
        <time>2017-05-17T10:04:34.635</time>
      </trkpt>
      <trkpt lat="48.45232" lon="2.73834">
        <ele>150</ele>
        <time>2017-05-17T10:04:35.637</time>
      </trkpt>
      <trkpt lat="48.45232" lon="2.73837">
        <ele>150</ele>
        <time>2017-05-17T10:04:36.636</time>
      </trkpt>
      <trkpt lat="48.45231" lon="2.7384">
        <ele>150</ele>
        <time>2017-05-17T10:04:37.637</time>
      </trkpt>
      <trkpt lat="48.45228" lon="2.73845">
        <ele>151</ele>
        <time>2017-05-17T10:04:38.639</time>
      </trkpt>
      <trkpt lat="48.45228" lon="2.73849">
        <ele>151</ele>
        <time>2017-05-17T10:04:39.639</time>
      </trkpt>
      <trkpt lat="48.45227" lon="2.73854">
        <ele>152</ele>
        <time>2017-05-17T10:04:40.637</time>
      </trkpt>
      <trkpt lat="48.45226" lon="2.73858">
        <ele>151</ele>
        <time>2017-05-17T10:04:41.635</time>
      </trkpt>
      <trkpt lat="48.45226" lon="2.73863">
        <ele>151</ele>
        <time>2017-05-17T10:04:42.636</time>
      </trkpt>
      <trkpt lat="48.45226" lon="2.73869">
        <ele>151</ele>
        <time>2017-05-17T10:04:43.634</time>
      </trkpt>
      <trkpt lat="48.45225" lon="2.73874">
        <ele>151</ele>
        <time>2017-05-17T10:04:44.636</time>
      </trkpt>
      <trkpt lat="48.45224" lon="2.73878">
        <ele>152</ele>
        <time>2017-05-17T10:04:45.636</time>
      </trkpt>
      <trkpt lat="48.45224" lon="2.73883">
        <ele>151</ele>
        <time>2017-05-17T10:04:46.636</time>
      </trkpt>
      <trkpt lat="48.45223" lon="2.73887">
        <ele>151</ele>
        <time>2017-05-17T10:04:47.634</time>
      </trkpt>
      <trkpt lat="48.45223" lon="2.73891">
        <ele>153</ele>
        <time>2017-05-17T10:04:48.639</time>
      </trkpt>
      <trkpt lat="48.45222" lon="2.73896">
        <ele>154</ele>
        <time>2017-05-17T10:04:49.640</time>
      </trkpt>
      <trkpt lat="48.45222" lon="2.73901">
        <ele>154</ele>
        <time>2017-05-17T10:04:50.636</time>
      </trkpt>
      <trkpt lat="48.45221" lon="2.73906">
        <ele>155</ele>
        <time>2017-05-17T10:04:51.634</time>
      </trkpt>
      <trkpt lat="48.45221" lon="2.7391">
        <ele>156</ele>
        <time>2017-05-17T10:04:52.638</time>
      </trkpt>
      <trkpt lat="48.45221" lon="2.73915">
        <ele>157</ele>
        <time>2017-05-17T10:04:53.637</time>
      </trkpt>
      <trkpt lat="48.45222" lon="2.73919">
        <ele>157</ele>
        <time>2017-05-17T10:04:54.635</time>
      </trkpt>
      <trkpt lat="48.45222" lon="2.73922">
        <ele>156</ele>
        <time>2017-05-17T10:04:55.635</time>
      </trkpt>
      <trkpt lat="48.45222" lon="2.73926">
        <ele>156</ele>
        <time>2017-05-17T10:04:56.635</time>
      </trkpt>
      <trkpt lat="48.45224" lon="2.73931">
        <ele>157</ele>
        <time>2017-05-17T10:04:57.636</time>
      </trkpt>
      <trkpt lat="48.45225" lon="2.73936">
        <ele>158</ele>
        <time>2017-05-17T10:04:58.639</time>
      </trkpt>
      <trkpt lat="48.45225" lon="2.73941">
        <ele>158</ele>
        <time>2017-05-17T10:04:59.640</time>
      </trkpt>
      <trkpt lat="48.45226" lon="2.73946">
        <ele>158</ele>
        <time>2017-05-17T10:05:00.639</time>
      </trkpt>
      <trkpt lat="48.45227" lon="2.73951">
        <ele>159</ele>
        <time>2017-05-17T10:05:01.636</time>
      </trkpt>
      <trkpt lat="48.45228" lon="2.73954">
        <ele>159</ele>
        <time>2017-05-17T10:05:02.635</time>
      </trkpt>
      <trkpt lat="48.4523" lon="2.73958">
        <ele>159</ele>
        <time>2017-05-17T10:05:03.638</time>
      </trkpt>
      <trkpt lat="48.45231" lon="2.73961">
        <ele>158</ele>
        <time>2017-05-17T10:05:04.636</time>
      </trkpt>
      <trkpt lat="48.4523" lon="2.73964">
        <ele>158</ele>
        <time>2017-05-17T10:05:05.635</time>
      </trkpt>
      <trkpt lat="48.45231" lon="2.73967">
        <ele>157</ele>
        <time>2017-05-17T10:05:06.635</time>
      </trkpt>
      <trkpt lat="48.45231" lon="2.7397">
        <ele>156</ele>
        <time>2017-05-17T10:05:07.636</time>
      </trkpt>
      <trkpt lat="48.45232" lon="2.73973">
        <ele>155</ele>
        <time>2017-05-17T10:05:08.638</time>
      </trkpt>
      <trkpt lat="48.45232" lon="2.73976">
        <ele>155</ele>
        <time>2017-05-17T10:05:09.638</time>
      </trkpt>
      <trkpt lat="48.45233" lon="2.73979">
        <ele>155</ele>
        <time>2017-05-17T10:05:10.635</time>
      </trkpt>
      <trkpt lat="48.45233" lon="2.73982">
        <ele>154</ele>
        <time>2017-05-17T10:05:11.635</time>
      </trkpt>
      <trkpt lat="48.45233" lon="2.73983">
        <ele>153</ele>
        <time>2017-05-17T10:05:12.635</time>
      </trkpt>
      <trkpt lat="48.45234" lon="2.73986">
        <ele>152</ele>
        <time>2017-05-17T10:05:13.635</time>
      </trkpt>
      <trkpt lat="48.45235" lon="2.73989">
        <ele>152</ele>
        <time>2017-05-17T10:05:14.636</time>
      </trkpt>
      <trkpt lat="48.45235" lon="2.73992">
        <ele>153</ele>
        <time>2017-05-17T10:05:15.636</time>
      </trkpt>
      <trkpt lat="48.45235" lon="2.73995">
        <ele>153</ele>
        <time>2017-05-17T10:05:16.637</time>
      </trkpt>
      <trkpt lat="48.45237" lon="2.73997">
        <ele>154</ele>
        <time>2017-05-17T10:05:17.638</time>
      </trkpt>
      <trkpt lat="48.45239" lon="2.74001">
        <ele>153</ele>
        <time>2017-05-17T10:05:18.640</time>
      </trkpt>
      <trkpt lat="48.45241" lon="2.74004">
        <ele>154</ele>
        <time>2017-05-17T10:05:19.640</time>
      </trkpt>
      <trkpt lat="48.45242" lon="2.74007">
        <ele>155</ele>
        <time>2017-05-17T10:05:20.636</time>
      </trkpt>
      <trkpt lat="48.45243" lon="2.74009">
        <ele>155</ele>
        <time>2017-05-17T10:05:21.634</time>
      </trkpt>
      <trkpt lat="48.45245" lon="2.74012">
        <ele>156</ele>
        <time>2017-05-17T10:05:22.635</time>
      </trkpt>
      <trkpt lat="48.45247" lon="2.74016">
        <ele>157</ele>
        <time>2017-05-17T10:05:23.635</time>
      </trkpt>
      <trkpt lat="48.45248" lon="2.74019">
        <ele>158</ele>
        <time>2017-05-17T10:05:24.636</time>
      </trkpt>
      <trkpt lat="48.4525" lon="2.74022">
        <ele>158</ele>
        <time>2017-05-17T10:05:25.636</time>
      </trkpt>
      <trkpt lat="48.45252" lon="2.74025">
        <ele>158</ele>
        <time>2017-05-17T10:05:26.636</time>
      </trkpt>
      <trkpt lat="48.45254" lon="2.74028">
        <ele>158</ele>
        <time>2017-05-17T10:05:27.638</time>
      </trkpt>
      <trkpt lat="48.45256" lon="2.74032">
        <ele>159</ele>
        <time>2017-05-17T10:05:28.639</time>
      </trkpt>
      <trkpt lat="48.45257" lon="2.74037">
        <ele>160</ele>
        <time>2017-05-17T10:05:29.639</time>
      </trkpt>
      <trkpt lat="48.45259" lon="2.74041">
        <ele>161</ele>
        <time>2017-05-17T10:05:30.636</time>
      </trkpt>
      <trkpt lat="48.4526" lon="2.74045">
        <ele>162</ele>
        <time>2017-05-17T10:05:31.636</time>
      </trkpt>
      <trkpt lat="48.45262" lon="2.74048">
        <ele>163</ele>
        <time>2017-05-17T10:05:32.635</time>
      </trkpt>
      <trkpt lat="48.45264" lon="2.74052">
        <ele>163</ele>
        <time>2017-05-17T10:05:33.634</time>
      </trkpt>
      <trkpt lat="48.45265" lon="2.74055">
        <ele>163</ele>
        <time>2017-05-17T10:05:34.633</time>
      </trkpt>
      <trkpt lat="48.45266" lon="2.74058">
        <ele>163</ele>
        <time>2017-05-17T10:05:35.635</time>
      </trkpt>
      <trkpt lat="48.45266" lon="2.74062">
        <ele>162</ele>
        <time>2017-05-17T10:05:36.634</time>
      </trkpt>
      <trkpt lat="48.45267" lon="2.74065">
        <ele>162</ele>
        <time>2017-05-17T10:05:37.635</time>
      </trkpt>
      <trkpt lat="48.45269" lon="2.74069">
        <ele>162</ele>
        <time>2017-05-17T10:05:38.640</time>
      </trkpt>
      <trkpt lat="48.45271" lon="2.74073">
        <ele>162</ele>
        <time>2017-05-17T10:05:39.639</time>
      </trkpt>
      <trkpt lat="48.45272" lon="2.74077">
        <ele>162</ele>
        <time>2017-05-17T10:05:40.639</time>
      </trkpt>
      <trkpt lat="48.45274" lon="2.7408">
        <ele>163</ele>
        <time>2017-05-17T10:05:41.638</time>
      </trkpt>
      <trkpt lat="48.45275" lon="2.74084">
        <ele>163</ele>
        <time>2017-05-17T10:05:42.636</time>
      </trkpt>
      <trkpt lat="48.45276" lon="2.74089">
        <ele>162</ele>
        <time>2017-05-17T10:05:43.635</time>
      </trkpt>
      <trkpt lat="48.45278" lon="2.74093">
        <ele>161</ele>
        <time>2017-05-17T10:05:44.637</time>
      </trkpt>
      <trkpt lat="48.4528" lon="2.74098">
        <ele>161</ele>
        <time>2017-05-17T10:05:45.638</time>
      </trkpt>
      <trkpt lat="48.45282" lon="2.74104">
        <ele>161</ele>
        <time>2017-05-17T10:05:46.645</time>
      </trkpt>
      <trkpt lat="48.45283" lon="2.7411">
        <ele>161</ele>
        <time>2017-05-17T10:05:47.638</time>
      </trkpt>
      <trkpt lat="48.45284" lon="2.74115">
        <ele>159</ele>
        <time>2017-05-17T10:05:48.645</time>
      </trkpt>
      <trkpt lat="48.45284" lon="2.74122">
        <ele>159</ele>
        <time>2017-05-17T10:05:49.645</time>
      </trkpt>
      <trkpt lat="48.45285" lon="2.74128">
        <ele>159</ele>
        <time>2017-05-17T10:05:50.644</time>
      </trkpt>
      <trkpt lat="48.45285" lon="2.74134">
        <ele>159</ele>
        <time>2017-05-17T10:05:51.654</time>
      </trkpt>
      <trkpt lat="48.45285" lon="2.74141">
        <ele>159</ele>
        <time>2017-05-17T10:05:52.651</time>
      </trkpt>
      <trkpt lat="48.45286" lon="2.74146">
        <ele>159</ele>
        <time>2017-05-17T10:05:53.659</time>
      </trkpt>
      <trkpt lat="48.45286" lon="2.74153">
        <ele>158</ele>
        <time>2017-05-17T10:05:54.637</time>
      </trkpt>
      <trkpt lat="48.45287" lon="2.74159">
        <ele>159</ele>
        <time>2017-05-17T10:05:55.635</time>
      </trkpt>
      <trkpt lat="48.45287" lon="2.74164">
        <ele>157</ele>
        <time>2017-05-17T10:05:56.635</time>
      </trkpt>
      <trkpt lat="48.45288" lon="2.74171">
        <ele>156</ele>
        <time>2017-05-17T10:05:57.634</time>
      </trkpt>
      <trkpt lat="48.45287" lon="2.74176">
        <ele>156</ele>
        <time>2017-05-17T10:05:58.638</time>
      </trkpt>
      <trkpt lat="48.45287" lon="2.74182">
        <ele>156</ele>
        <time>2017-05-17T10:05:59.638</time>
      </trkpt>
      <trkpt lat="48.45287" lon="2.74187">
        <ele>156</ele>
        <time>2017-05-17T10:06:00.635</time>
      </trkpt>
      <trkpt lat="48.45289" lon="2.74192">
        <ele>156</ele>
        <time>2017-05-17T10:06:01.635</time>
      </trkpt>
      <trkpt lat="48.45291" lon="2.74199">
        <ele>155</ele>
        <time>2017-05-17T10:06:02.634</time>
      </trkpt>
      <trkpt lat="48.45293" lon="2.74205">
        <ele>156</ele>
        <time>2017-05-17T10:06:03.634</time>
      </trkpt>
      <trkpt lat="48.45295" lon="2.74211">
        <ele>155</ele>
        <time>2017-05-17T10:06:04.635</time>
      </trkpt>
      <trkpt lat="48.45295" lon="2.74217">
        <ele>155</ele>
        <time>2017-05-17T10:06:05.636</time>
      </trkpt>
      <trkpt lat="48.45297" lon="2.74222">
        <ele>155</ele>
        <time>2017-05-17T10:06:06.635</time>
      </trkpt>
      <trkpt lat="48.45298" lon="2.74227">
        <ele>155</ele>
        <time>2017-05-17T10:06:07.636</time>
      </trkpt>
      <trkpt lat="48.45298" lon="2.7423">
        <ele>154</ele>
        <time>2017-05-17T10:06:08.638</time>
      </trkpt>
      <trkpt lat="48.45299" lon="2.74232">
        <ele>155</ele>
        <time>2017-05-17T10:06:09.638</time>
      </trkpt>
      <trkpt lat="48.45298" lon="2.74234">
        <ele>155</ele>
        <time>2017-05-17T10:06:10.635</time>
      </trkpt>
      <trkpt lat="48.453" lon="2.74236">
        <ele>154</ele>
        <time>2017-05-17T10:06:11.635</time>
      </trkpt>
      <trkpt lat="48.45302" lon="2.74237">
        <ele>154</ele>
        <time>2017-05-17T10:06:12.635</time>
      </trkpt>
      <trkpt lat="48.45303" lon="2.74239">
        <ele>153</ele>
        <time>2017-05-17T10:06:13.635</time>
      </trkpt>
      <trkpt lat="48.45304" lon="2.74242">
        <ele>153</ele>
        <time>2017-05-17T10:06:14.633</time>
      </trkpt>
      <trkpt lat="48.45305" lon="2.74244">
        <ele>153</ele>
        <time>2017-05-17T10:06:15.633</time>
      </trkpt>
      <trkpt lat="48.45305" lon="2.74248">
        <ele>153</ele>
        <time>2017-05-17T10:06:16.633</time>
      </trkpt>
      <trkpt lat="48.45305" lon="2.7425">
        <ele>153</ele>
        <time>2017-05-17T10:06:17.635</time>
      </trkpt>
      <trkpt lat="48.45306" lon="2.74253">
        <ele>153</ele>
        <time>2017-05-17T10:06:18.646</time>
      </trkpt>
      <trkpt lat="48.45306" lon="2.74257">
        <ele>152</ele>
        <time>2017-05-17T10:06:19.644</time>
      </trkpt>
      <trkpt lat="48.45305" lon="2.74262">
        <ele>152</ele>
        <time>2017-05-17T10:06:20.634</time>
      </trkpt>
      <trkpt lat="48.45304" lon="2.74266">
        <ele>151</ele>
        <time>2017-05-17T10:06:21.636</time>
      </trkpt>
      <trkpt lat="48.45303" lon="2.74271">
        <ele>151</ele>
        <time>2017-05-17T10:06:22.636</time>
      </trkpt>
      <trkpt lat="48.45302" lon="2.74276">
        <ele>151</ele>
        <time>2017-05-17T10:06:23.634</time>
      </trkpt>
      <trkpt lat="48.45299" lon="2.74279">
        <ele>149</ele>
        <time>2017-05-17T10:06:24.634</time>
      </trkpt>
      <trkpt lat="48.45296" lon="2.74284">
        <ele>150</ele>
        <time>2017-05-17T10:06:25.634</time>
      </trkpt>
      <trkpt lat="48.45295" lon="2.74289">
        <ele>150</ele>
        <time>2017-05-17T10:06:26.633</time>
      </trkpt>
      <trkpt lat="48.45294" lon="2.74295">
        <ele>150</ele>
        <time>2017-05-17T10:06:27.637</time>
      </trkpt>
      <trkpt lat="48.45293" lon="2.743">
        <ele>150</ele>
        <time>2017-05-17T10:06:28.637</time>
      </trkpt>
      <trkpt lat="48.45292" lon="2.74306">
        <ele>150</ele>
        <time>2017-05-17T10:06:29.637</time>
      </trkpt>
      <trkpt lat="48.45291" lon="2.74311">
        <ele>150</ele>
        <time>2017-05-17T10:06:30.635</time>
      </trkpt>
      <trkpt lat="48.4529" lon="2.74316">
        <ele>149</ele>
        <time>2017-05-17T10:06:31.634</time>
      </trkpt>
      <trkpt lat="48.4529" lon="2.74321">
        <ele>148</ele>
        <time>2017-05-17T10:06:32.634</time>
      </trkpt>
      <trkpt lat="48.4529" lon="2.74327">
        <ele>148</ele>
        <time>2017-05-17T10:06:33.632</time>
      </trkpt>
      <trkpt lat="48.45288" lon="2.74331">
        <ele>147</ele>
        <time>2017-05-17T10:06:34.633</time>
      </trkpt>
      <trkpt lat="48.45288" lon="2.74337">
        <ele>147</ele>
        <time>2017-05-17T10:06:35.632</time>
      </trkpt>
      <trkpt lat="48.45287" lon="2.74343">
        <ele>147</ele>
        <time>2017-05-17T10:06:36.633</time>
      </trkpt>
      <trkpt lat="48.45286" lon="2.74349">
        <ele>147</ele>
        <time>2017-05-17T10:06:37.633</time>
      </trkpt>
      <trkpt lat="48.45285" lon="2.74356">
        <ele>147</ele>
        <time>2017-05-17T10:06:38.635</time>
      </trkpt>
      <trkpt lat="48.45284" lon="2.74363">
        <ele>147</ele>
        <time>2017-05-17T10:06:39.635</time>
      </trkpt>
      <trkpt lat="48.45283" lon="2.7437">
        <ele>146</ele>
        <time>2017-05-17T10:06:40.633</time>
      </trkpt>
      <trkpt lat="48.45282" lon="2.74377">
        <ele>146</ele>
        <time>2017-05-17T10:06:41.634</time>
      </trkpt>
      <trkpt lat="48.4528" lon="2.74384">
        <ele>146</ele>
        <time>2017-05-17T10:06:42.632</time>
      </trkpt>
      <trkpt lat="48.45279" lon="2.74392">
        <ele>146</ele>
        <time>2017-05-17T10:06:43.635</time>
      </trkpt>
      <trkpt lat="48.45278" lon="2.74399">
        <ele>146</ele>
        <time>2017-05-17T10:06:44.635</time>
      </trkpt>
      <trkpt lat="48.45277" lon="2.74406">
        <ele>146</ele>
        <time>2017-05-17T10:06:45.633</time>
      </trkpt>
      <trkpt lat="48.45276" lon="2.74412">
        <ele>146</ele>
        <time>2017-05-17T10:06:46.633</time>
      </trkpt>
      <trkpt lat="48.45274" lon="2.74419">
        <ele>145</ele>
        <time>2017-05-17T10:06:47.635</time>
      </trkpt>
      <trkpt lat="48.45274" lon="2.74426">
        <ele>146</ele>
        <time>2017-05-17T10:06:48.641</time>
      </trkpt>
      <trkpt lat="48.45272" lon="2.74433">
        <ele>146</ele>
        <time>2017-05-17T10:06:49.641</time>
      </trkpt>
      <trkpt lat="48.45271" lon="2.74439">
        <ele>146</ele>
        <time>2017-05-17T10:06:50.632</time>
      </trkpt>
      <trkpt lat="48.45269" lon="2.74447">
        <ele>146</ele>
        <time>2017-05-17T10:06:51.632</time>
      </trkpt>
      <trkpt lat="48.45268" lon="2.74454">
        <ele>146</ele>
        <time>2017-05-17T10:06:52.632</time>
      </trkpt>
      <trkpt lat="48.45267" lon="2.74462">
        <ele>146</ele>
        <time>2017-05-17T10:06:53.632</time>
      </trkpt>
      <trkpt lat="48.45265" lon="2.74469">
        <ele>146</ele>
        <time>2017-05-17T10:06:54.632</time>
      </trkpt>
      <trkpt lat="48.45264" lon="2.74476">
        <ele>146</ele>
        <time>2017-05-17T10:06:55.632</time>
      </trkpt>
      <trkpt lat="48.45262" lon="2.74483">
        <ele>146</ele>
        <time>2017-05-17T10:06:56.632</time>
      </trkpt>
      <trkpt lat="48.45262" lon="2.74491">
        <ele>146</ele>
        <time>2017-05-17T10:06:57.634</time>
      </trkpt>
      <trkpt lat="48.4526" lon="2.74498">
        <ele>146</ele>
        <time>2017-05-17T10:06:58.636</time>
      </trkpt>
      <trkpt lat="48.45259" lon="2.74506">
        <ele>147</ele>
        <time>2017-05-17T10:06:59.636</time>
      </trkpt>
      <trkpt lat="48.45258" lon="2.74512">
        <ele>147</ele>
        <time>2017-05-17T10:07:00.636</time>
      </trkpt>
      <trkpt lat="48.45257" lon="2.74519">
        <ele>145</ele>
        <time>2017-05-17T10:07:01.633</time>
      </trkpt>
      <trkpt lat="48.45256" lon="2.74525">
        <ele>146</ele>
        <time>2017-05-17T10:07:02.633</time>
      </trkpt>
      <trkpt lat="48.45254" lon="2.74532">
        <ele>146</ele>
        <time>2017-05-17T10:07:03.631</time>
      </trkpt>
      <trkpt lat="48.45253" lon="2.74539">
        <ele>146</ele>
        <time>2017-05-17T10:07:04.632</time>
      </trkpt>
      <trkpt lat="48.45252" lon="2.74547">
        <ele>146</ele>
        <time>2017-05-17T10:07:05.632</time>
      </trkpt>
      <trkpt lat="48.4525" lon="2.74554">
        <ele>146</ele>
        <time>2017-05-17T10:07:06.633</time>
      </trkpt>
      <trkpt lat="48.45249" lon="2.74562">
        <ele>146</ele>
        <time>2017-05-17T10:07:07.635</time>
      </trkpt>
      <trkpt lat="48.45248" lon="2.74569">
        <ele>145</ele>
        <time>2017-05-17T10:07:08.636</time>
      </trkpt>
      <trkpt lat="48.45247" lon="2.74576">
        <ele>146</ele>
        <time>2017-05-17T10:07:09.636</time>
      </trkpt>
      <trkpt lat="48.45246" lon="2.74585">
        <ele>146</ele>
        <time>2017-05-17T10:07:10.634</time>
      </trkpt>
      <trkpt lat="48.45245" lon="2.74592">
        <ele>147</ele>
        <time>2017-05-17T10:07:11.636</time>
      </trkpt>
      <trkpt lat="48.45245" lon="2.746">
        <ele>147</ele>
        <time>2017-05-17T10:07:12.634</time>
      </trkpt>
      <trkpt lat="48.45244" lon="2.74606">
        <ele>148</ele>
        <time>2017-05-17T10:07:13.634</time>
      </trkpt>
      <trkpt lat="48.45243" lon="2.74612">
        <ele>147</ele>
        <time>2017-05-17T10:07:14.634</time>
      </trkpt>
      <trkpt lat="48.45243" lon="2.74619">
        <ele>148</ele>
        <time>2017-05-17T10:07:15.635</time>
      </trkpt>
      <trkpt lat="48.45241" lon="2.74626">
        <ele>149</ele>
        <time>2017-05-17T10:07:16.635</time>
      </trkpt>
      <trkpt lat="48.4524" lon="2.74633">
        <ele>149</ele>
        <time>2017-05-17T10:07:17.635</time>
      </trkpt>
      <trkpt lat="48.45239" lon="2.7464">
        <ele>149</ele>
        <time>2017-05-17T10:07:18.643</time>
      </trkpt>
      <trkpt lat="48.45238" lon="2.74647">
        <ele>149</ele>
        <time>2017-05-17T10:07:19.643</time>
      </trkpt>
      <trkpt lat="48.45237" lon="2.74655">
        <ele>149</ele>
        <time>2017-05-17T10:07:20.637</time>
      </trkpt>
      <trkpt lat="48.45236" lon="2.74662">
        <ele>150</ele>
        <time>2017-05-17T10:07:21.636</time>
      </trkpt>
      <trkpt lat="48.45236" lon="2.74669">
        <ele>150</ele>
        <time>2017-05-17T10:07:22.635</time>
      </trkpt>
      <trkpt lat="48.45235" lon="2.74676">
        <ele>150</ele>
        <time>2017-05-17T10:07:23.636</time>
      </trkpt>
      <trkpt lat="48.45233" lon="2.74683">
        <ele>150</ele>
        <time>2017-05-17T10:07:24.636</time>
      </trkpt>
      <trkpt lat="48.45233" lon="2.74689">
        <ele>150</ele>
        <time>2017-05-17T10:07:25.636</time>
      </trkpt>
      <trkpt lat="48.45232" lon="2.74696">
        <ele>150</ele>
        <time>2017-05-17T10:07:26.636</time>
      </trkpt>
      <trkpt lat="48.45232" lon="2.74702">
        <ele>150</ele>
        <time>2017-05-17T10:07:27.635</time>
      </trkpt>
      <trkpt lat="48.45232" lon="2.74707">
        <ele>151</ele>
        <time>2017-05-17T10:07:28.638</time>
      </trkpt>
      <trkpt lat="48.45234" lon="2.74712">
        <ele>150</ele>
        <time>2017-05-17T10:07:29.636</time>
      </trkpt>
      <trkpt lat="48.45236" lon="2.74716">
        <ele>149</ele>
        <time>2017-05-17T10:07:30.634</time>
      </trkpt>
      <trkpt lat="48.45238" lon="2.74723">
        <ele>149</ele>
        <time>2017-05-17T10:07:31.634</time>
      </trkpt>
      <trkpt lat="48.45238" lon="2.74729">
        <ele>149</ele>
        <time>2017-05-17T10:07:32.633</time>
      </trkpt>
      <trkpt lat="48.45239" lon="2.74735">
        <ele>149</ele>
        <time>2017-05-17T10:07:33.634</time>
      </trkpt>
      <trkpt lat="48.45239" lon="2.74742">
        <ele>149</ele>
        <time>2017-05-17T10:07:34.633</time>
      </trkpt>
      <trkpt lat="48.45239" lon="2.74748">
        <ele>149</ele>
        <time>2017-05-17T10:07:35.633</time>
      </trkpt>
      <trkpt lat="48.45239" lon="2.74755">
        <ele>149</ele>
        <time>2017-05-17T10:07:36.633</time>
      </trkpt>
      <trkpt lat="48.45239" lon="2.74762">
        <ele>149</ele>
        <time>2017-05-17T10:07:37.633</time>
      </trkpt>
      <trkpt lat="48.4524" lon="2.74769">
        <ele>148</ele>
        <time>2017-05-17T10:07:38.636</time>
      </trkpt>
      <trkpt lat="48.4524" lon="2.74777">
        <ele>148</ele>
        <time>2017-05-17T10:07:39.637</time>
      </trkpt>
      <trkpt lat="48.45242" lon="2.74784">
        <ele>148</ele>
        <time>2017-05-17T10:07:40.633</time>
      </trkpt>
      <trkpt lat="48.45243" lon="2.74792">
        <ele>147</ele>
        <time>2017-05-17T10:07:41.633</time>
      </trkpt>
      <trkpt lat="48.45243" lon="2.748">
        <ele>147</ele>
        <time>2017-05-17T10:07:42.633</time>
      </trkpt>
      <trkpt lat="48.45243" lon="2.74808">
        <ele>147</ele>
        <time>2017-05-17T10:07:43.633</time>
      </trkpt>
      <trkpt lat="48.45244" lon="2.74816">
        <ele>146</ele>
        <time>2017-05-17T10:07:44.633</time>
      </trkpt>
      <trkpt lat="48.45244" lon="2.74824">
        <ele>146</ele>
        <time>2017-05-17T10:07:45.634</time>
      </trkpt>
      <trkpt lat="48.45245" lon="2.74832">
        <ele>146</ele>
        <time>2017-05-17T10:07:46.635</time>
      </trkpt>
      <trkpt lat="48.45245" lon="2.74839">
        <ele>146</ele>
        <time>2017-05-17T10:07:47.635</time>
      </trkpt>
      <trkpt lat="48.45245" lon="2.74847">
        <ele>145</ele>
        <time>2017-05-17T10:07:48.649</time>
      </trkpt>
      <trkpt lat="48.45246" lon="2.74854">
        <ele>145</ele>
        <time>2017-05-17T10:07:49.651</time>
      </trkpt>
      <trkpt lat="48.45246" lon="2.74858">
        <ele>144</ele>
        <time>2017-05-17T10:07:50.634</time>
      </trkpt>
      <trkpt lat="48.4524" lon="2.74861">
        <ele>144</ele>
        <time>2017-05-17T10:07:51.633</time>
      </trkpt>
      <trkpt lat="48.45235" lon="2.74864">
        <ele>144</ele>
        <time>2017-05-17T10:07:52.634</time>
      </trkpt>
      <trkpt lat="48.4523" lon="2.74863">
        <ele>144</ele>
        <time>2017-05-17T10:07:53.635</time>
      </trkpt>
      <trkpt lat="48.45226" lon="2.74864">
        <ele>144</ele>
        <time>2017-05-17T10:07:54.634</time>
      </trkpt>
      <trkpt lat="48.45221" lon="2.74865">
        <ele>144</ele>
        <time>2017-05-17T10:07:55.634</time>
      </trkpt>
      <trkpt lat="48.45215" lon="2.74866">
        <ele>143</ele>
        <time>2017-05-17T10:07:56.635</time>
      </trkpt>
      <trkpt lat="48.4521" lon="2.74866">
        <ele>143</ele>
        <time>2017-05-17T10:07:57.635</time>
      </trkpt>
      <trkpt lat="48.45204" lon="2.74866">
        <ele>144</ele>
        <time>2017-05-17T10:07:58.637</time>
      </trkpt>
      <trkpt lat="48.45198" lon="2.74866">
        <ele>144</ele>
        <time>2017-05-17T10:07:59.637</time>
      </trkpt>
      <trkpt lat="48.45192" lon="2.74867">
        <ele>143</ele>
        <time>2017-05-17T10:08:00.634</time>
      </trkpt>
      <trkpt lat="48.45185" lon="2.74866">
        <ele>144</ele>
        <time>2017-05-17T10:08:01.633</time>
      </trkpt>
      <trkpt lat="48.45179" lon="2.74867">
        <ele>144</ele>
        <time>2017-05-17T10:08:02.635</time>
      </trkpt>
      <trkpt lat="48.45172" lon="2.74867">
        <ele>144</ele>
        <time>2017-05-17T10:08:03.634</time>
      </trkpt>
      <trkpt lat="48.45166" lon="2.74867">
        <ele>144</ele>
        <time>2017-05-17T10:08:04.634</time>
      </trkpt>
      <trkpt lat="48.45161" lon="2.74868">
        <ele>144</ele>
        <time>2017-05-17T10:08:05.635</time>
      </trkpt>
      <trkpt lat="48.45159" lon="2.74867">
        <ele>145</ele>
        <time>2017-05-17T10:08:06.635</time>
      </trkpt>
      <trkpt lat="48.45156" lon="2.74868">
        <ele>145</ele>
        <time>2017-05-17T10:08:07.632</time>
      </trkpt>
      <trkpt lat="48.45153" lon="2.74871">
        <ele>145</ele>
        <time>2017-05-17T10:08:08.637</time>
      </trkpt>
      <trkpt lat="48.45153" lon="2.74875">
        <ele>145</ele>
        <time>2017-05-17T10:08:09.638</time>
      </trkpt>
      <trkpt lat="48.45153" lon="2.7488">
        <ele>145</ele>
        <time>2017-05-17T10:08:10.635</time>
      </trkpt>
      <trkpt lat="48.45153" lon="2.74884">
        <ele>145</ele>
        <time>2017-05-17T10:08:11.632</time>
      </trkpt>
      <trkpt lat="48.45152" lon="2.74889">
        <ele>145</ele>
        <time>2017-05-17T10:08:12.632</time>
      </trkpt>
      <trkpt lat="48.45151" lon="2.74895">
        <ele>145</ele>
        <time>2017-05-17T10:08:13.632</time>
      </trkpt>
      <trkpt lat="48.45151" lon="2.74901">
        <ele>144</ele>
        <time>2017-05-17T10:08:14.633</time>
      </trkpt>
      <trkpt lat="48.4515" lon="2.74908">
        <ele>144</ele>
        <time>2017-05-17T10:08:15.632</time>
      </trkpt>
      <trkpt lat="48.45149" lon="2.74915">
        <ele>144</ele>
        <time>2017-05-17T10:08:16.631</time>
      </trkpt>
      <trkpt lat="48.45148" lon="2.74922">
        <ele>144</ele>
        <time>2017-05-17T10:08:17.631</time>
      </trkpt>
      <trkpt lat="48.45148" lon="2.74929">
        <ele>143</ele>
        <time>2017-05-17T10:08:18.644</time>
      </trkpt>
      <trkpt lat="48.45147" lon="2.74936">
        <ele>144</ele>
        <time>2017-05-17T10:08:19.642</time>
      </trkpt>
      <trkpt lat="48.45147" lon="2.74943">
        <ele>144</ele>
        <time>2017-05-17T10:08:20.634</time>
      </trkpt>
      <trkpt lat="48.45148" lon="2.74949">
        <ele>143</ele>
        <time>2017-05-17T10:08:21.632</time>
      </trkpt>
      <trkpt lat="48.45149" lon="2.74955">
        <ele>144</ele>
        <time>2017-05-17T10:08:22.633</time>
      </trkpt>
      <trkpt lat="48.45151" lon="2.74961">
        <ele>143</ele>
        <time>2017-05-17T10:08:23.633</time>
      </trkpt>
      <trkpt lat="48.45153" lon="2.74966">
        <ele>143</ele>
        <time>2017-05-17T10:08:24.633</time>
      </trkpt>
      <trkpt lat="48.45157" lon="2.7497">
        <ele>143</ele>
        <time>2017-05-17T10:08:25.634</time>
      </trkpt>
      <trkpt lat="48.45158" lon="2.74976">
        <ele>143</ele>
        <time>2017-05-17T10:08:26.632</time>
      </trkpt>
      <trkpt lat="48.45159" lon="2.74983">
        <ele>143</ele>
        <time>2017-05-17T10:08:27.633</time>
      </trkpt>
      <trkpt lat="48.45158" lon="2.74989">
        <ele>143</ele>
        <time>2017-05-17T10:08:28.635</time>
      </trkpt>
      <trkpt lat="48.45157" lon="2.74996">
        <ele>143</ele>
        <time>2017-05-17T10:08:29.636</time>
      </trkpt>
      <trkpt lat="48.45156" lon="2.75002">
        <ele>142</ele>
        <time>2017-05-17T10:08:30.633</time>
      </trkpt>
      <trkpt lat="48.45156" lon="2.75011">
        <ele>142</ele>
        <time>2017-05-17T10:08:31.633</time>
      </trkpt>
      <trkpt lat="48.45154" lon="2.75019">
        <ele>141</ele>
        <time>2017-05-17T10:08:32.632</time>
      </trkpt>
      <trkpt lat="48.45152" lon="2.75026">
        <ele>140</ele>
        <time>2017-05-17T10:08:33.632</time>
      </trkpt>
      <trkpt lat="48.4515" lon="2.75035">
        <ele>140</ele>
        <time>2017-05-17T10:08:34.633</time>
      </trkpt>
      <trkpt lat="48.45148" lon="2.75043">
        <ele>140</ele>
        <time>2017-05-17T10:08:35.632</time>
      </trkpt>
      <trkpt lat="48.45149" lon="2.75052">
        <ele>140</ele>
        <time>2017-05-17T10:08:36.631</time>
      </trkpt>
      <trkpt lat="48.45148" lon="2.75061">
        <ele>139</ele>
        <time>2017-05-17T10:08:37.631</time>
      </trkpt>
      <trkpt lat="48.45147" lon="2.7507">
        <ele>139</ele>
        <time>2017-05-17T10:08:38.635</time>
      </trkpt>
      <trkpt lat="48.45145" lon="2.75079">
        <ele>139</ele>
        <time>2017-05-17T10:08:39.634</time>
      </trkpt>
      <trkpt lat="48.45142" lon="2.75087">
        <ele>138</ele>
        <time>2017-05-17T10:08:40.631</time>
      </trkpt>
      <trkpt lat="48.45139" lon="2.75096">
        <ele>138</ele>
        <time>2017-05-17T10:08:41.632</time>
      </trkpt>
      <trkpt lat="48.45137" lon="2.75105">
        <ele>138</ele>
        <time>2017-05-17T10:08:42.630</time>
      </trkpt>
      <trkpt lat="48.45133" lon="2.75113">
        <ele>137</ele>
        <time>2017-05-17T10:08:43.631</time>
      </trkpt>
      <trkpt lat="48.4513" lon="2.75122">
        <ele>138</ele>
        <time>2017-05-17T10:08:44.631</time>
      </trkpt>
      <trkpt lat="48.45127" lon="2.75128">
        <ele>137</ele>
        <time>2017-05-17T10:08:45.632</time>
      </trkpt>
      <trkpt lat="48.45124" lon="2.75133">
        <ele>137</ele>
        <time>2017-05-17T10:08:46.632</time>
      </trkpt>
      <trkpt lat="48.45123" lon="2.7514">
        <ele>137</ele>
        <time>2017-05-17T10:08:47.632</time>
      </trkpt>
      <trkpt lat="48.45122" lon="2.75145">
        <ele>138</ele>
        <time>2017-05-17T10:08:48.641</time>
      </trkpt>
      <trkpt lat="48.45127" lon="2.7515">
        <ele>139</ele>
        <time>2017-05-17T10:08:49.644</time>
      </trkpt>
      <trkpt lat="48.45131" lon="2.75157">
        <ele>139</ele>
        <time>2017-05-17T10:08:50.638</time>
      </trkpt>
      <trkpt lat="48.45136" lon="2.75162">
        <ele>139</ele>
        <time>2017-05-17T10:08:51.635</time>
      </trkpt>
      <trkpt lat="48.45141" lon="2.75167">
        <ele>138</ele>
        <time>2017-05-17T10:08:52.641</time>
      </trkpt>
      <trkpt lat="48.45145" lon="2.75173">
        <ele>139</ele>
        <time>2017-05-17T10:08:53.639</time>
      </trkpt>
      <trkpt lat="48.45149" lon="2.75179">
        <ele>138</ele>
        <time>2017-05-17T10:08:54.640</time>
      </trkpt>
      <trkpt lat="48.45154" lon="2.75185">
        <ele>138</ele>
        <time>2017-05-17T10:08:55.640</time>
      </trkpt>
      <trkpt lat="48.45159" lon="2.7519">
        <ele>139</ele>
        <time>2017-05-17T10:08:56.638</time>
      </trkpt>
      <trkpt lat="48.45159" lon="2.752">
        <ele>138</ele>
        <time>2017-05-17T10:08:57.635</time>
      </trkpt>
      <trkpt lat="48.45159" lon="2.7521">
        <ele>138</ele>
        <time>2017-05-17T10:08:58.636</time>
      </trkpt>
      <trkpt lat="48.45157" lon="2.75219">
        <ele>137</ele>
        <time>2017-05-17T10:08:59.637</time>
      </trkpt>
      <trkpt lat="48.45154" lon="2.7523">
        <ele>136</ele>
        <time>2017-05-17T10:09:00.634</time>
      </trkpt>
      <trkpt lat="48.45153" lon="2.75242">
        <ele>137</ele>
        <time>2017-05-17T10:09:01.633</time>
      </trkpt>
      <trkpt lat="48.45151" lon="2.75253">
        <ele>136</ele>
        <time>2017-05-17T10:09:02.634</time>
      </trkpt>
      <trkpt lat="48.45148" lon="2.75263">
        <ele>135</ele>
        <time>2017-05-17T10:09:03.635</time>
      </trkpt>
      <trkpt lat="48.45145" lon="2.75273">
        <ele>135</ele>
        <time>2017-05-17T10:09:04.634</time>
      </trkpt>
      <trkpt lat="48.45143" lon="2.75282">
        <ele>134</ele>
        <time>2017-05-17T10:09:05.633</time>
      </trkpt>
      <trkpt lat="48.4514" lon="2.75291">
        <ele>133</ele>
        <time>2017-05-17T10:09:06.633</time>
      </trkpt>
      <trkpt lat="48.45137" lon="2.75302">
        <ele>133</ele>
        <time>2017-05-17T10:09:07.634</time>
      </trkpt>
      <trkpt lat="48.45136" lon="2.75314">
        <ele>133</ele>
        <time>2017-05-17T10:09:08.638</time>
      </trkpt>
      <trkpt lat="48.45135" lon="2.75326">
        <ele>132</ele>
        <time>2017-05-17T10:09:09.637</time>
      </trkpt>
      <trkpt lat="48.45136" lon="2.75336">
        <ele>131</ele>
        <time>2017-05-17T10:09:10.633</time>
      </trkpt>
      <trkpt lat="48.45137" lon="2.75342">
        <ele>131</ele>
        <time>2017-05-17T10:09:11.634</time>
      </trkpt>
      <trkpt lat="48.45138" lon="2.75348">
        <ele>131</ele>
        <time>2017-05-17T10:09:12.635</time>
      </trkpt>
      <trkpt lat="48.45138" lon="2.75353">
        <ele>131</ele>
        <time>2017-05-17T10:09:13.633</time>
      </trkpt>
      <trkpt lat="48.4514" lon="2.75358">
        <ele>130</ele>
        <time>2017-05-17T10:09:14.635</time>
      </trkpt>
      <trkpt lat="48.45141" lon="2.75363">
        <ele>129</ele>
        <time>2017-05-17T10:09:15.634</time>
      </trkpt>
      <trkpt lat="48.45144" lon="2.75368">
        <ele>129</ele>
        <time>2017-05-17T10:09:16.634</time>
      </trkpt>
      <trkpt lat="48.45146" lon="2.75372">
        <ele>129</ele>
        <time>2017-05-17T10:09:17.634</time>
      </trkpt>
      <trkpt lat="48.45146" lon="2.75382">
        <ele>129</ele>
        <time>2017-05-17T10:09:18.642</time>
      </trkpt>
      <trkpt lat="48.45146" lon="2.75391">
        <ele>128</ele>
        <time>2017-05-17T10:09:19.642</time>
      </trkpt>
      <trkpt lat="48.45145" lon="2.75402">
        <ele>127</ele>
        <time>2017-05-17T10:09:20.633</time>
      </trkpt>
      <trkpt lat="48.45146" lon="2.75413">
        <ele>126</ele>
        <time>2017-05-17T10:09:21.633</time>
      </trkpt>
      <trkpt lat="48.45148" lon="2.75424">
        <ele>125</ele>
        <time>2017-05-17T10:09:22.632</time>
      </trkpt>
      <trkpt lat="48.45148" lon="2.75434">
        <ele>124</ele>
        <time>2017-05-17T10:09:23.632</time>
      </trkpt>
      <trkpt lat="48.45149" lon="2.75443">
        <ele>122</ele>
        <time>2017-05-17T10:09:24.631</time>
      </trkpt>
      <trkpt lat="48.45149" lon="2.75452">
        <ele>120</ele>
        <time>2017-05-17T10:09:25.631</time>
      </trkpt>
      <trkpt lat="48.45149" lon="2.7546">
        <ele>119</ele>
        <time>2017-05-17T10:09:26.632</time>
      </trkpt>
      <trkpt lat="48.45148" lon="2.75469">
        <ele>118</ele>
        <time>2017-05-17T10:09:27.634</time>
      </trkpt>
      <trkpt lat="48.45145" lon="2.75478">
        <ele>117</ele>
        <time>2017-05-17T10:09:28.634</time>
      </trkpt>
      <trkpt lat="48.45143" lon="2.75487">
        <ele>116</ele>
        <time>2017-05-17T10:09:29.635</time>
      </trkpt>
      <trkpt lat="48.45141" lon="2.75496">
        <ele>114</ele>
        <time>2017-05-17T10:09:30.632</time>
      </trkpt>
      <trkpt lat="48.4514" lon="2.75506">
        <ele>113</ele>
        <time>2017-05-17T10:09:31.633</time>
      </trkpt>
      <trkpt lat="48.45139" lon="2.75516">
        <ele>112</ele>
        <time>2017-05-17T10:09:32.632</time>
      </trkpt>
      <trkpt lat="48.45138" lon="2.75527">
        <ele>111</ele>
        <time>2017-05-17T10:09:33.632</time>
      </trkpt>
      <trkpt lat="48.45136" lon="2.75537">
        <ele>111</ele>
        <time>2017-05-17T10:09:34.632</time>
      </trkpt>
      <trkpt lat="48.45135" lon="2.75548">
        <ele>110</ele>
        <time>2017-05-17T10:09:35.632</time>
      </trkpt>
      <trkpt lat="48.45134" lon="2.75559">
        <ele>109</ele>
        <time>2017-05-17T10:09:36.633</time>
      </trkpt>
      <trkpt lat="48.45132" lon="2.7557">
        <ele>109</ele>
        <time>2017-05-17T10:09:37.632</time>
      </trkpt>
      <trkpt lat="48.4513" lon="2.75582">
        <ele>108</ele>
        <time>2017-05-17T10:09:38.636</time>
      </trkpt>
      <trkpt lat="48.45127" lon="2.75593">
        <ele>108</ele>
        <time>2017-05-17T10:09:39.636</time>
      </trkpt>
      <trkpt lat="48.45124" lon="2.75605">
        <ele>108</ele>
        <time>2017-05-17T10:09:40.631</time>
      </trkpt>
      <trkpt lat="48.45119" lon="2.75617">
        <ele>108</ele>
        <time>2017-05-17T10:09:41.632</time>
      </trkpt>
      <trkpt lat="48.45115" lon="2.75629">
        <ele>108</ele>
        <time>2017-05-17T10:09:42.632</time>
      </trkpt>
      <trkpt lat="48.45111" lon="2.7564">
        <ele>107</ele>
        <time>2017-05-17T10:09:43.631</time>
      </trkpt>
      <trkpt lat="48.45107" lon="2.75651">
        <ele>107</ele>
        <time>2017-05-17T10:09:44.632</time>
      </trkpt>
      <trkpt lat="48.45102" lon="2.75662">
        <ele>106</ele>
        <time>2017-05-17T10:09:45.632</time>
      </trkpt>
      <trkpt lat="48.45097" lon="2.75672">
        <ele>106</ele>
        <time>2017-05-17T10:09:46.631</time>
      </trkpt>
      <trkpt lat="48.45092" lon="2.75682">
        <ele>105</ele>
        <time>2017-05-17T10:09:47.632</time>
      </trkpt>
      <trkpt lat="48.45086" lon="2.75691">
        <ele>105</ele>
        <time>2017-05-17T10:09:48.641</time>
      </trkpt>
      <trkpt lat="48.4508" lon="2.75699">
        <ele>105</ele>
        <time>2017-05-17T10:09:49.641</time>
      </trkpt>
      <trkpt lat="48.45074" lon="2.75706">
        <ele>105</ele>
        <time>2017-05-17T10:09:50.639</time>
      </trkpt>
      <trkpt lat="48.45069" lon="2.75714">
        <ele>105</ele>
        <time>2017-05-17T10:09:51.634</time>
      </trkpt>
      <trkpt lat="48.45063" lon="2.7572">
        <ele>103</ele>
        <time>2017-05-17T10:09:52.634</time>
      </trkpt>
      <trkpt lat="48.45059" lon="2.75727">
        <ele>104</ele>
        <time>2017-05-17T10:09:53.633</time>
      </trkpt>
      <trkpt lat="48.45053" lon="2.75734">
        <ele>104</ele>
        <time>2017-05-17T10:09:54.634</time>
      </trkpt>
      <trkpt lat="48.45048" lon="2.7574">
        <ele>104</ele>
        <time>2017-05-17T10:09:55.631</time>
      </trkpt>
      <trkpt lat="48.45044" lon="2.75747">
        <ele>103</ele>
        <time>2017-05-17T10:09:56.632</time>
      </trkpt>
      <trkpt lat="48.45041" lon="2.75751">
        <ele>103</ele>
        <time>2017-05-17T10:09:57.633</time>
      </trkpt>
      <trkpt lat="48.45038" lon="2.75755">
        <ele>102</ele>
        <time>2017-05-17T10:09:58.637</time>
      </trkpt>
      <trkpt lat="48.45035" lon="2.75759">
        <ele>104</ele>
        <time>2017-05-17T10:09:59.636</time>
      </trkpt>
      <trkpt lat="48.45036" lon="2.75762">
        <ele>104</ele>
        <time>2017-05-17T10:10:00.632</time>
      </trkpt>
      <trkpt lat="48.45037" lon="2.75763">
        <ele>104</ele>
        <time>2017-05-17T10:10:01.634</time>
      </trkpt>
      <trkpt lat="48.45037" lon="2.75763">
        <ele>104</ele>
        <time>2017-05-17T10:10:02.634</time>
      </trkpt>
      <trkpt lat="48.4504" lon="2.75763">
        <ele>104</ele>
        <time>2017-05-17T10:10:03.635</time>
      </trkpt>
      <trkpt lat="48.45041" lon="2.7576">
        <ele>104</ele>
        <time>2017-05-17T10:10:04.638</time>
      </trkpt>
      <trkpt lat="48.45041" lon="2.75756">
        <ele>103</ele>
        <time>2017-05-17T10:10:05.637</time>
      </trkpt>
      <trkpt lat="48.45039" lon="2.75752">
        <ele>104</ele>
        <time>2017-05-17T10:10:06.635</time>
      </trkpt>
      <trkpt lat="48.45037" lon="2.75746">
        <ele>104</ele>
        <time>2017-05-17T10:10:07.635</time>
      </trkpt>
      <trkpt lat="48.45035" lon="2.7574">
        <ele>103</ele>
        <time>2017-05-17T10:10:08.639</time>
      </trkpt>
      <trkpt lat="48.45033" lon="2.75734">
        <ele>103</ele>
        <time>2017-05-17T10:10:09.637</time>
      </trkpt>
      <trkpt lat="48.45031" lon="2.75728">
        <ele>103</ele>
        <time>2017-05-17T10:10:10.632</time>
      </trkpt>
      <trkpt lat="48.45029" lon="2.75721">
        <ele>103</ele>
        <time>2017-05-17T10:10:11.632</time>
      </trkpt>
      <trkpt lat="48.45028" lon="2.75714">
        <ele>103</ele>
        <time>2017-05-17T10:10:12.632</time>
      </trkpt>
      <trkpt lat="48.45026" lon="2.75708">
        <ele>103</ele>
        <time>2017-05-17T10:10:13.632</time>
      </trkpt>
      <trkpt lat="48.45024" lon="2.75702">
        <ele>103</ele>
        <time>2017-05-17T10:10:14.631</time>
      </trkpt>
      <trkpt lat="48.45023" lon="2.75696">
        <ele>103</ele>
        <time>2017-05-17T10:10:15.632</time>
      </trkpt>
      <trkpt lat="48.45022" lon="2.7569">
        <ele>102</ele>
        <time>2017-05-17T10:10:16.632</time>
      </trkpt>
      <trkpt lat="48.4502" lon="2.75684">
        <ele>102</ele>
        <time>2017-05-17T10:10:17.632</time>
      </trkpt>
      <trkpt lat="48.45019" lon="2.75681">
        <ele>103</ele>
        <time>2017-05-17T10:10:18.647</time>
      </trkpt>
      <trkpt lat="48.45019" lon="2.75679">
        <ele>103</ele>
        <time>2017-05-17T10:10:19.648</time>
      </trkpt>
      <trkpt lat="48.45019" lon="2.75677">
        <ele>103</ele>
        <time>2017-05-17T10:10:20.633</time>
      </trkpt>
      <trkpt lat="48.4502" lon="2.75677">
        <ele>103</ele>
        <time>2017-05-17T10:10:21.635</time>
      </trkpt>
      <trkpt lat="48.45022" lon="2.75678">
        <ele>103</ele>
        <time>2017-05-17T10:10:22.634</time>
      </trkpt>
      <trkpt lat="48.45022" lon="2.75679">
        <ele>103</ele>
        <time>2017-05-17T10:10:23.633</time>
      </trkpt>
      <trkpt lat="48.45021" lon="2.7568">
        <ele>102</ele>
        <time>2017-05-17T10:10:24.649</time>
      </trkpt>
      <trkpt lat="48.45021" lon="2.75683">
        <ele>102</ele>
        <time>2017-05-17T10:10:25.720</time>
      </trkpt>
      <trkpt lat="48.45022" lon="2.75685">
        <ele>102</ele>
        <time>2017-05-17T10:10:26.634</time>
      </trkpt>
      <trkpt lat="48.45022" lon="2.75688">
        <ele>101</ele>
        <time>2017-05-17T10:10:27.634</time>
      </trkpt>
      <trkpt lat="48.45022" lon="2.75693">
        <ele>101</ele>
        <time>2017-05-17T10:10:28.637</time>
      </trkpt>
      <trkpt lat="48.45023" lon="2.75698">
        <ele>101</ele>
        <time>2017-05-17T10:10:29.636</time>
      </trkpt>
      <trkpt lat="48.45024" lon="2.75703">
        <ele>101</ele>
        <time>2017-05-17T10:10:30.634</time>
      </trkpt>
      <trkpt lat="48.45026" lon="2.75711">
        <ele>102</ele>
        <time>2017-05-17T10:10:31.634</time>
      </trkpt>
      <trkpt lat="48.45028" lon="2.75718">
        <ele>102</ele>
        <time>2017-05-17T10:10:32.635</time>
      </trkpt>
      <trkpt lat="48.45031" lon="2.75725">
        <ele>102</ele>
        <time>2017-05-17T10:10:33.632</time>
      </trkpt>
      <trkpt lat="48.45033" lon="2.75731">
        <ele>102</ele>
        <time>2017-05-17T10:10:34.634</time>
      </trkpt>
      <trkpt lat="48.45032" lon="2.75737">
        <ele>102</ele>
        <time>2017-05-17T10:10:35.636</time>
      </trkpt>
      <trkpt lat="48.45029" lon="2.7574">
        <ele>102</ele>
        <time>2017-05-17T10:10:36.635</time>
      </trkpt>
      <trkpt lat="48.45026" lon="2.7574">
        <ele>102</ele>
        <time>2017-05-17T10:10:37.633</time>
      </trkpt>
      <trkpt lat="48.45024" lon="2.75737">
        <ele>102</ele>
        <time>2017-05-17T10:10:38.636</time>
      </trkpt>
      <trkpt lat="48.45021" lon="2.75734">
        <ele>102</ele>
        <time>2017-05-17T10:10:39.638</time>
      </trkpt>
      <trkpt lat="48.45018" lon="2.75729">
        <ele>102</ele>
        <time>2017-05-17T10:10:40.634</time>
      </trkpt>
      <trkpt lat="48.45016" lon="2.75724">
        <ele>102</ele>
        <time>2017-05-17T10:10:41.633</time>
      </trkpt>
      <trkpt lat="48.45013" lon="2.75719">
        <ele>102</ele>
        <time>2017-05-17T10:10:42.635</time>
      </trkpt>
      <trkpt lat="48.4501" lon="2.75715">
        <ele>103</ele>
        <time>2017-05-17T10:10:43.634</time>
      </trkpt>
      <trkpt lat="48.45006" lon="2.75711">
        <ele>103</ele>
        <time>2017-05-17T10:10:44.635</time>
      </trkpt>
      <trkpt lat="48.45003" lon="2.75708">
        <ele>103</ele>
        <time>2017-05-17T10:10:45.634</time>
      </trkpt>
      <trkpt lat="48.45" lon="2.75705">
        <ele>103</ele>
        <time>2017-05-17T10:10:46.634</time>
      </trkpt>
      <trkpt lat="48.44999" lon="2.75702">
        <ele>103</ele>
        <time>2017-05-17T10:10:47.635</time>
      </trkpt>
      <trkpt lat="48.44998" lon="2.757">
        <ele>104</ele>
        <time>2017-05-17T10:10:48.651</time>
      </trkpt>
      <trkpt lat="48.44998" lon="2.75699">
        <ele>104</ele>
        <time>2017-05-17T10:10:49.651</time>
      </trkpt>
      <trkpt lat="48.44998" lon="2.757">
        <ele>104</ele>
        <time>2017-05-17T10:10:50.636</time>
      </trkpt>
      <trkpt lat="48.44999" lon="2.75699">
        <ele>103</ele>
        <time>2017-05-17T10:10:51.636</time>
      </trkpt>
      <trkpt lat="48.44999" lon="2.75698">
        <ele>103</ele>
        <time>2017-05-17T10:10:52.634</time>
      </trkpt>
      <trkpt lat="48.44999" lon="2.75698">
        <ele>103</ele>
        <time>2017-05-17T10:10:53.635</time>
      </trkpt>
      <trkpt lat="48.44999" lon="2.75699">
        <ele>104</ele>
        <time>2017-05-17T10:10:54.635</time>
      </trkpt>
      <trkpt lat="48.44999" lon="2.75698">
        <ele>104</ele>
        <time>2017-05-17T10:10:55.635</time>
      </trkpt>
      <trkpt lat="48.45" lon="2.75697">
        <ele>104</ele>
        <time>2017-05-17T10:10:56.634</time>
      </trkpt>
      <trkpt lat="48.45" lon="2.75697">
        <ele>104</ele>
        <time>2017-05-17T10:10:57.634</time>
      </trkpt>
      <trkpt lat="48.45" lon="2.75697">
        <ele>104</ele>
        <time>2017-05-17T10:10:58.636</time>
      </trkpt>
      <trkpt lat="48.45" lon="2.75697">
        <ele>104</ele>
        <time>2017-05-17T10:10:59.637</time>
      </trkpt>
      <trkpt lat="48.45" lon="2.75697">
        <ele>104</ele>
        <time>2017-05-17T10:11:00.638</time>
      </trkpt>
      <trkpt lat="48.45" lon="2.75698">
        <ele>103</ele>
        <time>2017-05-17T10:11:01.637</time>
      </trkpt>
      <trkpt lat="48.45" lon="2.75699">
        <ele>103</ele>
        <time>2017-05-17T10:11:02.636</time>
      </trkpt>
      <trkpt lat="48.44999" lon="2.757">
        <ele>103</ele>
        <time>2017-05-17T10:11:03.634</time>
      </trkpt>
      <trkpt lat="48.44999" lon="2.757">
        <ele>103</ele>
        <time>2017-05-17T10:11:04.636</time>
      </trkpt>
      <trkpt lat="48.44999" lon="2.75701">
        <ele>104</ele>
        <time>2017-05-17T10:11:05.637</time>
      </trkpt>
      <trkpt lat="48.45" lon="2.75702">
        <ele>104</ele>
        <time>2017-05-17T10:11:06.635</time>
      </trkpt>
      <trkpt lat="48.45" lon="2.75702">
        <ele>103</ele>
        <time>2017-05-17T10:11:07.635</time>
      </trkpt>
      <trkpt lat="48.44999" lon="2.75701">
        <ele>103</ele>
        <time>2017-05-17T10:11:08.637</time>
      </trkpt>
      <trkpt lat="48.44999" lon="2.757">
        <ele>103</ele>
        <time>2017-05-17T10:11:09.638</time>
      </trkpt>
      <trkpt lat="48.44998" lon="2.75699">
        <ele>103</ele>
        <time>2017-05-17T10:11:10.635</time>
      </trkpt>
      <trkpt lat="48.44998" lon="2.75699">
        <ele>102</ele>
        <time>2017-05-17T10:11:11.636</time>
      </trkpt>
      <trkpt lat="48.44998" lon="2.75699">
        <ele>102</ele>
        <time>2017-05-17T10:11:12.637</time>
      </trkpt>
      <trkpt lat="48.44997" lon="2.75699">
        <ele>102</ele>
        <time>2017-05-17T10:11:13.635</time>
      </trkpt>
      <trkpt lat="48.44998" lon="2.75699">
        <ele>102</ele>
        <time>2017-05-17T10:11:14.636</time>
      </trkpt>
      <trkpt lat="48.44997" lon="2.757">
        <ele>103</ele>
        <time>2017-05-17T10:11:15.635</time>
      </trkpt>
      <trkpt lat="48.44997" lon="2.757">
        <ele>103</ele>
        <time>2017-05-17T10:11:16.737</time>
      </trkpt>
      <trkpt lat="48.44997" lon="2.757">
        <ele>103</ele>
        <time>2017-05-17T10:11:17.638</time>
      </trkpt>
      <trkpt lat="48.44997" lon="2.757">
        <ele>103</ele>
        <time>2017-05-17T10:11:18.649</time>
      </trkpt>
      <trkpt lat="48.44997" lon="2.757">
        <ele>103</ele>
        <time>2017-05-17T10:11:19.649</time>
      </trkpt>
      <trkpt lat="48.44997" lon="2.757">
        <ele>103</ele>
        <time>2017-05-17T10:11:20.632</time>
      </trkpt>
      <trkpt lat="48.44997" lon="2.757">
        <ele>103</ele>
        <time>2017-05-17T10:11:21.632</time>
      </trkpt>
      <trkpt lat="48.44997" lon="2.757">
        <ele>103</ele>
        <time>2017-05-17T10:11:22.632</time>
      </trkpt>
      <trkpt lat="48.44997" lon="2.757">
        <ele>104</ele>
        <time>2017-05-17T10:11:23.633</time>
      </trkpt>
      <trkpt lat="48.44998" lon="2.757">
        <ele>104</ele>
        <time>2017-05-17T10:11:24.634</time>
      </trkpt>
      <trkpt lat="48.44998" lon="2.757">
        <ele>104</ele>
        <time>2017-05-17T10:11:25.634</time>
      </trkpt>
      <trkpt lat="48.44998" lon="2.757">
        <ele>104</ele>
        <time>2017-05-17T10:11:26.634</time>
      </trkpt>
      <trkpt lat="48.44997" lon="2.757">
        <ele>105</ele>
        <time>2017-05-17T10:11:27.636</time>
      </trkpt>
      <trkpt lat="48.44998" lon="2.757">
        <ele>104</ele>
        <time>2017-05-17T10:11:28.637</time>
      </trkpt>
      <trkpt lat="48.44998" lon="2.757">
        <ele>104</ele>
        <time>2017-05-17T10:11:29.636</time>
      </trkpt>
      <trkpt lat="48.44998" lon="2.75699">
        <ele>103</ele>
        <time>2017-05-17T10:11:30.635</time>
      </trkpt>
      <trkpt lat="48.44998" lon="2.75698">
        <ele>103</ele>
        <time>2017-05-17T10:11:31.634</time>
      </trkpt>
      <trkpt lat="48.44998" lon="2.75697">
        <ele>103</ele>
        <time>2017-05-17T10:11:32.633</time>
      </trkpt>
      <trkpt lat="48.44998" lon="2.75698">
        <ele>103</ele>
        <time>2017-05-17T10:11:33.635</time>
      </trkpt>
      <trkpt lat="48.44997" lon="2.75699">
        <ele>103</ele>
        <time>2017-05-17T10:11:34.643</time>
      </trkpt>
      <trkpt lat="48.44998" lon="2.75699">
        <ele>103</ele>
        <time>2017-05-17T10:11:35.635</time>
      </trkpt>
      <trkpt lat="48.44997" lon="2.757">
        <ele>103</ele>
        <time>2017-05-17T10:11:36.634</time>
      </trkpt>
      <trkpt lat="48.44997" lon="2.757">
        <ele>103</ele>
        <time>2017-05-17T10:11:37.633</time>
      </trkpt>
      <trkpt lat="48.44997" lon="2.75701">
        <ele>102</ele>
        <time>2017-05-17T10:11:39.543</time>
      </trkpt>
      <trkpt lat="48.44997" lon="2.75701">
        <ele>102</ele>
        <time>2017-05-17T10:11:39.639</time>
      </trkpt>
      <trkpt lat="48.44998" lon="2.75701">
        <ele>102</ele>
        <time>2017-05-17T10:11:40.645</time>
      </trkpt>
      <trkpt lat="48.44997" lon="2.75701">
        <ele>102</ele>
        <time>2017-05-17T10:11:41.642</time>
      </trkpt>
      <trkpt lat="48.44997" lon="2.75701">
        <ele>103</ele>
        <time>2017-05-17T10:11:42.640</time>
      </trkpt>
      <trkpt lat="48.44997" lon="2.75701">
        <ele>104</ele>
        <time>2017-05-17T10:11:43.639</time>
      </trkpt>
      <trkpt lat="48.44997" lon="2.75701">
        <ele>103</ele>
        <time>2017-05-17T10:11:44.639</time>
      </trkpt>
      <trkpt lat="48.44997" lon="2.75701">
        <ele>104</ele>
        <time>2017-05-17T10:11:45.639</time>
      </trkpt>
      <trkpt lat="48.44997" lon="2.75701">
        <ele>104</ele>
        <time>2017-05-17T10:11:46.639</time>
      </trkpt>
      <trkpt lat="48.44997" lon="2.75701">
        <ele>104</ele>
        <time>2017-05-17T10:11:47.639</time>
      </trkpt>
      <trkpt lat="48.44997" lon="2.75701">
        <ele>104</ele>
        <time>2017-05-17T10:11:48.675</time>
      </trkpt>
      <trkpt lat="48.44997" lon="2.75701">
        <ele>104</ele>
        <time>2017-05-17T10:11:49.660</time>
      </trkpt>
      <trkpt lat="48.44997" lon="2.75701">
        <ele>105</ele>
        <time>2017-05-17T10:11:50.641</time>
      </trkpt>
      <trkpt lat="48.44997" lon="2.75701">
        <ele>105</ele>
        <time>2017-05-17T10:11:51.638</time>
      </trkpt>
      <trkpt lat="48.44997" lon="2.75701">
        <ele>105</ele>
        <time>2017-05-17T10:11:52.639</time>
      </trkpt>
      <trkpt lat="48.44997" lon="2.75701">
        <ele>105</ele>
        <time>2017-05-17T10:11:53.640</time>
      </trkpt>
      <trkpt lat="48.44997" lon="2.75701">
        <ele>105</ele>
        <time>2017-05-17T10:11:54.640</time>
      </trkpt>
      <trkpt lat="48.44997" lon="2.75701">
        <ele>105</ele>
        <time>2017-05-17T10:11:55.639</time>
      </trkpt>
      <trkpt lat="48.44997" lon="2.75701">
        <ele>105</ele>
        <time>2017-05-17T10:11:56.639</time>
      </trkpt>
      <trkpt lat="48.44997" lon="2.75701">
        <ele>105</ele>
        <time>2017-05-17T10:11:57.640</time>
      </trkpt>
      <trkpt lat="48.44997" lon="2.75701">
        <ele>105</ele>
        <time>2017-05-17T10:11:58.642</time>
      </trkpt>
      <trkpt lat="48.44997" lon="2.75701">
        <ele>105</ele>
        <time>2017-05-17T10:11:59.643</time>
      </trkpt>
      <trkpt lat="48.44997" lon="2.75701">
        <ele>105</ele>
        <time>2017-05-17T10:12:00.639</time>
      </trkpt>
      <trkpt lat="48.44997" lon="2.75701">
        <ele>105</ele>
        <time>2017-05-17T10:12:01.637</time>
      </trkpt>
      <trkpt lat="48.44997" lon="2.75701">
        <ele>105</ele>
        <time>2017-05-17T10:12:02.637</time>
      </trkpt>
      <trkpt lat="48.44997" lon="2.75701">
        <ele>105</ele>
        <time>2017-05-17T10:12:03.638</time>
      </trkpt>
      <trkpt lat="48.44997" lon="2.75701">
        <ele>105</ele>
        <time>2017-05-17T10:12:04.642</time>
      </trkpt>
      <trkpt lat="48.44997" lon="2.75701">
        <ele>105</ele>
        <time>2017-05-17T10:12:05.639</time>
      </trkpt>
      <trkpt lat="48.44997" lon="2.75701">
        <ele>105</ele>
        <time>2017-05-17T10:12:06.639</time>
      </trkpt>
      <trkpt lat="48.44997" lon="2.75701">
        <ele>105</ele>
        <time>2017-05-17T10:12:07.640</time>
      </trkpt>
      <trkpt lat="48.44997" lon="2.75701">
        <ele>105</ele>
        <time>2017-05-17T10:12:08.642</time>
      </trkpt>
      <trkpt lat="48.44997" lon="2.75701">
        <ele>105</ele>
        <time>2017-05-17T10:12:09.643</time>
      </trkpt>
      <trkpt lat="48.44997" lon="2.75701">
        <ele>104</ele>
        <time>2017-05-17T10:12:10.639</time>
      </trkpt>
      <trkpt lat="48.44997" lon="2.75701">
        <ele>104</ele>
        <time>2017-05-17T10:12:11.640</time>
      </trkpt>
      <trkpt lat="48.44997" lon="2.75701">
        <ele>105</ele>
        <time>2017-05-17T10:12:12.639</time>
      </trkpt>
      <trkpt lat="48.44997" lon="2.75701">
        <ele>105</ele>
        <time>2017-05-17T10:12:13.639</time>
      </trkpt>
      <trkpt lat="48.44997" lon="2.75701">
        <ele>105</ele>
        <time>2017-05-17T10:12:14.641</time>
      </trkpt>
      <trkpt lat="48.44997" lon="2.75701">
        <ele>105</ele>
        <time>2017-05-17T10:12:15.639</time>
      </trkpt>
      <trkpt lat="48.44997" lon="2.75701">
        <ele>105</ele>
        <time>2017-05-17T10:12:16.639</time>
      </trkpt>
      <trkpt lat="48.44997" lon="2.75701">
        <ele>105</ele>
        <time>2017-05-17T10:12:17.640</time>
      </trkpt>
      <trkpt lat="48.44997" lon="2.75701">
        <ele>105</ele>
        <time>2017-05-17T10:12:18.661</time>
      </trkpt>
      <trkpt lat="48.44997" lon="2.75701">
        <ele>105</ele>
        <time>2017-05-17T10:12:19.661</time>
      </trkpt>
      <trkpt lat="48.44997" lon="2.757">
        <ele>104</ele>
        <time>2017-05-17T10:12:22.065</time>
      </trkpt>
      <trkpt lat="48.44997" lon="2.757">
        <ele>104</ele>
        <time>2017-05-17T10:12:22.636</time>
      </trkpt>
      <trkpt lat="48.44998" lon="2.75698">
        <ele>104</ele>
        <time>2017-05-17T10:12:23.637</time>
      </trkpt>
      <trkpt lat="48.44998" lon="2.75698">
        <ele>104</ele>
        <time>2017-05-17T10:12:24.637</time>
      </trkpt>
      <trkpt lat="48.44997" lon="2.75699">
        <ele>105</ele>
        <time>2017-05-17T10:12:25.648</time>
      </trkpt>
      <trkpt lat="48.44997" lon="2.757">
        <ele>104</ele>
        <time>2017-05-17T10:12:26.635</time>
      </trkpt>
      <trkpt lat="48.44997" lon="2.75699">
        <ele>104</ele>
        <time>2017-05-17T10:12:27.637</time>
      </trkpt>
      <trkpt lat="48.44997" lon="2.757">
        <ele>104</ele>
        <time>2017-05-17T10:12:28.636</time>
      </trkpt>
      <trkpt lat="48.44996" lon="2.757">
        <ele>103</ele>
        <time>2017-05-17T10:12:29.636</time>
      </trkpt>
      <trkpt lat="48.44996" lon="2.757">
        <ele>103</ele>
        <time>2017-05-17T10:12:30.631</time>
      </trkpt>
      <trkpt lat="48.44996" lon="2.75701">
        <ele>103</ele>
        <time>2017-05-17T10:12:31.637</time>
      </trkpt>
      <trkpt lat="48.44996" lon="2.75701">
        <ele>102</ele>
        <time>2017-05-17T10:12:32.633</time>
      </trkpt>
      <trkpt lat="48.44996" lon="2.75701">
        <ele>102</ele>
        <time>2017-05-17T10:12:33.639</time>
      </trkpt>
      <trkpt lat="48.44996" lon="2.75701">
        <ele>103</ele>
        <time>2017-05-17T10:12:34.639</time>
      </trkpt>
      <trkpt lat="48.44996" lon="2.75701">
        <ele>103</ele>
        <time>2017-05-17T10:12:35.638</time>
      </trkpt>
      <trkpt lat="48.44996" lon="2.75702">
        <ele>103</ele>
        <time>2017-05-17T10:12:36.633</time>
      </trkpt>
      <trkpt lat="48.44996" lon="2.75702">
        <ele>102</ele>
        <time>2017-05-17T10:12:37.631</time>
      </trkpt>
      <trkpt lat="48.44996" lon="2.75702">
        <ele>102</ele>
        <time>2017-05-17T10:12:38.635</time>
      </trkpt>
      <trkpt lat="48.44996" lon="2.75702">
        <ele>102</ele>
        <time>2017-05-17T10:12:39.649</time>
      </trkpt>
      <trkpt lat="48.44996" lon="2.75702">
        <ele>102</ele>
        <time>2017-05-17T10:12:40.636</time>
      </trkpt>
      <trkpt lat="48.44996" lon="2.75701">
        <ele>103</ele>
        <time>2017-05-17T10:12:41.633</time>
      </trkpt>
      <trkpt lat="48.44996" lon="2.75701">
        <ele>103</ele>
        <time>2017-05-17T10:12:42.632</time>
      </trkpt>
      <trkpt lat="48.44997" lon="2.75701">
        <ele>103</ele>
        <time>2017-05-17T10:12:43.631</time>
      </trkpt>
      <trkpt lat="48.44997" lon="2.75701">
        <ele>103</ele>
        <time>2017-05-17T10:12:44.630</time>
      </trkpt>
      <trkpt lat="48.44997" lon="2.75702">
        <ele>104</ele>
        <time>2017-05-17T10:12:45.631</time>
      </trkpt>
      <trkpt lat="48.44997" lon="2.75702">
        <ele>104</ele>
        <time>2017-05-17T10:12:46.633</time>
      </trkpt>
      <trkpt lat="48.44997" lon="2.75702">
        <ele>104</ele>
        <time>2017-05-17T10:12:47.632</time>
      </trkpt>
      <trkpt lat="48.44997" lon="2.75702">
        <ele>104</ele>
        <time>2017-05-17T10:12:48.649</time>
      </trkpt>
      <trkpt lat="48.44997" lon="2.75702">
        <ele>104</ele>
        <time>2017-05-17T10:12:49.659</time>
      </trkpt>
      <trkpt lat="48.44997" lon="2.75702">
        <ele>104</ele>
        <time>2017-05-17T10:12:50.631</time>
      </trkpt>
      <trkpt lat="48.44997" lon="2.75702">
        <ele>104</ele>
        <time>2017-05-17T10:12:51.631</time>
      </trkpt>
      <trkpt lat="48.44997" lon="2.75702">
        <ele>104</ele>
        <time>2017-05-17T10:12:52.633</time>
      </trkpt>
      <trkpt lat="48.44997" lon="2.75702">
        <ele>104</ele>
        <time>2017-05-17T10:12:53.635</time>
      </trkpt>
      <trkpt lat="48.44997" lon="2.75702">
        <ele>104</ele>
        <time>2017-05-17T10:12:54.634</time>
      </trkpt>
      <trkpt lat="48.44997" lon="2.75702">
        <ele>104</ele>
        <time>2017-05-17T10:12:55.632</time>
      </trkpt>
      <trkpt lat="48.44997" lon="2.75702">
        <ele>104</ele>
        <time>2017-05-17T10:12:56.631</time>
      </trkpt>
      <trkpt lat="48.44997" lon="2.75702">
        <ele>104</ele>
        <time>2017-05-17T10:12:57.631</time>
      </trkpt>
      <trkpt lat="48.44997" lon="2.75702">
        <ele>104</ele>
        <time>2017-05-17T10:12:58.635</time>
      </trkpt>
      <trkpt lat="48.44996" lon="2.75702">
        <ele>104</ele>
        <time>2017-05-17T10:12:59.634</time>
      </trkpt>
      <trkpt lat="48.44996" lon="2.75701">
        <ele>104</ele>
        <time>2017-05-17T10:13:00.635</time>
      </trkpt>
      <trkpt lat="48.44996" lon="2.75701">
        <ele>104</ele>
        <time>2017-05-17T10:13:01.638</time>
      </trkpt>
      <trkpt lat="48.44995" lon="2.757">
        <ele>105</ele>
        <time>2017-05-17T10:13:02.638</time>
      </trkpt>
      <trkpt lat="48.44995" lon="2.757">
        <ele>105</ele>
        <time>2017-05-17T10:13:03.644</time>
      </trkpt>
      <trkpt lat="48.44995" lon="2.757">
        <ele>105</ele>
        <time>2017-05-17T10:13:04.633</time>
      </trkpt>
      <trkpt lat="48.44995" lon="2.757">
        <ele>105</ele>
        <time>2017-05-17T10:13:05.633</time>
      </trkpt>
      <trkpt lat="48.44996" lon="2.757">
        <ele>105</ele>
        <time>2017-05-17T10:13:06.635</time>
      </trkpt>
      <trkpt lat="48.44996" lon="2.75701">
        <ele>105</ele>
        <time>2017-05-17T10:13:07.633</time>
      </trkpt>
      <trkpt lat="48.44997" lon="2.75702">
        <ele>105</ele>
        <time>2017-05-17T10:13:08.645</time>
      </trkpt>
      <trkpt lat="48.44997" lon="2.75702">
        <ele>106</ele>
        <time>2017-05-17T10:13:09.648</time>
      </trkpt>
      <trkpt lat="48.44998" lon="2.75701">
        <ele>106</ele>
        <time>2017-05-17T10:13:10.644</time>
      </trkpt>
      <trkpt lat="48.44998" lon="2.757">
        <ele>106</ele>
        <time>2017-05-17T10:13:11.643</time>
      </trkpt>
      <trkpt lat="48.44998" lon="2.757">
        <ele>106</ele>
        <time>2017-05-17T10:13:12.635</time>
      </trkpt>
      <trkpt lat="48.44997" lon="2.757">
        <ele>106</ele>
        <time>2017-05-17T10:13:13.641</time>
      </trkpt>
      <trkpt lat="48.44997" lon="2.757">
        <ele>107</ele>
        <time>2017-05-17T10:13:14.642</time>
      </trkpt>
      <trkpt lat="48.44997" lon="2.757">
        <ele>107</ele>
        <time>2017-05-17T10:13:15.639</time>
      </trkpt>
      <trkpt lat="48.44997" lon="2.75699">
        <ele>107</ele>
        <time>2017-05-17T10:13:16.641</time>
      </trkpt>
      <trkpt lat="48.44997" lon="2.75699">
        <ele>107</ele>
        <time>2017-05-17T10:13:17.674</time>
      </trkpt>
      <trkpt lat="48.44997" lon="2.75699">
        <ele>107</ele>
        <time>2017-05-17T10:13:18.662</time>
      </trkpt>
      <trkpt lat="48.44997" lon="2.757">
        <ele>106</ele>
        <time>2017-05-17T10:13:19.662</time>
      </trkpt>
      <trkpt lat="48.44997" lon="2.757">
        <ele>106</ele>
        <time>2017-05-17T10:13:20.641</time>
      </trkpt>
      <trkpt lat="48.44997" lon="2.757">
        <ele>106</ele>
        <time>2017-05-17T10:13:21.640</time>
      </trkpt>
      <trkpt lat="48.44997" lon="2.757">
        <ele>106</ele>
        <time>2017-05-17T10:13:22.642</time>
      </trkpt>
      <trkpt lat="48.44996" lon="2.75698">
        <ele>106</ele>
        <time>2017-05-17T10:13:23.641</time>
      </trkpt>
      <trkpt lat="48.44994" lon="2.75697">
        <ele>106</ele>
        <time>2017-05-17T10:13:24.642</time>
      </trkpt>
      <trkpt lat="48.44992" lon="2.75695">
        <ele>106</ele>
        <time>2017-05-17T10:13:25.637</time>
      </trkpt>
      <trkpt lat="48.4499" lon="2.75692">
        <ele>106</ele>
        <time>2017-05-17T10:13:26.642</time>
      </trkpt>
      <trkpt lat="48.44987" lon="2.7569">
        <ele>106</ele>
        <time>2017-05-17T10:13:27.643</time>
      </trkpt>
      <trkpt lat="48.44985" lon="2.75687">
        <ele>106</ele>
        <time>2017-05-17T10:13:28.645</time>
      </trkpt>
      <trkpt lat="48.44983" lon="2.75683">
        <ele>105</ele>
        <time>2017-05-17T10:13:29.648</time>
      </trkpt>
      <trkpt lat="48.44979" lon="2.75681">
        <ele>105</ele>
        <time>2017-05-17T10:13:30.643</time>
      </trkpt>
      <trkpt lat="48.44977" lon="2.75678">
        <ele>104</ele>
        <time>2017-05-17T10:13:31.643</time>
      </trkpt>
      <trkpt lat="48.44973" lon="2.75675">
        <ele>104</ele>
        <time>2017-05-17T10:13:32.645</time>
      </trkpt>
      <trkpt lat="48.4497" lon="2.75672">
        <ele>104</ele>
        <time>2017-05-17T10:13:33.643</time>
      </trkpt>
      <trkpt lat="48.44966" lon="2.75669">
        <ele>104</ele>
        <time>2017-05-17T10:13:34.643</time>
      </trkpt>
      <trkpt lat="48.44963" lon="2.75666">
        <ele>104</ele>
        <time>2017-05-17T10:13:35.644</time>
      </trkpt>
      <trkpt lat="48.4496" lon="2.75663">
        <ele>104</ele>
        <time>2017-05-17T10:13:36.647</time>
      </trkpt>
      <trkpt lat="48.44958" lon="2.75661">
        <ele>104</ele>
        <time>2017-05-17T10:13:37.646</time>
      </trkpt>
      <trkpt lat="48.44957" lon="2.7566">
        <ele>104</ele>
        <time>2017-05-17T10:13:38.645</time>
      </trkpt>
      <trkpt lat="48.44957" lon="2.75659">
        <ele>104</ele>
        <time>2017-05-17T10:13:39.644</time>
      </trkpt>
      <trkpt lat="48.44957" lon="2.75659">
        <ele>104</ele>
        <time>2017-05-17T10:13:40.641</time>
      </trkpt>
      <trkpt lat="48.44957" lon="2.75659">
        <ele>104</ele>
        <time>2017-05-17T10:13:41.642</time>
      </trkpt>
      <trkpt lat="48.44957" lon="2.75659">
        <ele>104</ele>
        <time>2017-05-17T10:13:42.645</time>
      </trkpt>
      <trkpt lat="48.44957" lon="2.7566">
        <ele>104</ele>
        <time>2017-05-17T10:13:43.642</time>
      </trkpt>
      <trkpt lat="48.44957" lon="2.75659">
        <ele>104</ele>
        <time>2017-05-17T10:13:44.641</time>
      </trkpt>
      <trkpt lat="48.44957" lon="2.75659">
        <ele>105</ele>
        <time>2017-05-17T10:13:45.640</time>
      </trkpt>
      <trkpt lat="48.44957" lon="2.75659">
        <ele>105</ele>
        <time>2017-05-17T10:13:46.640</time>
      </trkpt>
      <trkpt lat="48.44957" lon="2.75659">
        <ele>105</ele>
        <time>2017-05-17T10:13:47.641</time>
      </trkpt>
      <trkpt lat="48.44957" lon="2.75659">
        <ele>105</ele>
        <time>2017-05-17T10:13:48.643</time>
      </trkpt>
      <trkpt lat="48.44957" lon="2.75661">
        <ele>105</ele>
        <time>2017-05-17T10:13:49.639</time>
      </trkpt>
      <trkpt lat="48.44958" lon="2.75661">
        <ele>105</ele>
        <time>2017-05-17T10:13:50.639</time>
      </trkpt>
      <trkpt lat="48.44958" lon="2.75661">
        <ele>105</ele>
        <time>2017-05-17T10:13:51.638</time>
      </trkpt>
      <trkpt lat="48.44958" lon="2.7566">
        <ele>105</ele>
        <time>2017-05-17T10:13:52.636</time>
      </trkpt>
      <trkpt lat="48.44958" lon="2.7566">
        <ele>104</ele>
        <time>2017-05-17T10:13:53.636</time>
      </trkpt>
      <trkpt lat="48.44958" lon="2.7566">
        <ele>105</ele>
        <time>2017-05-17T10:13:54.639</time>
      </trkpt>
      <trkpt lat="48.44958" lon="2.7566">
        <ele>104</ele>
        <time>2017-05-17T10:13:55.634</time>
      </trkpt>
      <trkpt lat="48.44958" lon="2.75659">
        <ele>103</ele>
        <time>2017-05-17T10:13:56.638</time>
      </trkpt>
      <trkpt lat="48.44958" lon="2.75659">
        <ele>103</ele>
        <time>2017-05-17T10:13:57.635</time>
      </trkpt>
      <trkpt lat="48.44958" lon="2.75659">
        <ele>103</ele>
        <time>2017-05-17T10:13:58.636</time>
      </trkpt>
      <trkpt lat="48.44957" lon="2.75659">
        <ele>103</ele>
        <time>2017-05-17T10:13:59.639</time>
      </trkpt>
      <trkpt lat="48.44958" lon="2.75659">
        <ele>102</ele>
        <time>2017-05-17T10:14:00.635</time>
      </trkpt>
      <trkpt lat="48.44957" lon="2.75659">
        <ele>103</ele>
        <time>2017-05-17T10:14:01.632</time>
      </trkpt>
      <trkpt lat="48.44957" lon="2.75659">
        <ele>103</ele>
        <time>2017-05-17T10:14:02.659</time>
      </trkpt>
      <trkpt lat="48.44957" lon="2.75659">
        <ele>103</ele>
        <time>2017-05-17T10:14:03.641</time>
      </trkpt>
      <trkpt lat="48.44957" lon="2.75658">
        <ele>103</ele>
        <time>2017-05-17T10:14:04.634</time>
      </trkpt>
      <trkpt lat="48.44957" lon="2.75658">
        <ele>103</ele>
        <time>2017-05-17T10:14:05.634</time>
      </trkpt>
      <trkpt lat="48.44958" lon="2.75659">
        <ele>104</ele>
        <time>2017-05-17T10:14:06.635</time>
      </trkpt>
      <trkpt lat="48.44957" lon="2.75659">
        <ele>104</ele>
        <time>2017-05-17T10:14:07.641</time>
      </trkpt>
      <trkpt lat="48.44957" lon="2.75659">
        <ele>104</ele>
        <time>2017-05-17T10:14:08.638</time>
      </trkpt>
      <trkpt lat="48.44957" lon="2.7566">
        <ele>103</ele>
        <time>2017-05-17T10:14:09.640</time>
      </trkpt>
      <trkpt lat="48.44957" lon="2.7566">
        <ele>104</ele>
        <time>2017-05-17T10:14:10.636</time>
      </trkpt>
      <trkpt lat="48.44957" lon="2.7566">
        <ele>104</ele>
        <time>2017-05-17T10:14:11.636</time>
      </trkpt>
      <trkpt lat="48.44957" lon="2.7566">
        <ele>104</ele>
        <time>2017-05-17T10:14:12.637</time>
      </trkpt>
      <trkpt lat="48.44957" lon="2.7566">
        <ele>103</ele>
        <time>2017-05-17T10:14:13.640</time>
      </trkpt>
      <trkpt lat="48.44957" lon="2.7566">
        <ele>103</ele>
        <time>2017-05-17T10:14:14.633</time>
      </trkpt>
      <trkpt lat="48.44958" lon="2.75661">
        <ele>103</ele>
        <time>2017-05-17T10:14:15.634</time>
      </trkpt>
      <trkpt lat="48.44958" lon="2.75661">
        <ele>104</ele>
        <time>2017-05-17T10:14:16.642</time>
      </trkpt>
      <trkpt lat="48.44958" lon="2.75661">
        <ele>103</ele>
        <time>2017-05-17T10:14:17.644</time>
      </trkpt>
      <trkpt lat="48.44958" lon="2.75661">
        <ele>103</ele>
        <time>2017-05-17T10:14:18.658</time>
      </trkpt>
      <trkpt lat="48.44957" lon="2.7566">
        <ele>104</ele>
        <time>2017-05-17T10:14:19.658</time>
      </trkpt>
      <trkpt lat="48.44956" lon="2.75658">
        <ele>104</ele>
        <time>2017-05-17T10:14:20.639</time>
      </trkpt>
      <trkpt lat="48.44956" lon="2.75658">
        <ele>105</ele>
        <time>2017-05-17T10:14:21.635</time>
      </trkpt>
      <trkpt lat="48.44954" lon="2.75657">
        <ele>104</ele>
        <time>2017-05-17T10:14:22.636</time>
      </trkpt>
      <trkpt lat="48.44954" lon="2.75656">
        <ele>104</ele>
        <time>2017-05-17T10:14:23.635</time>
      </trkpt>
      <trkpt lat="48.44954" lon="2.75654">
        <ele>103</ele>
        <time>2017-05-17T10:14:24.635</time>
      </trkpt>
      <trkpt lat="48.44953" lon="2.75652">
        <ele>102</ele>
        <time>2017-05-17T10:14:25.635</time>
      </trkpt>
      <trkpt lat="48.44952" lon="2.75651">
        <ele>103</ele>
        <time>2017-05-17T10:14:26.640</time>
      </trkpt>
      <trkpt lat="48.44951" lon="2.75651">
        <ele>104</ele>
        <time>2017-05-17T10:14:27.635</time>
      </trkpt>
      <trkpt lat="48.44951" lon="2.7565">
        <ele>103</ele>
        <time>2017-05-17T10:14:28.636</time>
      </trkpt>
      <trkpt lat="48.4495" lon="2.75649">
        <ele>103</ele>
        <time>2017-05-17T10:14:29.636</time>
      </trkpt>
      <trkpt lat="48.44951" lon="2.75649">
        <ele>104</ele>
        <time>2017-05-17T10:14:30.635</time>
      </trkpt>
      <trkpt lat="48.4495" lon="2.75649">
        <ele>104</ele>
        <time>2017-05-17T10:14:31.639</time>
      </trkpt>
      <trkpt lat="48.44951" lon="2.7565">
        <ele>104</ele>
        <time>2017-05-17T10:14:32.640</time>
      </trkpt>
      <trkpt lat="48.4495" lon="2.7565">
        <ele>104</ele>
        <time>2017-05-17T10:14:33.637</time>
      </trkpt>
      <trkpt lat="48.44951" lon="2.7565">
        <ele>104</ele>
        <time>2017-05-17T10:14:34.636</time>
      </trkpt>
      <trkpt lat="48.44951" lon="2.75649">
        <ele>105</ele>
        <time>2017-05-17T10:14:35.634</time>
      </trkpt>
      <trkpt lat="48.4495" lon="2.75649">
        <ele>105</ele>
        <time>2017-05-17T10:14:36.636</time>
      </trkpt>
      <trkpt lat="48.44951" lon="2.75649">
        <ele>105</ele>
        <time>2017-05-17T10:14:37.634</time>
      </trkpt>
      <trkpt lat="48.44951" lon="2.75649">
        <ele>104</ele>
        <time>2017-05-17T10:14:38.637</time>
      </trkpt>
      <trkpt lat="48.44951" lon="2.75649">
        <ele>104</ele>
        <time>2017-05-17T10:14:39.635</time>
      </trkpt>
      <trkpt lat="48.44951" lon="2.75649">
        <ele>104</ele>
        <time>2017-05-17T10:14:40.632</time>
      </trkpt>
      <trkpt lat="48.44951" lon="2.75649">
        <ele>104</ele>
        <time>2017-05-17T10:14:41.634</time>
      </trkpt>
      <trkpt lat="48.44951" lon="2.75649">
        <ele>104</ele>
        <time>2017-05-17T10:14:42.634</time>
      </trkpt>
      <trkpt lat="48.44951" lon="2.75649">
        <ele>104</ele>
        <time>2017-05-17T10:14:43.638</time>
      </trkpt>
      <trkpt lat="48.44951" lon="2.75649">
        <ele>105</ele>
        <time>2017-05-17T10:14:44.632</time>
      </trkpt>
      <trkpt lat="48.44951" lon="2.75649">
        <ele>105</ele>
        <time>2017-05-17T10:14:45.635</time>
      </trkpt>
      <trkpt lat="48.44951" lon="2.75649">
        <ele>105</ele>
        <time>2017-05-17T10:14:46.633</time>
      </trkpt>
      <trkpt lat="48.44951" lon="2.75649">
        <ele>105</ele>
        <time>2017-05-17T10:14:47.631</time>
      </trkpt>
      <trkpt lat="48.44951" lon="2.75649">
        <ele>105</ele>
        <time>2017-05-17T10:14:48.642</time>
      </trkpt>
      <trkpt lat="48.44951" lon="2.75649">
        <ele>105</ele>
        <time>2017-05-17T10:14:49.643</time>
      </trkpt>
      <trkpt lat="48.44951" lon="2.75649">
        <ele>105</ele>
        <time>2017-05-17T10:14:50.636</time>
      </trkpt>
      <trkpt lat="48.4495" lon="2.75647">
        <ele>105</ele>
        <time>2017-05-17T10:14:51.635</time>
      </trkpt>
      <trkpt lat="48.4495" lon="2.75647">
        <ele>105</ele>
        <time>2017-05-17T10:14:52.632</time>
      </trkpt>
      <trkpt lat="48.4495" lon="2.75646">
        <ele>104</ele>
        <time>2017-05-17T10:14:53.633</time>
      </trkpt>
      <trkpt lat="48.44951" lon="2.75647">
        <ele>104</ele>
        <time>2017-05-17T10:14:54.633</time>
      </trkpt>
      <trkpt lat="48.44951" lon="2.75647">
        <ele>104</ele>
        <time>2017-05-17T10:14:55.632</time>
      </trkpt>
      <trkpt lat="48.44951" lon="2.75646">
        <ele>104</ele>
        <time>2017-05-17T10:14:56.632</time>
      </trkpt>
      <trkpt lat="48.44951" lon="2.75646">
        <ele>104</ele>
        <time>2017-05-17T10:14:57.632</time>
      </trkpt>
      <trkpt lat="48.44951" lon="2.75646">
        <ele>104</ele>
        <time>2017-05-17T10:14:58.635</time>
      </trkpt>
      <trkpt lat="48.44951" lon="2.75646">
        <ele>104</ele>
        <time>2017-05-17T10:14:59.634</time>
      </trkpt>
      <trkpt lat="48.44951" lon="2.75646">
        <ele>105</ele>
        <time>2017-05-17T10:15:00.639</time>
      </trkpt>
      <trkpt lat="48.44951" lon="2.75645">
        <ele>105</ele>
        <time>2017-05-17T10:15:01.634</time>
      </trkpt>
      <trkpt lat="48.44951" lon="2.75648">
        <ele>105</ele>
        <time>2017-05-17T10:15:02.643</time>
      </trkpt>
      <trkpt lat="48.44951" lon="2.75649">
        <ele>106</ele>
        <time>2017-05-17T10:15:03.646</time>
      </trkpt>
      <trkpt lat="48.44951" lon="2.75649">
        <ele>106</ele>
        <time>2017-05-17T10:15:04.637</time>
      </trkpt>
      <trkpt lat="48.4495" lon="2.75646">
        <ele>106</ele>
        <time>2017-05-17T10:15:05.635</time>
      </trkpt>
      <trkpt lat="48.44949" lon="2.75646">
        <ele>107</ele>
        <time>2017-05-17T10:15:06.636</time>
      </trkpt>
      <trkpt lat="48.44948" lon="2.75645">
        <ele>107</ele>
        <time>2017-05-17T10:15:07.636</time>
      </trkpt>
      <trkpt lat="48.44949" lon="2.75647">
        <ele>106</ele>
        <time>2017-05-17T10:15:08.638</time>
      </trkpt>
      <trkpt lat="48.44949" lon="2.75648">
        <ele>106</ele>
        <time>2017-05-17T10:15:09.638</time>
      </trkpt>
      <trkpt lat="48.44948" lon="2.75649">
        <ele>106</ele>
        <time>2017-05-17T10:15:10.635</time>
      </trkpt>
      <trkpt lat="48.44948" lon="2.75649">
        <ele>106</ele>
        <time>2017-05-17T10:15:11.632</time>
      </trkpt>
      <trkpt lat="48.44948" lon="2.75649">
        <ele>106</ele>
        <time>2017-05-17T10:15:12.637</time>
      </trkpt>
      <trkpt lat="48.44948" lon="2.75649">
        <ele>106</ele>
        <time>2017-05-17T10:15:13.634</time>
      </trkpt>
      <trkpt lat="48.44948" lon="2.75649">
        <ele>106</ele>
        <time>2017-05-17T10:15:14.634</time>
      </trkpt>
      <trkpt lat="48.44948" lon="2.7565">
        <ele>106</ele>
        <time>2017-05-17T10:15:15.640</time>
      </trkpt>
      <trkpt lat="48.44948" lon="2.75651">
        <ele>106</ele>
        <time>2017-05-17T10:15:16.637</time>
      </trkpt>
      <trkpt lat="48.44949" lon="2.7565">
        <ele>106</ele>
        <time>2017-05-17T10:15:17.635</time>
      </trkpt>
      <trkpt lat="48.44949" lon="2.7565">
        <ele>107</ele>
        <time>2017-05-17T10:15:18.651</time>
      </trkpt>
      <trkpt lat="48.44949" lon="2.7565">
        <ele>107</ele>
        <time>2017-05-17T10:15:19.653</time>
      </trkpt>
      <trkpt lat="48.44948" lon="2.75651">
        <ele>107</ele>
        <time>2017-05-17T10:15:20.633</time>
      </trkpt>
      <trkpt lat="48.44949" lon="2.75651">
        <ele>107</ele>
        <time>2017-05-17T10:15:21.636</time>
      </trkpt>
      <trkpt lat="48.44949" lon="2.75652">
        <ele>106</ele>
        <time>2017-05-17T10:15:22.634</time>
      </trkpt>
      <trkpt lat="48.44949" lon="2.75652">
        <ele>106</ele>
        <time>2017-05-17T10:15:23.636</time>
      </trkpt>
      <trkpt lat="48.44948" lon="2.75652">
        <ele>106</ele>
        <time>2017-05-17T10:15:24.634</time>
      </trkpt>
      <trkpt lat="48.44948" lon="2.75652">
        <ele>106</ele>
        <time>2017-05-17T10:15:25.748</time>
      </trkpt>
      <trkpt lat="48.44948" lon="2.75652">
        <ele>106</ele>
        <time>2017-05-17T10:15:26.744</time>
      </trkpt>
      <trkpt lat="48.44948" lon="2.75652">
        <ele>106</ele>
        <time>2017-05-17T10:15:27.741</time>
      </trkpt>
      <trkpt lat="48.44948" lon="2.75652">
        <ele>106</ele>
        <time>2017-05-17T10:15:28.739</time>
      </trkpt>
      <trkpt lat="48.44948" lon="2.75652">
        <ele>106</ele>
        <time>2017-05-17T10:15:29.740</time>
      </trkpt>
      <trkpt lat="48.44948" lon="2.75652">
        <ele>106</ele>
        <time>2017-05-17T10:15:30.748</time>
      </trkpt>
      <trkpt lat="48.44948" lon="2.75652">
        <ele>106</ele>
        <time>2017-05-17T10:15:31.751</time>
      </trkpt>
      <trkpt lat="48.44948" lon="2.75652">
        <ele>106</ele>
        <time>2017-05-17T10:15:32.740</time>
      </trkpt>
      <trkpt lat="48.44948" lon="2.75652">
        <ele>106</ele>
        <time>2017-05-17T10:15:33.744</time>
      </trkpt>
      <trkpt lat="48.44948" lon="2.75652">
        <ele>106</ele>
        <time>2017-05-17T10:15:34.751</time>
      </trkpt>
      <trkpt lat="48.44948" lon="2.75652">
        <ele>106</ele>
        <time>2017-05-17T10:15:35.751</time>
      </trkpt>
      <trkpt lat="48.44948" lon="2.75652">
        <ele>106</ele>
        <time>2017-05-17T10:15:36.750</time>
      </trkpt>
      <trkpt lat="48.44948" lon="2.75652">
        <ele>106</ele>
        <time>2017-05-17T10:15:37.745</time>
      </trkpt>
      <trkpt lat="48.44948" lon="2.75652">
        <ele>106</ele>
        <time>2017-05-17T10:15:38.749</time>
      </trkpt>
      <trkpt lat="48.44948" lon="2.75652">
        <ele>106</ele>
        <time>2017-05-17T10:15:39.744</time>
      </trkpt>
      <trkpt lat="48.44948" lon="2.75652">
        <ele>106</ele>
        <time>2017-05-17T10:15:40.739</time>
      </trkpt>
      <trkpt lat="48.44948" lon="2.75652">
        <ele>106</ele>
        <time>2017-05-17T10:15:41.744</time>
      </trkpt>
      <trkpt lat="48.44948" lon="2.75652">
        <ele>106</ele>
        <time>2017-05-17T10:15:42.748</time>
      </trkpt>
      <trkpt lat="48.44948" lon="2.75652">
        <ele>106</ele>
        <time>2017-05-17T10:15:43.748</time>
      </trkpt>
      <trkpt lat="48.44948" lon="2.75652">
        <ele>106</ele>
        <time>2017-05-17T10:15:44.751</time>
      </trkpt>
      <trkpt lat="48.44948" lon="2.75652">
        <ele>106</ele>
        <time>2017-05-17T10:15:46.991</time>
      </trkpt>
      <trkpt lat="48.44948" lon="2.75652">
        <ele>106</ele>
        <time>2017-05-17T10:15:47.743</time>
      </trkpt>
      <trkpt lat="48.44948" lon="2.75652">
        <ele>106</ele>
        <time>2017-05-17T10:15:48.751</time>
      </trkpt>
      <trkpt lat="48.44948" lon="2.75652">
        <ele>106</ele>
        <time>2017-05-17T10:15:49.755</time>
      </trkpt>
      <trkpt lat="48.44948" lon="2.75652">
        <ele>106</ele>
        <time>2017-05-17T10:15:50.750</time>
      </trkpt>
      <trkpt lat="48.44948" lon="2.75652">
        <ele>106</ele>
        <time>2017-05-17T10:15:51.749</time>
      </trkpt>
      <trkpt lat="48.44948" lon="2.75652">
        <ele>106</ele>
        <time>2017-05-17T10:15:52.745</time>
      </trkpt>
      <trkpt lat="48.44948" lon="2.75652">
        <ele>106</ele>
        <time>2017-05-17T10:15:53.743</time>
      </trkpt>
      <trkpt lat="48.44948" lon="2.75652">
        <ele>106</ele>
        <time>2017-05-17T10:15:54.747</time>
      </trkpt>
      <trkpt lat="48.44948" lon="2.75652">
        <ele>106</ele>
        <time>2017-05-17T10:15:55.746</time>
      </trkpt>
      <trkpt lat="48.44948" lon="2.75652">
        <ele>106</ele>
        <time>2017-05-17T10:15:56.742</time>
      </trkpt>
      <trkpt lat="48.44948" lon="2.75652">
        <ele>106</ele>
        <time>2017-05-17T10:15:57.745</time>
      </trkpt>
      <trkpt lat="48.44948" lon="2.75652">
        <ele>106</ele>
        <time>2017-05-17T10:15:58.750</time>
      </trkpt>
      <trkpt lat="48.44948" lon="2.75652">
        <ele>106</ele>
        <time>2017-05-17T10:15:59.744</time>
      </trkpt>
      <trkpt lat="48.44948" lon="2.75652">
        <ele>106</ele>
        <time>2017-05-17T10:16:00.741</time>
      </trkpt>
      <trkpt lat="48.44948" lon="2.75652">
        <ele>106</ele>
        <time>2017-05-17T10:16:01.743</time>
      </trkpt>
      <trkpt lat="48.44948" lon="2.75652">
        <ele>106</ele>
        <time>2017-05-17T10:16:02.746</time>
      </trkpt>
      <trkpt lat="48.44948" lon="2.75652">
        <ele>106</ele>
        <time>2017-05-17T10:16:03.739</time>
      </trkpt>
      <trkpt lat="48.44948" lon="2.75652">
        <ele>106</ele>
        <time>2017-05-17T10:16:04.746</time>
      </trkpt>
      <trkpt lat="48.44948" lon="2.75652">
        <ele>106</ele>
        <time>2017-05-17T10:16:05.917</time>
      </trkpt>
      <trkpt lat="48.44948" lon="2.75652">
        <ele>106</ele>
        <time>2017-05-17T10:16:06.741</time>
      </trkpt>
      <trkpt lat="48.44948" lon="2.75652">
        <ele>106</ele>
        <time>2017-05-17T10:16:07.747</time>
      </trkpt>
      <trkpt lat="48.44948" lon="2.75652">
        <ele>106</ele>
        <time>2017-05-17T10:16:08.754</time>
      </trkpt>
      <trkpt lat="48.44948" lon="2.75652">
        <ele>106</ele>
        <time>2017-05-17T10:16:09.752</time>
      </trkpt>
      <trkpt lat="48.44948" lon="2.75652">
        <ele>106</ele>
        <time>2017-05-17T10:16:10.749</time>
      </trkpt>
      <trkpt lat="48.44948" lon="2.75652">
        <ele>106</ele>
        <time>2017-05-17T10:16:11.747</time>
      </trkpt>
      <trkpt lat="48.44948" lon="2.75652">
        <ele>106</ele>
        <time>2017-05-17T10:16:12.746</time>
      </trkpt>
      <trkpt lat="48.44948" lon="2.75652">
        <ele>106</ele>
        <time>2017-05-17T10:16:13.753</time>
      </trkpt>
      <trkpt lat="48.44948" lon="2.75652">
        <ele>106</ele>
        <time>2017-05-17T10:16:14.745</time>
      </trkpt>
      <trkpt lat="48.44948" lon="2.75652">
        <ele>106</ele>
        <time>2017-05-17T10:16:15.747</time>
      </trkpt>
      <trkpt lat="48.44948" lon="2.75652">
        <ele>106</ele>
        <time>2017-05-17T10:16:16.752</time>
      </trkpt>
      <trkpt lat="48.44948" lon="2.75652">
        <ele>106</ele>
        <time>2017-05-17T10:16:17.750</time>
      </trkpt>
      <trkpt lat="48.44948" lon="2.75652">
        <ele>106</ele>
        <time>2017-05-17T10:16:18.760</time>
      </trkpt>
      <trkpt lat="48.44948" lon="2.75652">
        <ele>106</ele>
        <time>2017-05-17T10:16:19.761</time>
      </trkpt>
      <trkpt lat="48.44948" lon="2.75652">
        <ele>106</ele>
        <time>2017-05-17T10:16:20.751</time>
      </trkpt>
      <trkpt lat="48.44948" lon="2.75652">
        <ele>106</ele>
        <time>2017-05-17T10:16:21.745</time>
      </trkpt>
      <trkpt lat="48.44948" lon="2.75652">
        <ele>106</ele>
        <time>2017-05-17T10:16:22.745</time>
      </trkpt>
      <trkpt lat="48.44948" lon="2.75652">
        <ele>106</ele>
        <time>2017-05-17T10:16:23.749</time>
      </trkpt>
      <trkpt lat="48.44948" lon="2.75652">
        <ele>106</ele>
        <time>2017-05-17T10:16:24.748</time>
      </trkpt>
      <trkpt lat="48.44948" lon="2.75652">
        <ele>106</ele>
        <time>2017-05-17T10:16:25.805</time>
      </trkpt>
      <trkpt lat="48.44948" lon="2.75652">
        <ele>106</ele>
        <time>2017-05-17T10:16:26.747</time>
      </trkpt>
      <trkpt lat="48.44948" lon="2.75652">
        <ele>106</ele>
        <time>2017-05-17T10:16:27.746</time>
      </trkpt>
      <trkpt lat="48.44948" lon="2.75652">
        <ele>106</ele>
        <time>2017-05-17T10:16:28.748</time>
      </trkpt>
      <trkpt lat="48.44948" lon="2.75652">
        <ele>106</ele>
        <time>2017-05-17T10:16:29.754</time>
      </trkpt>
      <trkpt lat="48.44948" lon="2.75652">
        <ele>106</ele>
        <time>2017-05-17T10:16:30.749</time>
      </trkpt>
      <trkpt lat="48.44948" lon="2.75652">
        <ele>106</ele>
        <time>2017-05-17T10:16:31.747</time>
      </trkpt>
      <trkpt lat="48.44948" lon="2.75652">
        <ele>106</ele>
        <time>2017-05-17T10:16:32.747</time>
      </trkpt>
      <trkpt lat="48.44948" lon="2.75652">
        <ele>106</ele>
        <time>2017-05-17T10:16:33.749</time>
      </trkpt>
      <trkpt lat="48.44948" lon="2.75652">
        <ele>106</ele>
        <time>2017-05-17T10:16:34.748</time>
      </trkpt>
      <trkpt lat="48.44948" lon="2.75652">
        <ele>106</ele>
        <time>2017-05-17T10:16:35.743</time>
      </trkpt>
      <trkpt lat="48.44948" lon="2.75652">
        <ele>106</ele>
        <time>2017-05-17T10:16:36.745</time>
      </trkpt>
      <trkpt lat="48.44948" lon="2.75652">
        <ele>106</ele>
        <time>2017-05-17T10:16:37.751</time>
      </trkpt>
      <trkpt lat="48.44948" lon="2.75652">
        <ele>106</ele>
        <time>2017-05-17T10:16:38.751</time>
      </trkpt>
      <trkpt lat="48.44948" lon="2.75652">
        <ele>106</ele>
        <time>2017-05-17T10:16:39.753</time>
      </trkpt>
      <trkpt lat="48.44948" lon="2.75652">
        <ele>106</ele>
        <time>2017-05-17T10:16:40.748</time>
      </trkpt>
      <trkpt lat="48.44948" lon="2.75652">
        <ele>106</ele>
        <time>2017-05-17T10:16:41.748</time>
      </trkpt>
      <trkpt lat="48.44948" lon="2.75652">
        <ele>106</ele>
        <time>2017-05-17T10:16:42.744</time>
      </trkpt>
      <trkpt lat="48.44948" lon="2.75652">
        <ele>106</ele>
        <time>2017-05-17T10:16:43.741</time>
      </trkpt>
      <trkpt lat="48.44948" lon="2.75652">
        <ele>106</ele>
        <time>2017-05-17T10:16:44.751</time>
      </trkpt>
      <trkpt lat="48.44948" lon="2.75652">
        <ele>106</ele>
        <time>2017-05-17T10:16:45.747</time>
      </trkpt>
      <trkpt lat="48.44948" lon="2.75652">
        <ele>106</ele>
        <time>2017-05-17T10:16:46.748</time>
      </trkpt>
      <trkpt lat="48.44948" lon="2.75653">
        <ele>106</ele>
        <time>2017-05-17T10:16:47.752</time>
      </trkpt>
      <trkpt lat="48.44948" lon="2.75653">
        <ele>106</ele>
        <time>2017-05-17T10:16:48.777</time>
      </trkpt>
      <trkpt lat="48.44948" lon="2.75653">
        <ele>106</ele>
        <time>2017-05-17T10:16:49.770</time>
      </trkpt>
      <trkpt lat="48.44948" lon="2.75653">
        <ele>106</ele>
        <time>2017-05-17T10:16:50.752</time>
      </trkpt>
      <trkpt lat="48.44948" lon="2.75652">
        <ele>107</ele>
        <time>2017-05-17T10:16:51.745</time>
      </trkpt>
      <trkpt lat="48.44948" lon="2.75652">
        <ele>107</ele>
        <time>2017-05-17T10:16:52.742</time>
      </trkpt>
      <trkpt lat="48.44948" lon="2.75652">
        <ele>108</ele>
        <time>2017-05-17T10:16:53.740</time>
      </trkpt>
      <trkpt lat="48.44948" lon="2.75652">
        <ele>108</ele>
        <time>2017-05-17T10:16:54.742</time>
      </trkpt>
      <trkpt lat="48.44949" lon="2.75652">
        <ele>108</ele>
        <time>2017-05-17T10:16:55.749</time>
      </trkpt>
      <trkpt lat="48.44948" lon="2.75652">
        <ele>108</ele>
        <time>2017-05-17T10:16:56.751</time>
      </trkpt>
      <trkpt lat="48.44948" lon="2.75652">
        <ele>108</ele>
        <time>2017-05-17T10:16:57.755</time>
      </trkpt>
      <trkpt lat="48.44948" lon="2.75652">
        <ele>108</ele>
        <time>2017-05-17T10:16:58.762</time>
      </trkpt>
      <trkpt lat="48.44948" lon="2.75652">
        <ele>108</ele>
        <time>2017-05-17T10:16:59.753</time>
      </trkpt>
      <trkpt lat="48.44948" lon="2.75652">
        <ele>108</ele>
        <time>2017-05-17T10:17:00.754</time>
      </trkpt>
      <trkpt lat="48.44949" lon="2.75653">
        <ele>108</ele>
        <time>2017-05-17T10:17:01.743</time>
      </trkpt>
      <trkpt lat="48.44949" lon="2.75653">
        <ele>108</ele>
        <time>2017-05-17T10:17:02.744</time>
      </trkpt>
      <trkpt lat="48.44949" lon="2.75652">
        <ele>108</ele>
        <time>2017-05-17T10:17:03.741</time>
      </trkpt>
      <trkpt lat="48.44948" lon="2.75652">
        <ele>108</ele>
        <time>2017-05-17T10:17:04.746</time>
      </trkpt>
      <trkpt lat="48.44949" lon="2.75653">
        <ele>108</ele>
        <time>2017-05-17T10:17:05.749</time>
      </trkpt>
      <trkpt lat="48.44949" lon="2.75653">
        <ele>108</ele>
        <time>2017-05-17T10:17:06.748</time>
      </trkpt>
      <trkpt lat="48.44949" lon="2.75653">
        <ele>108</ele>
        <time>2017-05-17T10:17:07.748</time>
      </trkpt>
      <trkpt lat="48.44949" lon="2.75652">
        <ele>108</ele>
        <time>2017-05-17T10:17:08.756</time>
      </trkpt>
      <trkpt lat="48.44949" lon="2.75652">
        <ele>108</ele>
        <time>2017-05-17T10:17:09.746</time>
      </trkpt>
      <trkpt lat="48.44949" lon="2.75652">
        <ele>108</ele>
        <time>2017-05-17T10:17:10.750</time>
      </trkpt>
      <trkpt lat="48.44949" lon="2.75652">
        <ele>108</ele>
        <time>2017-05-17T10:17:11.748</time>
      </trkpt>
      <trkpt lat="48.44948" lon="2.75652">
        <ele>108</ele>
        <time>2017-05-17T10:17:12.748</time>
      </trkpt>
      <trkpt lat="48.44948" lon="2.75652">
        <ele>108</ele>
        <time>2017-05-17T10:17:13.743</time>
      </trkpt>
      <trkpt lat="48.44948" lon="2.75653">
        <ele>108</ele>
        <time>2017-05-17T10:17:14.745</time>
      </trkpt>
      <trkpt lat="48.44948" lon="2.75653">
        <ele>108</ele>
        <time>2017-05-17T10:17:15.757</time>
      </trkpt>
      <trkpt lat="48.44948" lon="2.75652">
        <ele>108</ele>
        <time>2017-05-17T10:17:16.750</time>
      </trkpt>
      <trkpt lat="48.44948" lon="2.75653">
        <ele>108</ele>
        <time>2017-05-17T10:17:17.745</time>
      </trkpt>
      <trkpt lat="48.44949" lon="2.75653">
        <ele>109</ele>
        <time>2017-05-17T10:17:18.747</time>
      </trkpt>
      <trkpt lat="48.44949" lon="2.75653">
        <ele>109</ele>
        <time>2017-05-17T10:17:19.752</time>
      </trkpt>
      <trkpt lat="48.44949" lon="2.75654">
        <ele>109</ele>
        <time>2017-05-17T10:17:20.749</time>
      </trkpt>
      <trkpt lat="48.4495" lon="2.75654">
        <ele>109</ele>
        <time>2017-05-17T10:17:21.752</time>
      </trkpt>
      <trkpt lat="48.4495" lon="2.75654">
        <ele>108</ele>
        <time>2017-05-17T10:17:22.750</time>
      </trkpt>
      <trkpt lat="48.44949" lon="2.75654">
        <ele>108</ele>
        <time>2017-05-17T10:17:23.751</time>
      </trkpt>
      <trkpt lat="48.44949" lon="2.75653">
        <ele>108</ele>
        <time>2017-05-17T10:17:24.750</time>
      </trkpt>
      <trkpt lat="48.44949" lon="2.75653">
        <ele>108</ele>
        <time>2017-05-17T10:17:25.743</time>
      </trkpt>
      <trkpt lat="48.44949" lon="2.75653">
        <ele>108</ele>
        <time>2017-05-17T10:17:26.742</time>
      </trkpt>
      <trkpt lat="48.44949" lon="2.75653">
        <ele>108</ele>
        <time>2017-05-17T10:17:27.747</time>
      </trkpt>
      <trkpt lat="48.44949" lon="2.75653">
        <ele>108</ele>
        <time>2017-05-17T10:17:28.752</time>
      </trkpt>
      <trkpt lat="48.44949" lon="2.75653">
        <ele>108</ele>
        <time>2017-05-17T10:17:29.752</time>
      </trkpt>
      <trkpt lat="48.44949" lon="2.75653">
        <ele>108</ele>
        <time>2017-05-17T10:17:30.749</time>
      </trkpt>
      <trkpt lat="48.4495" lon="2.75653">
        <ele>108</ele>
        <time>2017-05-17T10:17:31.749</time>
      </trkpt>
      <trkpt lat="48.44949" lon="2.75653">
        <ele>108</ele>
        <time>2017-05-17T10:17:32.750</time>
      </trkpt>
      <trkpt lat="48.44949" lon="2.75653">
        <ele>108</ele>
        <time>2017-05-17T10:17:33.743</time>
      </trkpt>
      <trkpt lat="48.44949" lon="2.75653">
        <ele>108</ele>
        <time>2017-05-17T10:17:34.757</time>
      </trkpt>
      <trkpt lat="48.44949" lon="2.75653">
        <ele>108</ele>
        <time>2017-05-17T10:17:35.746</time>
      </trkpt>
      <trkpt lat="48.44949" lon="2.75653">
        <ele>108</ele>
        <time>2017-05-17T10:17:36.743</time>
      </trkpt>
      <trkpt lat="48.44949" lon="2.75653">
        <ele>108</ele>
        <time>2017-05-17T10:17:37.744</time>
      </trkpt>
      <trkpt lat="48.44949" lon="2.75653">
        <ele>108</ele>
        <time>2017-05-17T10:17:38.755</time>
      </trkpt>
      <trkpt lat="48.44949" lon="2.75653">
        <ele>108</ele>
        <time>2017-05-17T10:17:39.755</time>
      </trkpt>
      <trkpt lat="48.44949" lon="2.75653">
        <ele>108</ele>
        <time>2017-05-17T10:17:40.741</time>
      </trkpt>
      <trkpt lat="48.44949" lon="2.75653">
        <ele>108</ele>
        <time>2017-05-17T10:17:41.739</time>
      </trkpt>
      <trkpt lat="48.44949" lon="2.75653">
        <ele>108</ele>
        <time>2017-05-17T10:17:42.744</time>
      </trkpt>
      <trkpt lat="48.44949" lon="2.75653">
        <ele>108</ele>
        <time>2017-05-17T10:17:43.745</time>
      </trkpt>
      <trkpt lat="48.44949" lon="2.75653">
        <ele>108</ele>
        <time>2017-05-17T10:17:44.749</time>
      </trkpt>
      <trkpt lat="48.44949" lon="2.75653">
        <ele>108</ele>
        <time>2017-05-17T10:17:45.749</time>
      </trkpt>
      <trkpt lat="48.44951" lon="2.75653">
        <ele>106</ele>
        <time>2017-05-17T10:17:46.748</time>
      </trkpt>
      <trkpt lat="48.44952" lon="2.75652">
        <ele>105</ele>
        <time>2017-05-17T10:17:47.748</time>
      </trkpt>
      <trkpt lat="48.44952" lon="2.75652">
        <ele>106</ele>
        <time>2017-05-17T10:17:48.751</time>
      </trkpt>
      <trkpt lat="48.44952" lon="2.75652">
        <ele>105</ele>
        <time>2017-05-17T10:17:49.746</time>
      </trkpt>
      <trkpt lat="48.44952" lon="2.75652">
        <ele>104</ele>
        <time>2017-05-17T10:17:50.743</time>
      </trkpt>
      <trkpt lat="48.44953" lon="2.75653">
        <ele>103</ele>
        <time>2017-05-17T10:17:51.749</time>
      </trkpt>
      <trkpt lat="48.44952" lon="2.75653">
        <ele>103</ele>
        <time>2017-05-17T10:17:52.751</time>
      </trkpt>
      <trkpt lat="48.44953" lon="2.75654">
        <ele>102</ele>
        <time>2017-05-17T10:17:53.752</time>
      </trkpt>
      <trkpt lat="48.44955" lon="2.75652">
        <ele>99</ele>
        <time>2017-05-17T10:17:54.753</time>
      </trkpt>
      <trkpt lat="48.44956" lon="2.75652">
        <ele>99</ele>
        <time>2017-05-17T10:17:55.751</time>
      </trkpt>
      <trkpt lat="48.44956" lon="2.75652">
        <ele>99</ele>
        <time>2017-05-17T10:17:56.751</time>
      </trkpt>
      <trkpt lat="48.44955" lon="2.75653">
        <ele>101</ele>
        <time>2017-05-17T10:17:57.746</time>
      </trkpt>
      <trkpt lat="48.44955" lon="2.75654">
        <ele>103</ele>
        <time>2017-05-17T10:17:58.746</time>
      </trkpt>
      <trkpt lat="48.44955" lon="2.75654">
        <ele>103</ele>
        <time>2017-05-17T10:17:59.748</time>
      </trkpt>
      <trkpt lat="48.44955" lon="2.75653">
        <ele>103</ele>
        <time>2017-05-17T10:18:00.753</time>
      </trkpt>
      <trkpt lat="48.44955" lon="2.75653">
        <ele>104</ele>
        <time>2017-05-17T10:18:01.751</time>
      </trkpt>
      <trkpt lat="48.44955" lon="2.75653">
        <ele>104</ele>
        <time>2017-05-17T10:18:02.749</time>
      </trkpt>
      <trkpt lat="48.44955" lon="2.75652">
        <ele>104</ele>
        <time>2017-05-17T10:18:03.747</time>
      </trkpt>
      <trkpt lat="48.44955" lon="2.75652">
        <ele>105</ele>
        <time>2017-05-17T10:18:04.748</time>
      </trkpt>
      <trkpt lat="48.44954" lon="2.75652">
        <ele>105</ele>
        <time>2017-05-17T10:18:05.747</time>
      </trkpt>
      <trkpt lat="48.44954" lon="2.75652">
        <ele>105</ele>
        <time>2017-05-17T10:18:06.749</time>
      </trkpt>
      <trkpt lat="48.44954" lon="2.75652">
        <ele>105</ele>
        <time>2017-05-17T10:18:07.750</time>
      </trkpt>
      <trkpt lat="48.44954" lon="2.75652">
        <ele>105</ele>
        <time>2017-05-17T10:18:08.752</time>
      </trkpt>
      <trkpt lat="48.44954" lon="2.75652">
        <ele>105</ele>
        <time>2017-05-17T10:18:09.752</time>
      </trkpt>
      <trkpt lat="48.44954" lon="2.75652">
        <ele>105</ele>
        <time>2017-05-17T10:18:10.753</time>
      </trkpt>
      <trkpt lat="48.44954" lon="2.75652">
        <ele>106</ele>
        <time>2017-05-17T10:18:11.750</time>
      </trkpt>
      <trkpt lat="48.44954" lon="2.75652">
        <ele>106</ele>
        <time>2017-05-17T10:18:12.746</time>
      </trkpt>
      <trkpt lat="48.44954" lon="2.75652">
        <ele>105</ele>
        <time>2017-05-17T10:18:13.740</time>
      </trkpt>
      <trkpt lat="48.44954" lon="2.75652">
        <ele>106</ele>
        <time>2017-05-17T10:18:14.745</time>
      </trkpt>
      <trkpt lat="48.44954" lon="2.75652">
        <ele>106</ele>
        <time>2017-05-17T10:18:15.749</time>
      </trkpt>
      <trkpt lat="48.44954" lon="2.75652">
        <ele>105</ele>
        <time>2017-05-17T10:18:16.745</time>
      </trkpt>
      <trkpt lat="48.44954" lon="2.75653">
        <ele>105</ele>
        <time>2017-05-17T10:18:17.747</time>
      </trkpt>
      <trkpt lat="48.44954" lon="2.75653">
        <ele>107</ele>
        <time>2017-05-17T10:18:18.754</time>
      </trkpt>
      <trkpt lat="48.44954" lon="2.75653">
        <ele>107</ele>
        <time>2017-05-17T10:18:19.760</time>
      </trkpt>
      <trkpt lat="48.44955" lon="2.75653">
        <ele>107</ele>
        <time>2017-05-17T10:18:20.760</time>
      </trkpt>
      <trkpt lat="48.44953" lon="2.75653">
        <ele>108</ele>
        <time>2017-05-17T10:18:21.755</time>
      </trkpt>
      <trkpt lat="48.44953" lon="2.75653">
        <ele>108</ele>
        <time>2017-05-17T10:18:22.754</time>
      </trkpt>
      <trkpt lat="48.44953" lon="2.75653">
        <ele>108</ele>
        <time>2017-05-17T10:18:23.752</time>
      </trkpt>
      <trkpt lat="48.44953" lon="2.75653">
        <ele>108</ele>
        <time>2017-05-17T10:18:24.755</time>
      </trkpt>
      <trkpt lat="48.44952" lon="2.75653">
        <ele>108</ele>
        <time>2017-05-17T10:18:25.758</time>
      </trkpt>
      <trkpt lat="48.44952" lon="2.75653">
        <ele>108</ele>
        <time>2017-05-17T10:18:26.754</time>
      </trkpt>
      <trkpt lat="48.44953" lon="2.75653">
        <ele>108</ele>
        <time>2017-05-17T10:18:27.758</time>
      </trkpt>
      <trkpt lat="48.44952" lon="2.75653">
        <ele>109</ele>
        <time>2017-05-17T10:18:28.760</time>
      </trkpt>
      <trkpt lat="48.44952" lon="2.75653">
        <ele>109</ele>
        <time>2017-05-17T10:18:29.757</time>
      </trkpt>
      <trkpt lat="48.44952" lon="2.75654">
        <ele>108</ele>
        <time>2017-05-17T10:18:30.755</time>
      </trkpt>
      <trkpt lat="48.44952" lon="2.75654">
        <ele>108</ele>
        <time>2017-05-17T10:18:31.748</time>
      </trkpt>
      <trkpt lat="48.44952" lon="2.75654">
        <ele>108</ele>
        <time>2017-05-17T10:18:32.759</time>
      </trkpt>
      <trkpt lat="48.44952" lon="2.75654">
        <ele>108</ele>
        <time>2017-05-17T10:18:33.757</time>
      </trkpt>
      <trkpt lat="48.44952" lon="2.75654">
        <ele>108</ele>
        <time>2017-05-17T10:18:34.758</time>
      </trkpt>
      <trkpt lat="48.44952" lon="2.75654">
        <ele>108</ele>
        <time>2017-05-17T10:18:35.758</time>
      </trkpt>
      <trkpt lat="48.44952" lon="2.75654">
        <ele>108</ele>
        <time>2017-05-17T10:18:36.758</time>
      </trkpt>
      <trkpt lat="48.44952" lon="2.75654">
        <ele>108</ele>
        <time>2017-05-17T10:18:37.753</time>
      </trkpt>
      <trkpt lat="48.44952" lon="2.75654">
        <ele>108</ele>
        <time>2017-05-17T10:18:38.755</time>
      </trkpt>
      <trkpt lat="48.44952" lon="2.75654">
        <ele>108</ele>
        <time>2017-05-17T10:18:39.760</time>
      </trkpt>
      <trkpt lat="48.44952" lon="2.75654">
        <ele>108</ele>
        <time>2017-05-17T10:18:40.750</time>
      </trkpt>
      <trkpt lat="48.44952" lon="2.75654">
        <ele>108</ele>
        <time>2017-05-17T10:18:41.755</time>
      </trkpt>
      <trkpt lat="48.44952" lon="2.75654">
        <ele>108</ele>
        <time>2017-05-17T10:18:42.753</time>
      </trkpt>
      <trkpt lat="48.44952" lon="2.75654">
        <ele>108</ele>
        <time>2017-05-17T10:18:43.751</time>
      </trkpt>
      <trkpt lat="48.44952" lon="2.75654">
        <ele>108</ele>
        <time>2017-05-17T10:18:44.756</time>
      </trkpt>
      <trkpt lat="48.44952" lon="2.75654">
        <ele>108</ele>
        <time>2017-05-17T10:18:45.758</time>
      </trkpt>
      <trkpt lat="48.44952" lon="2.75654">
        <ele>108</ele>
        <time>2017-05-17T10:18:46.755</time>
      </trkpt>
      <trkpt lat="48.44952" lon="2.75654">
        <ele>108</ele>
        <time>2017-05-17T10:18:47.755</time>
      </trkpt>
      <trkpt lat="48.44952" lon="2.75654">
        <ele>108</ele>
        <time>2017-05-17T10:18:48.766</time>
      </trkpt>
      <trkpt lat="48.44952" lon="2.75654">
        <ele>108</ele>
        <time>2017-05-17T10:18:49.767</time>
      </trkpt>
      <trkpt lat="48.44952" lon="2.75654">
        <ele>108</ele>
        <time>2017-05-17T10:18:50.750</time>
      </trkpt>
      <trkpt lat="48.44952" lon="2.75654">
        <ele>109</ele>
        <time>2017-05-17T10:18:51.756</time>
      </trkpt>
      <trkpt lat="48.44951" lon="2.75654">
        <ele>110</ele>
        <time>2017-05-17T10:18:52.761</time>
      </trkpt>
      <trkpt lat="48.44951" lon="2.75654">
        <ele>110</ele>
        <time>2017-05-17T10:18:53.759</time>
      </trkpt>
      <trkpt lat="48.44951" lon="2.75654">
        <ele>110</ele>
        <time>2017-05-17T10:18:54.754</time>
      </trkpt>
      <trkpt lat="48.4495" lon="2.75654">
        <ele>110</ele>
        <time>2017-05-17T10:18:55.755</time>
      </trkpt>
      <trkpt lat="48.44951" lon="2.75654">
        <ele>110</ele>
        <time>2017-05-17T10:18:56.756</time>
      </trkpt>
      <trkpt lat="48.44951" lon="2.75654">
        <ele>110</ele>
        <time>2017-05-17T10:18:57.756</time>
      </trkpt>
      <trkpt lat="48.44951" lon="2.75655">
        <ele>110</ele>
        <time>2017-05-17T10:18:58.848</time>
      </trkpt>
      <trkpt lat="48.44951" lon="2.75654">
        <ele>110</ele>
        <time>2017-05-17T10:18:59.757</time>
      </trkpt>
      <trkpt lat="48.44951" lon="2.75654">
        <ele>110</ele>
        <time>2017-05-17T10:19:00.758</time>
      </trkpt>
      <trkpt lat="48.44951" lon="2.75654">
        <ele>109</ele>
        <time>2017-05-17T10:19:01.757</time>
      </trkpt>
      <trkpt lat="48.44951" lon="2.75654">
        <ele>109</ele>
        <time>2017-05-17T10:19:02.754</time>
      </trkpt>
      <trkpt lat="48.44951" lon="2.75654">
        <ele>109</ele>
        <time>2017-05-17T10:19:03.755</time>
      </trkpt>
      <trkpt lat="48.44951" lon="2.75654">
        <ele>109</ele>
        <time>2017-05-17T10:19:04.760</time>
      </trkpt>
      <trkpt lat="48.44951" lon="2.75654">
        <ele>109</ele>
        <time>2017-05-17T10:19:05.758</time>
      </trkpt>
      <trkpt lat="48.44951" lon="2.75654">
        <ele>109</ele>
        <time>2017-05-17T10:19:06.750</time>
      </trkpt>
      <trkpt lat="48.44951" lon="2.75654">
        <ele>109</ele>
        <time>2017-05-17T10:19:07.752</time>
      </trkpt>
      <trkpt lat="48.44951" lon="2.75654">
        <ele>109</ele>
        <time>2017-05-17T10:19:08.748</time>
      </trkpt>
      <trkpt lat="48.44951" lon="2.75654">
        <ele>109</ele>
        <time>2017-05-17T10:19:09.752</time>
      </trkpt>
      <trkpt lat="48.44951" lon="2.75654">
        <ele>109</ele>
        <time>2017-05-17T10:19:10.755</time>
      </trkpt>
      <trkpt lat="48.44951" lon="2.75654">
        <ele>109</ele>
        <time>2017-05-17T10:19:11.756</time>
      </trkpt>
      <trkpt lat="48.44951" lon="2.75654">
        <ele>109</ele>
        <time>2017-05-17T10:19:12.748</time>
      </trkpt>
      <trkpt lat="48.44951" lon="2.75654">
        <ele>109</ele>
        <time>2017-05-17T10:19:13.753</time>
      </trkpt>
      <trkpt lat="48.44951" lon="2.75654">
        <ele>109</ele>
        <time>2017-05-17T10:19:14.751</time>
      </trkpt>
      <trkpt lat="48.44951" lon="2.75654">
        <ele>109</ele>
        <time>2017-05-17T10:19:15.753</time>
      </trkpt>
      <trkpt lat="48.44951" lon="2.75654">
        <ele>109</ele>
        <time>2017-05-17T10:19:16.758</time>
      </trkpt>
      <trkpt lat="48.44951" lon="2.75654">
        <ele>109</ele>
        <time>2017-05-17T10:19:17.755</time>
      </trkpt>
      <trkpt lat="48.44951" lon="2.75654">
        <ele>109</ele>
        <time>2017-05-17T10:19:18.763</time>
      </trkpt>
      <trkpt lat="48.44951" lon="2.75654">
        <ele>109</ele>
        <time>2017-05-17T10:19:19.751</time>
      </trkpt>
      <trkpt lat="48.44951" lon="2.75654">
        <ele>109</ele>
        <time>2017-05-17T10:19:20.752</time>
      </trkpt>
      <trkpt lat="48.44951" lon="2.75654">
        <ele>109</ele>
        <time>2017-05-17T10:19:21.757</time>
      </trkpt>
      <trkpt lat="48.44951" lon="2.75654">
        <ele>109</ele>
        <time>2017-05-17T10:19:22.756</time>
      </trkpt>
      <trkpt lat="48.44951" lon="2.75654">
        <ele>109</ele>
        <time>2017-05-17T10:19:23.755</time>
      </trkpt>
      <trkpt lat="48.44951" lon="2.75654">
        <ele>109</ele>
        <time>2017-05-17T10:19:24.756</time>
      </trkpt>
      <trkpt lat="48.44951" lon="2.75654">
        <ele>109</ele>
        <time>2017-05-17T10:19:25.755</time>
      </trkpt>
      <trkpt lat="48.44951" lon="2.75654">
        <ele>109</ele>
        <time>2017-05-17T10:19:26.758</time>
      </trkpt>
      <trkpt lat="48.44951" lon="2.75654">
        <ele>109</ele>
        <time>2017-05-17T10:19:27.754</time>
      </trkpt>
      <trkpt lat="48.44951" lon="2.75654">
        <ele>109</ele>
        <time>2017-05-17T10:19:28.751</time>
      </trkpt>
      <trkpt lat="48.44951" lon="2.75654">
        <ele>109</ele>
        <time>2017-05-17T10:19:29.753</time>
      </trkpt>
      <trkpt lat="48.44951" lon="2.75654">
        <ele>109</ele>
        <time>2017-05-17T10:19:30.747</time>
      </trkpt>
      <trkpt lat="48.44951" lon="2.75654">
        <ele>109</ele>
        <time>2017-05-17T10:19:31.752</time>
      </trkpt>
      <trkpt lat="48.44951" lon="2.75654">
        <ele>109</ele>
        <time>2017-05-17T10:19:32.753</time>
      </trkpt>
      <trkpt lat="48.44951" lon="2.75654">
        <ele>109</ele>
        <time>2017-05-17T10:19:33.757</time>
      </trkpt>
      <trkpt lat="48.44951" lon="2.75654">
        <ele>109</ele>
        <time>2017-05-17T10:19:34.750</time>
      </trkpt>
      <trkpt lat="48.44951" lon="2.75654">
        <ele>109</ele>
        <time>2017-05-17T10:19:35.747</time>
      </trkpt>
      <trkpt lat="48.44951" lon="2.75654">
        <ele>109</ele>
        <time>2017-05-17T10:19:36.750</time>
      </trkpt>
      <trkpt lat="48.44951" lon="2.75654">
        <ele>109</ele>
        <time>2017-05-17T10:19:37.756</time>
      </trkpt>
      <trkpt lat="48.44951" lon="2.75654">
        <ele>109</ele>
        <time>2017-05-17T10:19:38.755</time>
      </trkpt>
      <trkpt lat="48.44951" lon="2.75654">
        <ele>109</ele>
        <time>2017-05-17T10:19:39.796</time>
      </trkpt>
      <trkpt lat="48.44951" lon="2.75654">
        <ele>109</ele>
        <time>2017-05-17T10:19:40.753</time>
      </trkpt>
      <trkpt lat="48.44951" lon="2.75654">
        <ele>109</ele>
        <time>2017-05-17T10:19:41.756</time>
      </trkpt>
      <trkpt lat="48.44951" lon="2.75654">
        <ele>109</ele>
        <time>2017-05-17T10:19:42.757</time>
      </trkpt>
      <trkpt lat="48.44951" lon="2.75654">
        <ele>109</ele>
        <time>2017-05-17T10:19:43.756</time>
      </trkpt>
      <trkpt lat="48.44951" lon="2.75654">
        <ele>109</ele>
        <time>2017-05-17T10:19:44.754</time>
      </trkpt>
      <trkpt lat="48.44951" lon="2.75654">
        <ele>109</ele>
        <time>2017-05-17T10:19:45.755</time>
      </trkpt>
      <trkpt lat="48.44951" lon="2.75654">
        <ele>109</ele>
        <time>2017-05-17T10:19:46.755</time>
      </trkpt>
      <trkpt lat="48.44951" lon="2.75654">
        <ele>109</ele>
        <time>2017-05-17T10:19:47.752</time>
      </trkpt>
      <trkpt lat="48.44951" lon="2.75654">
        <ele>109</ele>
        <time>2017-05-17T10:19:48.757</time>
      </trkpt>
      <trkpt lat="48.44951" lon="2.75654">
        <ele>109</ele>
        <time>2017-05-17T10:19:49.756</time>
      </trkpt>
      <trkpt lat="48.44951" lon="2.75654">
        <ele>109</ele>
        <time>2017-05-17T10:19:50.755</time>
      </trkpt>
      <trkpt lat="48.44951" lon="2.75654">
        <ele>109</ele>
        <time>2017-05-17T10:19:51.755</time>
      </trkpt>
      <trkpt lat="48.44951" lon="2.75654">
        <ele>109</ele>
        <time>2017-05-17T10:19:52.758</time>
      </trkpt>
      <trkpt lat="48.44951" lon="2.75654">
        <ele>109</ele>
        <time>2017-05-17T10:19:53.753</time>
      </trkpt>
      <trkpt lat="48.44951" lon="2.75654">
        <ele>109</ele>
        <time>2017-05-17T10:19:54.751</time>
      </trkpt>
      <trkpt lat="48.44951" lon="2.75654">
        <ele>109</ele>
        <time>2017-05-17T10:19:55.756</time>
      </trkpt>
      <trkpt lat="48.44951" lon="2.75654">
        <ele>109</ele>
        <time>2017-05-17T10:19:56.756</time>
      </trkpt>
      <trkpt lat="48.44951" lon="2.75654">
        <ele>109</ele>
        <time>2017-05-17T10:19:57.752</time>
      </trkpt>
      <trkpt lat="48.44951" lon="2.75654">
        <ele>109</ele>
        <time>2017-05-17T10:19:58.758</time>
      </trkpt>
      <trkpt lat="48.44951" lon="2.75654">
        <ele>109</ele>
        <time>2017-05-17T10:19:59.756</time>
      </trkpt>
      <trkpt lat="48.44951" lon="2.75654">
        <ele>109</ele>
        <time>2017-05-17T10:20:00.755</time>
      </trkpt>
      <trkpt lat="48.44951" lon="2.75654">
        <ele>109</ele>
        <time>2017-05-17T10:20:01.755</time>
      </trkpt>
      <trkpt lat="48.44951" lon="2.75654">
        <ele>109</ele>
        <time>2017-05-17T10:20:02.755</time>
      </trkpt>
      <trkpt lat="48.44951" lon="2.75654">
        <ele>109</ele>
        <time>2017-05-17T10:20:03.757</time>
      </trkpt>
      <trkpt lat="48.44951" lon="2.75654">
        <ele>109</ele>
        <time>2017-05-17T10:20:04.756</time>
      </trkpt>
      <trkpt lat="48.44951" lon="2.75654">
        <ele>109</ele>
        <time>2017-05-17T10:20:05.755</time>
      </trkpt>
      <trkpt lat="48.44951" lon="2.75654">
        <ele>109</ele>
        <time>2017-05-17T10:20:06.755</time>
      </trkpt>
      <trkpt lat="48.44951" lon="2.75654">
        <ele>109</ele>
        <time>2017-05-17T10:20:07.753</time>
      </trkpt>
      <trkpt lat="48.44951" lon="2.75654">
        <ele>109</ele>
        <time>2017-05-17T10:20:08.755</time>
      </trkpt>
      <trkpt lat="48.44951" lon="2.75654">
        <ele>109</ele>
        <time>2017-05-17T10:20:09.757</time>
      </trkpt>
      <trkpt lat="48.44951" lon="2.75654">
        <ele>109</ele>
        <time>2017-05-17T10:20:10.753</time>
      </trkpt>
      <trkpt lat="48.44951" lon="2.75654">
        <ele>109</ele>
        <time>2017-05-17T10:20:11.749</time>
      </trkpt>
      <trkpt lat="48.44951" lon="2.75654">
        <ele>109</ele>
        <time>2017-05-17T10:20:12.749</time>
      </trkpt>
      <trkpt lat="48.44951" lon="2.75654">
        <ele>109</ele>
        <time>2017-05-17T10:20:13.757</time>
      </trkpt>
      <trkpt lat="48.44951" lon="2.75654">
        <ele>109</ele>
        <time>2017-05-17T10:20:14.755</time>
      </trkpt>
      <trkpt lat="48.44951" lon="2.75654">
        <ele>109</ele>
        <time>2017-05-17T10:20:15.754</time>
      </trkpt>
      <trkpt lat="48.44951" lon="2.75654">
        <ele>109</ele>
        <time>2017-05-17T10:20:16.753</time>
      </trkpt>
      <trkpt lat="48.44951" lon="2.75654">
        <ele>109</ele>
        <time>2017-05-17T10:20:17.755</time>
      </trkpt>
      <trkpt lat="48.44951" lon="2.75654">
        <ele>109</ele>
        <time>2017-05-17T10:20:18.761</time>
      </trkpt>
      <trkpt lat="48.44951" lon="2.75654">
        <ele>109</ele>
        <time>2017-05-17T10:20:19.763</time>
      </trkpt>
      <trkpt lat="48.44951" lon="2.75654">
        <ele>109</ele>
        <time>2017-05-17T10:20:20.755</time>
      </trkpt>
      <trkpt lat="48.44951" lon="2.75654">
        <ele>109</ele>
        <time>2017-05-17T10:20:21.754</time>
      </trkpt>
      <trkpt lat="48.44951" lon="2.75654">
        <ele>109</ele>
        <time>2017-05-17T10:20:22.757</time>
      </trkpt>
      <trkpt lat="48.44951" lon="2.75654">
        <ele>109</ele>
        <time>2017-05-17T10:20:23.755</time>
      </trkpt>
      <trkpt lat="48.44951" lon="2.75654">
        <ele>109</ele>
        <time>2017-05-17T10:20:24.754</time>
      </trkpt>
      <trkpt lat="48.44951" lon="2.75654">
        <ele>109</ele>
        <time>2017-05-17T10:20:25.757</time>
      </trkpt>
      <trkpt lat="48.44951" lon="2.75654">
        <ele>109</ele>
        <time>2017-05-17T10:20:26.756</time>
      </trkpt>
      <trkpt lat="48.44951" lon="2.75654">
        <ele>109</ele>
        <time>2017-05-17T10:20:27.747</time>
      </trkpt>
      <trkpt lat="48.44951" lon="2.75654">
        <ele>109</ele>
        <time>2017-05-17T10:20:28.754</time>
      </trkpt>
      <trkpt lat="48.44951" lon="2.75654">
        <ele>109</ele>
        <time>2017-05-17T10:20:29.752</time>
      </trkpt>
      <trkpt lat="48.44951" lon="2.75654">
        <ele>109</ele>
        <time>2017-05-17T10:20:30.755</time>
      </trkpt>
      <trkpt lat="48.44951" lon="2.75654">
        <ele>109</ele>
        <time>2017-05-17T10:20:31.755</time>
      </trkpt>
      <trkpt lat="48.44951" lon="2.75654">
        <ele>109</ele>
        <time>2017-05-17T10:20:32.755</time>
      </trkpt>
      <trkpt lat="48.44951" lon="2.75654">
        <ele>109</ele>
        <time>2017-05-17T10:20:33.750</time>
      </trkpt>
      <trkpt lat="48.44951" lon="2.75654">
        <ele>109</ele>
        <time>2017-05-17T10:20:34.753</time>
      </trkpt>
      <trkpt lat="48.44951" lon="2.75654">
        <ele>109</ele>
        <time>2017-05-17T10:20:35.749</time>
      </trkpt>
      <trkpt lat="48.44951" lon="2.75654">
        <ele>109</ele>
        <time>2017-05-17T10:20:36.754</time>
      </trkpt>
      <trkpt lat="48.44951" lon="2.75654">
        <ele>109</ele>
        <time>2017-05-17T10:20:37.756</time>
      </trkpt>
      <trkpt lat="48.44951" lon="2.75654">
        <ele>109</ele>
        <time>2017-05-17T10:20:38.752</time>
      </trkpt>
      <trkpt lat="48.44951" lon="2.75654">
        <ele>109</ele>
        <time>2017-05-17T10:20:39.753</time>
      </trkpt>
      <trkpt lat="48.44951" lon="2.75654">
        <ele>109</ele>
        <time>2017-05-17T10:20:40.755</time>
      </trkpt>
      <trkpt lat="48.44951" lon="2.75654">
        <ele>109</ele>
        <time>2017-05-17T10:20:41.755</time>
      </trkpt>
      <trkpt lat="48.44951" lon="2.75654">
        <ele>109</ele>
        <time>2017-05-17T10:20:42.755</time>
      </trkpt>
      <trkpt lat="48.44951" lon="2.75654">
        <ele>109</ele>
        <time>2017-05-17T10:20:43.754</time>
      </trkpt>
      <trkpt lat="48.44951" lon="2.75654">
        <ele>109</ele>
        <time>2017-05-17T10:20:44.753</time>
      </trkpt>
      <trkpt lat="48.44951" lon="2.75654">
        <ele>109</ele>
        <time>2017-05-17T10:20:45.754</time>
      </trkpt>
      <trkpt lat="48.44951" lon="2.75654">
        <ele>109</ele>
        <time>2017-05-17T10:20:46.755</time>
      </trkpt>
      <trkpt lat="48.44951" lon="2.75654">
        <ele>109</ele>
        <time>2017-05-17T10:20:47.754</time>
      </trkpt>
      <trkpt lat="48.44951" lon="2.75654">
        <ele>109</ele>
        <time>2017-05-17T10:20:48.755</time>
      </trkpt>
      <trkpt lat="48.44951" lon="2.75654">
        <ele>109</ele>
        <time>2017-05-17T10:20:49.757</time>
      </trkpt>
      <trkpt lat="48.44951" lon="2.75654">
        <ele>109</ele>
        <time>2017-05-17T10:20:50.751</time>
      </trkpt>
      <trkpt lat="48.44951" lon="2.75654">
        <ele>109</ele>
        <time>2017-05-17T10:20:51.755</time>
      </trkpt>
      <trkpt lat="48.44951" lon="2.75654">
        <ele>109</ele>
        <time>2017-05-17T10:20:52.755</time>
      </trkpt>
      <trkpt lat="48.44951" lon="2.75654">
        <ele>109</ele>
        <time>2017-05-17T10:20:53.752</time>
      </trkpt>
      <trkpt lat="48.44951" lon="2.75654">
        <ele>109</ele>
        <time>2017-05-17T10:20:54.756</time>
      </trkpt>
      <trkpt lat="48.44951" lon="2.75654">
        <ele>109</ele>
        <time>2017-05-17T10:20:55.753</time>
      </trkpt>
      <trkpt lat="48.44951" lon="2.75654">
        <ele>109</ele>
        <time>2017-05-17T10:20:56.753</time>
      </trkpt>
      <trkpt lat="48.44951" lon="2.75654">
        <ele>109</ele>
        <time>2017-05-17T10:20:57.750</time>
      </trkpt>
      <trkpt lat="48.44951" lon="2.75654">
        <ele>109</ele>
        <time>2017-05-17T10:20:58.754</time>
      </trkpt>
      <trkpt lat="48.44951" lon="2.75654">
        <ele>109</ele>
        <time>2017-05-17T10:20:59.755</time>
      </trkpt>
      <trkpt lat="48.44951" lon="2.75654">
        <ele>109</ele>
        <time>2017-05-17T10:21:00.756</time>
      </trkpt>
      <trkpt lat="48.44951" lon="2.75654">
        <ele>109</ele>
        <time>2017-05-17T10:21:01.757</time>
      </trkpt>
      <trkpt lat="48.44951" lon="2.75654">
        <ele>109</ele>
        <time>2017-05-17T10:21:02.755</time>
      </trkpt>
      <trkpt lat="48.44951" lon="2.75654">
        <ele>109</ele>
        <time>2017-05-17T10:21:03.749</time>
      </trkpt>
      <trkpt lat="48.44951" lon="2.75654">
        <ele>109</ele>
        <time>2017-05-17T10:21:04.752</time>
      </trkpt>
      <trkpt lat="48.44951" lon="2.75654">
        <ele>109</ele>
        <time>2017-05-17T10:21:05.757</time>
      </trkpt>
      <trkpt lat="48.44951" lon="2.75654">
        <ele>109</ele>
        <time>2017-05-17T10:21:06.755</time>
      </trkpt>
      <trkpt lat="48.44951" lon="2.75654">
        <ele>109</ele>
        <time>2017-05-17T10:21:07.753</time>
      </trkpt>
      <trkpt lat="48.44951" lon="2.75654">
        <ele>109</ele>
        <time>2017-05-17T10:21:08.756</time>
      </trkpt>
      <trkpt lat="48.44951" lon="2.75654">
        <ele>109</ele>
        <time>2017-05-17T10:21:09.755</time>
      </trkpt>
      <trkpt lat="48.44951" lon="2.75654">
        <ele>109</ele>
        <time>2017-05-17T10:21:10.753</time>
      </trkpt>
      <trkpt lat="48.44951" lon="2.75654">
        <ele>109</ele>
        <time>2017-05-17T10:21:11.755</time>
      </trkpt>
      <trkpt lat="48.44951" lon="2.75654">
        <ele>109</ele>
        <time>2017-05-17T10:21:12.753</time>
      </trkpt>
      <trkpt lat="48.44951" lon="2.75654">
        <ele>109</ele>
        <time>2017-05-17T10:21:13.754</time>
      </trkpt>
      <trkpt lat="48.44951" lon="2.75654">
        <ele>109</ele>
        <time>2017-05-17T10:21:14.751</time>
      </trkpt>
      <trkpt lat="48.44951" lon="2.75654">
        <ele>109</ele>
        <time>2017-05-17T10:21:15.755</time>
      </trkpt>
      <trkpt lat="48.44951" lon="2.75654">
        <ele>109</ele>
        <time>2017-05-17T10:21:16.753</time>
      </trkpt>
      <trkpt lat="48.44951" lon="2.75654">
        <ele>109</ele>
        <time>2017-05-17T10:21:17.751</time>
      </trkpt>
      <trkpt lat="48.44951" lon="2.75654">
        <ele>109</ele>
        <time>2017-05-17T10:21:18.757</time>
      </trkpt>
      <trkpt lat="48.44951" lon="2.75654">
        <ele>109</ele>
        <time>2017-05-17T10:21:19.776</time>
      </trkpt>
      <trkpt lat="48.44951" lon="2.75654">
        <ele>109</ele>
        <time>2017-05-17T10:21:20.754</time>
      </trkpt>
      <trkpt lat="48.44951" lon="2.75654">
        <ele>109</ele>
        <time>2017-05-17T10:21:21.752</time>
      </trkpt>
      <trkpt lat="48.44951" lon="2.75654">
        <ele>109</ele>
        <time>2017-05-17T10:21:22.753</time>
      </trkpt>
      <trkpt lat="48.44951" lon="2.75654">
        <ele>109</ele>
        <time>2017-05-17T10:21:23.753</time>
      </trkpt>
      <trkpt lat="48.44951" lon="2.75654">
        <ele>109</ele>
        <time>2017-05-17T10:21:24.756</time>
      </trkpt>
      <trkpt lat="48.44951" lon="2.75654">
        <ele>109</ele>
        <time>2017-05-17T10:21:25.754</time>
      </trkpt>
      <trkpt lat="48.44951" lon="2.75654">
        <ele>109</ele>
        <time>2017-05-17T10:21:26.756</time>
      </trkpt>
      <trkpt lat="48.44951" lon="2.75654">
        <ele>109</ele>
        <time>2017-05-17T10:21:27.754</time>
      </trkpt>
      <trkpt lat="48.44951" lon="2.75654">
        <ele>109</ele>
        <time>2017-05-17T10:21:28.757</time>
      </trkpt>
      <trkpt lat="48.44951" lon="2.75654">
        <ele>109</ele>
        <time>2017-05-17T10:21:29.750</time>
      </trkpt>
      <trkpt lat="48.44951" lon="2.75654">
        <ele>109</ele>
        <time>2017-05-17T10:21:30.748</time>
      </trkpt>
      <trkpt lat="48.44951" lon="2.75654">
        <ele>109</ele>
        <time>2017-05-17T10:21:31.754</time>
      </trkpt>
      <trkpt lat="48.44951" lon="2.75654">
        <ele>109</ele>
        <time>2017-05-17T10:21:32.753</time>
      </trkpt>
      <trkpt lat="48.44951" lon="2.75654">
        <ele>109</ele>
        <time>2017-05-17T10:21:33.753</time>
      </trkpt>
      <trkpt lat="48.44951" lon="2.75654">
        <ele>109</ele>
        <time>2017-05-17T10:21:34.752</time>
      </trkpt>
      <trkpt lat="48.44951" lon="2.75654">
        <ele>109</ele>
        <time>2017-05-17T10:21:35.753</time>
      </trkpt>
      <trkpt lat="48.44951" lon="2.75654">
        <ele>109</ele>
        <time>2017-05-17T10:21:36.753</time>
      </trkpt>
      <trkpt lat="48.44951" lon="2.75654">
        <ele>109</ele>
        <time>2017-05-17T10:21:37.755</time>
      </trkpt>
      <trkpt lat="48.44951" lon="2.75654">
        <ele>109</ele>
        <time>2017-05-17T10:21:38.754</time>
      </trkpt>
      <trkpt lat="48.44951" lon="2.75654">
        <ele>109</ele>
        <time>2017-05-17T10:21:39.757</time>
      </trkpt>
      <trkpt lat="48.44951" lon="2.75654">
        <ele>109</ele>
        <time>2017-05-17T10:21:40.752</time>
      </trkpt>
      <trkpt lat="48.44951" lon="2.75654">
        <ele>109</ele>
        <time>2017-05-17T10:21:41.754</time>
      </trkpt>
      <trkpt lat="48.44951" lon="2.75654">
        <ele>109</ele>
        <time>2017-05-17T10:21:42.754</time>
      </trkpt>
      <trkpt lat="48.44951" lon="2.75654">
        <ele>109</ele>
        <time>2017-05-17T10:21:43.753</time>
      </trkpt>
      <trkpt lat="48.44951" lon="2.75654">
        <ele>109</ele>
        <time>2017-05-17T10:21:44.755</time>
      </trkpt>
      <trkpt lat="48.44951" lon="2.75654">
        <ele>109</ele>
        <time>2017-05-17T10:21:45.753</time>
      </trkpt>
      <trkpt lat="48.44951" lon="2.75654">
        <ele>109</ele>
        <time>2017-05-17T10:21:46.754</time>
      </trkpt>
      <trkpt lat="48.44951" lon="2.75654">
        <ele>109</ele>
        <time>2017-05-17T10:21:47.748</time>
      </trkpt>
      <trkpt lat="48.44951" lon="2.75654">
        <ele>109</ele>
        <time>2017-05-17T10:21:48.753</time>
      </trkpt>
      <trkpt lat="48.44951" lon="2.75654">
        <ele>109</ele>
        <time>2017-05-17T10:21:49.757</time>
      </trkpt>
      <trkpt lat="48.44951" lon="2.75654">
        <ele>109</ele>
        <time>2017-05-17T10:21:50.753</time>
      </trkpt>
      <trkpt lat="48.44951" lon="2.75654">
        <ele>109</ele>
        <time>2017-05-17T10:21:51.755</time>
      </trkpt>
      <trkpt lat="48.44951" lon="2.75654">
        <ele>109</ele>
        <time>2017-05-17T10:21:52.763</time>
      </trkpt>
      <trkpt lat="48.44951" lon="2.75654">
        <ele>109</ele>
        <time>2017-05-17T10:21:53.753</time>
      </trkpt>
      <trkpt lat="48.44951" lon="2.75654">
        <ele>109</ele>
        <time>2017-05-17T10:21:54.756</time>
      </trkpt>
      <trkpt lat="48.44951" lon="2.75654">
        <ele>109</ele>
        <time>2017-05-17T10:21:55.752</time>
      </trkpt>
      <trkpt lat="48.44951" lon="2.75654">
        <ele>109</ele>
        <time>2017-05-17T10:21:56.752</time>
      </trkpt>
      <trkpt lat="48.44951" lon="2.75654">
        <ele>109</ele>
        <time>2017-05-17T10:21:57.754</time>
      </trkpt>
      <trkpt lat="48.44951" lon="2.75654">
        <ele>109</ele>
        <time>2017-05-17T10:21:58.756</time>
      </trkpt>
      <trkpt lat="48.44951" lon="2.75654">
        <ele>109</ele>
        <time>2017-05-17T10:21:59.758</time>
      </trkpt>
      <trkpt lat="48.44951" lon="2.75654">
        <ele>109</ele>
        <time>2017-05-17T10:22:00.754</time>
      </trkpt>
      <trkpt lat="48.44951" lon="2.75654">
        <ele>109</ele>
        <time>2017-05-17T10:22:01.750</time>
      </trkpt>
      <trkpt lat="48.44951" lon="2.75654">
        <ele>109</ele>
        <time>2017-05-17T10:22:02.748</time>
      </trkpt>
      <trkpt lat="48.44951" lon="2.75654">
        <ele>109</ele>
        <time>2017-05-17T10:22:03.752</time>
      </trkpt>
      <trkpt lat="48.44951" lon="2.75654">
        <ele>109</ele>
        <time>2017-05-17T10:22:04.751</time>
      </trkpt>
      <trkpt lat="48.44951" lon="2.75654">
        <ele>109</ele>
        <time>2017-05-17T10:22:05.752</time>
      </trkpt>
      <trkpt lat="48.44951" lon="2.75654">
        <ele>109</ele>
        <time>2017-05-17T10:22:06.753</time>
      </trkpt>
      <trkpt lat="48.44951" lon="2.75654">
        <ele>109</ele>
        <time>2017-05-17T10:22:07.751</time>
      </trkpt>
      <trkpt lat="48.44951" lon="2.75654">
        <ele>109</ele>
        <time>2017-05-17T10:22:08.756</time>
      </trkpt>
      <trkpt lat="48.44951" lon="2.75654">
        <ele>109</ele>
        <time>2017-05-17T10:22:09.754</time>
      </trkpt>
      <trkpt lat="48.44951" lon="2.75654">
        <ele>109</ele>
        <time>2017-05-17T10:22:10.746</time>
      </trkpt>
      <trkpt lat="48.44951" lon="2.75654">
        <ele>109</ele>
        <time>2017-05-17T10:22:11.750</time>
      </trkpt>
      <trkpt lat="48.44951" lon="2.75654">
        <ele>109</ele>
        <time>2017-05-17T10:22:12.754</time>
      </trkpt>
      <trkpt lat="48.44951" lon="2.75654">
        <ele>109</ele>
        <time>2017-05-17T10:22:13.755</time>
      </trkpt>
      <trkpt lat="48.44951" lon="2.75654">
        <ele>109</ele>
        <time>2017-05-17T10:22:14.755</time>
      </trkpt>
      <trkpt lat="48.44951" lon="2.75654">
        <ele>109</ele>
        <time>2017-05-17T10:22:15.754</time>
      </trkpt>
      <trkpt lat="48.44951" lon="2.75654">
        <ele>109</ele>
        <time>2017-05-17T10:22:16.750</time>
      </trkpt>
      <trkpt lat="48.44951" lon="2.75654">
        <ele>109</ele>
        <time>2017-05-17T10:22:17.756</time>
      </trkpt>
      <trkpt lat="48.44951" lon="2.75654">
        <ele>109</ele>
        <time>2017-05-17T10:22:18.756</time>
      </trkpt>
      <trkpt lat="48.44951" lon="2.75654">
        <ele>109</ele>
        <time>2017-05-17T10:22:19.758</time>
      </trkpt>
      <trkpt lat="48.44951" lon="2.75654">
        <ele>109</ele>
        <time>2017-05-17T10:22:20.755</time>
      </trkpt>
      <trkpt lat="48.44951" lon="2.75654">
        <ele>109</ele>
        <time>2017-05-17T10:22:21.752</time>
      </trkpt>
      <trkpt lat="48.44951" lon="2.75654">
        <ele>109</ele>
        <time>2017-05-17T10:22:22.752</time>
      </trkpt>
      <trkpt lat="48.44951" lon="2.75654">
        <ele>109</ele>
        <time>2017-05-17T10:22:23.752</time>
      </trkpt>
      <trkpt lat="48.44951" lon="2.75654">
        <ele>109</ele>
        <time>2017-05-17T10:22:24.755</time>
      </trkpt>
      <trkpt lat="48.44951" lon="2.75654">
        <ele>109</ele>
        <time>2017-05-17T10:22:25.751</time>
      </trkpt>
      <trkpt lat="48.4495" lon="2.75653">
        <ele>115</ele>
        <time>2017-05-17T10:22:26.748</time>
      </trkpt>
      <trkpt lat="48.44952" lon="2.75658">
        <ele>115</ele>
        <time>2017-05-17T10:22:27.749</time>
      </trkpt>
      <trkpt lat="48.44955" lon="2.75659">
        <ele>111</ele>
        <time>2017-05-17T10:22:28.755</time>
      </trkpt>
      <trkpt lat="48.44954" lon="2.75658">
        <ele>111</ele>
        <time>2017-05-17T10:22:29.759</time>
      </trkpt>
      <trkpt lat="48.44954" lon="2.75657">
        <ele>111</ele>
        <time>2017-05-17T10:22:30.743</time>
      </trkpt>
      <trkpt lat="48.44954" lon="2.75657">
        <ele>110</ele>
        <time>2017-05-17T10:22:31.745</time>
      </trkpt>
      <trkpt lat="48.44952" lon="2.75658">
        <ele>113</ele>
        <time>2017-05-17T10:22:32.748</time>
      </trkpt>
      <trkpt lat="48.44951" lon="2.75657">
        <ele>115</ele>
        <time>2017-05-17T10:22:33.743</time>
      </trkpt>
      <trkpt lat="48.44951" lon="2.75657">
        <ele>116</ele>
        <time>2017-05-17T10:22:34.745</time>
      </trkpt>
      <trkpt lat="48.44951" lon="2.75657">
        <ele>117</ele>
        <time>2017-05-17T10:22:35.747</time>
      </trkpt>
      <trkpt lat="48.4495" lon="2.75656">
        <ele>117</ele>
        <time>2017-05-17T10:22:36.748</time>
      </trkpt>
      <trkpt lat="48.4495" lon="2.75656">
        <ele>117</ele>
        <time>2017-05-17T10:22:37.748</time>
      </trkpt>
      <trkpt lat="48.4495" lon="2.75656">
        <ele>117</ele>
        <time>2017-05-17T10:22:38.747</time>
      </trkpt>
      <trkpt lat="48.4495" lon="2.75656">
        <ele>116</ele>
        <time>2017-05-17T10:22:39.758</time>
      </trkpt>
      <trkpt lat="48.4495" lon="2.75655">
        <ele>116</ele>
        <time>2017-05-17T10:22:40.748</time>
      </trkpt>
      <trkpt lat="48.4495" lon="2.75655">
        <ele>116</ele>
        <time>2017-05-17T10:22:41.745</time>
      </trkpt>
      <trkpt lat="48.4495" lon="2.75655">
        <ele>116</ele>
        <time>2017-05-17T10:22:42.742</time>
      </trkpt>
      <trkpt lat="48.4495" lon="2.75655">
        <ele>116</ele>
        <time>2017-05-17T10:22:43.747</time>
      </trkpt>
      <trkpt lat="48.4495" lon="2.75655">
        <ele>116</ele>
        <time>2017-05-17T10:22:44.748</time>
      </trkpt>
      <trkpt lat="48.4495" lon="2.75655">
        <ele>116</ele>
        <time>2017-05-17T10:22:45.743</time>
      </trkpt>
      <trkpt lat="48.4495" lon="2.75655">
        <ele>116</ele>
        <time>2017-05-17T10:22:46.748</time>
      </trkpt>
      <trkpt lat="48.4495" lon="2.75655">
        <ele>116</ele>
        <time>2017-05-17T10:22:47.759</time>
      </trkpt>
      <trkpt lat="48.4495" lon="2.75655">
        <ele>116</ele>
        <time>2017-05-17T10:22:48.767</time>
      </trkpt>
      <trkpt lat="48.4495" lon="2.75655">
        <ele>116</ele>
        <time>2017-05-17T10:22:49.809</time>
      </trkpt>
      <trkpt lat="48.4495" lon="2.75655">
        <ele>116</ele>
        <time>2017-05-17T10:22:50.766</time>
      </trkpt>
      <trkpt lat="48.4495" lon="2.75655">
        <ele>116</ele>
        <time>2017-05-17T10:22:51.749</time>
      </trkpt>
      <trkpt lat="48.4495" lon="2.75655">
        <ele>116</ele>
        <time>2017-05-17T10:22:52.749</time>
      </trkpt>
      <trkpt lat="48.4495" lon="2.75655">
        <ele>116</ele>
        <time>2017-05-17T10:22:53.747</time>
      </trkpt>
      <trkpt lat="48.4495" lon="2.75655">
        <ele>116</ele>
        <time>2017-05-17T10:22:54.752</time>
      </trkpt>
      <trkpt lat="48.4495" lon="2.75655">
        <ele>116</ele>
        <time>2017-05-17T10:22:56.057</time>
      </trkpt>
      <trkpt lat="48.4495" lon="2.75655">
        <ele>116</ele>
        <time>2017-05-17T10:22:56.745</time>
      </trkpt>
      <trkpt lat="48.4495" lon="2.75655">
        <ele>116</ele>
        <time>2017-05-17T10:22:57.746</time>
      </trkpt>
      <trkpt lat="48.4495" lon="2.75655">
        <ele>116</ele>
        <time>2017-05-17T10:22:58.748</time>
      </trkpt>
      <trkpt lat="48.4495" lon="2.75655">
        <ele>116</ele>
        <time>2017-05-17T10:22:59.747</time>
      </trkpt>
      <trkpt lat="48.4495" lon="2.75655">
        <ele>116</ele>
        <time>2017-05-17T10:23:00.746</time>
      </trkpt>
      <trkpt lat="48.4495" lon="2.75655">
        <ele>116</ele>
        <time>2017-05-17T10:23:01.749</time>
      </trkpt>
      <trkpt lat="48.4495" lon="2.75655">
        <ele>116</ele>
        <time>2017-05-17T10:23:02.751</time>
      </trkpt>
      <trkpt lat="48.4495" lon="2.75655">
        <ele>116</ele>
        <time>2017-05-17T10:23:03.752</time>
      </trkpt>
      <trkpt lat="48.4495" lon="2.75655">
        <ele>116</ele>
        <time>2017-05-17T10:23:04.751</time>
      </trkpt>
      <trkpt lat="48.4495" lon="2.75655">
        <ele>116</ele>
        <time>2017-05-17T10:23:05.745</time>
      </trkpt>
      <trkpt lat="48.4495" lon="2.75655">
        <ele>116</ele>
        <time>2017-05-17T10:23:06.744</time>
      </trkpt>
      <trkpt lat="48.4495" lon="2.75655">
        <ele>116</ele>
        <time>2017-05-17T10:23:07.747</time>
      </trkpt>
      <trkpt lat="48.4495" lon="2.75655">
        <ele>116</ele>
        <time>2017-05-17T10:23:08.759</time>
      </trkpt>
      <trkpt lat="48.4495" lon="2.75655">
        <ele>116</ele>
        <time>2017-05-17T10:23:09.760</time>
      </trkpt>
      <trkpt lat="48.4495" lon="2.75655">
        <ele>116</ele>
        <time>2017-05-17T10:23:10.755</time>
      </trkpt>
      <trkpt lat="48.4495" lon="2.75655">
        <ele>116</ele>
        <time>2017-05-17T10:23:11.744</time>
      </trkpt>
      <trkpt lat="48.4495" lon="2.75655">
        <ele>116</ele>
        <time>2017-05-17T10:23:12.746</time>
      </trkpt>
      <trkpt lat="48.4495" lon="2.75655">
        <ele>116</ele>
        <time>2017-05-17T10:23:13.745</time>
      </trkpt>
      <trkpt lat="48.4495" lon="2.75655">
        <ele>116</ele>
        <time>2017-05-17T10:23:14.740</time>
      </trkpt>
      <trkpt lat="48.4495" lon="2.75655">
        <ele>116</ele>
        <time>2017-05-17T10:23:15.743</time>
      </trkpt>
      <trkpt lat="48.4495" lon="2.75655">
        <ele>116</ele>
        <time>2017-05-17T10:23:16.749</time>
      </trkpt>
      <trkpt lat="48.4495" lon="2.75655">
        <ele>116</ele>
        <time>2017-05-17T10:23:17.747</time>
      </trkpt>
      <trkpt lat="48.4495" lon="2.75655">
        <ele>116</ele>
        <time>2017-05-17T10:23:18.749</time>
      </trkpt>
      <trkpt lat="48.4495" lon="2.75655">
        <ele>116</ele>
        <time>2017-05-17T10:23:19.751</time>
      </trkpt>
      <trkpt lat="48.4495" lon="2.75655">
        <ele>116</ele>
        <time>2017-05-17T10:23:20.750</time>
      </trkpt>
      <trkpt lat="48.4495" lon="2.75655">
        <ele>116</ele>
        <time>2017-05-17T10:23:21.745</time>
      </trkpt>
      <trkpt lat="48.4495" lon="2.75655">
        <ele>116</ele>
        <time>2017-05-17T10:23:22.744</time>
      </trkpt>
      <trkpt lat="48.4495" lon="2.75655">
        <ele>116</ele>
        <time>2017-05-17T10:23:23.742</time>
      </trkpt>
      <trkpt lat="48.4495" lon="2.75655">
        <ele>116</ele>
        <time>2017-05-17T10:23:24.740</time>
      </trkpt>
      <trkpt lat="48.4495" lon="2.75655">
        <ele>116</ele>
        <time>2017-05-17T10:23:25.746</time>
      </trkpt>
      <trkpt lat="48.4495" lon="2.75655">
        <ele>116</ele>
        <time>2017-05-17T10:23:26.750</time>
      </trkpt>
      <trkpt lat="48.4495" lon="2.75655">
        <ele>116</ele>
        <time>2017-05-17T10:23:27.750</time>
      </trkpt>
      <trkpt lat="48.4495" lon="2.75655">
        <ele>116</ele>
        <time>2017-05-17T10:23:28.752</time>
      </trkpt>
      <trkpt lat="48.4495" lon="2.75655">
        <ele>116</ele>
        <time>2017-05-17T10:23:29.754</time>
      </trkpt>
      <trkpt lat="48.4495" lon="2.75655">
        <ele>116</ele>
        <time>2017-05-17T10:23:30.751</time>
      </trkpt>
      <trkpt lat="48.4495" lon="2.75655">
        <ele>116</ele>
        <time>2017-05-17T10:23:31.752</time>
      </trkpt>
      <trkpt lat="48.4495" lon="2.75655">
        <ele>116</ele>
        <time>2017-05-17T10:23:32.746</time>
      </trkpt>
      <trkpt lat="48.4495" lon="2.75655">
        <ele>116</ele>
        <time>2017-05-17T10:23:33.745</time>
      </trkpt>
      <trkpt lat="48.4495" lon="2.75655">
        <ele>116</ele>
        <time>2017-05-17T10:23:34.755</time>
      </trkpt>
      <trkpt lat="48.4495" lon="2.75655">
        <ele>116</ele>
        <time>2017-05-17T10:23:35.752</time>
      </trkpt>
      <trkpt lat="48.4495" lon="2.75655">
        <ele>116</ele>
        <time>2017-05-17T10:23:36.752</time>
      </trkpt>
      <trkpt lat="48.4495" lon="2.75655">
        <ele>116</ele>
        <time>2017-05-17T10:23:37.751</time>
      </trkpt>
      <trkpt lat="48.4495" lon="2.75655">
        <ele>116</ele>
        <time>2017-05-17T10:23:38.753</time>
      </trkpt>
      <trkpt lat="48.4495" lon="2.75655">
        <ele>116</ele>
        <time>2017-05-17T10:23:39.749</time>
      </trkpt>
      <trkpt lat="48.4495" lon="2.75655">
        <ele>116</ele>
        <time>2017-05-17T10:23:40.740</time>
      </trkpt>
      <trkpt lat="48.4495" lon="2.75655">
        <ele>116</ele>
        <time>2017-05-17T10:23:41.742</time>
      </trkpt>
      <trkpt lat="48.4495" lon="2.75655">
        <ele>116</ele>
        <time>2017-05-17T10:23:42.744</time>
      </trkpt>
      <trkpt lat="48.4495" lon="2.75655">
        <ele>116</ele>
        <time>2017-05-17T10:23:43.750</time>
      </trkpt>
      <trkpt lat="48.4495" lon="2.75655">
        <ele>116</ele>
        <time>2017-05-17T10:23:44.750</time>
      </trkpt>
      <trkpt lat="48.4495" lon="2.75655">
        <ele>116</ele>
        <time>2017-05-17T10:23:45.749</time>
      </trkpt>
      <trkpt lat="48.4495" lon="2.75655">
        <ele>116</ele>
        <time>2017-05-17T10:23:46.751</time>
      </trkpt>
      <trkpt lat="48.4495" lon="2.75655">
        <ele>116</ele>
        <time>2017-05-17T10:23:47.744</time>
      </trkpt>
      <trkpt lat="48.4495" lon="2.75655">
        <ele>116</ele>
        <time>2017-05-17T10:23:48.749</time>
      </trkpt>
      <trkpt lat="48.4495" lon="2.75655">
        <ele>116</ele>
        <time>2017-05-17T10:23:49.751</time>
      </trkpt>
      <trkpt lat="48.4495" lon="2.75655">
        <ele>116</ele>
        <time>2017-05-17T10:23:50.750</time>
      </trkpt>
      <trkpt lat="48.4495" lon="2.75655">
        <ele>116</ele>
        <time>2017-05-17T10:23:51.750</time>
      </trkpt>
      <trkpt lat="48.4495" lon="2.75655">
        <ele>116</ele>
        <time>2017-05-17T10:23:52.751</time>
      </trkpt>
      <trkpt lat="48.4495" lon="2.75655">
        <ele>116</ele>
        <time>2017-05-17T10:23:53.750</time>
      </trkpt>
      <trkpt lat="48.4495" lon="2.75655">
        <ele>116</ele>
        <time>2017-05-17T10:23:54.745</time>
      </trkpt>
      <trkpt lat="48.4495" lon="2.75655">
        <ele>116</ele>
        <time>2017-05-17T10:23:55.749</time>
      </trkpt>
      <trkpt lat="48.4495" lon="2.75655">
        <ele>116</ele>
        <time>2017-05-17T10:23:56.750</time>
      </trkpt>
      <trkpt lat="48.4495" lon="2.75655">
        <ele>116</ele>
        <time>2017-05-17T10:23:57.750</time>
      </trkpt>
      <trkpt lat="48.4495" lon="2.75655">
        <ele>116</ele>
        <time>2017-05-17T10:23:58.746</time>
      </trkpt>
      <trkpt lat="48.4495" lon="2.75655">
        <ele>116</ele>
        <time>2017-05-17T10:23:59.744</time>
      </trkpt>
      <trkpt lat="48.4495" lon="2.75655">
        <ele>116</ele>
        <time>2017-05-17T10:24:00.746</time>
      </trkpt>
      <trkpt lat="48.4495" lon="2.75655">
        <ele>116</ele>
        <time>2017-05-17T10:24:01.751</time>
      </trkpt>
      <trkpt lat="48.4495" lon="2.75655">
        <ele>116</ele>
        <time>2017-05-17T10:24:02.744</time>
      </trkpt>
      <trkpt lat="48.4495" lon="2.75655">
        <ele>116</ele>
        <time>2017-05-17T10:24:03.745</time>
      </trkpt>
      <trkpt lat="48.4495" lon="2.75655">
        <ele>116</ele>
        <time>2017-05-17T10:24:04.745</time>
      </trkpt>
      <trkpt lat="48.4495" lon="2.75655">
        <ele>116</ele>
        <time>2017-05-17T10:24:05.747</time>
      </trkpt>
      <trkpt lat="48.4495" lon="2.75655">
        <ele>116</ele>
        <time>2017-05-17T10:24:06.750</time>
      </trkpt>
      <trkpt lat="48.4495" lon="2.75655">
        <ele>116</ele>
        <time>2017-05-17T10:24:07.745</time>
      </trkpt>
      <trkpt lat="48.4495" lon="2.75655">
        <ele>116</ele>
        <time>2017-05-17T10:24:08.744</time>
      </trkpt>
      <trkpt lat="48.4495" lon="2.75655">
        <ele>116</ele>
        <time>2017-05-17T10:24:09.750</time>
      </trkpt>
      <trkpt lat="48.4495" lon="2.75655">
        <ele>116</ele>
        <time>2017-05-17T10:24:10.751</time>
      </trkpt>
      <trkpt lat="48.4495" lon="2.75655">
        <ele>116</ele>
        <time>2017-05-17T10:24:11.750</time>
      </trkpt>
      <trkpt lat="48.4495" lon="2.75655">
        <ele>116</ele>
        <time>2017-05-17T10:24:12.749</time>
      </trkpt>
      <trkpt lat="48.4495" lon="2.75655">
        <ele>116</ele>
        <time>2017-05-17T10:24:13.749</time>
      </trkpt>
      <trkpt lat="48.4495" lon="2.75655">
        <ele>116</ele>
        <time>2017-05-17T10:24:14.745</time>
      </trkpt>
      <trkpt lat="48.4495" lon="2.75655">
        <ele>116</ele>
        <time>2017-05-17T10:24:15.742</time>
      </trkpt>
      <trkpt lat="48.4495" lon="2.75655">
        <ele>116</ele>
        <time>2017-05-17T10:24:16.744</time>
      </trkpt>
      <trkpt lat="48.4495" lon="2.75655">
        <ele>116</ele>
        <time>2017-05-17T10:24:17.745</time>
      </trkpt>
      <trkpt lat="48.4495" lon="2.75655">
        <ele>116</ele>
        <time>2017-05-17T10:24:18.759</time>
      </trkpt>
      <trkpt lat="48.4495" lon="2.75655">
        <ele>116</ele>
        <time>2017-05-17T10:24:19.758</time>
      </trkpt>
      <trkpt lat="48.4495" lon="2.75655">
        <ele>116</ele>
        <time>2017-05-17T10:24:20.745</time>
      </trkpt>
      <trkpt lat="48.4495" lon="2.75655">
        <ele>116</ele>
        <time>2017-05-17T10:24:21.748</time>
      </trkpt>
      <trkpt lat="48.4495" lon="2.75655">
        <ele>116</ele>
        <time>2017-05-17T10:24:22.749</time>
      </trkpt>
      <trkpt lat="48.4495" lon="2.75655">
        <ele>116</ele>
        <time>2017-05-17T10:24:23.744</time>
      </trkpt>
      <trkpt lat="48.4495" lon="2.75655">
        <ele>116</ele>
        <time>2017-05-17T10:24:24.747</time>
      </trkpt>
      <trkpt lat="48.4495" lon="2.75655">
        <ele>116</ele>
        <time>2017-05-17T10:24:25.749</time>
      </trkpt>
      <trkpt lat="48.4495" lon="2.75655">
        <ele>116</ele>
        <time>2017-05-17T10:24:26.749</time>
      </trkpt>
      <trkpt lat="48.4495" lon="2.75655">
        <ele>116</ele>
        <time>2017-05-17T10:24:27.743</time>
      </trkpt>
      <trkpt lat="48.4495" lon="2.75655">
        <ele>116</ele>
        <time>2017-05-17T10:24:28.748</time>
      </trkpt>
      <trkpt lat="48.4495" lon="2.75655">
        <ele>116</ele>
        <time>2017-05-17T10:24:29.751</time>
      </trkpt>
      <trkpt lat="48.4495" lon="2.75655">
        <ele>116</ele>
        <time>2017-05-17T10:24:30.749</time>
      </trkpt>
      <trkpt lat="48.4495" lon="2.75655">
        <ele>116</ele>
        <time>2017-05-17T10:24:31.747</time>
      </trkpt>
      <trkpt lat="48.4495" lon="2.75655">
        <ele>116</ele>
        <time>2017-05-17T10:24:32.741</time>
      </trkpt>
      <trkpt lat="48.4495" lon="2.75655">
        <ele>116</ele>
        <time>2017-05-17T10:24:33.745</time>
      </trkpt>
      <trkpt lat="48.4495" lon="2.75655">
        <ele>116</ele>
        <time>2017-05-17T10:24:34.749</time>
      </trkpt>
      <trkpt lat="48.4495" lon="2.75655">
        <ele>116</ele>
        <time>2017-05-17T10:24:35.749</time>
      </trkpt>
      <trkpt lat="48.4495" lon="2.75655">
        <ele>116</ele>
        <time>2017-05-17T10:24:36.749</time>
      </trkpt>
      <trkpt lat="48.4495" lon="2.75655">
        <ele>116</ele>
        <time>2017-05-17T10:24:37.753</time>
      </trkpt>
      <trkpt lat="48.4495" lon="2.75655">
        <ele>116</ele>
        <time>2017-05-17T10:24:38.746</time>
      </trkpt>
      <trkpt lat="48.4495" lon="2.75655">
        <ele>116</ele>
        <time>2017-05-17T10:24:39.747</time>
      </trkpt>
      <trkpt lat="48.4495" lon="2.75655">
        <ele>116</ele>
        <time>2017-05-17T10:24:40.753</time>
      </trkpt>
      <trkpt lat="48.4495" lon="2.75655">
        <ele>116</ele>
        <time>2017-05-17T10:24:41.749</time>
      </trkpt>
      <trkpt lat="48.4495" lon="2.75655">
        <ele>116</ele>
        <time>2017-05-17T10:24:42.748</time>
      </trkpt>
      <trkpt lat="48.4495" lon="2.75655">
        <ele>116</ele>
        <time>2017-05-17T10:24:43.749</time>
      </trkpt>
      <trkpt lat="48.4495" lon="2.75655">
        <ele>116</ele>
        <time>2017-05-17T10:24:44.744</time>
      </trkpt>
      <trkpt lat="48.4495" lon="2.75655">
        <ele>116</ele>
        <time>2017-05-17T10:24:45.743</time>
      </trkpt>
      <trkpt lat="48.4495" lon="2.75655">
        <ele>116</ele>
        <time>2017-05-17T10:24:46.750</time>
      </trkpt>
      <trkpt lat="48.4495" lon="2.75655">
        <ele>116</ele>
        <time>2017-05-17T10:24:47.750</time>
      </trkpt>
      <trkpt lat="48.4495" lon="2.75655">
        <ele>116</ele>
        <time>2017-05-17T10:24:48.770</time>
      </trkpt>
      <trkpt lat="48.4495" lon="2.75655">
        <ele>116</ele>
        <time>2017-05-17T10:24:49.770</time>
      </trkpt>
      <trkpt lat="48.4495" lon="2.75655">
        <ele>116</ele>
        <time>2017-05-17T10:24:50.749</time>
      </trkpt>
      <trkpt lat="48.4495" lon="2.75656">
        <ele>116</ele>
        <time>2017-05-17T10:24:51.751</time>
      </trkpt>
      <trkpt lat="48.4495" lon="2.75655">
        <ele>117</ele>
        <time>2017-05-17T10:24:52.747</time>
      </trkpt>
      <trkpt lat="48.4495" lon="2.75655">
        <ele>117</ele>
        <time>2017-05-17T10:24:53.748</time>
      </trkpt>
      <trkpt lat="48.4495" lon="2.75654">
        <ele>117</ele>
        <time>2017-05-17T10:24:54.751</time>
      </trkpt>
      <trkpt lat="48.44951" lon="2.75655">
        <ele>117</ele>
        <time>2017-05-17T10:24:55.759</time>
      </trkpt>
      <trkpt lat="48.44951" lon="2.75655">
        <ele>117</ele>
        <time>2017-05-17T10:24:56.757</time>
      </trkpt>
      <trkpt lat="48.44951" lon="2.75655">
        <ele>117</ele>
        <time>2017-05-17T10:24:57.749</time>
      </trkpt>
      <trkpt lat="48.44951" lon="2.75655">
        <ele>117</ele>
        <time>2017-05-17T10:24:58.755</time>
      </trkpt>
      <trkpt lat="48.44951" lon="2.75655">
        <ele>117</ele>
        <time>2017-05-17T10:24:59.747</time>
      </trkpt>
      <trkpt lat="48.44951" lon="2.75656">
        <ele>117</ele>
        <time>2017-05-17T10:25:00.747</time>
      </trkpt>
      <trkpt lat="48.44952" lon="2.75656">
        <ele>117</ele>
        <time>2017-05-17T10:25:01.743</time>
      </trkpt>
      <trkpt lat="48.44952" lon="2.75656">
        <ele>117</ele>
        <time>2017-05-17T10:25:02.746</time>
      </trkpt>
      <trkpt lat="48.44952" lon="2.75656">
        <ele>117</ele>
        <time>2017-05-17T10:25:03.749</time>
      </trkpt>
      <trkpt lat="48.44952" lon="2.75657">
        <ele>117</ele>
        <time>2017-05-17T10:25:04.744</time>
      </trkpt>
      <trkpt lat="48.44952" lon="2.75657">
        <ele>117</ele>
        <time>2017-05-17T10:25:05.750</time>
      </trkpt>
      <trkpt lat="48.44952" lon="2.75657">
        <ele>117</ele>
        <time>2017-05-17T10:25:06.754</time>
      </trkpt>
      <trkpt lat="48.44952" lon="2.75657">
        <ele>117</ele>
        <time>2017-05-17T10:25:07.754</time>
      </trkpt>
      <trkpt lat="48.44952" lon="2.75657">
        <ele>117</ele>
        <time>2017-05-17T10:25:08.745</time>
      </trkpt>
      <trkpt lat="48.44952" lon="2.75657">
        <ele>117</ele>
        <time>2017-05-17T10:25:09.745</time>
      </trkpt>
      <trkpt lat="48.44952" lon="2.75657">
        <ele>117</ele>
        <time>2017-05-17T10:25:10.750</time>
      </trkpt>
      <trkpt lat="48.44952" lon="2.75657">
        <ele>117</ele>
        <time>2017-05-17T10:25:11.749</time>
      </trkpt>
      <trkpt lat="48.44952" lon="2.75657">
        <ele>117</ele>
        <time>2017-05-17T10:25:12.749</time>
      </trkpt>
      <trkpt lat="48.44952" lon="2.75657">
        <ele>117</ele>
        <time>2017-05-17T10:25:13.745</time>
      </trkpt>
      <trkpt lat="48.44952" lon="2.75657">
        <ele>117</ele>
        <time>2017-05-17T10:25:14.746</time>
      </trkpt>
      <trkpt lat="48.44952" lon="2.75657">
        <ele>117</ele>
        <time>2017-05-17T10:25:15.749</time>
      </trkpt>
      <trkpt lat="48.44952" lon="2.75657">
        <ele>117</ele>
        <time>2017-05-17T10:25:16.749</time>
      </trkpt>
      <trkpt lat="48.44952" lon="2.75657">
        <ele>117</ele>
        <time>2017-05-17T10:25:17.750</time>
      </trkpt>
      <trkpt lat="48.44952" lon="2.75657">
        <ele>117</ele>
        <time>2017-05-17T10:25:18.764</time>
      </trkpt>
      <trkpt lat="48.44952" lon="2.75657">
        <ele>117</ele>
        <time>2017-05-17T10:25:19.761</time>
      </trkpt>
      <trkpt lat="48.44952" lon="2.75657">
        <ele>117</ele>
        <time>2017-05-17T10:25:20.746</time>
      </trkpt>
      <trkpt lat="48.44952" lon="2.75657">
        <ele>117</ele>
        <time>2017-05-17T10:25:21.744</time>
      </trkpt>
      <trkpt lat="48.44952" lon="2.75657">
        <ele>117</ele>
        <time>2017-05-17T10:25:22.748</time>
      </trkpt>
      <trkpt lat="48.44952" lon="2.75657">
        <ele>117</ele>
        <time>2017-05-17T10:25:23.752</time>
      </trkpt>
      <trkpt lat="48.44952" lon="2.75657">
        <ele>116</ele>
        <time>2017-05-17T10:25:24.751</time>
      </trkpt>
      <trkpt lat="48.44952" lon="2.75657">
        <ele>116</ele>
        <time>2017-05-17T10:25:25.749</time>
      </trkpt>
      <trkpt lat="48.44952" lon="2.75657">
        <ele>117</ele>
        <time>2017-05-17T10:25:26.749</time>
      </trkpt>
      <trkpt lat="48.44952" lon="2.75657">
        <ele>117</ele>
        <time>2017-05-17T10:25:27.750</time>
      </trkpt>
      <trkpt lat="48.44952" lon="2.75657">
        <ele>117</ele>
        <time>2017-05-17T10:25:28.747</time>
      </trkpt>
      <trkpt lat="48.44952" lon="2.75657">
        <ele>117</ele>
        <time>2017-05-17T10:25:29.750</time>
      </trkpt>
      <trkpt lat="48.44952" lon="2.75657">
        <ele>117</ele>
        <time>2017-05-17T10:25:30.748</time>
      </trkpt>
      <trkpt lat="48.44952" lon="2.75657">
        <ele>117</ele>
        <time>2017-05-17T10:25:31.750</time>
      </trkpt>
      <trkpt lat="48.44952" lon="2.75657">
        <ele>117</ele>
        <time>2017-05-17T10:25:32.750</time>
      </trkpt>
      <trkpt lat="48.44952" lon="2.75657">
        <ele>117</ele>
        <time>2017-05-17T10:25:33.759</time>
      </trkpt>
      <trkpt lat="48.44952" lon="2.75657">
        <ele>117</ele>
        <time>2017-05-17T10:25:34.748</time>
      </trkpt>
      <trkpt lat="48.44952" lon="2.75657">
        <ele>117</ele>
        <time>2017-05-17T10:25:35.747</time>
      </trkpt>
      <trkpt lat="48.44952" lon="2.75657">
        <ele>117</ele>
        <time>2017-05-17T10:25:36.748</time>
      </trkpt>
      <trkpt lat="48.44952" lon="2.75657">
        <ele>117</ele>
        <time>2017-05-17T10:25:37.753</time>
      </trkpt>
      <trkpt lat="48.44952" lon="2.75657">
        <ele>117</ele>
        <time>2017-05-17T10:25:38.748</time>
      </trkpt>
      <trkpt lat="48.44952" lon="2.75657">
        <ele>117</ele>
        <time>2017-05-17T10:25:39.748</time>
      </trkpt>
      <trkpt lat="48.44952" lon="2.75658">
        <ele>117</ele>
        <time>2017-05-17T10:25:40.748</time>
      </trkpt>
      <trkpt lat="48.44951" lon="2.75658">
        <ele>117</ele>
        <time>2017-05-17T10:25:41.751</time>
      </trkpt>
      <trkpt lat="48.44952" lon="2.75658">
        <ele>118</ele>
        <time>2017-05-17T10:25:42.747</time>
      </trkpt>
      <trkpt lat="48.44951" lon="2.75658">
        <ele>118</ele>
        <time>2017-05-17T10:25:43.755</time>
      </trkpt>
      <trkpt lat="48.44952" lon="2.75659">
        <ele>118</ele>
        <time>2017-05-17T10:25:44.758</time>
      </trkpt>
      <trkpt lat="48.44952" lon="2.75658">
        <ele>118</ele>
        <time>2017-05-17T10:25:45.758</time>
      </trkpt>
      <trkpt lat="48.44952" lon="2.75659">
        <ele>118</ele>
        <time>2017-05-17T10:25:46.755</time>
      </trkpt>
      <trkpt lat="48.44952" lon="2.75659">
        <ele>118</ele>
        <time>2017-05-17T10:25:47.775</time>
      </trkpt>
      <trkpt lat="48.44952" lon="2.7566">
        <ele>118</ele>
        <time>2017-05-17T10:25:48.755</time>
      </trkpt>
      <trkpt lat="48.44952" lon="2.75659">
        <ele>118</ele>
        <time>2017-05-17T10:25:49.757</time>
      </trkpt>
      <trkpt lat="48.44952" lon="2.75659">
        <ele>119</ele>
        <time>2017-05-17T10:25:50.753</time>
      </trkpt>
      <trkpt lat="48.44952" lon="2.75659">
        <ele>119</ele>
        <time>2017-05-17T10:25:51.751</time>
      </trkpt>
      <trkpt lat="48.44952" lon="2.75659">
        <ele>119</ele>
        <time>2017-05-17T10:25:52.749</time>
      </trkpt>
      <trkpt lat="48.44952" lon="2.75659">
        <ele>120</ele>
        <time>2017-05-17T10:25:54.499</time>
      </trkpt>
      <trkpt lat="48.44952" lon="2.7566">
        <ele>120</ele>
        <time>2017-05-17T10:25:54.748</time>
      </trkpt>
      <trkpt lat="48.44952" lon="2.7566">
        <ele>120</ele>
        <time>2017-05-17T10:25:55.751</time>
      </trkpt>
      <trkpt lat="48.44952" lon="2.75661">
        <ele>120</ele>
        <time>2017-05-17T10:25:56.751</time>
      </trkpt>
      <trkpt lat="48.44952" lon="2.75661">
        <ele>121</ele>
        <time>2017-05-17T10:25:57.751</time>
      </trkpt>
      <trkpt lat="48.44953" lon="2.7566">
        <ele>120</ele>
        <time>2017-05-17T10:25:58.751</time>
      </trkpt>
      <trkpt lat="48.44953" lon="2.7566">
        <ele>120</ele>
        <time>2017-05-17T10:25:59.750</time>
      </trkpt>
      <trkpt lat="48.44953" lon="2.75661">
        <ele>120</ele>
        <time>2017-05-17T10:26:00.750</time>
      </trkpt>
      <trkpt lat="48.44953" lon="2.75661">
        <ele>120</ele>
        <time>2017-05-17T10:26:01.750</time>
      </trkpt>
      <trkpt lat="48.44953" lon="2.75661">
        <ele>120</ele>
        <time>2017-05-17T10:26:02.751</time>
      </trkpt>
      <trkpt lat="48.44953" lon="2.75661">
        <ele>120</ele>
        <time>2017-05-17T10:26:03.750</time>
      </trkpt>
      <trkpt lat="48.44953" lon="2.75661">
        <ele>120</ele>
        <time>2017-05-17T10:26:04.750</time>
      </trkpt>
      <trkpt lat="48.44953" lon="2.75661">
        <ele>120</ele>
        <time>2017-05-17T10:26:05.752</time>
      </trkpt>
      <trkpt lat="48.44953" lon="2.75661">
        <ele>120</ele>
        <time>2017-05-17T10:26:06.751</time>
      </trkpt>
      <trkpt lat="48.44953" lon="2.75661">
        <ele>120</ele>
        <time>2017-05-17T10:26:07.750</time>
      </trkpt>
      <trkpt lat="48.44953" lon="2.75661">
        <ele>120</ele>
        <time>2017-05-17T10:26:08.748</time>
      </trkpt>
      <trkpt lat="48.44953" lon="2.75661">
        <ele>120</ele>
        <time>2017-05-17T10:26:09.749</time>
      </trkpt>
      <trkpt lat="48.44953" lon="2.75661">
        <ele>120</ele>
        <time>2017-05-17T10:26:10.750</time>
      </trkpt>
      <trkpt lat="48.44953" lon="2.75661">
        <ele>120</ele>
        <time>2017-05-17T10:26:11.750</time>
      </trkpt>
      <trkpt lat="48.44953" lon="2.75661">
        <ele>120</ele>
        <time>2017-05-17T10:26:12.750</time>
      </trkpt>
      <trkpt lat="48.44953" lon="2.75661">
        <ele>120</ele>
        <time>2017-05-17T10:26:13.750</time>
      </trkpt>
      <trkpt lat="48.44953" lon="2.75661">
        <ele>120</ele>
        <time>2017-05-17T10:26:14.750</time>
      </trkpt>
      <trkpt lat="48.44953" lon="2.75661">
        <ele>120</ele>
        <time>2017-05-17T10:26:15.750</time>
      </trkpt>
      <trkpt lat="48.44953" lon="2.75661">
        <ele>120</ele>
        <time>2017-05-17T10:26:16.750</time>
      </trkpt>
      <trkpt lat="48.44953" lon="2.75661">
        <ele>120</ele>
        <time>2017-05-17T10:26:17.750</time>
      </trkpt>
      <trkpt lat="48.44953" lon="2.75661">
        <ele>120</ele>
        <time>2017-05-17T10:26:18.750</time>
      </trkpt>
      <trkpt lat="48.44953" lon="2.75661">
        <ele>120</ele>
        <time>2017-05-17T10:26:19.750</time>
      </trkpt>
      <trkpt lat="48.44953" lon="2.75661">
        <ele>120</ele>
        <time>2017-05-17T10:26:20.750</time>
      </trkpt>
      <trkpt lat="48.44953" lon="2.75661">
        <ele>120</ele>
        <time>2017-05-17T10:26:21.750</time>
      </trkpt>
      <trkpt lat="48.44953" lon="2.75661">
        <ele>120</ele>
        <time>2017-05-17T10:26:22.749</time>
      </trkpt>
      <trkpt lat="48.44953" lon="2.75661">
        <ele>120</ele>
        <time>2017-05-17T10:26:23.750</time>
      </trkpt>
      <trkpt lat="48.44953" lon="2.75661">
        <ele>120</ele>
        <time>2017-05-17T10:26:24.750</time>
      </trkpt>
      <trkpt lat="48.44953" lon="2.75661">
        <ele>120</ele>
        <time>2017-05-17T10:26:25.750</time>
      </trkpt>
      <trkpt lat="48.44953" lon="2.75661">
        <ele>120</ele>
        <time>2017-05-17T10:26:26.748</time>
      </trkpt>
      <trkpt lat="48.44953" lon="2.75661">
        <ele>120</ele>
        <time>2017-05-17T10:26:27.749</time>
      </trkpt>
      <trkpt lat="48.44953" lon="2.75661">
        <ele>120</ele>
        <time>2017-05-17T10:26:28.749</time>
      </trkpt>
      <trkpt lat="48.44953" lon="2.75661">
        <ele>120</ele>
        <time>2017-05-17T10:26:29.748</time>
      </trkpt>
      <trkpt lat="48.44953" lon="2.75661">
        <ele>120</ele>
        <time>2017-05-17T10:26:30.747</time>
      </trkpt>
      <trkpt lat="48.44953" lon="2.75661">
        <ele>120</ele>
        <time>2017-05-17T10:26:31.749</time>
      </trkpt>
      <trkpt lat="48.44953" lon="2.75661">
        <ele>120</ele>
        <time>2017-05-17T10:26:32.751</time>
      </trkpt>
      <trkpt lat="48.44953" lon="2.75661">
        <ele>120</ele>
        <time>2017-05-17T10:26:33.757</time>
      </trkpt>
      <trkpt lat="48.44953" lon="2.75661">
        <ele>120</ele>
        <time>2017-05-17T10:26:34.759</time>
      </trkpt>
      <trkpt lat="48.44953" lon="2.75661">
        <ele>120</ele>
        <time>2017-05-17T10:26:35.758</time>
      </trkpt>
      <trkpt lat="48.44953" lon="2.75661">
        <ele>120</ele>
        <time>2017-05-17T10:26:36.755</time>
      </trkpt>
      <trkpt lat="48.44953" lon="2.75661">
        <ele>120</ele>
        <time>2017-05-17T10:26:37.756</time>
      </trkpt>
      <trkpt lat="48.44953" lon="2.75661">
        <ele>120</ele>
        <time>2017-05-17T10:26:38.757</time>
      </trkpt>
      <trkpt lat="48.44953" lon="2.75661">
        <ele>120</ele>
        <time>2017-05-17T10:26:39.756</time>
      </trkpt>
      <trkpt lat="48.44953" lon="2.75661">
        <ele>120</ele>
        <time>2017-05-17T10:26:40.757</time>
      </trkpt>
      <trkpt lat="48.44953" lon="2.75661">
        <ele>120</ele>
        <time>2017-05-17T10:26:41.755</time>
      </trkpt>
      <trkpt lat="48.44953" lon="2.75661">
        <ele>120</ele>
        <time>2017-05-17T10:26:42.755</time>
      </trkpt>
      <trkpt lat="48.44953" lon="2.75661">
        <ele>120</ele>
        <time>2017-05-17T10:26:43.755</time>
      </trkpt>
      <trkpt lat="48.44953" lon="2.75661">
        <ele>120</ele>
        <time>2017-05-17T10:26:44.754</time>
      </trkpt>
      <trkpt lat="48.44953" lon="2.75661">
        <ele>120</ele>
        <time>2017-05-17T10:26:45.755</time>
      </trkpt>
      <trkpt lat="48.44953" lon="2.75661">
        <ele>120</ele>
        <time>2017-05-17T10:26:46.754</time>
      </trkpt>
      <trkpt lat="48.44953" lon="2.75661">
        <ele>120</ele>
        <time>2017-05-17T10:26:47.753</time>
      </trkpt>
      <trkpt lat="48.44953" lon="2.75661">
        <ele>120</ele>
        <time>2017-05-17T10:26:48.755</time>
      </trkpt>
      <trkpt lat="48.44953" lon="2.75661">
        <ele>120</ele>
        <time>2017-05-17T10:26:49.756</time>
      </trkpt>
      <trkpt lat="48.44953" lon="2.75661">
        <ele>120</ele>
        <time>2017-05-17T10:26:50.756</time>
      </trkpt>
      <trkpt lat="48.44953" lon="2.75661">
        <ele>120</ele>
        <time>2017-05-17T10:26:51.756</time>
      </trkpt>
      <trkpt lat="48.44953" lon="2.75661">
        <ele>120</ele>
        <time>2017-05-17T10:26:52.754</time>
      </trkpt>
      <trkpt lat="48.44953" lon="2.75661">
        <ele>120</ele>
        <time>2017-05-17T10:26:53.754</time>
      </trkpt>
      <trkpt lat="48.44953" lon="2.75661">
        <ele>120</ele>
        <time>2017-05-17T10:26:54.754</time>
      </trkpt>
      <trkpt lat="48.44953" lon="2.75661">
        <ele>120</ele>
        <time>2017-05-17T10:26:55.755</time>
      </trkpt>
      <trkpt lat="48.44953" lon="2.75661">
        <ele>120</ele>
        <time>2017-05-17T10:26:56.755</time>
      </trkpt>
      <trkpt lat="48.44953" lon="2.75661">
        <ele>120</ele>
        <time>2017-05-17T10:26:57.757</time>
      </trkpt>
      <trkpt lat="48.44953" lon="2.75661">
        <ele>120</ele>
        <time>2017-05-17T10:26:58.754</time>
      </trkpt>
      <trkpt lat="48.44953" lon="2.75661">
        <ele>120</ele>
        <time>2017-05-17T10:26:59.754</time>
      </trkpt>
      <trkpt lat="48.44953" lon="2.75661">
        <ele>120</ele>
        <time>2017-05-17T10:27:00.756</time>
      </trkpt>
      <trkpt lat="48.44953" lon="2.75661">
        <ele>120</ele>
        <time>2017-05-17T10:27:01.754</time>
      </trkpt>
      <trkpt lat="48.44953" lon="2.75661">
        <ele>120</ele>
        <time>2017-05-17T10:27:02.754</time>
      </trkpt>
      <trkpt lat="48.44953" lon="2.75661">
        <ele>120</ele>
        <time>2017-05-17T10:27:03.754</time>
      </trkpt>
      <trkpt lat="48.44953" lon="2.75661">
        <ele>120</ele>
        <time>2017-05-17T10:27:04.754</time>
      </trkpt>
      <trkpt lat="48.44953" lon="2.75661">
        <ele>120</ele>
        <time>2017-05-17T10:27:05.756</time>
      </trkpt>
      <trkpt lat="48.44953" lon="2.75661">
        <ele>120</ele>
        <time>2017-05-17T10:27:06.756</time>
      </trkpt>
      <trkpt lat="48.44953" lon="2.75661">
        <ele>120</ele>
        <time>2017-05-17T10:27:07.755</time>
      </trkpt>
      <trkpt lat="48.44953" lon="2.75661">
        <ele>120</ele>
        <time>2017-05-17T10:27:08.754</time>
      </trkpt>
      <trkpt lat="48.44953" lon="2.75661">
        <ele>120</ele>
        <time>2017-05-17T10:27:09.754</time>
      </trkpt>
      <trkpt lat="48.44953" lon="2.75661">
        <ele>120</ele>
        <time>2017-05-17T10:27:10.757</time>
      </trkpt>
      <trkpt lat="48.44953" lon="2.75661">
        <ele>120</ele>
        <time>2017-05-17T10:27:11.754</time>
      </trkpt>
      <trkpt lat="48.44953" lon="2.75661">
        <ele>120</ele>
        <time>2017-05-17T10:27:12.755</time>
      </trkpt>
      <trkpt lat="48.44953" lon="2.75661">
        <ele>120</ele>
        <time>2017-05-17T10:27:13.756</time>
      </trkpt>
      <trkpt lat="48.44953" lon="2.75661">
        <ele>120</ele>
        <time>2017-05-17T10:27:14.755</time>
      </trkpt>
      <trkpt lat="48.44953" lon="2.75661">
        <ele>120</ele>
        <time>2017-05-17T10:27:15.757</time>
      </trkpt>
      <trkpt lat="48.44953" lon="2.75661">
        <ele>120</ele>
        <time>2017-05-17T10:27:16.755</time>
      </trkpt>
      <trkpt lat="48.44953" lon="2.75661">
        <ele>120</ele>
        <time>2017-05-17T10:27:17.755</time>
      </trkpt>
      <trkpt lat="48.44953" lon="2.75661">
        <ele>120</ele>
        <time>2017-05-17T10:27:18.755</time>
      </trkpt>
      <trkpt lat="48.44953" lon="2.75661">
        <ele>120</ele>
        <time>2017-05-17T10:27:19.756</time>
      </trkpt>
      <trkpt lat="48.44953" lon="2.75661">
        <ele>120</ele>
        <time>2017-05-17T10:27:20.758</time>
      </trkpt>
      <trkpt lat="48.44953" lon="2.75661">
        <ele>120</ele>
        <time>2017-05-17T10:27:21.755</time>
      </trkpt>
      <trkpt lat="48.44953" lon="2.75661">
        <ele>120</ele>
        <time>2017-05-17T10:27:22.754</time>
      </trkpt>
      <trkpt lat="48.44953" lon="2.75661">
        <ele>120</ele>
        <time>2017-05-17T10:27:23.754</time>
      </trkpt>
      <trkpt lat="48.44953" lon="2.75661">
        <ele>120</ele>
        <time>2017-05-17T10:27:24.753</time>
      </trkpt>
      <trkpt lat="48.44953" lon="2.75661">
        <ele>120</ele>
        <time>2017-05-17T10:27:25.755</time>
      </trkpt>
      <trkpt lat="48.44953" lon="2.75661">
        <ele>120</ele>
        <time>2017-05-17T10:27:26.753</time>
      </trkpt>
      <trkpt lat="48.44953" lon="2.75661">
        <ele>120</ele>
        <time>2017-05-17T10:27:27.754</time>
      </trkpt>
      <trkpt lat="48.44953" lon="2.75661">
        <ele>120</ele>
        <time>2017-05-17T10:27:28.755</time>
      </trkpt>
      <trkpt lat="48.44953" lon="2.75661">
        <ele>120</ele>
        <time>2017-05-17T10:27:29.754</time>
      </trkpt>
      <trkpt lat="48.44953" lon="2.75661">
        <ele>120</ele>
        <time>2017-05-17T10:27:30.756</time>
      </trkpt>
      <trkpt lat="48.44953" lon="2.75661">
        <ele>120</ele>
        <time>2017-05-17T10:27:31.754</time>
      </trkpt>
      <trkpt lat="48.44953" lon="2.75661">
        <ele>120</ele>
        <time>2017-05-17T10:27:32.754</time>
      </trkpt>
      <trkpt lat="48.44953" lon="2.75661">
        <ele>120</ele>
        <time>2017-05-17T10:27:33.754</time>
      </trkpt>
      <trkpt lat="48.44953" lon="2.75661">
        <ele>120</ele>
        <time>2017-05-17T10:27:34.754</time>
      </trkpt>
      <trkpt lat="48.44953" lon="2.75661">
        <ele>120</ele>
        <time>2017-05-17T10:27:35.757</time>
      </trkpt>
      <trkpt lat="48.44953" lon="2.75661">
        <ele>120</ele>
        <time>2017-05-17T10:27:36.754</time>
      </trkpt>
      <trkpt lat="48.44953" lon="2.75661">
        <ele>120</ele>
        <time>2017-05-17T10:27:37.754</time>
      </trkpt>
      <trkpt lat="48.44953" lon="2.75661">
        <ele>120</ele>
        <time>2017-05-17T10:27:38.755</time>
      </trkpt>
      <trkpt lat="48.44953" lon="2.75661">
        <ele>120</ele>
        <time>2017-05-17T10:27:39.753</time>
      </trkpt>
      <trkpt lat="48.44953" lon="2.75661">
        <ele>120</ele>
        <time>2017-05-17T10:27:40.757</time>
      </trkpt>
      <trkpt lat="48.44953" lon="2.75661">
        <ele>121</ele>
        <time>2017-05-17T10:27:41.756</time>
      </trkpt>
      <trkpt lat="48.44953" lon="2.75661">
        <ele>121</ele>
        <time>2017-05-17T10:27:42.755</time>
      </trkpt>
      <trkpt lat="48.44953" lon="2.75661">
        <ele>121</ele>
        <time>2017-05-17T10:27:43.755</time>
      </trkpt>
      <trkpt lat="48.44953" lon="2.75661">
        <ele>121</ele>
        <time>2017-05-17T10:27:44.754</time>
      </trkpt>
      <trkpt lat="48.44953" lon="2.75661">
        <ele>121</ele>
        <time>2017-05-17T10:27:45.756</time>
      </trkpt>
      <trkpt lat="48.44953" lon="2.75661">
        <ele>121</ele>
        <time>2017-05-17T10:27:46.755</time>
      </trkpt>
      <trkpt lat="48.44953" lon="2.75661">
        <ele>121</ele>
        <time>2017-05-17T10:27:47.756</time>
      </trkpt>
      <trkpt lat="48.44953" lon="2.75661">
        <ele>121</ele>
        <time>2017-05-17T10:27:48.755</time>
      </trkpt>
      <trkpt lat="48.44953" lon="2.75661">
        <ele>121</ele>
        <time>2017-05-17T10:27:49.754</time>
      </trkpt>
      <trkpt lat="48.44953" lon="2.75661">
        <ele>121</ele>
        <time>2017-05-17T10:27:50.758</time>
      </trkpt>
      <trkpt lat="48.44953" lon="2.75661">
        <ele>121</ele>
        <time>2017-05-17T10:27:51.755</time>
      </trkpt>
      <trkpt lat="48.44953" lon="2.75661">
        <ele>121</ele>
        <time>2017-05-17T10:27:52.755</time>
      </trkpt>
      <trkpt lat="48.44953" lon="2.75661">
        <ele>121</ele>
        <time>2017-05-17T10:27:53.755</time>
      </trkpt>
      <trkpt lat="48.44953" lon="2.75661">
        <ele>121</ele>
        <time>2017-05-17T10:27:54.756</time>
      </trkpt>
      <trkpt lat="48.44953" lon="2.75661">
        <ele>121</ele>
        <time>2017-05-17T10:27:55.756</time>
      </trkpt>
      <trkpt lat="48.44953" lon="2.75661">
        <ele>121</ele>
        <time>2017-05-17T10:27:56.755</time>
      </trkpt>
      <trkpt lat="48.44953" lon="2.75661">
        <ele>121</ele>
        <time>2017-05-17T10:27:57.754</time>
      </trkpt>
      <trkpt lat="48.44953" lon="2.75661">
        <ele>121</ele>
        <time>2017-05-17T10:27:58.754</time>
      </trkpt>
      <trkpt lat="48.44953" lon="2.75661">
        <ele>121</ele>
        <time>2017-05-17T10:27:59.755</time>
      </trkpt>
      <trkpt lat="48.44953" lon="2.75661">
        <ele>121</ele>
        <time>2017-05-17T10:28:00.755</time>
      </trkpt>
      <trkpt lat="48.44953" lon="2.75661">
        <ele>121</ele>
        <time>2017-05-17T10:28:01.754</time>
      </trkpt>
      <trkpt lat="48.44953" lon="2.75661">
        <ele>121</ele>
        <time>2017-05-17T10:28:02.754</time>
      </trkpt>
      <trkpt lat="48.44953" lon="2.75661">
        <ele>121</ele>
        <time>2017-05-17T10:28:03.755</time>
      </trkpt>
      <trkpt lat="48.44953" lon="2.75661">
        <ele>121</ele>
        <time>2017-05-17T10:28:04.756</time>
      </trkpt>
      <trkpt lat="48.44953" lon="2.75661">
        <ele>121</ele>
        <time>2017-05-17T10:28:05.756</time>
      </trkpt>
      <trkpt lat="48.44953" lon="2.75661">
        <ele>121</ele>
        <time>2017-05-17T10:28:06.755</time>
      </trkpt>
      <trkpt lat="48.44953" lon="2.75661">
        <ele>121</ele>
        <time>2017-05-17T10:28:07.756</time>
      </trkpt>
      <trkpt lat="48.44953" lon="2.75661">
        <ele>121</ele>
        <time>2017-05-17T10:28:08.756</time>
      </trkpt>
      <trkpt lat="48.44953" lon="2.75661">
        <ele>121</ele>
        <time>2017-05-17T10:28:09.755</time>
      </trkpt>
      <trkpt lat="48.44953" lon="2.75661">
        <ele>121</ele>
        <time>2017-05-17T10:28:10.755</time>
      </trkpt>
      <trkpt lat="48.44953" lon="2.75661">
        <ele>121</ele>
        <time>2017-05-17T10:28:11.755</time>
      </trkpt>
      <trkpt lat="48.44953" lon="2.75661">
        <ele>121</ele>
        <time>2017-05-17T10:28:12.755</time>
      </trkpt>
      <trkpt lat="48.44953" lon="2.75661">
        <ele>121</ele>
        <time>2017-05-17T10:28:13.754</time>
      </trkpt>
      <trkpt lat="48.44953" lon="2.75661">
        <ele>121</ele>
        <time>2017-05-17T10:28:14.755</time>
      </trkpt>
      <trkpt lat="48.44953" lon="2.75661">
        <ele>121</ele>
        <time>2017-05-17T10:28:15.756</time>
      </trkpt>
      <trkpt lat="48.44953" lon="2.75661">
        <ele>121</ele>
        <time>2017-05-17T10:28:16.756</time>
      </trkpt>
      <trkpt lat="48.44953" lon="2.75661">
        <ele>121</ele>
        <time>2017-05-17T10:28:17.755</time>
      </trkpt>
      <trkpt lat="48.44953" lon="2.75661">
        <ele>121</ele>
        <time>2017-05-17T10:28:18.755</time>
      </trkpt>
      <trkpt lat="48.44953" lon="2.75661">
        <ele>121</ele>
        <time>2017-05-17T10:28:19.755</time>
      </trkpt>
      <trkpt lat="48.44953" lon="2.75661">
        <ele>121</ele>
        <time>2017-05-17T10:28:20.757</time>
      </trkpt>
      <trkpt lat="48.44953" lon="2.75661">
        <ele>121</ele>
        <time>2017-05-17T10:28:21.754</time>
      </trkpt>
      <trkpt lat="48.44953" lon="2.75661">
        <ele>121</ele>
        <time>2017-05-17T10:28:22.755</time>
      </trkpt>
      <trkpt lat="48.44953" lon="2.75661">
        <ele>121</ele>
        <time>2017-05-17T10:28:23.755</time>
      </trkpt>
      <trkpt lat="48.44953" lon="2.75661">
        <ele>121</ele>
        <time>2017-05-17T10:28:24.754</time>
      </trkpt>
      <trkpt lat="48.44953" lon="2.75661">
        <ele>121</ele>
        <time>2017-05-17T10:28:25.757</time>
      </trkpt>
      <trkpt lat="48.44953" lon="2.75661">
        <ele>121</ele>
        <time>2017-05-17T10:28:26.756</time>
      </trkpt>
      <trkpt lat="48.44953" lon="2.75661">
        <ele>121</ele>
        <time>2017-05-17T10:28:27.755</time>
      </trkpt>
      <trkpt lat="48.44953" lon="2.75661">
        <ele>121</ele>
        <time>2017-05-17T10:28:28.754</time>
      </trkpt>
      <trkpt lat="48.44953" lon="2.75661">
        <ele>121</ele>
        <time>2017-05-17T10:28:29.755</time>
      </trkpt>
      <trkpt lat="48.44953" lon="2.75661">
        <ele>121</ele>
        <time>2017-05-17T10:28:30.757</time>
      </trkpt>
      <trkpt lat="48.44953" lon="2.75661">
        <ele>121</ele>
        <time>2017-05-17T10:28:31.755</time>
      </trkpt>
      <trkpt lat="48.44952" lon="2.75661">
        <ele>121</ele>
        <time>2017-05-17T10:28:32.757</time>
      </trkpt>
      <trkpt lat="48.44952" lon="2.75661">
        <ele>121</ele>
        <time>2017-05-17T10:28:33.755</time>
      </trkpt>
      <trkpt lat="48.44952" lon="2.75661">
        <ele>121</ele>
        <time>2017-05-17T10:28:34.754</time>
      </trkpt>
      <trkpt lat="48.44952" lon="2.75661">
        <ele>121</ele>
        <time>2017-05-17T10:28:35.757</time>
      </trkpt>
      <trkpt lat="48.44952" lon="2.75661">
        <ele>121</ele>
        <time>2017-05-17T10:28:36.755</time>
      </trkpt>
      <trkpt lat="48.44952" lon="2.75661">
        <ele>121</ele>
        <time>2017-05-17T10:28:37.754</time>
      </trkpt>
      <trkpt lat="48.44952" lon="2.75661">
        <ele>121</ele>
        <time>2017-05-17T10:28:38.755</time>
      </trkpt>
      <trkpt lat="48.44952" lon="2.75661">
        <ele>121</ele>
        <time>2017-05-17T10:28:39.753</time>
      </trkpt>
      <trkpt lat="48.44952" lon="2.75661">
        <ele>121</ele>
        <time>2017-05-17T10:28:40.756</time>
      </trkpt>
      <trkpt lat="48.44952" lon="2.75661">
        <ele>121</ele>
        <time>2017-05-17T10:28:41.753</time>
      </trkpt>
      <trkpt lat="48.44952" lon="2.75661">
        <ele>121</ele>
        <time>2017-05-17T10:28:42.753</time>
      </trkpt>
      <trkpt lat="48.44952" lon="2.75661">
        <ele>121</ele>
        <time>2017-05-17T10:28:43.755</time>
      </trkpt>
      <trkpt lat="48.44952" lon="2.75661">
        <ele>121</ele>
        <time>2017-05-17T10:28:44.754</time>
      </trkpt>
      <trkpt lat="48.44953" lon="2.75661">
        <ele>121</ele>
        <time>2017-05-17T10:28:45.755</time>
      </trkpt>
      <trkpt lat="48.44953" lon="2.75661">
        <ele>121</ele>
        <time>2017-05-17T10:28:46.754</time>
      </trkpt>
      <trkpt lat="48.44953" lon="2.75661">
        <ele>121</ele>
        <time>2017-05-17T10:28:47.773</time>
      </trkpt>
      <trkpt lat="48.44953" lon="2.75661">
        <ele>121</ele>
        <time>2017-05-17T10:28:48.753</time>
      </trkpt>
      <trkpt lat="48.44953" lon="2.75661">
        <ele>121</ele>
        <time>2017-05-17T10:28:49.754</time>
      </trkpt>
      <trkpt lat="48.44953" lon="2.75661">
        <ele>121</ele>
        <time>2017-05-17T10:28:50.755</time>
      </trkpt>
      <trkpt lat="48.44953" lon="2.75661">
        <ele>121</ele>
        <time>2017-05-17T10:28:51.756</time>
      </trkpt>
      <trkpt lat="48.44953" lon="2.75661">
        <ele>121</ele>
        <time>2017-05-17T10:28:52.754</time>
      </trkpt>
      <trkpt lat="48.44953" lon="2.75661">
        <ele>121</ele>
        <time>2017-05-17T10:28:53.754</time>
      </trkpt>
      <trkpt lat="48.44953" lon="2.75661">
        <ele>121</ele>
        <time>2017-05-17T10:28:54.757</time>
      </trkpt>
      <trkpt lat="48.44953" lon="2.75661">
        <ele>121</ele>
        <time>2017-05-17T10:28:55.759</time>
      </trkpt>
      <trkpt lat="48.44953" lon="2.75661">
        <ele>121</ele>
        <time>2017-05-17T10:28:56.757</time>
      </trkpt>
      <trkpt lat="48.44953" lon="2.75661">
        <ele>121</ele>
        <time>2017-05-17T10:28:57.758</time>
      </trkpt>
      <trkpt lat="48.44953" lon="2.75661">
        <ele>121</ele>
        <time>2017-05-17T10:28:58.755</time>
      </trkpt>
      <trkpt lat="48.44953" lon="2.75661">
        <ele>121</ele>
        <time>2017-05-17T10:28:59.755</time>
      </trkpt>
      <trkpt lat="48.44953" lon="2.75661">
        <ele>121</ele>
        <time>2017-05-17T10:29:00.760</time>
      </trkpt>
      <trkpt lat="48.44953" lon="2.75661">
        <ele>121</ele>
        <time>2017-05-17T10:29:01.757</time>
      </trkpt>
      <trkpt lat="48.44953" lon="2.75661">
        <ele>121</ele>
        <time>2017-05-17T10:29:02.756</time>
      </trkpt>
      <trkpt lat="48.44953" lon="2.75661">
        <ele>121</ele>
        <time>2017-05-17T10:29:03.755</time>
      </trkpt>
      <trkpt lat="48.44953" lon="2.75661">
        <ele>121</ele>
        <time>2017-05-17T10:29:04.754</time>
      </trkpt>
      <trkpt lat="48.44953" lon="2.75661">
        <ele>121</ele>
        <time>2017-05-17T10:29:05.757</time>
      </trkpt>
      <trkpt lat="48.44953" lon="2.75661">
        <ele>121</ele>
        <time>2017-05-17T10:29:06.753</time>
      </trkpt>
      <trkpt lat="48.44953" lon="2.75661">
        <ele>121</ele>
        <time>2017-05-17T10:29:07.754</time>
      </trkpt>
      <trkpt lat="48.44953" lon="2.75661">
        <ele>121</ele>
        <time>2017-05-17T10:29:08.754</time>
      </trkpt>
      <trkpt lat="48.44953" lon="2.75661">
        <ele>121</ele>
        <time>2017-05-17T10:29:09.754</time>
      </trkpt>
      <trkpt lat="48.44953" lon="2.75661">
        <ele>121</ele>
        <time>2017-05-17T10:29:10.757</time>
      </trkpt>
      <trkpt lat="48.44953" lon="2.75661">
        <ele>121</ele>
        <time>2017-05-17T10:29:11.755</time>
      </trkpt>
      <trkpt lat="48.44953" lon="2.75661">
        <ele>121</ele>
        <time>2017-05-17T10:29:12.754</time>
      </trkpt>
      <trkpt lat="48.44953" lon="2.75661">
        <ele>121</ele>
        <time>2017-05-17T10:29:13.754</time>
      </trkpt>
      <trkpt lat="48.44953" lon="2.75661">
        <ele>121</ele>
        <time>2017-05-17T10:29:14.756</time>
      </trkpt>
      <trkpt lat="48.44953" lon="2.75661">
        <ele>121</ele>
        <time>2017-05-17T10:29:15.757</time>
      </trkpt>
      <trkpt lat="48.44953" lon="2.75661">
        <ele>121</ele>
        <time>2017-05-17T10:29:16.755</time>
      </trkpt>
      <trkpt lat="48.44953" lon="2.75661">
        <ele>121</ele>
        <time>2017-05-17T10:29:17.755</time>
      </trkpt>
      <trkpt lat="48.44953" lon="2.75661">
        <ele>121</ele>
        <time>2017-05-17T10:29:18.756</time>
      </trkpt>
      <trkpt lat="48.44953" lon="2.75661">
        <ele>121</ele>
        <time>2017-05-17T10:29:19.755</time>
      </trkpt>
      <trkpt lat="48.44953" lon="2.75661">
        <ele>121</ele>
        <time>2017-05-17T10:29:20.757</time>
      </trkpt>
      <trkpt lat="48.44953" lon="2.75661">
        <ele>121</ele>
        <time>2017-05-17T10:29:21.754</time>
      </trkpt>
      <trkpt lat="48.44953" lon="2.75661">
        <ele>121</ele>
        <time>2017-05-17T10:29:22.753</time>
      </trkpt>
      <trkpt lat="48.44953" lon="2.75661">
        <ele>121</ele>
        <time>2017-05-17T10:29:23.756</time>
      </trkpt>
      <trkpt lat="48.44953" lon="2.75661">
        <ele>121</ele>
        <time>2017-05-17T10:29:24.754</time>
      </trkpt>
      <trkpt lat="48.44953" lon="2.75661">
        <ele>121</ele>
        <time>2017-05-17T10:29:25.756</time>
      </trkpt>
      <trkpt lat="48.44953" lon="2.75661">
        <ele>121</ele>
        <time>2017-05-17T10:29:26.760</time>
      </trkpt>
      <trkpt lat="48.44953" lon="2.75661">
        <ele>121</ele>
        <time>2017-05-17T10:29:27.753</time>
      </trkpt>
      <trkpt lat="48.44953" lon="2.75661">
        <ele>121</ele>
        <time>2017-05-17T10:29:28.755</time>
      </trkpt>
      <trkpt lat="48.44953" lon="2.75661">
        <ele>121</ele>
        <time>2017-05-17T10:29:29.755</time>
      </trkpt>
      <trkpt lat="48.44953" lon="2.75661">
        <ele>121</ele>
        <time>2017-05-17T10:29:30.756</time>
      </trkpt>
      <trkpt lat="48.44953" lon="2.75661">
        <ele>121</ele>
        <time>2017-05-17T10:29:31.756</time>
      </trkpt>
      <trkpt lat="48.44953" lon="2.75661">
        <ele>121</ele>
        <time>2017-05-17T10:29:32.755</time>
      </trkpt>
      <trkpt lat="48.44953" lon="2.75661">
        <ele>121</ele>
        <time>2017-05-17T10:29:33.755</time>
      </trkpt>
      <trkpt lat="48.44953" lon="2.75661">
        <ele>121</ele>
        <time>2017-05-17T10:29:34.755</time>
      </trkpt>
      <trkpt lat="48.44953" lon="2.75661">
        <ele>121</ele>
        <time>2017-05-17T10:29:35.754</time>
      </trkpt>
      <trkpt lat="48.44953" lon="2.75661">
        <ele>121</ele>
        <time>2017-05-17T10:29:36.754</time>
      </trkpt>
      <trkpt lat="48.44953" lon="2.75661">
        <ele>121</ele>
        <time>2017-05-17T10:29:37.754</time>
      </trkpt>
      <trkpt lat="48.44953" lon="2.75661">
        <ele>121</ele>
        <time>2017-05-17T10:29:38.756</time>
      </trkpt>
      <trkpt lat="48.44953" lon="2.75661">
        <ele>121</ele>
        <time>2017-05-17T10:29:39.755</time>
      </trkpt>
      <trkpt lat="48.44953" lon="2.75661">
        <ele>121</ele>
        <time>2017-05-17T10:29:40.754</time>
      </trkpt>
      <trkpt lat="48.44953" lon="2.75661">
        <ele>121</ele>
        <time>2017-05-17T10:29:41.754</time>
      </trkpt>
      <trkpt lat="48.44953" lon="2.75661">
        <ele>121</ele>
        <time>2017-05-17T10:29:42.757</time>
      </trkpt>
      <trkpt lat="48.44953" lon="2.75661">
        <ele>121</ele>
        <time>2017-05-17T10:29:43.755</time>
      </trkpt>
      <trkpt lat="48.44953" lon="2.75661">
        <ele>121</ele>
        <time>2017-05-17T10:29:44.756</time>
      </trkpt>
      <trkpt lat="48.44953" lon="2.75661">
        <ele>121</ele>
        <time>2017-05-17T10:29:45.757</time>
      </trkpt>
      <trkpt lat="48.44953" lon="2.75661">
        <ele>121</ele>
        <time>2017-05-17T10:29:46.755</time>
      </trkpt>
      <trkpt lat="48.44953" lon="2.75661">
        <ele>121</ele>
        <time>2017-05-17T10:29:47.755</time>
      </trkpt>
      <trkpt lat="48.44953" lon="2.75661">
        <ele>121</ele>
        <time>2017-05-17T10:29:48.757</time>
      </trkpt>
      <trkpt lat="48.44952" lon="2.75661">
        <ele>120</ele>
        <time>2017-05-17T10:29:49.758</time>
      </trkpt>
      <trkpt lat="48.44953" lon="2.7566">
        <ele>120</ele>
        <time>2017-05-17T10:29:50.760</time>
      </trkpt>
      <trkpt lat="48.44953" lon="2.7566">
        <ele>119</ele>
        <time>2017-05-17T10:29:51.757</time>
      </trkpt>
      <trkpt lat="48.44952" lon="2.7566">
        <ele>119</ele>
        <time>2017-05-17T10:29:52.754</time>
      </trkpt>
      <trkpt lat="48.44953" lon="2.7566">
        <ele>119</ele>
        <time>2017-05-17T10:29:53.756</time>
      </trkpt>
      <trkpt lat="48.44952" lon="2.7566">
        <ele>119</ele>
        <time>2017-05-17T10:29:54.757</time>
      </trkpt>
      <trkpt lat="48.44953" lon="2.75659">
        <ele>118</ele>
        <time>2017-05-17T10:29:55.760</time>
      </trkpt>
      <trkpt lat="48.44952" lon="2.7566">
        <ele>118</ele>
        <time>2017-05-17T10:29:56.756</time>
      </trkpt>
      <trkpt lat="48.44951" lon="2.75658">
        <ele>116</ele>
        <time>2017-05-17T10:29:57.754</time>
      </trkpt>
      <trkpt lat="48.4495" lon="2.75658">
        <ele>116</ele>
        <time>2017-05-17T10:29:58.756</time>
      </trkpt>
      <trkpt lat="48.44951" lon="2.75659">
        <ele>116</ele>
        <time>2017-05-17T10:29:59.756</time>
      </trkpt>
      <trkpt lat="48.44951" lon="2.75658">
        <ele>116</ele>
        <time>2017-05-17T10:30:00.756</time>
      </trkpt>
      <trkpt lat="48.44951" lon="2.75659">
        <ele>115</ele>
        <time>2017-05-17T10:30:01.759</time>
      </trkpt>
      <trkpt lat="48.44951" lon="2.75658">
        <ele>115</ele>
        <time>2017-05-17T10:30:02.756</time>
      </trkpt>
      <trkpt lat="48.44951" lon="2.75658">
        <ele>115</ele>
        <time>2017-05-17T10:30:03.756</time>
      </trkpt>
      <trkpt lat="48.44951" lon="2.75658">
        <ele>114</ele>
        <time>2017-05-17T10:30:04.755</time>
      </trkpt>
      <trkpt lat="48.44951" lon="2.75658">
        <ele>114</ele>
        <time>2017-05-17T10:30:05.756</time>
      </trkpt>
      <trkpt lat="48.4495" lon="2.75658">
        <ele>115</ele>
        <time>2017-05-17T10:30:06.755</time>
      </trkpt>
      <trkpt lat="48.4495" lon="2.75658">
        <ele>114</ele>
        <time>2017-05-17T10:30:07.757</time>
      </trkpt>
      <trkpt lat="48.4495" lon="2.75658">
        <ele>115</ele>
        <time>2017-05-17T10:30:08.758</time>
      </trkpt>
      <trkpt lat="48.4495" lon="2.75658">
        <ele>115</ele>
        <time>2017-05-17T10:30:09.756</time>
      </trkpt>
      <trkpt lat="48.4495" lon="2.75658">
        <ele>114</ele>
        <time>2017-05-17T10:30:10.756</time>
      </trkpt>
      <trkpt lat="48.4495" lon="2.75658">
        <ele>114</ele>
        <time>2017-05-17T10:30:11.756</time>
      </trkpt>
      <trkpt lat="48.4495" lon="2.75658">
        <ele>114</ele>
        <time>2017-05-17T10:30:12.756</time>
      </trkpt>
      <trkpt lat="48.4495" lon="2.75658">
        <ele>115</ele>
        <time>2017-05-17T10:30:13.756</time>
      </trkpt>
      <trkpt lat="48.4495" lon="2.75658">
        <ele>115</ele>
        <time>2017-05-17T10:30:14.757</time>
      </trkpt>
      <trkpt lat="48.4495" lon="2.75658">
        <ele>115</ele>
        <time>2017-05-17T10:30:15.773</time>
      </trkpt>
      <trkpt lat="48.44949" lon="2.75658">
        <ele>115</ele>
        <time>2017-05-17T10:30:16.757</time>
      </trkpt>
      <trkpt lat="48.4495" lon="2.75658">
        <ele>114</ele>
        <time>2017-05-17T10:30:17.754</time>
      </trkpt>
      <trkpt lat="48.4495" lon="2.75658">
        <ele>114</ele>
        <time>2017-05-17T10:30:18.753</time>
      </trkpt>
      <trkpt lat="48.4495" lon="2.75658">
        <ele>113</ele>
        <time>2017-05-17T10:30:19.753</time>
      </trkpt>
      <trkpt lat="48.4495" lon="2.75658">
        <ele>113</ele>
        <time>2017-05-17T10:30:20.756</time>
      </trkpt>
      <trkpt lat="48.4495" lon="2.75657">
        <ele>113</ele>
        <time>2017-05-17T10:30:21.757</time>
      </trkpt>
      <trkpt lat="48.44951" lon="2.75657">
        <ele>112</ele>
        <time>2017-05-17T10:30:22.755</time>
      </trkpt>
      <trkpt lat="48.44951" lon="2.75657">
        <ele>112</ele>
        <time>2017-05-17T10:30:23.756</time>
      </trkpt>
      <trkpt lat="48.44951" lon="2.75657">
        <ele>112</ele>
        <time>2017-05-17T10:30:24.754</time>
      </trkpt>
      <trkpt lat="48.44951" lon="2.75656">
        <ele>112</ele>
        <time>2017-05-17T10:30:25.756</time>
      </trkpt>
      <trkpt lat="48.44951" lon="2.75656">
        <ele>112</ele>
        <time>2017-05-17T10:30:26.755</time>
      </trkpt>
      <trkpt lat="48.44951" lon="2.75656">
        <ele>112</ele>
        <time>2017-05-17T10:30:27.755</time>
      </trkpt>
      <trkpt lat="48.44951" lon="2.75656">
        <ele>112</ele>
        <time>2017-05-17T10:30:28.755</time>
      </trkpt>
      <trkpt lat="48.44951" lon="2.75656">
        <ele>112</ele>
        <time>2017-05-17T10:30:29.755</time>
      </trkpt>
      <trkpt lat="48.44951" lon="2.75656">
        <ele>112</ele>
        <time>2017-05-17T10:30:30.758</time>
      </trkpt>
      <trkpt lat="48.44951" lon="2.75656">
        <ele>112</ele>
        <time>2017-05-17T10:30:31.757</time>
      </trkpt>
      <trkpt lat="48.44951" lon="2.75656">
        <ele>112</ele>
        <time>2017-05-17T10:30:32.754</time>
      </trkpt>
      <trkpt lat="48.44951" lon="2.75656">
        <ele>112</ele>
        <time>2017-05-17T10:30:33.757</time>
      </trkpt>
      <trkpt lat="48.44951" lon="2.75656">
        <ele>112</ele>
        <time>2017-05-17T10:30:34.757</time>
      </trkpt>
      <trkpt lat="48.44951" lon="2.75656">
        <ele>112</ele>
        <time>2017-05-17T10:30:35.759</time>
      </trkpt>
      <trkpt lat="48.44951" lon="2.75656">
        <ele>112</ele>
        <time>2017-05-17T10:30:36.755</time>
      </trkpt>
      <trkpt lat="48.44951" lon="2.75656">
        <ele>112</ele>
        <time>2017-05-17T10:30:37.757</time>
      </trkpt>
      <trkpt lat="48.44951" lon="2.75656">
        <ele>112</ele>
        <time>2017-05-17T10:30:38.757</time>
      </trkpt>
      <trkpt lat="48.44951" lon="2.75656">
        <ele>112</ele>
        <time>2017-05-17T10:30:39.751</time>
      </trkpt>
      <trkpt lat="48.44951" lon="2.75656">
        <ele>112</ele>
        <time>2017-05-17T10:30:40.758</time>
      </trkpt>
      <trkpt lat="48.44951" lon="2.75656">
        <ele>112</ele>
        <time>2017-05-17T10:30:41.756</time>
      </trkpt>
      <trkpt lat="48.44951" lon="2.75656">
        <ele>112</ele>
        <time>2017-05-17T10:30:42.747</time>
      </trkpt>
      <trkpt lat="48.44951" lon="2.75656">
        <ele>112</ele>
        <time>2017-05-17T10:30:43.750</time>
      </trkpt>
      <trkpt lat="48.44951" lon="2.75656">
        <ele>112</ele>
        <time>2017-05-17T10:30:44.749</time>
      </trkpt>
      <trkpt lat="48.44951" lon="2.75656">
        <ele>112</ele>
        <time>2017-05-17T10:30:45.758</time>
      </trkpt>
      <trkpt lat="48.44951" lon="2.75656">
        <ele>112</ele>
        <time>2017-05-17T10:30:46.755</time>
      </trkpt>
      <trkpt lat="48.44951" lon="2.75656">
        <ele>112</ele>
        <time>2017-05-17T10:30:47.756</time>
      </trkpt>
      <trkpt lat="48.44951" lon="2.75656">
        <ele>112</ele>
        <time>2017-05-17T10:30:48.756</time>
      </trkpt>
      <trkpt lat="48.44951" lon="2.75656">
        <ele>112</ele>
        <time>2017-05-17T10:30:49.756</time>
      </trkpt>
      <trkpt lat="48.44951" lon="2.75656">
        <ele>112</ele>
        <time>2017-05-17T10:30:50.758</time>
      </trkpt>
      <trkpt lat="48.44951" lon="2.75656">
        <ele>112</ele>
        <time>2017-05-17T10:30:51.756</time>
      </trkpt>
      <trkpt lat="48.44951" lon="2.75656">
        <ele>112</ele>
        <time>2017-05-17T10:30:52.752</time>
      </trkpt>
      <trkpt lat="48.44951" lon="2.75656">
        <ele>112</ele>
        <time>2017-05-17T10:30:53.757</time>
      </trkpt>
      <trkpt lat="48.44951" lon="2.75656">
        <ele>112</ele>
        <time>2017-05-17T10:30:54.756</time>
      </trkpt>
      <trkpt lat="48.44951" lon="2.75656">
        <ele>112</ele>
        <time>2017-05-17T10:30:55.757</time>
      </trkpt>
      <trkpt lat="48.44951" lon="2.75656">
        <ele>112</ele>
        <time>2017-05-17T10:30:56.756</time>
      </trkpt>
      <trkpt lat="48.44951" lon="2.75656">
        <ele>112</ele>
        <time>2017-05-17T10:30:57.755</time>
      </trkpt>
      <trkpt lat="48.44951" lon="2.75656">
        <ele>112</ele>
        <time>2017-05-17T10:30:58.757</time>
      </trkpt>
      <trkpt lat="48.44951" lon="2.75656">
        <ele>112</ele>
        <time>2017-05-17T10:30:59.756</time>
      </trkpt>
      <trkpt lat="48.44951" lon="2.75656">
        <ele>112</ele>
        <time>2017-05-17T10:31:00.755</time>
      </trkpt>
      <trkpt lat="48.44951" lon="2.75656">
        <ele>112</ele>
        <time>2017-05-17T10:31:01.756</time>
      </trkpt>
      <trkpt lat="48.44951" lon="2.75656">
        <ele>112</ele>
        <time>2017-05-17T10:31:02.756</time>
      </trkpt>
      <trkpt lat="48.44951" lon="2.75656">
        <ele>112</ele>
        <time>2017-05-17T10:31:03.755</time>
      </trkpt>
      <trkpt lat="48.44951" lon="2.75655">
        <ele>112</ele>
        <time>2017-05-17T10:31:04.756</time>
      </trkpt>
      <trkpt lat="48.44951" lon="2.75655">
        <ele>112</ele>
        <time>2017-05-17T10:31:05.756</time>
      </trkpt>
      <trkpt lat="48.44951" lon="2.75655">
        <ele>112</ele>
        <time>2017-05-17T10:31:06.755</time>
      </trkpt>
      <trkpt lat="48.44951" lon="2.75655">
        <ele>112</ele>
        <time>2017-05-17T10:31:07.754</time>
      </trkpt>
      <trkpt lat="48.44951" lon="2.75655">
        <ele>112</ele>
        <time>2017-05-17T10:31:08.756</time>
      </trkpt>
      <trkpt lat="48.44951" lon="2.75655">
        <ele>112</ele>
        <time>2017-05-17T10:31:09.756</time>
      </trkpt>
      <trkpt lat="48.44951" lon="2.75655">
        <ele>112</ele>
        <time>2017-05-17T10:31:10.758</time>
      </trkpt>
      <trkpt lat="48.44951" lon="2.75655">
        <ele>112</ele>
        <time>2017-05-17T10:31:11.754</time>
      </trkpt>
      <trkpt lat="48.44951" lon="2.75655">
        <ele>112</ele>
        <time>2017-05-17T10:31:12.750</time>
      </trkpt>
      <trkpt lat="48.44951" lon="2.75655">
        <ele>112</ele>
        <time>2017-05-17T10:31:13.755</time>
      </trkpt>
      <trkpt lat="48.44951" lon="2.75655">
        <ele>112</ele>
        <time>2017-05-17T10:31:14.755</time>
      </trkpt>
      <trkpt lat="48.44951" lon="2.75655">
        <ele>112</ele>
        <time>2017-05-17T10:31:15.757</time>
      </trkpt>
      <trkpt lat="48.44951" lon="2.75655">
        <ele>112</ele>
        <time>2017-05-17T10:31:16.755</time>
      </trkpt>
      <trkpt lat="48.44951" lon="2.75655">
        <ele>112</ele>
        <time>2017-05-17T10:31:17.755</time>
      </trkpt>
      <trkpt lat="48.44951" lon="2.75655">
        <ele>112</ele>
        <time>2017-05-17T10:31:18.756</time>
      </trkpt>
      <trkpt lat="48.44951" lon="2.75655">
        <ele>112</ele>
        <time>2017-05-17T10:31:19.756</time>
      </trkpt>
      <trkpt lat="48.44951" lon="2.75655">
        <ele>112</ele>
        <time>2017-05-17T10:31:20.757</time>
      </trkpt>
      <trkpt lat="48.44951" lon="2.75655">
        <ele>112</ele>
        <time>2017-05-17T10:31:21.756</time>
      </trkpt>
      <trkpt lat="48.44951" lon="2.75655">
        <ele>112</ele>
        <time>2017-05-17T10:31:22.756</time>
      </trkpt>
      <trkpt lat="48.44951" lon="2.75655">
        <ele>112</ele>
        <time>2017-05-17T10:31:23.757</time>
      </trkpt>
      <trkpt lat="48.44951" lon="2.75655">
        <ele>112</ele>
        <time>2017-05-17T10:31:24.756</time>
      </trkpt>
      <trkpt lat="48.44951" lon="2.75655">
        <ele>112</ele>
        <time>2017-05-17T10:31:25.758</time>
      </trkpt>
      <trkpt lat="48.44951" lon="2.75655">
        <ele>112</ele>
        <time>2017-05-17T10:31:26.756</time>
      </trkpt>
      <trkpt lat="48.44951" lon="2.75655">
        <ele>112</ele>
        <time>2017-05-17T10:31:27.756</time>
      </trkpt>
      <trkpt lat="48.44951" lon="2.75655">
        <ele>112</ele>
        <time>2017-05-17T10:31:28.755</time>
      </trkpt>
      <trkpt lat="48.44951" lon="2.75655">
        <ele>112</ele>
        <time>2017-05-17T10:31:29.755</time>
      </trkpt>
      <trkpt lat="48.44951" lon="2.75655">
        <ele>112</ele>
        <time>2017-05-17T10:31:30.757</time>
      </trkpt>
      <trkpt lat="48.44951" lon="2.75655">
        <ele>112</ele>
        <time>2017-05-17T10:31:31.756</time>
      </trkpt>
      <trkpt lat="48.44951" lon="2.75655">
        <ele>112</ele>
        <time>2017-05-17T10:31:32.755</time>
      </trkpt>
      <trkpt lat="48.44951" lon="2.75655">
        <ele>112</ele>
        <time>2017-05-17T10:31:33.774</time>
      </trkpt>
      <trkpt lat="48.44951" lon="2.75655">
        <ele>112</ele>
        <time>2017-05-17T10:31:34.755</time>
      </trkpt>
      <trkpt lat="48.44951" lon="2.75655">
        <ele>112</ele>
        <time>2017-05-17T10:31:35.756</time>
      </trkpt>
      <trkpt lat="48.44951" lon="2.75655">
        <ele>112</ele>
        <time>2017-05-17T10:31:36.756</time>
      </trkpt>
      <trkpt lat="48.44951" lon="2.75655">
        <ele>112</ele>
        <time>2017-05-17T10:31:37.756</time>
      </trkpt>
      <trkpt lat="48.44951" lon="2.75655">
        <ele>112</ele>
        <time>2017-05-17T10:31:38.756</time>
      </trkpt>
      <trkpt lat="48.44951" lon="2.75655">
        <ele>112</ele>
        <time>2017-05-17T10:31:39.757</time>
      </trkpt>
      <trkpt lat="48.44951" lon="2.75655">
        <ele>112</ele>
        <time>2017-05-17T10:31:40.758</time>
      </trkpt>
      <trkpt lat="48.44951" lon="2.75655">
        <ele>112</ele>
        <time>2017-05-17T10:31:41.755</time>
      </trkpt>
      <trkpt lat="48.44951" lon="2.75655">
        <ele>112</ele>
        <time>2017-05-17T10:31:42.755</time>
      </trkpt>
      <trkpt lat="48.44951" lon="2.75655">
        <ele>112</ele>
        <time>2017-05-17T10:31:43.756</time>
      </trkpt>
      <trkpt lat="48.44951" lon="2.75655">
        <ele>112</ele>
        <time>2017-05-17T10:31:44.754</time>
      </trkpt>
      <trkpt lat="48.44951" lon="2.75655">
        <ele>112</ele>
        <time>2017-05-17T10:31:45.755</time>
      </trkpt>
      <trkpt lat="48.44951" lon="2.75655">
        <ele>112</ele>
        <time>2017-05-17T10:31:46.756</time>
      </trkpt>
      <trkpt lat="48.44951" lon="2.75655">
        <ele>112</ele>
        <time>2017-05-17T10:31:47.755</time>
      </trkpt>
      <trkpt lat="48.44951" lon="2.75655">
        <ele>112</ele>
        <time>2017-05-17T10:31:48.756</time>
      </trkpt>
      <trkpt lat="48.44951" lon="2.75655">
        <ele>112</ele>
        <time>2017-05-17T10:31:49.756</time>
      </trkpt>
      <trkpt lat="48.44951" lon="2.75655">
        <ele>112</ele>
        <time>2017-05-17T10:31:50.758</time>
      </trkpt>
      <trkpt lat="48.44951" lon="2.75655">
        <ele>112</ele>
        <time>2017-05-17T10:31:51.757</time>
      </trkpt>
      <trkpt lat="48.44951" lon="2.75655">
        <ele>112</ele>
        <time>2017-05-17T10:31:52.755</time>
      </trkpt>
      <trkpt lat="48.44951" lon="2.75655">
        <ele>112</ele>
        <time>2017-05-17T10:31:53.755</time>
      </trkpt>
      <trkpt lat="48.44951" lon="2.75655">
        <ele>112</ele>
        <time>2017-05-17T10:31:54.749</time>
      </trkpt>
      <trkpt lat="48.44951" lon="2.75655">
        <ele>112</ele>
        <time>2017-05-17T10:31:55.750</time>
      </trkpt>
      <trkpt lat="48.44951" lon="2.75655">
        <ele>112</ele>
        <time>2017-05-17T10:31:56.756</time>
      </trkpt>
      <trkpt lat="48.44951" lon="2.75655">
        <ele>112</ele>
        <time>2017-05-17T10:31:57.755</time>
      </trkpt>
      <trkpt lat="48.44951" lon="2.75655">
        <ele>112</ele>
        <time>2017-05-17T10:31:58.756</time>
      </trkpt>
      <trkpt lat="48.44951" lon="2.75655">
        <ele>111</ele>
        <time>2017-05-17T10:31:59.759</time>
      </trkpt>
      <trkpt lat="48.44951" lon="2.75654">
        <ele>111</ele>
        <time>2017-05-17T10:32:00.760</time>
      </trkpt>
      <trkpt lat="48.44951" lon="2.75654">
        <ele>112</ele>
        <time>2017-05-17T10:32:01.756</time>
      </trkpt>
      <trkpt lat="48.44951" lon="2.75654">
        <ele>112</ele>
        <time>2017-05-17T10:32:02.756</time>
      </trkpt>
      <trkpt lat="48.44951" lon="2.75653">
        <ele>113</ele>
        <time>2017-05-17T10:32:03.752</time>
      </trkpt>
      <trkpt lat="48.44951" lon="2.75653">
        <ele>113</ele>
        <time>2017-05-17T10:32:04.755</time>
      </trkpt>
      <trkpt lat="48.44951" lon="2.75654">
        <ele>113</ele>
        <time>2017-05-17T10:32:05.757</time>
      </trkpt>
      <trkpt lat="48.44951" lon="2.75654">
        <ele>113</ele>
        <time>2017-05-17T10:32:06.755</time>
      </trkpt>
      <trkpt lat="48.44951" lon="2.75654">
        <ele>112</ele>
        <time>2017-05-17T10:32:07.753</time>
      </trkpt>
      <trkpt lat="48.44951" lon="2.75653">
        <ele>112</ele>
        <time>2017-05-17T10:32:08.773</time>
      </trkpt>
      <trkpt lat="48.44951" lon="2.75654">
        <ele>112</ele>
        <time>2017-05-17T10:32:09.755</time>
      </trkpt>
      <trkpt lat="48.44951" lon="2.75654">
        <ele>112</ele>
        <time>2017-05-17T10:32:10.756</time>
      </trkpt>
      <trkpt lat="48.44951" lon="2.75654">
        <ele>113</ele>
        <time>2017-05-17T10:32:11.755</time>
      </trkpt>
      <trkpt lat="48.44951" lon="2.75654">
        <ele>113</ele>
        <time>2017-05-17T10:32:12.755</time>
      </trkpt>
      <trkpt lat="48.44951" lon="2.75654">
        <ele>113</ele>
        <time>2017-05-17T10:32:13.755</time>
      </trkpt>
      <trkpt lat="48.44951" lon="2.75654">
        <ele>113</ele>
        <time>2017-05-17T10:32:14.753</time>
      </trkpt>
      <trkpt lat="48.44951" lon="2.75654">
        <ele>113</ele>
        <time>2017-05-17T10:32:15.756</time>
      </trkpt>
      <trkpt lat="48.44951" lon="2.75654">
        <ele>113</ele>
        <time>2017-05-17T10:32:16.756</time>
      </trkpt>
      <trkpt lat="48.44951" lon="2.75654">
        <ele>113</ele>
        <time>2017-05-17T10:32:17.755</time>
      </trkpt>
      <trkpt lat="48.44951" lon="2.75654">
        <ele>113</ele>
        <time>2017-05-17T10:32:18.755</time>
      </trkpt>
      <trkpt lat="48.44951" lon="2.75654">
        <ele>113</ele>
        <time>2017-05-17T10:32:19.749</time>
      </trkpt>
      <trkpt lat="48.44951" lon="2.75654">
        <ele>113</ele>
        <time>2017-05-17T10:32:20.757</time>
      </trkpt>
      <trkpt lat="48.44951" lon="2.75654">
        <ele>113</ele>
        <time>2017-05-17T10:32:21.755</time>
      </trkpt>
      <trkpt lat="48.44951" lon="2.75654">
        <ele>113</ele>
        <time>2017-05-17T10:32:22.755</time>
      </trkpt>
      <trkpt lat="48.44951" lon="2.75654">
        <ele>113</ele>
        <time>2017-05-17T10:32:23.754</time>
      </trkpt>
      <trkpt lat="48.44951" lon="2.75654">
        <ele>113</ele>
        <time>2017-05-17T10:32:24.784</time>
      </trkpt>
      <trkpt lat="48.44951" lon="2.75654">
        <ele>113</ele>
        <time>2017-05-17T10:32:25.756</time>
      </trkpt>
      <trkpt lat="48.44951" lon="2.75654">
        <ele>113</ele>
        <time>2017-05-17T10:32:26.755</time>
      </trkpt>
      <trkpt lat="48.44951" lon="2.75654">
        <ele>113</ele>
        <time>2017-05-17T10:32:27.755</time>
      </trkpt>
      <trkpt lat="48.44951" lon="2.75654">
        <ele>113</ele>
        <time>2017-05-17T10:32:28.754</time>
      </trkpt>
      <trkpt lat="48.44951" lon="2.75654">
        <ele>113</ele>
        <time>2017-05-17T10:32:29.754</time>
      </trkpt>
      <trkpt lat="48.44951" lon="2.75654">
        <ele>113</ele>
        <time>2017-05-17T10:32:30.757</time>
      </trkpt>
      <trkpt lat="48.44951" lon="2.75654">
        <ele>113</ele>
        <time>2017-05-17T10:32:31.755</time>
      </trkpt>
      <trkpt lat="48.44951" lon="2.75654">
        <ele>113</ele>
        <time>2017-05-17T10:32:32.754</time>
      </trkpt>
      <trkpt lat="48.44951" lon="2.75654">
        <ele>113</ele>
        <time>2017-05-17T10:32:33.755</time>
      </trkpt>
      <trkpt lat="48.44951" lon="2.75654">
        <ele>113</ele>
        <time>2017-05-17T10:32:34.754</time>
      </trkpt>
      <trkpt lat="48.44951" lon="2.75654">
        <ele>113</ele>
        <time>2017-05-17T10:32:35.756</time>
      </trkpt>
      <trkpt lat="48.44951" lon="2.75654">
        <ele>113</ele>
        <time>2017-05-17T10:32:36.755</time>
      </trkpt>
      <trkpt lat="48.44951" lon="2.75654">
        <ele>113</ele>
        <time>2017-05-17T10:32:37.756</time>
      </trkpt>
      <trkpt lat="48.44951" lon="2.75654">
        <ele>113</ele>
        <time>2017-05-17T10:32:38.755</time>
      </trkpt>
      <trkpt lat="48.44951" lon="2.75654">
        <ele>113</ele>
        <time>2017-05-17T10:32:39.755</time>
      </trkpt>
      <trkpt lat="48.44951" lon="2.75654">
        <ele>113</ele>
        <time>2017-05-17T10:32:40.756</time>
      </trkpt>
      <trkpt lat="48.44951" lon="2.75654">
        <ele>113</ele>
        <time>2017-05-17T10:32:41.754</time>
      </trkpt>
      <trkpt lat="48.44951" lon="2.75654">
        <ele>113</ele>
        <time>2017-05-17T10:32:42.754</time>
      </trkpt>
      <trkpt lat="48.44951" lon="2.75654">
        <ele>113</ele>
        <time>2017-05-17T10:32:43.754</time>
      </trkpt>
      <trkpt lat="48.44951" lon="2.75654">
        <ele>113</ele>
        <time>2017-05-17T10:32:44.757</time>
      </trkpt>
      <trkpt lat="48.44951" lon="2.75654">
        <ele>113</ele>
        <time>2017-05-17T10:32:45.757</time>
      </trkpt>
      <trkpt lat="48.44951" lon="2.75654">
        <ele>113</ele>
        <time>2017-05-17T10:32:46.755</time>
      </trkpt>
      <trkpt lat="48.44951" lon="2.75654">
        <ele>113</ele>
        <time>2017-05-17T10:32:47.755</time>
      </trkpt>
      <trkpt lat="48.44951" lon="2.75654">
        <ele>113</ele>
        <time>2017-05-17T10:32:48.755</time>
      </trkpt>
      <trkpt lat="48.44951" lon="2.75654">
        <ele>113</ele>
        <time>2017-05-17T10:32:49.755</time>
      </trkpt>
      <trkpt lat="48.44951" lon="2.75654">
        <ele>113</ele>
        <time>2017-05-17T10:32:50.756</time>
      </trkpt>
      <trkpt lat="48.44951" lon="2.75654">
        <ele>113</ele>
        <time>2017-05-17T10:32:51.755</time>
      </trkpt>
      <trkpt lat="48.44951" lon="2.75654">
        <ele>113</ele>
        <time>2017-05-17T10:32:52.756</time>
      </trkpt>
      <trkpt lat="48.44951" lon="2.75654">
        <ele>113</ele>
        <time>2017-05-17T10:32:53.755</time>
      </trkpt>
      <trkpt lat="48.44951" lon="2.75654">
        <ele>113</ele>
        <time>2017-05-17T10:32:54.754</time>
      </trkpt>
      <trkpt lat="48.44951" lon="2.75654">
        <ele>113</ele>
        <time>2017-05-17T10:32:55.757</time>
      </trkpt>
      <trkpt lat="48.44951" lon="2.75654">
        <ele>113</ele>
        <time>2017-05-17T10:32:56.755</time>
      </trkpt>
      <trkpt lat="48.44951" lon="2.75654">
        <ele>113</ele>
        <time>2017-05-17T10:32:57.754</time>
      </trkpt>
      <trkpt lat="48.44951" lon="2.75654">
        <ele>113</ele>
        <time>2017-05-17T10:32:58.754</time>
      </trkpt>
      <trkpt lat="48.44951" lon="2.75654">
        <ele>113</ele>
        <time>2017-05-17T10:32:59.755</time>
      </trkpt>
      <trkpt lat="48.44951" lon="2.75654">
        <ele>113</ele>
        <time>2017-05-17T10:33:00.756</time>
      </trkpt>
      <trkpt lat="48.44951" lon="2.75654">
        <ele>113</ele>
        <time>2017-05-17T10:33:01.755</time>
      </trkpt>
      <trkpt lat="48.44951" lon="2.75654">
        <ele>113</ele>
        <time>2017-05-17T10:33:02.753</time>
      </trkpt>
      <trkpt lat="48.44951" lon="2.75654">
        <ele>113</ele>
        <time>2017-05-17T10:33:03.755</time>
      </trkpt>
      <trkpt lat="48.44951" lon="2.75654">
        <ele>113</ele>
        <time>2017-05-17T10:33:04.755</time>
      </trkpt>
      <trkpt lat="48.44951" lon="2.75654">
        <ele>113</ele>
        <time>2017-05-17T10:33:05.757</time>
      </trkpt>
      <trkpt lat="48.44951" lon="2.75654">
        <ele>113</ele>
        <time>2017-05-17T10:33:06.755</time>
      </trkpt>
      <trkpt lat="48.44951" lon="2.75654">
        <ele>113</ele>
        <time>2017-05-17T10:33:07.755</time>
      </trkpt>
      <trkpt lat="48.44951" lon="2.75654">
        <ele>113</ele>
        <time>2017-05-17T10:33:08.756</time>
      </trkpt>
      <trkpt lat="48.44951" lon="2.75654">
        <ele>113</ele>
        <time>2017-05-17T10:33:09.754</time>
      </trkpt>
      <trkpt lat="48.44951" lon="2.75654">
        <ele>113</ele>
        <time>2017-05-17T10:33:10.757</time>
      </trkpt>
      <trkpt lat="48.44951" lon="2.75654">
        <ele>113</ele>
        <time>2017-05-17T10:33:11.755</time>
      </trkpt>
      <trkpt lat="48.44951" lon="2.75654">
        <ele>113</ele>
        <time>2017-05-17T10:33:12.755</time>
      </trkpt>
      <trkpt lat="48.44951" lon="2.75654">
        <ele>113</ele>
        <time>2017-05-17T10:33:13.755</time>
      </trkpt>
      <trkpt lat="48.44951" lon="2.75654">
        <ele>113</ele>
        <time>2017-05-17T10:33:14.755</time>
      </trkpt>
      <trkpt lat="48.44951" lon="2.75654">
        <ele>113</ele>
        <time>2017-05-17T10:33:15.756</time>
      </trkpt>
      <trkpt lat="48.44951" lon="2.75654">
        <ele>113</ele>
        <time>2017-05-17T10:33:16.754</time>
      </trkpt>
      <trkpt lat="48.44951" lon="2.75654">
        <ele>113</ele>
        <time>2017-05-17T10:33:17.755</time>
      </trkpt>
      <trkpt lat="48.44951" lon="2.75654">
        <ele>113</ele>
        <time>2017-05-17T10:33:18.756</time>
      </trkpt>
      <trkpt lat="48.44951" lon="2.75654">
        <ele>113</ele>
        <time>2017-05-17T10:33:19.756</time>
      </trkpt>
      <trkpt lat="48.44951" lon="2.75654">
        <ele>113</ele>
        <time>2017-05-17T10:33:20.757</time>
      </trkpt>
      <trkpt lat="48.44951" lon="2.75654">
        <ele>113</ele>
        <time>2017-05-17T10:33:21.756</time>
      </trkpt>
      <trkpt lat="48.44951" lon="2.75654">
        <ele>113</ele>
        <time>2017-05-17T10:33:22.755</time>
      </trkpt>
      <trkpt lat="48.44951" lon="2.75654">
        <ele>113</ele>
        <time>2017-05-17T10:33:23.757</time>
      </trkpt>
      <trkpt lat="48.44951" lon="2.75654">
        <ele>113</ele>
        <time>2017-05-17T10:33:24.755</time>
      </trkpt>
      <trkpt lat="48.44951" lon="2.75654">
        <ele>113</ele>
        <time>2017-05-17T10:33:25.757</time>
      </trkpt>
      <trkpt lat="48.44951" lon="2.75654">
        <ele>113</ele>
        <time>2017-05-17T10:33:26.755</time>
      </trkpt>
      <trkpt lat="48.44951" lon="2.75654">
        <ele>113</ele>
        <time>2017-05-17T10:33:27.755</time>
      </trkpt>
      <trkpt lat="48.44951" lon="2.75654">
        <ele>113</ele>
        <time>2017-05-17T10:33:28.756</time>
      </trkpt>
      <trkpt lat="48.44951" lon="2.75654">
        <ele>113</ele>
        <time>2017-05-17T10:33:29.756</time>
      </trkpt>
      <trkpt lat="48.44951" lon="2.75654">
        <ele>113</ele>
        <time>2017-05-17T10:33:30.757</time>
      </trkpt>
      <trkpt lat="48.44951" lon="2.75654">
        <ele>113</ele>
        <time>2017-05-17T10:33:31.756</time>
      </trkpt>
      <trkpt lat="48.44951" lon="2.75654">
        <ele>113</ele>
        <time>2017-05-17T10:33:32.756</time>
      </trkpt>
      <trkpt lat="48.44951" lon="2.75654">
        <ele>113</ele>
        <time>2017-05-17T10:33:33.757</time>
      </trkpt>
      <trkpt lat="48.44951" lon="2.75654">
        <ele>113</ele>
        <time>2017-05-17T10:33:34.754</time>
      </trkpt>
      <trkpt lat="48.44951" lon="2.75654">
        <ele>113</ele>
        <time>2017-05-17T10:33:35.755</time>
      </trkpt>
      <trkpt lat="48.44951" lon="2.75654">
        <ele>113</ele>
        <time>2017-05-17T10:33:36.756</time>
      </trkpt>
      <trkpt lat="48.44951" lon="2.75654">
        <ele>113</ele>
        <time>2017-05-17T10:33:37.755</time>
      </trkpt>
      <trkpt lat="48.44951" lon="2.75654">
        <ele>113</ele>
        <time>2017-05-17T10:33:38.757</time>
      </trkpt>
      <trkpt lat="48.44951" lon="2.75654">
        <ele>113</ele>
        <time>2017-05-17T10:33:39.755</time>
      </trkpt>
      <trkpt lat="48.44951" lon="2.75654">
        <ele>113</ele>
        <time>2017-05-17T10:33:40.758</time>
      </trkpt>
      <trkpt lat="48.44951" lon="2.75654">
        <ele>113</ele>
        <time>2017-05-17T10:33:41.754</time>
      </trkpt>
      <trkpt lat="48.44951" lon="2.75654">
        <ele>113</ele>
        <time>2017-05-17T10:33:42.754</time>
      </trkpt>
      <trkpt lat="48.44951" lon="2.75654">
        <ele>113</ele>
        <time>2017-05-17T10:33:43.754</time>
      </trkpt>
      <trkpt lat="48.44951" lon="2.75654">
        <ele>113</ele>
        <time>2017-05-17T10:33:44.754</time>
      </trkpt>
      <trkpt lat="48.44951" lon="2.75654">
        <ele>113</ele>
        <time>2017-05-17T10:33:45.758</time>
      </trkpt>
      <trkpt lat="48.44951" lon="2.75654">
        <ele>113</ele>
        <time>2017-05-17T10:33:46.754</time>
      </trkpt>
      <trkpt lat="48.44951" lon="2.75654">
        <ele>113</ele>
        <time>2017-05-17T10:33:47.754</time>
      </trkpt>
      <trkpt lat="48.44951" lon="2.75654">
        <ele>113</ele>
        <time>2017-05-17T10:33:48.755</time>
      </trkpt>
      <trkpt lat="48.44951" lon="2.75654">
        <ele>113</ele>
        <time>2017-05-17T10:33:49.755</time>
      </trkpt>
      <trkpt lat="48.44951" lon="2.75654">
        <ele>113</ele>
        <time>2017-05-17T10:33:50.754</time>
      </trkpt>
      <trkpt lat="48.44951" lon="2.75654">
        <ele>113</ele>
        <time>2017-05-17T10:33:51.754</time>
      </trkpt>
      <trkpt lat="48.44951" lon="2.75654">
        <ele>113</ele>
        <time>2017-05-17T10:33:52.754</time>
      </trkpt>
      <trkpt lat="48.44951" lon="2.75654">
        <ele>113</ele>
        <time>2017-05-17T10:33:53.753</time>
      </trkpt>
      <trkpt lat="48.44951" lon="2.75654">
        <ele>113</ele>
        <time>2017-05-17T10:33:54.753</time>
      </trkpt>
      <trkpt lat="48.44951" lon="2.75654">
        <ele>113</ele>
        <time>2017-05-17T10:33:55.757</time>
      </trkpt>
      <trkpt lat="48.44951" lon="2.75654">
        <ele>113</ele>
        <time>2017-05-17T10:33:56.755</time>
      </trkpt>
      <trkpt lat="48.44951" lon="2.75654">
        <ele>113</ele>
        <time>2017-05-17T10:33:57.754</time>
      </trkpt>
      <trkpt lat="48.44951" lon="2.75654">
        <ele>113</ele>
        <time>2017-05-17T10:33:58.755</time>
      </trkpt>
      <trkpt lat="48.44951" lon="2.75654">
        <ele>113</ele>
        <time>2017-05-17T10:33:59.753</time>
      </trkpt>
      <trkpt lat="48.44951" lon="2.75654">
        <ele>113</ele>
        <time>2017-05-17T10:34:00.756</time>
      </trkpt>
      <trkpt lat="48.44951" lon="2.75654">
        <ele>113</ele>
        <time>2017-05-17T10:34:01.754</time>
      </trkpt>
      <trkpt lat="48.44951" lon="2.75654">
        <ele>113</ele>
        <time>2017-05-17T10:34:02.754</time>
      </trkpt>
      <trkpt lat="48.44951" lon="2.75654">
        <ele>113</ele>
        <time>2017-05-17T10:34:03.754</time>
      </trkpt>
      <trkpt lat="48.44951" lon="2.75654">
        <ele>113</ele>
        <time>2017-05-17T10:34:04.753</time>
      </trkpt>
      <trkpt lat="48.44951" lon="2.75654">
        <ele>113</ele>
        <time>2017-05-17T10:34:05.756</time>
      </trkpt>
      <trkpt lat="48.44951" lon="2.75654">
        <ele>113</ele>
        <time>2017-05-17T10:34:06.755</time>
      </trkpt>
      <trkpt lat="48.44951" lon="2.75654">
        <ele>113</ele>
        <time>2017-05-17T10:34:07.755</time>
      </trkpt>
      <trkpt lat="48.44951" lon="2.75654">
        <ele>113</ele>
        <time>2017-05-17T10:34:08.754</time>
      </trkpt>
      <trkpt lat="48.44951" lon="2.75654">
        <ele>113</ele>
        <time>2017-05-17T10:34:09.753</time>
      </trkpt>
      <trkpt lat="48.44951" lon="2.75654">
        <ele>113</ele>
        <time>2017-05-17T10:34:10.757</time>
      </trkpt>
      <trkpt lat="48.44951" lon="2.75654">
        <ele>113</ele>
        <time>2017-05-17T10:34:11.755</time>
      </trkpt>
      <trkpt lat="48.44951" lon="2.75654">
        <ele>113</ele>
        <time>2017-05-17T10:34:12.753</time>
      </trkpt>
      <trkpt lat="48.44951" lon="2.75654">
        <ele>113</ele>
        <time>2017-05-17T10:34:13.755</time>
      </trkpt>
      <trkpt lat="48.44951" lon="2.75654">
        <ele>113</ele>
        <time>2017-05-17T10:34:14.755</time>
      </trkpt>
      <trkpt lat="48.44951" lon="2.75654">
        <ele>113</ele>
        <time>2017-05-17T10:34:15.756</time>
      </trkpt>
      <trkpt lat="48.44951" lon="2.75654">
        <ele>113</ele>
        <time>2017-05-17T10:34:16.754</time>
      </trkpt>
      <trkpt lat="48.44951" lon="2.75654">
        <ele>113</ele>
        <time>2017-05-17T10:34:17.754</time>
      </trkpt>
      <trkpt lat="48.44951" lon="2.75654">
        <ele>113</ele>
        <time>2017-05-17T10:34:18.754</time>
      </trkpt>
      <trkpt lat="48.44951" lon="2.75654">
        <ele>113</ele>
        <time>2017-05-17T10:34:19.754</time>
      </trkpt>
      <trkpt lat="48.44951" lon="2.75654">
        <ele>113</ele>
        <time>2017-05-17T10:34:20.755</time>
      </trkpt>
      <trkpt lat="48.44951" lon="2.75654">
        <ele>113</ele>
        <time>2017-05-17T10:34:21.756</time>
      </trkpt>
      <trkpt lat="48.44951" lon="2.75654">
        <ele>113</ele>
        <time>2017-05-17T10:34:22.754</time>
      </trkpt>
      <trkpt lat="48.44951" lon="2.75654">
        <ele>113</ele>
        <time>2017-05-17T10:34:23.756</time>
      </trkpt>
      <trkpt lat="48.44951" lon="2.75654">
        <ele>113</ele>
        <time>2017-05-17T10:34:24.756</time>
      </trkpt>
      <trkpt lat="48.44951" lon="2.75654">
        <ele>113</ele>
        <time>2017-05-17T10:34:25.757</time>
      </trkpt>
      <trkpt lat="48.44951" lon="2.75654">
        <ele>113</ele>
        <time>2017-05-17T10:34:26.755</time>
      </trkpt>
      <trkpt lat="48.44951" lon="2.75654">
        <ele>113</ele>
        <time>2017-05-17T10:34:27.755</time>
      </trkpt>
      <trkpt lat="48.44951" lon="2.75654">
        <ele>113</ele>
        <time>2017-05-17T10:34:28.754</time>
      </trkpt>
      <trkpt lat="48.44951" lon="2.75654">
        <ele>113</ele>
        <time>2017-05-17T10:34:29.754</time>
      </trkpt>
      <trkpt lat="48.44951" lon="2.75654">
        <ele>113</ele>
        <time>2017-05-17T10:34:30.756</time>
      </trkpt>
      <trkpt lat="48.44951" lon="2.75654">
        <ele>113</ele>
        <time>2017-05-17T10:34:31.756</time>
      </trkpt>
      <trkpt lat="48.44951" lon="2.75654">
        <ele>113</ele>
        <time>2017-05-17T10:34:32.757</time>
      </trkpt>
      <trkpt lat="48.44951" lon="2.75654">
        <ele>113</ele>
        <time>2017-05-17T10:34:33.761</time>
      </trkpt>
      <trkpt lat="48.44951" lon="2.75654">
        <ele>113</ele>
        <time>2017-05-17T10:34:34.757</time>
      </trkpt>
      <trkpt lat="48.44951" lon="2.75654">
        <ele>113</ele>
        <time>2017-05-17T10:34:35.758</time>
      </trkpt>
      <trkpt lat="48.44951" lon="2.75654">
        <ele>114</ele>
        <time>2017-05-17T10:34:36.758</time>
      </trkpt>
      <trkpt lat="48.44951" lon="2.75654">
        <ele>113</ele>
        <time>2017-05-17T10:34:37.757</time>
      </trkpt>
      <trkpt lat="48.4495" lon="2.75654">
        <ele>113</ele>
        <time>2017-05-17T10:34:38.754</time>
      </trkpt>
      <trkpt lat="48.4495" lon="2.75654">
        <ele>112</ele>
        <time>2017-05-17T10:34:39.754</time>
      </trkpt>
      <trkpt lat="48.4495" lon="2.75654">
        <ele>112</ele>
        <time>2017-05-17T10:34:40.755</time>
      </trkpt>
      <trkpt lat="48.44949" lon="2.75654">
        <ele>112</ele>
        <time>2017-05-17T10:34:41.753</time>
      </trkpt>
      <trkpt lat="48.44949" lon="2.75654">
        <ele>112</ele>
        <time>2017-05-17T10:34:42.755</time>
      </trkpt>
      <trkpt lat="48.44949" lon="2.75654">
        <ele>111</ele>
        <time>2017-05-17T10:34:43.755</time>
      </trkpt>
      <trkpt lat="48.44949" lon="2.75654">
        <ele>111</ele>
        <time>2017-05-17T10:34:44.754</time>
      </trkpt>
      <trkpt lat="48.4495" lon="2.75654">
        <ele>111</ele>
        <time>2017-05-17T10:34:45.756</time>
      </trkpt>
      <trkpt lat="48.44949" lon="2.75655">
        <ele>110</ele>
        <time>2017-05-17T10:34:46.755</time>
      </trkpt>
      <trkpt lat="48.44949" lon="2.75655">
        <ele>111</ele>
        <time>2017-05-17T10:34:47.755</time>
      </trkpt>
      <trkpt lat="48.44949" lon="2.75655">
        <ele>111</ele>
        <time>2017-05-17T10:34:48.754</time>
      </trkpt>
      <trkpt lat="48.44949" lon="2.75655">
        <ele>111</ele>
        <time>2017-05-17T10:34:49.754</time>
      </trkpt>
      <trkpt lat="48.44949" lon="2.75655">
        <ele>111</ele>
        <time>2017-05-17T10:34:50.755</time>
      </trkpt>
      <trkpt lat="48.44949" lon="2.75655">
        <ele>111</ele>
        <time>2017-05-17T10:34:51.756</time>
      </trkpt>
      <trkpt lat="48.44949" lon="2.75655">
        <ele>111</ele>
        <time>2017-05-17T10:34:52.754</time>
      </trkpt>
      <trkpt lat="48.44949" lon="2.75655">
        <ele>111</ele>
        <time>2017-05-17T10:34:53.754</time>
      </trkpt>
      <trkpt lat="48.44949" lon="2.75655">
        <ele>111</ele>
        <time>2017-05-17T10:34:54.748</time>
      </trkpt>
      <trkpt lat="48.44949" lon="2.75655">
        <ele>111</ele>
        <time>2017-05-17T10:34:55.748</time>
      </trkpt>
      <trkpt lat="48.44949" lon="2.75655">
        <ele>111</ele>
        <time>2017-05-17T10:34:56.747</time>
      </trkpt>
      <trkpt lat="48.44949" lon="2.75655">
        <ele>111</ele>
        <time>2017-05-17T10:34:57.748</time>
      </trkpt>
      <trkpt lat="48.44949" lon="2.75655">
        <ele>111</ele>
        <time>2017-05-17T10:34:58.749</time>
      </trkpt>
      <trkpt lat="48.44949" lon="2.75655">
        <ele>111</ele>
        <time>2017-05-17T10:34:59.749</time>
      </trkpt>
      <trkpt lat="48.44949" lon="2.75655">
        <ele>111</ele>
        <time>2017-05-17T10:35:00.749</time>
      </trkpt>
      <trkpt lat="48.44949" lon="2.75655">
        <ele>111</ele>
        <time>2017-05-17T10:35:01.752</time>
      </trkpt>
      <trkpt lat="48.44949" lon="2.75655">
        <ele>111</ele>
        <time>2017-05-17T10:35:02.751</time>
      </trkpt>
      <trkpt lat="48.44949" lon="2.75655">
        <ele>111</ele>
        <time>2017-05-17T10:35:03.750</time>
      </trkpt>
      <trkpt lat="48.44949" lon="2.75655">
        <ele>111</ele>
        <time>2017-05-17T10:35:04.753</time>
      </trkpt>
      <trkpt lat="48.44949" lon="2.75655">
        <ele>111</ele>
        <time>2017-05-17T10:35:05.749</time>
      </trkpt>
      <trkpt lat="48.44949" lon="2.75655">
        <ele>111</ele>
        <time>2017-05-17T10:35:06.816</time>
      </trkpt>
      <trkpt lat="48.44949" lon="2.75655">
        <ele>111</ele>
        <time>2017-05-17T10:35:07.750</time>
      </trkpt>
      <trkpt lat="48.44949" lon="2.75655">
        <ele>111</ele>
        <time>2017-05-17T10:35:08.750</time>
      </trkpt>
      <trkpt lat="48.44949" lon="2.75655">
        <ele>111</ele>
        <time>2017-05-17T10:35:09.750</time>
      </trkpt>
      <trkpt lat="48.44949" lon="2.75655">
        <ele>111</ele>
        <time>2017-05-17T10:35:10.751</time>
      </trkpt>
      <trkpt lat="48.44949" lon="2.75655">
        <ele>111</ele>
        <time>2017-05-17T10:35:11.750</time>
      </trkpt>
      <trkpt lat="48.44949" lon="2.75655">
        <ele>111</ele>
        <time>2017-05-17T10:35:12.751</time>
      </trkpt>
      <trkpt lat="48.44949" lon="2.75655">
        <ele>111</ele>
        <time>2017-05-17T10:35:13.761</time>
      </trkpt>
      <trkpt lat="48.44949" lon="2.75655">
        <ele>111</ele>
        <time>2017-05-17T10:35:14.749</time>
      </trkpt>
      <trkpt lat="48.44949" lon="2.75655">
        <ele>111</ele>
        <time>2017-05-17T10:35:15.761</time>
      </trkpt>
      <trkpt lat="48.44949" lon="2.75655">
        <ele>111</ele>
        <time>2017-05-17T10:35:16.749</time>
      </trkpt>
      <trkpt lat="48.44949" lon="2.75655">
        <ele>111</ele>
        <time>2017-05-17T10:35:17.749</time>
      </trkpt>
      <trkpt lat="48.44949" lon="2.75655">
        <ele>111</ele>
        <time>2017-05-17T10:35:18.749</time>
      </trkpt>
      <trkpt lat="48.44949" lon="2.75655">
        <ele>111</ele>
        <time>2017-05-17T10:35:19.750</time>
      </trkpt>
      <trkpt lat="48.44949" lon="2.75655">
        <ele>111</ele>
        <time>2017-05-17T10:35:20.749</time>
      </trkpt>
      <trkpt lat="48.44949" lon="2.75655">
        <ele>111</ele>
        <time>2017-05-17T10:35:21.759</time>
      </trkpt>
      <trkpt lat="48.44949" lon="2.75655">
        <ele>111</ele>
        <time>2017-05-17T10:35:22.748</time>
      </trkpt>
      <trkpt lat="48.44949" lon="2.75655">
        <ele>111</ele>
        <time>2017-05-17T10:35:23.757</time>
      </trkpt>
      <trkpt lat="48.44949" lon="2.75655">
        <ele>111</ele>
        <time>2017-05-17T10:35:24.757</time>
      </trkpt>
      <trkpt lat="48.44949" lon="2.75655">
        <ele>111</ele>
        <time>2017-05-17T10:35:25.756</time>
      </trkpt>
      <trkpt lat="48.4495" lon="2.75655">
        <ele>111</ele>
        <time>2017-05-17T10:35:26.755</time>
      </trkpt>
      <trkpt lat="48.4495" lon="2.75655">
        <ele>111</ele>
        <time>2017-05-17T10:35:27.755</time>
      </trkpt>
      <trkpt lat="48.4495" lon="2.75655">
        <ele>111</ele>
        <time>2017-05-17T10:35:28.756</time>
      </trkpt>
      <trkpt lat="48.4495" lon="2.75655">
        <ele>111</ele>
        <time>2017-05-17T10:35:29.756</time>
      </trkpt>
      <trkpt lat="48.4495" lon="2.75655">
        <ele>111</ele>
        <time>2017-05-17T10:35:30.758</time>
      </trkpt>
      <trkpt lat="48.4495" lon="2.75655">
        <ele>111</ele>
        <time>2017-05-17T10:35:31.757</time>
      </trkpt>
      <trkpt lat="48.4495" lon="2.75655">
        <ele>111</ele>
        <time>2017-05-17T10:35:32.755</time>
      </trkpt>
      <trkpt lat="48.4495" lon="2.75655">
        <ele>111</ele>
        <time>2017-05-17T10:35:33.755</time>
      </trkpt>
      <trkpt lat="48.4495" lon="2.75655">
        <ele>111</ele>
        <time>2017-05-17T10:35:34.755</time>
      </trkpt>
      <trkpt lat="48.4495" lon="2.75655">
        <ele>111</ele>
        <time>2017-05-17T10:35:35.759</time>
      </trkpt>
      <trkpt lat="48.4495" lon="2.75655">
        <ele>111</ele>
        <time>2017-05-17T10:35:36.757</time>
      </trkpt>
      <trkpt lat="48.44949" lon="2.75655">
        <ele>111</ele>
        <time>2017-05-17T10:35:37.755</time>
      </trkpt>
      <trkpt lat="48.44949" lon="2.75655">
        <ele>111</ele>
        <time>2017-05-17T10:35:38.756</time>
      </trkpt>
      <trkpt lat="48.44949" lon="2.75655">
        <ele>111</ele>
        <time>2017-05-17T10:35:39.756</time>
      </trkpt>
      <trkpt lat="48.44949" lon="2.75655">
        <ele>111</ele>
        <time>2017-05-17T10:35:40.756</time>
      </trkpt>
      <trkpt lat="48.44949" lon="2.75655">
        <ele>111</ele>
        <time>2017-05-17T10:35:41.757</time>
      </trkpt>
      <trkpt lat="48.44949" lon="2.75655">
        <ele>111</ele>
        <time>2017-05-17T10:35:42.755</time>
      </trkpt>
      <trkpt lat="48.44949" lon="2.75655">
        <ele>111</ele>
        <time>2017-05-17T10:35:43.756</time>
      </trkpt>
      <trkpt lat="48.44949" lon="2.75655">
        <ele>111</ele>
        <time>2017-05-17T10:35:44.754</time>
      </trkpt>
      <trkpt lat="48.44949" lon="2.75655">
        <ele>111</ele>
        <time>2017-05-17T10:35:45.758</time>
      </trkpt>
      <trkpt lat="48.44949" lon="2.75655">
        <ele>111</ele>
        <time>2017-05-17T10:35:46.754</time>
      </trkpt>
      <trkpt lat="48.44949" lon="2.75655">
        <ele>111</ele>
        <time>2017-05-17T10:35:47.754</time>
      </trkpt>
      <trkpt lat="48.44949" lon="2.75655">
        <ele>111</ele>
        <time>2017-05-17T10:35:48.755</time>
      </trkpt>
      <trkpt lat="48.44949" lon="2.75655">
        <ele>111</ele>
        <time>2017-05-17T10:35:49.754</time>
      </trkpt>
      <trkpt lat="48.44949" lon="2.75655">
        <ele>111</ele>
        <time>2017-05-17T10:35:50.756</time>
      </trkpt>
      <trkpt lat="48.44949" lon="2.75655">
        <ele>111</ele>
        <time>2017-05-17T10:35:51.755</time>
      </trkpt>
      <trkpt lat="48.44949" lon="2.75655">
        <ele>111</ele>
        <time>2017-05-17T10:35:52.756</time>
      </trkpt>
      <trkpt lat="48.44949" lon="2.75655">
        <ele>111</ele>
        <time>2017-05-17T10:35:53.760</time>
      </trkpt>
      <trkpt lat="48.44949" lon="2.75655">
        <ele>111</ele>
        <time>2017-05-17T10:35:54.795</time>
      </trkpt>
      <trkpt lat="48.44949" lon="2.75655">
        <ele>111</ele>
        <time>2017-05-17T10:35:55.760</time>
      </trkpt>
      <trkpt lat="48.44949" lon="2.75655">
        <ele>111</ele>
        <time>2017-05-17T10:35:56.754</time>
      </trkpt>
      <trkpt lat="48.44949" lon="2.75655">
        <ele>111</ele>
        <time>2017-05-17T10:35:57.755</time>
      </trkpt>
      <trkpt lat="48.44949" lon="2.75655">
        <ele>111</ele>
        <time>2017-05-17T10:35:58.757</time>
      </trkpt>
      <trkpt lat="48.44949" lon="2.75655">
        <ele>111</ele>
        <time>2017-05-17T10:35:59.755</time>
      </trkpt>
      <trkpt lat="48.44949" lon="2.75655">
        <ele>111</ele>
        <time>2017-05-17T10:36:00.757</time>
      </trkpt>
      <trkpt lat="48.44949" lon="2.75655">
        <ele>111</ele>
        <time>2017-05-17T10:36:01.754</time>
      </trkpt>
      <trkpt lat="48.44949" lon="2.75655">
        <ele>111</ele>
        <time>2017-05-17T10:36:02.754</time>
      </trkpt>
      <trkpt lat="48.44949" lon="2.75655">
        <ele>111</ele>
        <time>2017-05-17T10:36:03.755</time>
      </trkpt>
      <trkpt lat="48.44949" lon="2.75655">
        <ele>111</ele>
        <time>2017-05-17T10:36:04.755</time>
      </trkpt>
      <trkpt lat="48.44949" lon="2.75655">
        <ele>111</ele>
        <time>2017-05-17T10:36:05.757</time>
      </trkpt>
      <trkpt lat="48.44949" lon="2.75655">
        <ele>111</ele>
        <time>2017-05-17T10:36:06.756</time>
      </trkpt>
      <trkpt lat="48.44949" lon="2.75655">
        <ele>111</ele>
        <time>2017-05-17T10:36:07.754</time>
      </trkpt>
      <trkpt lat="48.44949" lon="2.75655">
        <ele>111</ele>
        <time>2017-05-17T10:36:08.755</time>
      </trkpt>
      <trkpt lat="48.44949" lon="2.75655">
        <ele>111</ele>
        <time>2017-05-17T10:36:09.755</time>
      </trkpt>
      <trkpt lat="48.44949" lon="2.75655">
        <ele>111</ele>
        <time>2017-05-17T10:36:10.757</time>
      </trkpt>
      <trkpt lat="48.44949" lon="2.75655">
        <ele>111</ele>
        <time>2017-05-17T10:36:11.756</time>
      </trkpt>
      <trkpt lat="48.44949" lon="2.75655">
        <ele>111</ele>
        <time>2017-05-17T10:36:12.755</time>
      </trkpt>
      <trkpt lat="48.44949" lon="2.75655">
        <ele>111</ele>
        <time>2017-05-17T10:36:13.755</time>
      </trkpt>
      <trkpt lat="48.44949" lon="2.75655">
        <ele>111</ele>
        <time>2017-05-17T10:36:14.754</time>
      </trkpt>
      <trkpt lat="48.44949" lon="2.75655">
        <ele>111</ele>
        <time>2017-05-17T10:36:15.756</time>
      </trkpt>
      <trkpt lat="48.44949" lon="2.75655">
        <ele>111</ele>
        <time>2017-05-17T10:36:16.758</time>
      </trkpt>
      <trkpt lat="48.44949" lon="2.75655">
        <ele>111</ele>
        <time>2017-05-17T10:36:17.755</time>
      </trkpt>
      <trkpt lat="48.44949" lon="2.75655">
        <ele>111</ele>
        <time>2017-05-17T10:36:18.755</time>
      </trkpt>
      <trkpt lat="48.44949" lon="2.75655">
        <ele>111</ele>
        <time>2017-05-17T10:36:19.754</time>
      </trkpt>
      <trkpt lat="48.44949" lon="2.75655">
        <ele>111</ele>
        <time>2017-05-17T10:36:20.757</time>
      </trkpt>
      <trkpt lat="48.44949" lon="2.75655">
        <ele>111</ele>
        <time>2017-05-17T10:36:21.754</time>
      </trkpt>
      <trkpt lat="48.44949" lon="2.75655">
        <ele>111</ele>
        <time>2017-05-17T10:36:22.754</time>
      </trkpt>
      <trkpt lat="48.44949" lon="2.75655">
        <ele>111</ele>
        <time>2017-05-17T10:36:23.753</time>
      </trkpt>
      <trkpt lat="48.44949" lon="2.75655">
        <ele>111</ele>
        <time>2017-05-17T10:36:24.755</time>
      </trkpt>
      <trkpt lat="48.44949" lon="2.75655">
        <ele>111</ele>
        <time>2017-05-17T10:36:25.757</time>
      </trkpt>
      <trkpt lat="48.44949" lon="2.75655">
        <ele>111</ele>
        <time>2017-05-17T10:36:26.754</time>
      </trkpt>
      <trkpt lat="48.44949" lon="2.75655">
        <ele>111</ele>
        <time>2017-05-17T10:36:27.754</time>
      </trkpt>
      <trkpt lat="48.44949" lon="2.75655">
        <ele>111</ele>
        <time>2017-05-17T10:36:28.754</time>
      </trkpt>
      <trkpt lat="48.44949" lon="2.75655">
        <ele>111</ele>
        <time>2017-05-17T10:36:29.752</time>
      </trkpt>
      <trkpt lat="48.44949" lon="2.75655">
        <ele>111</ele>
        <time>2017-05-17T10:36:30.757</time>
      </trkpt>
      <trkpt lat="48.44949" lon="2.75655">
        <ele>111</ele>
        <time>2017-05-17T10:36:31.756</time>
      </trkpt>
      <trkpt lat="48.44949" lon="2.75655">
        <ele>111</ele>
        <time>2017-05-17T10:36:32.759</time>
      </trkpt>
      <trkpt lat="48.44949" lon="2.75655">
        <ele>111</ele>
        <time>2017-05-17T10:36:33.760</time>
      </trkpt>
      <trkpt lat="48.44949" lon="2.75655">
        <ele>111</ele>
        <time>2017-05-17T10:36:34.758</time>
      </trkpt>
      <trkpt lat="48.44949" lon="2.75655">
        <ele>111</ele>
        <time>2017-05-17T10:36:35.760</time>
      </trkpt>
      <trkpt lat="48.44951" lon="2.75656">
        <ele>112</ele>
        <time>2017-05-17T10:36:36.758</time>
      </trkpt>
      <trkpt lat="48.44951" lon="2.75656">
        <ele>112</ele>
        <time>2017-05-17T10:36:37.756</time>
      </trkpt>
      <trkpt lat="48.4495" lon="2.75655">
        <ele>112</ele>
        <time>2017-05-17T10:36:38.757</time>
      </trkpt>
      <trkpt lat="48.4495" lon="2.75655">
        <ele>112</ele>
        <time>2017-05-17T10:36:39.759</time>
      </trkpt>
      <trkpt lat="48.4495" lon="2.75655">
        <ele>112</ele>
        <time>2017-05-17T10:36:40.760</time>
      </trkpt>
      <trkpt lat="48.4495" lon="2.75655">
        <ele>112</ele>
        <time>2017-05-17T10:36:41.759</time>
      </trkpt>
      <trkpt lat="48.44949" lon="2.75655">
        <ele>112</ele>
        <time>2017-05-17T10:36:42.756</time>
      </trkpt>
      <trkpt lat="48.44949" lon="2.75654">
        <ele>113</ele>
        <time>2017-05-17T10:36:43.948</time>
      </trkpt>
      <trkpt lat="48.44949" lon="2.75654">
        <ele>113</ele>
        <time>2017-05-17T10:36:44.748</time>
      </trkpt>
      <trkpt lat="48.44949" lon="2.75654">
        <ele>113</ele>
        <time>2017-05-17T10:36:45.748</time>
      </trkpt>
      <trkpt lat="48.44949" lon="2.75653">
        <ele>112</ele>
        <time>2017-05-17T10:36:46.755</time>
      </trkpt>
      <trkpt lat="48.44949" lon="2.75653">
        <ele>114</ele>
        <time>2017-05-17T10:36:47.755</time>
      </trkpt>
      <trkpt lat="48.44949" lon="2.75653">
        <ele>114</ele>
        <time>2017-05-17T10:36:48.757</time>
      </trkpt>
      <trkpt lat="48.44949" lon="2.75653">
        <ele>114</ele>
        <time>2017-05-17T10:36:49.759</time>
      </trkpt>
      <trkpt lat="48.4495" lon="2.75654">
        <ele>113</ele>
        <time>2017-05-17T10:36:50.759</time>
      </trkpt>
      <trkpt lat="48.4495" lon="2.75654">
        <ele>113</ele>
        <time>2017-05-17T10:36:51.751</time>
      </trkpt>
      <trkpt lat="48.4495" lon="2.75654">
        <ele>113</ele>
        <time>2017-05-17T10:36:52.758</time>
      </trkpt>
      <trkpt lat="48.4495" lon="2.75655">
        <ele>113</ele>
        <time>2017-05-17T10:36:53.757</time>
      </trkpt>
      <trkpt lat="48.4495" lon="2.75655">
        <ele>112</ele>
        <time>2017-05-17T10:36:54.757</time>
      </trkpt>
      <trkpt lat="48.44951" lon="2.75657">
        <ele>113</ele>
        <time>2017-05-17T10:36:55.756</time>
      </trkpt>
      <trkpt lat="48.44951" lon="2.75659">
        <ele>112</ele>
        <time>2017-05-17T10:36:56.770</time>
      </trkpt>
      <trkpt lat="48.44951" lon="2.7566">
        <ele>113</ele>
        <time>2017-05-17T10:36:57.757</time>
      </trkpt>
      <trkpt lat="48.44952" lon="2.75661">
        <ele>112</ele>
        <time>2017-05-17T10:36:58.754</time>
      </trkpt>
      <trkpt lat="48.44953" lon="2.75661">
        <ele>113</ele>
        <time>2017-05-17T10:36:59.757</time>
      </trkpt>
      <trkpt lat="48.44952" lon="2.75661">
        <ele>112</ele>
        <time>2017-05-17T10:37:00.757</time>
      </trkpt>
      <trkpt lat="48.44952" lon="2.75661">
        <ele>112</ele>
        <time>2017-05-17T10:37:01.755</time>
      </trkpt>
      <trkpt lat="48.44952" lon="2.7566">
        <ele>113</ele>
        <time>2017-05-17T10:37:02.754</time>
      </trkpt>
      <trkpt lat="48.44952" lon="2.75661">
        <ele>113</ele>
        <time>2017-05-17T10:37:03.754</time>
      </trkpt>
      <trkpt lat="48.44952" lon="2.75661">
        <ele>113</ele>
        <time>2017-05-17T10:37:04.754</time>
      </trkpt>
      <trkpt lat="48.44952" lon="2.75661">
        <ele>113</ele>
        <time>2017-05-17T10:37:05.755</time>
      </trkpt>
      <trkpt lat="48.44952" lon="2.75661">
        <ele>113</ele>
        <time>2017-05-17T10:37:06.754</time>
      </trkpt>
      <trkpt lat="48.44952" lon="2.75661">
        <ele>113</ele>
        <time>2017-05-17T10:37:07.753</time>
      </trkpt>
      <trkpt lat="48.44951" lon="2.75661">
        <ele>113</ele>
        <time>2017-05-17T10:37:08.755</time>
      </trkpt>
      <trkpt lat="48.44951" lon="2.75661">
        <ele>113</ele>
        <time>2017-05-17T10:37:09.754</time>
      </trkpt>
      <trkpt lat="48.44951" lon="2.75661">
        <ele>113</ele>
        <time>2017-05-17T10:37:10.754</time>
      </trkpt>
      <trkpt lat="48.44951" lon="2.75661">
        <ele>114</ele>
        <time>2017-05-17T10:37:11.756</time>
      </trkpt>
      <trkpt lat="48.44951" lon="2.75661">
        <ele>114</ele>
        <time>2017-05-17T10:37:12.755</time>
      </trkpt>
      <trkpt lat="48.44951" lon="2.75661">
        <ele>114</ele>
        <time>2017-05-17T10:37:13.754</time>
      </trkpt>
      <trkpt lat="48.44952" lon="2.75662">
        <ele>114</ele>
        <time>2017-05-17T10:37:14.754</time>
      </trkpt>
      <trkpt lat="48.44952" lon="2.75662">
        <ele>113</ele>
        <time>2017-05-17T10:37:15.758</time>
      </trkpt>
      <trkpt lat="48.44952" lon="2.75662">
        <ele>113</ele>
        <time>2017-05-17T10:37:16.758</time>
      </trkpt>
      <trkpt lat="48.44952" lon="2.75662">
        <ele>113</ele>
        <time>2017-05-17T10:37:17.757</time>
      </trkpt>
      <trkpt lat="48.44951" lon="2.75662">
        <ele>112</ele>
        <time>2017-05-17T10:37:18.755</time>
      </trkpt>
      <trkpt lat="48.44951" lon="2.75662">
        <ele>112</ele>
        <time>2017-05-17T10:37:19.758</time>
      </trkpt>
      <trkpt lat="48.44951" lon="2.75663">
        <ele>112</ele>
        <time>2017-05-17T10:37:20.758</time>
      </trkpt>
      <trkpt lat="48.44951" lon="2.75663">
        <ele>111</ele>
        <time>2017-05-17T10:37:21.758</time>
      </trkpt>
      <trkpt lat="48.44952" lon="2.75663">
        <ele>110</ele>
        <time>2017-05-17T10:37:22.762</time>
      </trkpt>
      <trkpt lat="48.44953" lon="2.75664">
        <ele>108</ele>
        <time>2017-05-17T10:37:23.760</time>
      </trkpt>
      <trkpt lat="48.44955" lon="2.75663">
        <ele>109</ele>
        <time>2017-05-17T10:37:24.758</time>
      </trkpt>
      <trkpt lat="48.44957" lon="2.75662">
        <ele>108</ele>
        <time>2017-05-17T10:37:25.759</time>
      </trkpt>
      <trkpt lat="48.44957" lon="2.75662">
        <ele>108</ele>
        <time>2017-05-17T10:37:26.757</time>
      </trkpt>
      <trkpt lat="48.44955" lon="2.75661">
        <ele>107</ele>
        <time>2017-05-17T10:37:27.759</time>
      </trkpt>
      <trkpt lat="48.44954" lon="2.75661">
        <ele>106</ele>
        <time>2017-05-17T10:37:28.759</time>
      </trkpt>
      <trkpt lat="48.44953" lon="2.75662">
        <ele>107</ele>
        <time>2017-05-17T10:37:29.757</time>
      </trkpt>
      <trkpt lat="48.44953" lon="2.75662">
        <ele>106</ele>
        <time>2017-05-17T10:37:30.758</time>
      </trkpt>
      <trkpt lat="48.44953" lon="2.75663">
        <ele>106</ele>
        <time>2017-05-17T10:37:31.752</time>
      </trkpt>
      <trkpt lat="48.44954" lon="2.75663">
        <ele>106</ele>
        <time>2017-05-17T10:37:32.755</time>
      </trkpt>
      <trkpt lat="48.44954" lon="2.75663">
        <ele>106</ele>
        <time>2017-05-17T10:37:33.756</time>
      </trkpt>
      <trkpt lat="48.44954" lon="2.75663">
        <ele>106</ele>
        <time>2017-05-17T10:37:34.758</time>
      </trkpt>
      <trkpt lat="48.44953" lon="2.75662">
        <ele>106</ele>
        <time>2017-05-17T10:37:35.759</time>
      </trkpt>
      <trkpt lat="48.44954" lon="2.75662">
        <ele>106</ele>
        <time>2017-05-17T10:37:36.757</time>
      </trkpt>
      <trkpt lat="48.44954" lon="2.75662">
        <ele>106</ele>
        <time>2017-05-17T10:37:37.755</time>
      </trkpt>
      <trkpt lat="48.44954" lon="2.75662">
        <ele>106</ele>
        <time>2017-05-17T10:37:38.758</time>
      </trkpt>
      <trkpt lat="48.44953" lon="2.75662">
        <ele>106</ele>
        <time>2017-05-17T10:37:39.756</time>
      </trkpt>
      <trkpt lat="48.44953" lon="2.75661">
        <ele>106</ele>
        <time>2017-05-17T10:37:40.754</time>
      </trkpt>
      <trkpt lat="48.44953" lon="2.75661">
        <ele>106</ele>
        <time>2017-05-17T10:37:41.748</time>
      </trkpt>
      <trkpt lat="48.44953" lon="2.75662">
        <ele>106</ele>
        <time>2017-05-17T10:37:42.748</time>
      </trkpt>
      <trkpt lat="48.44953" lon="2.75662">
        <ele>106</ele>
        <time>2017-05-17T10:37:43.749</time>
      </trkpt>
      <trkpt lat="48.44953" lon="2.75662">
        <ele>106</ele>
        <time>2017-05-17T10:37:44.748</time>
      </trkpt>
      <trkpt lat="48.44953" lon="2.75662">
        <ele>106</ele>
        <time>2017-05-17T10:37:46.876</time>
      </trkpt>
      <trkpt lat="48.44953" lon="2.75661">
        <ele>106</ele>
        <time>2017-05-17T10:37:47.750</time>
      </trkpt>
      <trkpt lat="48.44953" lon="2.75662">
        <ele>106</ele>
        <time>2017-05-17T10:37:48.761</time>
      </trkpt>
      <trkpt lat="48.44953" lon="2.75661">
        <ele>106</ele>
        <time>2017-05-17T10:37:49.754</time>
      </trkpt>
      <trkpt lat="48.44953" lon="2.75661">
        <ele>106</ele>
        <time>2017-05-17T10:37:50.751</time>
      </trkpt>
      <trkpt lat="48.44953" lon="2.75661">
        <ele>106</ele>
        <time>2017-05-17T10:37:51.749</time>
      </trkpt>
      <trkpt lat="48.44953" lon="2.75661">
        <ele>106</ele>
        <time>2017-05-17T10:37:52.750</time>
      </trkpt>
      <trkpt lat="48.44953" lon="2.75661">
        <ele>106</ele>
        <time>2017-05-17T10:37:53.750</time>
      </trkpt>
      <trkpt lat="48.44953" lon="2.75662">
        <ele>106</ele>
        <time>2017-05-17T10:37:54.751</time>
      </trkpt>
      <trkpt lat="48.44952" lon="2.75662">
        <ele>106</ele>
        <time>2017-05-17T10:37:55.752</time>
      </trkpt>
      <trkpt lat="48.44952" lon="2.75661">
        <ele>106</ele>
        <time>2017-05-17T10:37:56.753</time>
      </trkpt>
      <trkpt lat="48.44952" lon="2.75661">
        <ele>105</ele>
        <time>2017-05-17T10:37:57.750</time>
      </trkpt>
      <trkpt lat="48.44952" lon="2.75662">
        <ele>104</ele>
        <time>2017-05-17T10:37:58.751</time>
      </trkpt>
      <trkpt lat="48.44953" lon="2.75661">
        <ele>105</ele>
        <time>2017-05-17T10:37:59.751</time>
      </trkpt>
      <trkpt lat="48.44953" lon="2.75661">
        <ele>105</ele>
        <time>2017-05-17T10:38:00.750</time>
      </trkpt>
      <trkpt lat="48.44953" lon="2.75661">
        <ele>106</ele>
        <time>2017-05-17T10:38:01.751</time>
      </trkpt>
      <trkpt lat="48.44953" lon="2.75661">
        <ele>106</ele>
        <time>2017-05-17T10:38:02.751</time>
      </trkpt>
      <trkpt lat="48.44953" lon="2.75661">
        <ele>106</ele>
        <time>2017-05-17T10:38:03.750</time>
      </trkpt>
      <trkpt lat="48.44952" lon="2.75661">
        <ele>106</ele>
        <time>2017-05-17T10:38:04.750</time>
      </trkpt>
      <trkpt lat="48.44952" lon="2.75661">
        <ele>105</ele>
        <time>2017-05-17T10:38:05.751</time>
      </trkpt>
      <trkpt lat="48.44952" lon="2.75661">
        <ele>105</ele>
        <time>2017-05-17T10:38:06.752</time>
      </trkpt>
      <trkpt lat="48.44952" lon="2.75661">
        <ele>105</ele>
        <time>2017-05-17T10:38:07.767</time>
      </trkpt>
      <trkpt lat="48.44952" lon="2.75661">
        <ele>105</ele>
        <time>2017-05-17T10:38:08.750</time>
      </trkpt>
      <trkpt lat="48.44952" lon="2.75661">
        <ele>105</ele>
        <time>2017-05-17T10:38:09.750</time>
      </trkpt>
      <trkpt lat="48.44952" lon="2.75661">
        <ele>105</ele>
        <time>2017-05-17T10:38:10.750</time>
      </trkpt>
      <trkpt lat="48.44952" lon="2.75661">
        <ele>105</ele>
        <time>2017-05-17T10:38:11.752</time>
      </trkpt>
      <trkpt lat="48.44952" lon="2.75661">
        <ele>105</ele>
        <time>2017-05-17T10:38:12.750</time>
      </trkpt>
      <trkpt lat="48.44952" lon="2.75661">
        <ele>105</ele>
        <time>2017-05-17T10:38:13.751</time>
      </trkpt>
      <trkpt lat="48.44952" lon="2.75661">
        <ele>105</ele>
        <time>2017-05-17T10:38:14.750</time>
      </trkpt>
      <trkpt lat="48.44952" lon="2.75661">
        <ele>105</ele>
        <time>2017-05-17T10:38:15.751</time>
      </trkpt>
      <trkpt lat="48.44952" lon="2.75661">
        <ele>105</ele>
        <time>2017-05-17T10:38:16.751</time>
      </trkpt>
      <trkpt lat="48.44952" lon="2.75661">
        <ele>105</ele>
        <time>2017-05-17T10:38:17.751</time>
      </trkpt>
      <trkpt lat="48.44952" lon="2.75661">
        <ele>105</ele>
        <time>2017-05-17T10:38:18.750</time>
      </trkpt>
      <trkpt lat="48.44952" lon="2.75661">
        <ele>105</ele>
        <time>2017-05-17T10:38:19.750</time>
      </trkpt>
      <trkpt lat="48.44952" lon="2.75661">
        <ele>104</ele>
        <time>2017-05-17T10:38:20.752</time>
      </trkpt>
      <trkpt lat="48.44952" lon="2.7566">
        <ele>105</ele>
        <time>2017-05-17T10:38:21.752</time>
      </trkpt>
      <trkpt lat="48.44952" lon="2.75661">
        <ele>106</ele>
        <time>2017-05-17T10:38:22.749</time>
      </trkpt>
      <trkpt lat="48.44951" lon="2.75661">
        <ele>106</ele>
        <time>2017-05-17T10:38:23.751</time>
      </trkpt>
      <trkpt lat="48.44951" lon="2.75661">
        <ele>106</ele>
        <time>2017-05-17T10:38:24.751</time>
      </trkpt>
      <trkpt lat="48.44951" lon="2.7566">
        <ele>107</ele>
        <time>2017-05-17T10:38:25.751</time>
      </trkpt>
      <trkpt lat="48.44951" lon="2.7566">
        <ele>107</ele>
        <time>2017-05-17T10:38:26.752</time>
      </trkpt>
      <trkpt lat="48.44951" lon="2.7566">
        <ele>107</ele>
        <time>2017-05-17T10:38:27.751</time>
      </trkpt>
      <trkpt lat="48.44951" lon="2.7566">
        <ele>107</ele>
        <time>2017-05-17T10:38:28.751</time>
      </trkpt>
      <trkpt lat="48.44951" lon="2.75661">
        <ele>106</ele>
        <time>2017-05-17T10:38:29.750</time>
      </trkpt>
      <trkpt lat="48.44951" lon="2.75661">
        <ele>106</ele>
        <time>2017-05-17T10:38:30.752</time>
      </trkpt>
      <trkpt lat="48.44951" lon="2.75661">
        <ele>106</ele>
        <time>2017-05-17T10:38:31.751</time>
      </trkpt>
      <trkpt lat="48.44951" lon="2.7566">
        <ele>106</ele>
        <time>2017-05-17T10:38:32.751</time>
      </trkpt>
      <trkpt lat="48.44951" lon="2.7566">
        <ele>106</ele>
        <time>2017-05-17T10:38:33.750</time>
      </trkpt>
      <trkpt lat="48.4495" lon="2.75661">
        <ele>106</ele>
        <time>2017-05-17T10:38:34.751</time>
      </trkpt>
      <trkpt lat="48.4495" lon="2.75661">
        <ele>105</ele>
        <time>2017-05-17T10:38:35.752</time>
      </trkpt>
      <trkpt lat="48.4495" lon="2.75662">
        <ele>105</ele>
        <time>2017-05-17T10:38:36.751</time>
      </trkpt>
      <trkpt lat="48.4495" lon="2.75662">
        <ele>106</ele>
        <time>2017-05-17T10:38:37.751</time>
      </trkpt>
      <trkpt lat="48.4495" lon="2.75663">
        <ele>106</ele>
        <time>2017-05-17T10:38:38.750</time>
      </trkpt>
      <trkpt lat="48.4495" lon="2.75663">
        <ele>106</ele>
        <time>2017-05-17T10:38:39.752</time>
      </trkpt>
      <trkpt lat="48.4495" lon="2.75663">
        <ele>106</ele>
        <time>2017-05-17T10:38:40.750</time>
      </trkpt>
      <trkpt lat="48.4495" lon="2.75663">
        <ele>106</ele>
        <time>2017-05-17T10:38:41.753</time>
      </trkpt>
      <trkpt lat="48.4495" lon="2.75663">
        <ele>106</ele>
        <time>2017-05-17T10:38:42.751</time>
      </trkpt>
      <trkpt lat="48.4495" lon="2.75663">
        <ele>106</ele>
        <time>2017-05-17T10:38:43.751</time>
      </trkpt>
      <trkpt lat="48.4495" lon="2.75663">
        <ele>106</ele>
        <time>2017-05-17T10:38:44.751</time>
      </trkpt>
      <trkpt lat="48.4495" lon="2.75663">
        <ele>106</ele>
        <time>2017-05-17T10:38:45.751</time>
      </trkpt>
      <trkpt lat="48.4495" lon="2.75663">
        <ele>106</ele>
        <time>2017-05-17T10:38:46.752</time>
      </trkpt>
      <trkpt lat="48.4495" lon="2.75663">
        <ele>107</ele>
        <time>2017-05-17T10:38:47.751</time>
      </trkpt>
      <trkpt lat="48.4495" lon="2.75663">
        <ele>106</ele>
        <time>2017-05-17T10:38:48.751</time>
      </trkpt>
      <trkpt lat="48.4495" lon="2.75663">
        <ele>106</ele>
        <time>2017-05-17T10:38:49.750</time>
      </trkpt>
      <trkpt lat="48.4495" lon="2.75662">
        <ele>105</ele>
        <time>2017-05-17T10:38:50.750</time>
      </trkpt>
      <trkpt lat="48.4495" lon="2.75663">
        <ele>105</ele>
        <time>2017-05-17T10:38:51.751</time>
      </trkpt>
      <trkpt lat="48.4495" lon="2.75663">
        <ele>104</ele>
        <time>2017-05-17T10:38:52.750</time>
      </trkpt>
      <trkpt lat="48.4495" lon="2.75663">
        <ele>104</ele>
        <time>2017-05-17T10:38:53.751</time>
      </trkpt>
      <trkpt lat="48.4495" lon="2.75663">
        <ele>104</ele>
        <time>2017-05-17T10:38:54.750</time>
      </trkpt>
      <trkpt lat="48.4495" lon="2.75663">
        <ele>104</ele>
        <time>2017-05-17T10:38:55.749</time>
      </trkpt>
      <trkpt lat="48.4495" lon="2.75663">
        <ele>105</ele>
        <time>2017-05-17T10:38:56.750</time>
      </trkpt>
      <trkpt lat="48.4495" lon="2.75663">
        <ele>105</ele>
        <time>2017-05-17T10:38:57.748</time>
      </trkpt>
      <trkpt lat="48.4495" lon="2.75663">
        <ele>105</ele>
        <time>2017-05-17T10:38:58.750</time>
      </trkpt>
      <trkpt lat="48.4495" lon="2.75663">
        <ele>105</ele>
        <time>2017-05-17T10:38:59.751</time>
      </trkpt>
      <trkpt lat="48.4495" lon="2.75662">
        <ele>105</ele>
        <time>2017-05-17T10:39:00.764</time>
      </trkpt>
      <trkpt lat="48.4495" lon="2.75662">
        <ele>105</ele>
        <time>2017-05-17T10:39:01.753</time>
      </trkpt>
      <trkpt lat="48.4495" lon="2.75662">
        <ele>105</ele>
        <time>2017-05-17T10:39:02.750</time>
      </trkpt>
      <trkpt lat="48.4495" lon="2.75662">
        <ele>105</ele>
        <time>2017-05-17T10:39:03.752</time>
      </trkpt>
      <trkpt lat="48.4495" lon="2.75663">
        <ele>105</ele>
        <time>2017-05-17T10:39:04.751</time>
      </trkpt>
      <trkpt lat="48.44951" lon="2.75663">
        <ele>105</ele>
        <time>2017-05-17T10:39:05.758</time>
      </trkpt>
      <trkpt lat="48.44951" lon="2.75663">
        <ele>105</ele>
        <time>2017-05-17T10:39:06.755</time>
      </trkpt>
      <trkpt lat="48.44951" lon="2.75662">
        <ele>105</ele>
        <time>2017-05-17T10:39:07.824</time>
      </trkpt>
      <trkpt lat="48.44951" lon="2.75662">
        <ele>105</ele>
        <time>2017-05-17T10:39:08.753</time>
      </trkpt>
      <trkpt lat="48.44951" lon="2.75661">
        <ele>105</ele>
        <time>2017-05-17T10:39:09.753</time>
      </trkpt>
      <trkpt lat="48.44951" lon="2.75661">
        <ele>105</ele>
        <time>2017-05-17T10:39:10.750</time>
      </trkpt>
      <trkpt lat="48.4495" lon="2.75661">
        <ele>106</ele>
        <time>2017-05-17T10:39:11.774</time>
      </trkpt>
      <trkpt lat="48.4495" lon="2.75661">
        <ele>106</ele>
        <time>2017-05-17T10:39:12.759</time>
      </trkpt>
      <trkpt lat="48.4495" lon="2.75661">
        <ele>106</ele>
        <time>2017-05-17T10:39:13.753</time>
      </trkpt>
      <trkpt lat="48.4495" lon="2.75661">
        <ele>106</ele>
        <time>2017-05-17T10:39:14.754</time>
      </trkpt>
      <trkpt lat="48.4495" lon="2.75661">
        <ele>106</ele>
        <time>2017-05-17T10:39:15.754</time>
      </trkpt>
      <trkpt lat="48.44951" lon="2.75662">
        <ele>106</ele>
        <time>2017-05-17T10:39:16.753</time>
      </trkpt>
      <trkpt lat="48.44951" lon="2.75662">
        <ele>107</ele>
        <time>2017-05-17T10:39:17.753</time>
      </trkpt>
      <trkpt lat="48.44951" lon="2.75662">
        <ele>107</ele>
        <time>2017-05-17T10:39:18.754</time>
      </trkpt>
      <trkpt lat="48.4495" lon="2.75661">
        <ele>106</ele>
        <time>2017-05-17T10:39:19.751</time>
      </trkpt>
      <trkpt lat="48.44951" lon="2.75661">
        <ele>106</ele>
        <time>2017-05-17T10:39:20.750</time>
      </trkpt>
      <trkpt lat="48.44951" lon="2.7566">
        <ele>105</ele>
        <time>2017-05-17T10:39:21.752</time>
      </trkpt>
      <trkpt lat="48.4495" lon="2.7566">
        <ele>105</ele>
        <time>2017-05-17T10:39:22.752</time>
      </trkpt>
      <trkpt lat="48.4495" lon="2.75659">
        <ele>105</ele>
        <time>2017-05-17T10:39:23.752</time>
      </trkpt>
      <trkpt lat="48.4495" lon="2.75659">
        <ele>105</ele>
        <time>2017-05-17T10:39:24.752</time>
      </trkpt>
      <trkpt lat="48.4495" lon="2.7566">
        <ele>105</ele>
        <time>2017-05-17T10:39:25.753</time>
      </trkpt>
      <trkpt lat="48.4495" lon="2.75659">
        <ele>106</ele>
        <time>2017-05-17T10:39:26.753</time>
      </trkpt>
      <trkpt lat="48.4495" lon="2.75659">
        <ele>106</ele>
        <time>2017-05-17T10:39:27.753</time>
      </trkpt>
      <trkpt lat="48.4495" lon="2.75659">
        <ele>106</ele>
        <time>2017-05-17T10:39:28.752</time>
      </trkpt>
      <trkpt lat="48.4495" lon="2.75659">
        <ele>107</ele>
        <time>2017-05-17T10:39:29.751</time>
      </trkpt>
      <trkpt lat="48.4495" lon="2.75659">
        <ele>107</ele>
        <time>2017-05-17T10:39:30.753</time>
      </trkpt>
      <trkpt lat="48.44951" lon="2.75659">
        <ele>107</ele>
        <time>2017-05-17T10:39:31.751</time>
      </trkpt>
      <trkpt lat="48.44951" lon="2.75659">
        <ele>106</ele>
        <time>2017-05-17T10:39:32.752</time>
      </trkpt>
      <trkpt lat="48.44951" lon="2.75659">
        <ele>105</ele>
        <time>2017-05-17T10:39:33.753</time>
      </trkpt>
      <trkpt lat="48.4495" lon="2.75659">
        <ele>106</ele>
        <time>2017-05-17T10:39:34.752</time>
      </trkpt>
      <trkpt lat="48.4495" lon="2.75659">
        <ele>106</ele>
        <time>2017-05-17T10:39:35.753</time>
      </trkpt>
      <trkpt lat="48.4495" lon="2.75659">
        <ele>107</ele>
        <time>2017-05-17T10:39:36.752</time>
      </trkpt>
      <trkpt lat="48.4495" lon="2.75659">
        <ele>107</ele>
        <time>2017-05-17T10:39:37.750</time>
      </trkpt>
      <trkpt lat="48.4495" lon="2.75659">
        <ele>108</ele>
        <time>2017-05-17T10:39:38.752</time>
      </trkpt>
      <trkpt lat="48.4495" lon="2.75659">
        <ele>108</ele>
        <time>2017-05-17T10:39:39.756</time>
      </trkpt>
      <trkpt lat="48.44949" lon="2.75658">
        <ele>108</ele>
        <time>2017-05-17T10:39:40.755</time>
      </trkpt>
      <trkpt lat="48.44947" lon="2.75656">
        <ele>108</ele>
        <time>2017-05-17T10:39:41.756</time>
      </trkpt>
      <trkpt lat="48.44946" lon="2.75655">
        <ele>108</ele>
        <time>2017-05-17T10:39:42.754</time>
      </trkpt>
      <trkpt lat="48.44946" lon="2.75653">
        <ele>109</ele>
        <time>2017-05-17T10:39:43.755</time>
      </trkpt>
      <trkpt lat="48.44945" lon="2.75652">
        <ele>109</ele>
        <time>2017-05-17T10:39:44.754</time>
      </trkpt>
      <trkpt lat="48.44943" lon="2.75651">
        <ele>109</ele>
        <time>2017-05-17T10:39:45.755</time>
      </trkpt>
      <trkpt lat="48.44942" lon="2.75651">
        <ele>108</ele>
        <time>2017-05-17T10:39:46.755</time>
      </trkpt>
      <trkpt lat="48.4494" lon="2.75649">
        <ele>107</ele>
        <time>2017-05-17T10:39:47.754</time>
      </trkpt>
      <trkpt lat="48.44938" lon="2.75647">
        <ele>106</ele>
        <time>2017-05-17T10:39:48.754</time>
      </trkpt>
      <trkpt lat="48.44937" lon="2.75646">
        <ele>105</ele>
        <time>2017-05-17T10:39:49.755</time>
      </trkpt>
      <trkpt lat="48.44934" lon="2.75643">
        <ele>105</ele>
        <time>2017-05-17T10:39:50.757</time>
      </trkpt>
      <trkpt lat="48.44931" lon="2.7564">
        <ele>105</ele>
        <time>2017-05-17T10:39:51.756</time>
      </trkpt>
      <trkpt lat="48.44929" lon="2.75638">
        <ele>105</ele>
        <time>2017-05-17T10:39:52.755</time>
      </trkpt>
      <trkpt lat="48.44927" lon="2.75635">
        <ele>105</ele>
        <time>2017-05-17T10:39:53.754</time>
      </trkpt>
      <trkpt lat="48.44924" lon="2.75632">
        <ele>105</ele>
        <time>2017-05-17T10:39:54.753</time>
      </trkpt>
      <trkpt lat="48.44921" lon="2.7563">
        <ele>105</ele>
        <time>2017-05-17T10:39:55.752</time>
      </trkpt>
      <trkpt lat="48.44918" lon="2.75627">
        <ele>105</ele>
        <time>2017-05-17T10:39:56.754</time>
      </trkpt>
      <trkpt lat="48.44915" lon="2.75624">
        <ele>105</ele>
        <time>2017-05-17T10:39:57.754</time>
      </trkpt>
      <trkpt lat="48.44912" lon="2.75621">
        <ele>104</ele>
        <time>2017-05-17T10:39:58.753</time>
      </trkpt>
      <trkpt lat="48.44909" lon="2.75617">
        <ele>104</ele>
        <time>2017-05-17T10:39:59.753</time>
      </trkpt>
      <trkpt lat="48.44906" lon="2.75613">
        <ele>104</ele>
        <time>2017-05-17T10:40:00.754</time>
      </trkpt>
      <trkpt lat="48.44903" lon="2.75609">
        <ele>104</ele>
        <time>2017-05-17T10:40:01.755</time>
      </trkpt>
      <trkpt lat="48.449" lon="2.75606">
        <ele>104</ele>
        <time>2017-05-17T10:40:02.756</time>
      </trkpt>
      <trkpt lat="48.44896" lon="2.75602">
        <ele>103</ele>
        <time>2017-05-17T10:40:03.755</time>
      </trkpt>
      <trkpt lat="48.44893" lon="2.75599">
        <ele>104</ele>
        <time>2017-05-17T10:40:04.754</time>
      </trkpt>
      <trkpt lat="48.44891" lon="2.75594">
        <ele>104</ele>
        <time>2017-05-17T10:40:05.756</time>
      </trkpt>
      <trkpt lat="48.44888" lon="2.75589">
        <ele>105</ele>
        <time>2017-05-17T10:40:06.754</time>
      </trkpt>
      <trkpt lat="48.44884" lon="2.75585">
        <ele>104</ele>
        <time>2017-05-17T10:40:07.755</time>
      </trkpt>
      <trkpt lat="48.44881" lon="2.75581">
        <ele>104</ele>
        <time>2017-05-17T10:40:08.753</time>
      </trkpt>
      <trkpt lat="48.44877" lon="2.75578">
        <ele>104</ele>
        <time>2017-05-17T10:40:09.751</time>
      </trkpt>
      <trkpt lat="48.44874" lon="2.75574">
        <ele>104</ele>
        <time>2017-05-17T10:40:10.751</time>
      </trkpt>
      <trkpt lat="48.44871" lon="2.7557">
        <ele>104</ele>
        <time>2017-05-17T10:40:11.751</time>
      </trkpt>
      <trkpt lat="48.44867" lon="2.75565">
        <ele>103</ele>
        <time>2017-05-17T10:40:12.752</time>
      </trkpt>
      <trkpt lat="48.44864" lon="2.7556">
        <ele>104</ele>
        <time>2017-05-17T10:40:13.750</time>
      </trkpt>
      <trkpt lat="48.44861" lon="2.75556">
        <ele>104</ele>
        <time>2017-05-17T10:40:14.750</time>
      </trkpt>
      <trkpt lat="48.44857" lon="2.75551">
        <ele>103</ele>
        <time>2017-05-17T10:40:15.751</time>
      </trkpt>
      <trkpt lat="48.44853" lon="2.75547">
        <ele>103</ele>
        <time>2017-05-17T10:40:16.751</time>
      </trkpt>
      <trkpt lat="48.4485" lon="2.75542">
        <ele>103</ele>
        <time>2017-05-17T10:40:17.750</time>
      </trkpt>
      <trkpt lat="48.44846" lon="2.75537">
        <ele>103</ele>
        <time>2017-05-17T10:40:18.750</time>
      </trkpt>
      <trkpt lat="48.44843" lon="2.75532">
        <ele>103</ele>
        <time>2017-05-17T10:40:19.749</time>
      </trkpt>
      <trkpt lat="48.44839" lon="2.75527">
        <ele>103</ele>
        <time>2017-05-17T10:40:20.751</time>
      </trkpt>
      <trkpt lat="48.44835" lon="2.75521">
        <ele>103</ele>
        <time>2017-05-17T10:40:21.752</time>
      </trkpt>
      <trkpt lat="48.44832" lon="2.75515">
        <ele>103</ele>
        <time>2017-05-17T10:40:22.752</time>
      </trkpt>
      <trkpt lat="48.44828" lon="2.7551">
        <ele>103</ele>
        <time>2017-05-17T10:40:23.751</time>
      </trkpt>
      <trkpt lat="48.44825" lon="2.75504">
        <ele>103</ele>
        <time>2017-05-17T10:40:24.750</time>
      </trkpt>
      <trkpt lat="48.44821" lon="2.75499">
        <ele>104</ele>
        <time>2017-05-17T10:40:25.749</time>
      </trkpt>
      <trkpt lat="48.44818" lon="2.75493">
        <ele>104</ele>
        <time>2017-05-17T10:40:26.751</time>
      </trkpt>
      <trkpt lat="48.44814" lon="2.75487">
        <ele>104</ele>
        <time>2017-05-17T10:40:27.753</time>
      </trkpt>
      <trkpt lat="48.44811" lon="2.75482">
        <ele>103</ele>
        <time>2017-05-17T10:40:28.751</time>
      </trkpt>
      <trkpt lat="48.44808" lon="2.75476">
        <ele>103</ele>
        <time>2017-05-17T10:40:29.751</time>
      </trkpt>
      <trkpt lat="48.44804" lon="2.7547">
        <ele>103</ele>
        <time>2017-05-17T10:40:30.751</time>
      </trkpt>
      <trkpt lat="48.44801" lon="2.75464">
        <ele>103</ele>
        <time>2017-05-17T10:40:31.752</time>
      </trkpt>
      <trkpt lat="48.44798" lon="2.75459">
        <ele>104</ele>
        <time>2017-05-17T10:40:32.760</time>
      </trkpt>
      <trkpt lat="48.44794" lon="2.75453">
        <ele>103</ele>
        <time>2017-05-17T10:40:33.759</time>
      </trkpt>
      <trkpt lat="48.44791" lon="2.75446">
        <ele>104</ele>
        <time>2017-05-17T10:40:34.763</time>
      </trkpt>
      <trkpt lat="48.44787" lon="2.75441">
        <ele>103</ele>
        <time>2017-05-17T10:40:35.760</time>
      </trkpt>
      <trkpt lat="48.44783" lon="2.75434">
        <ele>103</ele>
        <time>2017-05-17T10:40:36.760</time>
      </trkpt>
      <trkpt lat="48.4478" lon="2.75428">
        <ele>103</ele>
        <time>2017-05-17T10:40:37.760</time>
      </trkpt>
      <trkpt lat="48.44777" lon="2.75421">
        <ele>103</ele>
        <time>2017-05-17T10:40:38.770</time>
      </trkpt>
      <trkpt lat="48.44774" lon="2.75415">
        <ele>103</ele>
        <time>2017-05-17T10:40:39.769</time>
      </trkpt>
      <trkpt lat="48.44771" lon="2.75408">
        <ele>102</ele>
        <time>2017-05-17T10:40:40.770</time>
      </trkpt>
      <trkpt lat="48.44768" lon="2.75401">
        <ele>102</ele>
        <time>2017-05-17T10:40:41.752</time>
      </trkpt>
      <trkpt lat="48.44765" lon="2.75394">
        <ele>102</ele>
        <time>2017-05-17T10:40:42.752</time>
      </trkpt>
      <trkpt lat="48.44762" lon="2.75388">
        <ele>102</ele>
        <time>2017-05-17T10:40:43.752</time>
      </trkpt>
      <trkpt lat="48.44758" lon="2.75382">
        <ele>102</ele>
        <time>2017-05-17T10:40:44.753</time>
      </trkpt>
      <trkpt lat="48.44755" lon="2.75375">
        <ele>103</ele>
        <time>2017-05-17T10:40:45.752</time>
      </trkpt>
      <trkpt lat="48.44751" lon="2.75368">
        <ele>103</ele>
        <time>2017-05-17T10:40:46.752</time>
      </trkpt>
      <trkpt lat="48.44747" lon="2.75362">
        <ele>102</ele>
        <time>2017-05-17T10:40:47.754</time>
      </trkpt>
      <trkpt lat="48.44743" lon="2.75353">
        <ele>102</ele>
        <time>2017-05-17T10:40:48.751</time>
      </trkpt>
      <trkpt lat="48.44743" lon="2.75353">
        <ele>102</ele>
        <time>2017-05-17T10:40:49.743</time>
      </trkpt>
      <trkpt lat="48.44735" lon="2.75338">
        <ele>102</ele>
        <time>2017-05-17T10:40:50.920</time>
      </trkpt>
      <trkpt lat="48.44731" lon="2.7533">
        <ele>102</ele>
        <time>2017-05-17T10:40:51.920</time>
      </trkpt>
      <trkpt lat="48.44727" lon="2.75322">
        <ele>102</ele>
        <time>2017-05-17T10:40:52.921</time>
      </trkpt>
      <trkpt lat="48.44723" lon="2.75314">
        <ele>102</ele>
        <time>2017-05-17T10:40:53.921</time>
      </trkpt>
      <trkpt lat="48.44719" lon="2.75306">
        <ele>102</ele>
        <time>2017-05-17T10:40:54.921</time>
      </trkpt>
      <trkpt lat="48.44716" lon="2.75299">
        <ele>102</ele>
        <time>2017-05-17T10:40:55.921</time>
      </trkpt>
      <trkpt lat="48.44718" lon="2.75299">
        <ele>99</ele>
        <time>2017-05-17T10:40:56.930</time>
      </trkpt>
      <trkpt lat="48.44718" lon="2.75294">
        <ele>102</ele>
        <time>2017-05-17T10:40:58.754</time>
      </trkpt>
      <trkpt lat="48.44718" lon="2.75293">
        <ele>102</ele>
        <time>2017-05-17T10:40:59.754</time>
      </trkpt>
      <trkpt lat="48.44717" lon="2.75291">
        <ele>103</ele>
        <time>2017-05-17T10:41:00.754</time>
      </trkpt>
      <trkpt lat="48.44717" lon="2.75288">
        <ele>103</ele>
        <time>2017-05-17T10:41:01.755</time>
      </trkpt>
      <trkpt lat="48.44717" lon="2.75286">
        <ele>103</ele>
        <time>2017-05-17T10:41:02.755</time>
      </trkpt>
      <trkpt lat="48.44715" lon="2.75284">
        <ele>102</ele>
        <time>2017-05-17T10:41:03.754</time>
      </trkpt>
      <trkpt lat="48.44714" lon="2.75283">
        <ele>103</ele>
        <time>2017-05-17T10:41:04.754</time>
      </trkpt>
      <trkpt lat="48.44712" lon="2.75281">
        <ele>102</ele>
        <time>2017-05-17T10:41:05.753</time>
      </trkpt>
      <trkpt lat="48.4471" lon="2.75279">
        <ele>102</ele>
        <time>2017-05-17T10:41:06.756</time>
      </trkpt>
      <trkpt lat="48.44709" lon="2.75278">
        <ele>102</ele>
        <time>2017-05-17T10:41:07.755</time>
      </trkpt>
      <trkpt lat="48.44707" lon="2.75276">
        <ele>103</ele>
        <time>2017-05-17T10:41:08.752</time>
      </trkpt>
      <trkpt lat="48.44706" lon="2.75274">
        <ele>103</ele>
        <time>2017-05-17T10:41:09.752</time>
      </trkpt>
      <trkpt lat="48.44706" lon="2.75272">
        <ele>102</ele>
        <time>2017-05-17T10:41:10.752</time>
      </trkpt>
      <trkpt lat="48.44704" lon="2.7527">
        <ele>103</ele>
        <time>2017-05-17T10:41:11.751</time>
      </trkpt>
      <trkpt lat="48.44703" lon="2.75268">
        <ele>102</ele>
        <time>2017-05-17T10:41:12.754</time>
      </trkpt>
      <trkpt lat="48.44701" lon="2.75264">
        <ele>103</ele>
        <time>2017-05-17T10:41:13.752</time>
      </trkpt>
      <trkpt lat="48.44699" lon="2.7526">
        <ele>102</ele>
        <time>2017-05-17T10:41:14.753</time>
      </trkpt>
      <trkpt lat="48.44698" lon="2.75256">
        <ele>103</ele>
        <time>2017-05-17T10:41:15.753</time>
      </trkpt>
      <trkpt lat="48.44696" lon="2.75251">
        <ele>102</ele>
        <time>2017-05-17T10:41:16.751</time>
      </trkpt>
      <trkpt lat="48.44694" lon="2.75247">
        <ele>102</ele>
        <time>2017-05-17T10:41:17.752</time>
      </trkpt>
      <trkpt lat="48.44693" lon="2.75242">
        <ele>101</ele>
        <time>2017-05-17T10:41:18.754</time>
      </trkpt>
      <trkpt lat="48.44691" lon="2.75238">
        <ele>101</ele>
        <time>2017-05-17T10:41:19.753</time>
      </trkpt>
      <trkpt lat="48.4469" lon="2.75235">
        <ele>101</ele>
        <time>2017-05-17T10:41:20.754</time>
      </trkpt>
      <trkpt lat="48.44689" lon="2.75234">
        <ele>100</ele>
        <time>2017-05-17T10:41:21.754</time>
      </trkpt>
      <trkpt lat="48.4469" lon="2.75234">
        <ele>100</ele>
        <time>2017-05-17T10:41:22.753</time>
      </trkpt>
      <trkpt lat="48.4469" lon="2.75233">
        <ele>99</ele>
        <time>2017-05-17T10:41:23.752</time>
      </trkpt>
      <trkpt lat="48.4469" lon="2.75233">
        <ele>99</ele>
        <time>2017-05-17T10:41:24.752</time>
      </trkpt>
      <trkpt lat="48.4469" lon="2.75233">
        <ele>99</ele>
        <time>2017-05-17T10:41:25.751</time>
      </trkpt>
      <trkpt lat="48.4469" lon="2.75233">
        <ele>99</ele>
        <time>2017-05-17T10:41:26.752</time>
      </trkpt>
      <trkpt lat="48.44689" lon="2.75232">
        <ele>100</ele>
        <time>2017-05-17T10:41:27.754</time>
      </trkpt>
      <trkpt lat="48.44688" lon="2.7523">
        <ele>99</ele>
        <time>2017-05-17T10:41:28.755</time>
      </trkpt>
      <trkpt lat="48.44688" lon="2.75228">
        <ele>99</ele>
        <time>2017-05-17T10:41:29.754</time>
      </trkpt>
      <trkpt lat="48.44686" lon="2.75226">
        <ele>99</ele>
        <time>2017-05-17T10:41:30.753</time>
      </trkpt>
      <trkpt lat="48.44685" lon="2.75223">
        <ele>99</ele>
        <time>2017-05-17T10:41:31.753</time>
      </trkpt>
      <trkpt lat="48.44683" lon="2.7522">
        <ele>99</ele>
        <time>2017-05-17T10:41:32.755</time>
      </trkpt>
      <trkpt lat="48.44681" lon="2.75217">
        <ele>99</ele>
        <time>2017-05-17T10:41:33.756</time>
      </trkpt>
      <trkpt lat="48.44678" lon="2.75213">
        <ele>99</ele>
        <time>2017-05-17T10:41:34.754</time>
      </trkpt>
      <trkpt lat="48.44676" lon="2.7521">
        <ele>100</ele>
        <time>2017-05-17T10:41:35.753</time>
      </trkpt>
      <trkpt lat="48.44673" lon="2.75207">
        <ele>100</ele>
        <time>2017-05-17T10:41:36.753</time>
      </trkpt>
      <trkpt lat="48.4467" lon="2.75203">
        <ele>101</ele>
        <time>2017-05-17T10:41:37.767</time>
      </trkpt>
      <trkpt lat="48.44667" lon="2.75199">
        <ele>101</ele>
        <time>2017-05-17T10:41:38.751</time>
      </trkpt>
      <trkpt lat="48.44663" lon="2.75195">
        <ele>101</ele>
        <time>2017-05-17T10:41:39.753</time>
      </trkpt>
      <trkpt lat="48.4466" lon="2.75191">
        <ele>102</ele>
        <time>2017-05-17T10:41:40.753</time>
      </trkpt>
      <trkpt lat="48.44657" lon="2.75188">
        <ele>101</ele>
        <time>2017-05-17T10:41:41.753</time>
      </trkpt>
      <trkpt lat="48.44653" lon="2.75184">
        <ele>102</ele>
        <time>2017-05-17T10:41:42.753</time>
      </trkpt>
      <trkpt lat="48.4465" lon="2.7518">
        <ele>102</ele>
        <time>2017-05-17T10:41:43.752</time>
      </trkpt>
      <trkpt lat="48.44646" lon="2.75176">
        <ele>102</ele>
        <time>2017-05-17T10:41:44.753</time>
      </trkpt>
      <trkpt lat="48.44643" lon="2.75172">
        <ele>102</ele>
        <time>2017-05-17T10:41:45.753</time>
      </trkpt>
      <trkpt lat="48.44639" lon="2.75168">
        <ele>102</ele>
        <time>2017-05-17T10:41:46.754</time>
      </trkpt>
      <trkpt lat="48.44635" lon="2.75164">
        <ele>102</ele>
        <time>2017-05-17T10:41:47.754</time>
      </trkpt>
      <trkpt lat="48.44632" lon="2.7516">
        <ele>102</ele>
        <time>2017-05-17T10:41:48.753</time>
      </trkpt>
      <trkpt lat="48.44628" lon="2.75157">
        <ele>101</ele>
        <time>2017-05-17T10:41:49.755</time>
      </trkpt>
      <trkpt lat="48.44626" lon="2.75153">
        <ele>101</ele>
        <time>2017-05-17T10:41:50.753</time>
      </trkpt>
      <trkpt lat="48.44622" lon="2.75149">
        <ele>100</ele>
        <time>2017-05-17T10:41:51.753</time>
      </trkpt>
      <trkpt lat="48.44618" lon="2.75145">
        <ele>100</ele>
        <time>2017-05-17T10:41:52.754</time>
      </trkpt>
      <trkpt lat="48.44615" lon="2.75142">
        <ele>100</ele>
        <time>2017-05-17T10:41:53.754</time>
      </trkpt>
      <trkpt lat="48.4461" lon="2.75137">
        <ele>101</ele>
        <time>2017-05-17T10:41:54.754</time>
      </trkpt>
      <trkpt lat="48.44606" lon="2.75134">
        <ele>101</ele>
        <time>2017-05-17T10:41:55.752</time>
      </trkpt>
      <trkpt lat="48.44602" lon="2.7513">
        <ele>101</ele>
        <time>2017-05-17T10:41:56.750</time>
      </trkpt>
      <trkpt lat="48.44599" lon="2.75126">
        <ele>100</ele>
        <time>2017-05-17T10:41:57.753</time>
      </trkpt>
      <trkpt lat="48.44594" lon="2.75122">
        <ele>101</ele>
        <time>2017-05-17T10:41:58.752</time>
      </trkpt>
      <trkpt lat="48.4459" lon="2.75118">
        <ele>101</ele>
        <time>2017-05-17T10:41:59.750</time>
      </trkpt>
      <trkpt lat="48.44586" lon="2.75114">
        <ele>101</ele>
        <time>2017-05-17T10:42:00.750</time>
      </trkpt>
      <trkpt lat="48.44582" lon="2.7511">
        <ele>100</ele>
        <time>2017-05-17T10:42:01.751</time>
      </trkpt>
      <trkpt lat="48.44578" lon="2.75106">
        <ele>101</ele>
        <time>2017-05-17T10:42:02.751</time>
      </trkpt>
      <trkpt lat="48.44574" lon="2.75102">
        <ele>101</ele>
        <time>2017-05-17T10:42:03.751</time>
      </trkpt>
      <trkpt lat="48.4457" lon="2.75098">
        <ele>101</ele>
        <time>2017-05-17T10:42:04.750</time>
      </trkpt>
      <trkpt lat="48.44566" lon="2.75094">
        <ele>101</ele>
        <time>2017-05-17T10:42:05.750</time>
      </trkpt>
      <trkpt lat="48.44561" lon="2.7509">
        <ele>101</ele>
        <time>2017-05-17T10:42:06.751</time>
      </trkpt>
      <trkpt lat="48.44556" lon="2.75086">
        <ele>102</ele>
        <time>2017-05-17T10:42:07.752</time>
      </trkpt>
      <trkpt lat="48.44552" lon="2.75082">
        <ele>102</ele>
        <time>2017-05-17T10:42:08.753</time>
      </trkpt>
      <trkpt lat="48.44547" lon="2.75078">
        <ele>103</ele>
        <time>2017-05-17T10:42:09.753</time>
      </trkpt>
      <trkpt lat="48.44543" lon="2.75074">
        <ele>103</ele>
        <time>2017-05-17T10:42:10.751</time>
      </trkpt>
      <trkpt lat="48.44538" lon="2.7507">
        <ele>103</ele>
        <time>2017-05-17T10:42:11.751</time>
      </trkpt>
      <trkpt lat="48.44534" lon="2.75065">
        <ele>103</ele>
        <time>2017-05-17T10:42:12.752</time>
      </trkpt>
      <trkpt lat="48.44531" lon="2.7506">
        <ele>102</ele>
        <time>2017-05-17T10:42:13.753</time>
      </trkpt>
      <trkpt lat="48.44526" lon="2.75056">
        <ele>102</ele>
        <time>2017-05-17T10:42:14.752</time>
      </trkpt>
      <trkpt lat="48.44522" lon="2.75052">
        <ele>102</ele>
        <time>2017-05-17T10:42:15.750</time>
      </trkpt>
      <trkpt lat="48.44518" lon="2.75048">
        <ele>102</ele>
        <time>2017-05-17T10:42:16.751</time>
      </trkpt>
      <trkpt lat="48.44514" lon="2.75044">
        <ele>102</ele>
        <time>2017-05-17T10:42:17.750</time>
      </trkpt>
      <trkpt lat="48.44509" lon="2.75039">
        <ele>102</ele>
        <time>2017-05-17T10:42:18.750</time>
      </trkpt>
      <trkpt lat="48.44505" lon="2.75036">
        <ele>102</ele>
        <time>2017-05-17T10:42:19.752</time>
      </trkpt>
      <trkpt lat="48.44501" lon="2.75031">
        <ele>102</ele>
        <time>2017-05-17T10:42:20.750</time>
      </trkpt>
      <trkpt lat="48.44496" lon="2.75027">
        <ele>102</ele>
        <time>2017-05-17T10:42:21.750</time>
      </trkpt>
      <trkpt lat="48.44492" lon="2.75022">
        <ele>102</ele>
        <time>2017-05-17T10:42:22.751</time>
      </trkpt>
      <trkpt lat="48.44487" lon="2.75019">
        <ele>102</ele>
        <time>2017-05-17T10:42:23.750</time>
      </trkpt>
      <trkpt lat="48.44482" lon="2.75015">
        <ele>102</ele>
        <time>2017-05-17T10:42:24.750</time>
      </trkpt>
      <trkpt lat="48.44478" lon="2.7501">
        <ele>102</ele>
        <time>2017-05-17T10:42:25.751</time>
      </trkpt>
      <trkpt lat="48.44473" lon="2.75006">
        <ele>102</ele>
        <time>2017-05-17T10:42:26.750</time>
      </trkpt>
      <trkpt lat="48.44469" lon="2.75002">
        <ele>102</ele>
        <time>2017-05-17T10:42:27.751</time>
      </trkpt>
      <trkpt lat="48.44465" lon="2.74997">
        <ele>102</ele>
        <time>2017-05-17T10:42:28.752</time>
      </trkpt>
      <trkpt lat="48.44461" lon="2.74993">
        <ele>102</ele>
        <time>2017-05-17T10:42:29.752</time>
      </trkpt>
      <trkpt lat="48.44457" lon="2.74989">
        <ele>102</ele>
        <time>2017-05-17T10:42:30.753</time>
      </trkpt>
      <trkpt lat="48.44452" lon="2.74985">
        <ele>102</ele>
        <time>2017-05-17T10:42:31.752</time>
      </trkpt>
      <trkpt lat="48.44447" lon="2.74981">
        <ele>102</ele>
        <time>2017-05-17T10:42:32.753</time>
      </trkpt>
      <trkpt lat="48.44443" lon="2.74976">
        <ele>103</ele>
        <time>2017-05-17T10:42:33.753</time>
      </trkpt>
      <trkpt lat="48.44439" lon="2.74972">
        <ele>102</ele>
        <time>2017-05-17T10:42:34.753</time>
      </trkpt>
      <trkpt lat="48.44434" lon="2.74967">
        <ele>102</ele>
        <time>2017-05-17T10:42:35.752</time>
      </trkpt>
      <trkpt lat="48.4443" lon="2.74963">
        <ele>102</ele>
        <time>2017-05-17T10:42:36.753</time>
      </trkpt>
      <trkpt lat="48.44426" lon="2.74958">
        <ele>102</ele>
        <time>2017-05-17T10:42:37.751</time>
      </trkpt>
      <trkpt lat="48.44422" lon="2.74954">
        <ele>102</ele>
        <time>2017-05-17T10:42:38.752</time>
      </trkpt>
      <trkpt lat="48.44417" lon="2.74949">
        <ele>102</ele>
        <time>2017-05-17T10:42:39.753</time>
      </trkpt>
      <trkpt lat="48.44412" lon="2.74945">
        <ele>103</ele>
        <time>2017-05-17T10:42:40.752</time>
      </trkpt>
      <trkpt lat="48.44407" lon="2.74941">
        <ele>103</ele>
        <time>2017-05-17T10:42:41.753</time>
      </trkpt>
      <trkpt lat="48.44402" lon="2.74938">
        <ele>103</ele>
        <time>2017-05-17T10:42:42.751</time>
      </trkpt>
      <trkpt lat="48.44398" lon="2.74935">
        <ele>103</ele>
        <time>2017-05-17T10:42:43.751</time>
      </trkpt>
      <trkpt lat="48.44393" lon="2.74931">
        <ele>103</ele>
        <time>2017-05-17T10:42:44.752</time>
      </trkpt>
      <trkpt lat="48.44388" lon="2.74927">
        <ele>103</ele>
        <time>2017-05-17T10:42:45.753</time>
      </trkpt>
      <trkpt lat="48.44383" lon="2.74923">
        <ele>103</ele>
        <time>2017-05-17T10:42:46.753</time>
      </trkpt>
      <trkpt lat="48.44378" lon="2.74919">
        <ele>103</ele>
        <time>2017-05-17T10:42:47.752</time>
      </trkpt>
      <trkpt lat="48.44373" lon="2.74915">
        <ele>103</ele>
        <time>2017-05-17T10:42:48.751</time>
      </trkpt>
      <trkpt lat="48.44368" lon="2.74912">
        <ele>103</ele>
        <time>2017-05-17T10:42:49.751</time>
      </trkpt>
      <trkpt lat="48.44364" lon="2.74907">
        <ele>103</ele>
        <time>2017-05-17T10:42:50.751</time>
      </trkpt>
      <trkpt lat="48.44359" lon="2.74904">
        <ele>103</ele>
        <time>2017-05-17T10:42:51.753</time>
      </trkpt>
      <trkpt lat="48.44355" lon="2.749">
        <ele>103</ele>
        <time>2017-05-17T10:42:52.752</time>
      </trkpt>
      <trkpt lat="48.4435" lon="2.74898">
        <ele>103</ele>
        <time>2017-05-17T10:42:53.753</time>
      </trkpt>
      <trkpt lat="48.44346" lon="2.74895">
        <ele>104</ele>
        <time>2017-05-17T10:42:54.753</time>
      </trkpt>
      <trkpt lat="48.44342" lon="2.74891">
        <ele>103</ele>
        <time>2017-05-17T10:42:55.753</time>
      </trkpt>
      <trkpt lat="48.44338" lon="2.74887">
        <ele>104</ele>
        <time>2017-05-17T10:42:56.752</time>
      </trkpt>
      <trkpt lat="48.44333" lon="2.74884">
        <ele>102</ele>
        <time>2017-05-17T10:42:57.752</time>
      </trkpt>
      <trkpt lat="48.44328" lon="2.7488">
        <ele>102</ele>
        <time>2017-05-17T10:42:58.752</time>
      </trkpt>
      <trkpt lat="48.44323" lon="2.74876">
        <ele>102</ele>
        <time>2017-05-17T10:42:59.753</time>
      </trkpt>
      <trkpt lat="48.44317" lon="2.74873">
        <ele>102</ele>
        <time>2017-05-17T10:43:00.754</time>
      </trkpt>
      <trkpt lat="48.44312" lon="2.74869">
        <ele>102</ele>
        <time>2017-05-17T10:43:01.752</time>
      </trkpt>
      <trkpt lat="48.44307" lon="2.74865">
        <ele>102</ele>
        <time>2017-05-17T10:43:02.753</time>
      </trkpt>
      <trkpt lat="48.44302" lon="2.7486">
        <ele>103</ele>
        <time>2017-05-17T10:43:03.752</time>
      </trkpt>
      <trkpt lat="48.44297" lon="2.74856">
        <ele>103</ele>
        <time>2017-05-17T10:43:04.752</time>
      </trkpt>
      <trkpt lat="48.44292" lon="2.74852">
        <ele>103</ele>
        <time>2017-05-17T10:43:05.752</time>
      </trkpt>
      <trkpt lat="48.44286" lon="2.74848">
        <ele>103</ele>
        <time>2017-05-17T10:43:06.753</time>
      </trkpt>
      <trkpt lat="48.44281" lon="2.74844">
        <ele>103</ele>
        <time>2017-05-17T10:43:07.752</time>
      </trkpt>
      <trkpt lat="48.44276" lon="2.74839">
        <ele>103</ele>
        <time>2017-05-17T10:43:08.752</time>
      </trkpt>
      <trkpt lat="48.44271" lon="2.74836">
        <ele>102</ele>
        <time>2017-05-17T10:43:09.753</time>
      </trkpt>
      <trkpt lat="48.44266" lon="2.74832">
        <ele>102</ele>
        <time>2017-05-17T10:43:10.752</time>
      </trkpt>
      <trkpt lat="48.4426" lon="2.74828">
        <ele>102</ele>
        <time>2017-05-17T10:43:11.753</time>
      </trkpt>
      <trkpt lat="48.44255" lon="2.74824">
        <ele>102</ele>
        <time>2017-05-17T10:43:12.753</time>
      </trkpt>
      <trkpt lat="48.4425" lon="2.7482">
        <ele>102</ele>
        <time>2017-05-17T10:43:13.749</time>
      </trkpt>
      <trkpt lat="48.44244" lon="2.74815">
        <ele>102</ele>
        <time>2017-05-17T10:43:14.750</time>
      </trkpt>
      <trkpt lat="48.44239" lon="2.74812">
        <ele>102</ele>
        <time>2017-05-17T10:43:15.751</time>
      </trkpt>
      <trkpt lat="48.44234" lon="2.74808">
        <ele>103</ele>
        <time>2017-05-17T10:43:16.751</time>
      </trkpt>
      <trkpt lat="48.44229" lon="2.74803">
        <ele>103</ele>
        <time>2017-05-17T10:43:17.751</time>
      </trkpt>
      <trkpt lat="48.44224" lon="2.74799">
        <ele>103</ele>
        <time>2017-05-17T10:43:18.751</time>
      </trkpt>
      <trkpt lat="48.44219" lon="2.74795">
        <ele>104</ele>
        <time>2017-05-17T10:43:19.751</time>
      </trkpt>
      <trkpt lat="48.44214" lon="2.74791">
        <ele>103</ele>
        <time>2017-05-17T10:43:20.751</time>
      </trkpt>
      <trkpt lat="48.44208" lon="2.74787">
        <ele>103</ele>
        <time>2017-05-17T10:43:21.751</time>
      </trkpt>
      <trkpt lat="48.44204" lon="2.74783">
        <ele>104</ele>
        <time>2017-05-17T10:43:22.749</time>
      </trkpt>
      <trkpt lat="48.44199" lon="2.74778">
        <ele>103</ele>
        <time>2017-05-17T10:43:23.750</time>
      </trkpt>
      <trkpt lat="48.44194" lon="2.74775">
        <ele>103</ele>
        <time>2017-05-17T10:43:24.750</time>
      </trkpt>
      <trkpt lat="48.44189" lon="2.74771">
        <ele>103</ele>
        <time>2017-05-17T10:43:25.749</time>
      </trkpt>
      <trkpt lat="48.44184" lon="2.74768">
        <ele>103</ele>
        <time>2017-05-17T10:43:26.752</time>
      </trkpt>
      <trkpt lat="48.44179" lon="2.74763">
        <ele>103</ele>
        <time>2017-05-17T10:43:27.751</time>
      </trkpt>
      <trkpt lat="48.44174" lon="2.74758">
        <ele>104</ele>
        <time>2017-05-17T10:43:28.752</time>
      </trkpt>
      <trkpt lat="48.44169" lon="2.74755">
        <ele>104</ele>
        <time>2017-05-17T10:43:29.752</time>
      </trkpt>
      <trkpt lat="48.44164" lon="2.74751">
        <ele>104</ele>
        <time>2017-05-17T10:43:30.754</time>
      </trkpt>
      <trkpt lat="48.44159" lon="2.74747">
        <ele>104</ele>
        <time>2017-05-17T10:43:31.750</time>
      </trkpt>
      <trkpt lat="48.44154" lon="2.74744">
        <ele>104</ele>
        <time>2017-05-17T10:43:32.751</time>
      </trkpt>
      <trkpt lat="48.4415" lon="2.7474">
        <ele>104</ele>
        <time>2017-05-17T10:43:33.752</time>
      </trkpt>
      <trkpt lat="48.44145" lon="2.74736">
        <ele>104</ele>
        <time>2017-05-17T10:43:34.750</time>
      </trkpt>
      <trkpt lat="48.4414" lon="2.74732">
        <ele>103</ele>
        <time>2017-05-17T10:43:35.749</time>
      </trkpt>
      <trkpt lat="48.44135" lon="2.74728">
        <ele>103</ele>
        <time>2017-05-17T10:43:36.754</time>
      </trkpt>
      <trkpt lat="48.4413" lon="2.74723">
        <ele>103</ele>
        <time>2017-05-17T10:43:37.754</time>
      </trkpt>
      <trkpt lat="48.44125" lon="2.7472">
        <ele>103</ele>
        <time>2017-05-17T10:43:38.750</time>
      </trkpt>
      <trkpt lat="48.4412" lon="2.74716">
        <ele>103</ele>
        <time>2017-05-17T10:43:39.753</time>
      </trkpt>
      <trkpt lat="48.44115" lon="2.74713">
        <ele>103</ele>
        <time>2017-05-17T10:43:40.764</time>
      </trkpt>
      <trkpt lat="48.4411" lon="2.74709">
        <ele>102</ele>
        <time>2017-05-17T10:43:41.763</time>
      </trkpt>
      <trkpt lat="48.44104" lon="2.74706">
        <ele>102</ele>
        <time>2017-05-17T10:43:42.764</time>
      </trkpt>
      <trkpt lat="48.44099" lon="2.74702">
        <ele>102</ele>
        <time>2017-05-17T10:43:43.756</time>
      </trkpt>
      <trkpt lat="48.44095" lon="2.74698">
        <ele>102</ele>
        <time>2017-05-17T10:43:44.756</time>
      </trkpt>
      <trkpt lat="48.4409" lon="2.74694">
        <ele>102</ele>
        <time>2017-05-17T10:43:45.763</time>
      </trkpt>
      <trkpt lat="48.44085" lon="2.7469">
        <ele>102</ele>
        <time>2017-05-17T10:43:46.771</time>
      </trkpt>
      <trkpt lat="48.44079" lon="2.74687">
        <ele>102</ele>
        <time>2017-05-17T10:43:47.752</time>
      </trkpt>
      <trkpt lat="48.44074" lon="2.74683">
        <ele>102</ele>
        <time>2017-05-17T10:43:48.752</time>
      </trkpt>
      <trkpt lat="48.44069" lon="2.7468">
        <ele>102</ele>
        <time>2017-05-17T10:43:49.751</time>
      </trkpt>
      <trkpt lat="48.44063" lon="2.74677">
        <ele>102</ele>
        <time>2017-05-17T10:43:50.753</time>
      </trkpt>
      <trkpt lat="48.44058" lon="2.74673">
        <ele>102</ele>
        <time>2017-05-17T10:43:51.753</time>
      </trkpt>
      <trkpt lat="48.44052" lon="2.7467">
        <ele>101</ele>
        <time>2017-05-17T10:43:52.752</time>
      </trkpt>
      <trkpt lat="48.44047" lon="2.74666">
        <ele>101</ele>
        <time>2017-05-17T10:43:53.751</time>
      </trkpt>
      <trkpt lat="48.44042" lon="2.74662">
        <ele>101</ele>
        <time>2017-05-17T10:43:54.752</time>
      </trkpt>
      <trkpt lat="48.44036" lon="2.74659">
        <ele>102</ele>
        <time>2017-05-17T10:43:55.752</time>
      </trkpt>
      <trkpt lat="48.44031" lon="2.74656">
        <ele>103</ele>
        <time>2017-05-17T10:43:56.751</time>
      </trkpt>
      <trkpt lat="48.44026" lon="2.74653">
        <ele>103</ele>
        <time>2017-05-17T10:43:57.751</time>
      </trkpt>
      <trkpt lat="48.4402" lon="2.74649">
        <ele>103</ele>
        <time>2017-05-17T10:43:58.752</time>
      </trkpt>
      <trkpt lat="48.44015" lon="2.74646">
        <ele>103</ele>
        <time>2017-05-17T10:43:59.752</time>
      </trkpt>
      <trkpt lat="48.44009" lon="2.74642">
        <ele>104</ele>
        <time>2017-05-17T10:44:00.750</time>
      </trkpt>
      <trkpt lat="48.44004" lon="2.7464">
        <ele>104</ele>
        <time>2017-05-17T10:44:01.750</time>
      </trkpt>
      <trkpt lat="48.43997" lon="2.74637">
        <ele>104</ele>
        <time>2017-05-17T10:44:02.752</time>
      </trkpt>
      <trkpt lat="48.43992" lon="2.74633">
        <ele>104</ele>
        <time>2017-05-17T10:44:03.753</time>
      </trkpt>
      <trkpt lat="48.43986" lon="2.74631">
        <ele>104</ele>
        <time>2017-05-17T10:44:04.752</time>
      </trkpt>
      <trkpt lat="48.43979" lon="2.74629">
        <ele>103</ele>
        <time>2017-05-17T10:44:05.752</time>
      </trkpt>
      <trkpt lat="48.43973" lon="2.74626">
        <ele>103</ele>
        <time>2017-05-17T10:44:06.752</time>
      </trkpt>
      <trkpt lat="48.43967" lon="2.74623">
        <ele>103</ele>
        <time>2017-05-17T10:44:07.752</time>
      </trkpt>
      <trkpt lat="48.43961" lon="2.7462">
        <ele>103</ele>
        <time>2017-05-17T10:44:08.752</time>
      </trkpt>
      <trkpt lat="48.43955" lon="2.74617">
        <ele>104</ele>
        <time>2017-05-17T10:44:09.751</time>
      </trkpt>
      <trkpt lat="48.4395" lon="2.74614">
        <ele>103</ele>
        <time>2017-05-17T10:44:10.750</time>
      </trkpt>
      <trkpt lat="48.43944" lon="2.74612">
        <ele>104</ele>
        <time>2017-05-17T10:44:11.754</time>
      </trkpt>
      <trkpt lat="48.4394" lon="2.74609">
        <ele>103</ele>
        <time>2017-05-17T10:44:12.752</time>
      </trkpt>
      <trkpt lat="48.43934" lon="2.74606">
        <ele>103</ele>
        <time>2017-05-17T10:44:13.752</time>
      </trkpt>
      <trkpt lat="48.43928" lon="2.74603">
        <ele>103</ele>
        <time>2017-05-17T10:44:14.752</time>
      </trkpt>
      <trkpt lat="48.43922" lon="2.74601">
        <ele>102</ele>
        <time>2017-05-17T10:44:15.750</time>
      </trkpt>
      <trkpt lat="48.43916" lon="2.74598">
        <ele>102</ele>
        <time>2017-05-17T10:44:16.751</time>
      </trkpt>
      <trkpt lat="48.4391" lon="2.74596">
        <ele>102</ele>
        <time>2017-05-17T10:44:17.750</time>
      </trkpt>
      <trkpt lat="48.43904" lon="2.74593">
        <ele>102</ele>
        <time>2017-05-17T10:44:18.753</time>
      </trkpt>
      <trkpt lat="48.43898" lon="2.74591">
        <ele>102</ele>
        <time>2017-05-17T10:44:19.752</time>
      </trkpt>
      <trkpt lat="48.43892" lon="2.74588">
        <ele>102</ele>
        <time>2017-05-17T10:44:20.750</time>
      </trkpt>
      <trkpt lat="48.43886" lon="2.74587">
        <ele>102</ele>
        <time>2017-05-17T10:44:21.752</time>
      </trkpt>
      <trkpt lat="48.4388" lon="2.74584">
        <ele>102</ele>
        <time>2017-05-17T10:44:22.751</time>
      </trkpt>
      <trkpt lat="48.43875" lon="2.74582">
        <ele>102</ele>
        <time>2017-05-17T10:44:23.753</time>
      </trkpt>
      <trkpt lat="48.43869" lon="2.7458">
        <ele>102</ele>
        <time>2017-05-17T10:44:24.754</time>
      </trkpt>
      <trkpt lat="48.43863" lon="2.74578">
        <ele>103</ele>
        <time>2017-05-17T10:44:25.751</time>
      </trkpt>
      <trkpt lat="48.43858" lon="2.74576">
        <ele>103</ele>
        <time>2017-05-17T10:44:26.751</time>
      </trkpt>
      <trkpt lat="48.43852" lon="2.74573">
        <ele>103</ele>
        <time>2017-05-17T10:44:27.751</time>
      </trkpt>
      <trkpt lat="48.43847" lon="2.7457">
        <ele>103</ele>
        <time>2017-05-17T10:44:28.752</time>
      </trkpt>
      <trkpt lat="48.43843" lon="2.74568">
        <ele>103</ele>
        <time>2017-05-17T10:44:29.752</time>
      </trkpt>
      <trkpt lat="48.43838" lon="2.74565">
        <ele>103</ele>
        <time>2017-05-17T10:44:30.752</time>
      </trkpt>
      <trkpt lat="48.43833" lon="2.74562">
        <ele>103</ele>
        <time>2017-05-17T10:44:31.751</time>
      </trkpt>
      <trkpt lat="48.43828" lon="2.74561">
        <ele>103</ele>
        <time>2017-05-17T10:44:32.751</time>
      </trkpt>
      <trkpt lat="48.43823" lon="2.74558">
        <ele>102</ele>
        <time>2017-05-17T10:44:33.750</time>
      </trkpt>
      <trkpt lat="48.43818" lon="2.74556">
        <ele>102</ele>
        <time>2017-05-17T10:44:34.751</time>
      </trkpt>
      <trkpt lat="48.43813" lon="2.74555">
        <ele>103</ele>
        <time>2017-05-17T10:44:35.752</time>
      </trkpt>
      <trkpt lat="48.43808" lon="2.74552">
        <ele>103</ele>
        <time>2017-05-17T10:44:36.752</time>
      </trkpt>
      <trkpt lat="48.43803" lon="2.7455">
        <ele>103</ele>
        <time>2017-05-17T10:44:37.751</time>
      </trkpt>
      <trkpt lat="48.43797" lon="2.74547">
        <ele>104</ele>
        <time>2017-05-17T10:44:38.752</time>
      </trkpt>
      <trkpt lat="48.43792" lon="2.74545">
        <ele>104</ele>
        <time>2017-05-17T10:44:39.753</time>
      </trkpt>
      <trkpt lat="48.43787" lon="2.74543">
        <ele>104</ele>
        <time>2017-05-17T10:44:40.750</time>
      </trkpt>
      <trkpt lat="48.43782" lon="2.7454">
        <ele>104</ele>
        <time>2017-05-17T10:44:41.752</time>
      </trkpt>
      <trkpt lat="48.43778" lon="2.74537">
        <ele>103</ele>
        <time>2017-05-17T10:44:42.753</time>
      </trkpt>
      <trkpt lat="48.43773" lon="2.74534">
        <ele>103</ele>
        <time>2017-05-17T10:44:43.753</time>
      </trkpt>
      <trkpt lat="48.43768" lon="2.74532">
        <ele>103</ele>
        <time>2017-05-17T10:44:44.751</time>
      </trkpt>
      <trkpt lat="48.43763" lon="2.7453">
        <ele>103</ele>
        <time>2017-05-17T10:44:45.750</time>
      </trkpt>
      <trkpt lat="48.43758" lon="2.74528">
        <ele>103</ele>
        <time>2017-05-17T10:44:46.751</time>
      </trkpt>
      <trkpt lat="48.43753" lon="2.74526">
        <ele>103</ele>
        <time>2017-05-17T10:44:47.752</time>
      </trkpt>
      <trkpt lat="48.43747" lon="2.74523">
        <ele>103</ele>
        <time>2017-05-17T10:44:48.751</time>
      </trkpt>
      <trkpt lat="48.43742" lon="2.74521">
        <ele>102</ele>
        <time>2017-05-17T10:44:49.751</time>
      </trkpt>
      <trkpt lat="48.43736" lon="2.74518">
        <ele>102</ele>
        <time>2017-05-17T10:44:50.751</time>
      </trkpt>
      <trkpt lat="48.4373" lon="2.74515">
        <ele>102</ele>
        <time>2017-05-17T10:44:51.751</time>
      </trkpt>
      <trkpt lat="48.43724" lon="2.74512">
        <ele>101</ele>
        <time>2017-05-17T10:44:52.750</time>
      </trkpt>
      <trkpt lat="48.43718" lon="2.7451">
        <ele>101</ele>
        <time>2017-05-17T10:44:53.751</time>
      </trkpt>
      <trkpt lat="48.43713" lon="2.74507">
        <ele>101</ele>
        <time>2017-05-17T10:44:54.752</time>
      </trkpt>
      <trkpt lat="48.43707" lon="2.74505">
        <ele>101</ele>
        <time>2017-05-17T10:44:55.752</time>
      </trkpt>
      <trkpt lat="48.43702" lon="2.74502">
        <ele>101</ele>
        <time>2017-05-17T10:44:56.751</time>
      </trkpt>
      <trkpt lat="48.43696" lon="2.74499">
        <ele>101</ele>
        <time>2017-05-17T10:44:57.750</time>
      </trkpt>
      <trkpt lat="48.43691" lon="2.74496">
        <ele>101</ele>
        <time>2017-05-17T10:44:58.752</time>
      </trkpt>
      <trkpt lat="48.43686" lon="2.74493">
        <ele>101</ele>
        <time>2017-05-17T10:44:59.753</time>
      </trkpt>
      <trkpt lat="48.4368" lon="2.74489">
        <ele>101</ele>
        <time>2017-05-17T10:45:00.753</time>
      </trkpt>
      <trkpt lat="48.43675" lon="2.74486">
        <ele>101</ele>
        <time>2017-05-17T10:45:01.750</time>
      </trkpt>
      <trkpt lat="48.43669" lon="2.74484">
        <ele>102</ele>
        <time>2017-05-17T10:45:02.750</time>
      </trkpt>
      <trkpt lat="48.43665" lon="2.74481">
        <ele>101</ele>
        <time>2017-05-17T10:45:03.752</time>
      </trkpt>
      <trkpt lat="48.4366" lon="2.74478">
        <ele>101</ele>
        <time>2017-05-17T10:45:04.752</time>
      </trkpt>
      <trkpt lat="48.43655" lon="2.74475">
        <ele>101</ele>
        <time>2017-05-17T10:45:05.751</time>
      </trkpt>
      <trkpt lat="48.4365" lon="2.74472">
        <ele>102</ele>
        <time>2017-05-17T10:45:06.752</time>
      </trkpt>
      <trkpt lat="48.43646" lon="2.74469">
        <ele>101</ele>
        <time>2017-05-17T10:45:07.751</time>
      </trkpt>
      <trkpt lat="48.43642" lon="2.74466">
        <ele>101</ele>
        <time>2017-05-17T10:45:08.751</time>
      </trkpt>
      <trkpt lat="48.43637" lon="2.74463">
        <ele>101</ele>
        <time>2017-05-17T10:45:09.751</time>
      </trkpt>
      <trkpt lat="48.43633" lon="2.74461">
        <ele>101</ele>
        <time>2017-05-17T10:45:10.751</time>
      </trkpt>
      <trkpt lat="48.43629" lon="2.7446">
        <ele>100</ele>
        <time>2017-05-17T10:45:11.751</time>
      </trkpt>
      <trkpt lat="48.43624" lon="2.74459">
        <ele>100</ele>
        <time>2017-05-17T10:45:12.751</time>
      </trkpt>
      <trkpt lat="48.43619" lon="2.74457">
        <ele>100</ele>
        <time>2017-05-17T10:45:13.753</time>
      </trkpt>
      <trkpt lat="48.43616" lon="2.74453">
        <ele>100</ele>
        <time>2017-05-17T10:45:14.753</time>
      </trkpt>
      <trkpt lat="48.43614" lon="2.7445">
        <ele>101</ele>
        <time>2017-05-17T10:45:15.753</time>
      </trkpt>
      <trkpt lat="48.43616" lon="2.74445">
        <ele>101</ele>
        <time>2017-05-17T10:45:16.754</time>
      </trkpt>
      <trkpt lat="48.43618" lon="2.74442">
        <ele>101</ele>
        <time>2017-05-17T10:45:17.752</time>
      </trkpt>
      <trkpt lat="48.43621" lon="2.74439">
        <ele>101</ele>
        <time>2017-05-17T10:45:18.752</time>
      </trkpt>
      <trkpt lat="48.43621" lon="2.74438">
        <ele>101</ele>
        <time>2017-05-17T10:45:19.752</time>
      </trkpt>
      <trkpt lat="48.43621" lon="2.74438">
        <ele>101</ele>
        <time>2017-05-17T10:45:20.752</time>
      </trkpt>
      <trkpt lat="48.43623" lon="2.74438">
        <ele>101</ele>
        <time>2017-05-17T10:45:21.753</time>
      </trkpt>
      <trkpt lat="48.43627" lon="2.74439">
        <ele>101</ele>
        <time>2017-05-17T10:45:22.753</time>
      </trkpt>
      <trkpt lat="48.43631" lon="2.74442">
        <ele>101</ele>
        <time>2017-05-17T10:45:23.751</time>
      </trkpt>
      <trkpt lat="48.43634" lon="2.74442">
        <ele>101</ele>
        <time>2017-05-17T10:45:24.751</time>
      </trkpt>
      <trkpt lat="48.43637" lon="2.74444">
        <ele>101</ele>
        <time>2017-05-17T10:45:25.751</time>
      </trkpt>
      <trkpt lat="48.43638" lon="2.74441">
        <ele>102</ele>
        <time>2017-05-17T10:45:26.752</time>
      </trkpt>
      <trkpt lat="48.43642" lon="2.74441">
        <ele>101</ele>
        <time>2017-05-17T10:45:27.752</time>
      </trkpt>
      <trkpt lat="48.43645" lon="2.74441">
        <ele>102</ele>
        <time>2017-05-17T10:45:28.753</time>
      </trkpt>
      <trkpt lat="48.43647" lon="2.74441">
        <ele>102</ele>
        <time>2017-05-17T10:45:29.751</time>
      </trkpt>
      <trkpt lat="48.4365" lon="2.74441">
        <ele>102</ele>
        <time>2017-05-17T10:45:30.752</time>
      </trkpt>
      <trkpt lat="48.43653" lon="2.74443">
        <ele>102</ele>
        <time>2017-05-17T10:45:31.752</time>
      </trkpt>
      <trkpt lat="48.43654" lon="2.74442">
        <ele>102</ele>
        <time>2017-05-17T10:45:32.751</time>
      </trkpt>
      <trkpt lat="48.43656" lon="2.74442">
        <ele>102</ele>
        <time>2017-05-17T10:45:33.751</time>
      </trkpt>
      <trkpt lat="48.4366" lon="2.74444">
        <ele>102</ele>
        <time>2017-05-17T10:45:34.751</time>
      </trkpt>
      <trkpt lat="48.43661" lon="2.74444">
        <ele>102</ele>
        <time>2017-05-17T10:45:35.750</time>
      </trkpt>
      <trkpt lat="48.43664" lon="2.74444">
        <ele>102</ele>
        <time>2017-05-17T10:45:36.751</time>
      </trkpt>
      <trkpt lat="48.43667" lon="2.74444">
        <ele>102</ele>
        <time>2017-05-17T10:45:37.750</time>
      </trkpt>
      <trkpt lat="48.43669" lon="2.74443">
        <ele>101</ele>
        <time>2017-05-17T10:45:38.751</time>
      </trkpt>
      <trkpt lat="48.43672" lon="2.74443">
        <ele>102</ele>
        <time>2017-05-17T10:45:39.752</time>
      </trkpt>
      <trkpt lat="48.43675" lon="2.74443">
        <ele>103</ele>
        <time>2017-05-17T10:45:40.752</time>
      </trkpt>
      <trkpt lat="48.43678" lon="2.74443">
        <ele>104</ele>
        <time>2017-05-17T10:45:41.752</time>
      </trkpt>
      <trkpt lat="48.4368" lon="2.74442">
        <ele>103</ele>
        <time>2017-05-17T10:45:42.752</time>
      </trkpt>
      <trkpt lat="48.43682" lon="2.74442">
        <ele>103</ele>
        <time>2017-05-17T10:45:43.752</time>
      </trkpt>
      <trkpt lat="48.43684" lon="2.74441">
        <ele>103</ele>
        <time>2017-05-17T10:45:44.752</time>
      </trkpt>
      <trkpt lat="48.43687" lon="2.7444">
        <ele>102</ele>
        <time>2017-05-17T10:45:45.752</time>
      </trkpt>
      <trkpt lat="48.4369" lon="2.74441">
        <ele>103</ele>
        <time>2017-05-17T10:45:46.752</time>
      </trkpt>
      <trkpt lat="48.43693" lon="2.74442">
        <ele>105</ele>
        <time>2017-05-17T10:45:47.753</time>
      </trkpt>
      <trkpt lat="48.43696" lon="2.74441">
        <ele>106</ele>
        <time>2017-05-17T10:45:48.752</time>
      </trkpt>
      <trkpt lat="48.437" lon="2.74442">
        <ele>108</ele>
        <time>2017-05-17T10:45:49.753</time>
      </trkpt>
      <trkpt lat="48.43703" lon="2.74441">
        <ele>109</ele>
        <time>2017-05-17T10:45:50.752</time>
      </trkpt>
      <trkpt lat="48.43706" lon="2.74441">
        <ele>110</ele>
        <time>2017-05-17T10:45:51.751</time>
      </trkpt>
      <trkpt lat="48.43707" lon="2.7444">
        <ele>110</ele>
        <time>2017-05-17T10:45:52.753</time>
      </trkpt>
      <trkpt lat="48.4371" lon="2.7444">
        <ele>111</ele>
        <time>2017-05-17T10:45:53.755</time>
      </trkpt>
      <trkpt lat="48.43712" lon="2.7444">
        <ele>112</ele>
        <time>2017-05-17T10:45:54.753</time>
      </trkpt>
      <trkpt lat="48.43715" lon="2.74442">
        <ele>113</ele>
        <time>2017-05-17T10:45:55.752</time>
      </trkpt>
      <trkpt lat="48.43718" lon="2.74443">
        <ele>112</ele>
        <time>2017-05-17T10:45:56.751</time>
      </trkpt>
      <trkpt lat="48.43721" lon="2.74444">
        <ele>112</ele>
        <time>2017-05-17T10:45:57.751</time>
      </trkpt>
      <trkpt lat="48.43724" lon="2.74446">
        <ele>113</ele>
        <time>2017-05-17T10:45:58.751</time>
      </trkpt>
      <trkpt lat="48.43727" lon="2.74448">
        <ele>113</ele>
        <time>2017-05-17T10:45:59.751</time>
      </trkpt>
      <trkpt lat="48.43729" lon="2.74451">
        <ele>113</ele>
        <time>2017-05-17T10:46:00.752</time>
      </trkpt>
      <trkpt lat="48.43731" lon="2.74451">
        <ele>113</ele>
        <time>2017-05-17T10:46:01.753</time>
      </trkpt>
      <trkpt lat="48.43734" lon="2.74454">
        <ele>113</ele>
        <time>2017-05-17T10:46:02.754</time>
      </trkpt>
      <trkpt lat="48.43736" lon="2.74456">
        <ele>113</ele>
        <time>2017-05-17T10:46:03.753</time>
      </trkpt>
      <trkpt lat="48.4374" lon="2.74457">
        <ele>113</ele>
        <time>2017-05-17T10:46:04.752</time>
      </trkpt>
      <trkpt lat="48.43742" lon="2.74459">
        <ele>113</ele>
        <time>2017-05-17T10:46:05.752</time>
      </trkpt>
      <trkpt lat="48.43744" lon="2.7446">
        <ele>114</ele>
        <time>2017-05-17T10:46:06.752</time>
      </trkpt>
      <trkpt lat="48.43747" lon="2.74461">
        <ele>114</ele>
        <time>2017-05-17T10:46:07.753</time>
      </trkpt>
      <trkpt lat="48.4375" lon="2.74462">
        <ele>117</ele>
        <time>2017-05-17T10:46:08.752</time>
      </trkpt>
      <trkpt lat="48.43751" lon="2.74462">
        <ele>117</ele>
        <time>2017-05-17T10:46:09.751</time>
      </trkpt>
      <trkpt lat="48.43754" lon="2.74463">
        <ele>118</ele>
        <time>2017-05-17T10:46:10.752</time>
      </trkpt>
      <trkpt lat="48.43756" lon="2.74462">
        <ele>117</ele>
        <time>2017-05-17T10:46:11.751</time>
      </trkpt>
      <trkpt lat="48.43758" lon="2.74461">
        <ele>118</ele>
        <time>2017-05-17T10:46:12.750</time>
      </trkpt>
      <trkpt lat="48.43761" lon="2.7446">
        <ele>119</ele>
        <time>2017-05-17T10:46:13.752</time>
      </trkpt>
      <trkpt lat="48.43763" lon="2.74461">
        <ele>121</ele>
        <time>2017-05-17T10:46:14.753</time>
      </trkpt>
      <trkpt lat="48.43767" lon="2.7446">
        <ele>121</ele>
        <time>2017-05-17T10:46:15.752</time>
      </trkpt>
      <trkpt lat="48.43769" lon="2.74459">
        <ele>121</ele>
        <time>2017-05-17T10:46:16.750</time>
      </trkpt>
      <trkpt lat="48.43772" lon="2.7446">
        <ele>122</ele>
        <time>2017-05-17T10:46:17.752</time>
      </trkpt>
      <trkpt lat="48.43775" lon="2.74461">
        <ele>124</ele>
        <time>2017-05-17T10:46:18.753</time>
      </trkpt>
      <trkpt lat="48.43777" lon="2.7446">
        <ele>122</ele>
        <time>2017-05-17T10:46:19.752</time>
      </trkpt>
      <trkpt lat="48.43779" lon="2.74458">
        <ele>122</ele>
        <time>2017-05-17T10:46:20.751</time>
      </trkpt>
      <trkpt lat="48.4378" lon="2.74459">
        <ele>123</ele>
        <time>2017-05-17T10:46:21.751</time>
      </trkpt>
      <trkpt lat="48.43782" lon="2.74458">
        <ele>124</ele>
        <time>2017-05-17T10:46:22.751</time>
      </trkpt>
      <trkpt lat="48.43786" lon="2.74457">
        <ele>123</ele>
        <time>2017-05-17T10:46:23.752</time>
      </trkpt>
      <trkpt lat="48.43788" lon="2.74456">
        <ele>125</ele>
        <time>2017-05-17T10:46:24.751</time>
      </trkpt>
      <trkpt lat="48.43792" lon="2.74455">
        <ele>124</ele>
        <time>2017-05-17T10:46:25.753</time>
      </trkpt>
      <trkpt lat="48.43795" lon="2.74453">
        <ele>124</ele>
        <time>2017-05-17T10:46:26.753</time>
      </trkpt>
      <trkpt lat="48.43799" lon="2.74451">
        <ele>123</ele>
        <time>2017-05-17T10:46:27.753</time>
      </trkpt>
      <trkpt lat="48.438" lon="2.7445">
        <ele>123</ele>
        <time>2017-05-17T10:46:28.752</time>
      </trkpt>
      <trkpt lat="48.43802" lon="2.74449">
        <ele>124</ele>
        <time>2017-05-17T10:46:29.751</time>
      </trkpt>
      <trkpt lat="48.43803" lon="2.74449">
        <ele>124</ele>
        <time>2017-05-17T10:46:30.751</time>
      </trkpt>
      <trkpt lat="48.43805" lon="2.74448">
        <ele>124</ele>
        <time>2017-05-17T10:46:31.751</time>
      </trkpt>
      <trkpt lat="48.43806" lon="2.74448">
        <ele>125</ele>
        <time>2017-05-17T10:46:32.750</time>
      </trkpt>
      <trkpt lat="48.43807" lon="2.74447">
        <ele>124</ele>
        <time>2017-05-17T10:46:33.751</time>
      </trkpt>
      <trkpt lat="48.43807" lon="2.74446">
        <ele>124</ele>
        <time>2017-05-17T10:46:34.755</time>
      </trkpt>
      <trkpt lat="48.43805" lon="2.74444">
        <ele>125</ele>
        <time>2017-05-17T10:46:35.758</time>
      </trkpt>
      <trkpt lat="48.43804" lon="2.74444">
        <ele>126</ele>
        <time>2017-05-17T10:46:36.754</time>
      </trkpt>
      <trkpt lat="48.43802" lon="2.74442">
        <ele>126</ele>
        <time>2017-05-17T10:46:37.753</time>
      </trkpt>
      <trkpt lat="48.438" lon="2.74441">
        <ele>126</ele>
        <time>2017-05-17T10:46:38.753</time>
      </trkpt>
      <trkpt lat="48.438" lon="2.74438">
        <ele>126</ele>
        <time>2017-05-17T10:46:39.758</time>
      </trkpt>
      <trkpt lat="48.43799" lon="2.74437">
        <ele>127</ele>
        <time>2017-05-17T10:46:40.762</time>
      </trkpt>
      <trkpt lat="48.43798" lon="2.74435">
        <ele>127</ele>
        <time>2017-05-17T10:46:41.762</time>
      </trkpt>
      <trkpt lat="48.43796" lon="2.74435">
        <ele>126</ele>
        <time>2017-05-17T10:46:42.758</time>
      </trkpt>
      <trkpt lat="48.43796" lon="2.74434">
        <ele>125</ele>
        <time>2017-05-17T10:46:43.760</time>
      </trkpt>
      <trkpt lat="48.43795" lon="2.74432">
        <ele>123</ele>
        <time>2017-05-17T10:46:44.754</time>
      </trkpt>
      <trkpt lat="48.43792" lon="2.74429">
        <ele>123</ele>
        <time>2017-05-17T10:46:45.753</time>
      </trkpt>
      <trkpt lat="48.43791" lon="2.74427">
        <ele>125</ele>
        <time>2017-05-17T10:46:46.753</time>
      </trkpt>
      <trkpt lat="48.43789" lon="2.74425">
        <ele>126</ele>
        <time>2017-05-17T10:46:47.752</time>
      </trkpt>
      <trkpt lat="48.43787" lon="2.74423">
        <ele>126</ele>
        <time>2017-05-17T10:46:48.752</time>
      </trkpt>
      <trkpt lat="48.43785" lon="2.74421">
        <ele>126</ele>
        <time>2017-05-17T10:46:49.754</time>
      </trkpt>
      <trkpt lat="48.43784" lon="2.74419">
        <ele>126</ele>
        <time>2017-05-17T10:46:50.755</time>
      </trkpt>
      <trkpt lat="48.43783" lon="2.74416">
        <ele>128</ele>
        <time>2017-05-17T10:46:51.753</time>
      </trkpt>
      <trkpt lat="48.4378" lon="2.74414">
        <ele>128</ele>
        <time>2017-05-17T10:46:52.751</time>
      </trkpt>
      <trkpt lat="48.43779" lon="2.7441">
        <ele>128</ele>
        <time>2017-05-17T10:46:53.753</time>
      </trkpt>
      <trkpt lat="48.43778" lon="2.74408">
        <ele>126</ele>
        <time>2017-05-17T10:46:54.753</time>
      </trkpt>
      <trkpt lat="48.43775" lon="2.74405">
        <ele>127</ele>
        <time>2017-05-17T10:46:55.754</time>
      </trkpt>
      <trkpt lat="48.43773" lon="2.74403">
        <ele>127</ele>
        <time>2017-05-17T10:46:56.754</time>
      </trkpt>
      <trkpt lat="48.43771" lon="2.74401">
        <ele>126</ele>
        <time>2017-05-17T10:46:57.754</time>
      </trkpt>
      <trkpt lat="48.4377" lon="2.74398">
        <ele>125</ele>
        <time>2017-05-17T10:46:58.755</time>
      </trkpt>
      <trkpt lat="48.43768" lon="2.74396">
        <ele>124</ele>
        <time>2017-05-17T10:46:59.753</time>
      </trkpt>
      <trkpt lat="48.43766" lon="2.74393">
        <ele>124</ele>
        <time>2017-05-17T10:47:00.753</time>
      </trkpt>
      <trkpt lat="48.43765" lon="2.74392">
        <ele>124</ele>
        <time>2017-05-17T10:47:01.753</time>
      </trkpt>
      <trkpt lat="48.43764" lon="2.74389">
        <ele>124</ele>
        <time>2017-05-17T10:47:02.753</time>
      </trkpt>
      <trkpt lat="48.43762" lon="2.74386">
        <ele>125</ele>
        <time>2017-05-17T10:47:03.754</time>
      </trkpt>
      <trkpt lat="48.43761" lon="2.74382">
        <ele>125</ele>
        <time>2017-05-17T10:47:04.753</time>
      </trkpt>
      <trkpt lat="48.4376" lon="2.7438">
        <ele>126</ele>
        <time>2017-05-17T10:47:05.754</time>
      </trkpt>
      <trkpt lat="48.43759" lon="2.74377">
        <ele>128</ele>
        <time>2017-05-17T10:47:06.754</time>
      </trkpt>
      <trkpt lat="48.43758" lon="2.74374">
        <ele>128</ele>
        <time>2017-05-17T10:47:07.754</time>
      </trkpt>
      <trkpt lat="48.43757" lon="2.74371">
        <ele>129</ele>
        <time>2017-05-17T10:47:08.753</time>
      </trkpt>
      <trkpt lat="48.43755" lon="2.74369">
        <ele>129</ele>
        <time>2017-05-17T10:47:09.754</time>
      </trkpt>
      <trkpt lat="48.43754" lon="2.74367">
        <ele>129</ele>
        <time>2017-05-17T10:47:10.754</time>
      </trkpt>
      <trkpt lat="48.43754" lon="2.74365">
        <ele>129</ele>
        <time>2017-05-17T10:47:11.753</time>
      </trkpt>
      <trkpt lat="48.43753" lon="2.74363">
        <ele>129</ele>
        <time>2017-05-17T10:47:12.753</time>
      </trkpt>
      <trkpt lat="48.43751" lon="2.74362">
        <ele>130</ele>
        <time>2017-05-17T10:47:13.754</time>
      </trkpt>
      <trkpt lat="48.4375" lon="2.74359">
        <ele>131</ele>
        <time>2017-05-17T10:47:14.753</time>
      </trkpt>
      <trkpt lat="48.43749" lon="2.74357">
        <ele>131</ele>
        <time>2017-05-17T10:47:15.754</time>
      </trkpt>
      <trkpt lat="48.43747" lon="2.74356">
        <ele>132</ele>
        <time>2017-05-17T10:47:16.752</time>
      </trkpt>
      <trkpt lat="48.43746" lon="2.74355">
        <ele>131</ele>
        <time>2017-05-17T10:47:17.753</time>
      </trkpt>
      <trkpt lat="48.43745" lon="2.74353">
        <ele>131</ele>
        <time>2017-05-17T10:47:18.755</time>
      </trkpt>
      <trkpt lat="48.43742" lon="2.74352">
        <ele>131</ele>
        <time>2017-05-17T10:47:19.755</time>
      </trkpt>
      <trkpt lat="48.43741" lon="2.74351">
        <ele>132</ele>
        <time>2017-05-17T10:47:20.753</time>
      </trkpt>
      <trkpt lat="48.4374" lon="2.74351">
        <ele>132</ele>
        <time>2017-05-17T10:47:21.753</time>
      </trkpt>
      <trkpt lat="48.43738" lon="2.74352">
        <ele>130</ele>
        <time>2017-05-17T10:47:22.754</time>
      </trkpt>
      <trkpt lat="48.43737" lon="2.74354">
        <ele>129</ele>
        <time>2017-05-17T10:47:23.752</time>
      </trkpt>
      <trkpt lat="48.43735" lon="2.74359">
        <ele>129</ele>
        <time>2017-05-17T10:47:24.753</time>
      </trkpt>
      <trkpt lat="48.43734" lon="2.74365">
        <ele>128</ele>
        <time>2017-05-17T10:47:25.754</time>
      </trkpt>
      <trkpt lat="48.43731" lon="2.74369">
        <ele>128</ele>
        <time>2017-05-17T10:47:26.754</time>
      </trkpt>
      <trkpt lat="48.43729" lon="2.74371">
        <ele>128</ele>
        <time>2017-05-17T10:47:27.755</time>
      </trkpt>
      <trkpt lat="48.43726" lon="2.74371">
        <ele>127</ele>
        <time>2017-05-17T10:47:28.756</time>
      </trkpt>
      <trkpt lat="48.43725" lon="2.74365">
        <ele>126</ele>
        <time>2017-05-17T10:47:29.754</time>
      </trkpt>
      <trkpt lat="48.43722" lon="2.74362">
        <ele>125</ele>
        <time>2017-05-17T10:47:30.753</time>
      </trkpt>
      <trkpt lat="48.43719" lon="2.7436">
        <ele>125</ele>
        <time>2017-05-17T10:47:31.757</time>
      </trkpt>
      <trkpt lat="48.43716" lon="2.74359">
        <ele>125</ele>
        <time>2017-05-17T10:47:32.753</time>
      </trkpt>
      <trkpt lat="48.43713" lon="2.74358">
        <ele>126</ele>
        <time>2017-05-17T10:47:33.754</time>
      </trkpt>
      <trkpt lat="48.4371" lon="2.74358">
        <ele>127</ele>
        <time>2017-05-17T10:47:34.755</time>
      </trkpt>
      <trkpt lat="48.4371" lon="2.74358">
        <ele>126</ele>
        <time>2017-05-17T10:47:35.754</time>
      </trkpt>
      <trkpt lat="48.43709" lon="2.74356">
        <ele>126</ele>
        <time>2017-05-17T10:47:36.754</time>
      </trkpt>
      <trkpt lat="48.43708" lon="2.74357">
        <ele>126</ele>
        <time>2017-05-17T10:47:37.754</time>
      </trkpt>
      <trkpt lat="48.43709" lon="2.74357">
        <ele>126</ele>
        <time>2017-05-17T10:47:38.755</time>
      </trkpt>
      <trkpt lat="48.43708" lon="2.74357">
        <ele>127</ele>
        <time>2017-05-17T10:47:39.754</time>
      </trkpt>
      <trkpt lat="48.43708" lon="2.74357">
        <ele>127</ele>
        <time>2017-05-17T10:47:40.751</time>
      </trkpt>
      <trkpt lat="48.43708" lon="2.74358">
        <ele>127</ele>
        <time>2017-05-17T10:47:41.750</time>
      </trkpt>
      <trkpt lat="48.43707" lon="2.74357">
        <ele>126</ele>
        <time>2017-05-17T10:47:42.753</time>
      </trkpt>
      <trkpt lat="48.43706" lon="2.74358">
        <ele>125</ele>
        <time>2017-05-17T10:47:43.754</time>
      </trkpt>
      <trkpt lat="48.43706" lon="2.74357">
        <ele>125</ele>
        <time>2017-05-17T10:47:44.753</time>
      </trkpt>
      <trkpt lat="48.43706" lon="2.74358">
        <ele>126</ele>
        <time>2017-05-17T10:47:45.755</time>
      </trkpt>
      <trkpt lat="48.43705" lon="2.74357">
        <ele>126</ele>
        <time>2017-05-17T10:47:46.753</time>
      </trkpt>
      <trkpt lat="48.43705" lon="2.74356">
        <ele>127</ele>
        <time>2017-05-17T10:47:47.754</time>
      </trkpt>
      <trkpt lat="48.43705" lon="2.74356">
        <ele>127</ele>
        <time>2017-05-17T10:47:48.751</time>
      </trkpt>
      <trkpt lat="48.43704" lon="2.74357">
        <ele>129</ele>
        <time>2017-05-17T10:47:49.752</time>
      </trkpt>
      <trkpt lat="48.43704" lon="2.74356">
        <ele>129</ele>
        <time>2017-05-17T10:47:50.752</time>
      </trkpt>
      <trkpt lat="48.43704" lon="2.74357">
        <ele>129</ele>
        <time>2017-05-17T10:47:51.753</time>
      </trkpt>
      <trkpt lat="48.43704" lon="2.74357">
        <ele>131</ele>
        <time>2017-05-17T10:47:52.751</time>
      </trkpt>
      <trkpt lat="48.43703" lon="2.74357">
        <ele>130</ele>
        <time>2017-05-17T10:47:53.754</time>
      </trkpt>
      <trkpt lat="48.43702" lon="2.74356">
        <ele>131</ele>
        <time>2017-05-17T10:47:54.757</time>
      </trkpt>
      <trkpt lat="48.43702" lon="2.74356">
        <ele>131</ele>
        <time>2017-05-17T10:47:55.755</time>
      </trkpt>
      <trkpt lat="48.43702" lon="2.74356">
        <ele>131</ele>
        <time>2017-05-17T10:47:56.755</time>
      </trkpt>
      <trkpt lat="48.43698" lon="2.74354">
        <ele>129</ele>
        <time>2017-05-17T10:47:57.757</time>
      </trkpt>
      <trkpt lat="48.43695" lon="2.74354">
        <ele>129</ele>
        <time>2017-05-17T10:47:58.754</time>
      </trkpt>
      <trkpt lat="48.43692" lon="2.74353">
        <ele>129</ele>
        <time>2017-05-17T10:47:59.754</time>
      </trkpt>
      <trkpt lat="48.43687" lon="2.74351">
        <ele>130</ele>
        <time>2017-05-17T10:48:00.755</time>
      </trkpt>
      <trkpt lat="48.43684" lon="2.74352">
        <ele>131</ele>
        <time>2017-05-17T10:48:01.755</time>
      </trkpt>
      <trkpt lat="48.43681" lon="2.74352">
        <ele>131</ele>
        <time>2017-05-17T10:48:02.754</time>
      </trkpt>
      <trkpt lat="48.43679" lon="2.74351">
        <ele>131</ele>
        <time>2017-05-17T10:48:03.756</time>
      </trkpt>
      <trkpt lat="48.43676" lon="2.74351">
        <ele>133</ele>
        <time>2017-05-17T10:48:04.757</time>
      </trkpt>
      <trkpt lat="48.43673" lon="2.74351">
        <ele>133</ele>
        <time>2017-05-17T10:48:05.755</time>
      </trkpt>
      <trkpt lat="48.43669" lon="2.74351">
        <ele>132</ele>
        <time>2017-05-17T10:48:06.755</time>
      </trkpt>
      <trkpt lat="48.43667" lon="2.7435">
        <ele>132</ele>
        <time>2017-05-17T10:48:07.755</time>
      </trkpt>
      <trkpt lat="48.43664" lon="2.74348">
        <ele>132</ele>
        <time>2017-05-17T10:48:08.755</time>
      </trkpt>
      <trkpt lat="48.43662" lon="2.74348">
        <ele>130</ele>
        <time>2017-05-17T10:48:09.756</time>
      </trkpt>
      <trkpt lat="48.43659" lon="2.74348">
        <ele>130</ele>
        <time>2017-05-17T10:48:10.756</time>
      </trkpt>
      <trkpt lat="48.43656" lon="2.74348">
        <ele>129</ele>
        <time>2017-05-17T10:48:11.756</time>
      </trkpt>
      <trkpt lat="48.43653" lon="2.74346">
        <ele>129</ele>
        <time>2017-05-17T10:48:12.758</time>
      </trkpt>
      <trkpt lat="48.43651" lon="2.74345">
        <ele>129</ele>
        <time>2017-05-17T10:48:13.756</time>
      </trkpt>
      <trkpt lat="48.43647" lon="2.74345">
        <ele>128</ele>
        <time>2017-05-17T10:48:14.756</time>
      </trkpt>
      <trkpt lat="48.43644" lon="2.74343">
        <ele>127</ele>
        <time>2017-05-17T10:48:15.756</time>
      </trkpt>
      <trkpt lat="48.43639" lon="2.74343">
        <ele>127</ele>
        <time>2017-05-17T10:48:16.758</time>
      </trkpt>
      <trkpt lat="48.43636" lon="2.74341">
        <ele>126</ele>
        <time>2017-05-17T10:48:17.757</time>
      </trkpt>
      <trkpt lat="48.43632" lon="2.74339">
        <ele>126</ele>
        <time>2017-05-17T10:48:18.756</time>
      </trkpt>
      <trkpt lat="48.43628" lon="2.74336">
        <ele>126</ele>
        <time>2017-05-17T10:48:19.755</time>
      </trkpt>
      <trkpt lat="48.43623" lon="2.74334">
        <ele>125</ele>
        <time>2017-05-17T10:48:20.754</time>
      </trkpt>
      <trkpt lat="48.43618" lon="2.74334">
        <ele>126</ele>
        <time>2017-05-17T10:48:21.754</time>
      </trkpt>
      <trkpt lat="48.43614" lon="2.74332">
        <ele>126</ele>
        <time>2017-05-17T10:48:22.753</time>
      </trkpt>
      <trkpt lat="48.4361" lon="2.7433">
        <ele>127</ele>
        <time>2017-05-17T10:48:23.753</time>
      </trkpt>
      <trkpt lat="48.43604" lon="2.74328">
        <ele>128</ele>
        <time>2017-05-17T10:48:24.755</time>
      </trkpt>
      <trkpt lat="48.436" lon="2.74327">
        <ele>128</ele>
        <time>2017-05-17T10:48:25.755</time>
      </trkpt>
      <trkpt lat="48.43595" lon="2.74326">
        <ele>128</ele>
        <time>2017-05-17T10:48:26.755</time>
      </trkpt>
      <trkpt lat="48.43591" lon="2.74325">
        <ele>127</ele>
        <time>2017-05-17T10:48:27.755</time>
      </trkpt>
      <trkpt lat="48.43586" lon="2.74323">
        <ele>126</ele>
        <time>2017-05-17T10:48:28.755</time>
      </trkpt>
      <trkpt lat="48.43581" lon="2.74325">
        <ele>127</ele>
        <time>2017-05-17T10:48:29.753</time>
      </trkpt>
      <trkpt lat="48.43576" lon="2.74323">
        <ele>127</ele>
        <time>2017-05-17T10:48:30.754</time>
      </trkpt>
      <trkpt lat="48.43569" lon="2.74325">
        <ele>127</ele>
        <time>2017-05-17T10:48:31.756</time>
      </trkpt>
      <trkpt lat="48.43563" lon="2.74326">
        <ele>127</ele>
        <time>2017-05-17T10:48:32.756</time>
      </trkpt>
      <trkpt lat="48.43558" lon="2.74325">
        <ele>127</ele>
        <time>2017-05-17T10:48:33.754</time>
      </trkpt>
      <trkpt lat="48.43552" lon="2.74324">
        <ele>127</ele>
        <time>2017-05-17T10:48:34.756</time>
      </trkpt>
      <trkpt lat="48.43546" lon="2.74323">
        <ele>126</ele>
        <time>2017-05-17T10:48:35.755</time>
      </trkpt>
      <trkpt lat="48.4354" lon="2.74322">
        <ele>125</ele>
        <time>2017-05-17T10:48:36.755</time>
      </trkpt>
      <trkpt lat="48.43536" lon="2.7432">
        <ele>125</ele>
        <time>2017-05-17T10:48:37.753</time>
      </trkpt>
      <trkpt lat="48.43529" lon="2.7432">
        <ele>125</ele>
        <time>2017-05-17T10:48:38.753</time>
      </trkpt>
      <trkpt lat="48.43524" lon="2.7432">
        <ele>125</ele>
        <time>2017-05-17T10:48:39.753</time>
      </trkpt>
      <trkpt lat="48.43519" lon="2.74317">
        <ele>125</ele>
        <time>2017-05-17T10:48:40.753</time>
      </trkpt>
      <trkpt lat="48.43514" lon="2.74314">
        <ele>125</ele>
        <time>2017-05-17T10:48:41.754</time>
      </trkpt>
      <trkpt lat="48.43507" lon="2.74312">
        <ele>126</ele>
        <time>2017-05-17T10:48:42.754</time>
      </trkpt>
      <trkpt lat="48.43501" lon="2.7431">
        <ele>127</ele>
        <time>2017-05-17T10:48:43.754</time>
      </trkpt>
      <trkpt lat="48.43496" lon="2.74304">
        <ele>126</ele>
        <time>2017-05-17T10:48:44.753</time>
      </trkpt>
      <trkpt lat="48.43491" lon="2.74299">
        <ele>126</ele>
        <time>2017-05-17T10:48:45.754</time>
      </trkpt>
      <trkpt lat="48.43487" lon="2.74294">
        <ele>125</ele>
        <time>2017-05-17T10:48:46.754</time>
      </trkpt>
      <trkpt lat="48.43483" lon="2.7429">
        <ele>126</ele>
        <time>2017-05-17T10:48:47.754</time>
      </trkpt>
      <trkpt lat="48.4348" lon="2.74284">
        <ele>126</ele>
        <time>2017-05-17T10:48:48.755</time>
      </trkpt>
      <trkpt lat="48.43478" lon="2.7428">
        <ele>126</ele>
        <time>2017-05-17T10:48:49.754</time>
      </trkpt>
      <trkpt lat="48.43475" lon="2.74276">
        <ele>127</ele>
        <time>2017-05-17T10:48:50.753</time>
      </trkpt>
      <trkpt lat="48.43473" lon="2.74272">
        <ele>126</ele>
        <time>2017-05-17T10:48:51.753</time>
      </trkpt>
      <trkpt lat="48.4347" lon="2.7427">
        <ele>127</ele>
        <time>2017-05-17T10:48:52.753</time>
      </trkpt>
      <trkpt lat="48.43468" lon="2.74269">
        <ele>127</ele>
        <time>2017-05-17T10:48:53.753</time>
      </trkpt>
      <trkpt lat="48.43465" lon="2.74267">
        <ele>126</ele>
        <time>2017-05-17T10:48:54.752</time>
      </trkpt>
      <trkpt lat="48.43461" lon="2.74266">
        <ele>126</ele>
        <time>2017-05-17T10:48:55.753</time>
      </trkpt>
      <trkpt lat="48.43458" lon="2.74266">
        <ele>126</ele>
        <time>2017-05-17T10:48:56.752</time>
      </trkpt>
      <trkpt lat="48.43454" lon="2.74265">
        <ele>126</ele>
        <time>2017-05-17T10:48:57.751</time>
      </trkpt>
      <trkpt lat="48.43451" lon="2.74262">
        <ele>126</ele>
        <time>2017-05-17T10:48:58.753</time>
      </trkpt>
      <trkpt lat="48.43447" lon="2.74263">
        <ele>126</ele>
        <time>2017-05-17T10:48:59.753</time>
      </trkpt>
      <trkpt lat="48.43444" lon="2.74262">
        <ele>126</ele>
        <time>2017-05-17T10:49:00.753</time>
      </trkpt>
      <trkpt lat="48.43441" lon="2.7426">
        <ele>126</ele>
        <time>2017-05-17T10:49:01.753</time>
      </trkpt>
      <trkpt lat="48.43437" lon="2.74257">
        <ele>127</ele>
        <time>2017-05-17T10:49:02.751</time>
      </trkpt>
      <trkpt lat="48.43433" lon="2.74255">
        <ele>127</ele>
        <time>2017-05-17T10:49:03.751</time>
      </trkpt>
      <trkpt lat="48.43432" lon="2.74252">
        <ele>126</ele>
        <time>2017-05-17T10:49:04.753</time>
      </trkpt>
      <trkpt lat="48.43428" lon="2.7425">
        <ele>127</ele>
        <time>2017-05-17T10:49:05.753</time>
      </trkpt>
      <trkpt lat="48.43425" lon="2.7425">
        <ele>126</ele>
        <time>2017-05-17T10:49:06.753</time>
      </trkpt>
      <trkpt lat="48.43423" lon="2.74248">
        <ele>126</ele>
        <time>2017-05-17T10:49:07.754</time>
      </trkpt>
      <trkpt lat="48.43419" lon="2.74247">
        <ele>127</ele>
        <time>2017-05-17T10:49:08.753</time>
      </trkpt>
      <trkpt lat="48.43416" lon="2.74245">
        <ele>127</ele>
        <time>2017-05-17T10:49:09.752</time>
      </trkpt>
      <trkpt lat="48.43413" lon="2.74243">
        <ele>127</ele>
        <time>2017-05-17T10:49:10.753</time>
      </trkpt>
      <trkpt lat="48.4341" lon="2.74243">
        <ele>127</ele>
        <time>2017-05-17T10:49:11.753</time>
      </trkpt>
      <trkpt lat="48.43408" lon="2.74241">
        <ele>127</ele>
        <time>2017-05-17T10:49:12.753</time>
      </trkpt>
      <trkpt lat="48.43404" lon="2.7424">
        <ele>126</ele>
        <time>2017-05-17T10:49:13.753</time>
      </trkpt>
      <trkpt lat="48.43402" lon="2.74237">
        <ele>126</ele>
        <time>2017-05-17T10:49:14.753</time>
      </trkpt>
      <trkpt lat="48.43399" lon="2.74235">
        <ele>125</ele>
        <time>2017-05-17T10:49:15.753</time>
      </trkpt>
      <trkpt lat="48.43398" lon="2.7423">
        <ele>124</ele>
        <time>2017-05-17T10:49:16.753</time>
      </trkpt>
      <trkpt lat="48.43395" lon="2.74228">
        <ele>124</ele>
        <time>2017-05-17T10:49:17.752</time>
      </trkpt>
      <trkpt lat="48.43392" lon="2.74227">
        <ele>125</ele>
        <time>2017-05-17T10:49:18.752</time>
      </trkpt>
      <trkpt lat="48.43389" lon="2.74227">
        <ele>125</ele>
        <time>2017-05-17T10:49:19.753</time>
      </trkpt>
      <trkpt lat="48.43385" lon="2.74225">
        <ele>127</ele>
        <time>2017-05-17T10:49:20.753</time>
      </trkpt>
      <trkpt lat="48.43382" lon="2.74223">
        <ele>127</ele>
        <time>2017-05-17T10:49:21.750</time>
      </trkpt>
      <trkpt lat="48.43378" lon="2.74221">
        <ele>128</ele>
        <time>2017-05-17T10:49:22.752</time>
      </trkpt>
      <trkpt lat="48.43374" lon="2.74219">
        <ele>128</ele>
        <time>2017-05-17T10:49:23.751</time>
      </trkpt>
      <trkpt lat="48.43371" lon="2.74218">
        <ele>130</ele>
        <time>2017-05-17T10:49:24.752</time>
      </trkpt>
      <trkpt lat="48.4337" lon="2.74219">
        <ele>128</ele>
        <time>2017-05-17T10:49:25.753</time>
      </trkpt>
      <trkpt lat="48.43366" lon="2.74217">
        <ele>128</ele>
        <time>2017-05-17T10:49:26.754</time>
      </trkpt>
      <trkpt lat="48.43365" lon="2.74215">
        <ele>128</ele>
        <time>2017-05-17T10:49:27.753</time>
      </trkpt>
      <trkpt lat="48.43361" lon="2.74213">
        <ele>130</ele>
        <time>2017-05-17T10:49:28.752</time>
      </trkpt>
      <trkpt lat="48.43356" lon="2.74211">
        <ele>131</ele>
        <time>2017-05-17T10:49:29.752</time>
      </trkpt>
      <trkpt lat="48.43353" lon="2.74211">
        <ele>131</ele>
        <time>2017-05-17T10:49:30.751</time>
      </trkpt>
      <trkpt lat="48.43349" lon="2.7421">
        <ele>131</ele>
        <time>2017-05-17T10:49:31.752</time>
      </trkpt>
      <trkpt lat="48.43346" lon="2.74209">
        <ele>131</ele>
        <time>2017-05-17T10:49:32.752</time>
      </trkpt>
      <trkpt lat="48.43344" lon="2.74208">
        <ele>131</ele>
        <time>2017-05-17T10:49:33.751</time>
      </trkpt>
      <trkpt lat="48.4334" lon="2.74206">
        <ele>131</ele>
        <time>2017-05-17T10:49:34.750</time>
      </trkpt>
      <trkpt lat="48.43338" lon="2.74204">
        <ele>132</ele>
        <time>2017-05-17T10:49:35.751</time>
      </trkpt>
      <trkpt lat="48.43336" lon="2.74201">
        <ele>131</ele>
        <time>2017-05-17T10:49:36.752</time>
      </trkpt>
      <trkpt lat="48.43334" lon="2.742">
        <ele>131</ele>
        <time>2017-05-17T10:49:37.753</time>
      </trkpt>
      <trkpt lat="48.43331" lon="2.742">
        <ele>131</ele>
        <time>2017-05-17T10:49:38.753</time>
      </trkpt>
      <trkpt lat="48.4333" lon="2.74198">
        <ele>131</ele>
        <time>2017-05-17T10:49:39.752</time>
      </trkpt>
      <trkpt lat="48.43329" lon="2.74196">
        <ele>130</ele>
        <time>2017-05-17T10:49:40.754</time>
      </trkpt>
      <trkpt lat="48.43328" lon="2.74195">
        <ele>130</ele>
        <time>2017-05-17T10:49:41.753</time>
      </trkpt>
      <trkpt lat="48.43326" lon="2.74193">
        <ele>130</ele>
        <time>2017-05-17T10:49:42.754</time>
      </trkpt>
      <trkpt lat="48.43324" lon="2.74192">
        <ele>130</ele>
        <time>2017-05-17T10:49:43.759</time>
      </trkpt>
      <trkpt lat="48.43322" lon="2.7419">
        <ele>129</ele>
        <time>2017-05-17T10:49:44.759</time>
      </trkpt>
      <trkpt lat="48.43321" lon="2.74189">
        <ele>129</ele>
        <time>2017-05-17T10:49:45.760</time>
      </trkpt>
      <trkpt lat="48.43319" lon="2.74188">
        <ele>130</ele>
        <time>2017-05-17T10:49:46.757</time>
      </trkpt>
      <trkpt lat="48.43318" lon="2.74186">
        <ele>129</ele>
        <time>2017-05-17T10:49:47.757</time>
      </trkpt>
      <trkpt lat="48.43316" lon="2.74184">
        <ele>130</ele>
        <time>2017-05-17T10:49:48.760</time>
      </trkpt>
      <trkpt lat="48.43314" lon="2.74182">
        <ele>130</ele>
        <time>2017-05-17T10:49:49.765</time>
      </trkpt>
      <trkpt lat="48.43313" lon="2.7418">
        <ele>129</ele>
        <time>2017-05-17T10:49:50.762</time>
      </trkpt>
      <trkpt lat="48.43311" lon="2.74179">
        <ele>129</ele>
        <time>2017-05-17T10:49:51.768</time>
      </trkpt>
      <trkpt lat="48.4331" lon="2.74177">
        <ele>129</ele>
        <time>2017-05-17T10:49:52.752</time>
      </trkpt>
      <trkpt lat="48.43308" lon="2.74176">
        <ele>129</ele>
        <time>2017-05-17T10:49:53.814</time>
      </trkpt>
      <trkpt lat="48.43306" lon="2.74175">
        <ele>129</ele>
        <time>2017-05-17T10:49:54.753</time>
      </trkpt>
      <trkpt lat="48.43305" lon="2.74172">
        <ele>129</ele>
        <time>2017-05-17T10:49:55.750</time>
      </trkpt>
      <trkpt lat="48.43304" lon="2.74171">
        <ele>129</ele>
        <time>2017-05-17T10:49:56.752</time>
      </trkpt>
      <trkpt lat="48.43303" lon="2.7417">
        <ele>128</ele>
        <time>2017-05-17T10:49:57.753</time>
      </trkpt>
      <trkpt lat="48.43301" lon="2.74168">
        <ele>128</ele>
        <time>2017-05-17T10:49:58.755</time>
      </trkpt>
      <trkpt lat="48.43299" lon="2.74165">
        <ele>128</ele>
        <time>2017-05-17T10:49:59.753</time>
      </trkpt>
      <trkpt lat="48.43297" lon="2.74163">
        <ele>128</ele>
        <time>2017-05-17T10:50:00.753</time>
      </trkpt>
      <trkpt lat="48.43296" lon="2.74161">
        <ele>128</ele>
        <time>2017-05-17T10:50:01.754</time>
      </trkpt>
      <trkpt lat="48.43295" lon="2.7416">
        <ele>128</ele>
        <time>2017-05-17T10:50:02.753</time>
      </trkpt>
      <trkpt lat="48.43294" lon="2.74158">
        <ele>128</ele>
        <time>2017-05-17T10:50:03.753</time>
      </trkpt>
      <trkpt lat="48.43293" lon="2.74156">
        <ele>128</ele>
        <time>2017-05-17T10:50:04.754</time>
      </trkpt>
      <trkpt lat="48.43292" lon="2.74154">
        <ele>129</ele>
        <time>2017-05-17T10:50:05.753</time>
      </trkpt>
      <trkpt lat="48.43291" lon="2.74152">
        <ele>129</ele>
        <time>2017-05-17T10:50:06.753</time>
      </trkpt>
      <trkpt lat="48.43291" lon="2.74151">
        <ele>128</ele>
        <time>2017-05-17T10:50:07.753</time>
      </trkpt>
      <trkpt lat="48.43291" lon="2.74149">
        <ele>130</ele>
        <time>2017-05-17T10:50:08.754</time>
      </trkpt>
      <trkpt lat="48.43292" lon="2.74147">
        <ele>130</ele>
        <time>2017-05-17T10:50:09.754</time>
      </trkpt>
      <trkpt lat="48.43293" lon="2.74145">
        <ele>131</ele>
        <time>2017-05-17T10:50:10.753</time>
      </trkpt>
      <trkpt lat="48.43294" lon="2.74143">
        <ele>131</ele>
        <time>2017-05-17T10:50:11.754</time>
      </trkpt>
      <trkpt lat="48.43296" lon="2.74142">
        <ele>132</ele>
        <time>2017-05-17T10:50:12.752</time>
      </trkpt>
      <trkpt lat="48.43297" lon="2.7414">
        <ele>132</ele>
        <time>2017-05-17T10:50:13.755</time>
      </trkpt>
      <trkpt lat="48.43299" lon="2.74138">
        <ele>132</ele>
        <time>2017-05-17T10:50:14.755</time>
      </trkpt>
      <trkpt lat="48.43301" lon="2.74137">
        <ele>132</ele>
        <time>2017-05-17T10:50:15.754</time>
      </trkpt>
      <trkpt lat="48.43302" lon="2.74134">
        <ele>133</ele>
        <time>2017-05-17T10:50:16.755</time>
      </trkpt>
      <trkpt lat="48.43304" lon="2.74132">
        <ele>133</ele>
        <time>2017-05-17T10:50:17.755</time>
      </trkpt>
      <trkpt lat="48.43305" lon="2.7413">
        <ele>134</ele>
        <time>2017-05-17T10:50:18.754</time>
      </trkpt>
      <trkpt lat="48.43306" lon="2.74127">
        <ele>134</ele>
        <time>2017-05-17T10:50:19.754</time>
      </trkpt>
      <trkpt lat="48.43307" lon="2.74125">
        <ele>135</ele>
        <time>2017-05-17T10:50:20.755</time>
      </trkpt>
      <trkpt lat="48.43308" lon="2.74124">
        <ele>135</ele>
        <time>2017-05-17T10:50:21.755</time>
      </trkpt>
      <trkpt lat="48.4331" lon="2.74122">
        <ele>136</ele>
        <time>2017-05-17T10:50:22.754</time>
      </trkpt>
      <trkpt lat="48.43311" lon="2.7412">
        <ele>136</ele>
        <time>2017-05-17T10:50:23.754</time>
      </trkpt>
      <trkpt lat="48.43312" lon="2.74119">
        <ele>136</ele>
        <time>2017-05-17T10:50:24.755</time>
      </trkpt>
      <trkpt lat="48.43313" lon="2.74116">
        <ele>137</ele>
        <time>2017-05-17T10:50:25.755</time>
      </trkpt>
      <trkpt lat="48.43315" lon="2.74114">
        <ele>138</ele>
        <time>2017-05-17T10:50:26.754</time>
      </trkpt>
      <trkpt lat="48.43316" lon="2.74113">
        <ele>138</ele>
        <time>2017-05-17T10:50:27.755</time>
      </trkpt>
      <trkpt lat="48.43318" lon="2.74111">
        <ele>137</ele>
        <time>2017-05-17T10:50:28.754</time>
      </trkpt>
      <trkpt lat="48.43319" lon="2.74109">
        <ele>138</ele>
        <time>2017-05-17T10:50:29.753</time>
      </trkpt>
      <trkpt lat="48.43321" lon="2.74107">
        <ele>138</ele>
        <time>2017-05-17T10:50:30.753</time>
      </trkpt>
      <trkpt lat="48.43322" lon="2.74105">
        <ele>138</ele>
        <time>2017-05-17T10:50:31.753</time>
      </trkpt>
      <trkpt lat="48.43323" lon="2.74103">
        <ele>139</ele>
        <time>2017-05-17T10:50:32.752</time>
      </trkpt>
      <trkpt lat="48.43325" lon="2.741">
        <ele>139</ele>
        <time>2017-05-17T10:50:33.754</time>
      </trkpt>
      <trkpt lat="48.43326" lon="2.74098">
        <ele>139</ele>
        <time>2017-05-17T10:50:34.755</time>
      </trkpt>
      <trkpt lat="48.43327" lon="2.74096">
        <ele>139</ele>
        <time>2017-05-17T10:50:35.754</time>
      </trkpt>
      <trkpt lat="48.43328" lon="2.74094">
        <ele>139</ele>
        <time>2017-05-17T10:50:36.753</time>
      </trkpt>
      <trkpt lat="48.4333" lon="2.74091">
        <ele>139</ele>
        <time>2017-05-17T10:50:37.753</time>
      </trkpt>
      <trkpt lat="48.4333" lon="2.74088">
        <ele>140</ele>
        <time>2017-05-17T10:50:38.754</time>
      </trkpt>
      <trkpt lat="48.43332" lon="2.74086">
        <ele>140</ele>
        <time>2017-05-17T10:50:39.754</time>
      </trkpt>
      <trkpt lat="48.43333" lon="2.74083">
        <ele>141</ele>
        <time>2017-05-17T10:50:40.754</time>
      </trkpt>
      <trkpt lat="48.43334" lon="2.74081">
        <ele>141</ele>
        <time>2017-05-17T10:50:41.753</time>
      </trkpt>
      <trkpt lat="48.43336" lon="2.7408">
        <ele>142</ele>
        <time>2017-05-17T10:50:42.753</time>
      </trkpt>
      <trkpt lat="48.43337" lon="2.74077">
        <ele>142</ele>
        <time>2017-05-17T10:50:43.752</time>
      </trkpt>
      <trkpt lat="48.43338" lon="2.74076">
        <ele>142</ele>
        <time>2017-05-17T10:50:44.754</time>
      </trkpt>
      <trkpt lat="48.43339" lon="2.74074">
        <ele>142</ele>
        <time>2017-05-17T10:50:45.753</time>
      </trkpt>
      <trkpt lat="48.43341" lon="2.74072">
        <ele>142</ele>
        <time>2017-05-17T10:50:46.751</time>
      </trkpt>
      <trkpt lat="48.43342" lon="2.7407">
        <ele>142</ele>
        <time>2017-05-17T10:50:47.754</time>
      </trkpt>
      <trkpt lat="48.43344" lon="2.74068">
        <ele>142</ele>
        <time>2017-05-17T10:50:48.754</time>
      </trkpt>
      <trkpt lat="48.43345" lon="2.74068">
        <ele>142</ele>
        <time>2017-05-17T10:50:49.754</time>
      </trkpt>
      <trkpt lat="48.43347" lon="2.7407">
        <ele>142</ele>
        <time>2017-05-17T10:50:50.752</time>
      </trkpt>
      <trkpt lat="48.43347" lon="2.74071">
        <ele>141</ele>
        <time>2017-05-17T10:50:51.753</time>
      </trkpt>
      <trkpt lat="48.43348" lon="2.74072">
        <ele>141</ele>
        <time>2017-05-17T10:50:52.753</time>
      </trkpt>
      <trkpt lat="48.43348" lon="2.74072">
        <ele>141</ele>
        <time>2017-05-17T10:50:53.752</time>
      </trkpt>
      <trkpt lat="48.43348" lon="2.74071">
        <ele>141</ele>
        <time>2017-05-17T10:50:54.751</time>
      </trkpt>
      <trkpt lat="48.43348" lon="2.74072">
        <ele>141</ele>
        <time>2017-05-17T10:50:55.752</time>
      </trkpt>
      <trkpt lat="48.43348" lon="2.74073">
        <ele>140</ele>
        <time>2017-05-17T10:50:56.752</time>
      </trkpt>
      <trkpt lat="48.43348" lon="2.74073">
        <ele>140</ele>
        <time>2017-05-17T10:50:57.751</time>
      </trkpt>
      <trkpt lat="48.43348" lon="2.74074">
        <ele>140</ele>
        <time>2017-05-17T10:50:58.750</time>
      </trkpt>
      <trkpt lat="48.43349" lon="2.74075">
        <ele>139</ele>
        <time>2017-05-17T10:50:59.754</time>
      </trkpt>
      <trkpt lat="48.4335" lon="2.74075">
        <ele>139</ele>
        <time>2017-05-17T10:51:00.752</time>
      </trkpt>
      <trkpt lat="48.43351" lon="2.74076">
        <ele>139</ele>
        <time>2017-05-17T10:51:01.753</time>
      </trkpt>
      <trkpt lat="48.43352" lon="2.74077">
        <ele>138</ele>
        <time>2017-05-17T10:51:02.753</time>
      </trkpt>
      <trkpt lat="48.43352" lon="2.74077">
        <ele>137</ele>
        <time>2017-05-17T10:51:03.754</time>
      </trkpt>
      <trkpt lat="48.43352" lon="2.74077">
        <ele>138</ele>
        <time>2017-05-17T10:51:04.753</time>
      </trkpt>
      <trkpt lat="48.43353" lon="2.74077">
        <ele>139</ele>
        <time>2017-05-17T10:51:05.752</time>
      </trkpt>
      <trkpt lat="48.43353" lon="2.74077">
        <ele>139</ele>
        <time>2017-05-17T10:51:06.752</time>
      </trkpt>
      <trkpt lat="48.43353" lon="2.74077">
        <ele>138</ele>
        <time>2017-05-17T10:51:07.751</time>
      </trkpt>
      <trkpt lat="48.43353" lon="2.74076">
        <ele>138</ele>
        <time>2017-05-17T10:51:08.750</time>
      </trkpt>
      <trkpt lat="48.43353" lon="2.74077">
        <ele>138</ele>
        <time>2017-05-17T10:51:09.751</time>
      </trkpt>
      <trkpt lat="48.43353" lon="2.74077">
        <ele>138</ele>
        <time>2017-05-17T10:51:10.752</time>
      </trkpt>
      <trkpt lat="48.43353" lon="2.74076">
        <ele>138</ele>
        <time>2017-05-17T10:51:11.752</time>
      </trkpt>
      <trkpt lat="48.43353" lon="2.74076">
        <ele>138</ele>
        <time>2017-05-17T10:51:12.752</time>
      </trkpt>
      <trkpt lat="48.43354" lon="2.74077">
        <ele>138</ele>
        <time>2017-05-17T10:51:13.753</time>
      </trkpt>
      <trkpt lat="48.43353" lon="2.74077">
        <ele>138</ele>
        <time>2017-05-17T10:51:14.754</time>
      </trkpt>
      <trkpt lat="48.43353" lon="2.74077">
        <ele>139</ele>
        <time>2017-05-17T10:51:15.753</time>
      </trkpt>
      <trkpt lat="48.43353" lon="2.74077">
        <ele>139</ele>
        <time>2017-05-17T10:51:16.752</time>
      </trkpt>
      <trkpt lat="48.43353" lon="2.74077">
        <ele>140</ele>
        <time>2017-05-17T10:51:17.752</time>
      </trkpt>
      <trkpt lat="48.43353" lon="2.74077">
        <ele>140</ele>
        <time>2017-05-17T10:51:18.752</time>
      </trkpt>
      <trkpt lat="48.43353" lon="2.74077">
        <ele>141</ele>
        <time>2017-05-17T10:51:19.751</time>
      </trkpt>
      <trkpt lat="48.43353" lon="2.74077">
        <ele>141</ele>
        <time>2017-05-17T10:51:20.751</time>
      </trkpt>
      <trkpt lat="48.43353" lon="2.74077">
        <ele>141</ele>
        <time>2017-05-17T10:51:21.753</time>
      </trkpt>
      <trkpt lat="48.43353" lon="2.74077">
        <ele>141</ele>
        <time>2017-05-17T10:51:22.755</time>
      </trkpt>
      <trkpt lat="48.43353" lon="2.74078">
        <ele>142</ele>
        <time>2017-05-17T10:51:23.755</time>
      </trkpt>
      <trkpt lat="48.43354" lon="2.7408">
        <ele>141</ele>
        <time>2017-05-17T10:51:24.754</time>
      </trkpt>
      <trkpt lat="48.43354" lon="2.74081">
        <ele>141</ele>
        <time>2017-05-17T10:51:25.754</time>
      </trkpt>
      <trkpt lat="48.43355" lon="2.7408">
        <ele>141</ele>
        <time>2017-05-17T10:51:26.753</time>
      </trkpt>
      <trkpt lat="48.43356" lon="2.74081">
        <ele>141</ele>
        <time>2017-05-17T10:51:27.753</time>
      </trkpt>
      <trkpt lat="48.43358" lon="2.74081">
        <ele>141</ele>
        <time>2017-05-17T10:51:28.753</time>
      </trkpt>
      <trkpt lat="48.43359" lon="2.74081">
        <ele>140</ele>
        <time>2017-05-17T10:51:29.755</time>
      </trkpt>
      <trkpt lat="48.43359" lon="2.74081">
        <ele>140</ele>
        <time>2017-05-17T10:51:30.755</time>
      </trkpt>
      <trkpt lat="48.43359" lon="2.74081">
        <ele>141</ele>
        <time>2017-05-17T10:51:31.753</time>
      </trkpt>
      <trkpt lat="48.43359" lon="2.74081">
        <ele>141</ele>
        <time>2017-05-17T10:51:32.752</time>
      </trkpt>
      <trkpt lat="48.43359" lon="2.7408">
        <ele>140</ele>
        <time>2017-05-17T10:51:33.753</time>
      </trkpt>
      <trkpt lat="48.43359" lon="2.74081">
        <ele>141</ele>
        <time>2017-05-17T10:51:34.752</time>
      </trkpt>
      <trkpt lat="48.43359" lon="2.74081">
        <ele>140</ele>
        <time>2017-05-17T10:51:35.753</time>
      </trkpt>
      <trkpt lat="48.43359" lon="2.74081">
        <ele>140</ele>
        <time>2017-05-17T10:51:36.753</time>
      </trkpt>
      <trkpt lat="48.4336" lon="2.74082">
        <ele>139</ele>
        <time>2017-05-17T10:51:37.752</time>
      </trkpt>
      <trkpt lat="48.4336" lon="2.74083">
        <ele>139</ele>
        <time>2017-05-17T10:51:38.752</time>
      </trkpt>
      <trkpt lat="48.4336" lon="2.74083">
        <ele>139</ele>
        <time>2017-05-17T10:51:39.751</time>
      </trkpt>
      <trkpt lat="48.4336" lon="2.74083">
        <ele>139</ele>
        <time>2017-05-17T10:51:40.750</time>
      </trkpt>
      <trkpt lat="48.43361" lon="2.74084">
        <ele>139</ele>
        <time>2017-05-17T10:51:41.750</time>
      </trkpt>
      <trkpt lat="48.43361" lon="2.74083">
        <ele>139</ele>
        <time>2017-05-17T10:51:42.752</time>
      </trkpt>
      <trkpt lat="48.43361" lon="2.74083">
        <ele>139</ele>
        <time>2017-05-17T10:51:43.752</time>
      </trkpt>
      <trkpt lat="48.43361" lon="2.74083">
        <ele>139</ele>
        <time>2017-05-17T10:51:44.751</time>
      </trkpt>
      <trkpt lat="48.43361" lon="2.74083">
        <ele>139</ele>
        <time>2017-05-17T10:51:45.752</time>
      </trkpt>
      <trkpt lat="48.43361" lon="2.74084">
        <ele>139</ele>
        <time>2017-05-17T10:51:46.752</time>
      </trkpt>
      <trkpt lat="48.43361" lon="2.74084">
        <ele>139</ele>
        <time>2017-05-17T10:51:47.750</time>
      </trkpt>
      <trkpt lat="48.43361" lon="2.74084">
        <ele>139</ele>
        <time>2017-05-17T10:51:48.752</time>
      </trkpt>
      <trkpt lat="48.43361" lon="2.74084">
        <ele>139</ele>
        <time>2017-05-17T10:51:49.789</time>
      </trkpt>
      <trkpt lat="48.43361" lon="2.74084">
        <ele>139</ele>
        <time>2017-05-17T10:51:50.752</time>
      </trkpt>
      <trkpt lat="48.43361" lon="2.74084">
        <ele>139</ele>
        <time>2017-05-17T10:51:51.753</time>
      </trkpt>
      <trkpt lat="48.43361" lon="2.74084">
        <ele>139</ele>
        <time>2017-05-17T10:51:52.751</time>
      </trkpt>
      <trkpt lat="48.43361" lon="2.74084">
        <ele>139</ele>
        <time>2017-05-17T10:51:53.751</time>
      </trkpt>
      <trkpt lat="48.43361" lon="2.74084">
        <ele>139</ele>
        <time>2017-05-17T10:51:54.750</time>
      </trkpt>
      <trkpt lat="48.43361" lon="2.74084">
        <ele>139</ele>
        <time>2017-05-17T10:51:55.750</time>
      </trkpt>
      <trkpt lat="48.43362" lon="2.74085">
        <ele>140</ele>
        <time>2017-05-17T10:51:56.753</time>
      </trkpt>
      <trkpt lat="48.43362" lon="2.74085">
        <ele>140</ele>
        <time>2017-05-17T10:51:57.751</time>
      </trkpt>
      <trkpt lat="48.43362" lon="2.74085">
        <ele>140</ele>
        <time>2017-05-17T10:51:58.750</time>
      </trkpt>
      <trkpt lat="48.43362" lon="2.74085">
        <ele>140</ele>
        <time>2017-05-17T10:51:59.750</time>
      </trkpt>
      <trkpt lat="48.43362" lon="2.74085">
        <ele>140</ele>
        <time>2017-05-17T10:52:00.751</time>
      </trkpt>
      <trkpt lat="48.43362" lon="2.74084">
        <ele>140</ele>
        <time>2017-05-17T10:52:01.751</time>
      </trkpt>
      <trkpt lat="48.43363" lon="2.74084">
        <ele>139</ele>
        <time>2017-05-17T10:52:02.751</time>
      </trkpt>
      <trkpt lat="48.43363" lon="2.74084">
        <ele>139</ele>
        <time>2017-05-17T10:52:03.751</time>
      </trkpt>
      <trkpt lat="48.43363" lon="2.74084">
        <ele>139</ele>
        <time>2017-05-17T10:52:04.757</time>
      </trkpt>
      <trkpt lat="48.43363" lon="2.74083">
        <ele>139</ele>
        <time>2017-05-17T10:52:05.751</time>
      </trkpt>
      <trkpt lat="48.43363" lon="2.74083">
        <ele>139</ele>
        <time>2017-05-17T10:52:06.750</time>
      </trkpt>
      <trkpt lat="48.43363" lon="2.74083">
        <ele>138</ele>
        <time>2017-05-17T10:52:07.751</time>
      </trkpt>
      <trkpt lat="48.43363" lon="2.74083">
        <ele>139</ele>
        <time>2017-05-17T10:52:08.750</time>
      </trkpt>
      <trkpt lat="48.43363" lon="2.74083">
        <ele>139</ele>
        <time>2017-05-17T10:52:09.749</time>
      </trkpt>
      <trkpt lat="48.43363" lon="2.74083">
        <ele>139</ele>
        <time>2017-05-17T10:52:10.750</time>
      </trkpt>
      <trkpt lat="48.43363" lon="2.74083">
        <ele>139</ele>
        <time>2017-05-17T10:52:11.748</time>
      </trkpt>
      <trkpt lat="48.43363" lon="2.74083">
        <ele>140</ele>
        <time>2017-05-17T10:52:12.749</time>
      </trkpt>
      <trkpt lat="48.43363" lon="2.74083">
        <ele>140</ele>
        <time>2017-05-17T10:52:13.749</time>
      </trkpt>
      <trkpt lat="48.43363" lon="2.74082">
        <ele>140</ele>
        <time>2017-05-17T10:52:14.750</time>
      </trkpt>
      <trkpt lat="48.43362" lon="2.74081">
        <ele>140</ele>
        <time>2017-05-17T10:52:15.753</time>
      </trkpt>
      <trkpt lat="48.43362" lon="2.7408">
        <ele>141</ele>
        <time>2017-05-17T10:52:16.752</time>
      </trkpt>
      <trkpt lat="48.43361" lon="2.74081">
        <ele>140</ele>
        <time>2017-05-17T10:52:17.760</time>
      </trkpt>
      <trkpt lat="48.43361" lon="2.7408">
        <ele>140</ele>
        <time>2017-05-17T10:52:18.753</time>
      </trkpt>
      <trkpt lat="48.43361" lon="2.7408">
        <ele>140</ele>
        <time>2017-05-17T10:52:19.760</time>
      </trkpt>
      <trkpt lat="48.43361" lon="2.74081">
        <ele>139</ele>
        <time>2017-05-17T10:52:20.751</time>
      </trkpt>
      <trkpt lat="48.43361" lon="2.74081">
        <ele>138</ele>
        <time>2017-05-17T10:52:21.753</time>
      </trkpt>
      <trkpt lat="48.43361" lon="2.74082">
        <ele>138</ele>
        <time>2017-05-17T10:52:22.754</time>
      </trkpt>
      <trkpt lat="48.43361" lon="2.74083">
        <ele>138</ele>
        <time>2017-05-17T10:52:23.755</time>
      </trkpt>
      <trkpt lat="48.43361" lon="2.74083">
        <ele>137</ele>
        <time>2017-05-17T10:52:24.753</time>
      </trkpt>
      <trkpt lat="48.43362" lon="2.74083">
        <ele>136</ele>
        <time>2017-05-17T10:52:25.754</time>
      </trkpt>
      <trkpt lat="48.43361" lon="2.74084">
        <ele>137</ele>
        <time>2017-05-17T10:52:26.751</time>
      </trkpt>
      <trkpt lat="48.43361" lon="2.74084">
        <ele>137</ele>
        <time>2017-05-17T10:52:27.750</time>
      </trkpt>
      <trkpt lat="48.43361" lon="2.74084">
        <ele>137</ele>
        <time>2017-05-17T10:52:28.749</time>
      </trkpt>
      <trkpt lat="48.43361" lon="2.74084">
        <ele>137</ele>
        <time>2017-05-17T10:52:29.749</time>
      </trkpt>
      <trkpt lat="48.43362" lon="2.74084">
        <ele>138</ele>
        <time>2017-05-17T10:52:30.753</time>
      </trkpt>
      <trkpt lat="48.43362" lon="2.74084">
        <ele>138</ele>
        <time>2017-05-17T10:52:31.749</time>
      </trkpt>
      <trkpt lat="48.43362" lon="2.74084">
        <ele>138</ele>
        <time>2017-05-17T10:52:32.753</time>
      </trkpt>
      <trkpt lat="48.43362" lon="2.74084">
        <ele>138</ele>
        <time>2017-05-17T10:52:33.750</time>
      </trkpt>
      <trkpt lat="48.43362" lon="2.74084">
        <ele>138</ele>
        <time>2017-05-17T10:52:34.751</time>
      </trkpt>
      <trkpt lat="48.43362" lon="2.74084">
        <ele>138</ele>
        <time>2017-05-17T10:52:35.748</time>
      </trkpt>
      <trkpt lat="48.43362" lon="2.74084">
        <ele>139</ele>
        <time>2017-05-17T10:52:36.753</time>
      </trkpt>
      <trkpt lat="48.43362" lon="2.74084">
        <ele>139</ele>
        <time>2017-05-17T10:52:37.748</time>
      </trkpt>
      <trkpt lat="48.43361" lon="2.74083">
        <ele>139</ele>
        <time>2017-05-17T10:52:38.751</time>
      </trkpt>
      <trkpt lat="48.43363" lon="2.74083">
        <ele>138</ele>
        <time>2017-05-17T10:52:39.755</time>
      </trkpt>
      <trkpt lat="48.43362" lon="2.74083">
        <ele>139</ele>
        <time>2017-05-17T10:52:40.750</time>
      </trkpt>
      <trkpt lat="48.43362" lon="2.74084">
        <ele>139</ele>
        <time>2017-05-17T10:52:41.749</time>
      </trkpt>
      <trkpt lat="48.43362" lon="2.74083">
        <ele>140</ele>
        <time>2017-05-17T10:52:42.750</time>
      </trkpt>
      <trkpt lat="48.43362" lon="2.74083">
        <ele>140</ele>
        <time>2017-05-17T10:52:43.751</time>
      </trkpt>
      <trkpt lat="48.43362" lon="2.74083">
        <ele>141</ele>
        <time>2017-05-17T10:52:44.749</time>
      </trkpt>
      <trkpt lat="48.43362" lon="2.74084">
        <ele>141</ele>
        <time>2017-05-17T10:52:45.761</time>
      </trkpt>
      <trkpt lat="48.43362" lon="2.74084">
        <ele>141</ele>
        <time>2017-05-17T10:52:46.749</time>
      </trkpt>
      <trkpt lat="48.43363" lon="2.74084">
        <ele>141</ele>
        <time>2017-05-17T10:52:47.753</time>
      </trkpt>
      <trkpt lat="48.43363" lon="2.74084">
        <ele>141</ele>
        <time>2017-05-17T10:52:48.751</time>
      </trkpt>
      <trkpt lat="48.43363" lon="2.74084">
        <ele>141</ele>
        <time>2017-05-17T10:52:49.757</time>
      </trkpt>
      <trkpt lat="48.43363" lon="2.74083">
        <ele>140</ele>
        <time>2017-05-17T10:52:50.755</time>
      </trkpt>
      <trkpt lat="48.43362" lon="2.74082">
        <ele>140</ele>
        <time>2017-05-17T10:52:51.753</time>
      </trkpt>
      <trkpt lat="48.43361" lon="2.74082">
        <ele>139</ele>
        <time>2017-05-17T10:52:52.752</time>
      </trkpt>
      <trkpt lat="48.43361" lon="2.74083">
        <ele>139</ele>
        <time>2017-05-17T10:52:53.751</time>
      </trkpt>
      <trkpt lat="48.4336" lon="2.74083">
        <ele>139</ele>
        <time>2017-05-17T10:52:54.751</time>
      </trkpt>
      <trkpt lat="48.4336" lon="2.74084">
        <ele>140</ele>
        <time>2017-05-17T10:52:55.754</time>
      </trkpt>
      <trkpt lat="48.4336" lon="2.74083">
        <ele>139</ele>
        <time>2017-05-17T10:52:56.954</time>
      </trkpt>
      <trkpt lat="48.4336" lon="2.74083">
        <ele>139</ele>
        <time>2017-05-17T10:52:57.749</time>
      </trkpt>
      <trkpt lat="48.43361" lon="2.74082">
        <ele>139</ele>
        <time>2017-05-17T10:52:58.762</time>
      </trkpt>
      <trkpt lat="48.43361" lon="2.74082">
        <ele>138</ele>
        <time>2017-05-17T10:52:59.752</time>
      </trkpt>
      <trkpt lat="48.43361" lon="2.74082">
        <ele>138</ele>
        <time>2017-05-17T10:53:00.754</time>
      </trkpt>
      <trkpt lat="48.43361" lon="2.74082">
        <ele>137</ele>
        <time>2017-05-17T10:53:01.753</time>
      </trkpt>
      <trkpt lat="48.43362" lon="2.74082">
        <ele>137</ele>
        <time>2017-05-17T10:53:02.750</time>
      </trkpt>
      <trkpt lat="48.43362" lon="2.74081">
        <ele>138</ele>
        <time>2017-05-17T10:53:03.751</time>
      </trkpt>
      <trkpt lat="48.43362" lon="2.74081">
        <ele>138</ele>
        <time>2017-05-17T10:53:04.751</time>
      </trkpt>
      <trkpt lat="48.43362" lon="2.74081">
        <ele>138</ele>
        <time>2017-05-17T10:53:05.751</time>
      </trkpt>
      <trkpt lat="48.43362" lon="2.74081">
        <ele>139</ele>
        <time>2017-05-17T10:53:06.753</time>
      </trkpt>
      <trkpt lat="48.43362" lon="2.74081">
        <ele>139</ele>
        <time>2017-05-17T10:53:07.750</time>
      </trkpt>
      <trkpt lat="48.43362" lon="2.74081">
        <ele>139</ele>
        <time>2017-05-17T10:53:08.755</time>
      </trkpt>
      <trkpt lat="48.43362" lon="2.74081">
        <ele>139</ele>
        <time>2017-05-17T10:53:09.754</time>
      </trkpt>
      <trkpt lat="48.43362" lon="2.74081">
        <ele>139</ele>
        <time>2017-05-17T10:53:10.768</time>
      </trkpt>
      <trkpt lat="48.43362" lon="2.74081">
        <ele>139</ele>
        <time>2017-05-17T10:53:11.750</time>
      </trkpt>
      <trkpt lat="48.43362" lon="2.74081">
        <ele>139</ele>
        <time>2017-05-17T10:53:13.493</time>
      </trkpt>
      <trkpt lat="48.43362" lon="2.74081">
        <ele>139</ele>
        <time>2017-05-17T10:53:13.754</time>
      </trkpt>
      <trkpt lat="48.43361" lon="2.74083">
        <ele>139</ele>
        <time>2017-05-17T10:53:14.758</time>
      </trkpt>
      <trkpt lat="48.4336" lon="2.74084">
        <ele>140</ele>
        <time>2017-05-17T10:53:15.759</time>
      </trkpt>
      <trkpt lat="48.4336" lon="2.74085">
        <ele>140</ele>
        <time>2017-05-17T10:53:16.759</time>
      </trkpt>
      <trkpt lat="48.4336" lon="2.74084">
        <ele>140</ele>
        <time>2017-05-17T10:53:17.758</time>
      </trkpt>
      <trkpt lat="48.43361" lon="2.74084">
        <ele>139</ele>
        <time>2017-05-17T10:53:18.760</time>
      </trkpt>
      <trkpt lat="48.43361" lon="2.74084">
        <ele>139</ele>
        <time>2017-05-17T10:53:19.758</time>
      </trkpt>
      <trkpt lat="48.43362" lon="2.74084">
        <ele>139</ele>
        <time>2017-05-17T10:53:20.759</time>
      </trkpt>
      <trkpt lat="48.43362" lon="2.74086">
        <ele>139</ele>
        <time>2017-05-17T10:53:21.760</time>
      </trkpt>
      <trkpt lat="48.43362" lon="2.74087">
        <ele>138</ele>
        <time>2017-05-17T10:53:22.757</time>
      </trkpt>
      <trkpt lat="48.43363" lon="2.74088">
        <ele>137</ele>
        <time>2017-05-17T10:53:23.759</time>
      </trkpt>
      <trkpt lat="48.43364" lon="2.74089">
        <ele>137</ele>
        <time>2017-05-17T10:53:24.756</time>
      </trkpt>
      <trkpt lat="48.43365" lon="2.74091">
        <ele>136</ele>
        <time>2017-05-17T10:53:25.758</time>
      </trkpt>
      <trkpt lat="48.43366" lon="2.74092">
        <ele>135</ele>
        <time>2017-05-17T10:53:26.760</time>
      </trkpt>
      <trkpt lat="48.43366" lon="2.74094">
        <ele>135</ele>
        <time>2017-05-17T10:53:27.760</time>
      </trkpt>
      <trkpt lat="48.43367" lon="2.74093">
        <ele>135</ele>
        <time>2017-05-17T10:53:28.760</time>
      </trkpt>
      <trkpt lat="48.43368" lon="2.74092">
        <ele>136</ele>
        <time>2017-05-17T10:53:29.758</time>
      </trkpt>
      <trkpt lat="48.43369" lon="2.74091">
        <ele>136</ele>
        <time>2017-05-17T10:53:30.756</time>
      </trkpt>
      <trkpt lat="48.43369" lon="2.74091">
        <ele>137</ele>
        <time>2017-05-17T10:53:31.758</time>
      </trkpt>
      <trkpt lat="48.43369" lon="2.74091">
        <ele>137</ele>
        <time>2017-05-17T10:53:32.758</time>
      </trkpt>
      <trkpt lat="48.43369" lon="2.74091">
        <ele>137</ele>
        <time>2017-05-17T10:53:33.759</time>
      </trkpt>
      <trkpt lat="48.4337" lon="2.74091">
        <ele>138</ele>
        <time>2017-05-17T10:53:34.760</time>
      </trkpt>
      <trkpt lat="48.4337" lon="2.74091">
        <ele>139</ele>
        <time>2017-05-17T10:53:35.757</time>
      </trkpt>
      <trkpt lat="48.43369" lon="2.74091">
        <ele>139</ele>
        <time>2017-05-17T10:53:36.756</time>
      </trkpt>
      <trkpt lat="48.4337" lon="2.74091">
        <ele>140</ele>
        <time>2017-05-17T10:53:37.757</time>
      </trkpt>
      <trkpt lat="48.4337" lon="2.74091">
        <ele>140</ele>
        <time>2017-05-17T10:53:38.758</time>
      </trkpt>
      <trkpt lat="48.4337" lon="2.74091">
        <ele>140</ele>
        <time>2017-05-17T10:53:39.757</time>
      </trkpt>
      <trkpt lat="48.4337" lon="2.74091">
        <ele>140</ele>
        <time>2017-05-17T10:53:40.757</time>
      </trkpt>
      <trkpt lat="48.4337" lon="2.74091">
        <ele>140</ele>
        <time>2017-05-17T10:53:41.757</time>
      </trkpt>
      <trkpt lat="48.4337" lon="2.74091">
        <ele>140</ele>
        <time>2017-05-17T10:53:42.757</time>
      </trkpt>
      <trkpt lat="48.4337" lon="2.74091">
        <ele>140</ele>
        <time>2017-05-17T10:53:43.760</time>
      </trkpt>
      <trkpt lat="48.43369" lon="2.74092">
        <ele>140</ele>
        <time>2017-05-17T10:53:44.761</time>
      </trkpt>
      <trkpt lat="48.43369" lon="2.74093">
        <ele>140</ele>
        <time>2017-05-17T10:53:45.763</time>
      </trkpt>
      <trkpt lat="48.4337" lon="2.74093">
        <ele>140</ele>
        <time>2017-05-17T10:53:46.760</time>
      </trkpt>
      <trkpt lat="48.43371" lon="2.74092">
        <ele>140</ele>
        <time>2017-05-17T10:53:47.759</time>
      </trkpt>
      <trkpt lat="48.43372" lon="2.74091">
        <ele>140</ele>
        <time>2017-05-17T10:53:48.760</time>
      </trkpt>
      <trkpt lat="48.43372" lon="2.7409">
        <ele>140</ele>
        <time>2017-05-17T10:53:49.758</time>
      </trkpt>
      <trkpt lat="48.43371" lon="2.74089">
        <ele>140</ele>
        <time>2017-05-17T10:53:50.754</time>
      </trkpt>
      <trkpt lat="48.4337" lon="2.74087">
        <ele>139</ele>
        <time>2017-05-17T10:53:51.759</time>
      </trkpt>
      <trkpt lat="48.43369" lon="2.74085">
        <ele>140</ele>
        <time>2017-05-17T10:53:52.761</time>
      </trkpt>
      <trkpt lat="48.43367" lon="2.74082">
        <ele>139</ele>
        <time>2017-05-17T10:53:53.762</time>
      </trkpt>
      <trkpt lat="48.43367" lon="2.74079">
        <ele>139</ele>
        <time>2017-05-17T10:53:54.759</time>
      </trkpt>
      <trkpt lat="48.43367" lon="2.74076">
        <ele>139</ele>
        <time>2017-05-17T10:53:55.773</time>
      </trkpt>
      <trkpt lat="48.43367" lon="2.74073">
        <ele>138</ele>
        <time>2017-05-17T10:53:56.759</time>
      </trkpt>
      <trkpt lat="48.43368" lon="2.74072">
        <ele>137</ele>
        <time>2017-05-17T10:53:57.758</time>
      </trkpt>
      <trkpt lat="48.43368" lon="2.7407">
        <ele>138</ele>
        <time>2017-05-17T10:53:58.760</time>
      </trkpt>
      <trkpt lat="48.43368" lon="2.74069">
        <ele>137</ele>
        <time>2017-05-17T10:53:59.758</time>
      </trkpt>
      <trkpt lat="48.43368" lon="2.74067">
        <ele>137</ele>
        <time>2017-05-17T10:54:00.754</time>
      </trkpt>
      <trkpt lat="48.43367" lon="2.74065">
        <ele>137</ele>
        <time>2017-05-17T10:54:01.759</time>
      </trkpt>
      <trkpt lat="48.43368" lon="2.7406">
        <ele>137</ele>
        <time>2017-05-17T10:54:02.760</time>
      </trkpt>
      <trkpt lat="48.43369" lon="2.74055">
        <ele>138</ele>
        <time>2017-05-17T10:54:03.761</time>
      </trkpt>
      <trkpt lat="48.43371" lon="2.7405">
        <ele>138</ele>
        <time>2017-05-17T10:54:04.760</time>
      </trkpt>
      <trkpt lat="48.43372" lon="2.74046">
        <ele>138</ele>
        <time>2017-05-17T10:54:05.759</time>
      </trkpt>
      <trkpt lat="48.43373" lon="2.74042">
        <ele>138</ele>
        <time>2017-05-17T10:54:06.759</time>
      </trkpt>
      <trkpt lat="48.43375" lon="2.74038">
        <ele>139</ele>
        <time>2017-05-17T10:54:07.757</time>
      </trkpt>
      <trkpt lat="48.43377" lon="2.74034">
        <ele>139</ele>
        <time>2017-05-17T10:54:08.760</time>
      </trkpt>
      <trkpt lat="48.43379" lon="2.74033">
        <ele>139</ele>
        <time>2017-05-17T10:54:09.760</time>
      </trkpt>
      <trkpt lat="48.43381" lon="2.74029">
        <ele>140</ele>
        <time>2017-05-17T10:54:10.761</time>
      </trkpt>
      <trkpt lat="48.43382" lon="2.74027">
        <ele>141</ele>
        <time>2017-05-17T10:54:11.760</time>
      </trkpt>
      <trkpt lat="48.43386" lon="2.74025">
        <ele>141</ele>
        <time>2017-05-17T10:54:12.759</time>
      </trkpt>
      <trkpt lat="48.43388" lon="2.74021">
        <ele>141</ele>
        <time>2017-05-17T10:54:13.761</time>
      </trkpt>
      <trkpt lat="48.43391" lon="2.74016">
        <ele>142</ele>
        <time>2017-05-17T10:54:14.759</time>
      </trkpt>
      <trkpt lat="48.43394" lon="2.74014">
        <ele>141</ele>
        <time>2017-05-17T10:54:15.760</time>
      </trkpt>
      <trkpt lat="48.43398" lon="2.74011">
        <ele>141</ele>
        <time>2017-05-17T10:54:16.761</time>
      </trkpt>
      <trkpt lat="48.43401" lon="2.74008">
        <ele>141</ele>
        <time>2017-05-17T10:54:17.760</time>
      </trkpt>
      <trkpt lat="48.43404" lon="2.74007">
        <ele>143</ele>
        <time>2017-05-17T10:54:18.763</time>
      </trkpt>
      <trkpt lat="48.43408" lon="2.74006">
        <ele>143</ele>
        <time>2017-05-17T10:54:19.761</time>
      </trkpt>
      <trkpt lat="48.43411" lon="2.74002">
        <ele>143</ele>
        <time>2017-05-17T10:54:20.759</time>
      </trkpt>
      <trkpt lat="48.43413" lon="2.73998">
        <ele>143</ele>
        <time>2017-05-17T10:54:21.759</time>
      </trkpt>
      <trkpt lat="48.43417" lon="2.73993">
        <ele>144</ele>
        <time>2017-05-17T10:54:22.761</time>
      </trkpt>
      <trkpt lat="48.4342" lon="2.73989">
        <ele>143</ele>
        <time>2017-05-17T10:54:23.761</time>
      </trkpt>
      <trkpt lat="48.43424" lon="2.73984">
        <ele>143</ele>
        <time>2017-05-17T10:54:24.760</time>
      </trkpt>
      <trkpt lat="48.43426" lon="2.73978">
        <ele>143</ele>
        <time>2017-05-17T10:54:25.760</time>
      </trkpt>
      <trkpt lat="48.43429" lon="2.73972">
        <ele>143</ele>
        <time>2017-05-17T10:54:26.760</time>
      </trkpt>
      <trkpt lat="48.43433" lon="2.73969">
        <ele>141</ele>
        <time>2017-05-17T10:54:27.759</time>
      </trkpt>
      <trkpt lat="48.43436" lon="2.73964">
        <ele>141</ele>
        <time>2017-05-17T10:54:28.761</time>
      </trkpt>
      <trkpt lat="48.43439" lon="2.7396">
        <ele>140</ele>
        <time>2017-05-17T10:54:29.760</time>
      </trkpt>
      <trkpt lat="48.43444" lon="2.73953">
        <ele>142</ele>
        <time>2017-05-17T10:54:30.758</time>
      </trkpt>
      <trkpt lat="48.43448" lon="2.73948">
        <ele>142</ele>
        <time>2017-05-17T10:54:31.759</time>
      </trkpt>
      <trkpt lat="48.43449" lon="2.73941">
        <ele>142</ele>
        <time>2017-05-17T10:54:32.759</time>
      </trkpt>
      <trkpt lat="48.4345" lon="2.73933">
        <ele>141</ele>
        <time>2017-05-17T10:54:33.760</time>
      </trkpt>
      <trkpt lat="48.4345" lon="2.73923">
        <ele>141</ele>
        <time>2017-05-17T10:54:34.759</time>
      </trkpt>
      <trkpt lat="48.43451" lon="2.73915">
        <ele>140</ele>
        <time>2017-05-17T10:54:35.758</time>
      </trkpt>
      <trkpt lat="48.43452" lon="2.73907">
        <ele>141</ele>
        <time>2017-05-17T10:54:36.762</time>
      </trkpt>
      <trkpt lat="48.43453" lon="2.73899">
        <ele>141</ele>
        <time>2017-05-17T10:54:37.760</time>
      </trkpt>
      <trkpt lat="48.43454" lon="2.73892">
        <ele>141</ele>
        <time>2017-05-17T10:54:38.761</time>
      </trkpt>
      <trkpt lat="48.43456" lon="2.73884">
        <ele>141</ele>
        <time>2017-05-17T10:54:39.760</time>
      </trkpt>
      <trkpt lat="48.43456" lon="2.73875">
        <ele>142</ele>
        <time>2017-05-17T10:54:40.760</time>
      </trkpt>
      <trkpt lat="48.43456" lon="2.73869">
        <ele>143</ele>
        <time>2017-05-17T10:54:41.759</time>
      </trkpt>
      <trkpt lat="48.43454" lon="2.73864">
        <ele>143</ele>
        <time>2017-05-17T10:54:42.761</time>
      </trkpt>
      <trkpt lat="48.43452" lon="2.73863">
        <ele>143</ele>
        <time>2017-05-17T10:54:43.761</time>
      </trkpt>
      <trkpt lat="48.4345" lon="2.73861">
        <ele>144</ele>
        <time>2017-05-17T10:54:44.761</time>
      </trkpt>
      <trkpt lat="48.43448" lon="2.73859">
        <ele>145</ele>
        <time>2017-05-17T10:54:45.758</time>
      </trkpt>
      <trkpt lat="48.43448" lon="2.73859">
        <ele>145</ele>
        <time>2017-05-17T10:54:46.758</time>
      </trkpt>
      <trkpt lat="48.43448" lon="2.73858">
        <ele>145</ele>
        <time>2017-05-17T10:54:47.758</time>
      </trkpt>
      <trkpt lat="48.43448" lon="2.73858">
        <ele>145</ele>
        <time>2017-05-17T10:54:48.761</time>
      </trkpt>
      <trkpt lat="48.43448" lon="2.73858">
        <ele>145</ele>
        <time>2017-05-17T10:54:49.757</time>
      </trkpt>
      <trkpt lat="48.43447" lon="2.73858">
        <ele>145</ele>
        <time>2017-05-17T10:54:50.756</time>
      </trkpt>
      <trkpt lat="48.43447" lon="2.73858">
        <ele>145</ele>
        <time>2017-05-17T10:54:51.760</time>
      </trkpt>
      <trkpt lat="48.43447" lon="2.73857">
        <ele>145</ele>
        <time>2017-05-17T10:54:52.760</time>
      </trkpt>
      <trkpt lat="48.43446" lon="2.73857">
        <ele>146</ele>
        <time>2017-05-17T10:54:53.763</time>
      </trkpt>
      <trkpt lat="48.43446" lon="2.73856">
        <ele>146</ele>
        <time>2017-05-17T10:54:54.759</time>
      </trkpt>
      <trkpt lat="48.43446" lon="2.73856">
        <ele>146</ele>
        <time>2017-05-17T10:54:55.757</time>
      </trkpt>
      <trkpt lat="48.43445" lon="2.73854">
        <ele>146</ele>
        <time>2017-05-17T10:54:56.759</time>
      </trkpt>
      <trkpt lat="48.43445" lon="2.73853">
        <ele>147</ele>
        <time>2017-05-17T10:54:57.760</time>
      </trkpt>
      <trkpt lat="48.43444" lon="2.73853">
        <ele>147</ele>
        <time>2017-05-17T10:54:58.761</time>
      </trkpt>
      <trkpt lat="48.43443" lon="2.73852">
        <ele>147</ele>
        <time>2017-05-17T10:54:59.760</time>
      </trkpt>
      <trkpt lat="48.43443" lon="2.73851">
        <ele>147</ele>
        <time>2017-05-17T10:55:00.759</time>
      </trkpt>
      <trkpt lat="48.43442" lon="2.73852">
        <ele>147</ele>
        <time>2017-05-17T10:55:01.759</time>
      </trkpt>
      <trkpt lat="48.43442" lon="2.73852">
        <ele>147</ele>
        <time>2017-05-17T10:55:02.759</time>
      </trkpt>
      <trkpt lat="48.43442" lon="2.73852">
        <ele>147</ele>
        <time>2017-05-17T10:55:03.763</time>
      </trkpt>
      <trkpt lat="48.43442" lon="2.73853">
        <ele>146</ele>
        <time>2017-05-17T10:55:04.763</time>
      </trkpt>
      <trkpt lat="48.43442" lon="2.73853">
        <ele>146</ele>
        <time>2017-05-17T10:55:05.759</time>
      </trkpt>
      <trkpt lat="48.43443" lon="2.73853">
        <ele>146</ele>
        <time>2017-05-17T10:55:06.758</time>
      </trkpt>
      <trkpt lat="48.43443" lon="2.73854">
        <ele>145</ele>
        <time>2017-05-17T10:55:07.757</time>
      </trkpt>
      <trkpt lat="48.43443" lon="2.73854">
        <ele>145</ele>
        <time>2017-05-17T10:55:08.757</time>
      </trkpt>
      <trkpt lat="48.43443" lon="2.73854">
        <ele>145</ele>
        <time>2017-05-17T10:55:09.756</time>
      </trkpt>
      <trkpt lat="48.43443" lon="2.73855">
        <ele>145</ele>
        <time>2017-05-17T10:55:10.756</time>
      </trkpt>
      <trkpt lat="48.43443" lon="2.73855">
        <ele>145</ele>
        <time>2017-05-17T10:55:11.757</time>
      </trkpt>
      <trkpt lat="48.43443" lon="2.73855">
        <ele>146</ele>
        <time>2017-05-17T10:55:12.756</time>
      </trkpt>
      <trkpt lat="48.43443" lon="2.73855">
        <ele>146</ele>
        <time>2017-05-17T10:55:13.758</time>
      </trkpt>
      <trkpt lat="48.43443" lon="2.73855">
        <ele>146</ele>
        <time>2017-05-17T10:55:14.757</time>
      </trkpt>
      <trkpt lat="48.43443" lon="2.73855">
        <ele>146</ele>
        <time>2017-05-17T10:55:15.758</time>
      </trkpt>
      <trkpt lat="48.43443" lon="2.73854">
        <ele>146</ele>
        <time>2017-05-17T10:55:16.760</time>
      </trkpt>
      <trkpt lat="48.43443" lon="2.73854">
        <ele>146</ele>
        <time>2017-05-17T10:55:17.762</time>
      </trkpt>
      <trkpt lat="48.43443" lon="2.73853">
        <ele>146</ele>
        <time>2017-05-17T10:55:18.770</time>
      </trkpt>
      <trkpt lat="48.43443" lon="2.73854">
        <ele>146</ele>
        <time>2017-05-17T10:55:19.760</time>
      </trkpt>
      <trkpt lat="48.43443" lon="2.73853">
        <ele>146</ele>
        <time>2017-05-17T10:55:20.758</time>
      </trkpt>
      <trkpt lat="48.43444" lon="2.73853">
        <ele>146</ele>
        <time>2017-05-17T10:55:21.758</time>
      </trkpt>
      <trkpt lat="48.43444" lon="2.73853">
        <ele>145</ele>
        <time>2017-05-17T10:55:22.756</time>
      </trkpt>
      <trkpt lat="48.43444" lon="2.73853">
        <ele>146</ele>
        <time>2017-05-17T10:55:23.757</time>
      </trkpt>
      <trkpt lat="48.43443" lon="2.73853">
        <ele>146</ele>
        <time>2017-05-17T10:55:24.756</time>
      </trkpt>
      <trkpt lat="48.43444" lon="2.73852">
        <ele>146</ele>
        <time>2017-05-17T10:55:25.758</time>
      </trkpt>
      <trkpt lat="48.43446" lon="2.73851">
        <ele>146</ele>
        <time>2017-05-17T10:55:26.761</time>
      </trkpt>
      <trkpt lat="48.43446" lon="2.73849">
        <ele>146</ele>
        <time>2017-05-17T10:55:27.760</time>
      </trkpt>
      <trkpt lat="48.43446" lon="2.73847">
        <ele>146</ele>
        <time>2017-05-17T10:55:28.759</time>
      </trkpt>
      <trkpt lat="48.43446" lon="2.73846">
        <ele>147</ele>
        <time>2017-05-17T10:55:29.758</time>
      </trkpt>
      <trkpt lat="48.43446" lon="2.73845">
        <ele>147</ele>
        <time>2017-05-17T10:55:30.760</time>
      </trkpt>
      <trkpt lat="48.43446" lon="2.73842">
        <ele>148</ele>
        <time>2017-05-17T10:55:31.759</time>
      </trkpt>
      <trkpt lat="48.43447" lon="2.73839">
        <ele>148</ele>
        <time>2017-05-17T10:55:32.760</time>
      </trkpt>
      <trkpt lat="48.43448" lon="2.73835">
        <ele>148</ele>
        <time>2017-05-17T10:55:33.759</time>
      </trkpt>
      <trkpt lat="48.4345" lon="2.73831">
        <ele>148</ele>
        <time>2017-05-17T10:55:34.758</time>
      </trkpt>
      <trkpt lat="48.43452" lon="2.73828">
        <ele>148</ele>
        <time>2017-05-17T10:55:35.758</time>
      </trkpt>
      <trkpt lat="48.43454" lon="2.73825">
        <ele>149</ele>
        <time>2017-05-17T10:55:36.758</time>
      </trkpt>
      <trkpt lat="48.43456" lon="2.7382">
        <ele>149</ele>
        <time>2017-05-17T10:55:37.758</time>
      </trkpt>
      <trkpt lat="48.43458" lon="2.73817">
        <ele>149</ele>
        <time>2017-05-17T10:55:38.759</time>
      </trkpt>
      <trkpt lat="48.4346" lon="2.73813">
        <ele>149</ele>
        <time>2017-05-17T10:55:39.757</time>
      </trkpt>
      <trkpt lat="48.43462" lon="2.7381">
        <ele>149</ele>
        <time>2017-05-17T10:55:40.758</time>
      </trkpt>
      <trkpt lat="48.43464" lon="2.73806">
        <ele>149</ele>
        <time>2017-05-17T10:55:41.758</time>
      </trkpt>
      <trkpt lat="48.43465" lon="2.73802">
        <ele>149</ele>
        <time>2017-05-17T10:55:42.757</time>
      </trkpt>
      <trkpt lat="48.43467" lon="2.73797">
        <ele>149</ele>
        <time>2017-05-17T10:55:43.760</time>
      </trkpt>
      <trkpt lat="48.4347" lon="2.73794">
        <ele>149</ele>
        <time>2017-05-17T10:55:44.761</time>
      </trkpt>
      <trkpt lat="48.43473" lon="2.73791">
        <ele>149</ele>
        <time>2017-05-17T10:55:45.763</time>
      </trkpt>
      <trkpt lat="48.43477" lon="2.73791">
        <ele>148</ele>
        <time>2017-05-17T10:55:46.761</time>
      </trkpt>
      <trkpt lat="48.43482" lon="2.7379">
        <ele>147</ele>
        <time>2017-05-17T10:55:47.761</time>
      </trkpt>
      <trkpt lat="48.43487" lon="2.7379">
        <ele>146</ele>
        <time>2017-05-17T10:55:48.762</time>
      </trkpt>
      <trkpt lat="48.4349" lon="2.73788">
        <ele>147</ele>
        <time>2017-05-17T10:55:49.761</time>
      </trkpt>
      <trkpt lat="48.43492" lon="2.73791">
        <ele>147</ele>
        <time>2017-05-17T10:55:50.761</time>
      </trkpt>
      <trkpt lat="48.43495" lon="2.73793">
        <ele>147</ele>
        <time>2017-05-17T10:55:51.761</time>
      </trkpt>
      <trkpt lat="48.43501" lon="2.73795">
        <ele>147</ele>
        <time>2017-05-17T10:55:52.758</time>
      </trkpt>
      <trkpt lat="48.43506" lon="2.73796">
        <ele>147</ele>
        <time>2017-05-17T10:55:53.758</time>
      </trkpt>
      <trkpt lat="48.43512" lon="2.73796">
        <ele>147</ele>
        <time>2017-05-17T10:55:54.760</time>
      </trkpt>
      <trkpt lat="48.43517" lon="2.73795">
        <ele>147</ele>
        <time>2017-05-17T10:55:55.759</time>
      </trkpt>
      <trkpt lat="48.43523" lon="2.73795">
        <ele>146</ele>
        <time>2017-05-17T10:55:56.758</time>
      </trkpt>
      <trkpt lat="48.4353" lon="2.73796">
        <ele>146</ele>
        <time>2017-05-17T10:55:57.757</time>
      </trkpt>
      <trkpt lat="48.43536" lon="2.73796">
        <ele>146</ele>
        <time>2017-05-17T10:55:58.761</time>
      </trkpt>
      <trkpt lat="48.43543" lon="2.73795">
        <ele>146</ele>
        <time>2017-05-17T10:55:59.759</time>
      </trkpt>
      <trkpt lat="48.43549" lon="2.73794">
        <ele>146</ele>
        <time>2017-05-17T10:56:00.759</time>
      </trkpt>
      <trkpt lat="48.43556" lon="2.73795">
        <ele>146</ele>
        <time>2017-05-17T10:56:01.760</time>
      </trkpt>
      <trkpt lat="48.43562" lon="2.73794">
        <ele>146</ele>
        <time>2017-05-17T10:56:02.759</time>
      </trkpt>
      <trkpt lat="48.43569" lon="2.73793">
        <ele>146</ele>
        <time>2017-05-17T10:56:03.762</time>
      </trkpt>
      <trkpt lat="48.43575" lon="2.73793">
        <ele>146</ele>
        <time>2017-05-17T10:56:04.760</time>
      </trkpt>
      <trkpt lat="48.43582" lon="2.73792">
        <ele>147</ele>
        <time>2017-05-17T10:56:05.759</time>
      </trkpt>
      <trkpt lat="48.43588" lon="2.73791">
        <ele>147</ele>
        <time>2017-05-17T10:56:06.758</time>
      </trkpt>
      <trkpt lat="48.43594" lon="2.73789">
        <ele>146</ele>
        <time>2017-05-17T10:56:07.760</time>
      </trkpt>
      <trkpt lat="48.43601" lon="2.73788">
        <ele>146</ele>
        <time>2017-05-17T10:56:08.762</time>
      </trkpt>
      <trkpt lat="48.43607" lon="2.73787">
        <ele>146</ele>
        <time>2017-05-17T10:56:09.758</time>
      </trkpt>
      <trkpt lat="48.43614" lon="2.73786">
        <ele>146</ele>
        <time>2017-05-17T10:56:10.760</time>
      </trkpt>
      <trkpt lat="48.43619" lon="2.73785">
        <ele>147</ele>
        <time>2017-05-17T10:56:11.761</time>
      </trkpt>
      <trkpt lat="48.43626" lon="2.73783">
        <ele>148</ele>
        <time>2017-05-17T10:56:12.760</time>
      </trkpt>
      <trkpt lat="48.43632" lon="2.73782">
        <ele>148</ele>
        <time>2017-05-17T10:56:13.762</time>
      </trkpt>
      <trkpt lat="48.43639" lon="2.73782">
        <ele>148</ele>
        <time>2017-05-17T10:56:14.759</time>
      </trkpt>
      <trkpt lat="48.43645" lon="2.73781">
        <ele>148</ele>
        <time>2017-05-17T10:56:15.759</time>
      </trkpt>
      <trkpt lat="48.43652" lon="2.73781">
        <ele>147</ele>
        <time>2017-05-17T10:56:16.759</time>
      </trkpt>
      <trkpt lat="48.43658" lon="2.7378">
        <ele>146</ele>
        <time>2017-05-17T10:56:17.759</time>
      </trkpt>
      <trkpt lat="48.43664" lon="2.7378">
        <ele>146</ele>
        <time>2017-05-17T10:56:18.762</time>
      </trkpt>
      <trkpt lat="48.43672" lon="2.73779">
        <ele>147</ele>
        <time>2017-05-17T10:56:19.761</time>
      </trkpt>
      <trkpt lat="48.43678" lon="2.73777">
        <ele>147</ele>
        <time>2017-05-17T10:56:20.760</time>
      </trkpt>
      <trkpt lat="48.43685" lon="2.73775">
        <ele>146</ele>
        <time>2017-05-17T10:56:21.760</time>
      </trkpt>
      <trkpt lat="48.43691" lon="2.73774">
        <ele>146</ele>
        <time>2017-05-17T10:56:22.761</time>
      </trkpt>
      <trkpt lat="48.43697" lon="2.73773">
        <ele>146</ele>
        <time>2017-05-17T10:56:23.762</time>
      </trkpt>
      <trkpt lat="48.43704" lon="2.73771">
        <ele>146</ele>
        <time>2017-05-17T10:56:24.760</time>
      </trkpt>
      <trkpt lat="48.43711" lon="2.7377">
        <ele>146</ele>
        <time>2017-05-17T10:56:25.760</time>
      </trkpt>
      <trkpt lat="48.43718" lon="2.73768">
        <ele>145</ele>
        <time>2017-05-17T10:56:26.759</time>
      </trkpt>
      <trkpt lat="48.43726" lon="2.73766">
        <ele>145</ele>
        <time>2017-05-17T10:56:27.758</time>
      </trkpt>
      <trkpt lat="48.43732" lon="2.73765">
        <ele>145</ele>
        <time>2017-05-17T10:56:28.761</time>
      </trkpt>
      <trkpt lat="48.43739" lon="2.73765">
        <ele>145</ele>
        <time>2017-05-17T10:56:29.763</time>
      </trkpt>
      <trkpt lat="48.43745" lon="2.73763">
        <ele>145</ele>
        <time>2017-05-17T10:56:30.760</time>
      </trkpt>
      <trkpt lat="48.43752" lon="2.7376">
        <ele>145</ele>
        <time>2017-05-17T10:56:31.758</time>
      </trkpt>
      <trkpt lat="48.4376" lon="2.73759">
        <ele>145</ele>
        <time>2017-05-17T10:56:32.757</time>
      </trkpt>
      <trkpt lat="48.43766" lon="2.73757">
        <ele>145</ele>
        <time>2017-05-17T10:56:33.761</time>
      </trkpt>
      <trkpt lat="48.43773" lon="2.73756">
        <ele>146</ele>
        <time>2017-05-17T10:56:34.758</time>
      </trkpt>
      <trkpt lat="48.43781" lon="2.73754">
        <ele>146</ele>
        <time>2017-05-17T10:56:35.759</time>
      </trkpt>
      <trkpt lat="48.43788" lon="2.7375">
        <ele>145</ele>
        <time>2017-05-17T10:56:36.760</time>
      </trkpt>
      <trkpt lat="48.43796" lon="2.73748">
        <ele>145</ele>
        <time>2017-05-17T10:56:37.758</time>
      </trkpt>
      <trkpt lat="48.43803" lon="2.73746">
        <ele>145</ele>
        <time>2017-05-17T10:56:38.761</time>
      </trkpt>
      <trkpt lat="48.43811" lon="2.73744">
        <ele>145</ele>
        <time>2017-05-17T10:56:39.759</time>
      </trkpt>
      <trkpt lat="48.43818" lon="2.73742">
        <ele>145</ele>
        <time>2017-05-17T10:56:40.758</time>
      </trkpt>
      <trkpt lat="48.43826" lon="2.73739">
        <ele>144</ele>
        <time>2017-05-17T10:56:41.759</time>
      </trkpt>
      <trkpt lat="48.43832" lon="2.73736">
        <ele>144</ele>
        <time>2017-05-17T10:56:42.760</time>
      </trkpt>
      <trkpt lat="48.43839" lon="2.73733">
        <ele>144</ele>
        <time>2017-05-17T10:56:43.760</time>
      </trkpt>
      <trkpt lat="48.43847" lon="2.7373">
        <ele>145</ele>
        <time>2017-05-17T10:56:44.759</time>
      </trkpt>
      <trkpt lat="48.43853" lon="2.73728">
        <ele>145</ele>
        <time>2017-05-17T10:56:45.760</time>
      </trkpt>
      <trkpt lat="48.4386" lon="2.73724">
        <ele>144</ele>
        <time>2017-05-17T10:56:46.758</time>
      </trkpt>
      <trkpt lat="48.43867" lon="2.73722">
        <ele>145</ele>
        <time>2017-05-17T10:56:47.758</time>
      </trkpt>
      <trkpt lat="48.43873" lon="2.7372">
        <ele>144</ele>
        <time>2017-05-17T10:56:48.762</time>
      </trkpt>
      <trkpt lat="48.43881" lon="2.73716">
        <ele>144</ele>
        <time>2017-05-17T10:56:49.760</time>
      </trkpt>
      <trkpt lat="48.43887" lon="2.73714">
        <ele>144</ele>
        <time>2017-05-17T10:56:50.761</time>
      </trkpt>
      <trkpt lat="48.43894" lon="2.73712">
        <ele>143</ele>
        <time>2017-05-17T10:56:51.760</time>
      </trkpt>
      <trkpt lat="48.43901" lon="2.73708">
        <ele>143</ele>
        <time>2017-05-17T10:56:52.758</time>
      </trkpt>
      <trkpt lat="48.43907" lon="2.73706">
        <ele>143</ele>
        <time>2017-05-17T10:56:53.765</time>
      </trkpt>
      <trkpt lat="48.43913" lon="2.73704">
        <ele>143</ele>
        <time>2017-05-17T10:56:54.762</time>
      </trkpt>
      <trkpt lat="48.4392" lon="2.737">
        <ele>143</ele>
        <time>2017-05-17T10:56:55.760</time>
      </trkpt>
      <trkpt lat="48.43926" lon="2.73696">
        <ele>142</ele>
        <time>2017-05-17T10:56:56.760</time>
      </trkpt>
      <trkpt lat="48.43932" lon="2.73694">
        <ele>142</ele>
        <time>2017-05-17T10:56:57.759</time>
      </trkpt>
      <trkpt lat="48.4394" lon="2.7369">
        <ele>143</ele>
        <time>2017-05-17T10:56:58.761</time>
      </trkpt>
      <trkpt lat="48.43946" lon="2.73687">
        <ele>142</ele>
        <time>2017-05-17T10:56:59.759</time>
      </trkpt>
      <trkpt lat="48.43954" lon="2.73685">
        <ele>142</ele>
        <time>2017-05-17T10:57:01.180</time>
      </trkpt>
      <trkpt lat="48.43961" lon="2.73681">
        <ele>142</ele>
        <time>2017-05-17T10:57:01.763</time>
      </trkpt>
      <trkpt lat="48.43967" lon="2.73678">
        <ele>143</ele>
        <time>2017-05-17T10:57:02.761</time>
      </trkpt>
      <trkpt lat="48.43975" lon="2.73675">
        <ele>143</ele>
        <time>2017-05-17T10:57:03.759</time>
      </trkpt>
      <trkpt lat="48.43983" lon="2.7367">
        <ele>144</ele>
        <time>2017-05-17T10:57:04.760</time>
      </trkpt>
      <trkpt lat="48.43989" lon="2.73668">
        <ele>143</ele>
        <time>2017-05-17T10:57:05.759</time>
      </trkpt>
      <trkpt lat="48.43995" lon="2.73664">
        <ele>144</ele>
        <time>2017-05-17T10:57:06.759</time>
      </trkpt>
      <trkpt lat="48.44002" lon="2.7366">
        <ele>144</ele>
        <time>2017-05-17T10:57:07.760</time>
      </trkpt>
      <trkpt lat="48.4401" lon="2.73654">
        <ele>144</ele>
        <time>2017-05-17T10:57:08.761</time>
      </trkpt>
      <trkpt lat="48.44016" lon="2.73649">
        <ele>143</ele>
        <time>2017-05-17T10:57:09.760</time>
      </trkpt>
      <trkpt lat="48.44022" lon="2.73646">
        <ele>143</ele>
        <time>2017-05-17T10:57:10.759</time>
      </trkpt>
      <trkpt lat="48.44029" lon="2.73643">
        <ele>143</ele>
        <time>2017-05-17T10:57:11.760</time>
      </trkpt>
      <trkpt lat="48.44035" lon="2.7364">
        <ele>142</ele>
        <time>2017-05-17T10:57:12.758</time>
      </trkpt>
      <trkpt lat="48.44041" lon="2.73636">
        <ele>142</ele>
        <time>2017-05-17T10:57:13.761</time>
      </trkpt>
      <trkpt lat="48.44047" lon="2.73634">
        <ele>142</ele>
        <time>2017-05-17T10:57:14.760</time>
      </trkpt>
      <trkpt lat="48.44054" lon="2.73633">
        <ele>143</ele>
        <time>2017-05-17T10:57:15.760</time>
      </trkpt>
      <trkpt lat="48.4406" lon="2.7363">
        <ele>142</ele>
        <time>2017-05-17T10:57:16.759</time>
      </trkpt>
      <trkpt lat="48.44065" lon="2.73626">
        <ele>142</ele>
        <time>2017-05-17T10:57:17.759</time>
      </trkpt>
      <trkpt lat="48.4407" lon="2.73622">
        <ele>141</ele>
        <time>2017-05-17T10:57:18.759</time>
      </trkpt>
      <trkpt lat="48.44076" lon="2.73619">
        <ele>142</ele>
        <time>2017-05-17T10:57:19.758</time>
      </trkpt>
      <trkpt lat="48.44081" lon="2.73615">
        <ele>142</ele>
        <time>2017-05-17T10:57:20.759</time>
      </trkpt>
      <trkpt lat="48.44085" lon="2.73612">
        <ele>143</ele>
        <time>2017-05-17T10:57:21.760</time>
      </trkpt>
      <trkpt lat="48.44091" lon="2.73609">
        <ele>144</ele>
        <time>2017-05-17T10:57:22.759</time>
      </trkpt>
      <trkpt lat="48.44096" lon="2.73607">
        <ele>144</ele>
        <time>2017-05-17T10:57:23.761</time>
      </trkpt>
      <trkpt lat="48.44101" lon="2.73603">
        <ele>144</ele>
        <time>2017-05-17T10:57:24.761</time>
      </trkpt>
      <trkpt lat="48.44105" lon="2.73601">
        <ele>145</ele>
        <time>2017-05-17T10:57:25.762</time>
      </trkpt>
      <trkpt lat="48.44109" lon="2.73596">
        <ele>144</ele>
        <time>2017-05-17T10:57:26.760</time>
      </trkpt>
      <trkpt lat="48.44113" lon="2.73593">
        <ele>144</ele>
        <time>2017-05-17T10:57:27.758</time>
      </trkpt>
      <trkpt lat="48.44118" lon="2.73589">
        <ele>143</ele>
        <time>2017-05-17T10:57:28.762</time>
      </trkpt>
      <trkpt lat="48.44122" lon="2.73586">
        <ele>143</ele>
        <time>2017-05-17T10:57:29.760</time>
      </trkpt>
      <trkpt lat="48.44126" lon="2.73583">
        <ele>143</ele>
        <time>2017-05-17T10:57:30.760</time>
      </trkpt>
      <trkpt lat="48.44129" lon="2.73578">
        <ele>142</ele>
        <time>2017-05-17T10:57:31.761</time>
      </trkpt>
      <trkpt lat="48.44133" lon="2.73576">
        <ele>142</ele>
        <time>2017-05-17T10:57:32.758</time>
      </trkpt>
      <trkpt lat="48.44137" lon="2.73572">
        <ele>142</ele>
        <time>2017-05-17T10:57:33.761</time>
      </trkpt>
      <trkpt lat="48.44141" lon="2.7357">
        <ele>142</ele>
        <time>2017-05-17T10:57:34.761</time>
      </trkpt>
      <trkpt lat="48.44143" lon="2.73567">
        <ele>142</ele>
        <time>2017-05-17T10:57:35.758</time>
      </trkpt>
      <trkpt lat="48.44144" lon="2.73565">
        <ele>142</ele>
        <time>2017-05-17T10:57:36.758</time>
      </trkpt>
      <trkpt lat="48.44144" lon="2.73562">
        <ele>141</ele>
        <time>2017-05-17T10:57:37.760</time>
      </trkpt>
      <trkpt lat="48.44143" lon="2.73559">
        <ele>141</ele>
        <time>2017-05-17T10:57:38.762</time>
      </trkpt>
      <trkpt lat="48.44142" lon="2.73559">
        <ele>141</ele>
        <time>2017-05-17T10:57:39.761</time>
      </trkpt>
      <trkpt lat="48.44142" lon="2.7356">
        <ele>140</ele>
        <time>2017-05-17T10:57:40.760</time>
      </trkpt>
      <trkpt lat="48.4414" lon="2.73559">
        <ele>140</ele>
        <time>2017-05-17T10:57:41.760</time>
      </trkpt>
      <trkpt lat="48.44139" lon="2.73557">
        <ele>139</ele>
        <time>2017-05-17T10:57:42.761</time>
      </trkpt>
      <trkpt lat="48.44137" lon="2.73556">
        <ele>140</ele>
        <time>2017-05-17T10:57:43.763</time>
      </trkpt>
      <trkpt lat="48.44136" lon="2.73555">
        <ele>140</ele>
        <time>2017-05-17T10:57:44.760</time>
      </trkpt>
      <trkpt lat="48.44136" lon="2.73552">
        <ele>139</ele>
        <time>2017-05-17T10:57:45.758</time>
      </trkpt>
      <trkpt lat="48.44134" lon="2.73549">
        <ele>138</ele>
        <time>2017-05-17T10:57:46.762</time>
      </trkpt>
      <trkpt lat="48.44132" lon="2.73546">
        <ele>137</ele>
        <time>2017-05-17T10:57:47.760</time>
      </trkpt>
      <trkpt lat="48.44131" lon="2.73543">
        <ele>137</ele>
        <time>2017-05-17T10:57:48.761</time>
      </trkpt>
      <trkpt lat="48.44129" lon="2.7354">
        <ele>138</ele>
        <time>2017-05-17T10:57:49.760</time>
      </trkpt>
      <trkpt lat="48.44126" lon="2.73538">
        <ele>137</ele>
        <time>2017-05-17T10:57:50.759</time>
      </trkpt>
      <trkpt lat="48.44123" lon="2.73536">
        <ele>138</ele>
        <time>2017-05-17T10:57:51.759</time>
      </trkpt>
      <trkpt lat="48.4412" lon="2.73534">
        <ele>138</ele>
        <time>2017-05-17T10:57:52.760</time>
      </trkpt>
      <trkpt lat="48.44118" lon="2.73532">
        <ele>138</ele>
        <time>2017-05-17T10:57:53.763</time>
      </trkpt>
      <trkpt lat="48.44117" lon="2.73528">
        <ele>138</ele>
        <time>2017-05-17T10:57:54.759</time>
      </trkpt>
      <trkpt lat="48.44115" lon="2.73524">
        <ele>137</ele>
        <time>2017-05-17T10:57:55.760</time>
      </trkpt>
      <trkpt lat="48.44118" lon="2.73521">
        <ele>138</ele>
        <time>2017-05-17T10:57:56.761</time>
      </trkpt>
      <trkpt lat="48.44119" lon="2.73519">
        <ele>138</ele>
        <time>2017-05-17T10:57:57.762</time>
      </trkpt>
      <trkpt lat="48.44122" lon="2.73518">
        <ele>137</ele>
        <time>2017-05-17T10:57:58.766</time>
      </trkpt>
      <trkpt lat="48.44125" lon="2.73512">
        <ele>138</ele>
        <time>2017-05-17T10:57:59.761</time>
      </trkpt>
      <trkpt lat="48.44128" lon="2.73509">
        <ele>138</ele>
        <time>2017-05-17T10:58:00.761</time>
      </trkpt>
      <trkpt lat="48.4413" lon="2.73506">
        <ele>139</ele>
        <time>2017-05-17T10:58:01.762</time>
      </trkpt>
      <trkpt lat="48.44133" lon="2.73503">
        <ele>140</ele>
        <time>2017-05-17T10:58:02.760</time>
      </trkpt>
      <trkpt lat="48.44136" lon="2.73499">
        <ele>140</ele>
        <time>2017-05-17T10:58:03.762</time>
      </trkpt>
      <trkpt lat="48.44138" lon="2.73494">
        <ele>140</ele>
        <time>2017-05-17T10:58:04.761</time>
      </trkpt>
      <trkpt lat="48.44141" lon="2.73488">
        <ele>141</ele>
        <time>2017-05-17T10:58:05.760</time>
      </trkpt>
      <trkpt lat="48.44143" lon="2.73482">
        <ele>141</ele>
        <time>2017-05-17T10:58:06.760</time>
      </trkpt>
      <trkpt lat="48.44144" lon="2.73475">
        <ele>141</ele>
        <time>2017-05-17T10:58:07.761</time>
      </trkpt>
      <trkpt lat="48.44146" lon="2.7347">
        <ele>142</ele>
        <time>2017-05-17T10:58:08.761</time>
      </trkpt>
      <trkpt lat="48.44148" lon="2.73466">
        <ele>141</ele>
        <time>2017-05-17T10:58:09.761</time>
      </trkpt>
      <trkpt lat="48.44148" lon="2.73461">
        <ele>141</ele>
        <time>2017-05-17T10:58:10.760</time>
      </trkpt>
      <trkpt lat="48.44147" lon="2.73456">
        <ele>140</ele>
        <time>2017-05-17T10:58:11.762</time>
      </trkpt>
      <trkpt lat="48.44146" lon="2.73451">
        <ele>142</ele>
        <time>2017-05-17T10:58:12.763</time>
      </trkpt>
      <trkpt lat="48.44145" lon="2.73443">
        <ele>141</ele>
        <time>2017-05-17T10:58:13.764</time>
      </trkpt>
      <trkpt lat="48.44142" lon="2.73438">
        <ele>141</ele>
        <time>2017-05-17T10:58:14.760</time>
      </trkpt>
      <trkpt lat="48.44138" lon="2.73435">
        <ele>140</ele>
        <time>2017-05-17T10:58:15.761</time>
      </trkpt>
      <trkpt lat="48.44134" lon="2.73434">
        <ele>140</ele>
        <time>2017-05-17T10:58:16.760</time>
      </trkpt>
      <trkpt lat="48.44129" lon="2.73431">
        <ele>140</ele>
        <time>2017-05-17T10:58:17.756</time>
      </trkpt>
      <trkpt lat="48.44125" lon="2.73429">
        <ele>140</ele>
        <time>2017-05-17T10:58:18.763</time>
      </trkpt>
      <trkpt lat="48.44122" lon="2.73427">
        <ele>141</ele>
        <time>2017-05-17T10:58:19.761</time>
      </trkpt>
      <trkpt lat="48.44119" lon="2.7342">
        <ele>140</ele>
        <time>2017-05-17T10:58:20.761</time>
      </trkpt>
      <trkpt lat="48.44117" lon="2.73414">
        <ele>139</ele>
        <time>2017-05-17T10:58:21.762</time>
      </trkpt>
      <trkpt lat="48.44115" lon="2.73409">
        <ele>139</ele>
        <time>2017-05-17T10:58:22.762</time>
      </trkpt>
      <trkpt lat="48.44111" lon="2.73405">
        <ele>140</ele>
        <time>2017-05-17T10:58:23.764</time>
      </trkpt>
      <trkpt lat="48.44108" lon="2.73401">
        <ele>140</ele>
        <time>2017-05-17T10:58:24.761</time>
      </trkpt>
      <trkpt lat="48.44105" lon="2.73395">
        <ele>139</ele>
        <time>2017-05-17T10:58:25.760</time>
      </trkpt>
      <trkpt lat="48.44102" lon="2.73391">
        <ele>140</ele>
        <time>2017-05-17T10:58:26.759</time>
      </trkpt>
      <trkpt lat="48.44097" lon="2.73387">
        <ele>141</ele>
        <time>2017-05-17T10:58:27.760</time>
      </trkpt>
      <trkpt lat="48.44093" lon="2.73384">
        <ele>141</ele>
        <time>2017-05-17T10:58:28.762</time>
      </trkpt>
      <trkpt lat="48.44089" lon="2.73381">
        <ele>141</ele>
        <time>2017-05-17T10:58:29.760</time>
      </trkpt>
      <trkpt lat="48.44086" lon="2.73379">
        <ele>141</ele>
        <time>2017-05-17T10:58:30.760</time>
      </trkpt>
      <trkpt lat="48.44083" lon="2.73376">
        <ele>140</ele>
        <time>2017-05-17T10:58:31.760</time>
      </trkpt>
      <trkpt lat="48.44079" lon="2.73372">
        <ele>140</ele>
        <time>2017-05-17T10:58:32.760</time>
      </trkpt>
      <trkpt lat="48.44076" lon="2.73367">
        <ele>139</ele>
        <time>2017-05-17T10:58:33.762</time>
      </trkpt>
      <trkpt lat="48.44074" lon="2.73359">
        <ele>139</ele>
        <time>2017-05-17T10:58:34.761</time>
      </trkpt>
      <trkpt lat="48.44073" lon="2.73352">
        <ele>139</ele>
        <time>2017-05-17T10:58:35.761</time>
      </trkpt>
      <trkpt lat="48.44072" lon="2.73347">
        <ele>139</ele>
        <time>2017-05-17T10:58:36.759</time>
      </trkpt>
      <trkpt lat="48.44075" lon="2.73343">
        <ele>140</ele>
        <time>2017-05-17T10:58:37.760</time>
      </trkpt>
      <trkpt lat="48.44075" lon="2.73336">
        <ele>141</ele>
        <time>2017-05-17T10:58:38.760</time>
      </trkpt>
      <trkpt lat="48.44073" lon="2.7333">
        <ele>142</ele>
        <time>2017-05-17T10:58:39.758</time>
      </trkpt>
      <trkpt lat="48.44072" lon="2.73324">
        <ele>141</ele>
        <time>2017-05-17T10:58:40.758</time>
      </trkpt>
      <trkpt lat="48.4407" lon="2.73317">
        <ele>141</ele>
        <time>2017-05-17T10:58:41.761</time>
      </trkpt>
      <trkpt lat="48.44069" lon="2.73311">
        <ele>142</ele>
        <time>2017-05-17T10:58:42.761</time>
      </trkpt>
      <trkpt lat="48.44068" lon="2.73304">
        <ele>142</ele>
        <time>2017-05-17T10:58:43.763</time>
      </trkpt>
      <trkpt lat="48.44067" lon="2.73298">
        <ele>142</ele>
        <time>2017-05-17T10:58:44.761</time>
      </trkpt>
      <trkpt lat="48.44064" lon="2.73292">
        <ele>139</ele>
        <time>2017-05-17T10:58:45.759</time>
      </trkpt>
      <trkpt lat="48.44062" lon="2.73286">
        <ele>139</ele>
        <time>2017-05-17T10:58:46.760</time>
      </trkpt>
      <trkpt lat="48.44061" lon="2.73281">
        <ele>140</ele>
        <time>2017-05-17T10:58:47.760</time>
      </trkpt>
      <trkpt lat="48.44061" lon="2.73275">
        <ele>140</ele>
        <time>2017-05-17T10:58:48.761</time>
      </trkpt>
      <trkpt lat="48.44059" lon="2.73269">
        <ele>141</ele>
        <time>2017-05-17T10:58:49.762</time>
      </trkpt>
      <trkpt lat="48.4406" lon="2.73264">
        <ele>141</ele>
        <time>2017-05-17T10:58:50.761</time>
      </trkpt>
      <trkpt lat="48.4406" lon="2.73258">
        <ele>140</ele>
        <time>2017-05-17T10:58:51.762</time>
      </trkpt>
      <trkpt lat="48.44059" lon="2.73252">
        <ele>141</ele>
        <time>2017-05-17T10:58:52.760</time>
      </trkpt>
      <trkpt lat="48.4406" lon="2.73247">
        <ele>141</ele>
        <time>2017-05-17T10:58:53.763</time>
      </trkpt>
      <trkpt lat="48.44061" lon="2.73242">
        <ele>140</ele>
        <time>2017-05-17T10:58:54.761</time>
      </trkpt>
      <trkpt lat="48.44061" lon="2.73237">
        <ele>139</ele>
        <time>2017-05-17T10:58:55.761</time>
      </trkpt>
      <trkpt lat="48.4406" lon="2.7323">
        <ele>139</ele>
        <time>2017-05-17T10:58:56.762</time>
      </trkpt>
      <trkpt lat="48.44061" lon="2.73224">
        <ele>139</ele>
        <time>2017-05-17T10:58:57.761</time>
      </trkpt>
      <trkpt lat="48.44062" lon="2.73218">
        <ele>142</ele>
        <time>2017-05-17T10:58:58.761</time>
      </trkpt>
      <trkpt lat="48.44062" lon="2.7321">
        <ele>142</ele>
        <time>2017-05-17T10:58:59.761</time>
      </trkpt>
      <trkpt lat="48.44062" lon="2.73204">
        <ele>143</ele>
        <time>2017-05-17T10:59:00.761</time>
      </trkpt>
      <trkpt lat="48.44062" lon="2.73198">
        <ele>144</ele>
        <time>2017-05-17T10:59:01.760</time>
      </trkpt>
      <trkpt lat="48.4406" lon="2.73192">
        <ele>144</ele>
        <time>2017-05-17T10:59:02.760</time>
      </trkpt>
      <trkpt lat="48.4406" lon="2.73188">
        <ele>145</ele>
        <time>2017-05-17T10:59:03.760</time>
      </trkpt>
      <trkpt lat="48.44059" lon="2.73183">
        <ele>145</ele>
        <time>2017-05-17T10:59:04.759</time>
      </trkpt>
      <trkpt lat="48.44057" lon="2.73177">
        <ele>146</ele>
        <time>2017-05-17T10:59:05.762</time>
      </trkpt>
      <trkpt lat="48.44056" lon="2.73173">
        <ele>145</ele>
        <time>2017-05-17T10:59:06.762</time>
      </trkpt>
      <trkpt lat="48.44053" lon="2.73169">
        <ele>145</ele>
        <time>2017-05-17T10:59:07.761</time>
      </trkpt>
      <trkpt lat="48.44049" lon="2.73165">
        <ele>145</ele>
        <time>2017-05-17T10:59:08.762</time>
      </trkpt>
      <trkpt lat="48.44046" lon="2.73161">
        <ele>145</ele>
        <time>2017-05-17T10:59:09.761</time>
      </trkpt>
      <trkpt lat="48.44043" lon="2.73155">
        <ele>144</ele>
        <time>2017-05-17T10:59:10.759</time>
      </trkpt>
      <trkpt lat="48.44043" lon="2.7315">
        <ele>143</ele>
        <time>2017-05-17T10:59:11.760</time>
      </trkpt>
      <trkpt lat="48.44042" lon="2.73145">
        <ele>144</ele>
        <time>2017-05-17T10:59:12.760</time>
      </trkpt>
      <trkpt lat="48.44041" lon="2.73139">
        <ele>144</ele>
        <time>2017-05-17T10:59:13.762</time>
      </trkpt>
      <trkpt lat="48.4404" lon="2.73135">
        <ele>145</ele>
        <time>2017-05-17T10:59:14.760</time>
      </trkpt>
      <trkpt lat="48.44038" lon="2.73129">
        <ele>144</ele>
        <time>2017-05-17T10:59:15.761</time>
      </trkpt>
      <trkpt lat="48.44036" lon="2.73124">
        <ele>144</ele>
        <time>2017-05-17T10:59:16.762</time>
      </trkpt>
      <trkpt lat="48.44033" lon="2.73118">
        <ele>145</ele>
        <time>2017-05-17T10:59:17.762</time>
      </trkpt>
      <trkpt lat="48.44031" lon="2.73113">
        <ele>144</ele>
        <time>2017-05-17T10:59:18.763</time>
      </trkpt>
      <trkpt lat="48.44028" lon="2.73108">
        <ele>144</ele>
        <time>2017-05-17T10:59:19.761</time>
      </trkpt>
      <trkpt lat="48.44026" lon="2.73103">
        <ele>143</ele>
        <time>2017-05-17T10:59:20.760</time>
      </trkpt>
      <trkpt lat="48.44022" lon="2.73099">
        <ele>143</ele>
        <time>2017-05-17T10:59:21.761</time>
      </trkpt>
      <trkpt lat="48.4402" lon="2.73095">
        <ele>144</ele>
        <time>2017-05-17T10:59:22.760</time>
      </trkpt>
      <trkpt lat="48.44017" lon="2.73091">
        <ele>142</ele>
        <time>2017-05-17T10:59:23.762</time>
      </trkpt>
      <trkpt lat="48.44015" lon="2.73086">
        <ele>142</ele>
        <time>2017-05-17T10:59:24.761</time>
      </trkpt>
      <trkpt lat="48.44013" lon="2.73078">
        <ele>142</ele>
        <time>2017-05-17T10:59:25.760</time>
      </trkpt>
      <trkpt lat="48.44014" lon="2.73072">
        <ele>140</ele>
        <time>2017-05-17T10:59:26.763</time>
      </trkpt>
      <trkpt lat="48.44013" lon="2.73063">
        <ele>140</ele>
        <time>2017-05-17T10:59:27.761</time>
      </trkpt>
      <trkpt lat="48.44014" lon="2.73057">
        <ele>141</ele>
        <time>2017-05-17T10:59:28.763</time>
      </trkpt>
      <trkpt lat="48.44015" lon="2.73052">
        <ele>142</ele>
        <time>2017-05-17T10:59:29.759</time>
      </trkpt>
      <trkpt lat="48.44013" lon="2.73042">
        <ele>142</ele>
        <time>2017-05-17T10:59:30.759</time>
      </trkpt>
      <trkpt lat="48.44012" lon="2.73035">
        <ele>142</ele>
        <time>2017-05-17T10:59:31.760</time>
      </trkpt>
      <trkpt lat="48.44012" lon="2.73027">
        <ele>142</ele>
        <time>2017-05-17T10:59:32.761</time>
      </trkpt>
      <trkpt lat="48.44012" lon="2.73019">
        <ele>142</ele>
        <time>2017-05-17T10:59:33.764</time>
      </trkpt>
      <trkpt lat="48.44016" lon="2.73012">
        <ele>142</ele>
        <time>2017-05-17T10:59:34.761</time>
      </trkpt>
      <trkpt lat="48.44019" lon="2.73008">
        <ele>142</ele>
        <time>2017-05-17T10:59:35.761</time>
      </trkpt>
      <trkpt lat="48.44021" lon="2.73">
        <ele>142</ele>
        <time>2017-05-17T10:59:36.760</time>
      </trkpt>
      <trkpt lat="48.44018" lon="2.72994">
        <ele>141</ele>
        <time>2017-05-17T10:59:37.757</time>
      </trkpt>
      <trkpt lat="48.4402" lon="2.72988">
        <ele>143</ele>
        <time>2017-05-17T10:59:38.759</time>
      </trkpt>
      <trkpt lat="48.44021" lon="2.72982">
        <ele>143</ele>
        <time>2017-05-17T10:59:39.760</time>
      </trkpt>
      <trkpt lat="48.44025" lon="2.72979">
        <ele>144</ele>
        <time>2017-05-17T10:59:40.760</time>
      </trkpt>
      <trkpt lat="48.44029" lon="2.72974">
        <ele>145</ele>
        <time>2017-05-17T10:59:41.761</time>
      </trkpt>
      <trkpt lat="48.44031" lon="2.7297">
        <ele>144</ele>
        <time>2017-05-17T10:59:42.762</time>
      </trkpt>
      <trkpt lat="48.44033" lon="2.72964">
        <ele>144</ele>
        <time>2017-05-17T10:59:43.763</time>
      </trkpt>
      <trkpt lat="48.44033" lon="2.72957">
        <ele>145</ele>
        <time>2017-05-17T10:59:44.760</time>
      </trkpt>
      <trkpt lat="48.44033" lon="2.72951">
        <ele>146</ele>
        <time>2017-05-17T10:59:45.760</time>
      </trkpt>
      <trkpt lat="48.44032" lon="2.72943">
        <ele>145</ele>
        <time>2017-05-17T10:59:46.761</time>
      </trkpt>
      <trkpt lat="48.4403" lon="2.72935">
        <ele>144</ele>
        <time>2017-05-17T10:59:47.761</time>
      </trkpt>
      <trkpt lat="48.4403" lon="2.72928">
        <ele>144</ele>
        <time>2017-05-17T10:59:48.760</time>
      </trkpt>
      <trkpt lat="48.4403" lon="2.72923">
        <ele>144</ele>
        <time>2017-05-17T10:59:49.759</time>
      </trkpt>
      <trkpt lat="48.4403" lon="2.72916">
        <ele>144</ele>
        <time>2017-05-17T10:59:50.760</time>
      </trkpt>
      <trkpt lat="48.44031" lon="2.72911">
        <ele>145</ele>
        <time>2017-05-17T10:59:51.760</time>
      </trkpt>
      <trkpt lat="48.44031" lon="2.72905">
        <ele>145</ele>
        <time>2017-05-17T10:59:52.760</time>
      </trkpt>
      <trkpt lat="48.44028" lon="2.72895">
        <ele>144</ele>
        <time>2017-05-17T10:59:53.763</time>
      </trkpt>
      <trkpt lat="48.44026" lon="2.72889">
        <ele>144</ele>
        <time>2017-05-17T10:59:54.761</time>
      </trkpt>
      <trkpt lat="48.44028" lon="2.72882">
        <ele>145</ele>
        <time>2017-05-17T10:59:55.760</time>
      </trkpt>
      <trkpt lat="48.44028" lon="2.72876">
        <ele>146</ele>
        <time>2017-05-17T10:59:56.760</time>
      </trkpt>
      <trkpt lat="48.44027" lon="2.72869">
        <ele>146</ele>
        <time>2017-05-17T10:59:57.759</time>
      </trkpt>
      <trkpt lat="48.44025" lon="2.7286">
        <ele>146</ele>
        <time>2017-05-17T10:59:58.762</time>
      </trkpt>
      <trkpt lat="48.44025" lon="2.72853">
        <ele>146</ele>
        <time>2017-05-17T10:59:59.761</time>
      </trkpt>
      <trkpt lat="48.44023" lon="2.72846">
        <ele>145</ele>
        <time>2017-05-17T11:00:00.758</time>
      </trkpt>
      <trkpt lat="48.44021" lon="2.72838">
        <ele>144</ele>
        <time>2017-05-17T11:00:01.758</time>
      </trkpt>
      <trkpt lat="48.44018" lon="2.7283">
        <ele>144</ele>
        <time>2017-05-17T11:00:02.758</time>
      </trkpt>
      <trkpt lat="48.44018" lon="2.72822">
        <ele>144</ele>
        <time>2017-05-17T11:00:03.759</time>
      </trkpt>
      <trkpt lat="48.44018" lon="2.72813">
        <ele>144</ele>
        <time>2017-05-17T11:00:04.759</time>
      </trkpt>
      <trkpt lat="48.44019" lon="2.72805">
        <ele>144</ele>
        <time>2017-05-17T11:00:05.758</time>
      </trkpt>
      <trkpt lat="48.4402" lon="2.72797">
        <ele>143</ele>
        <time>2017-05-17T11:00:06.759</time>
      </trkpt>
      <trkpt lat="48.44021" lon="2.72788">
        <ele>143</ele>
        <time>2017-05-17T11:00:07.759</time>
      </trkpt>
      <trkpt lat="48.44024" lon="2.72781">
        <ele>144</ele>
        <time>2017-05-17T11:00:08.760</time>
      </trkpt>
      <trkpt lat="48.44026" lon="2.72773">
        <ele>144</ele>
        <time>2017-05-17T11:00:09.758</time>
      </trkpt>
      <trkpt lat="48.44027" lon="2.72763">
        <ele>143</ele>
        <time>2017-05-17T11:00:10.759</time>
      </trkpt>
      <trkpt lat="48.44028" lon="2.72755">
        <ele>143</ele>
        <time>2017-05-17T11:00:11.758</time>
      </trkpt>
      <trkpt lat="48.44029" lon="2.72747">
        <ele>143</ele>
        <time>2017-05-17T11:00:12.757</time>
      </trkpt>
      <trkpt lat="48.4403" lon="2.72738">
        <ele>143</ele>
        <time>2017-05-17T11:00:13.760</time>
      </trkpt>
      <trkpt lat="48.44028" lon="2.7273">
        <ele>143</ele>
        <time>2017-05-17T11:00:14.759</time>
      </trkpt>
      <trkpt lat="48.44025" lon="2.72724">
        <ele>143</ele>
        <time>2017-05-17T11:00:15.760</time>
      </trkpt>
      <trkpt lat="48.44021" lon="2.72717">
        <ele>143</ele>
        <time>2017-05-17T11:00:16.758</time>
      </trkpt>
      <trkpt lat="48.44017" lon="2.72712">
        <ele>143</ele>
        <time>2017-05-17T11:00:17.759</time>
      </trkpt>
      <trkpt lat="48.44014" lon="2.72706">
        <ele>142</ele>
        <time>2017-05-17T11:00:18.763</time>
      </trkpt>
      <trkpt lat="48.44013" lon="2.72698">
        <ele>142</ele>
        <time>2017-05-17T11:00:19.760</time>
      </trkpt>
      <trkpt lat="48.44012" lon="2.72689">
        <ele>143</ele>
        <time>2017-05-17T11:00:20.760</time>
      </trkpt>
      <trkpt lat="48.44011" lon="2.7268">
        <ele>142</ele>
        <time>2017-05-17T11:00:21.760</time>
      </trkpt>
      <trkpt lat="48.4401" lon="2.72674">
        <ele>142</ele>
        <time>2017-05-17T11:00:22.759</time>
      </trkpt>
      <trkpt lat="48.44009" lon="2.72669">
        <ele>143</ele>
        <time>2017-05-17T11:00:23.758</time>
      </trkpt>
      <trkpt lat="48.44007" lon="2.72666">
        <ele>144</ele>
        <time>2017-05-17T11:00:24.758</time>
      </trkpt>
      <trkpt lat="48.44007" lon="2.72663">
        <ele>143</ele>
        <time>2017-05-17T11:00:25.760</time>
      </trkpt>
      <trkpt lat="48.44007" lon="2.72661">
        <ele>143</ele>
        <time>2017-05-17T11:00:26.759</time>
      </trkpt>
      <trkpt lat="48.44007" lon="2.72659">
        <ele>143</ele>
        <time>2017-05-17T11:00:27.760</time>
      </trkpt>
      <trkpt lat="48.44005" lon="2.72656">
        <ele>143</ele>
        <time>2017-05-17T11:00:28.760</time>
      </trkpt>
      <trkpt lat="48.44002" lon="2.72653">
        <ele>143</ele>
        <time>2017-05-17T11:00:29.758</time>
      </trkpt>
      <trkpt lat="48.44" lon="2.7265">
        <ele>144</ele>
        <time>2017-05-17T11:00:30.760</time>
      </trkpt>
      <trkpt lat="48.43996" lon="2.72646">
        <ele>144</ele>
        <time>2017-05-17T11:00:31.761</time>
      </trkpt>
      <trkpt lat="48.43993" lon="2.72644">
        <ele>144</ele>
        <time>2017-05-17T11:00:32.759</time>
      </trkpt>
      <trkpt lat="48.4399" lon="2.72641">
        <ele>144</ele>
        <time>2017-05-17T11:00:33.762</time>
      </trkpt>
      <trkpt lat="48.43987" lon="2.72637">
        <ele>143</ele>
        <time>2017-05-17T11:00:34.760</time>
      </trkpt>
      <trkpt lat="48.43986" lon="2.72631">
        <ele>143</ele>
        <time>2017-05-17T11:00:35.757</time>
      </trkpt>
      <trkpt lat="48.43984" lon="2.72627">
        <ele>144</ele>
        <time>2017-05-17T11:00:36.760</time>
      </trkpt>
      <trkpt lat="48.43981" lon="2.72621">
        <ele>145</ele>
        <time>2017-05-17T11:00:37.762</time>
      </trkpt>
      <trkpt lat="48.43978" lon="2.72616">
        <ele>145</ele>
        <time>2017-05-17T11:00:38.769</time>
      </trkpt>
      <trkpt lat="48.43975" lon="2.72611">
        <ele>145</ele>
        <time>2017-05-17T11:00:39.762</time>
      </trkpt>
      <trkpt lat="48.43971" lon="2.72606">
        <ele>145</ele>
        <time>2017-05-17T11:00:40.764</time>
      </trkpt>
      <trkpt lat="48.43968" lon="2.726">
        <ele>145</ele>
        <time>2017-05-17T11:00:41.763</time>
      </trkpt>
      <trkpt lat="48.43966" lon="2.72595">
        <ele>144</ele>
        <time>2017-05-17T11:00:42.759</time>
      </trkpt>
      <trkpt lat="48.43963" lon="2.7259">
        <ele>145</ele>
        <time>2017-05-17T11:00:43.762</time>
      </trkpt>
      <trkpt lat="48.4396" lon="2.72586">
        <ele>144</ele>
        <time>2017-05-17T11:00:44.761</time>
      </trkpt>
      <trkpt lat="48.43957" lon="2.72582">
        <ele>144</ele>
        <time>2017-05-17T11:00:45.759</time>
      </trkpt>
      <trkpt lat="48.43954" lon="2.72578">
        <ele>144</ele>
        <time>2017-05-17T11:00:46.758</time>
      </trkpt>
      <trkpt lat="48.43951" lon="2.72572">
        <ele>142</ele>
        <time>2017-05-17T11:00:47.759</time>
      </trkpt>
      <trkpt lat="48.43948" lon="2.72568">
        <ele>142</ele>
        <time>2017-05-17T11:00:48.761</time>
      </trkpt>
      <trkpt lat="48.43946" lon="2.72563">
        <ele>142</ele>
        <time>2017-05-17T11:00:49.760</time>
      </trkpt>
      <trkpt lat="48.43942" lon="2.72556">
        <ele>143</ele>
        <time>2017-05-17T11:00:50.760</time>
      </trkpt>
      <trkpt lat="48.43939" lon="2.72553">
        <ele>143</ele>
        <time>2017-05-17T11:00:51.760</time>
      </trkpt>
      <trkpt lat="48.43936" lon="2.72549">
        <ele>143</ele>
        <time>2017-05-17T11:00:52.758</time>
      </trkpt>
      <trkpt lat="48.43932" lon="2.72545">
        <ele>143</ele>
        <time>2017-05-17T11:00:53.760</time>
      </trkpt>
      <trkpt lat="48.43929" lon="2.72544">
        <ele>143</ele>
        <time>2017-05-17T11:00:54.762</time>
      </trkpt>
      <trkpt lat="48.43926" lon="2.7254">
        <ele>143</ele>
        <time>2017-05-17T11:00:55.760</time>
      </trkpt>
      <trkpt lat="48.43922" lon="2.72537">
        <ele>143</ele>
        <time>2017-05-17T11:00:56.760</time>
      </trkpt>
      <trkpt lat="48.43919" lon="2.72532">
        <ele>142</ele>
        <time>2017-05-17T11:00:57.761</time>
      </trkpt>
      <trkpt lat="48.43918" lon="2.72527">
        <ele>142</ele>
        <time>2017-05-17T11:00:58.764</time>
      </trkpt>
      <trkpt lat="48.43915" lon="2.72522">
        <ele>142</ele>
        <time>2017-05-17T11:00:59.760</time>
      </trkpt>
      <trkpt lat="48.43911" lon="2.72518">
        <ele>142</ele>
        <time>2017-05-17T11:01:00.761</time>
      </trkpt>
      <trkpt lat="48.43908" lon="2.72512">
        <ele>142</ele>
        <time>2017-05-17T11:01:01.761</time>
      </trkpt>
      <trkpt lat="48.43905" lon="2.72507">
        <ele>142</ele>
        <time>2017-05-17T11:01:02.759</time>
      </trkpt>
      <trkpt lat="48.43901" lon="2.72502">
        <ele>142</ele>
        <time>2017-05-17T11:01:03.760</time>
      </trkpt>
      <trkpt lat="48.43897" lon="2.72498">
        <ele>144</ele>
        <time>2017-05-17T11:01:04.760</time>
      </trkpt>
      <trkpt lat="48.43894" lon="2.72494">
        <ele>144</ele>
        <time>2017-05-17T11:01:05.758</time>
      </trkpt>
      <trkpt lat="48.43892" lon="2.72489">
        <ele>145</ele>
        <time>2017-05-17T11:01:06.762</time>
      </trkpt>
      <trkpt lat="48.43891" lon="2.72483">
        <ele>145</ele>
        <time>2017-05-17T11:01:07.762</time>
      </trkpt>
      <trkpt lat="48.43889" lon="2.72479">
        <ele>146</ele>
        <time>2017-05-17T11:01:08.761</time>
      </trkpt>
      <trkpt lat="48.43889" lon="2.72474">
        <ele>146</ele>
        <time>2017-05-17T11:01:09.760</time>
      </trkpt>
      <trkpt lat="48.43889" lon="2.72468">
        <ele>145</ele>
        <time>2017-05-17T11:01:10.759</time>
      </trkpt>
      <trkpt lat="48.4389" lon="2.72463">
        <ele>144</ele>
        <time>2017-05-17T11:01:11.760</time>
      </trkpt>
      <trkpt lat="48.43893" lon="2.72459">
        <ele>145</ele>
        <time>2017-05-17T11:01:12.760</time>
      </trkpt>
      <trkpt lat="48.43893" lon="2.72453">
        <ele>145</ele>
        <time>2017-05-17T11:01:13.763</time>
      </trkpt>
      <trkpt lat="48.43894" lon="2.72449">
        <ele>144</ele>
        <time>2017-05-17T11:01:14.759</time>
      </trkpt>
      <trkpt lat="48.43894" lon="2.72444">
        <ele>145</ele>
        <time>2017-05-17T11:01:15.761</time>
      </trkpt>
      <trkpt lat="48.43894" lon="2.72439">
        <ele>146</ele>
        <time>2017-05-17T11:01:16.759</time>
      </trkpt>
      <trkpt lat="48.43894" lon="2.72435">
        <ele>146</ele>
        <time>2017-05-17T11:01:17.759</time>
      </trkpt>
      <trkpt lat="48.43895" lon="2.7243">
        <ele>147</ele>
        <time>2017-05-17T11:01:18.760</time>
      </trkpt>
      <trkpt lat="48.43897" lon="2.72427">
        <ele>148</ele>
        <time>2017-05-17T11:01:19.760</time>
      </trkpt>
      <trkpt lat="48.43898" lon="2.72422">
        <ele>148</ele>
        <time>2017-05-17T11:01:20.762</time>
      </trkpt>
      <trkpt lat="48.439" lon="2.72418">
        <ele>147</ele>
        <time>2017-05-17T11:01:21.762</time>
      </trkpt>
      <trkpt lat="48.43899" lon="2.72413">
        <ele>147</ele>
        <time>2017-05-17T11:01:22.763</time>
      </trkpt>
      <trkpt lat="48.43899" lon="2.72409">
        <ele>148</ele>
        <time>2017-05-17T11:01:23.763</time>
      </trkpt>
      <trkpt lat="48.43899" lon="2.72404">
        <ele>149</ele>
        <time>2017-05-17T11:01:24.760</time>
      </trkpt>
      <trkpt lat="48.439" lon="2.724">
        <ele>148</ele>
        <time>2017-05-17T11:01:25.760</time>
      </trkpt>
      <trkpt lat="48.43899" lon="2.72395">
        <ele>147</ele>
        <time>2017-05-17T11:01:26.760</time>
      </trkpt>
      <trkpt lat="48.43901" lon="2.72388">
        <ele>149</ele>
        <time>2017-05-17T11:01:27.760</time>
      </trkpt>
      <trkpt lat="48.43901" lon="2.72382">
        <ele>148</ele>
        <time>2017-05-17T11:01:28.759</time>
      </trkpt>
      <trkpt lat="48.43901" lon="2.72376">
        <ele>148</ele>
        <time>2017-05-17T11:01:29.761</time>
      </trkpt>
      <trkpt lat="48.43901" lon="2.72369">
        <ele>148</ele>
        <time>2017-05-17T11:01:30.760</time>
      </trkpt>
      <trkpt lat="48.43902" lon="2.72364">
        <ele>147</ele>
        <time>2017-05-17T11:01:31.759</time>
      </trkpt>
      <trkpt lat="48.43902" lon="2.7236">
        <ele>148</ele>
        <time>2017-05-17T11:01:32.761</time>
      </trkpt>
      <trkpt lat="48.43904" lon="2.72357">
        <ele>148</ele>
        <time>2017-05-17T11:01:33.763</time>
      </trkpt>
      <trkpt lat="48.43904" lon="2.72358">
        <ele>149</ele>
        <time>2017-05-17T11:01:34.762</time>
      </trkpt>
      <trkpt lat="48.43907" lon="2.72359">
        <ele>149</ele>
        <time>2017-05-17T11:01:35.760</time>
      </trkpt>
      <trkpt lat="48.43909" lon="2.7236">
        <ele>149</ele>
        <time>2017-05-17T11:01:36.761</time>
      </trkpt>
      <trkpt lat="48.43911" lon="2.72365">
        <ele>150</ele>
        <time>2017-05-17T11:01:37.761</time>
      </trkpt>
      <trkpt lat="48.43913" lon="2.7237">
        <ele>150</ele>
        <time>2017-05-17T11:01:38.762</time>
      </trkpt>
      <trkpt lat="48.43916" lon="2.72372">
        <ele>150</ele>
        <time>2017-05-17T11:01:39.773</time>
      </trkpt>
      <trkpt lat="48.4392" lon="2.72377">
        <ele>150</ele>
        <time>2017-05-17T11:01:40.761</time>
      </trkpt>
      <trkpt lat="48.43923" lon="2.72385">
        <ele>150</ele>
        <time>2017-05-17T11:01:41.763</time>
      </trkpt>
      <trkpt lat="48.43926" lon="2.72391">
        <ele>152</ele>
        <time>2017-05-17T11:01:42.760</time>
      </trkpt>
      <trkpt lat="48.4393" lon="2.72396">
        <ele>154</ele>
        <time>2017-05-17T11:01:43.762</time>
      </trkpt>
      <trkpt lat="48.43935" lon="2.72402">
        <ele>155</ele>
        <time>2017-05-17T11:01:44.761</time>
      </trkpt>
      <trkpt lat="48.43938" lon="2.72407">
        <ele>155</ele>
        <time>2017-05-17T11:01:45.761</time>
      </trkpt>
      <trkpt lat="48.4394" lon="2.72412">
        <ele>155</ele>
        <time>2017-05-17T11:01:46.761</time>
      </trkpt>
      <trkpt lat="48.43943" lon="2.72416">
        <ele>154</ele>
        <time>2017-05-17T11:01:47.761</time>
      </trkpt>
      <trkpt lat="48.43945" lon="2.7242">
        <ele>153</ele>
        <time>2017-05-17T11:01:48.762</time>
      </trkpt>
      <trkpt lat="48.43947" lon="2.72423">
        <ele>153</ele>
        <time>2017-05-17T11:01:49.761</time>
      </trkpt>
      <trkpt lat="48.43948" lon="2.72428">
        <ele>153</ele>
        <time>2017-05-17T11:01:50.761</time>
      </trkpt>
      <trkpt lat="48.43949" lon="2.72436">
        <ele>153</ele>
        <time>2017-05-17T11:01:51.759</time>
      </trkpt>
      <trkpt lat="48.43949" lon="2.72442">
        <ele>151</ele>
        <time>2017-05-17T11:01:52.759</time>
      </trkpt>
      <trkpt lat="48.4395" lon="2.72446">
        <ele>149</ele>
        <time>2017-05-17T11:01:53.761</time>
      </trkpt>
      <trkpt lat="48.43952" lon="2.72452">
        <ele>148</ele>
        <time>2017-05-17T11:01:54.760</time>
      </trkpt>
      <trkpt lat="48.43955" lon="2.72459">
        <ele>147</ele>
        <time>2017-05-17T11:01:55.761</time>
      </trkpt>
      <trkpt lat="48.43957" lon="2.72461">
        <ele>145</ele>
        <time>2017-05-17T11:01:56.761</time>
      </trkpt>
      <trkpt lat="48.43959" lon="2.72461">
        <ele>144</ele>
        <time>2017-05-17T11:01:57.764</time>
      </trkpt>
      <trkpt lat="48.43962" lon="2.72464">
        <ele>142</ele>
        <time>2017-05-17T11:01:58.761</time>
      </trkpt>
      <trkpt lat="48.43965" lon="2.72467">
        <ele>142</ele>
        <time>2017-05-17T11:01:59.761</time>
      </trkpt>
      <trkpt lat="48.43969" lon="2.72471">
        <ele>141</ele>
        <time>2017-05-17T11:02:00.762</time>
      </trkpt>
      <trkpt lat="48.43971" lon="2.72476">
        <ele>141</ele>
        <time>2017-05-17T11:02:01.762</time>
      </trkpt>
      <trkpt lat="48.43973" lon="2.72481">
        <ele>141</ele>
        <time>2017-05-17T11:02:02.762</time>
      </trkpt>
      <trkpt lat="48.43974" lon="2.72487">
        <ele>141</ele>
        <time>2017-05-17T11:02:03.762</time>
      </trkpt>
      <trkpt lat="48.43975" lon="2.72494">
        <ele>141</ele>
        <time>2017-05-17T11:02:04.761</time>
      </trkpt>
      <trkpt lat="48.43978" lon="2.72499">
        <ele>140</ele>
        <time>2017-05-17T11:02:05.762</time>
      </trkpt>
      <trkpt lat="48.43981" lon="2.72504">
        <ele>138</ele>
        <time>2017-05-17T11:02:06.762</time>
      </trkpt>
      <trkpt lat="48.43984" lon="2.7251">
        <ele>139</ele>
        <time>2017-05-17T11:02:07.760</time>
      </trkpt>
      <trkpt lat="48.43985" lon="2.72516">
        <ele>138</ele>
        <time>2017-05-17T11:02:08.760</time>
      </trkpt>
      <trkpt lat="48.43987" lon="2.72522">
        <ele>139</ele>
        <time>2017-05-17T11:02:09.760</time>
      </trkpt>
      <trkpt lat="48.43991" lon="2.72531">
        <ele>141</ele>
        <time>2017-05-17T11:02:10.760</time>
      </trkpt>
      <trkpt lat="48.43992" lon="2.7254">
        <ele>142</ele>
        <time>2017-05-17T11:02:11.762</time>
      </trkpt>
      <trkpt lat="48.43993" lon="2.72546">
        <ele>143</ele>
        <time>2017-05-17T11:02:12.760</time>
      </trkpt>
      <trkpt lat="48.43995" lon="2.72553">
        <ele>143</ele>
        <time>2017-05-17T11:02:13.758</time>
      </trkpt>
      <trkpt lat="48.43994" lon="2.72561">
        <ele>142</ele>
        <time>2017-05-17T11:02:14.762</time>
      </trkpt>
      <trkpt lat="48.43994" lon="2.72569">
        <ele>142</ele>
        <time>2017-05-17T11:02:15.760</time>
      </trkpt>
      <trkpt lat="48.43995" lon="2.72577">
        <ele>143</ele>
        <time>2017-05-17T11:02:16.760</time>
      </trkpt>
      <trkpt lat="48.43996" lon="2.72585">
        <ele>143</ele>
        <time>2017-05-17T11:02:17.759</time>
      </trkpt>
      <trkpt lat="48.43998" lon="2.72594">
        <ele>143</ele>
        <time>2017-05-17T11:02:18.761</time>
      </trkpt>
      <trkpt lat="48.44" lon="2.72603">
        <ele>143</ele>
        <time>2017-05-17T11:02:19.754</time>
      </trkpt>
      <trkpt lat="48.44001" lon="2.7261">
        <ele>143</ele>
        <time>2017-05-17T11:02:20.760</time>
      </trkpt>
      <trkpt lat="48.43999" lon="2.72617">
        <ele>143</ele>
        <time>2017-05-17T11:02:21.760</time>
      </trkpt>
      <trkpt lat="48.43996" lon="2.72623">
        <ele>144</ele>
        <time>2017-05-17T11:02:22.761</time>
      </trkpt>
      <trkpt lat="48.43996" lon="2.7263">
        <ele>145</ele>
        <time>2017-05-17T11:02:23.763</time>
      </trkpt>
      <trkpt lat="48.43997" lon="2.72637">
        <ele>144</ele>
        <time>2017-05-17T11:02:24.784</time>
      </trkpt>
      <trkpt lat="48.43998" lon="2.72644">
        <ele>142</ele>
        <time>2017-05-17T11:02:25.759</time>
      </trkpt>
      <trkpt lat="48.44001" lon="2.72646">
        <ele>142</ele>
        <time>2017-05-17T11:02:26.760</time>
      </trkpt>
      <trkpt lat="48.44003" lon="2.72646">
        <ele>143</ele>
        <time>2017-05-17T11:02:27.760</time>
      </trkpt>
      <trkpt lat="48.44004" lon="2.72645">
        <ele>143</ele>
        <time>2017-05-17T11:02:28.763</time>
      </trkpt>
      <trkpt lat="48.44005" lon="2.72643">
        <ele>143</ele>
        <time>2017-05-17T11:02:29.759</time>
      </trkpt>
      <trkpt lat="48.44005" lon="2.72643">
        <ele>143</ele>
        <time>2017-05-17T11:02:30.758</time>
      </trkpt>
      <trkpt lat="48.44006" lon="2.72643">
        <ele>143</ele>
        <time>2017-05-17T11:02:31.759</time>
      </trkpt>
      <trkpt lat="48.44006" lon="2.72643">
        <ele>143</ele>
        <time>2017-05-17T11:02:32.757</time>
      </trkpt>
      <trkpt lat="48.44006" lon="2.72643">
        <ele>143</ele>
        <time>2017-05-17T11:02:33.760</time>
      </trkpt>
      <trkpt lat="48.44006" lon="2.72642">
        <ele>143</ele>
        <time>2017-05-17T11:02:34.758</time>
      </trkpt>
      <trkpt lat="48.44006" lon="2.72642">
        <ele>143</ele>
        <time>2017-05-17T11:02:35.756</time>
      </trkpt>
      <trkpt lat="48.44005" lon="2.72642">
        <ele>143</ele>
        <time>2017-05-17T11:02:36.758</time>
      </trkpt>
      <trkpt lat="48.44005" lon="2.72643">
        <ele>144</ele>
        <time>2017-05-17T11:02:37.758</time>
      </trkpt>
      <trkpt lat="48.44005" lon="2.72643">
        <ele>144</ele>
        <time>2017-05-17T11:02:38.760</time>
      </trkpt>
      <trkpt lat="48.44005" lon="2.72642">
        <ele>144</ele>
        <time>2017-05-17T11:02:39.760</time>
      </trkpt>
      <trkpt lat="48.44004" lon="2.72642">
        <ele>144</ele>
        <time>2017-05-17T11:02:40.761</time>
      </trkpt>
      <trkpt lat="48.44002" lon="2.72643">
        <ele>144</ele>
        <time>2017-05-17T11:02:41.761</time>
      </trkpt>
      <trkpt lat="48.44001" lon="2.72644">
        <ele>144</ele>
        <time>2017-05-17T11:02:42.760</time>
      </trkpt>
      <trkpt lat="48.43999" lon="2.72643">
        <ele>143</ele>
        <time>2017-05-17T11:02:43.761</time>
      </trkpt>
      <trkpt lat="48.43999" lon="2.7264">
        <ele>142</ele>
        <time>2017-05-17T11:02:44.761</time>
      </trkpt>
      <trkpt lat="48.43998" lon="2.72635">
        <ele>142</ele>
        <time>2017-05-17T11:02:45.760</time>
      </trkpt>
      <trkpt lat="48.43999" lon="2.72629">
        <ele>143</ele>
        <time>2017-05-17T11:02:46.761</time>
      </trkpt>
      <trkpt lat="48.44002" lon="2.72625">
        <ele>140</ele>
        <time>2017-05-17T11:02:47.761</time>
      </trkpt>
      <trkpt lat="48.44004" lon="2.72619">
        <ele>140</ele>
        <time>2017-05-17T11:02:48.763</time>
      </trkpt>
      <trkpt lat="48.44004" lon="2.72611">
        <ele>140</ele>
        <time>2017-05-17T11:02:49.762</time>
      </trkpt>
      <trkpt lat="48.44003" lon="2.72603">
        <ele>141</ele>
        <time>2017-05-17T11:02:50.762</time>
      </trkpt>
      <trkpt lat="48.44003" lon="2.72596">
        <ele>140</ele>
        <time>2017-05-17T11:02:51.760</time>
      </trkpt>
      <trkpt lat="48.44002" lon="2.72589">
        <ele>140</ele>
        <time>2017-05-17T11:02:52.763</time>
      </trkpt>
      <trkpt lat="48.44002" lon="2.7258">
        <ele>140</ele>
        <time>2017-05-17T11:02:53.765</time>
      </trkpt>
      <trkpt lat="48.44" lon="2.72572">
        <ele>139</ele>
        <time>2017-05-17T11:02:54.762</time>
      </trkpt>
      <trkpt lat="48.44001" lon="2.72566">
        <ele>140</ele>
        <time>2017-05-17T11:02:55.761</time>
      </trkpt>
      <trkpt lat="48.44001" lon="2.72558">
        <ele>139</ele>
        <time>2017-05-17T11:02:56.762</time>
      </trkpt>
      <trkpt lat="48.43997" lon="2.7255">
        <ele>140</ele>
        <time>2017-05-17T11:02:57.763</time>
      </trkpt>
      <trkpt lat="48.43997" lon="2.72542">
        <ele>139</ele>
        <time>2017-05-17T11:02:58.761</time>
      </trkpt>
      <trkpt lat="48.43995" lon="2.72535">
        <ele>140</ele>
        <time>2017-05-17T11:02:59.761</time>
      </trkpt>
      <trkpt lat="48.43994" lon="2.72529">
        <ele>141</ele>
        <time>2017-05-17T11:03:00.760</time>
      </trkpt>
      <trkpt lat="48.43991" lon="2.72522">
        <ele>141</ele>
        <time>2017-05-17T11:03:01.761</time>
      </trkpt>
      <trkpt lat="48.43987" lon="2.72514">
        <ele>141</ele>
        <time>2017-05-17T11:03:02.762</time>
      </trkpt>
      <trkpt lat="48.43982" lon="2.7251">
        <ele>141</ele>
        <time>2017-05-17T11:03:03.761</time>
      </trkpt>
      <trkpt lat="48.43979" lon="2.72504">
        <ele>140</ele>
        <time>2017-05-17T11:03:04.758</time>
      </trkpt>
      <trkpt lat="48.43978" lon="2.72497">
        <ele>140</ele>
        <time>2017-05-17T11:03:05.760</time>
      </trkpt>
      <trkpt lat="48.43977" lon="2.72489">
        <ele>139</ele>
        <time>2017-05-17T11:03:06.762</time>
      </trkpt>
      <trkpt lat="48.43974" lon="2.72481">
        <ele>139</ele>
        <time>2017-05-17T11:03:07.761</time>
      </trkpt>
      <trkpt lat="48.43971" lon="2.72473">
        <ele>140</ele>
        <time>2017-05-17T11:03:08.761</time>
      </trkpt>
      <trkpt lat="48.43968" lon="2.72467">
        <ele>140</ele>
        <time>2017-05-17T11:03:09.761</time>
      </trkpt>
      <trkpt lat="48.43963" lon="2.72463">
        <ele>142</ele>
        <time>2017-05-17T11:03:10.762</time>
      </trkpt>
      <trkpt lat="48.43959" lon="2.72464">
        <ele>142</ele>
        <time>2017-05-17T11:03:11.760</time>
      </trkpt>
      <trkpt lat="48.43955" lon="2.72461">
        <ele>143</ele>
        <time>2017-05-17T11:03:12.758</time>
      </trkpt>
      <trkpt lat="48.43955" lon="2.72455">
        <ele>142</ele>
        <time>2017-05-17T11:03:13.762</time>
      </trkpt>
      <trkpt lat="48.43953" lon="2.72449">
        <ele>143</ele>
        <time>2017-05-17T11:03:14.760</time>
      </trkpt>
      <trkpt lat="48.43951" lon="2.72445">
        <ele>142</ele>
        <time>2017-05-17T11:03:15.759</time>
      </trkpt>
      <trkpt lat="48.4395" lon="2.72438">
        <ele>142</ele>
        <time>2017-05-17T11:03:16.760</time>
      </trkpt>
      <trkpt lat="48.4395" lon="2.72429">
        <ele>142</ele>
        <time>2017-05-17T11:03:17.760</time>
      </trkpt>
      <trkpt lat="48.43949" lon="2.72423">
        <ele>143</ele>
        <time>2017-05-17T11:03:18.761</time>
      </trkpt>
      <trkpt lat="48.43947" lon="2.72418">
        <ele>143</ele>
        <time>2017-05-17T11:03:19.759</time>
      </trkpt>
      <trkpt lat="48.43944" lon="2.72412">
        <ele>144</ele>
        <time>2017-05-17T11:03:20.761</time>
      </trkpt>
      <trkpt lat="48.43941" lon="2.72407">
        <ele>145</ele>
        <time>2017-05-17T11:03:21.761</time>
      </trkpt>
      <trkpt lat="48.43939" lon="2.72401">
        <ele>145</ele>
        <time>2017-05-17T11:03:22.759</time>
      </trkpt>
      <trkpt lat="48.43936" lon="2.72395">
        <ele>145</ele>
        <time>2017-05-17T11:03:23.762</time>
      </trkpt>
      <trkpt lat="48.43934" lon="2.7239">
        <ele>146</ele>
        <time>2017-05-17T11:03:24.761</time>
      </trkpt>
      <trkpt lat="48.4393" lon="2.72384">
        <ele>146</ele>
        <time>2017-05-17T11:03:25.761</time>
      </trkpt>
      <trkpt lat="48.43926" lon="2.72377">
        <ele>145</ele>
        <time>2017-05-17T11:03:26.762</time>
      </trkpt>
      <trkpt lat="48.43924" lon="2.72371">
        <ele>145</ele>
        <time>2017-05-17T11:03:27.760</time>
      </trkpt>
      <trkpt lat="48.4392" lon="2.72366">
        <ele>147</ele>
        <time>2017-05-17T11:03:28.762</time>
      </trkpt>
      <trkpt lat="48.43917" lon="2.72364">
        <ele>146</ele>
        <time>2017-05-17T11:03:29.760</time>
      </trkpt>
      <trkpt lat="48.43915" lon="2.72361">
        <ele>148</ele>
        <time>2017-05-17T11:03:30.759</time>
      </trkpt>
      <trkpt lat="48.43913" lon="2.72358">
        <ele>148</ele>
        <time>2017-05-17T11:03:31.760</time>
      </trkpt>
      <trkpt lat="48.43908" lon="2.72356">
        <ele>148</ele>
        <time>2017-05-17T11:03:32.759</time>
      </trkpt>
      <trkpt lat="48.43905" lon="2.72356">
        <ele>148</ele>
        <time>2017-05-17T11:03:33.762</time>
      </trkpt>
      <trkpt lat="48.439" lon="2.72356">
        <ele>148</ele>
        <time>2017-05-17T11:03:34.760</time>
      </trkpt>
      <trkpt lat="48.43896" lon="2.72356">
        <ele>147</ele>
        <time>2017-05-17T11:03:35.760</time>
      </trkpt>
      <trkpt lat="48.43893" lon="2.72358">
        <ele>147</ele>
        <time>2017-05-17T11:03:36.760</time>
      </trkpt>
      <trkpt lat="48.4389" lon="2.72361">
        <ele>146</ele>
        <time>2017-05-17T11:03:37.760</time>
      </trkpt>
      <trkpt lat="48.43886" lon="2.72362">
        <ele>145</ele>
        <time>2017-05-17T11:03:38.763</time>
      </trkpt>
      <trkpt lat="48.43885" lon="2.72362">
        <ele>145</ele>
        <time>2017-05-17T11:03:39.763</time>
      </trkpt>
      <trkpt lat="48.43881" lon="2.7236">
        <ele>145</ele>
        <time>2017-05-17T11:03:40.761</time>
      </trkpt>
      <trkpt lat="48.43877" lon="2.72361">
        <ele>146</ele>
        <time>2017-05-17T11:03:41.760</time>
      </trkpt>
      <trkpt lat="48.43873" lon="2.72362">
        <ele>146</ele>
        <time>2017-05-17T11:03:42.760</time>
      </trkpt>
      <trkpt lat="48.4387" lon="2.72363">
        <ele>146</ele>
        <time>2017-05-17T11:03:43.763</time>
      </trkpt>
      <trkpt lat="48.43866" lon="2.72362">
        <ele>147</ele>
        <time>2017-05-17T11:03:44.761</time>
      </trkpt>
      <trkpt lat="48.43861" lon="2.72361">
        <ele>147</ele>
        <time>2017-05-17T11:03:45.760</time>
      </trkpt>
      <trkpt lat="48.43855" lon="2.7236">
        <ele>146</ele>
        <time>2017-05-17T11:03:46.761</time>
      </trkpt>
      <trkpt lat="48.43852" lon="2.72359">
        <ele>146</ele>
        <time>2017-05-17T11:03:47.760</time>
      </trkpt>
      <trkpt lat="48.43847" lon="2.72359">
        <ele>148</ele>
        <time>2017-05-17T11:03:48.761</time>
      </trkpt>
      <trkpt lat="48.43845" lon="2.72356">
        <ele>148</ele>
        <time>2017-05-17T11:03:49.760</time>
      </trkpt>
      <trkpt lat="48.43842" lon="2.72356">
        <ele>148</ele>
        <time>2017-05-17T11:03:50.761</time>
      </trkpt>
      <trkpt lat="48.43839" lon="2.72356">
        <ele>150</ele>
        <time>2017-05-17T11:03:51.760</time>
      </trkpt>
      <trkpt lat="48.43837" lon="2.72354">
        <ele>150</ele>
        <time>2017-05-17T11:03:52.759</time>
      </trkpt>
      <trkpt lat="48.43835" lon="2.72351">
        <ele>150</ele>
        <time>2017-05-17T11:03:53.763</time>
      </trkpt>
      <trkpt lat="48.43833" lon="2.7235">
        <ele>150</ele>
        <time>2017-05-17T11:03:54.762</time>
      </trkpt>
      <trkpt lat="48.4383" lon="2.7235">
        <ele>150</ele>
        <time>2017-05-17T11:03:55.760</time>
      </trkpt>
      <trkpt lat="48.43827" lon="2.72348">
        <ele>149</ele>
        <time>2017-05-17T11:03:56.760</time>
      </trkpt>
      <trkpt lat="48.43824" lon="2.72346">
        <ele>150</ele>
        <time>2017-05-17T11:03:57.760</time>
      </trkpt>
      <trkpt lat="48.43823" lon="2.72343">
        <ele>150</ele>
        <time>2017-05-17T11:03:58.763</time>
      </trkpt>
      <trkpt lat="48.4382" lon="2.72342">
        <ele>150</ele>
        <time>2017-05-17T11:03:59.761</time>
      </trkpt>
      <trkpt lat="48.43817" lon="2.72341">
        <ele>151</ele>
        <time>2017-05-17T11:04:00.761</time>
      </trkpt>
      <trkpt lat="48.43817" lon="2.72343">
        <ele>151</ele>
        <time>2017-05-17T11:04:01.759</time>
      </trkpt>
      <trkpt lat="48.43816" lon="2.72344">
        <ele>152</ele>
        <time>2017-05-17T11:04:02.761</time>
      </trkpt>
      <trkpt lat="48.43817" lon="2.72345">
        <ele>152</ele>
        <time>2017-05-17T11:04:03.763</time>
      </trkpt>
      <trkpt lat="48.43815" lon="2.72344">
        <ele>152</ele>
        <time>2017-05-17T11:04:04.760</time>
      </trkpt>
      <trkpt lat="48.43814" lon="2.72344">
        <ele>154</ele>
        <time>2017-05-17T11:04:05.760</time>
      </trkpt>
      <trkpt lat="48.43813" lon="2.72343">
        <ele>154</ele>
        <time>2017-05-17T11:04:06.761</time>
      </trkpt>
      <trkpt lat="48.43811" lon="2.72342">
        <ele>154</ele>
        <time>2017-05-17T11:04:07.760</time>
      </trkpt>
      <trkpt lat="48.4381" lon="2.72341">
        <ele>154</ele>
        <time>2017-05-17T11:04:08.759</time>
      </trkpt>
      <trkpt lat="48.43809" lon="2.72341">
        <ele>153</ele>
        <time>2017-05-17T11:04:09.760</time>
      </trkpt>
      <trkpt lat="48.43808" lon="2.7234">
        <ele>154</ele>
        <time>2017-05-17T11:04:10.761</time>
      </trkpt>
      <trkpt lat="48.43806" lon="2.7234">
        <ele>155</ele>
        <time>2017-05-17T11:04:11.761</time>
      </trkpt>
      <trkpt lat="48.43805" lon="2.7234">
        <ele>156</ele>
        <time>2017-05-17T11:04:12.762</time>
      </trkpt>
      <trkpt lat="48.43805" lon="2.72341">
        <ele>157</ele>
        <time>2017-05-17T11:04:13.757</time>
      </trkpt>
      <trkpt lat="48.43803" lon="2.7234">
        <ele>157</ele>
        <time>2017-05-17T11:04:14.759</time>
      </trkpt>
      <trkpt lat="48.43802" lon="2.72339">
        <ele>158</ele>
        <time>2017-05-17T11:04:15.759</time>
      </trkpt>
      <trkpt lat="48.43801" lon="2.72338">
        <ele>158</ele>
        <time>2017-05-17T11:04:16.760</time>
      </trkpt>
      <trkpt lat="48.438" lon="2.72338">
        <ele>160</ele>
        <time>2017-05-17T11:04:17.760</time>
      </trkpt>
      <trkpt lat="48.43799" lon="2.72339">
        <ele>161</ele>
        <time>2017-05-17T11:04:18.761</time>
      </trkpt>
      <trkpt lat="48.43797" lon="2.72338">
        <ele>160</ele>
        <time>2017-05-17T11:04:19.760</time>
      </trkpt>
      <trkpt lat="48.43796" lon="2.72337">
        <ele>160</ele>
        <time>2017-05-17T11:04:20.762</time>
      </trkpt>
      <trkpt lat="48.43796" lon="2.72335">
        <ele>161</ele>
        <time>2017-05-17T11:04:21.762</time>
      </trkpt>
      <trkpt lat="48.43795" lon="2.72333">
        <ele>161</ele>
        <time>2017-05-17T11:04:22.762</time>
      </trkpt>
      <trkpt lat="48.43794" lon="2.72332">
        <ele>160</ele>
        <time>2017-05-17T11:04:23.758</time>
      </trkpt>
      <trkpt lat="48.43793" lon="2.7233">
        <ele>160</ele>
        <time>2017-05-17T11:04:24.759</time>
      </trkpt>
      <trkpt lat="48.43792" lon="2.72329">
        <ele>161</ele>
        <time>2017-05-17T11:04:25.760</time>
      </trkpt>
      <trkpt lat="48.43791" lon="2.72328">
        <ele>161</ele>
        <time>2017-05-17T11:04:26.760</time>
      </trkpt>
      <trkpt lat="48.4379" lon="2.72328">
        <ele>161</ele>
        <time>2017-05-17T11:04:27.759</time>
      </trkpt>
      <trkpt lat="48.43789" lon="2.72328">
        <ele>161</ele>
        <time>2017-05-17T11:04:28.762</time>
      </trkpt>
      <trkpt lat="48.43789" lon="2.72327">
        <ele>162</ele>
        <time>2017-05-17T11:04:29.760</time>
      </trkpt>
      <trkpt lat="48.43789" lon="2.72327">
        <ele>162</ele>
        <time>2017-05-17T11:04:30.758</time>
      </trkpt>
      <trkpt lat="48.43789" lon="2.72327">
        <ele>163</ele>
        <time>2017-05-17T11:04:31.759</time>
      </trkpt>
      <trkpt lat="48.4379" lon="2.72327">
        <ele>162</ele>
        <time>2017-05-17T11:04:32.758</time>
      </trkpt>
      <trkpt lat="48.4379" lon="2.72326">
        <ele>162</ele>
        <time>2017-05-17T11:04:33.761</time>
      </trkpt>
      <trkpt lat="48.4379" lon="2.72327">
        <ele>162</ele>
        <time>2017-05-17T11:04:34.757</time>
      </trkpt>
      <trkpt lat="48.43789" lon="2.72326">
        <ele>161</ele>
        <time>2017-05-17T11:04:35.758</time>
      </trkpt>
      <trkpt lat="48.43789" lon="2.72326">
        <ele>161</ele>
        <time>2017-05-17T11:04:36.758</time>
      </trkpt>
      <trkpt lat="48.43789" lon="2.72326">
        <ele>161</ele>
        <time>2017-05-17T11:04:37.757</time>
      </trkpt>
      <trkpt lat="48.43789" lon="2.72326">
        <ele>161</ele>
        <time>2017-05-17T11:04:38.994</time>
      </trkpt>
      <trkpt lat="48.43789" lon="2.72325">
        <ele>161</ele>
        <time>2017-05-17T11:04:39.753</time>
      </trkpt>
      <trkpt lat="48.43789" lon="2.72325">
        <ele>160</ele>
        <time>2017-05-17T11:04:42.550</time>
      </trkpt>
      <trkpt lat="48.43789" lon="2.72325">
        <ele>160</ele>
        <time>2017-05-17T11:04:42.761</time>
      </trkpt>
      <trkpt lat="48.43789" lon="2.72325">
        <ele>160</ele>
        <time>2017-05-17T11:04:43.751</time>
      </trkpt>
      <trkpt lat="48.43789" lon="2.72325">
        <ele>160</ele>
        <time>2017-05-17T11:04:44.750</time>
      </trkpt>
      <trkpt lat="48.43789" lon="2.72325">
        <ele>160</ele>
        <time>2017-05-17T11:04:45.750</time>
      </trkpt>
      <trkpt lat="48.43789" lon="2.72325">
        <ele>160</ele>
        <time>2017-05-17T11:04:46.749</time>
      </trkpt>
      <trkpt lat="48.43789" lon="2.72325">
        <ele>160</ele>
        <time>2017-05-17T11:04:47.751</time>
      </trkpt>
      <trkpt lat="48.43789" lon="2.72325">
        <ele>160</ele>
        <time>2017-05-17T11:04:48.751</time>
      </trkpt>
      <trkpt lat="48.43789" lon="2.72325">
        <ele>160</ele>
        <time>2017-05-17T11:04:49.758</time>
      </trkpt>
      <trkpt lat="48.43789" lon="2.72325">
        <ele>160</ele>
        <time>2017-05-17T11:04:50.749</time>
      </trkpt>
      <trkpt lat="48.43789" lon="2.72325">
        <ele>160</ele>
        <time>2017-05-17T11:04:51.789</time>
      </trkpt>
      <trkpt lat="48.43789" lon="2.72325">
        <ele>160</ele>
        <time>2017-05-17T11:04:52.751</time>
      </trkpt>
      <trkpt lat="48.43789" lon="2.72325">
        <ele>160</ele>
        <time>2017-05-17T11:04:53.752</time>
      </trkpt>
      <trkpt lat="48.43788" lon="2.72325">
        <ele>161</ele>
        <time>2017-05-17T11:04:54.753</time>
      </trkpt>
      <trkpt lat="48.43788" lon="2.72326">
        <ele>162</ele>
        <time>2017-05-17T11:04:55.754</time>
      </trkpt>
      <trkpt lat="48.43788" lon="2.72325">
        <ele>161</ele>
        <time>2017-05-17T11:04:56.759</time>
      </trkpt>
      <trkpt lat="48.43788" lon="2.72324">
        <ele>161</ele>
        <time>2017-05-17T11:04:57.751</time>
      </trkpt>
      <trkpt lat="48.43789" lon="2.72325">
        <ele>160</ele>
        <time>2017-05-17T11:04:58.749</time>
      </trkpt>
      <trkpt lat="48.43789" lon="2.72326">
        <ele>161</ele>
        <time>2017-05-17T11:04:59.752</time>
      </trkpt>
      <trkpt lat="48.43789" lon="2.72327">
        <ele>161</ele>
        <time>2017-05-17T11:05:00.750</time>
      </trkpt>
      <trkpt lat="48.43788" lon="2.72327">
        <ele>161</ele>
        <time>2017-05-17T11:05:01.751</time>
      </trkpt>
      <trkpt lat="48.43788" lon="2.72327">
        <ele>161</ele>
        <time>2017-05-17T11:05:02.750</time>
      </trkpt>
      <trkpt lat="48.43788" lon="2.72328">
        <ele>162</ele>
        <time>2017-05-17T11:05:03.753</time>
      </trkpt>
      <trkpt lat="48.43788" lon="2.72328">
        <ele>162</ele>
        <time>2017-05-17T11:05:04.753</time>
      </trkpt>
      <trkpt lat="48.43788" lon="2.72327">
        <ele>162</ele>
        <time>2017-05-17T11:05:05.751</time>
      </trkpt>
      <trkpt lat="48.43788" lon="2.72327">
        <ele>162</ele>
        <time>2017-05-17T11:05:06.750</time>
      </trkpt>
      <trkpt lat="48.43788" lon="2.72327">
        <ele>162</ele>
        <time>2017-05-17T11:05:07.751</time>
      </trkpt>
      <trkpt lat="48.43788" lon="2.72327">
        <ele>162</ele>
        <time>2017-05-17T11:05:08.753</time>
      </trkpt>
      <trkpt lat="48.43788" lon="2.72327">
        <ele>162</ele>
        <time>2017-05-17T11:05:09.754</time>
      </trkpt>
      <trkpt lat="48.43788" lon="2.72327">
        <ele>162</ele>
        <time>2017-05-17T11:05:10.751</time>
      </trkpt>
      <trkpt lat="48.43788" lon="2.72327">
        <ele>162</ele>
        <time>2017-05-17T11:05:11.752</time>
      </trkpt>
      <trkpt lat="48.43788" lon="2.72327">
        <ele>162</ele>
        <time>2017-05-17T11:05:12.750</time>
      </trkpt>
      <trkpt lat="48.43788" lon="2.72327">
        <ele>162</ele>
        <time>2017-05-17T11:05:13.749</time>
      </trkpt>
      <trkpt lat="48.43788" lon="2.72327">
        <ele>162</ele>
        <time>2017-05-17T11:05:14.749</time>
      </trkpt>
      <trkpt lat="48.43788" lon="2.72327">
        <ele>162</ele>
        <time>2017-05-17T11:05:15.751</time>
      </trkpt>
      <trkpt lat="48.43788" lon="2.72327">
        <ele>162</ele>
        <time>2017-05-17T11:05:16.751</time>
      </trkpt>
      <trkpt lat="48.43788" lon="2.72327">
        <ele>162</ele>
        <time>2017-05-17T11:05:17.751</time>
      </trkpt>
      <trkpt lat="48.43788" lon="2.72327">
        <ele>162</ele>
        <time>2017-05-17T11:05:18.753</time>
      </trkpt>
      <trkpt lat="48.43788" lon="2.72327">
        <ele>162</ele>
        <time>2017-05-17T11:05:19.751</time>
      </trkpt>
      <trkpt lat="48.43788" lon="2.72327">
        <ele>162</ele>
        <time>2017-05-17T11:05:20.751</time>
      </trkpt>
      <trkpt lat="48.43788" lon="2.72327">
        <ele>162</ele>
        <time>2017-05-17T11:05:21.751</time>
      </trkpt>
      <trkpt lat="48.43788" lon="2.72327">
        <ele>162</ele>
        <time>2017-05-17T11:05:22.755</time>
      </trkpt>
      <trkpt lat="48.43788" lon="2.72327">
        <ele>162</ele>
        <time>2017-05-17T11:05:23.750</time>
      </trkpt>
      <trkpt lat="48.43788" lon="2.72327">
        <ele>162</ele>
        <time>2017-05-17T11:05:24.750</time>
      </trkpt>
      <trkpt lat="48.43788" lon="2.72327">
        <ele>162</ele>
        <time>2017-05-17T11:05:25.756</time>
      </trkpt>
      <trkpt lat="48.43788" lon="2.72327">
        <ele>162</ele>
        <time>2017-05-17T11:05:26.750</time>
      </trkpt>
      <trkpt lat="48.43788" lon="2.72327">
        <ele>162</ele>
        <time>2017-05-17T11:05:27.751</time>
      </trkpt>
      <trkpt lat="48.43788" lon="2.72327">
        <ele>162</ele>
        <time>2017-05-17T11:05:28.755</time>
      </trkpt>
      <trkpt lat="48.43788" lon="2.72327">
        <ele>162</ele>
        <time>2017-05-17T11:05:29.750</time>
      </trkpt>
      <trkpt lat="48.43788" lon="2.72327">
        <ele>162</ele>
        <time>2017-05-17T11:05:31.085</time>
      </trkpt>
      <trkpt lat="48.43788" lon="2.72327">
        <ele>162</ele>
        <time>2017-05-17T11:05:31.750</time>
      </trkpt>
      <trkpt lat="48.43788" lon="2.72327">
        <ele>162</ele>
        <time>2017-05-17T11:05:32.752</time>
      </trkpt>
      <trkpt lat="48.43788" lon="2.72327">
        <ele>162</ele>
        <time>2017-05-17T11:05:33.751</time>
      </trkpt>
      <trkpt lat="48.43788" lon="2.72327">
        <ele>162</ele>
        <time>2017-05-17T11:05:34.764</time>
      </trkpt>
      <trkpt lat="48.43788" lon="2.72327">
        <ele>162</ele>
        <time>2017-05-17T11:05:35.753</time>
      </trkpt>
      <trkpt lat="48.43788" lon="2.72327">
        <ele>162</ele>
        <time>2017-05-17T11:05:36.759</time>
      </trkpt>
      <trkpt lat="48.43788" lon="2.72327">
        <ele>162</ele>
        <time>2017-05-17T11:05:37.756</time>
      </trkpt>
      <trkpt lat="48.43788" lon="2.72327">
        <ele>162</ele>
        <time>2017-05-17T11:05:38.758</time>
      </trkpt>
      <trkpt lat="48.43788" lon="2.72327">
        <ele>162</ele>
        <time>2017-05-17T11:05:39.760</time>
      </trkpt>
      <trkpt lat="48.43788" lon="2.72327">
        <ele>162</ele>
        <time>2017-05-17T11:05:40.758</time>
      </trkpt>
      <trkpt lat="48.43788" lon="2.72327">
        <ele>162</ele>
        <time>2017-05-17T11:05:41.760</time>
      </trkpt>
      <trkpt lat="48.43788" lon="2.72327">
        <ele>162</ele>
        <time>2017-05-17T11:05:42.758</time>
      </trkpt>
      <trkpt lat="48.43788" lon="2.72327">
        <ele>162</ele>
        <time>2017-05-17T11:05:43.758</time>
      </trkpt>
      <trkpt lat="48.43788" lon="2.72327">
        <ele>162</ele>
        <time>2017-05-17T11:05:44.753</time>
      </trkpt>
      <trkpt lat="48.43788" lon="2.72327">
        <ele>162</ele>
        <time>2017-05-17T11:05:45.752</time>
      </trkpt>
      <trkpt lat="48.43788" lon="2.72327">
        <ele>162</ele>
        <time>2017-05-17T11:05:46.752</time>
      </trkpt>
      <trkpt lat="48.43788" lon="2.72327">
        <ele>162</ele>
        <time>2017-05-17T11:05:47.751</time>
      </trkpt>
      <trkpt lat="48.43788" lon="2.72327">
        <ele>162</ele>
        <time>2017-05-17T11:05:48.751</time>
      </trkpt>
      <trkpt lat="48.43788" lon="2.72327">
        <ele>162</ele>
        <time>2017-05-17T11:05:49.751</time>
      </trkpt>
      <trkpt lat="48.43788" lon="2.72327">
        <ele>162</ele>
        <time>2017-05-17T11:05:50.750</time>
      </trkpt>
      <trkpt lat="48.43788" lon="2.72327">
        <ele>162</ele>
        <time>2017-05-17T11:05:51.750</time>
      </trkpt>
      <trkpt lat="48.43788" lon="2.72327">
        <ele>162</ele>
        <time>2017-05-17T11:05:52.753</time>
      </trkpt>
      <trkpt lat="48.43788" lon="2.72327">
        <ele>162</ele>
        <time>2017-05-17T11:05:53.753</time>
      </trkpt>
      <trkpt lat="48.43788" lon="2.72327">
        <ele>162</ele>
        <time>2017-05-17T11:05:54.752</time>
      </trkpt>
      <trkpt lat="48.43788" lon="2.72327">
        <ele>162</ele>
        <time>2017-05-17T11:05:55.752</time>
      </trkpt>
      <trkpt lat="48.43786" lon="2.72327">
        <ele>163</ele>
        <time>2017-05-17T11:05:56.754</time>
      </trkpt>
      <trkpt lat="48.43786" lon="2.72327">
        <ele>162</ele>
        <time>2017-05-17T11:05:57.755</time>
      </trkpt>
      <trkpt lat="48.43784" lon="2.72326">
        <ele>162</ele>
        <time>2017-05-17T11:05:58.755</time>
      </trkpt>
      <trkpt lat="48.43783" lon="2.72326">
        <ele>163</ele>
        <time>2017-05-17T11:05:59.754</time>
      </trkpt>
      <trkpt lat="48.43782" lon="2.72326">
        <ele>164</ele>
        <time>2017-05-17T11:06:00.754</time>
      </trkpt>
      <trkpt lat="48.43781" lon="2.72327">
        <ele>164</ele>
        <time>2017-05-17T11:06:01.754</time>
      </trkpt>
      <trkpt lat="48.4378" lon="2.72327">
        <ele>165</ele>
        <time>2017-05-17T11:06:02.753</time>
      </trkpt>
      <trkpt lat="48.43779" lon="2.72328">
        <ele>167</ele>
        <time>2017-05-17T11:06:03.753</time>
      </trkpt>
      <trkpt lat="48.43779" lon="2.72328">
        <ele>166</ele>
        <time>2017-05-17T11:06:04.753</time>
      </trkpt>
      <trkpt lat="48.43778" lon="2.72328">
        <ele>166</ele>
        <time>2017-05-17T11:06:05.754</time>
      </trkpt>
      <trkpt lat="48.43776" lon="2.72327">
        <ele>167</ele>
        <time>2017-05-17T11:06:06.754</time>
      </trkpt>
      <trkpt lat="48.43775" lon="2.72328">
        <ele>168</ele>
        <time>2017-05-17T11:06:07.753</time>
      </trkpt>
      <trkpt lat="48.43774" lon="2.72329">
        <ele>168</ele>
        <time>2017-05-17T11:06:08.754</time>
      </trkpt>
      <trkpt lat="48.43773" lon="2.72329">
        <ele>169</ele>
        <time>2017-05-17T11:06:09.755</time>
      </trkpt>
      <trkpt lat="48.43772" lon="2.72329">
        <ele>169</ele>
        <time>2017-05-17T11:06:10.758</time>
      </trkpt>
      <trkpt lat="48.43771" lon="2.72329">
        <ele>169</ele>
        <time>2017-05-17T11:06:11.756</time>
      </trkpt>
      <trkpt lat="48.4377" lon="2.7233">
        <ele>169</ele>
        <time>2017-05-17T11:06:12.755</time>
      </trkpt>
      <trkpt lat="48.43768" lon="2.72332">
        <ele>169</ele>
        <time>2017-05-17T11:06:13.754</time>
      </trkpt>
      <trkpt lat="48.43766" lon="2.72332">
        <ele>168</ele>
        <time>2017-05-17T11:06:14.755</time>
      </trkpt>
      <trkpt lat="48.43764" lon="2.72335">
        <ele>169</ele>
        <time>2017-05-17T11:06:15.754</time>
      </trkpt>
      <trkpt lat="48.43763" lon="2.72338">
        <ele>167</ele>
        <time>2017-05-17T11:06:16.756</time>
      </trkpt>
      <trkpt lat="48.43762" lon="2.72342">
        <ele>167</ele>
        <time>2017-05-17T11:06:17.755</time>
      </trkpt>
      <trkpt lat="48.4376" lon="2.72343">
        <ele>166</ele>
        <time>2017-05-17T11:06:18.753</time>
      </trkpt>
      <trkpt lat="48.43758" lon="2.72346">
        <ele>165</ele>
        <time>2017-05-17T11:06:19.754</time>
      </trkpt>
      <trkpt lat="48.43758" lon="2.72352">
        <ele>165</ele>
        <time>2017-05-17T11:06:20.756</time>
      </trkpt>
      <trkpt lat="48.43756" lon="2.72356">
        <ele>165</ele>
        <time>2017-05-17T11:06:21.756</time>
      </trkpt>
      <trkpt lat="48.43755" lon="2.72361">
        <ele>165</ele>
        <time>2017-05-17T11:06:22.757</time>
      </trkpt>
      <trkpt lat="48.43757" lon="2.72366">
        <ele>164</ele>
        <time>2017-05-17T11:06:23.755</time>
      </trkpt>
      <trkpt lat="48.43758" lon="2.72371">
        <ele>164</ele>
        <time>2017-05-17T11:06:24.755</time>
      </trkpt>
      <trkpt lat="48.4376" lon="2.72375">
        <ele>164</ele>
        <time>2017-05-17T11:06:25.758</time>
      </trkpt>
      <trkpt lat="48.43763" lon="2.72378">
        <ele>166</ele>
        <time>2017-05-17T11:06:26.771</time>
      </trkpt>
      <trkpt lat="48.43765" lon="2.72376">
        <ele>165</ele>
        <time>2017-05-17T11:06:27.761</time>
      </trkpt>
      <trkpt lat="48.43766" lon="2.72377">
        <ele>165</ele>
        <time>2017-05-17T11:06:28.768</time>
      </trkpt>
      <trkpt lat="48.43768" lon="2.72377">
        <ele>166</ele>
        <time>2017-05-17T11:06:29.758</time>
      </trkpt>
      <trkpt lat="48.43768" lon="2.72378">
        <ele>164</ele>
        <time>2017-05-17T11:06:30.778</time>
      </trkpt>
      <trkpt lat="48.4377" lon="2.72379">
        <ele>165</ele>
        <time>2017-05-17T11:06:31.755</time>
      </trkpt>
      <trkpt lat="48.43772" lon="2.7238">
        <ele>164</ele>
        <time>2017-05-17T11:06:32.779</time>
      </trkpt>
      <trkpt lat="48.43773" lon="2.72381">
        <ele>164</ele>
        <time>2017-05-17T11:06:33.757</time>
      </trkpt>
      <trkpt lat="48.43773" lon="2.72386">
        <ele>165</ele>
        <time>2017-05-17T11:06:34.756</time>
      </trkpt>
      <trkpt lat="48.43773" lon="2.7239">
        <ele>163</ele>
        <time>2017-05-17T11:06:35.755</time>
      </trkpt>
      <trkpt lat="48.43773" lon="2.72394">
        <ele>162</ele>
        <time>2017-05-17T11:06:36.754</time>
      </trkpt>
      <trkpt lat="48.43773" lon="2.72399">
        <ele>162</ele>
        <time>2017-05-17T11:06:37.755</time>
      </trkpt>
      <trkpt lat="48.43773" lon="2.72404">
        <ele>164</ele>
        <time>2017-05-17T11:06:38.753</time>
      </trkpt>
      <trkpt lat="48.43775" lon="2.72409">
        <ele>165</ele>
        <time>2017-05-17T11:06:39.754</time>
      </trkpt>
      <trkpt lat="48.43776" lon="2.72413">
        <ele>167</ele>
        <time>2017-05-17T11:06:40.755</time>
      </trkpt>
      <trkpt lat="48.43776" lon="2.72416">
        <ele>165</ele>
        <time>2017-05-17T11:06:41.757</time>
      </trkpt>
      <trkpt lat="48.43776" lon="2.7242">
        <ele>163</ele>
        <time>2017-05-17T11:06:42.754</time>
      </trkpt>
      <trkpt lat="48.43775" lon="2.72424">
        <ele>163</ele>
        <time>2017-05-17T11:06:43.757</time>
      </trkpt>
      <trkpt lat="48.43775" lon="2.7243">
        <ele>163</ele>
        <time>2017-05-17T11:06:44.758</time>
      </trkpt>
      <trkpt lat="48.43775" lon="2.72433">
        <ele>162</ele>
        <time>2017-05-17T11:06:45.754</time>
      </trkpt>
      <trkpt lat="48.43774" lon="2.72436">
        <ele>162</ele>
        <time>2017-05-17T11:06:46.756</time>
      </trkpt>
      <trkpt lat="48.43775" lon="2.72439">
        <ele>161</ele>
        <time>2017-05-17T11:06:47.755</time>
      </trkpt>
      <trkpt lat="48.43776" lon="2.72442">
        <ele>162</ele>
        <time>2017-05-17T11:06:48.755</time>
      </trkpt>
      <trkpt lat="48.43777" lon="2.72446">
        <ele>162</ele>
        <time>2017-05-17T11:06:49.755</time>
      </trkpt>
      <trkpt lat="48.43776" lon="2.72449">
        <ele>161</ele>
        <time>2017-05-17T11:06:50.755</time>
      </trkpt>
      <trkpt lat="48.43777" lon="2.72453">
        <ele>161</ele>
        <time>2017-05-17T11:06:51.754</time>
      </trkpt>
      <trkpt lat="48.43777" lon="2.72456">
        <ele>161</ele>
        <time>2017-05-17T11:06:52.755</time>
      </trkpt>
      <trkpt lat="48.43776" lon="2.72461">
        <ele>162</ele>
        <time>2017-05-17T11:06:53.756</time>
      </trkpt>
      <trkpt lat="48.43775" lon="2.72463">
        <ele>162</ele>
        <time>2017-05-17T11:06:54.754</time>
      </trkpt>
      <trkpt lat="48.43776" lon="2.72465">
        <ele>163</ele>
        <time>2017-05-17T11:06:55.755</time>
      </trkpt>
      <trkpt lat="48.43776" lon="2.72466">
        <ele>162</ele>
        <time>2017-05-17T11:06:56.755</time>
      </trkpt>
      <trkpt lat="48.43778" lon="2.72467">
        <ele>161</ele>
        <time>2017-05-17T11:06:57.755</time>
      </trkpt>
      <trkpt lat="48.4378" lon="2.72469">
        <ele>162</ele>
        <time>2017-05-17T11:06:58.754</time>
      </trkpt>
      <trkpt lat="48.43781" lon="2.72472">
        <ele>163</ele>
        <time>2017-05-17T11:06:59.756</time>
      </trkpt>
      <trkpt lat="48.43781" lon="2.72474">
        <ele>162</ele>
        <time>2017-05-17T11:07:00.755</time>
      </trkpt>
      <trkpt lat="48.43783" lon="2.72476">
        <ele>162</ele>
        <time>2017-05-17T11:07:01.755</time>
      </trkpt>
      <trkpt lat="48.43783" lon="2.72479">
        <ele>162</ele>
        <time>2017-05-17T11:07:02.757</time>
      </trkpt>
      <trkpt lat="48.43783" lon="2.72482">
        <ele>162</ele>
        <time>2017-05-17T11:07:03.756</time>
      </trkpt>
      <trkpt lat="48.43783" lon="2.72482">
        <ele>162</ele>
        <time>2017-05-17T11:07:04.807</time>
      </trkpt>
      <trkpt lat="48.43783" lon="2.72481">
        <ele>162</ele>
        <time>2017-05-17T11:07:05.753</time>
      </trkpt>
      <trkpt lat="48.43782" lon="2.72482">
        <ele>161</ele>
        <time>2017-05-17T11:07:06.752</time>
      </trkpt>
      <trkpt lat="48.43782" lon="2.72482">
        <ele>162</ele>
        <time>2017-05-17T11:07:07.754</time>
      </trkpt>
      <trkpt lat="48.43782" lon="2.72482">
        <ele>161</ele>
        <time>2017-05-17T11:07:08.754</time>
      </trkpt>
      <trkpt lat="48.43781" lon="2.72482">
        <ele>162</ele>
        <time>2017-05-17T11:07:09.755</time>
      </trkpt>
      <trkpt lat="48.43781" lon="2.72482">
        <ele>161</ele>
        <time>2017-05-17T11:07:10.755</time>
      </trkpt>
      <trkpt lat="48.43781" lon="2.72482">
        <ele>162</ele>
        <time>2017-05-17T11:07:11.754</time>
      </trkpt>
      <trkpt lat="48.43781" lon="2.72482">
        <ele>161</ele>
        <time>2017-05-17T11:07:12.755</time>
      </trkpt>
      <trkpt lat="48.4378" lon="2.72482">
        <ele>161</ele>
        <time>2017-05-17T11:07:13.754</time>
      </trkpt>
      <trkpt lat="48.4378" lon="2.72481">
        <ele>161</ele>
        <time>2017-05-17T11:07:14.752</time>
      </trkpt>
      <trkpt lat="48.4378" lon="2.72481">
        <ele>161</ele>
        <time>2017-05-17T11:07:15.752</time>
      </trkpt>
      <trkpt lat="48.4378" lon="2.7248">
        <ele>160</ele>
        <time>2017-05-17T11:07:16.752</time>
      </trkpt>
      <trkpt lat="48.4378" lon="2.7248">
        <ele>160</ele>
        <time>2017-05-17T11:07:17.752</time>
      </trkpt>
      <trkpt lat="48.4378" lon="2.7248">
        <ele>160</ele>
        <time>2017-05-17T11:07:18.751</time>
      </trkpt>
      <trkpt lat="48.4378" lon="2.72479">
        <ele>160</ele>
        <time>2017-05-17T11:07:19.751</time>
      </trkpt>
      <trkpt lat="48.4378" lon="2.72479">
        <ele>160</ele>
        <time>2017-05-17T11:07:20.751</time>
      </trkpt>
      <trkpt lat="48.4378" lon="2.72479">
        <ele>160</ele>
        <time>2017-05-17T11:07:21.750</time>
      </trkpt>
      <trkpt lat="48.4378" lon="2.7248">
        <ele>160</ele>
        <time>2017-05-17T11:07:22.750</time>
      </trkpt>
      <trkpt lat="48.4378" lon="2.7248">
        <ele>160</ele>
        <time>2017-05-17T11:07:23.752</time>
      </trkpt>
      <trkpt lat="48.4378" lon="2.7248">
        <ele>160</ele>
        <time>2017-05-17T11:07:24.751</time>
      </trkpt>
      <trkpt lat="48.4378" lon="2.7248">
        <ele>160</ele>
        <time>2017-05-17T11:07:25.753</time>
      </trkpt>
      <trkpt lat="48.4378" lon="2.7248">
        <ele>160</ele>
        <time>2017-05-17T11:07:26.752</time>
      </trkpt>
      <trkpt lat="48.4378" lon="2.7248">
        <ele>160</ele>
        <time>2017-05-17T11:07:27.751</time>
      </trkpt>
      <trkpt lat="48.4378" lon="2.7248">
        <ele>160</ele>
        <time>2017-05-17T11:07:28.751</time>
      </trkpt>
      <trkpt lat="48.4378" lon="2.7248">
        <ele>160</ele>
        <time>2017-05-17T11:07:29.751</time>
      </trkpt>
      <trkpt lat="48.4378" lon="2.7248">
        <ele>160</ele>
        <time>2017-05-17T11:07:30.751</time>
      </trkpt>
      <trkpt lat="48.4378" lon="2.7248">
        <ele>160</ele>
        <time>2017-05-17T11:07:31.750</time>
      </trkpt>
      <trkpt lat="48.4378" lon="2.7248">
        <ele>160</ele>
        <time>2017-05-17T11:07:32.752</time>
      </trkpt>
      <trkpt lat="48.43779" lon="2.72481">
        <ele>160</ele>
        <time>2017-05-17T11:07:33.754</time>
      </trkpt>
      <trkpt lat="48.43778" lon="2.72481">
        <ele>160</ele>
        <time>2017-05-17T11:07:34.753</time>
      </trkpt>
      <trkpt lat="48.43777" lon="2.7248">
        <ele>160</ele>
        <time>2017-05-17T11:07:35.751</time>
      </trkpt>
      <trkpt lat="48.43777" lon="2.7248">
        <ele>161</ele>
        <time>2017-05-17T11:07:36.751</time>
      </trkpt>
      <trkpt lat="48.43777" lon="2.7248">
        <ele>162</ele>
        <time>2017-05-17T11:07:37.751</time>
      </trkpt>
      <trkpt lat="48.43777" lon="2.7248">
        <ele>162</ele>
        <time>2017-05-17T11:07:38.750</time>
      </trkpt>
      <trkpt lat="48.43777" lon="2.7248">
        <ele>162</ele>
        <time>2017-05-17T11:07:39.751</time>
      </trkpt>
      <trkpt lat="48.43777" lon="2.72481">
        <ele>162</ele>
        <time>2017-05-17T11:07:40.752</time>
      </trkpt>
      <trkpt lat="48.43777" lon="2.72481">
        <ele>162</ele>
        <time>2017-05-17T11:07:41.752</time>
      </trkpt>
      <trkpt lat="48.43777" lon="2.72481">
        <ele>161</ele>
        <time>2017-05-17T11:07:42.751</time>
      </trkpt>
      <trkpt lat="48.43777" lon="2.72481">
        <ele>161</ele>
        <time>2017-05-17T11:07:43.750</time>
      </trkpt>
      <trkpt lat="48.43777" lon="2.72481">
        <ele>162</ele>
        <time>2017-05-17T11:07:44.751</time>
      </trkpt>
      <trkpt lat="48.43777" lon="2.7248">
        <ele>161</ele>
        <time>2017-05-17T11:07:45.751</time>
      </trkpt>
      <trkpt lat="48.43777" lon="2.72481">
        <ele>161</ele>
        <time>2017-05-17T11:07:46.751</time>
      </trkpt>
      <trkpt lat="48.43777" lon="2.72481">
        <ele>161</ele>
        <time>2017-05-17T11:07:47.751</time>
      </trkpt>
      <trkpt lat="48.43777" lon="2.72481">
        <ele>161</ele>
        <time>2017-05-17T11:07:48.770</time>
      </trkpt>
      <trkpt lat="48.43777" lon="2.72481">
        <ele>161</ele>
        <time>2017-05-17T11:07:49.752</time>
      </trkpt>
      <trkpt lat="48.43777" lon="2.72481">
        <ele>161</ele>
        <time>2017-05-17T11:07:50.751</time>
      </trkpt>
      <trkpt lat="48.43777" lon="2.72481">
        <ele>161</ele>
        <time>2017-05-17T11:07:51.751</time>
      </trkpt>
      <trkpt lat="48.43777" lon="2.72481">
        <ele>161</ele>
        <time>2017-05-17T11:07:52.751</time>
      </trkpt>
      <trkpt lat="48.43777" lon="2.72481">
        <ele>161</ele>
        <time>2017-05-17T11:07:53.754</time>
      </trkpt>
      <trkpt lat="48.43777" lon="2.72481">
        <ele>161</ele>
        <time>2017-05-17T11:07:54.754</time>
      </trkpt>
      <trkpt lat="48.43777" lon="2.72481">
        <ele>161</ele>
        <time>2017-05-17T11:07:55.754</time>
      </trkpt>
      <trkpt lat="48.43777" lon="2.72481">
        <ele>161</ele>
        <time>2017-05-17T11:07:56.754</time>
      </trkpt>
      <trkpt lat="48.43777" lon="2.7248">
        <ele>161</ele>
        <time>2017-05-17T11:07:57.754</time>
      </trkpt>
      <trkpt lat="48.43776" lon="2.7248">
        <ele>161</ele>
        <time>2017-05-17T11:07:58.753</time>
      </trkpt>
      <trkpt lat="48.43776" lon="2.7248">
        <ele>161</ele>
        <time>2017-05-17T11:07:59.764</time>
      </trkpt>
      <trkpt lat="48.43776" lon="2.7248">
        <ele>161</ele>
        <time>2017-05-17T11:08:00.764</time>
      </trkpt>
      <trkpt lat="48.43774" lon="2.7248">
        <ele>161</ele>
        <time>2017-05-17T11:08:01.764</time>
      </trkpt>
      <trkpt lat="48.43773" lon="2.7248">
        <ele>161</ele>
        <time>2017-05-17T11:08:02.763</time>
      </trkpt>
      <trkpt lat="48.43771" lon="2.7248">
        <ele>161</ele>
        <time>2017-05-17T11:08:03.757</time>
      </trkpt>
      <trkpt lat="48.4377" lon="2.7248">
        <ele>161</ele>
        <time>2017-05-17T11:08:04.764</time>
      </trkpt>
      <trkpt lat="48.4377" lon="2.72483">
        <ele>161</ele>
        <time>2017-05-17T11:08:05.773</time>
      </trkpt>
      <trkpt lat="48.43769" lon="2.72483">
        <ele>161</ele>
        <time>2017-05-17T11:08:06.774</time>
      </trkpt>
      <trkpt lat="48.43768" lon="2.72485">
        <ele>161</ele>
        <time>2017-05-17T11:08:07.753</time>
      </trkpt>
      <trkpt lat="48.43768" lon="2.72487">
        <ele>161</ele>
        <time>2017-05-17T11:08:08.753</time>
      </trkpt>
      <trkpt lat="48.43768" lon="2.72489">
        <ele>160</ele>
        <time>2017-05-17T11:08:09.752</time>
      </trkpt>
      <trkpt lat="48.43768" lon="2.72491">
        <ele>160</ele>
        <time>2017-05-17T11:08:10.754</time>
      </trkpt>
      <trkpt lat="48.43768" lon="2.72492">
        <ele>161</ele>
        <time>2017-05-17T11:08:11.756</time>
      </trkpt>
      <trkpt lat="48.43768" lon="2.72494">
        <ele>160</ele>
        <time>2017-05-17T11:08:12.756</time>
      </trkpt>
      <trkpt lat="48.43767" lon="2.72495">
        <ele>161</ele>
        <time>2017-05-17T11:08:13.757</time>
      </trkpt>
      <trkpt lat="48.43767" lon="2.72496">
        <ele>161</ele>
        <time>2017-05-17T11:08:14.755</time>
      </trkpt>
      <trkpt lat="48.43767" lon="2.72497">
        <ele>161</ele>
        <time>2017-05-17T11:08:15.755</time>
      </trkpt>
      <trkpt lat="48.43766" lon="2.72499">
        <ele>161</ele>
        <time>2017-05-17T11:08:16.754</time>
      </trkpt>
      <trkpt lat="48.43766" lon="2.725">
        <ele>160</ele>
        <time>2017-05-17T11:08:17.755</time>
      </trkpt>
      <trkpt lat="48.43766" lon="2.72501">
        <ele>160</ele>
        <time>2017-05-17T11:08:18.753</time>
      </trkpt>
      <trkpt lat="48.43765" lon="2.72502">
        <ele>159</ele>
        <time>2017-05-17T11:08:19.754</time>
      </trkpt>
      <trkpt lat="48.43765" lon="2.72503">
        <ele>159</ele>
        <time>2017-05-17T11:08:20.755</time>
      </trkpt>
      <trkpt lat="48.43765" lon="2.72506">
        <ele>160</ele>
        <time>2017-05-17T11:08:21.754</time>
      </trkpt>
      <trkpt lat="48.43766" lon="2.72507">
        <ele>160</ele>
        <time>2017-05-17T11:08:22.755</time>
      </trkpt>
      <trkpt lat="48.43766" lon="2.72509">
        <ele>160</ele>
        <time>2017-05-17T11:08:23.755</time>
      </trkpt>
      <trkpt lat="48.43766" lon="2.72511">
        <ele>161</ele>
        <time>2017-05-17T11:08:24.756</time>
      </trkpt>
      <trkpt lat="48.43766" lon="2.72513">
        <ele>161</ele>
        <time>2017-05-17T11:08:25.754</time>
      </trkpt>
      <trkpt lat="48.43767" lon="2.72514">
        <ele>161</ele>
        <time>2017-05-17T11:08:26.754</time>
      </trkpt>
      <trkpt lat="48.43767" lon="2.72514">
        <ele>162</ele>
        <time>2017-05-17T11:08:27.753</time>
      </trkpt>
      <trkpt lat="48.43767" lon="2.72514">
        <ele>161</ele>
        <time>2017-05-17T11:08:28.752</time>
      </trkpt>
      <trkpt lat="48.43768" lon="2.72514">
        <ele>161</ele>
        <time>2017-05-17T11:08:29.752</time>
      </trkpt>
      <trkpt lat="48.43768" lon="2.72514">
        <ele>160</ele>
        <time>2017-05-17T11:08:30.751</time>
      </trkpt>
      <trkpt lat="48.43768" lon="2.72514">
        <ele>159</ele>
        <time>2017-05-17T11:08:31.752</time>
      </trkpt>
      <trkpt lat="48.43768" lon="2.72515">
        <ele>160</ele>
        <time>2017-05-17T11:08:32.752</time>
      </trkpt>
      <trkpt lat="48.43768" lon="2.72515">
        <ele>160</ele>
        <time>2017-05-17T11:08:33.754</time>
      </trkpt>
      <trkpt lat="48.43769" lon="2.72516">
        <ele>161</ele>
        <time>2017-05-17T11:08:34.754</time>
      </trkpt>
      <trkpt lat="48.43769" lon="2.72516">
        <ele>162</ele>
        <time>2017-05-17T11:08:35.754</time>
      </trkpt>
      <trkpt lat="48.43769" lon="2.72516">
        <ele>162</ele>
        <time>2017-05-17T11:08:36.753</time>
      </trkpt>
      <trkpt lat="48.43769" lon="2.72516">
        <ele>162</ele>
        <time>2017-05-17T11:08:37.753</time>
      </trkpt>
      <trkpt lat="48.43769" lon="2.72517">
        <ele>163</ele>
        <time>2017-05-17T11:08:38.754</time>
      </trkpt>
      <trkpt lat="48.43769" lon="2.72519">
        <ele>162</ele>
        <time>2017-05-17T11:08:39.757</time>
      </trkpt>
      <trkpt lat="48.43769" lon="2.7252">
        <ele>162</ele>
        <time>2017-05-17T11:08:40.754</time>
      </trkpt>
      <trkpt lat="48.43769" lon="2.72523">
        <ele>162</ele>
        <time>2017-05-17T11:08:41.755</time>
      </trkpt>
      <trkpt lat="48.43768" lon="2.72526">
        <ele>162</ele>
        <time>2017-05-17T11:08:42.755</time>
      </trkpt>
      <trkpt lat="48.43767" lon="2.72527">
        <ele>162</ele>
        <time>2017-05-17T11:08:43.756</time>
      </trkpt>
      <trkpt lat="48.43765" lon="2.7253">
        <ele>163</ele>
        <time>2017-05-17T11:08:44.757</time>
      </trkpt>
      <trkpt lat="48.43764" lon="2.72531">
        <ele>163</ele>
        <time>2017-05-17T11:08:45.756</time>
      </trkpt>
      <trkpt lat="48.43762" lon="2.72532">
        <ele>162</ele>
        <time>2017-05-17T11:08:46.755</time>
      </trkpt>
      <trkpt lat="48.4376" lon="2.72534">
        <ele>163</ele>
        <time>2017-05-17T11:08:47.755</time>
      </trkpt>
      <trkpt lat="48.43757" lon="2.72535">
        <ele>163</ele>
        <time>2017-05-17T11:08:48.755</time>
      </trkpt>
      <trkpt lat="48.43755" lon="2.72537">
        <ele>164</ele>
        <time>2017-05-17T11:08:49.755</time>
      </trkpt>
      <trkpt lat="48.43752" lon="2.7254">
        <ele>166</ele>
        <time>2017-05-17T11:08:50.755</time>
      </trkpt>
      <trkpt lat="48.43751" lon="2.72539">
        <ele>164</ele>
        <time>2017-05-17T11:08:51.756</time>
      </trkpt>
      <trkpt lat="48.4375" lon="2.7254">
        <ele>164</ele>
        <time>2017-05-17T11:08:52.755</time>
      </trkpt>
      <trkpt lat="48.43748" lon="2.72541">
        <ele>163</ele>
        <time>2017-05-17T11:08:53.755</time>
      </trkpt>
      <trkpt lat="48.43746" lon="2.72544">
        <ele>164</ele>
        <time>2017-05-17T11:08:54.756</time>
      </trkpt>
      <trkpt lat="48.43744" lon="2.72545">
        <ele>163</ele>
        <time>2017-05-17T11:08:55.756</time>
      </trkpt>
      <trkpt lat="48.4374" lon="2.72545">
        <ele>164</ele>
        <time>2017-05-17T11:08:56.754</time>
      </trkpt>
      <trkpt lat="48.43739" lon="2.72546">
        <ele>165</ele>
        <time>2017-05-17T11:08:57.756</time>
      </trkpt>
      <trkpt lat="48.43738" lon="2.72548">
        <ele>165</ele>
        <time>2017-05-17T11:08:58.754</time>
      </trkpt>
      <trkpt lat="48.43736" lon="2.7255">
        <ele>166</ele>
        <time>2017-05-17T11:08:59.755</time>
      </trkpt>
      <trkpt lat="48.43735" lon="2.7255">
        <ele>166</ele>
        <time>2017-05-17T11:09:00.755</time>
      </trkpt>
      <trkpt lat="48.43734" lon="2.7255">
        <ele>167</ele>
        <time>2017-05-17T11:09:01.757</time>
      </trkpt>
      <trkpt lat="48.43734" lon="2.72548">
        <ele>168</ele>
        <time>2017-05-17T11:09:02.754</time>
      </trkpt>
      <trkpt lat="48.43733" lon="2.72546">
        <ele>168</ele>
        <time>2017-05-17T11:09:03.756</time>
      </trkpt>
      <trkpt lat="48.43732" lon="2.72544">
        <ele>168</ele>
        <time>2017-05-17T11:09:04.758</time>
      </trkpt>
      <trkpt lat="48.43732" lon="2.72543">
        <ele>170</ele>
        <time>2017-05-17T11:09:05.757</time>
      </trkpt>
      <trkpt lat="48.43734" lon="2.72542">
        <ele>170</ele>
        <time>2017-05-17T11:09:06.755</time>
      </trkpt>
      <trkpt lat="48.43735" lon="2.7254">
        <ele>169</ele>
        <time>2017-05-17T11:09:07.755</time>
      </trkpt>
      <trkpt lat="48.43736" lon="2.72538">
        <ele>168</ele>
        <time>2017-05-17T11:09:08.755</time>
      </trkpt>
      <trkpt lat="48.43738" lon="2.7254">
        <ele>168</ele>
        <time>2017-05-17T11:09:09.755</time>
      </trkpt>
      <trkpt lat="48.43739" lon="2.72541">
        <ele>168</ele>
        <time>2017-05-17T11:09:10.757</time>
      </trkpt>
      <trkpt lat="48.43742" lon="2.72541">
        <ele>170</ele>
        <time>2017-05-17T11:09:11.758</time>
      </trkpt>
      <trkpt lat="48.43744" lon="2.72541">
        <ele>171</ele>
        <time>2017-05-17T11:09:12.756</time>
      </trkpt>
      <trkpt lat="48.43744" lon="2.7254">
        <ele>170</ele>
        <time>2017-05-17T11:09:13.755</time>
      </trkpt>
      <trkpt lat="48.43745" lon="2.72541">
        <ele>169</ele>
        <time>2017-05-17T11:09:14.755</time>
      </trkpt>
      <trkpt lat="48.43746" lon="2.72542">
        <ele>169</ele>
        <time>2017-05-17T11:09:15.756</time>
      </trkpt>
      <trkpt lat="48.43745" lon="2.72544">
        <ele>168</ele>
        <time>2017-05-17T11:09:16.756</time>
      </trkpt>
      <trkpt lat="48.43744" lon="2.72548">
        <ele>169</ele>
        <time>2017-05-17T11:09:17.756</time>
      </trkpt>
      <trkpt lat="48.43742" lon="2.72548">
        <ele>168</ele>
        <time>2017-05-17T11:09:18.755</time>
      </trkpt>
      <trkpt lat="48.43741" lon="2.72549">
        <ele>168</ele>
        <time>2017-05-17T11:09:19.756</time>
      </trkpt>
      <trkpt lat="48.4374" lon="2.7255">
        <ele>168</ele>
        <time>2017-05-17T11:09:20.755</time>
      </trkpt>
      <trkpt lat="48.43738" lon="2.72549">
        <ele>167</ele>
        <time>2017-05-17T11:09:21.755</time>
      </trkpt>
      <trkpt lat="48.43736" lon="2.7255">
        <ele>167</ele>
        <time>2017-05-17T11:09:22.756</time>
      </trkpt>
      <trkpt lat="48.43735" lon="2.7255">
        <ele>166</ele>
        <time>2017-05-17T11:09:23.757</time>
      </trkpt>
      <trkpt lat="48.43734" lon="2.72551">
        <ele>167</ele>
        <time>2017-05-17T11:09:24.756</time>
      </trkpt>
      <trkpt lat="48.43733" lon="2.72552">
        <ele>167</ele>
        <time>2017-05-17T11:09:25.755</time>
      </trkpt>
      <trkpt lat="48.43731" lon="2.72552">
        <ele>166</ele>
        <time>2017-05-17T11:09:26.756</time>
      </trkpt>
      <trkpt lat="48.43729" lon="2.7255">
        <ele>165</ele>
        <time>2017-05-17T11:09:27.756</time>
      </trkpt>
      <trkpt lat="48.43727" lon="2.72549">
        <ele>165</ele>
        <time>2017-05-17T11:09:28.756</time>
      </trkpt>
      <trkpt lat="48.43725" lon="2.72547">
        <ele>165</ele>
        <time>2017-05-17T11:09:29.755</time>
      </trkpt>
      <trkpt lat="48.43723" lon="2.72548">
        <ele>166</ele>
        <time>2017-05-17T11:09:30.756</time>
      </trkpt>
      <trkpt lat="48.43722" lon="2.72547">
        <ele>165</ele>
        <time>2017-05-17T11:09:31.757</time>
      </trkpt>
      <trkpt lat="48.43721" lon="2.72547">
        <ele>165</ele>
        <time>2017-05-17T11:09:32.755</time>
      </trkpt>
      <trkpt lat="48.4372" lon="2.72545">
        <ele>165</ele>
        <time>2017-05-17T11:09:33.755</time>
      </trkpt>
      <trkpt lat="48.43719" lon="2.72543">
        <ele>165</ele>
        <time>2017-05-17T11:09:34.754</time>
      </trkpt>
      <trkpt lat="48.43717" lon="2.72541">
        <ele>166</ele>
        <time>2017-05-17T11:09:35.755</time>
      </trkpt>
      <trkpt lat="48.43716" lon="2.7254">
        <ele>166</ele>
        <time>2017-05-17T11:09:36.756</time>
      </trkpt>
      <trkpt lat="48.43716" lon="2.72539">
        <ele>166</ele>
        <time>2017-05-17T11:09:37.754</time>
      </trkpt>
      <trkpt lat="48.43716" lon="2.72538">
        <ele>166</ele>
        <time>2017-05-17T11:09:38.755</time>
      </trkpt>
      <trkpt lat="48.43716" lon="2.72538">
        <ele>166</ele>
        <time>2017-05-17T11:09:39.752</time>
      </trkpt>
      <trkpt lat="48.43716" lon="2.72538">
        <ele>166</ele>
        <time>2017-05-17T11:09:40.751</time>
      </trkpt>
      <trkpt lat="48.43716" lon="2.72538">
        <ele>167</ele>
        <time>2017-05-17T11:09:41.751</time>
      </trkpt>
      <trkpt lat="48.43716" lon="2.72538">
        <ele>167</ele>
        <time>2017-05-17T11:09:42.752</time>
      </trkpt>
      <trkpt lat="48.43716" lon="2.72538">
        <ele>167</ele>
        <time>2017-05-17T11:09:43.751</time>
      </trkpt>
      <trkpt lat="48.43716" lon="2.72538">
        <ele>167</ele>
        <time>2017-05-17T11:09:44.752</time>
      </trkpt>
      <trkpt lat="48.43716" lon="2.72538">
        <ele>167</ele>
        <time>2017-05-17T11:09:45.753</time>
      </trkpt>
      <trkpt lat="48.43716" lon="2.72538">
        <ele>167</ele>
        <time>2017-05-17T11:09:46.752</time>
      </trkpt>
      <trkpt lat="48.43716" lon="2.72538">
        <ele>168</ele>
        <time>2017-05-17T11:09:47.752</time>
      </trkpt>
      <trkpt lat="48.43716" lon="2.72539">
        <ele>168</ele>
        <time>2017-05-17T11:09:48.754</time>
      </trkpt>
      <trkpt lat="48.43716" lon="2.7254">
        <ele>167</ele>
        <time>2017-05-17T11:09:49.756</time>
      </trkpt>
      <trkpt lat="48.43716" lon="2.72541">
        <ele>167</ele>
        <time>2017-05-17T11:09:50.756</time>
      </trkpt>
      <trkpt lat="48.43716" lon="2.72542">
        <ele>166</ele>
        <time>2017-05-17T11:09:51.756</time>
      </trkpt>
      <trkpt lat="48.43717" lon="2.72542">
        <ele>166</ele>
        <time>2017-05-17T11:09:52.756</time>
      </trkpt>
      <trkpt lat="48.43717" lon="2.72542">
        <ele>165</ele>
        <time>2017-05-17T11:09:53.756</time>
      </trkpt>
      <trkpt lat="48.43717" lon="2.72542">
        <ele>165</ele>
        <time>2017-05-17T11:09:54.755</time>
      </trkpt>
      <trkpt lat="48.43717" lon="2.72543">
        <ele>165</ele>
        <time>2017-05-17T11:09:55.753</time>
      </trkpt>
      <trkpt lat="48.43718" lon="2.72545">
        <ele>166</ele>
        <time>2017-05-17T11:09:56.756</time>
      </trkpt>
      <trkpt lat="48.43718" lon="2.72546">
        <ele>166</ele>
        <time>2017-05-17T11:09:57.755</time>
      </trkpt>
      <trkpt lat="48.43719" lon="2.72546">
        <ele>166</ele>
        <time>2017-05-17T11:09:58.755</time>
      </trkpt>
      <trkpt lat="48.4372" lon="2.72546">
        <ele>167</ele>
        <time>2017-05-17T11:09:59.755</time>
      </trkpt>
      <trkpt lat="48.43721" lon="2.72546">
        <ele>168</ele>
        <time>2017-05-17T11:10:00.755</time>
      </trkpt>
      <trkpt lat="48.43721" lon="2.72547">
        <ele>168</ele>
        <time>2017-05-17T11:10:01.756</time>
      </trkpt>
      <trkpt lat="48.43722" lon="2.72548">
        <ele>168</ele>
        <time>2017-05-17T11:10:02.755</time>
      </trkpt>
      <trkpt lat="48.43722" lon="2.72548">
        <ele>167</ele>
        <time>2017-05-17T11:10:03.754</time>
      </trkpt>
      <trkpt lat="48.43724" lon="2.72549">
        <ele>166</ele>
        <time>2017-05-17T11:10:04.754</time>
      </trkpt>
      <trkpt lat="48.43725" lon="2.72549">
        <ele>166</ele>
        <time>2017-05-17T11:10:05.755</time>
      </trkpt>
      <trkpt lat="48.43727" lon="2.72549">
        <ele>166</ele>
        <time>2017-05-17T11:10:06.756</time>
      </trkpt>
      <trkpt lat="48.43728" lon="2.72551">
        <ele>166</ele>
        <time>2017-05-17T11:10:07.755</time>
      </trkpt>
      <trkpt lat="48.43728" lon="2.72552">
        <ele>165</ele>
        <time>2017-05-17T11:10:08.754</time>
      </trkpt>
      <trkpt lat="48.43728" lon="2.72554">
        <ele>165</ele>
        <time>2017-05-17T11:10:09.759</time>
      </trkpt>
      <trkpt lat="48.43728" lon="2.72555">
        <ele>165</ele>
        <time>2017-05-17T11:10:10.754</time>
      </trkpt>
      <trkpt lat="48.43728" lon="2.72556">
        <ele>167</ele>
        <time>2017-05-17T11:10:11.754</time>
      </trkpt>
      <trkpt lat="48.43728" lon="2.72556">
        <ele>167</ele>
        <time>2017-05-17T11:10:12.752</time>
      </trkpt>
      <trkpt lat="48.43728" lon="2.72557">
        <ele>167</ele>
        <time>2017-05-17T11:10:13.753</time>
      </trkpt>
      <trkpt lat="48.43728" lon="2.72557">
        <ele>167</ele>
        <time>2017-05-17T11:10:14.755</time>
      </trkpt>
      <trkpt lat="48.43728" lon="2.72558">
        <ele>168</ele>
        <time>2017-05-17T11:10:15.754</time>
      </trkpt>
      <trkpt lat="48.43728" lon="2.72558">
        <ele>168</ele>
        <time>2017-05-17T11:10:16.753</time>
      </trkpt>
      <trkpt lat="48.43728" lon="2.72558">
        <ele>168</ele>
        <time>2017-05-17T11:10:17.753</time>
      </trkpt>
      <trkpt lat="48.43728" lon="2.72559">
        <ele>168</ele>
        <time>2017-05-17T11:10:18.754</time>
      </trkpt>
      <trkpt lat="48.43727" lon="2.72559">
        <ele>168</ele>
        <time>2017-05-17T11:10:19.756</time>
      </trkpt>
      <trkpt lat="48.43727" lon="2.72559">
        <ele>167</ele>
        <time>2017-05-17T11:10:20.754</time>
      </trkpt>
      <trkpt lat="48.43726" lon="2.72559">
        <ele>167</ele>
        <time>2017-05-17T11:10:21.753</time>
      </trkpt>
      <trkpt lat="48.43726" lon="2.72559">
        <ele>167</ele>
        <time>2017-05-17T11:10:22.754</time>
      </trkpt>
      <trkpt lat="48.43725" lon="2.7256">
        <ele>167</ele>
        <time>2017-05-17T11:10:23.756</time>
      </trkpt>
      <trkpt lat="48.43724" lon="2.72561">
        <ele>167</ele>
        <time>2017-05-17T11:10:24.754</time>
      </trkpt>
      <trkpt lat="48.43724" lon="2.72562">
        <ele>167</ele>
        <time>2017-05-17T11:10:25.756</time>
      </trkpt>
      <trkpt lat="48.43724" lon="2.72565">
        <ele>168</ele>
        <time>2017-05-17T11:10:26.757</time>
      </trkpt>
      <trkpt lat="48.43725" lon="2.72566">
        <ele>168</ele>
        <time>2017-05-17T11:10:27.755</time>
      </trkpt>
      <trkpt lat="48.43725" lon="2.72567">
        <ele>168</ele>
        <time>2017-05-17T11:10:28.754</time>
      </trkpt>
      <trkpt lat="48.43726" lon="2.72569">
        <ele>168</ele>
        <time>2017-05-17T11:10:29.755</time>
      </trkpt>
      <trkpt lat="48.43724" lon="2.7257">
        <ele>167</ele>
        <time>2017-05-17T11:10:30.755</time>
      </trkpt>
      <trkpt lat="48.43723" lon="2.72571">
        <ele>167</ele>
        <time>2017-05-17T11:10:31.755</time>
      </trkpt>
      <trkpt lat="48.43722" lon="2.72572">
        <ele>168</ele>
        <time>2017-05-17T11:10:32.754</time>
      </trkpt>
      <trkpt lat="48.43722" lon="2.72574">
        <ele>168</ele>
        <time>2017-05-17T11:10:33.755</time>
      </trkpt>
      <trkpt lat="48.43721" lon="2.72576">
        <ele>167</ele>
        <time>2017-05-17T11:10:34.757</time>
      </trkpt>
      <trkpt lat="48.4372" lon="2.72577">
        <ele>167</ele>
        <time>2017-05-17T11:10:35.756</time>
      </trkpt>
      <trkpt lat="48.43719" lon="2.72579">
        <ele>167</ele>
        <time>2017-05-17T11:10:36.756</time>
      </trkpt>
      <trkpt lat="48.43718" lon="2.72581">
        <ele>168</ele>
        <time>2017-05-17T11:10:37.755</time>
      </trkpt>
      <trkpt lat="48.43718" lon="2.72581">
        <ele>169</ele>
        <time>2017-05-17T11:10:38.754</time>
      </trkpt>
      <trkpt lat="48.43717" lon="2.72583">
        <ele>169</ele>
        <time>2017-05-17T11:10:39.756</time>
      </trkpt>
      <trkpt lat="48.43715" lon="2.72586">
        <ele>169</ele>
        <time>2017-05-17T11:10:40.755</time>
      </trkpt>
      <trkpt lat="48.43714" lon="2.7259">
        <ele>169</ele>
        <time>2017-05-17T11:10:41.755</time>
      </trkpt>
      <trkpt lat="48.43712" lon="2.72594">
        <ele>167</ele>
        <time>2017-05-17T11:10:42.755</time>
      </trkpt>
      <trkpt lat="48.43713" lon="2.72596">
        <ele>166</ele>
        <time>2017-05-17T11:10:43.755</time>
      </trkpt>
      <trkpt lat="48.43713" lon="2.72599">
        <ele>165</ele>
        <time>2017-05-17T11:10:44.758</time>
      </trkpt>
      <trkpt lat="48.43713" lon="2.72602">
        <ele>166</ele>
        <time>2017-05-17T11:10:45.758</time>
      </trkpt>
      <trkpt lat="48.43713" lon="2.72605">
        <ele>165</ele>
        <time>2017-05-17T11:10:46.758</time>
      </trkpt>
      <trkpt lat="48.43715" lon="2.72609">
        <ele>164</ele>
        <time>2017-05-17T11:10:47.756</time>
      </trkpt>
      <trkpt lat="48.43715" lon="2.72612">
        <ele>164</ele>
        <time>2017-05-17T11:10:48.755</time>
      </trkpt>
      <trkpt lat="48.43715" lon="2.72615">
        <ele>164</ele>
        <time>2017-05-17T11:10:49.756</time>
      </trkpt>
      <trkpt lat="48.43714" lon="2.72618">
        <ele>164</ele>
        <time>2017-05-17T11:10:50.755</time>
      </trkpt>
      <trkpt lat="48.43713" lon="2.7262">
        <ele>164</ele>
        <time>2017-05-17T11:10:51.755</time>
      </trkpt>
      <trkpt lat="48.43712" lon="2.72624">
        <ele>163</ele>
        <time>2017-05-17T11:10:52.755</time>
      </trkpt>
      <trkpt lat="48.43711" lon="2.7263">
        <ele>164</ele>
        <time>2017-05-17T11:10:53.756</time>
      </trkpt>
      <trkpt lat="48.43712" lon="2.72635">
        <ele>164</ele>
        <time>2017-05-17T11:10:54.756</time>
      </trkpt>
      <trkpt lat="48.43713" lon="2.72638">
        <ele>163</ele>
        <time>2017-05-17T11:10:55.755</time>
      </trkpt>
      <trkpt lat="48.43715" lon="2.72641">
        <ele>165</ele>
        <time>2017-05-17T11:10:56.754</time>
      </trkpt>
      <trkpt lat="48.43716" lon="2.72644">
        <ele>165</ele>
        <time>2017-05-17T11:10:57.756</time>
      </trkpt>
      <trkpt lat="48.43716" lon="2.72648">
        <ele>164</ele>
        <time>2017-05-17T11:10:58.757</time>
      </trkpt>
      <trkpt lat="48.43717" lon="2.72654">
        <ele>165</ele>
        <time>2017-05-17T11:10:59.755</time>
      </trkpt>
      <trkpt lat="48.43717" lon="2.72659">
        <ele>166</ele>
        <time>2017-05-17T11:11:00.756</time>
      </trkpt>
      <trkpt lat="48.43718" lon="2.72662">
        <ele>167</ele>
        <time>2017-05-17T11:11:01.755</time>
      </trkpt>
      <trkpt lat="48.43721" lon="2.72663">
        <ele>166</ele>
        <time>2017-05-17T11:11:02.755</time>
      </trkpt>
      <trkpt lat="48.43723" lon="2.72665">
        <ele>165</ele>
        <time>2017-05-17T11:11:03.754</time>
      </trkpt>
      <trkpt lat="48.43726" lon="2.72668">
        <ele>164</ele>
        <time>2017-05-17T11:11:04.756</time>
      </trkpt>
      <trkpt lat="48.43726" lon="2.72672">
        <ele>165</ele>
        <time>2017-05-17T11:11:05.756</time>
      </trkpt>
      <trkpt lat="48.43725" lon="2.72676">
        <ele>165</ele>
        <time>2017-05-17T11:11:06.754</time>
      </trkpt>
      <trkpt lat="48.43724" lon="2.7268">
        <ele>165</ele>
        <time>2017-05-17T11:11:07.754</time>
      </trkpt>
      <trkpt lat="48.43723" lon="2.72682">
        <ele>165</ele>
        <time>2017-05-17T11:11:08.753</time>
      </trkpt>
      <trkpt lat="48.43723" lon="2.72685">
        <ele>167</ele>
        <time>2017-05-17T11:11:09.754</time>
      </trkpt>
      <trkpt lat="48.43723" lon="2.72687">
        <ele>168</ele>
        <time>2017-05-17T11:11:10.755</time>
      </trkpt>
      <trkpt lat="48.43723" lon="2.7269">
        <ele>167</ele>
        <time>2017-05-17T11:11:11.754</time>
      </trkpt>
      <trkpt lat="48.43722" lon="2.72691">
        <ele>167</ele>
        <time>2017-05-17T11:11:12.756</time>
      </trkpt>
      <trkpt lat="48.43721" lon="2.72692">
        <ele>168</ele>
        <time>2017-05-17T11:11:13.754</time>
      </trkpt>
      <trkpt lat="48.4372" lon="2.72692">
        <ele>167</ele>
        <time>2017-05-17T11:11:14.757</time>
      </trkpt>
      <trkpt lat="48.4372" lon="2.72692">
        <ele>168</ele>
        <time>2017-05-17T11:11:15.753</time>
      </trkpt>
      <trkpt lat="48.4372" lon="2.72693">
        <ele>167</ele>
        <time>2017-05-17T11:11:16.753</time>
      </trkpt>
      <trkpt lat="48.4372" lon="2.72693">
        <ele>167</ele>
        <time>2017-05-17T11:11:17.753</time>
      </trkpt>
      <trkpt lat="48.4372" lon="2.72693">
        <ele>167</ele>
        <time>2017-05-17T11:11:18.756</time>
      </trkpt>
      <trkpt lat="48.4372" lon="2.72693">
        <ele>167</ele>
        <time>2017-05-17T11:11:19.756</time>
      </trkpt>
      <trkpt lat="48.4372" lon="2.72693">
        <ele>167</ele>
        <time>2017-05-17T11:11:20.756</time>
      </trkpt>
      <trkpt lat="48.4372" lon="2.72694">
        <ele>168</ele>
        <time>2017-05-17T11:11:21.756</time>
      </trkpt>
      <trkpt lat="48.4372" lon="2.72694">
        <ele>168</ele>
        <time>2017-05-17T11:11:22.756</time>
      </trkpt>
      <trkpt lat="48.43719" lon="2.72694">
        <ele>168</ele>
        <time>2017-05-17T11:11:23.756</time>
      </trkpt>
      <trkpt lat="48.43719" lon="2.72695">
        <ele>168</ele>
        <time>2017-05-17T11:11:24.753</time>
      </trkpt>
      <trkpt lat="48.43719" lon="2.72695">
        <ele>168</ele>
        <time>2017-05-17T11:11:25.752</time>
      </trkpt>
      <trkpt lat="48.43719" lon="2.72695">
        <ele>168</ele>
        <time>2017-05-17T11:11:26.753</time>
      </trkpt>
      <trkpt lat="48.43719" lon="2.72695">
        <ele>168</ele>
        <time>2017-05-17T11:11:27.756</time>
      </trkpt>
      <trkpt lat="48.43717" lon="2.72697">
        <ele>168</ele>
        <time>2017-05-17T11:11:28.756</time>
      </trkpt>
      <trkpt lat="48.43717" lon="2.72699">
        <ele>167</ele>
        <time>2017-05-17T11:11:29.755</time>
      </trkpt>
      <trkpt lat="48.43716" lon="2.727">
        <ele>168</ele>
        <time>2017-05-17T11:11:30.754</time>
      </trkpt>
      <trkpt lat="48.43716" lon="2.72701">
        <ele>168</ele>
        <time>2017-05-17T11:11:31.754</time>
      </trkpt>
      <trkpt lat="48.43715" lon="2.72702">
        <ele>169</ele>
        <time>2017-05-17T11:11:32.755</time>
      </trkpt>
      <trkpt lat="48.43715" lon="2.72704">
        <ele>169</ele>
        <time>2017-05-17T11:11:33.755</time>
      </trkpt>
      <trkpt lat="48.43714" lon="2.72706">
        <ele>169</ele>
        <time>2017-05-17T11:11:34.756</time>
      </trkpt>
      <trkpt lat="48.43715" lon="2.72707">
        <ele>170</ele>
        <time>2017-05-17T11:11:35.774</time>
      </trkpt>
      <trkpt lat="48.43714" lon="2.72707">
        <ele>170</ele>
        <time>2017-05-17T11:11:36.755</time>
      </trkpt>
      <trkpt lat="48.43714" lon="2.72707">
        <ele>170</ele>
        <time>2017-05-17T11:11:37.752</time>
      </trkpt>
      <trkpt lat="48.43714" lon="2.72707">
        <ele>170</ele>
        <time>2017-05-17T11:11:38.753</time>
      </trkpt>
      <trkpt lat="48.43714" lon="2.72707">
        <ele>170</ele>
        <time>2017-05-17T11:11:39.753</time>
      </trkpt>
      <trkpt lat="48.43714" lon="2.72707">
        <ele>171</ele>
        <time>2017-05-17T11:11:40.753</time>
      </trkpt>
      <trkpt lat="48.43713" lon="2.72707">
        <ele>171</ele>
        <time>2017-05-17T11:11:41.755</time>
      </trkpt>
      <trkpt lat="48.43713" lon="2.72707">
        <ele>171</ele>
        <time>2017-05-17T11:11:42.754</time>
      </trkpt>
      <trkpt lat="48.43713" lon="2.72707">
        <ele>171</ele>
        <time>2017-05-17T11:11:43.753</time>
      </trkpt>
      <trkpt lat="48.43713" lon="2.72707">
        <ele>171</ele>
        <time>2017-05-17T11:11:44.752</time>
      </trkpt>
      <trkpt lat="48.43712" lon="2.72707">
        <ele>171</ele>
        <time>2017-05-17T11:11:45.753</time>
      </trkpt>
      <trkpt lat="48.43712" lon="2.72707">
        <ele>171</ele>
        <time>2017-05-17T11:11:46.751</time>
      </trkpt>
      <trkpt lat="48.43712" lon="2.72707">
        <ele>171</ele>
        <time>2017-05-17T11:11:47.752</time>
      </trkpt>
      <trkpt lat="48.43711" lon="2.72709">
        <ele>172</ele>
        <time>2017-05-17T11:11:48.753</time>
      </trkpt>
      <trkpt lat="48.4371" lon="2.72709">
        <ele>172</ele>
        <time>2017-05-17T11:11:49.755</time>
      </trkpt>
      <trkpt lat="48.4371" lon="2.72711">
        <ele>172</ele>
        <time>2017-05-17T11:11:50.755</time>
      </trkpt>
      <trkpt lat="48.43708" lon="2.72713">
        <ele>171</ele>
        <time>2017-05-17T11:11:51.755</time>
      </trkpt>
      <trkpt lat="48.43706" lon="2.72714">
        <ele>171</ele>
        <time>2017-05-17T11:11:52.755</time>
      </trkpt>
      <trkpt lat="48.43706" lon="2.72716">
        <ele>170</ele>
        <time>2017-05-17T11:11:53.756</time>
      </trkpt>
      <trkpt lat="48.43704" lon="2.72718">
        <ele>170</ele>
        <time>2017-05-17T11:11:54.753</time>
      </trkpt>
      <trkpt lat="48.43704" lon="2.72721">
        <ele>170</ele>
        <time>2017-05-17T11:11:55.755</time>
      </trkpt>
      <trkpt lat="48.43704" lon="2.72723">
        <ele>170</ele>
        <time>2017-05-17T11:11:56.756</time>
      </trkpt>
      <trkpt lat="48.43703" lon="2.72724">
        <ele>170</ele>
        <time>2017-05-17T11:11:57.754</time>
      </trkpt>
      <trkpt lat="48.43703" lon="2.72723">
        <ele>169</ele>
        <time>2017-05-17T11:11:58.758</time>
      </trkpt>
      <trkpt lat="48.43701" lon="2.72725">
        <ele>170</ele>
        <time>2017-05-17T11:11:59.756</time>
      </trkpt>
      <trkpt lat="48.43701" lon="2.72727">
        <ele>169</ele>
        <time>2017-05-17T11:12:00.757</time>
      </trkpt>
      <trkpt lat="48.43701" lon="2.7273">
        <ele>170</ele>
        <time>2017-05-17T11:12:01.756</time>
      </trkpt>
      <trkpt lat="48.43701" lon="2.72736">
        <ele>170</ele>
        <time>2017-05-17T11:12:02.758</time>
      </trkpt>
      <trkpt lat="48.43702" lon="2.7274">
        <ele>169</ele>
        <time>2017-05-17T11:12:03.756</time>
      </trkpt>
      <trkpt lat="48.43703" lon="2.72744">
        <ele>169</ele>
        <time>2017-05-17T11:12:04.755</time>
      </trkpt>
      <trkpt lat="48.43704" lon="2.72748">
        <ele>168</ele>
        <time>2017-05-17T11:12:05.756</time>
      </trkpt>
      <trkpt lat="48.43705" lon="2.72752">
        <ele>168</ele>
        <time>2017-05-17T11:12:06.755</time>
      </trkpt>
      <trkpt lat="48.43705" lon="2.72757">
        <ele>166</ele>
        <time>2017-05-17T11:12:07.758</time>
      </trkpt>
      <trkpt lat="48.43701" lon="2.7276">
        <ele>164</ele>
        <time>2017-05-17T11:12:08.757</time>
      </trkpt>
      <trkpt lat="48.43699" lon="2.72765">
        <ele>162</ele>
        <time>2017-05-17T11:12:09.755</time>
      </trkpt>
      <trkpt lat="48.43698" lon="2.7277">
        <ele>162</ele>
        <time>2017-05-17T11:12:10.754</time>
      </trkpt>
      <trkpt lat="48.43696" lon="2.72774">
        <ele>162</ele>
        <time>2017-05-17T11:12:11.754</time>
      </trkpt>
      <trkpt lat="48.43694" lon="2.72781">
        <ele>161</ele>
        <time>2017-05-17T11:12:12.756</time>
      </trkpt>
      <trkpt lat="48.43694" lon="2.72786">
        <ele>161</ele>
        <time>2017-05-17T11:12:13.755</time>
      </trkpt>
      <trkpt lat="48.43694" lon="2.72788">
        <ele>161</ele>
        <time>2017-05-17T11:12:14.755</time>
      </trkpt>
      <trkpt lat="48.43694" lon="2.72788">
        <ele>161</ele>
        <time>2017-05-17T11:12:15.755</time>
      </trkpt>
      <trkpt lat="48.43694" lon="2.72789">
        <ele>161</ele>
        <time>2017-05-17T11:12:16.755</time>
      </trkpt>
      <trkpt lat="48.43694" lon="2.72789">
        <ele>162</ele>
        <time>2017-05-17T11:12:17.753</time>
      </trkpt>
      <trkpt lat="48.43694" lon="2.7279">
        <ele>163</ele>
        <time>2017-05-17T11:12:18.752</time>
      </trkpt>
      <trkpt lat="48.43694" lon="2.7279">
        <ele>163</ele>
        <time>2017-05-17T11:12:19.752</time>
      </trkpt>
      <trkpt lat="48.43694" lon="2.72791">
        <ele>164</ele>
        <time>2017-05-17T11:12:20.752</time>
      </trkpt>
      <trkpt lat="48.43694" lon="2.72791">
        <ele>164</ele>
        <time>2017-05-17T11:12:21.753</time>
      </trkpt>
      <trkpt lat="48.43694" lon="2.72791">
        <ele>164</ele>
        <time>2017-05-17T11:12:22.753</time>
      </trkpt>
      <trkpt lat="48.43695" lon="2.72792">
        <ele>165</ele>
        <time>2017-05-17T11:12:23.753</time>
      </trkpt>
      <trkpt lat="48.43695" lon="2.72792">
        <ele>165</ele>
        <time>2017-05-17T11:12:24.755</time>
      </trkpt>
      <trkpt lat="48.43695" lon="2.72794">
        <ele>165</ele>
        <time>2017-05-17T11:12:25.756</time>
      </trkpt>
      <trkpt lat="48.43694" lon="2.72797">
        <ele>163</ele>
        <time>2017-05-17T11:12:26.755</time>
      </trkpt>
      <trkpt lat="48.43694" lon="2.72801">
        <ele>163</ele>
        <time>2017-05-17T11:12:27.754</time>
      </trkpt>
      <trkpt lat="48.43695" lon="2.72803">
        <ele>162</ele>
        <time>2017-05-17T11:12:28.755</time>
      </trkpt>
      <trkpt lat="48.43696" lon="2.72805">
        <ele>161</ele>
        <time>2017-05-17T11:12:29.753</time>
      </trkpt>
      <trkpt lat="48.43696" lon="2.72808">
        <ele>161</ele>
        <time>2017-05-17T11:12:30.754</time>
      </trkpt>
      <trkpt lat="48.43695" lon="2.72812">
        <ele>160</ele>
        <time>2017-05-17T11:12:31.756</time>
      </trkpt>
      <trkpt lat="48.43694" lon="2.72814">
        <ele>160</ele>
        <time>2017-05-17T11:12:32.758</time>
      </trkpt>
      <trkpt lat="48.43692" lon="2.72817">
        <ele>161</ele>
        <time>2017-05-17T11:12:33.756</time>
      </trkpt>
      <trkpt lat="48.4369" lon="2.72818">
        <ele>160</ele>
        <time>2017-05-17T11:12:34.755</time>
      </trkpt>
      <trkpt lat="48.43688" lon="2.72819">
        <ele>159</ele>
        <time>2017-05-17T11:12:35.755</time>
      </trkpt>
      <trkpt lat="48.43687" lon="2.72822">
        <ele>159</ele>
        <time>2017-05-17T11:12:36.755</time>
      </trkpt>
      <trkpt lat="48.43687" lon="2.72825">
        <ele>158</ele>
        <time>2017-05-17T11:12:37.754</time>
      </trkpt>
      <trkpt lat="48.43688" lon="2.72828">
        <ele>157</ele>
        <time>2017-05-17T11:12:38.755</time>
      </trkpt>
      <trkpt lat="48.43688" lon="2.7283">
        <ele>157</ele>
        <time>2017-05-17T11:12:39.753</time>
      </trkpt>
      <trkpt lat="48.43688" lon="2.72833">
        <ele>157</ele>
        <time>2017-05-17T11:12:40.755</time>
      </trkpt>
      <trkpt lat="48.43687" lon="2.72838">
        <ele>158</ele>
        <time>2017-05-17T11:12:41.756</time>
      </trkpt>
      <trkpt lat="48.43686" lon="2.72839">
        <ele>159</ele>
        <time>2017-05-17T11:12:42.754</time>
      </trkpt>
      <trkpt lat="48.43686" lon="2.72839">
        <ele>158</ele>
        <time>2017-05-17T11:12:43.755</time>
      </trkpt>
      <trkpt lat="48.43685" lon="2.7284">
        <ele>157</ele>
        <time>2017-05-17T11:12:44.755</time>
      </trkpt>
      <trkpt lat="48.43685" lon="2.72841">
        <ele>159</ele>
        <time>2017-05-17T11:12:45.754</time>
      </trkpt>
      <trkpt lat="48.43686" lon="2.72842">
        <ele>160</ele>
        <time>2017-05-17T11:12:46.753</time>
      </trkpt>
      <trkpt lat="48.43686" lon="2.72843">
        <ele>161</ele>
        <time>2017-05-17T11:12:47.754</time>
      </trkpt>
      <trkpt lat="48.43687" lon="2.72844">
        <ele>162</ele>
        <time>2017-05-17T11:12:48.757</time>
      </trkpt>
      <trkpt lat="48.43687" lon="2.72846">
        <ele>162</ele>
        <time>2017-05-17T11:12:49.758</time>
      </trkpt>
      <trkpt lat="48.43687" lon="2.72847">
        <ele>162</ele>
        <time>2017-05-17T11:12:50.754</time>
      </trkpt>
      <trkpt lat="48.43687" lon="2.72847">
        <ele>163</ele>
        <time>2017-05-17T11:12:51.752</time>
      </trkpt>
      <trkpt lat="48.43687" lon="2.72848">
        <ele>162</ele>
        <time>2017-05-17T11:12:52.755</time>
      </trkpt>
      <trkpt lat="48.43687" lon="2.72848">
        <ele>163</ele>
        <time>2017-05-17T11:12:53.755</time>
      </trkpt>
      <trkpt lat="48.43686" lon="2.72849">
        <ele>163</ele>
        <time>2017-05-17T11:12:54.755</time>
      </trkpt>
      <trkpt lat="48.43686" lon="2.72849">
        <ele>163</ele>
        <time>2017-05-17T11:12:55.754</time>
      </trkpt>
      <trkpt lat="48.43686" lon="2.72849">
        <ele>162</ele>
        <time>2017-05-17T11:12:56.754</time>
      </trkpt>
      <trkpt lat="48.43686" lon="2.72849">
        <ele>162</ele>
        <time>2017-05-17T11:12:57.753</time>
      </trkpt>
      <trkpt lat="48.43686" lon="2.72849">
        <ele>161</ele>
        <time>2017-05-17T11:12:58.753</time>
      </trkpt>
      <trkpt lat="48.43686" lon="2.72849">
        <ele>161</ele>
        <time>2017-05-17T11:12:59.752</time>
      </trkpt>
      <trkpt lat="48.43686" lon="2.7285">
        <ele>161</ele>
        <time>2017-05-17T11:13:00.752</time>
      </trkpt>
      <trkpt lat="48.43686" lon="2.7285">
        <ele>161</ele>
        <time>2017-05-17T11:13:01.753</time>
      </trkpt>
      <trkpt lat="48.43686" lon="2.7285">
        <ele>161</ele>
        <time>2017-05-17T11:13:02.753</time>
      </trkpt>
      <trkpt lat="48.43686" lon="2.7285">
        <ele>161</ele>
        <time>2017-05-17T11:13:03.752</time>
      </trkpt>
      <trkpt lat="48.43686" lon="2.7285">
        <ele>161</ele>
        <time>2017-05-17T11:13:04.751</time>
      </trkpt>
      <trkpt lat="48.43686" lon="2.72851">
        <ele>161</ele>
        <time>2017-05-17T11:13:05.751</time>
      </trkpt>
      <trkpt lat="48.43686" lon="2.72851">
        <ele>161</ele>
        <time>2017-05-17T11:13:06.752</time>
      </trkpt>
      <trkpt lat="48.43686" lon="2.72851">
        <ele>161</ele>
        <time>2017-05-17T11:13:07.753</time>
      </trkpt>
      <trkpt lat="48.43686" lon="2.72851">
        <ele>161</ele>
        <time>2017-05-17T11:13:08.752</time>
      </trkpt>
      <trkpt lat="48.43686" lon="2.72851">
        <ele>161</ele>
        <time>2017-05-17T11:13:09.752</time>
      </trkpt>
      <trkpt lat="48.43686" lon="2.72851">
        <ele>161</ele>
        <time>2017-05-17T11:13:10.752</time>
      </trkpt>
      <trkpt lat="48.43686" lon="2.72851">
        <ele>161</ele>
        <time>2017-05-17T11:13:11.754</time>
      </trkpt>
      <trkpt lat="48.43686" lon="2.72851">
        <ele>161</ele>
        <time>2017-05-17T11:13:12.752</time>
      </trkpt>
      <trkpt lat="48.43686" lon="2.72851">
        <ele>161</ele>
        <time>2017-05-17T11:13:13.753</time>
      </trkpt>
      <trkpt lat="48.43686" lon="2.72851">
        <ele>161</ele>
        <time>2017-05-17T11:13:14.753</time>
      </trkpt>
      <trkpt lat="48.43685" lon="2.72853">
        <ele>160</ele>
        <time>2017-05-17T11:13:15.756</time>
      </trkpt>
      <trkpt lat="48.43686" lon="2.72855">
        <ele>160</ele>
        <time>2017-05-17T11:13:16.756</time>
      </trkpt>
      <trkpt lat="48.43687" lon="2.72858">
        <ele>161</ele>
        <time>2017-05-17T11:13:17.755</time>
      </trkpt>
      <trkpt lat="48.43686" lon="2.72859">
        <ele>161</ele>
        <time>2017-05-17T11:13:18.755</time>
      </trkpt>
      <trkpt lat="48.43686" lon="2.7286">
        <ele>161</ele>
        <time>2017-05-17T11:13:19.755</time>
      </trkpt>
      <trkpt lat="48.43686" lon="2.72862">
        <ele>162</ele>
        <time>2017-05-17T11:13:20.756</time>
      </trkpt>
      <trkpt lat="48.43687" lon="2.72864">
        <ele>163</ele>
        <time>2017-05-17T11:13:21.755</time>
      </trkpt>
      <trkpt lat="48.43687" lon="2.72864">
        <ele>163</ele>
        <time>2017-05-17T11:13:22.753</time>
      </trkpt>
      <trkpt lat="48.43687" lon="2.72865">
        <ele>162</ele>
        <time>2017-05-17T11:13:23.752</time>
      </trkpt>
      <trkpt lat="48.43686" lon="2.72865">
        <ele>162</ele>
        <time>2017-05-17T11:13:24.754</time>
      </trkpt>
      <trkpt lat="48.43686" lon="2.72866">
        <ele>162</ele>
        <time>2017-05-17T11:13:25.755</time>
      </trkpt>
      <trkpt lat="48.43685" lon="2.72867">
        <ele>161</ele>
        <time>2017-05-17T11:13:26.755</time>
      </trkpt>
      <trkpt lat="48.43684" lon="2.72868">
        <ele>161</ele>
        <time>2017-05-17T11:13:27.755</time>
      </trkpt>
      <trkpt lat="48.43682" lon="2.7287">
        <ele>161</ele>
        <time>2017-05-17T11:13:28.755</time>
      </trkpt>
      <trkpt lat="48.43681" lon="2.72874">
        <ele>161</ele>
        <time>2017-05-17T11:13:29.755</time>
      </trkpt>
      <trkpt lat="48.4368" lon="2.72877">
        <ele>161</ele>
        <time>2017-05-17T11:13:30.755</time>
      </trkpt>
      <trkpt lat="48.43678" lon="2.72879">
        <ele>162</ele>
        <time>2017-05-17T11:13:31.755</time>
      </trkpt>
      <trkpt lat="48.43677" lon="2.7288">
        <ele>160</ele>
        <time>2017-05-17T11:13:32.755</time>
      </trkpt>
      <trkpt lat="48.43677" lon="2.72881">
        <ele>161</ele>
        <time>2017-05-17T11:13:33.754</time>
      </trkpt>
      <trkpt lat="48.43675" lon="2.72881">
        <ele>160</ele>
        <time>2017-05-17T11:13:34.755</time>
      </trkpt>
      <trkpt lat="48.43674" lon="2.72881">
        <ele>160</ele>
        <time>2017-05-17T11:13:35.755</time>
      </trkpt>
      <trkpt lat="48.43673" lon="2.72882">
        <ele>160</ele>
        <time>2017-05-17T11:13:36.756</time>
      </trkpt>
      <trkpt lat="48.43673" lon="2.72883">
        <ele>160</ele>
        <time>2017-05-17T11:13:37.755</time>
      </trkpt>
      <trkpt lat="48.43672" lon="2.72884">
        <ele>160</ele>
        <time>2017-05-17T11:13:38.756</time>
      </trkpt>
      <trkpt lat="48.43672" lon="2.72885">
        <ele>159</ele>
        <time>2017-05-17T11:13:39.754</time>
      </trkpt>
      <trkpt lat="48.43671" lon="2.72887">
        <ele>159</ele>
        <time>2017-05-17T11:13:40.754</time>
      </trkpt>
      <trkpt lat="48.4367" lon="2.72889">
        <ele>159</ele>
        <time>2017-05-17T11:13:41.755</time>
      </trkpt>
      <trkpt lat="48.4367" lon="2.72891">
        <ele>160</ele>
        <time>2017-05-17T11:13:42.755</time>
      </trkpt>
      <trkpt lat="48.4367" lon="2.72893">
        <ele>160</ele>
        <time>2017-05-17T11:13:43.755</time>
      </trkpt>
      <trkpt lat="48.4367" lon="2.72895">
        <ele>159</ele>
        <time>2017-05-17T11:13:44.756</time>
      </trkpt>
      <trkpt lat="48.43669" lon="2.72897">
        <ele>159</ele>
        <time>2017-05-17T11:13:45.756</time>
      </trkpt>
      <trkpt lat="48.43668" lon="2.72899">
        <ele>159</ele>
        <time>2017-05-17T11:13:46.756</time>
      </trkpt>
      <trkpt lat="48.43666" lon="2.729">
        <ele>158</ele>
        <time>2017-05-17T11:13:47.756</time>
      </trkpt>
      <trkpt lat="48.43666" lon="2.72902">
        <ele>158</ele>
        <time>2017-05-17T11:13:48.755</time>
      </trkpt>
      <trkpt lat="48.43665" lon="2.72903">
        <ele>157</ele>
        <time>2017-05-17T11:13:49.756</time>
      </trkpt>
      <trkpt lat="48.43663" lon="2.72905">
        <ele>156</ele>
        <time>2017-05-17T11:13:50.756</time>
      </trkpt>
      <trkpt lat="48.43663" lon="2.72906">
        <ele>155</ele>
        <time>2017-05-17T11:13:51.753</time>
      </trkpt>
      <trkpt lat="48.43663" lon="2.72908">
        <ele>154</ele>
        <time>2017-05-17T11:13:52.754</time>
      </trkpt>
      <trkpt lat="48.43662" lon="2.7291">
        <ele>154</ele>
        <time>2017-05-17T11:13:53.754</time>
      </trkpt>
      <trkpt lat="48.43661" lon="2.72909">
        <ele>154</ele>
        <time>2017-05-17T11:13:54.753</time>
      </trkpt>
      <trkpt lat="48.43659" lon="2.72909">
        <ele>153</ele>
        <time>2017-05-17T11:13:55.753</time>
      </trkpt>
      <trkpt lat="48.43658" lon="2.72908">
        <ele>154</ele>
        <time>2017-05-17T11:13:56.754</time>
      </trkpt>
      <trkpt lat="48.43658" lon="2.72908">
        <ele>154</ele>
        <time>2017-05-17T11:13:57.755</time>
      </trkpt>
      <trkpt lat="48.43658" lon="2.72907">
        <ele>155</ele>
        <time>2017-05-17T11:13:58.753</time>
      </trkpt>
      <trkpt lat="48.43658" lon="2.72907">
        <ele>155</ele>
        <time>2017-05-17T11:13:59.752</time>
      </trkpt>
      <trkpt lat="48.43658" lon="2.72907">
        <ele>155</ele>
        <time>2017-05-17T11:14:00.752</time>
      </trkpt>
      <trkpt lat="48.43657" lon="2.72907">
        <ele>155</ele>
        <time>2017-05-17T11:14:01.764</time>
      </trkpt>
      <trkpt lat="48.43657" lon="2.72907">
        <ele>156</ele>
        <time>2017-05-17T11:14:02.759</time>
      </trkpt>
      <trkpt lat="48.43657" lon="2.72907">
        <ele>156</ele>
        <time>2017-05-17T11:14:03.752</time>
      </trkpt>
      <trkpt lat="48.43657" lon="2.72907">
        <ele>156</ele>
        <time>2017-05-17T11:14:04.751</time>
      </trkpt>
      <trkpt lat="48.43656" lon="2.72907">
        <ele>156</ele>
        <time>2017-05-17T11:14:05.763</time>
      </trkpt>
      <trkpt lat="48.43655" lon="2.72908">
        <ele>156</ele>
        <time>2017-05-17T11:14:06.753</time>
      </trkpt>
      <trkpt lat="48.43654" lon="2.72908">
        <ele>155</ele>
        <time>2017-05-17T11:14:07.755</time>
      </trkpt>
      <trkpt lat="48.43652" lon="2.72907">
        <ele>155</ele>
        <time>2017-05-17T11:14:08.755</time>
      </trkpt>
      <trkpt lat="48.43651" lon="2.72908">
        <ele>156</ele>
        <time>2017-05-17T11:14:09.756</time>
      </trkpt>
      <trkpt lat="48.43649" lon="2.72909">
        <ele>155</ele>
        <time>2017-05-17T11:14:10.756</time>
      </trkpt>
      <trkpt lat="48.43647" lon="2.72909">
        <ele>155</ele>
        <time>2017-05-17T11:14:11.756</time>
      </trkpt>
      <trkpt lat="48.43645" lon="2.72908">
        <ele>156</ele>
        <time>2017-05-17T11:14:12.756</time>
      </trkpt>
      <trkpt lat="48.43644" lon="2.72907">
        <ele>156</ele>
        <time>2017-05-17T11:14:13.755</time>
      </trkpt>
      <trkpt lat="48.43642" lon="2.72907">
        <ele>156</ele>
        <time>2017-05-17T11:14:14.755</time>
      </trkpt>
      <trkpt lat="48.4364" lon="2.72906">
        <ele>156</ele>
        <time>2017-05-17T11:14:15.756</time>
      </trkpt>
      <trkpt lat="48.43638" lon="2.72906">
        <ele>157</ele>
        <time>2017-05-17T11:14:16.756</time>
      </trkpt>
      <trkpt lat="48.43636" lon="2.72906">
        <ele>156</ele>
        <time>2017-05-17T11:14:17.757</time>
      </trkpt>
      <trkpt lat="48.43634" lon="2.72905">
        <ele>156</ele>
        <time>2017-05-17T11:14:18.757</time>
      </trkpt>
      <trkpt lat="48.43634" lon="2.72905">
        <ele>155</ele>
        <time>2017-05-17T11:14:19.754</time>
      </trkpt>
      <trkpt lat="48.43634" lon="2.72905">
        <ele>155</ele>
        <time>2017-05-17T11:14:20.754</time>
      </trkpt>
      <trkpt lat="48.43634" lon="2.72905">
        <ele>155</ele>
        <time>2017-05-17T11:14:21.754</time>
      </trkpt>
      <trkpt lat="48.43633" lon="2.72905">
        <ele>155</ele>
        <time>2017-05-17T11:14:22.751</time>
      </trkpt>
      <trkpt lat="48.43633" lon="2.72905">
        <ele>154</ele>
        <time>2017-05-17T11:14:23.752</time>
      </trkpt>
      <trkpt lat="48.43632" lon="2.72905">
        <ele>154</ele>
        <time>2017-05-17T11:14:24.752</time>
      </trkpt>
      <trkpt lat="48.43632" lon="2.72905">
        <ele>154</ele>
        <time>2017-05-17T11:14:25.754</time>
      </trkpt>
      <trkpt lat="48.43632" lon="2.72904">
        <ele>153</ele>
        <time>2017-05-17T11:14:26.756</time>
      </trkpt>
      <trkpt lat="48.43632" lon="2.72904">
        <ele>153</ele>
        <time>2017-05-17T11:14:27.753</time>
      </trkpt>
      <trkpt lat="48.43632" lon="2.72904">
        <ele>153</ele>
        <time>2017-05-17T11:14:28.753</time>
      </trkpt>
      <trkpt lat="48.43632" lon="2.72903">
        <ele>152</ele>
        <time>2017-05-17T11:14:29.755</time>
      </trkpt>
      <trkpt lat="48.43633" lon="2.72903">
        <ele>153</ele>
        <time>2017-05-17T11:14:30.755</time>
      </trkpt>
      <trkpt lat="48.43633" lon="2.72903">
        <ele>153</ele>
        <time>2017-05-17T11:14:31.755</time>
      </trkpt>
      <trkpt lat="48.43633" lon="2.72903">
        <ele>153</ele>
        <time>2017-05-17T11:14:32.753</time>
      </trkpt>
      <trkpt lat="48.43633" lon="2.72903">
        <ele>154</ele>
        <time>2017-05-17T11:14:33.752</time>
      </trkpt>
      <trkpt lat="48.43633" lon="2.72902">
        <ele>153</ele>
        <time>2017-05-17T11:14:34.752</time>
      </trkpt>
      <trkpt lat="48.43633" lon="2.72902">
        <ele>153</ele>
        <time>2017-05-17T11:14:35.752</time>
      </trkpt>
      <trkpt lat="48.43633" lon="2.72902">
        <ele>152</ele>
        <time>2017-05-17T11:14:36.754</time>
      </trkpt>
      <trkpt lat="48.43633" lon="2.729">
        <ele>151</ele>
        <time>2017-05-17T11:14:37.755</time>
      </trkpt>
      <trkpt lat="48.43633" lon="2.72899">
        <ele>150</ele>
        <time>2017-05-17T11:14:38.755</time>
      </trkpt>
      <trkpt lat="48.43633" lon="2.72899">
        <ele>149</ele>
        <time>2017-05-17T11:14:39.754</time>
      </trkpt>
      <trkpt lat="48.43634" lon="2.72896">
        <ele>149</ele>
        <time>2017-05-17T11:14:40.755</time>
      </trkpt>
      <trkpt lat="48.43633" lon="2.72894">
        <ele>149</ele>
        <time>2017-05-17T11:14:41.756</time>
      </trkpt>
      <trkpt lat="48.43634" lon="2.72892">
        <ele>149</ele>
        <time>2017-05-17T11:14:42.756</time>
      </trkpt>
      <trkpt lat="48.43635" lon="2.72891">
        <ele>149</ele>
        <time>2017-05-17T11:14:43.756</time>
      </trkpt>
      <trkpt lat="48.43636" lon="2.72889">
        <ele>150</ele>
        <time>2017-05-17T11:14:44.755</time>
      </trkpt>
      <trkpt lat="48.43636" lon="2.72888">
        <ele>150</ele>
        <time>2017-05-17T11:14:45.755</time>
      </trkpt>
      <trkpt lat="48.43636" lon="2.72887">
        <ele>149</ele>
        <time>2017-05-17T11:14:46.757</time>
      </trkpt>
      <trkpt lat="48.43637" lon="2.72882">
        <ele>149</ele>
        <time>2017-05-17T11:14:47.756</time>
      </trkpt>
      <trkpt lat="48.43638" lon="2.72879">
        <ele>149</ele>
        <time>2017-05-17T11:14:48.754</time>
      </trkpt>
      <trkpt lat="48.43638" lon="2.72875">
        <ele>148</ele>
        <time>2017-05-17T11:14:49.755</time>
      </trkpt>
      <trkpt lat="48.43637" lon="2.72873">
        <ele>148</ele>
        <time>2017-05-17T11:14:50.754</time>
      </trkpt>
      <trkpt lat="48.43637" lon="2.72873">
        <ele>149</ele>
        <time>2017-05-17T11:14:51.754</time>
      </trkpt>
      <trkpt lat="48.43636" lon="2.72871">
        <ele>148</ele>
        <time>2017-05-17T11:14:52.756</time>
      </trkpt>
      <trkpt lat="48.43634" lon="2.72871">
        <ele>148</ele>
        <time>2017-05-17T11:14:53.754</time>
      </trkpt>
      <trkpt lat="48.43632" lon="2.72871">
        <ele>148</ele>
        <time>2017-05-17T11:14:54.754</time>
      </trkpt>
      <trkpt lat="48.43631" lon="2.7287">
        <ele>148</ele>
        <time>2017-05-17T11:14:55.754</time>
      </trkpt>
      <trkpt lat="48.43631" lon="2.72868">
        <ele>148</ele>
        <time>2017-05-17T11:14:56.754</time>
      </trkpt>
      <trkpt lat="48.4363" lon="2.72867">
        <ele>149</ele>
        <time>2017-05-17T11:14:57.755</time>
      </trkpt>
      <trkpt lat="48.43629" lon="2.72865">
        <ele>149</ele>
        <time>2017-05-17T11:14:58.755</time>
      </trkpt>
      <trkpt lat="48.43629" lon="2.72864">
        <ele>149</ele>
        <time>2017-05-17T11:14:59.752</time>
      </trkpt>
      <trkpt lat="48.43628" lon="2.72864">
        <ele>150</ele>
        <time>2017-05-17T11:15:00.752</time>
      </trkpt>
      <trkpt lat="48.43629" lon="2.72863">
        <ele>151</ele>
        <time>2017-05-17T11:15:01.752</time>
      </trkpt>
      <trkpt lat="48.43628" lon="2.72864">
        <ele>151</ele>
        <time>2017-05-17T11:15:02.753</time>
      </trkpt>
      <trkpt lat="48.43628" lon="2.72864">
        <ele>152</ele>
        <time>2017-05-17T11:15:03.752</time>
      </trkpt>
      <trkpt lat="48.43628" lon="2.72863">
        <ele>151</ele>
        <time>2017-05-17T11:15:04.754</time>
      </trkpt>
      <trkpt lat="48.43629" lon="2.72862">
        <ele>149</ele>
        <time>2017-05-17T11:15:05.752</time>
      </trkpt>
      <trkpt lat="48.43629" lon="2.72862">
        <ele>150</ele>
        <time>2017-05-17T11:15:06.753</time>
      </trkpt>
      <trkpt lat="48.43629" lon="2.72862">
        <ele>150</ele>
        <time>2017-05-17T11:15:07.752</time>
      </trkpt>
      <trkpt lat="48.43629" lon="2.72862">
        <ele>151</ele>
        <time>2017-05-17T11:15:08.753</time>
      </trkpt>
      <trkpt lat="48.43629" lon="2.72862">
        <ele>151</ele>
        <time>2017-05-17T11:15:09.752</time>
      </trkpt>
      <trkpt lat="48.43628" lon="2.72861">
        <ele>152</ele>
        <time>2017-05-17T11:15:10.753</time>
      </trkpt>
      <trkpt lat="48.43627" lon="2.7286">
        <ele>151</ele>
        <time>2017-05-17T11:15:11.754</time>
      </trkpt>
      <trkpt lat="48.43625" lon="2.72858">
        <ele>150</ele>
        <time>2017-05-17T11:15:12.753</time>
      </trkpt>
      <trkpt lat="48.43623" lon="2.72857">
        <ele>150</ele>
        <time>2017-05-17T11:15:13.753</time>
      </trkpt>
      <trkpt lat="48.43618" lon="2.72855">
        <ele>150</ele>
        <time>2017-05-17T11:15:14.755</time>
      </trkpt>
      <trkpt lat="48.43614" lon="2.72851">
        <ele>150</ele>
        <time>2017-05-17T11:15:15.754</time>
      </trkpt>
      <trkpt lat="48.4361" lon="2.72849">
        <ele>150</ele>
        <time>2017-05-17T11:15:16.754</time>
      </trkpt>
      <trkpt lat="48.43606" lon="2.72851">
        <ele>151</ele>
        <time>2017-05-17T11:15:17.756</time>
      </trkpt>
      <trkpt lat="48.43601" lon="2.72848">
        <ele>151</ele>
        <time>2017-05-17T11:15:18.755</time>
      </trkpt>
      <trkpt lat="48.43601" lon="2.72842">
        <ele>150</ele>
        <time>2017-05-17T11:15:19.754</time>
      </trkpt>
      <trkpt lat="48.43599" lon="2.72838">
        <ele>150</ele>
        <time>2017-05-17T11:15:20.754</time>
      </trkpt>
      <trkpt lat="48.43596" lon="2.72837">
        <ele>150</ele>
        <time>2017-05-17T11:15:21.755</time>
      </trkpt>
      <trkpt lat="48.43593" lon="2.72837">
        <ele>151</ele>
        <time>2017-05-17T11:15:22.754</time>
      </trkpt>
      <trkpt lat="48.43591" lon="2.72837">
        <ele>152</ele>
        <time>2017-05-17T11:15:23.755</time>
      </trkpt>
      <trkpt lat="48.43591" lon="2.72836">
        <ele>152</ele>
        <time>2017-05-17T11:15:24.754</time>
      </trkpt>
      <trkpt lat="48.43589" lon="2.72835">
        <ele>152</ele>
        <time>2017-05-17T11:15:25.754</time>
      </trkpt>
      <trkpt lat="48.43588" lon="2.72835">
        <ele>151</ele>
        <time>2017-05-17T11:15:26.753</time>
      </trkpt>
      <trkpt lat="48.43586" lon="2.72834">
        <ele>152</ele>
        <time>2017-05-17T11:15:27.754</time>
      </trkpt>
      <trkpt lat="48.43584" lon="2.72832">
        <ele>151</ele>
        <time>2017-05-17T11:15:28.755</time>
      </trkpt>
      <trkpt lat="48.43582" lon="2.72832">
        <ele>151</ele>
        <time>2017-05-17T11:15:29.753</time>
      </trkpt>
      <trkpt lat="48.43581" lon="2.72831">
        <ele>151</ele>
        <time>2017-05-17T11:15:30.754</time>
      </trkpt>
      <trkpt lat="48.4358" lon="2.72831">
        <ele>151</ele>
        <time>2017-05-17T11:15:31.753</time>
      </trkpt>
      <trkpt lat="48.4358" lon="2.7283">
        <ele>151</ele>
        <time>2017-05-17T11:15:32.753</time>
      </trkpt>
      <trkpt lat="48.43579" lon="2.7283">
        <ele>151</ele>
        <time>2017-05-17T11:15:33.754</time>
      </trkpt>
      <trkpt lat="48.43578" lon="2.72829">
        <ele>151</ele>
        <time>2017-05-17T11:15:34.753</time>
      </trkpt>
      <trkpt lat="48.43577" lon="2.72828">
        <ele>152</ele>
        <time>2017-05-17T11:15:35.754</time>
      </trkpt>
      <trkpt lat="48.43577" lon="2.72827">
        <ele>152</ele>
        <time>2017-05-17T11:15:36.754</time>
      </trkpt>
      <trkpt lat="48.43576" lon="2.72826">
        <ele>152</ele>
        <time>2017-05-17T11:15:37.753</time>
      </trkpt>
      <trkpt lat="48.43576" lon="2.72825">
        <ele>152</ele>
        <time>2017-05-17T11:15:38.754</time>
      </trkpt>
      <trkpt lat="48.43576" lon="2.72826">
        <ele>152</ele>
        <time>2017-05-17T11:15:39.753</time>
      </trkpt>
      <trkpt lat="48.43575" lon="2.72826">
        <ele>152</ele>
        <time>2017-05-17T11:15:40.753</time>
      </trkpt>
      <trkpt lat="48.43575" lon="2.72826">
        <ele>152</ele>
        <time>2017-05-17T11:15:41.751</time>
      </trkpt>
      <trkpt lat="48.43575" lon="2.72828">
        <ele>151</ele>
        <time>2017-05-17T11:15:42.754</time>
      </trkpt>
      <trkpt lat="48.43576" lon="2.72829">
        <ele>150</ele>
        <time>2017-05-17T11:15:43.753</time>
      </trkpt>
      <trkpt lat="48.43576" lon="2.72829">
        <ele>150</ele>
        <time>2017-05-17T11:15:44.755</time>
      </trkpt>
      <trkpt lat="48.43577" lon="2.72829">
        <ele>150</ele>
        <time>2017-05-17T11:15:45.754</time>
      </trkpt>
      <trkpt lat="48.43577" lon="2.7283">
        <ele>151</ele>
        <time>2017-05-17T11:15:46.753</time>
      </trkpt>
      <trkpt lat="48.43577" lon="2.7283">
        <ele>151</ele>
        <time>2017-05-17T11:15:47.753</time>
      </trkpt>
      <trkpt lat="48.43577" lon="2.7283">
        <ele>152</ele>
        <time>2017-05-17T11:15:48.752</time>
      </trkpt>
      <trkpt lat="48.43577" lon="2.7283">
        <ele>152</ele>
        <time>2017-05-17T11:15:49.753</time>
      </trkpt>
      <trkpt lat="48.43578" lon="2.72832">
        <ele>151</ele>
        <time>2017-05-17T11:15:50.756</time>
      </trkpt>
      <trkpt lat="48.43579" lon="2.72833">
        <ele>151</ele>
        <time>2017-05-17T11:15:51.757</time>
      </trkpt>
      <trkpt lat="48.43582" lon="2.72834">
        <ele>151</ele>
        <time>2017-05-17T11:15:52.755</time>
      </trkpt>
      <trkpt lat="48.43585" lon="2.72832">
        <ele>151</ele>
        <time>2017-05-17T11:15:53.758</time>
      </trkpt>
      <trkpt lat="48.43585" lon="2.72829">
        <ele>151</ele>
        <time>2017-05-17T11:15:54.755</time>
      </trkpt>
      <trkpt lat="48.43586" lon="2.72827">
        <ele>150</ele>
        <time>2017-05-17T11:15:55.753</time>
      </trkpt>
      <trkpt lat="48.43587" lon="2.72824">
        <ele>150</ele>
        <time>2017-05-17T11:15:56.754</time>
      </trkpt>
      <trkpt lat="48.43587" lon="2.72821">
        <ele>150</ele>
        <time>2017-05-17T11:15:57.754</time>
      </trkpt>
      <trkpt lat="48.43588" lon="2.72818">
        <ele>150</ele>
        <time>2017-05-17T11:15:58.754</time>
      </trkpt>
      <trkpt lat="48.43587" lon="2.72815">
        <ele>149</ele>
        <time>2017-05-17T11:15:59.754</time>
      </trkpt>
      <trkpt lat="48.43588" lon="2.72813">
        <ele>149</ele>
        <time>2017-05-17T11:16:00.752</time>
      </trkpt>
      <trkpt lat="48.43588" lon="2.7281">
        <ele>149</ele>
        <time>2017-05-17T11:16:01.754</time>
      </trkpt>
      <trkpt lat="48.43589" lon="2.72807">
        <ele>149</ele>
        <time>2017-05-17T11:16:02.758</time>
      </trkpt>
      <trkpt lat="48.43589" lon="2.72805">
        <ele>149</ele>
        <time>2017-05-17T11:16:03.757</time>
      </trkpt>
      <trkpt lat="48.4359" lon="2.72802">
        <ele>149</ele>
        <time>2017-05-17T11:16:04.755</time>
      </trkpt>
      <trkpt lat="48.43591" lon="2.728">
        <ele>149</ele>
        <time>2017-05-17T11:16:05.754</time>
      </trkpt>
      <trkpt lat="48.4359" lon="2.72797">
        <ele>148</ele>
        <time>2017-05-17T11:16:06.754</time>
      </trkpt>
      <trkpt lat="48.4359" lon="2.72794">
        <ele>148</ele>
        <time>2017-05-17T11:16:07.754</time>
      </trkpt>
      <trkpt lat="48.43591" lon="2.72791">
        <ele>148</ele>
        <time>2017-05-17T11:16:08.753</time>
      </trkpt>
      <trkpt lat="48.43591" lon="2.72789">
        <ele>148</ele>
        <time>2017-05-17T11:16:09.754</time>
      </trkpt>
      <trkpt lat="48.43591" lon="2.72786">
        <ele>148</ele>
        <time>2017-05-17T11:16:10.752</time>
      </trkpt>
      <trkpt lat="48.43592" lon="2.72784">
        <ele>147</ele>
        <time>2017-05-17T11:16:11.753</time>
      </trkpt>
      <trkpt lat="48.43593" lon="2.72783">
        <ele>147</ele>
        <time>2017-05-17T11:16:12.753</time>
      </trkpt>
      <trkpt lat="48.43593" lon="2.7278">
        <ele>148</ele>
        <time>2017-05-17T11:16:13.753</time>
      </trkpt>
      <trkpt lat="48.43593" lon="2.72776">
        <ele>149</ele>
        <time>2017-05-17T11:16:14.754</time>
      </trkpt>
      <trkpt lat="48.43593" lon="2.72774">
        <ele>147</ele>
        <time>2017-05-17T11:16:15.755</time>
      </trkpt>
      <trkpt lat="48.43592" lon="2.72771">
        <ele>147</ele>
        <time>2017-05-17T11:16:16.753</time>
      </trkpt>
      <trkpt lat="48.43593" lon="2.72768">
        <ele>147</ele>
        <time>2017-05-17T11:16:17.753</time>
      </trkpt>
      <trkpt lat="48.43593" lon="2.72765">
        <ele>147</ele>
        <time>2017-05-17T11:16:18.753</time>
      </trkpt>
      <trkpt lat="48.43594" lon="2.72762">
        <ele>147</ele>
        <time>2017-05-17T11:16:19.753</time>
      </trkpt>
      <trkpt lat="48.43594" lon="2.72759">
        <ele>147</ele>
        <time>2017-05-17T11:16:20.753</time>
      </trkpt>
      <trkpt lat="48.43594" lon="2.72756">
        <ele>147</ele>
        <time>2017-05-17T11:16:21.754</time>
      </trkpt>
      <trkpt lat="48.43595" lon="2.72753">
        <ele>147</ele>
        <time>2017-05-17T11:16:22.755</time>
      </trkpt>
      <trkpt lat="48.43595" lon="2.7275">
        <ele>147</ele>
        <time>2017-05-17T11:16:23.755</time>
      </trkpt>
      <trkpt lat="48.43595" lon="2.72748">
        <ele>147</ele>
        <time>2017-05-17T11:16:24.755</time>
      </trkpt>
      <trkpt lat="48.43596" lon="2.72746">
        <ele>148</ele>
        <time>2017-05-17T11:16:25.754</time>
      </trkpt>
      <trkpt lat="48.43595" lon="2.72742">
        <ele>149</ele>
        <time>2017-05-17T11:16:26.753</time>
      </trkpt>
      <trkpt lat="48.43596" lon="2.7274">
        <ele>148</ele>
        <time>2017-05-17T11:16:27.753</time>
      </trkpt>
      <trkpt lat="48.43596" lon="2.72738">
        <ele>148</ele>
        <time>2017-05-17T11:16:28.752</time>
      </trkpt>
      <trkpt lat="48.43597" lon="2.72735">
        <ele>148</ele>
        <time>2017-05-17T11:16:29.753</time>
      </trkpt>
      <trkpt lat="48.43596" lon="2.72732">
        <ele>148</ele>
        <time>2017-05-17T11:16:30.757</time>
      </trkpt>
      <trkpt lat="48.43597" lon="2.72728">
        <ele>148</ele>
        <time>2017-05-17T11:16:31.756</time>
      </trkpt>
      <trkpt lat="48.43597" lon="2.72725">
        <ele>148</ele>
        <time>2017-05-17T11:16:32.756</time>
      </trkpt>
      <trkpt lat="48.43597" lon="2.72722">
        <ele>148</ele>
        <time>2017-05-17T11:16:33.755</time>
      </trkpt>
      <trkpt lat="48.43597" lon="2.72719">
        <ele>149</ele>
        <time>2017-05-17T11:16:34.755</time>
      </trkpt>
      <trkpt lat="48.43598" lon="2.72716">
        <ele>149</ele>
        <time>2017-05-17T11:16:35.765</time>
      </trkpt>
      <trkpt lat="48.43598" lon="2.72714">
        <ele>149</ele>
        <time>2017-05-17T11:16:36.765</time>
      </trkpt>
      <trkpt lat="48.43599" lon="2.72711">
        <ele>150</ele>
        <time>2017-05-17T11:16:37.766</time>
      </trkpt>
      <trkpt lat="48.43599" lon="2.72709">
        <ele>149</ele>
        <time>2017-05-17T11:16:38.758</time>
      </trkpt>
      <trkpt lat="48.43599" lon="2.72706">
        <ele>150</ele>
        <time>2017-05-17T11:16:39.765</time>
      </trkpt>
      <trkpt lat="48.43599" lon="2.72703">
        <ele>150</ele>
        <time>2017-05-17T11:16:40.775</time>
      </trkpt>
      <trkpt lat="48.43599" lon="2.72699">
        <ele>150</ele>
        <time>2017-05-17T11:16:41.775</time>
      </trkpt>
      <trkpt lat="48.43599" lon="2.72697">
        <ele>149</ele>
        <time>2017-05-17T11:16:42.772</time>
      </trkpt>
      <trkpt lat="48.43599" lon="2.72695">
        <ele>149</ele>
        <time>2017-05-17T11:16:43.755</time>
      </trkpt>
      <trkpt lat="48.43599" lon="2.72692">
        <ele>149</ele>
        <time>2017-05-17T11:16:44.754</time>
      </trkpt>
      <trkpt lat="48.43598" lon="2.72689">
        <ele>149</ele>
        <time>2017-05-17T11:16:45.754</time>
      </trkpt>
      <trkpt lat="48.43599" lon="2.72685">
        <ele>149</ele>
        <time>2017-05-17T11:16:46.753</time>
      </trkpt>
      <trkpt lat="48.43599" lon="2.72682">
        <ele>149</ele>
        <time>2017-05-17T11:16:47.754</time>
      </trkpt>
      <trkpt lat="48.436" lon="2.7268">
        <ele>149</ele>
        <time>2017-05-17T11:16:48.754</time>
      </trkpt>
      <trkpt lat="48.436" lon="2.72676">
        <ele>150</ele>
        <time>2017-05-17T11:16:49.754</time>
      </trkpt>
      <trkpt lat="48.436" lon="2.72674">
        <ele>150</ele>
        <time>2017-05-17T11:16:50.755</time>
      </trkpt>
      <trkpt lat="48.436" lon="2.72672">
        <ele>149</ele>
        <time>2017-05-17T11:16:51.753</time>
      </trkpt>
      <trkpt lat="48.436" lon="2.72669">
        <ele>149</ele>
        <time>2017-05-17T11:16:52.754</time>
      </trkpt>
      <trkpt lat="48.43601" lon="2.72666">
        <ele>150</ele>
        <time>2017-05-17T11:16:53.756</time>
      </trkpt>
      <trkpt lat="48.436" lon="2.72663">
        <ele>150</ele>
        <time>2017-05-17T11:16:54.756</time>
      </trkpt>
      <trkpt lat="48.436" lon="2.7266">
        <ele>150</ele>
        <time>2017-05-17T11:16:55.755</time>
      </trkpt>
      <trkpt lat="48.436" lon="2.72657">
        <ele>151</ele>
        <time>2017-05-17T11:16:56.755</time>
      </trkpt>
      <trkpt lat="48.43601" lon="2.72656">
        <ele>151</ele>
        <time>2017-05-17T11:16:57.756</time>
      </trkpt>
      <trkpt lat="48.43601" lon="2.72653">
        <ele>150</ele>
        <time>2017-05-17T11:16:58.755</time>
      </trkpt>
      <trkpt lat="48.43602" lon="2.7265">
        <ele>151</ele>
        <time>2017-05-17T11:16:59.753</time>
      </trkpt>
      <trkpt lat="48.43602" lon="2.72648">
        <ele>151</ele>
        <time>2017-05-17T11:17:00.754</time>
      </trkpt>
      <trkpt lat="48.43602" lon="2.72646">
        <ele>151</ele>
        <time>2017-05-17T11:17:01.754</time>
      </trkpt>
      <trkpt lat="48.43603" lon="2.72644">
        <ele>151</ele>
        <time>2017-05-17T11:17:02.755</time>
      </trkpt>
      <trkpt lat="48.43603" lon="2.7264">
        <ele>151</ele>
        <time>2017-05-17T11:17:03.754</time>
      </trkpt>
      <trkpt lat="48.43603" lon="2.72638">
        <ele>150</ele>
        <time>2017-05-17T11:17:04.756</time>
      </trkpt>
      <trkpt lat="48.43604" lon="2.72635">
        <ele>150</ele>
        <time>2017-05-17T11:17:05.756</time>
      </trkpt>
      <trkpt lat="48.43605" lon="2.72633">
        <ele>149</ele>
        <time>2017-05-17T11:17:06.756</time>
      </trkpt>
      <trkpt lat="48.43605" lon="2.7263">
        <ele>149</ele>
        <time>2017-05-17T11:17:07.754</time>
      </trkpt>
      <trkpt lat="48.43604" lon="2.72628">
        <ele>148</ele>
        <time>2017-05-17T11:17:08.757</time>
      </trkpt>
      <trkpt lat="48.43604" lon="2.72625">
        <ele>147</ele>
        <time>2017-05-17T11:17:09.755</time>
      </trkpt>
      <trkpt lat="48.43604" lon="2.72621">
        <ele>146</ele>
        <time>2017-05-17T11:17:10.755</time>
      </trkpt>
      <trkpt lat="48.43605" lon="2.72618">
        <ele>146</ele>
        <time>2017-05-17T11:17:11.755</time>
      </trkpt>
      <trkpt lat="48.43605" lon="2.72615">
        <ele>147</ele>
        <time>2017-05-17T11:17:12.755</time>
      </trkpt>
      <trkpt lat="48.43605" lon="2.7261">
        <ele>147</ele>
        <time>2017-05-17T11:17:13.755</time>
      </trkpt>
      <trkpt lat="48.43606" lon="2.72606">
        <ele>147</ele>
        <time>2017-05-17T11:17:14.755</time>
      </trkpt>
      <trkpt lat="48.43606" lon="2.72602">
        <ele>147</ele>
        <time>2017-05-17T11:17:15.754</time>
      </trkpt>
      <trkpt lat="48.43607" lon="2.72598">
        <ele>147</ele>
        <time>2017-05-17T11:17:16.755</time>
      </trkpt>
      <trkpt lat="48.43607" lon="2.72594">
        <ele>148</ele>
        <time>2017-05-17T11:17:17.755</time>
      </trkpt>
      <trkpt lat="48.43606" lon="2.72589">
        <ele>148</ele>
        <time>2017-05-17T11:17:18.756</time>
      </trkpt>
      <trkpt lat="48.43607" lon="2.72585">
        <ele>147</ele>
        <time>2017-05-17T11:17:19.756</time>
      </trkpt>
      <trkpt lat="48.43608" lon="2.72581">
        <ele>148</ele>
        <time>2017-05-17T11:17:20.755</time>
      </trkpt>
      <trkpt lat="48.43607" lon="2.72575">
        <ele>148</ele>
        <time>2017-05-17T11:17:21.755</time>
      </trkpt>
      <trkpt lat="48.43608" lon="2.7257">
        <ele>149</ele>
        <time>2017-05-17T11:17:22.757</time>
      </trkpt>
      <trkpt lat="48.43608" lon="2.72565">
        <ele>149</ele>
        <time>2017-05-17T11:17:23.756</time>
      </trkpt>
      <trkpt lat="48.43609" lon="2.72561">
        <ele>149</ele>
        <time>2017-05-17T11:17:24.756</time>
      </trkpt>
      <trkpt lat="48.4361" lon="2.72558">
        <ele>150</ele>
        <time>2017-05-17T11:17:25.755</time>
      </trkpt>
      <trkpt lat="48.43609" lon="2.72553">
        <ele>150</ele>
        <time>2017-05-17T11:17:26.755</time>
      </trkpt>
      <trkpt lat="48.43609" lon="2.72548">
        <ele>150</ele>
        <time>2017-05-17T11:17:27.754</time>
      </trkpt>
      <trkpt lat="48.43609" lon="2.72544">
        <ele>150</ele>
        <time>2017-05-17T11:17:28.754</time>
      </trkpt>
      <trkpt lat="48.43609" lon="2.72539">
        <ele>149</ele>
        <time>2017-05-17T11:17:29.754</time>
      </trkpt>
      <trkpt lat="48.43609" lon="2.72534">
        <ele>149</ele>
        <time>2017-05-17T11:17:30.754</time>
      </trkpt>
      <trkpt lat="48.43609" lon="2.7253">
        <ele>150</ele>
        <time>2017-05-17T11:17:31.754</time>
      </trkpt>
      <trkpt lat="48.4361" lon="2.72524">
        <ele>150</ele>
        <time>2017-05-17T11:17:32.756</time>
      </trkpt>
      <trkpt lat="48.43609" lon="2.72519">
        <ele>151</ele>
        <time>2017-05-17T11:17:33.754</time>
      </trkpt>
      <trkpt lat="48.43609" lon="2.72515">
        <ele>151</ele>
        <time>2017-05-17T11:17:34.755</time>
      </trkpt>
      <trkpt lat="48.4361" lon="2.72511">
        <ele>151</ele>
        <time>2017-05-17T11:17:35.757</time>
      </trkpt>
      <trkpt lat="48.43609" lon="2.72506">
        <ele>150</ele>
        <time>2017-05-17T11:17:36.755</time>
      </trkpt>
      <trkpt lat="48.4361" lon="2.725">
        <ele>151</ele>
        <time>2017-05-17T11:17:37.755</time>
      </trkpt>
      <trkpt lat="48.4361" lon="2.72496">
        <ele>152</ele>
        <time>2017-05-17T11:17:38.754</time>
      </trkpt>
      <trkpt lat="48.4361" lon="2.72492">
        <ele>151</ele>
        <time>2017-05-17T11:17:39.755</time>
      </trkpt>
      <trkpt lat="48.4361" lon="2.72487">
        <ele>151</ele>
        <time>2017-05-17T11:17:40.755</time>
      </trkpt>
      <trkpt lat="48.4361" lon="2.72483">
        <ele>151</ele>
        <time>2017-05-17T11:17:41.754</time>
      </trkpt>
      <trkpt lat="48.43611" lon="2.72478">
        <ele>151</ele>
        <time>2017-05-17T11:17:42.753</time>
      </trkpt>
      <trkpt lat="48.43612" lon="2.72475">
        <ele>151</ele>
        <time>2017-05-17T11:17:43.753</time>
      </trkpt>
      <trkpt lat="48.43612" lon="2.7247">
        <ele>151</ele>
        <time>2017-05-17T11:17:44.753</time>
      </trkpt>
      <trkpt lat="48.43612" lon="2.72466">
        <ele>151</ele>
        <time>2017-05-17T11:17:45.754</time>
      </trkpt>
      <trkpt lat="48.43613" lon="2.72461">
        <ele>151</ele>
        <time>2017-05-17T11:17:46.754</time>
      </trkpt>
      <trkpt lat="48.43613" lon="2.72456">
        <ele>151</ele>
        <time>2017-05-17T11:17:47.755</time>
      </trkpt>
      <trkpt lat="48.43614" lon="2.72452">
        <ele>150</ele>
        <time>2017-05-17T11:17:48.755</time>
      </trkpt>
      <trkpt lat="48.43614" lon="2.72446">
        <ele>151</ele>
        <time>2017-05-17T11:17:49.754</time>
      </trkpt>
      <trkpt lat="48.43615" lon="2.72442">
        <ele>151</ele>
        <time>2017-05-17T11:17:50.754</time>
      </trkpt>
      <trkpt lat="48.43616" lon="2.72436">
        <ele>151</ele>
        <time>2017-05-17T11:17:51.754</time>
      </trkpt>
      <trkpt lat="48.43617" lon="2.72431">
        <ele>151</ele>
        <time>2017-05-17T11:17:52.754</time>
      </trkpt>
      <trkpt lat="48.43617" lon="2.72426">
        <ele>151</ele>
        <time>2017-05-17T11:17:53.754</time>
      </trkpt>
      <trkpt lat="48.43618" lon="2.7242">
        <ele>151</ele>
        <time>2017-05-17T11:17:54.756</time>
      </trkpt>
      <trkpt lat="48.43619" lon="2.72414">
        <ele>151</ele>
        <time>2017-05-17T11:17:55.756</time>
      </trkpt>
      <trkpt lat="48.4362" lon="2.72409">
        <ele>151</ele>
        <time>2017-05-17T11:17:56.756</time>
      </trkpt>
      <trkpt lat="48.43622" lon="2.72404">
        <ele>150</ele>
        <time>2017-05-17T11:17:57.756</time>
      </trkpt>
      <trkpt lat="48.43624" lon="2.72399">
        <ele>150</ele>
        <time>2017-05-17T11:17:58.755</time>
      </trkpt>
      <trkpt lat="48.43625" lon="2.72393">
        <ele>150</ele>
        <time>2017-05-17T11:17:59.755</time>
      </trkpt>
      <trkpt lat="48.43627" lon="2.72389">
        <ele>150</ele>
        <time>2017-05-17T11:18:00.756</time>
      </trkpt>
      <trkpt lat="48.43628" lon="2.72385">
        <ele>150</ele>
        <time>2017-05-17T11:18:01.755</time>
      </trkpt>
      <trkpt lat="48.43628" lon="2.72381">
        <ele>150</ele>
        <time>2017-05-17T11:18:02.756</time>
      </trkpt>
      <trkpt lat="48.43628" lon="2.72378">
        <ele>149</ele>
        <time>2017-05-17T11:18:03.755</time>
      </trkpt>
      <trkpt lat="48.43627" lon="2.72374">
        <ele>150</ele>
        <time>2017-05-17T11:18:04.755</time>
      </trkpt>
      <trkpt lat="48.43627" lon="2.7237">
        <ele>150</ele>
        <time>2017-05-17T11:18:05.756</time>
      </trkpt>
      <trkpt lat="48.43625" lon="2.72369">
        <ele>150</ele>
        <time>2017-05-17T11:18:06.755</time>
      </trkpt>
      <trkpt lat="48.43623" lon="2.72367">
        <ele>149</ele>
        <time>2017-05-17T11:18:07.754</time>
      </trkpt>
      <trkpt lat="48.4362" lon="2.72364">
        <ele>149</ele>
        <time>2017-05-17T11:18:08.755</time>
      </trkpt>
      <trkpt lat="48.43618" lon="2.72364">
        <ele>149</ele>
        <time>2017-05-17T11:18:09.755</time>
      </trkpt>
      <trkpt lat="48.43615" lon="2.72364">
        <ele>149</ele>
        <time>2017-05-17T11:18:10.755</time>
      </trkpt>
      <trkpt lat="48.43612" lon="2.72364">
        <ele>150</ele>
        <time>2017-05-17T11:18:11.755</time>
      </trkpt>
      <trkpt lat="48.43609" lon="2.72364">
        <ele>151</ele>
        <time>2017-05-17T11:18:12.754</time>
      </trkpt>
      <trkpt lat="48.43606" lon="2.72364">
        <ele>150</ele>
        <time>2017-05-17T11:18:13.756</time>
      </trkpt>
      <trkpt lat="48.43603" lon="2.72364">
        <ele>150</ele>
        <time>2017-05-17T11:18:14.756</time>
      </trkpt>
      <trkpt lat="48.436" lon="2.72361">
        <ele>151</ele>
        <time>2017-05-17T11:18:15.754</time>
      </trkpt>
      <trkpt lat="48.43597" lon="2.7236">
        <ele>151</ele>
        <time>2017-05-17T11:18:16.755</time>
      </trkpt>
      <trkpt lat="48.43596" lon="2.72361">
        <ele>152</ele>
        <time>2017-05-17T11:18:17.755</time>
      </trkpt>
      <trkpt lat="48.43594" lon="2.72362">
        <ele>151</ele>
        <time>2017-05-17T11:18:18.755</time>
      </trkpt>
      <trkpt lat="48.43591" lon="2.72363">
        <ele>152</ele>
        <time>2017-05-17T11:18:19.756</time>
      </trkpt>
      <trkpt lat="48.43589" lon="2.72362">
        <ele>152</ele>
        <time>2017-05-17T11:18:20.755</time>
      </trkpt>
      <trkpt lat="48.43586" lon="2.72362">
        <ele>152</ele>
        <time>2017-05-17T11:18:21.756</time>
      </trkpt>
      <trkpt lat="48.43584" lon="2.72361">
        <ele>152</ele>
        <time>2017-05-17T11:18:22.758</time>
      </trkpt>
      <trkpt lat="48.43582" lon="2.72361">
        <ele>153</ele>
        <time>2017-05-17T11:18:23.756</time>
      </trkpt>
      <trkpt lat="48.4358" lon="2.72361">
        <ele>154</ele>
        <time>2017-05-17T11:18:24.753</time>
      </trkpt>
      <trkpt lat="48.43578" lon="2.72362">
        <ele>155</ele>
        <time>2017-05-17T11:18:25.754</time>
      </trkpt>
      <trkpt lat="48.43577" lon="2.72362">
        <ele>155</ele>
        <time>2017-05-17T11:18:26.756</time>
      </trkpt>
      <trkpt lat="48.43576" lon="2.72362">
        <ele>154</ele>
        <time>2017-05-17T11:18:27.754</time>
      </trkpt>
      <trkpt lat="48.43574" lon="2.72362">
        <ele>154</ele>
        <time>2017-05-17T11:18:28.755</time>
      </trkpt>
      <trkpt lat="48.43573" lon="2.72364">
        <ele>153</ele>
        <time>2017-05-17T11:18:29.755</time>
      </trkpt>
      <trkpt lat="48.43572" lon="2.72364">
        <ele>153</ele>
        <time>2017-05-17T11:18:30.756</time>
      </trkpt>
      <trkpt lat="48.43572" lon="2.72364">
        <ele>153</ele>
        <time>2017-05-17T11:18:31.755</time>
      </trkpt>
      <trkpt lat="48.4357" lon="2.72364">
        <ele>153</ele>
        <time>2017-05-17T11:18:32.755</time>
      </trkpt>
      <trkpt lat="48.43569" lon="2.72363">
        <ele>154</ele>
        <time>2017-05-17T11:18:33.756</time>
      </trkpt>
      <trkpt lat="48.43568" lon="2.72361">
        <ele>153</ele>
        <time>2017-05-17T11:18:34.755</time>
      </trkpt>
      <trkpt lat="48.43565" lon="2.72359">
        <ele>153</ele>
        <time>2017-05-17T11:18:35.756</time>
      </trkpt>
      <trkpt lat="48.43564" lon="2.72358">
        <ele>154</ele>
        <time>2017-05-17T11:18:36.757</time>
      </trkpt>
      <trkpt lat="48.43562" lon="2.72357">
        <ele>154</ele>
        <time>2017-05-17T11:18:37.757</time>
      </trkpt>
      <trkpt lat="48.43561" lon="2.72356">
        <ele>155</ele>
        <time>2017-05-17T11:18:38.757</time>
      </trkpt>
      <trkpt lat="48.43559" lon="2.72356">
        <ele>155</ele>
        <time>2017-05-17T11:18:39.756</time>
      </trkpt>
      <trkpt lat="48.43557" lon="2.72356">
        <ele>156</ele>
        <time>2017-05-17T11:18:40.755</time>
      </trkpt>
      <trkpt lat="48.43556" lon="2.72356">
        <ele>156</ele>
        <time>2017-05-17T11:18:41.755</time>
      </trkpt>
      <trkpt lat="48.43556" lon="2.72354">
        <ele>156</ele>
        <time>2017-05-17T11:18:42.757</time>
      </trkpt>
      <trkpt lat="48.43554" lon="2.72353">
        <ele>156</ele>
        <time>2017-05-17T11:18:43.755</time>
      </trkpt>
      <trkpt lat="48.43552" lon="2.72351">
        <ele>156</ele>
        <time>2017-05-17T11:18:44.756</time>
      </trkpt>
      <trkpt lat="48.43551" lon="2.72349">
        <ele>156</ele>
        <time>2017-05-17T11:18:45.756</time>
      </trkpt>
      <trkpt lat="48.43549" lon="2.72348">
        <ele>156</ele>
        <time>2017-05-17T11:18:46.754</time>
      </trkpt>
      <trkpt lat="48.43548" lon="2.72347">
        <ele>155</ele>
        <time>2017-05-17T11:18:47.755</time>
      </trkpt>
      <trkpt lat="48.43546" lon="2.72346">
        <ele>154</ele>
        <time>2017-05-17T11:18:48.755</time>
      </trkpt>
      <trkpt lat="48.43545" lon="2.72345">
        <ele>154</ele>
        <time>2017-05-17T11:18:49.756</time>
      </trkpt>
      <trkpt lat="48.43544" lon="2.72346">
        <ele>155</ele>
        <time>2017-05-17T11:18:50.755</time>
      </trkpt>
      <trkpt lat="48.43543" lon="2.72344">
        <ele>155</ele>
        <time>2017-05-17T11:18:51.754</time>
      </trkpt>
      <trkpt lat="48.43542" lon="2.72343">
        <ele>155</ele>
        <time>2017-05-17T11:18:52.755</time>
      </trkpt>
      <trkpt lat="48.4354" lon="2.72343">
        <ele>155</ele>
        <time>2017-05-17T11:18:53.756</time>
      </trkpt>
      <trkpt lat="48.43539" lon="2.72342">
        <ele>155</ele>
        <time>2017-05-17T11:18:54.757</time>
      </trkpt>
      <trkpt lat="48.43538" lon="2.72342">
        <ele>155</ele>
        <time>2017-05-17T11:18:55.757</time>
      </trkpt>
      <trkpt lat="48.43536" lon="2.72342">
        <ele>155</ele>
        <time>2017-05-17T11:18:56.758</time>
      </trkpt>
      <trkpt lat="48.43534" lon="2.72342">
        <ele>154</ele>
        <time>2017-05-17T11:18:57.757</time>
      </trkpt>
      <trkpt lat="48.43533" lon="2.72342">
        <ele>155</ele>
        <time>2017-05-17T11:18:58.756</time>
      </trkpt>
      <trkpt lat="48.43531" lon="2.72341">
        <ele>155</ele>
        <time>2017-05-17T11:18:59.754</time>
      </trkpt>
      <trkpt lat="48.4353" lon="2.72339">
        <ele>154</ele>
        <time>2017-05-17T11:19:00.755</time>
      </trkpt>
      <trkpt lat="48.43529" lon="2.72338">
        <ele>155</ele>
        <time>2017-05-17T11:19:01.756</time>
      </trkpt>
      <trkpt lat="48.43528" lon="2.72336">
        <ele>154</ele>
        <time>2017-05-17T11:19:02.755</time>
      </trkpt>
      <trkpt lat="48.43528" lon="2.72334">
        <ele>154</ele>
        <time>2017-05-17T11:19:03.758</time>
      </trkpt>
      <trkpt lat="48.43529" lon="2.72333">
        <ele>155</ele>
        <time>2017-05-17T11:19:04.757</time>
      </trkpt>
      <trkpt lat="48.4353" lon="2.72332">
        <ele>155</ele>
        <time>2017-05-17T11:19:05.755</time>
      </trkpt>
      <trkpt lat="48.43532" lon="2.72332">
        <ele>155</ele>
        <time>2017-05-17T11:19:06.754</time>
      </trkpt>
      <trkpt lat="48.43533" lon="2.72332">
        <ele>156</ele>
        <time>2017-05-17T11:19:07.756</time>
      </trkpt>
      <trkpt lat="48.43534" lon="2.72332">
        <ele>155</ele>
        <time>2017-05-17T11:19:08.757</time>
      </trkpt>
      <trkpt lat="48.43535" lon="2.72331">
        <ele>155</ele>
        <time>2017-05-17T11:19:09.757</time>
      </trkpt>
      <trkpt lat="48.43538" lon="2.72331">
        <ele>155</ele>
        <time>2017-05-17T11:19:10.756</time>
      </trkpt>
      <trkpt lat="48.43539" lon="2.72328">
        <ele>156</ele>
        <time>2017-05-17T11:19:11.756</time>
      </trkpt>
      <trkpt lat="48.4354" lon="2.72326">
        <ele>155</ele>
        <time>2017-05-17T11:19:12.755</time>
      </trkpt>
      <trkpt lat="48.4354" lon="2.72324">
        <ele>154</ele>
        <time>2017-05-17T11:19:13.755</time>
      </trkpt>
      <trkpt lat="48.4354" lon="2.72321">
        <ele>154</ele>
        <time>2017-05-17T11:19:14.756</time>
      </trkpt>
      <trkpt lat="48.4354" lon="2.7232">
        <ele>154</ele>
        <time>2017-05-17T11:19:15.755</time>
      </trkpt>
      <trkpt lat="48.43541" lon="2.72318">
        <ele>155</ele>
        <time>2017-05-17T11:19:16.755</time>
      </trkpt>
      <trkpt lat="48.43541" lon="2.72317">
        <ele>155</ele>
        <time>2017-05-17T11:19:17.756</time>
      </trkpt>
      <trkpt lat="48.43542" lon="2.72316">
        <ele>156</ele>
        <time>2017-05-17T11:19:18.756</time>
      </trkpt>
      <trkpt lat="48.43543" lon="2.72313">
        <ele>156</ele>
        <time>2017-05-17T11:19:19.756</time>
      </trkpt>
      <trkpt lat="48.43544" lon="2.7231">
        <ele>156</ele>
        <time>2017-05-17T11:19:20.756</time>
      </trkpt>
      <trkpt lat="48.43545" lon="2.72308">
        <ele>156</ele>
        <time>2017-05-17T11:19:21.757</time>
      </trkpt>
      <trkpt lat="48.43545" lon="2.72303">
        <ele>156</ele>
        <time>2017-05-17T11:19:22.756</time>
      </trkpt>
      <trkpt lat="48.43547" lon="2.72299">
        <ele>156</ele>
        <time>2017-05-17T11:19:23.756</time>
      </trkpt>
      <trkpt lat="48.43546" lon="2.72296">
        <ele>156</ele>
        <time>2017-05-17T11:19:24.756</time>
      </trkpt>
      <trkpt lat="48.43545" lon="2.72294">
        <ele>155</ele>
        <time>2017-05-17T11:19:25.755</time>
      </trkpt>
      <trkpt lat="48.43544" lon="2.72292">
        <ele>156</ele>
        <time>2017-05-17T11:19:26.756</time>
      </trkpt>
      <trkpt lat="48.43543" lon="2.7229">
        <ele>156</ele>
        <time>2017-05-17T11:19:27.756</time>
      </trkpt>
      <trkpt lat="48.43542" lon="2.72288">
        <ele>156</ele>
        <time>2017-05-17T11:19:28.755</time>
      </trkpt>
      <trkpt lat="48.43542" lon="2.72287">
        <ele>156</ele>
        <time>2017-05-17T11:19:29.754</time>
      </trkpt>
      <trkpt lat="48.4354" lon="2.72286">
        <ele>156</ele>
        <time>2017-05-17T11:19:30.752</time>
      </trkpt>
      <trkpt lat="48.43539" lon="2.72286">
        <ele>156</ele>
        <time>2017-05-17T11:19:31.753</time>
      </trkpt>
      <trkpt lat="48.43538" lon="2.72286">
        <ele>156</ele>
        <time>2017-05-17T11:19:32.753</time>
      </trkpt>
      <trkpt lat="48.43536" lon="2.72285">
        <ele>158</ele>
        <time>2017-05-17T11:19:33.756</time>
      </trkpt>
      <trkpt lat="48.43535" lon="2.72284">
        <ele>158</ele>
        <time>2017-05-17T11:19:34.754</time>
      </trkpt>
      <trkpt lat="48.43534" lon="2.72281">
        <ele>157</ele>
        <time>2017-05-17T11:19:35.754</time>
      </trkpt>
      <trkpt lat="48.43534" lon="2.72279">
        <ele>157</ele>
        <time>2017-05-17T11:19:36.754</time>
      </trkpt>
      <trkpt lat="48.43533" lon="2.72278">
        <ele>157</ele>
        <time>2017-05-17T11:19:37.753</time>
      </trkpt>
      <trkpt lat="48.43533" lon="2.72277">
        <ele>157</ele>
        <time>2017-05-17T11:19:38.753</time>
      </trkpt>
      <trkpt lat="48.43534" lon="2.72276">
        <ele>157</ele>
        <time>2017-05-17T11:19:39.754</time>
      </trkpt>
      <trkpt lat="48.43534" lon="2.72274">
        <ele>157</ele>
        <time>2017-05-17T11:19:40.754</time>
      </trkpt>
      <trkpt lat="48.43534" lon="2.72273">
        <ele>157</ele>
        <time>2017-05-17T11:19:41.755</time>
      </trkpt>
      <trkpt lat="48.43535" lon="2.72272">
        <ele>158</ele>
        <time>2017-05-17T11:19:42.754</time>
      </trkpt>
      <trkpt lat="48.43536" lon="2.7227">
        <ele>158</ele>
        <time>2017-05-17T11:19:43.753</time>
      </trkpt>
      <trkpt lat="48.43537" lon="2.72269">
        <ele>157</ele>
        <time>2017-05-17T11:19:44.752</time>
      </trkpt>
      <trkpt lat="48.43539" lon="2.72269">
        <ele>158</ele>
        <time>2017-05-17T11:19:45.753</time>
      </trkpt>
      <trkpt lat="48.4354" lon="2.72268">
        <ele>158</ele>
        <time>2017-05-17T11:19:46.753</time>
      </trkpt>
      <trkpt lat="48.43541" lon="2.72268">
        <ele>158</ele>
        <time>2017-05-17T11:19:47.754</time>
      </trkpt>
      <trkpt lat="48.43543" lon="2.72268">
        <ele>158</ele>
        <time>2017-05-17T11:19:48.761</time>
      </trkpt>
      <trkpt lat="48.43546" lon="2.72268">
        <ele>158</ele>
        <time>2017-05-17T11:19:49.755</time>
      </trkpt>
      <trkpt lat="48.43548" lon="2.72267">
        <ele>158</ele>
        <time>2017-05-17T11:19:50.760</time>
      </trkpt>
      <trkpt lat="48.43552" lon="2.72266">
        <ele>159</ele>
        <time>2017-05-17T11:19:51.760</time>
      </trkpt>
      <trkpt lat="48.43556" lon="2.72263">
        <ele>158</ele>
        <time>2017-05-17T11:19:52.771</time>
      </trkpt>
      <trkpt lat="48.4356" lon="2.72262">
        <ele>157</ele>
        <time>2017-05-17T11:19:53.771</time>
      </trkpt>
      <trkpt lat="48.43565" lon="2.72259">
        <ele>156</ele>
        <time>2017-05-17T11:19:54.769</time>
      </trkpt>
      <trkpt lat="48.43568" lon="2.72255">
        <ele>156</ele>
        <time>2017-05-17T11:19:55.769</time>
      </trkpt>
      <trkpt lat="48.43572" lon="2.72251">
        <ele>154</ele>
        <time>2017-05-17T11:19:56.767</time>
      </trkpt>
      <trkpt lat="48.43576" lon="2.72246">
        <ele>153</ele>
        <time>2017-05-17T11:19:57.756</time>
      </trkpt>
      <trkpt lat="48.43581" lon="2.72244">
        <ele>153</ele>
        <time>2017-05-17T11:19:58.756</time>
      </trkpt>
      <trkpt lat="48.43585" lon="2.72242">
        <ele>153</ele>
        <time>2017-05-17T11:19:59.757</time>
      </trkpt>
      <trkpt lat="48.43587" lon="2.7224">
        <ele>153</ele>
        <time>2017-05-17T11:20:00.757</time>
      </trkpt>
      <trkpt lat="48.4359" lon="2.72238">
        <ele>153</ele>
        <time>2017-05-17T11:20:01.756</time>
      </trkpt>
      <trkpt lat="48.4359" lon="2.72239">
        <ele>153</ele>
        <time>2017-05-17T11:20:02.877</time>
      </trkpt>
      <trkpt lat="48.43591" lon="2.72239">
        <ele>155</ele>
        <time>2017-05-17T11:20:03.755</time>
      </trkpt>
      <trkpt lat="48.43592" lon="2.72238">
        <ele>155</ele>
        <time>2017-05-17T11:20:04.756</time>
      </trkpt>
      <trkpt lat="48.43594" lon="2.72238">
        <ele>155</ele>
        <time>2017-05-17T11:20:05.769</time>
      </trkpt>
      <trkpt lat="48.43594" lon="2.72238">
        <ele>155</ele>
        <time>2017-05-17T11:20:06.756</time>
      </trkpt>
      <trkpt lat="48.43596" lon="2.72238">
        <ele>156</ele>
        <time>2017-05-17T11:20:07.756</time>
      </trkpt>
      <trkpt lat="48.43597" lon="2.72239">
        <ele>156</ele>
        <time>2017-05-17T11:20:08.757</time>
      </trkpt>
      <trkpt lat="48.43598" lon="2.72239">
        <ele>156</ele>
        <time>2017-05-17T11:20:09.755</time>
      </trkpt>
      <trkpt lat="48.43599" lon="2.72237">
        <ele>157</ele>
        <time>2017-05-17T11:20:10.756</time>
      </trkpt>
      <trkpt lat="48.436" lon="2.72234">
        <ele>157</ele>
        <time>2017-05-17T11:20:11.756</time>
      </trkpt>
      <trkpt lat="48.43601" lon="2.72231">
        <ele>157</ele>
        <time>2017-05-17T11:20:12.755</time>
      </trkpt>
      <trkpt lat="48.43602" lon="2.72229">
        <ele>156</ele>
        <time>2017-05-17T11:20:13.755</time>
      </trkpt>
      <trkpt lat="48.43602" lon="2.72227">
        <ele>156</ele>
        <time>2017-05-17T11:20:14.755</time>
      </trkpt>
      <trkpt lat="48.43604" lon="2.72226">
        <ele>156</ele>
        <time>2017-05-17T11:20:15.755</time>
      </trkpt>
      <trkpt lat="48.43606" lon="2.72225">
        <ele>157</ele>
        <time>2017-05-17T11:20:16.754</time>
      </trkpt>
      <trkpt lat="48.43607" lon="2.72222">
        <ele>157</ele>
        <time>2017-05-17T11:20:17.755</time>
      </trkpt>
      <trkpt lat="48.43608" lon="2.72221">
        <ele>156</ele>
        <time>2017-05-17T11:20:18.755</time>
      </trkpt>
      <trkpt lat="48.4361" lon="2.72219">
        <ele>156</ele>
        <time>2017-05-17T11:20:19.755</time>
      </trkpt>
      <trkpt lat="48.4361" lon="2.72217">
        <ele>156</ele>
        <time>2017-05-17T11:20:20.754</time>
      </trkpt>
      <trkpt lat="48.43611" lon="2.72216">
        <ele>156</ele>
        <time>2017-05-17T11:20:21.755</time>
      </trkpt>
      <trkpt lat="48.43612" lon="2.72213">
        <ele>155</ele>
        <time>2017-05-17T11:20:22.754</time>
      </trkpt>
      <trkpt lat="48.43612" lon="2.72211">
        <ele>154</ele>
        <time>2017-05-17T11:20:23.754</time>
      </trkpt>
      <trkpt lat="48.43613" lon="2.72209">
        <ele>154</ele>
        <time>2017-05-17T11:20:24.756</time>
      </trkpt>
      <trkpt lat="48.43614" lon="2.72207">
        <ele>154</ele>
        <time>2017-05-17T11:20:25.755</time>
      </trkpt>
      <trkpt lat="48.43615" lon="2.72206">
        <ele>154</ele>
        <time>2017-05-17T11:20:26.755</time>
      </trkpt>
      <trkpt lat="48.43615" lon="2.72203">
        <ele>153</ele>
        <time>2017-05-17T11:20:27.754</time>
      </trkpt>
      <trkpt lat="48.43615" lon="2.72201">
        <ele>153</ele>
        <time>2017-05-17T11:20:28.754</time>
      </trkpt>
      <trkpt lat="48.43615" lon="2.72198">
        <ele>154</ele>
        <time>2017-05-17T11:20:29.754</time>
      </trkpt>
      <trkpt lat="48.43616" lon="2.72197">
        <ele>154</ele>
        <time>2017-05-17T11:20:30.755</time>
      </trkpt>
      <trkpt lat="48.43617" lon="2.72194">
        <ele>154</ele>
        <time>2017-05-17T11:20:31.754</time>
      </trkpt>
      <trkpt lat="48.43619" lon="2.72193">
        <ele>155</ele>
        <time>2017-05-17T11:20:32.754</time>
      </trkpt>
      <trkpt lat="48.4362" lon="2.72192">
        <ele>155</ele>
        <time>2017-05-17T11:20:33.754</time>
      </trkpt>
      <trkpt lat="48.43621" lon="2.72189">
        <ele>156</ele>
        <time>2017-05-17T11:20:34.754</time>
      </trkpt>
      <trkpt lat="48.43622" lon="2.72187">
        <ele>156</ele>
        <time>2017-05-17T11:20:35.754</time>
      </trkpt>
      <trkpt lat="48.43622" lon="2.72184">
        <ele>156</ele>
        <time>2017-05-17T11:20:36.754</time>
      </trkpt>
      <trkpt lat="48.43623" lon="2.72182">
        <ele>156</ele>
        <time>2017-05-17T11:20:37.757</time>
      </trkpt>
      <trkpt lat="48.43624" lon="2.7218">
        <ele>155</ele>
        <time>2017-05-17T11:20:38.756</time>
      </trkpt>
      <trkpt lat="48.43625" lon="2.72178">
        <ele>154</ele>
        <time>2017-05-17T11:20:39.758</time>
      </trkpt>
      <trkpt lat="48.43625" lon="2.72175">
        <ele>153</ele>
        <time>2017-05-17T11:20:40.757</time>
      </trkpt>
      <trkpt lat="48.43627" lon="2.72174">
        <ele>153</ele>
        <time>2017-05-17T11:20:41.757</time>
      </trkpt>
      <trkpt lat="48.43629" lon="2.72174">
        <ele>154</ele>
        <time>2017-05-17T11:20:42.760</time>
      </trkpt>
      <trkpt lat="48.43631" lon="2.72173">
        <ele>153</ele>
        <time>2017-05-17T11:20:43.765</time>
      </trkpt>
      <trkpt lat="48.43632" lon="2.72173">
        <ele>154</ele>
        <time>2017-05-17T11:20:44.761</time>
      </trkpt>
      <trkpt lat="48.43632" lon="2.7217">
        <ele>153</ele>
        <time>2017-05-17T11:20:45.764</time>
      </trkpt>
      <trkpt lat="48.43633" lon="2.72168">
        <ele>152</ele>
        <time>2017-05-17T11:20:46.766</time>
      </trkpt>
      <trkpt lat="48.43634" lon="2.72166">
        <ele>152</ele>
        <time>2017-05-17T11:20:47.765</time>
      </trkpt>
      <trkpt lat="48.43634" lon="2.72163">
        <ele>152</ele>
        <time>2017-05-17T11:20:48.776</time>
      </trkpt>
      <trkpt lat="48.43635" lon="2.72161">
        <ele>152</ele>
        <time>2017-05-17T11:20:49.755</time>
      </trkpt>
      <trkpt lat="48.43636" lon="2.72159">
        <ele>151</ele>
        <time>2017-05-17T11:20:50.756</time>
      </trkpt>
      <trkpt lat="48.43637" lon="2.72158">
        <ele>151</ele>
        <time>2017-05-17T11:20:51.756</time>
      </trkpt>
      <trkpt lat="48.43639" lon="2.72155">
        <ele>150</ele>
        <time>2017-05-17T11:20:52.755</time>
      </trkpt>
      <trkpt lat="48.4364" lon="2.72154">
        <ele>149</ele>
        <time>2017-05-17T11:20:53.756</time>
      </trkpt>
      <trkpt lat="48.43641" lon="2.72153">
        <ele>150</ele>
        <time>2017-05-17T11:20:54.756</time>
      </trkpt>
      <trkpt lat="48.43642" lon="2.72153">
        <ele>150</ele>
        <time>2017-05-17T11:20:55.755</time>
      </trkpt>
      <trkpt lat="48.43644" lon="2.72151">
        <ele>150</ele>
        <time>2017-05-17T11:20:56.759</time>
      </trkpt>
      <trkpt lat="48.43644" lon="2.72148">
        <ele>150</ele>
        <time>2017-05-17T11:20:57.757</time>
      </trkpt>
      <trkpt lat="48.43644" lon="2.72145">
        <ele>150</ele>
        <time>2017-05-17T11:20:58.756</time>
      </trkpt>
      <trkpt lat="48.43645" lon="2.72142">
        <ele>151</ele>
        <time>2017-05-17T11:20:59.755</time>
      </trkpt>
      <trkpt lat="48.43646" lon="2.72138">
        <ele>151</ele>
        <time>2017-05-17T11:21:00.756</time>
      </trkpt>
      <trkpt lat="48.43646" lon="2.72136">
        <ele>151</ele>
        <time>2017-05-17T11:21:01.755</time>
      </trkpt>
      <trkpt lat="48.43646" lon="2.72133">
        <ele>150</ele>
        <time>2017-05-17T11:21:02.755</time>
      </trkpt>
      <trkpt lat="48.43645" lon="2.72131">
        <ele>149</ele>
        <time>2017-05-17T11:21:03.754</time>
      </trkpt>
      <trkpt lat="48.43645" lon="2.72128">
        <ele>149</ele>
        <time>2017-05-17T11:21:04.754</time>
      </trkpt>
      <trkpt lat="48.43646" lon="2.72126">
        <ele>149</ele>
        <time>2017-05-17T11:21:05.754</time>
      </trkpt>
      <trkpt lat="48.43643" lon="2.72126">
        <ele>150</ele>
        <time>2017-05-17T11:21:06.755</time>
      </trkpt>
      <trkpt lat="48.43641" lon="2.72127">
        <ele>150</ele>
        <time>2017-05-17T11:21:07.754</time>
      </trkpt>
      <trkpt lat="48.4364" lon="2.72128">
        <ele>150</ele>
        <time>2017-05-17T11:21:08.753</time>
      </trkpt>
      <trkpt lat="48.43638" lon="2.72128">
        <ele>149</ele>
        <time>2017-05-17T11:21:09.754</time>
      </trkpt>
      <trkpt lat="48.43637" lon="2.72126">
        <ele>149</ele>
        <time>2017-05-17T11:21:10.753</time>
      </trkpt>
      <trkpt lat="48.43635" lon="2.72125">
        <ele>150</ele>
        <time>2017-05-17T11:21:11.754</time>
      </trkpt>
      <trkpt lat="48.43634" lon="2.72124">
        <ele>150</ele>
        <time>2017-05-17T11:21:12.754</time>
      </trkpt>
      <trkpt lat="48.43634" lon="2.72121">
        <ele>149</ele>
        <time>2017-05-17T11:21:13.756</time>
      </trkpt>
      <trkpt lat="48.43634" lon="2.72119">
        <ele>148</ele>
        <time>2017-05-17T11:21:14.755</time>
      </trkpt>
      <trkpt lat="48.43635" lon="2.72118">
        <ele>148</ele>
        <time>2017-05-17T11:21:15.756</time>
      </trkpt>
      <trkpt lat="48.43636" lon="2.72115">
        <ele>147</ele>
        <time>2017-05-17T11:21:16.756</time>
      </trkpt>
      <trkpt lat="48.43637" lon="2.72114">
        <ele>147</ele>
        <time>2017-05-17T11:21:17.755</time>
      </trkpt>
      <trkpt lat="48.43636" lon="2.72112">
        <ele>147</ele>
        <time>2017-05-17T11:21:18.754</time>
      </trkpt>
      <trkpt lat="48.43637" lon="2.72111">
        <ele>148</ele>
        <time>2017-05-17T11:21:19.756</time>
      </trkpt>
      <trkpt lat="48.43638" lon="2.7211">
        <ele>148</ele>
        <time>2017-05-17T11:21:20.755</time>
      </trkpt>
      <trkpt lat="48.43638" lon="2.72108">
        <ele>148</ele>
        <time>2017-05-17T11:21:21.755</time>
      </trkpt>
      <trkpt lat="48.43639" lon="2.72106">
        <ele>148</ele>
        <time>2017-05-17T11:21:22.756</time>
      </trkpt>
      <trkpt lat="48.4364" lon="2.72103">
        <ele>148</ele>
        <time>2017-05-17T11:21:23.756</time>
      </trkpt>
      <trkpt lat="48.43641" lon="2.721">
        <ele>148</ele>
        <time>2017-05-17T11:21:24.756</time>
      </trkpt>
      <trkpt lat="48.43641" lon="2.72098">
        <ele>147</ele>
        <time>2017-05-17T11:21:25.756</time>
      </trkpt>
      <trkpt lat="48.43641" lon="2.72096">
        <ele>147</ele>
        <time>2017-05-17T11:21:26.755</time>
      </trkpt>
      <trkpt lat="48.43642" lon="2.72094">
        <ele>146</ele>
        <time>2017-05-17T11:21:27.755</time>
      </trkpt>
      <trkpt lat="48.43643" lon="2.72091">
        <ele>145</ele>
        <time>2017-05-17T11:21:28.754</time>
      </trkpt>
      <trkpt lat="48.43644" lon="2.72091">
        <ele>146</ele>
        <time>2017-05-17T11:21:29.756</time>
      </trkpt>
      <trkpt lat="48.43646" lon="2.7209">
        <ele>146</ele>
        <time>2017-05-17T11:21:30.757</time>
      </trkpt>
      <trkpt lat="48.43646" lon="2.7209">
        <ele>147</ele>
        <time>2017-05-17T11:21:31.755</time>
      </trkpt>
      <trkpt lat="48.43648" lon="2.7209">
        <ele>149</ele>
        <time>2017-05-17T11:21:32.757</time>
      </trkpt>
      <trkpt lat="48.4365" lon="2.72089">
        <ele>149</ele>
        <time>2017-05-17T11:21:33.757</time>
      </trkpt>
      <trkpt lat="48.43652" lon="2.72087">
        <ele>149</ele>
        <time>2017-05-17T11:21:34.756</time>
      </trkpt>
      <trkpt lat="48.43653" lon="2.72086">
        <ele>150</ele>
        <time>2017-05-17T11:21:35.754</time>
      </trkpt>
      <trkpt lat="48.43655" lon="2.72084">
        <ele>150</ele>
        <time>2017-05-17T11:21:36.758</time>
      </trkpt>
      <trkpt lat="48.43656" lon="2.7208">
        <ele>149</ele>
        <time>2017-05-17T11:21:37.755</time>
      </trkpt>
      <trkpt lat="48.43656" lon="2.72076">
        <ele>149</ele>
        <time>2017-05-17T11:21:38.754</time>
      </trkpt>
      <trkpt lat="48.43654" lon="2.72075">
        <ele>149</ele>
        <time>2017-05-17T11:21:39.755</time>
      </trkpt>
      <trkpt lat="48.43652" lon="2.72072">
        <ele>150</ele>
        <time>2017-05-17T11:21:40.755</time>
      </trkpt>
      <trkpt lat="48.4365" lon="2.7207">
        <ele>150</ele>
        <time>2017-05-17T11:21:41.755</time>
      </trkpt>
      <trkpt lat="48.43647" lon="2.72068">
        <ele>150</ele>
        <time>2017-05-17T11:21:42.755</time>
      </trkpt>
      <trkpt lat="48.43644" lon="2.72067">
        <ele>150</ele>
        <time>2017-05-17T11:21:43.754</time>
      </trkpt>
      <trkpt lat="48.43642" lon="2.72067">
        <ele>149</ele>
        <time>2017-05-17T11:21:44.758</time>
      </trkpt>
      <trkpt lat="48.43642" lon="2.72064">
        <ele>150</ele>
        <time>2017-05-17T11:21:45.758</time>
      </trkpt>
      <trkpt lat="48.43642" lon="2.72062">
        <ele>151</ele>
        <time>2017-05-17T11:21:46.756</time>
      </trkpt>
      <trkpt lat="48.43644" lon="2.72061">
        <ele>152</ele>
        <time>2017-05-17T11:21:47.756</time>
      </trkpt>
      <trkpt lat="48.43645" lon="2.72061">
        <ele>152</ele>
        <time>2017-05-17T11:21:48.755</time>
      </trkpt>
      <trkpt lat="48.43644" lon="2.7206">
        <ele>153</ele>
        <time>2017-05-17T11:21:49.756</time>
      </trkpt>
      <trkpt lat="48.43647" lon="2.72058">
        <ele>152</ele>
        <time>2017-05-17T11:21:50.756</time>
      </trkpt>
      <trkpt lat="48.43648" lon="2.72055">
        <ele>151</ele>
        <time>2017-05-17T11:21:51.756</time>
      </trkpt>
      <trkpt lat="48.43647" lon="2.72051">
        <ele>151</ele>
        <time>2017-05-17T11:21:52.756</time>
      </trkpt>
      <trkpt lat="48.43646" lon="2.72047">
        <ele>151</ele>
        <time>2017-05-17T11:21:53.756</time>
      </trkpt>
      <trkpt lat="48.43646" lon="2.72044">
        <ele>152</ele>
        <time>2017-05-17T11:21:54.755</time>
      </trkpt>
      <trkpt lat="48.43646" lon="2.72042">
        <ele>152</ele>
        <time>2017-05-17T11:21:55.756</time>
      </trkpt>
      <trkpt lat="48.43646" lon="2.72038">
        <ele>152</ele>
        <time>2017-05-17T11:21:56.756</time>
      </trkpt>
      <trkpt lat="48.43647" lon="2.72034">
        <ele>152</ele>
        <time>2017-05-17T11:21:57.755</time>
      </trkpt>
      <trkpt lat="48.43645" lon="2.72031">
        <ele>152</ele>
        <time>2017-05-17T11:21:58.756</time>
      </trkpt>
      <trkpt lat="48.43644" lon="2.7203">
        <ele>152</ele>
        <time>2017-05-17T11:21:59.756</time>
      </trkpt>
      <trkpt lat="48.43642" lon="2.72033">
        <ele>151</ele>
        <time>2017-05-17T11:22:00.755</time>
      </trkpt>
      <trkpt lat="48.43641" lon="2.72034">
        <ele>151</ele>
        <time>2017-05-17T11:22:01.755</time>
      </trkpt>
      <trkpt lat="48.43639" lon="2.72037">
        <ele>151</ele>
        <time>2017-05-17T11:22:02.756</time>
      </trkpt>
      <trkpt lat="48.43637" lon="2.72038">
        <ele>151</ele>
        <time>2017-05-17T11:22:03.757</time>
      </trkpt>
      <trkpt lat="48.43636" lon="2.72035">
        <ele>150</ele>
        <time>2017-05-17T11:22:04.756</time>
      </trkpt>
      <trkpt lat="48.43634" lon="2.72034">
        <ele>150</ele>
        <time>2017-05-17T11:22:05.756</time>
      </trkpt>
      <trkpt lat="48.43633" lon="2.72031">
        <ele>150</ele>
        <time>2017-05-17T11:22:06.755</time>
      </trkpt>
      <trkpt lat="48.43632" lon="2.72029">
        <ele>150</ele>
        <time>2017-05-17T11:22:07.753</time>
      </trkpt>
      <trkpt lat="48.43631" lon="2.72026">
        <ele>150</ele>
        <time>2017-05-17T11:22:08.754</time>
      </trkpt>
      <trkpt lat="48.4363" lon="2.72023">
        <ele>151</ele>
        <time>2017-05-17T11:22:09.755</time>
      </trkpt>
      <trkpt lat="48.4363" lon="2.72019">
        <ele>151</ele>
        <time>2017-05-17T11:22:10.754</time>
      </trkpt>
      <trkpt lat="48.43628" lon="2.72016">
        <ele>151</ele>
        <time>2017-05-17T11:22:11.755</time>
      </trkpt>
      <trkpt lat="48.43627" lon="2.72015">
        <ele>151</ele>
        <time>2017-05-17T11:22:12.756</time>
      </trkpt>
      <trkpt lat="48.43625" lon="2.72013">
        <ele>152</ele>
        <time>2017-05-17T11:22:13.756</time>
      </trkpt>
      <trkpt lat="48.43623" lon="2.7201">
        <ele>152</ele>
        <time>2017-05-17T11:22:14.755</time>
      </trkpt>
      <trkpt lat="48.43621" lon="2.72007">
        <ele>151</ele>
        <time>2017-05-17T11:22:15.754</time>
      </trkpt>
      <trkpt lat="48.4362" lon="2.72005">
        <ele>152</ele>
        <time>2017-05-17T11:22:16.753</time>
      </trkpt>
      <trkpt lat="48.43621" lon="2.72003">
        <ele>152</ele>
        <time>2017-05-17T11:22:17.756</time>
      </trkpt>
      <trkpt lat="48.43621" lon="2.72">
        <ele>151</ele>
        <time>2017-05-17T11:22:18.755</time>
      </trkpt>
      <trkpt lat="48.43621" lon="2.71998">
        <ele>153</ele>
        <time>2017-05-17T11:22:19.755</time>
      </trkpt>
      <trkpt lat="48.43622" lon="2.71995">
        <ele>152</ele>
        <time>2017-05-17T11:22:20.755</time>
      </trkpt>
      <trkpt lat="48.43622" lon="2.71992">
        <ele>152</ele>
        <time>2017-05-17T11:22:21.755</time>
      </trkpt>
      <trkpt lat="48.43622" lon="2.71989">
        <ele>152</ele>
        <time>2017-05-17T11:22:22.754</time>
      </trkpt>
      <trkpt lat="48.43622" lon="2.71985">
        <ele>152</ele>
        <time>2017-05-17T11:22:23.754</time>
      </trkpt>
      <trkpt lat="48.43624" lon="2.71983">
        <ele>152</ele>
        <time>2017-05-17T11:22:24.755</time>
      </trkpt>
      <trkpt lat="48.43625" lon="2.71982">
        <ele>152</ele>
        <time>2017-05-17T11:22:25.756</time>
      </trkpt>
      <trkpt lat="48.43624" lon="2.71982">
        <ele>153</ele>
        <time>2017-05-17T11:22:26.753</time>
      </trkpt>
      <trkpt lat="48.43624" lon="2.71981">
        <ele>154</ele>
        <time>2017-05-17T11:22:27.752</time>
      </trkpt>
      <trkpt lat="48.43625" lon="2.71981">
        <ele>154</ele>
        <time>2017-05-17T11:22:28.754</time>
      </trkpt>
      <trkpt lat="48.43625" lon="2.7198">
        <ele>154</ele>
        <time>2017-05-17T11:22:29.756</time>
      </trkpt>
      <trkpt lat="48.43626" lon="2.71979">
        <ele>154</ele>
        <time>2017-05-17T11:22:30.755</time>
      </trkpt>
      <trkpt lat="48.43625" lon="2.71979">
        <ele>154</ele>
        <time>2017-05-17T11:22:31.754</time>
      </trkpt>
      <trkpt lat="48.43626" lon="2.71979">
        <ele>154</ele>
        <time>2017-05-17T11:22:32.756</time>
      </trkpt>
      <trkpt lat="48.43626" lon="2.71979">
        <ele>155</ele>
        <time>2017-05-17T11:22:33.757</time>
      </trkpt>
      <trkpt lat="48.43626" lon="2.71979">
        <ele>156</ele>
        <time>2017-05-17T11:22:34.754</time>
      </trkpt>
      <trkpt lat="48.43626" lon="2.7198">
        <ele>156</ele>
        <time>2017-05-17T11:22:35.754</time>
      </trkpt>
      <trkpt lat="48.43627" lon="2.71979">
        <ele>155</ele>
        <time>2017-05-17T11:22:36.755</time>
      </trkpt>
      <trkpt lat="48.43627" lon="2.7198">
        <ele>155</ele>
        <time>2017-05-17T11:22:37.754</time>
      </trkpt>
      <trkpt lat="48.43627" lon="2.7198">
        <ele>155</ele>
        <time>2017-05-17T11:22:38.757</time>
      </trkpt>
      <trkpt lat="48.43627" lon="2.7198">
        <ele>155</ele>
        <time>2017-05-17T11:22:39.751</time>
      </trkpt>
      <trkpt lat="48.43627" lon="2.7198">
        <ele>155</ele>
        <time>2017-05-17T11:22:40.751</time>
      </trkpt>
      <trkpt lat="48.43626" lon="2.7198">
        <ele>155</ele>
        <time>2017-05-17T11:22:41.753</time>
      </trkpt>
      <trkpt lat="48.43626" lon="2.7198">
        <ele>155</ele>
        <time>2017-05-17T11:22:42.751</time>
      </trkpt>
      <trkpt lat="48.43626" lon="2.71981">
        <ele>155</ele>
        <time>2017-05-17T11:22:43.751</time>
      </trkpt>
      <trkpt lat="48.43627" lon="2.71981">
        <ele>154</ele>
        <time>2017-05-17T11:22:44.755</time>
      </trkpt>
      <trkpt lat="48.43626" lon="2.71981">
        <ele>155</ele>
        <time>2017-05-17T11:22:45.755</time>
      </trkpt>
      <trkpt lat="48.43626" lon="2.7198">
        <ele>156</ele>
        <time>2017-05-17T11:22:46.753</time>
      </trkpt>
      <trkpt lat="48.43626" lon="2.7198">
        <ele>156</ele>
        <time>2017-05-17T11:22:47.756</time>
      </trkpt>
      <trkpt lat="48.43626" lon="2.7198">
        <ele>156</ele>
        <time>2017-05-17T11:22:48.753</time>
      </trkpt>
      <trkpt lat="48.43626" lon="2.7198">
        <ele>156</ele>
        <time>2017-05-17T11:22:49.753</time>
      </trkpt>
      <trkpt lat="48.43626" lon="2.71979">
        <ele>157</ele>
        <time>2017-05-17T11:22:50.759</time>
      </trkpt>
      <trkpt lat="48.43625" lon="2.71979">
        <ele>156</ele>
        <time>2017-05-17T11:22:51.757</time>
      </trkpt>
      <trkpt lat="48.43625" lon="2.71979">
        <ele>156</ele>
        <time>2017-05-17T11:22:52.755</time>
      </trkpt>
      <trkpt lat="48.43625" lon="2.71979">
        <ele>156</ele>
        <time>2017-05-17T11:22:53.751</time>
      </trkpt>
      <trkpt lat="48.43625" lon="2.71979">
        <ele>157</ele>
        <time>2017-05-17T11:22:54.756</time>
      </trkpt>
      <trkpt lat="48.43625" lon="2.7198">
        <ele>157</ele>
        <time>2017-05-17T11:22:55.752</time>
      </trkpt>
      <trkpt lat="48.43625" lon="2.7198">
        <ele>157</ele>
        <time>2017-05-17T11:22:56.750</time>
      </trkpt>
      <trkpt lat="48.43625" lon="2.7198">
        <ele>157</ele>
        <time>2017-05-17T11:22:58.264</time>
      </trkpt>
      <trkpt lat="48.43625" lon="2.7198">
        <ele>157</ele>
        <time>2017-05-17T11:22:58.762</time>
      </trkpt>
      <trkpt lat="48.43625" lon="2.7198">
        <ele>157</ele>
        <time>2017-05-17T11:22:59.760</time>
      </trkpt>
      <trkpt lat="48.43625" lon="2.7198">
        <ele>157</ele>
        <time>2017-05-17T11:23:00.758</time>
      </trkpt>
      <trkpt lat="48.43625" lon="2.7198">
        <ele>157</ele>
        <time>2017-05-17T11:23:01.759</time>
      </trkpt>
      <trkpt lat="48.43625" lon="2.7198">
        <ele>157</ele>
        <time>2017-05-17T11:23:02.758</time>
      </trkpt>
      <trkpt lat="48.43625" lon="2.7198">
        <ele>157</ele>
        <time>2017-05-17T11:23:03.758</time>
      </trkpt>
      <trkpt lat="48.43625" lon="2.7198">
        <ele>157</ele>
        <time>2017-05-17T11:23:04.760</time>
      </trkpt>
      <trkpt lat="48.43625" lon="2.7198">
        <ele>157</ele>
        <time>2017-05-17T11:23:05.759</time>
      </trkpt>
      <trkpt lat="48.43625" lon="2.7198">
        <ele>157</ele>
        <time>2017-05-17T11:23:06.758</time>
      </trkpt>
      <trkpt lat="48.43625" lon="2.7198">
        <ele>157</ele>
        <time>2017-05-17T11:23:07.758</time>
      </trkpt>
      <trkpt lat="48.43625" lon="2.7198">
        <ele>157</ele>
        <time>2017-05-17T11:23:08.758</time>
      </trkpt>
      <trkpt lat="48.43625" lon="2.7198">
        <ele>157</ele>
        <time>2017-05-17T11:23:09.753</time>
      </trkpt>
      <trkpt lat="48.43625" lon="2.7198">
        <ele>157</ele>
        <time>2017-05-17T11:23:10.752</time>
      </trkpt>
      <trkpt lat="48.43625" lon="2.7198">
        <ele>157</ele>
        <time>2017-05-17T11:23:11.752</time>
      </trkpt>
      <trkpt lat="48.43625" lon="2.7198">
        <ele>157</ele>
        <time>2017-05-17T11:23:12.753</time>
      </trkpt>
      <trkpt lat="48.43625" lon="2.7198">
        <ele>157</ele>
        <time>2017-05-17T11:23:13.752</time>
      </trkpt>
      <trkpt lat="48.43626" lon="2.7198">
        <ele>157</ele>
        <time>2017-05-17T11:23:14.754</time>
      </trkpt>
      <trkpt lat="48.43626" lon="2.71978">
        <ele>158</ele>
        <time>2017-05-17T11:23:15.755</time>
      </trkpt>
      <trkpt lat="48.43627" lon="2.71977">
        <ele>158</ele>
        <time>2017-05-17T11:23:16.757</time>
      </trkpt>
      <trkpt lat="48.43629" lon="2.71977">
        <ele>158</ele>
        <time>2017-05-17T11:23:17.756</time>
      </trkpt>
      <trkpt lat="48.43631" lon="2.71978">
        <ele>158</ele>
        <time>2017-05-17T11:23:18.755</time>
      </trkpt>
      <trkpt lat="48.43632" lon="2.71977">
        <ele>157</ele>
        <time>2017-05-17T11:23:19.756</time>
      </trkpt>
      <trkpt lat="48.43634" lon="2.71978">
        <ele>158</ele>
        <time>2017-05-17T11:23:20.755</time>
      </trkpt>
      <trkpt lat="48.43635" lon="2.71976">
        <ele>158</ele>
        <time>2017-05-17T11:23:21.755</time>
      </trkpt>
      <trkpt lat="48.43637" lon="2.71973">
        <ele>157</ele>
        <time>2017-05-17T11:23:22.756</time>
      </trkpt>
      <trkpt lat="48.43638" lon="2.71968">
        <ele>157</ele>
        <time>2017-05-17T11:23:23.756</time>
      </trkpt>
      <trkpt lat="48.43637" lon="2.71964">
        <ele>156</ele>
        <time>2017-05-17T11:23:24.755</time>
      </trkpt>
      <trkpt lat="48.43638" lon="2.7196">
        <ele>155</ele>
        <time>2017-05-17T11:23:25.753</time>
      </trkpt>
      <trkpt lat="48.43638" lon="2.71957">
        <ele>154</ele>
        <time>2017-05-17T11:23:26.754</time>
      </trkpt>
      <trkpt lat="48.4364" lon="2.71953">
        <ele>154</ele>
        <time>2017-05-17T11:23:27.754</time>
      </trkpt>
      <trkpt lat="48.43642" lon="2.7195">
        <ele>153</ele>
        <time>2017-05-17T11:23:28.756</time>
      </trkpt>
      <trkpt lat="48.43642" lon="2.71947">
        <ele>153</ele>
        <time>2017-05-17T11:23:29.755</time>
      </trkpt>
      <trkpt lat="48.43644" lon="2.71942">
        <ele>153</ele>
        <time>2017-05-17T11:23:30.757</time>
      </trkpt>
      <trkpt lat="48.43645" lon="2.71937">
        <ele>152</ele>
        <time>2017-05-17T11:23:31.755</time>
      </trkpt>
      <trkpt lat="48.43646" lon="2.71932">
        <ele>153</ele>
        <time>2017-05-17T11:23:32.755</time>
      </trkpt>
      <trkpt lat="48.43647" lon="2.71928">
        <ele>153</ele>
        <time>2017-05-17T11:23:33.757</time>
      </trkpt>
      <trkpt lat="48.43648" lon="2.71925">
        <ele>153</ele>
        <time>2017-05-17T11:23:34.756</time>
      </trkpt>
      <trkpt lat="48.4365" lon="2.71921">
        <ele>153</ele>
        <time>2017-05-17T11:23:35.755</time>
      </trkpt>
      <trkpt lat="48.43651" lon="2.71918">
        <ele>153</ele>
        <time>2017-05-17T11:23:36.754</time>
      </trkpt>
      <trkpt lat="48.43653" lon="2.71916">
        <ele>152</ele>
        <time>2017-05-17T11:23:37.755</time>
      </trkpt>
      <trkpt lat="48.43657" lon="2.71915">
        <ele>152</ele>
        <time>2017-05-17T11:23:38.754</time>
      </trkpt>
      <trkpt lat="48.4366" lon="2.71915">
        <ele>151</ele>
        <time>2017-05-17T11:23:39.755</time>
      </trkpt>
      <trkpt lat="48.43662" lon="2.71914">
        <ele>152</ele>
        <time>2017-05-17T11:23:40.755</time>
      </trkpt>
      <trkpt lat="48.43665" lon="2.71911">
        <ele>151</ele>
        <time>2017-05-17T11:23:41.754</time>
      </trkpt>
      <trkpt lat="48.43667" lon="2.71909">
        <ele>152</ele>
        <time>2017-05-17T11:23:42.756</time>
      </trkpt>
      <trkpt lat="48.4367" lon="2.71904">
        <ele>153</ele>
        <time>2017-05-17T11:23:43.756</time>
      </trkpt>
      <trkpt lat="48.43671" lon="2.71899">
        <ele>152</ele>
        <time>2017-05-17T11:23:44.762</time>
      </trkpt>
      <trkpt lat="48.43673" lon="2.71896">
        <ele>152</ele>
        <time>2017-05-17T11:23:45.761</time>
      </trkpt>
      <trkpt lat="48.43674" lon="2.71895">
        <ele>152</ele>
        <time>2017-05-17T11:23:46.759</time>
      </trkpt>
      <trkpt lat="48.43677" lon="2.71894">
        <ele>153</ele>
        <time>2017-05-17T11:23:47.760</time>
      </trkpt>
      <trkpt lat="48.43679" lon="2.71891">
        <ele>152</ele>
        <time>2017-05-17T11:23:48.761</time>
      </trkpt>
      <trkpt lat="48.43681" lon="2.71887">
        <ele>152</ele>
        <time>2017-05-17T11:23:49.760</time>
      </trkpt>
      <trkpt lat="48.43682" lon="2.71885">
        <ele>152</ele>
        <time>2017-05-17T11:23:50.761</time>
      </trkpt>
      <trkpt lat="48.43684" lon="2.71883">
        <ele>153</ele>
        <time>2017-05-17T11:23:51.774</time>
      </trkpt>
      <trkpt lat="48.43686" lon="2.71882">
        <ele>153</ele>
        <time>2017-05-17T11:23:52.765</time>
      </trkpt>
      <trkpt lat="48.4369" lon="2.71879">
        <ele>153</ele>
        <time>2017-05-17T11:23:53.766</time>
      </trkpt>
      <trkpt lat="48.43694" lon="2.71879">
        <ele>154</ele>
        <time>2017-05-17T11:23:54.765</time>
      </trkpt>
      <trkpt lat="48.43696" lon="2.71879">
        <ele>155</ele>
        <time>2017-05-17T11:23:55.755</time>
      </trkpt>
      <trkpt lat="48.43699" lon="2.71878">
        <ele>155</ele>
        <time>2017-05-17T11:23:56.755</time>
      </trkpt>
      <trkpt lat="48.43702" lon="2.71878">
        <ele>156</ele>
        <time>2017-05-17T11:23:57.755</time>
      </trkpt>
      <trkpt lat="48.43704" lon="2.71877">
        <ele>155</ele>
        <time>2017-05-17T11:23:58.755</time>
      </trkpt>
      <trkpt lat="48.43707" lon="2.71876">
        <ele>155</ele>
        <time>2017-05-17T11:23:59.755</time>
      </trkpt>
      <trkpt lat="48.43711" lon="2.71873">
        <ele>153</ele>
        <time>2017-05-17T11:24:00.852</time>
      </trkpt>
      <trkpt lat="48.43711" lon="2.71867">
        <ele>152</ele>
        <time>2017-05-17T11:24:01.758</time>
      </trkpt>
      <trkpt lat="48.43711" lon="2.71863">
        <ele>152</ele>
        <time>2017-05-17T11:24:02.756</time>
      </trkpt>
      <trkpt lat="48.43714" lon="2.71858">
        <ele>152</ele>
        <time>2017-05-17T11:24:03.759</time>
      </trkpt>
      <trkpt lat="48.43715" lon="2.71852">
        <ele>152</ele>
        <time>2017-05-17T11:24:04.756</time>
      </trkpt>
      <trkpt lat="48.43716" lon="2.71846">
        <ele>151</ele>
        <time>2017-05-17T11:24:05.757</time>
      </trkpt>
      <trkpt lat="48.43717" lon="2.71841">
        <ele>151</ele>
        <time>2017-05-17T11:24:06.756</time>
      </trkpt>
      <trkpt lat="48.43718" lon="2.71836">
        <ele>151</ele>
        <time>2017-05-17T11:24:07.756</time>
      </trkpt>
      <trkpt lat="48.43719" lon="2.71831">
        <ele>151</ele>
        <time>2017-05-17T11:24:08.756</time>
      </trkpt>
      <trkpt lat="48.4372" lon="2.71827">
        <ele>149</ele>
        <time>2017-05-17T11:24:09.757</time>
      </trkpt>
      <trkpt lat="48.43721" lon="2.71822">
        <ele>149</ele>
        <time>2017-05-17T11:24:10.754</time>
      </trkpt>
      <trkpt lat="48.43723" lon="2.71817">
        <ele>149</ele>
        <time>2017-05-17T11:24:11.756</time>
      </trkpt>
      <trkpt lat="48.43724" lon="2.71811">
        <ele>149</ele>
        <time>2017-05-17T11:24:12.755</time>
      </trkpt>
      <trkpt lat="48.43724" lon="2.71804">
        <ele>149</ele>
        <time>2017-05-17T11:24:13.756</time>
      </trkpt>
      <trkpt lat="48.43725" lon="2.71798">
        <ele>149</ele>
        <time>2017-05-17T11:24:14.756</time>
      </trkpt>
      <trkpt lat="48.43727" lon="2.71792">
        <ele>149</ele>
        <time>2017-05-17T11:24:15.754</time>
      </trkpt>
      <trkpt lat="48.43728" lon="2.71786">
        <ele>150</ele>
        <time>2017-05-17T11:24:16.755</time>
      </trkpt>
      <trkpt lat="48.43728" lon="2.71779">
        <ele>150</ele>
        <time>2017-05-17T11:24:17.755</time>
      </trkpt>
      <trkpt lat="48.43729" lon="2.71771">
        <ele>150</ele>
        <time>2017-05-17T11:24:18.754</time>
      </trkpt>
      <trkpt lat="48.43729" lon="2.71765">
        <ele>150</ele>
        <time>2017-05-17T11:24:19.756</time>
      </trkpt>
      <trkpt lat="48.4373" lon="2.71759">
        <ele>150</ele>
        <time>2017-05-17T11:24:20.756</time>
      </trkpt>
      <trkpt lat="48.43731" lon="2.71753">
        <ele>150</ele>
        <time>2017-05-17T11:24:21.755</time>
      </trkpt>
      <trkpt lat="48.43733" lon="2.71747">
        <ele>150</ele>
        <time>2017-05-17T11:24:22.756</time>
      </trkpt>
      <trkpt lat="48.43733" lon="2.71739">
        <ele>151</ele>
        <time>2017-05-17T11:24:23.755</time>
      </trkpt>
      <trkpt lat="48.43733" lon="2.71733">
        <ele>150</ele>
        <time>2017-05-17T11:24:24.755</time>
      </trkpt>
      <trkpt lat="48.43734" lon="2.71726">
        <ele>150</ele>
        <time>2017-05-17T11:24:25.754</time>
      </trkpt>
      <trkpt lat="48.43735" lon="2.71719">
        <ele>150</ele>
        <time>2017-05-17T11:24:26.757</time>
      </trkpt>
      <trkpt lat="48.43735" lon="2.71712">
        <ele>150</ele>
        <time>2017-05-17T11:24:27.756</time>
      </trkpt>
      <trkpt lat="48.43736" lon="2.71704">
        <ele>150</ele>
        <time>2017-05-17T11:24:28.757</time>
      </trkpt>
      <trkpt lat="48.43738" lon="2.71698">
        <ele>150</ele>
        <time>2017-05-17T11:24:29.756</time>
      </trkpt>
      <trkpt lat="48.43738" lon="2.71692">
        <ele>149</ele>
        <time>2017-05-17T11:24:30.755</time>
      </trkpt>
      <trkpt lat="48.43739" lon="2.71684">
        <ele>149</ele>
        <time>2017-05-17T11:24:31.754</time>
      </trkpt>
      <trkpt lat="48.43739" lon="2.71677">
        <ele>149</ele>
        <time>2017-05-17T11:24:32.754</time>
      </trkpt>
      <trkpt lat="48.4374" lon="2.7167">
        <ele>148</ele>
        <time>2017-05-17T11:24:33.757</time>
      </trkpt>
      <trkpt lat="48.43741" lon="2.71662">
        <ele>148</ele>
        <time>2017-05-17T11:24:34.756</time>
      </trkpt>
      <trkpt lat="48.43742" lon="2.71655">
        <ele>149</ele>
        <time>2017-05-17T11:24:35.755</time>
      </trkpt>
      <trkpt lat="48.43743" lon="2.71648">
        <ele>149</ele>
        <time>2017-05-17T11:24:36.754</time>
      </trkpt>
      <trkpt lat="48.43743" lon="2.71641">
        <ele>149</ele>
        <time>2017-05-17T11:24:37.754</time>
      </trkpt>
      <trkpt lat="48.43744" lon="2.71635">
        <ele>149</ele>
        <time>2017-05-17T11:24:38.755</time>
      </trkpt>
      <trkpt lat="48.43745" lon="2.71628">
        <ele>149</ele>
        <time>2017-05-17T11:24:39.755</time>
      </trkpt>
      <trkpt lat="48.43745" lon="2.71622">
        <ele>149</ele>
        <time>2017-05-17T11:24:40.756</time>
      </trkpt>
      <trkpt lat="48.43747" lon="2.71616">
        <ele>148</ele>
        <time>2017-05-17T11:24:41.755</time>
      </trkpt>
      <trkpt lat="48.43747" lon="2.71609">
        <ele>149</ele>
        <time>2017-05-17T11:24:42.755</time>
      </trkpt>
      <trkpt lat="48.43748" lon="2.71603">
        <ele>149</ele>
        <time>2017-05-17T11:24:43.755</time>
      </trkpt>
      <trkpt lat="48.43749" lon="2.71596">
        <ele>149</ele>
        <time>2017-05-17T11:24:44.756</time>
      </trkpt>
      <trkpt lat="48.4375" lon="2.71589">
        <ele>149</ele>
        <time>2017-05-17T11:24:45.756</time>
      </trkpt>
      <trkpt lat="48.43752" lon="2.71583">
        <ele>149</ele>
        <time>2017-05-17T11:24:46.755</time>
      </trkpt>
      <trkpt lat="48.43753" lon="2.71577">
        <ele>148</ele>
        <time>2017-05-17T11:24:47.757</time>
      </trkpt>
      <trkpt lat="48.43754" lon="2.71571">
        <ele>148</ele>
        <time>2017-05-17T11:24:48.756</time>
      </trkpt>
      <trkpt lat="48.43754" lon="2.71565">
        <ele>148</ele>
        <time>2017-05-17T11:24:49.755</time>
      </trkpt>
      <trkpt lat="48.43756" lon="2.71559">
        <ele>148</ele>
        <time>2017-05-17T11:24:50.754</time>
      </trkpt>
      <trkpt lat="48.43757" lon="2.71553">
        <ele>148</ele>
        <time>2017-05-17T11:24:51.754</time>
      </trkpt>
      <trkpt lat="48.43757" lon="2.71547">
        <ele>148</ele>
        <time>2017-05-17T11:24:52.755</time>
      </trkpt>
      <trkpt lat="48.43758" lon="2.71542">
        <ele>148</ele>
        <time>2017-05-17T11:24:53.755</time>
      </trkpt>
      <trkpt lat="48.43758" lon="2.71537">
        <ele>148</ele>
        <time>2017-05-17T11:24:54.757</time>
      </trkpt>
      <trkpt lat="48.43758" lon="2.71531">
        <ele>149</ele>
        <time>2017-05-17T11:24:55.755</time>
      </trkpt>
      <trkpt lat="48.43758" lon="2.71526">
        <ele>149</ele>
        <time>2017-05-17T11:24:56.755</time>
      </trkpt>
      <trkpt lat="48.43758" lon="2.71523">
        <ele>149</ele>
        <time>2017-05-17T11:24:57.756</time>
      </trkpt>
      <trkpt lat="48.43759" lon="2.71521">
        <ele>149</ele>
        <time>2017-05-17T11:24:58.755</time>
      </trkpt>
      <trkpt lat="48.43759" lon="2.71519">
        <ele>150</ele>
        <time>2017-05-17T11:24:59.755</time>
      </trkpt>
      <trkpt lat="48.43759" lon="2.71517">
        <ele>150</ele>
        <time>2017-05-17T11:25:00.755</time>
      </trkpt>
      <trkpt lat="48.4376" lon="2.71515">
        <ele>150</ele>
        <time>2017-05-17T11:25:01.755</time>
      </trkpt>
      <trkpt lat="48.4376" lon="2.71512">
        <ele>150</ele>
        <time>2017-05-17T11:25:02.755</time>
      </trkpt>
      <trkpt lat="48.4376" lon="2.7151">
        <ele>150</ele>
        <time>2017-05-17T11:25:03.755</time>
      </trkpt>
      <trkpt lat="48.4376" lon="2.71507">
        <ele>149</ele>
        <time>2017-05-17T11:25:04.754</time>
      </trkpt>
      <trkpt lat="48.43761" lon="2.71504">
        <ele>150</ele>
        <time>2017-05-17T11:25:05.757</time>
      </trkpt>
      <trkpt lat="48.43762" lon="2.71502">
        <ele>150</ele>
        <time>2017-05-17T11:25:06.757</time>
      </trkpt>
      <trkpt lat="48.43763" lon="2.71499">
        <ele>149</ele>
        <time>2017-05-17T11:25:07.755</time>
      </trkpt>
      <trkpt lat="48.43763" lon="2.71495">
        <ele>150</ele>
        <time>2017-05-17T11:25:08.755</time>
      </trkpt>
      <trkpt lat="48.43763" lon="2.71491">
        <ele>150</ele>
        <time>2017-05-17T11:25:09.756</time>
      </trkpt>
      <trkpt lat="48.43764" lon="2.71486">
        <ele>149</ele>
        <time>2017-05-17T11:25:10.755</time>
      </trkpt>
      <trkpt lat="48.43765" lon="2.71482">
        <ele>149</ele>
        <time>2017-05-17T11:25:11.755</time>
      </trkpt>
      <trkpt lat="48.43766" lon="2.71476">
        <ele>149</ele>
        <time>2017-05-17T11:25:12.756</time>
      </trkpt>
      <trkpt lat="48.43767" lon="2.71471">
        <ele>148</ele>
        <time>2017-05-17T11:25:13.755</time>
      </trkpt>
      <trkpt lat="48.43767" lon="2.71465">
        <ele>148</ele>
        <time>2017-05-17T11:25:14.754</time>
      </trkpt>
      <trkpt lat="48.43768" lon="2.71459">
        <ele>148</ele>
        <time>2017-05-17T11:25:15.753</time>
      </trkpt>
      <trkpt lat="48.43768" lon="2.71453">
        <ele>147</ele>
        <time>2017-05-17T11:25:16.754</time>
      </trkpt>
      <trkpt lat="48.43768" lon="2.71447">
        <ele>147</ele>
        <time>2017-05-17T11:25:17.754</time>
      </trkpt>
      <trkpt lat="48.43769" lon="2.71441">
        <ele>147</ele>
        <time>2017-05-17T11:25:18.756</time>
      </trkpt>
      <trkpt lat="48.43769" lon="2.71434">
        <ele>147</ele>
        <time>2017-05-17T11:25:19.755</time>
      </trkpt>
      <trkpt lat="48.43771" lon="2.71428">
        <ele>147</ele>
        <time>2017-05-17T11:25:20.755</time>
      </trkpt>
      <trkpt lat="48.43771" lon="2.71422">
        <ele>146</ele>
        <time>2017-05-17T11:25:21.756</time>
      </trkpt>
      <trkpt lat="48.43771" lon="2.71415">
        <ele>147</ele>
        <time>2017-05-17T11:25:22.755</time>
      </trkpt>
      <trkpt lat="48.43772" lon="2.71409">
        <ele>147</ele>
        <time>2017-05-17T11:25:23.756</time>
      </trkpt>
      <trkpt lat="48.43773" lon="2.71402">
        <ele>147</ele>
        <time>2017-05-17T11:25:24.755</time>
      </trkpt>
      <trkpt lat="48.43774" lon="2.71395">
        <ele>146</ele>
        <time>2017-05-17T11:25:25.754</time>
      </trkpt>
      <trkpt lat="48.43775" lon="2.71389">
        <ele>146</ele>
        <time>2017-05-17T11:25:26.753</time>
      </trkpt>
      <trkpt lat="48.43776" lon="2.71382">
        <ele>146</ele>
        <time>2017-05-17T11:25:27.753</time>
      </trkpt>
      <trkpt lat="48.43777" lon="2.71375">
        <ele>146</ele>
        <time>2017-05-17T11:25:28.753</time>
      </trkpt>
      <trkpt lat="48.43778" lon="2.71368">
        <ele>147</ele>
        <time>2017-05-17T11:25:29.755</time>
      </trkpt>
      <trkpt lat="48.43779" lon="2.71362">
        <ele>147</ele>
        <time>2017-05-17T11:25:30.757</time>
      </trkpt>
      <trkpt lat="48.4378" lon="2.71354">
        <ele>147</ele>
        <time>2017-05-17T11:25:31.753</time>
      </trkpt>
      <trkpt lat="48.4378" lon="2.71348">
        <ele>147</ele>
        <time>2017-05-17T11:25:32.756</time>
      </trkpt>
      <trkpt lat="48.43781" lon="2.7134">
        <ele>146</ele>
        <time>2017-05-17T11:25:33.755</time>
      </trkpt>
      <trkpt lat="48.43782" lon="2.71333">
        <ele>146</ele>
        <time>2017-05-17T11:25:34.754</time>
      </trkpt>
      <trkpt lat="48.43783" lon="2.71325">
        <ele>146</ele>
        <time>2017-05-17T11:25:35.755</time>
      </trkpt>
      <trkpt lat="48.43784" lon="2.71318">
        <ele>146</ele>
        <time>2017-05-17T11:25:36.754</time>
      </trkpt>
      <trkpt lat="48.43784" lon="2.71311">
        <ele>146</ele>
        <time>2017-05-17T11:25:37.754</time>
      </trkpt>
      <trkpt lat="48.43785" lon="2.71303">
        <ele>147</ele>
        <time>2017-05-17T11:25:38.754</time>
      </trkpt>
      <trkpt lat="48.43787" lon="2.71295">
        <ele>148</ele>
        <time>2017-05-17T11:25:39.754</time>
      </trkpt>
      <trkpt lat="48.43787" lon="2.71287">
        <ele>149</ele>
        <time>2017-05-17T11:25:40.754</time>
      </trkpt>
      <trkpt lat="48.43789" lon="2.7128">
        <ele>150</ele>
        <time>2017-05-17T11:25:41.755</time>
      </trkpt>
      <trkpt lat="48.4379" lon="2.71274">
        <ele>150</ele>
        <time>2017-05-17T11:25:42.758</time>
      </trkpt>
      <trkpt lat="48.4379" lon="2.71266">
        <ele>150</ele>
        <time>2017-05-17T11:25:43.756</time>
      </trkpt>
      <trkpt lat="48.43791" lon="2.71259">
        <ele>151</ele>
        <time>2017-05-17T11:25:44.755</time>
      </trkpt>
      <trkpt lat="48.43792" lon="2.71253">
        <ele>151</ele>
        <time>2017-05-17T11:25:45.755</time>
      </trkpt>
      <trkpt lat="48.43793" lon="2.71248">
        <ele>151</ele>
        <time>2017-05-17T11:25:46.754</time>
      </trkpt>
      <trkpt lat="48.43793" lon="2.71243">
        <ele>151</ele>
        <time>2017-05-17T11:25:47.755</time>
      </trkpt>
      <trkpt lat="48.43794" lon="2.71239">
        <ele>151</ele>
        <time>2017-05-17T11:25:48.755</time>
      </trkpt>
      <trkpt lat="48.43794" lon="2.71233">
        <ele>152</ele>
        <time>2017-05-17T11:25:49.754</time>
      </trkpt>
      <trkpt lat="48.43795" lon="2.71229">
        <ele>152</ele>
        <time>2017-05-17T11:25:50.755</time>
      </trkpt>
      <trkpt lat="48.43796" lon="2.71224">
        <ele>153</ele>
        <time>2017-05-17T11:25:51.756</time>
      </trkpt>
      <trkpt lat="48.43798" lon="2.71221">
        <ele>153</ele>
        <time>2017-05-17T11:25:52.756</time>
      </trkpt>
      <trkpt lat="48.43799" lon="2.71218">
        <ele>152</ele>
        <time>2017-05-17T11:25:53.755</time>
      </trkpt>
      <trkpt lat="48.43801" lon="2.71215">
        <ele>153</ele>
        <time>2017-05-17T11:25:54.754</time>
      </trkpt>
      <trkpt lat="48.43802" lon="2.71211">
        <ele>152</ele>
        <time>2017-05-17T11:25:55.754</time>
      </trkpt>
      <trkpt lat="48.43802" lon="2.71207">
        <ele>152</ele>
        <time>2017-05-17T11:25:56.754</time>
      </trkpt>
      <trkpt lat="48.43803" lon="2.71204">
        <ele>152</ele>
        <time>2017-05-17T11:25:57.753</time>
      </trkpt>
      <trkpt lat="48.43803" lon="2.712">
        <ele>152</ele>
        <time>2017-05-17T11:25:58.754</time>
      </trkpt>
      <trkpt lat="48.43804" lon="2.71197">
        <ele>153</ele>
        <time>2017-05-17T11:25:59.754</time>
      </trkpt>
      <trkpt lat="48.43804" lon="2.71194">
        <ele>153</ele>
        <time>2017-05-17T11:26:00.754</time>
      </trkpt>
      <trkpt lat="48.43805" lon="2.71191">
        <ele>153</ele>
        <time>2017-05-17T11:26:01.754</time>
      </trkpt>
      <trkpt lat="48.43805" lon="2.71187">
        <ele>153</ele>
        <time>2017-05-17T11:26:02.754</time>
      </trkpt>
      <trkpt lat="48.43806" lon="2.71183">
        <ele>153</ele>
        <time>2017-05-17T11:26:03.754</time>
      </trkpt>
      <trkpt lat="48.43807" lon="2.71179">
        <ele>153</ele>
        <time>2017-05-17T11:26:04.755</time>
      </trkpt>
      <trkpt lat="48.43807" lon="2.71176">
        <ele>153</ele>
        <time>2017-05-17T11:26:05.754</time>
      </trkpt>
      <trkpt lat="48.43806" lon="2.71171">
        <ele>153</ele>
        <time>2017-05-17T11:26:06.755</time>
      </trkpt>
      <trkpt lat="48.43806" lon="2.71168">
        <ele>151</ele>
        <time>2017-05-17T11:26:07.755</time>
      </trkpt>
      <trkpt lat="48.43807" lon="2.71164">
        <ele>151</ele>
        <time>2017-05-17T11:26:08.754</time>
      </trkpt>
      <trkpt lat="48.43807" lon="2.7116">
        <ele>151</ele>
        <time>2017-05-17T11:26:09.754</time>
      </trkpt>
      <trkpt lat="48.43808" lon="2.71158">
        <ele>150</ele>
        <time>2017-05-17T11:26:10.756</time>
      </trkpt>
      <trkpt lat="48.43809" lon="2.71155">
        <ele>150</ele>
        <time>2017-05-17T11:26:11.754</time>
      </trkpt>
      <trkpt lat="48.4381" lon="2.71152">
        <ele>149</ele>
        <time>2017-05-17T11:26:12.754</time>
      </trkpt>
      <trkpt lat="48.43811" lon="2.71149">
        <ele>149</ele>
        <time>2017-05-17T11:26:13.754</time>
      </trkpt>
      <trkpt lat="48.43812" lon="2.71146">
        <ele>148</ele>
        <time>2017-05-17T11:26:14.755</time>
      </trkpt>
      <trkpt lat="48.43812" lon="2.71143">
        <ele>148</ele>
        <time>2017-05-17T11:26:15.754</time>
      </trkpt>
      <trkpt lat="48.43813" lon="2.7114">
        <ele>147</ele>
        <time>2017-05-17T11:26:16.755</time>
      </trkpt>
      <trkpt lat="48.43814" lon="2.71138">
        <ele>148</ele>
        <time>2017-05-17T11:26:17.756</time>
      </trkpt>
      <trkpt lat="48.43815" lon="2.71135">
        <ele>148</ele>
        <time>2017-05-17T11:26:18.753</time>
      </trkpt>
      <trkpt lat="48.43816" lon="2.71132">
        <ele>148</ele>
        <time>2017-05-17T11:26:19.753</time>
      </trkpt>
      <trkpt lat="48.43817" lon="2.71128">
        <ele>149</ele>
        <time>2017-05-17T11:26:20.754</time>
      </trkpt>
      <trkpt lat="48.43818" lon="2.71124">
        <ele>150</ele>
        <time>2017-05-17T11:26:21.757</time>
      </trkpt>
      <trkpt lat="48.43819" lon="2.7112">
        <ele>151</ele>
        <time>2017-05-17T11:26:22.755</time>
      </trkpt>
      <trkpt lat="48.4382" lon="2.71116">
        <ele>151</ele>
        <time>2017-05-17T11:26:23.757</time>
      </trkpt>
      <trkpt lat="48.4382" lon="2.71113">
        <ele>153</ele>
        <time>2017-05-17T11:26:24.755</time>
      </trkpt>
      <trkpt lat="48.43821" lon="2.7111">
        <ele>154</ele>
        <time>2017-05-17T11:26:25.753</time>
      </trkpt>
      <trkpt lat="48.43823" lon="2.71108">
        <ele>154</ele>
        <time>2017-05-17T11:26:26.755</time>
      </trkpt>
      <trkpt lat="48.43821" lon="2.71102">
        <ele>154</ele>
        <time>2017-05-17T11:26:27.756</time>
      </trkpt>
      <trkpt lat="48.43822" lon="2.71097">
        <ele>154</ele>
        <time>2017-05-17T11:26:28.754</time>
      </trkpt>
      <trkpt lat="48.43822" lon="2.71091">
        <ele>155</ele>
        <time>2017-05-17T11:26:29.753</time>
      </trkpt>
      <trkpt lat="48.43823" lon="2.71088">
        <ele>154</ele>
        <time>2017-05-17T11:26:30.753</time>
      </trkpt>
      <trkpt lat="48.43824" lon="2.71084">
        <ele>154</ele>
        <time>2017-05-17T11:26:31.755</time>
      </trkpt>
      <trkpt lat="48.43825" lon="2.7108">
        <ele>154</ele>
        <time>2017-05-17T11:26:32.755</time>
      </trkpt>
      <trkpt lat="48.43825" lon="2.71076">
        <ele>154</ele>
        <time>2017-05-17T11:26:33.755</time>
      </trkpt>
      <trkpt lat="48.43825" lon="2.71072">
        <ele>154</ele>
        <time>2017-05-17T11:26:34.755</time>
      </trkpt>
      <trkpt lat="48.43826" lon="2.71069">
        <ele>155</ele>
        <time>2017-05-17T11:26:35.755</time>
      </trkpt>
      <trkpt lat="48.43826" lon="2.71064">
        <ele>155</ele>
        <time>2017-05-17T11:26:36.755</time>
      </trkpt>
      <trkpt lat="48.43827" lon="2.71062">
        <ele>155</ele>
        <time>2017-05-17T11:26:37.755</time>
      </trkpt>
      <trkpt lat="48.43827" lon="2.71058">
        <ele>156</ele>
        <time>2017-05-17T11:26:38.754</time>
      </trkpt>
      <trkpt lat="48.43827" lon="2.71053">
        <ele>157</ele>
        <time>2017-05-17T11:26:39.754</time>
      </trkpt>
      <trkpt lat="48.43828" lon="2.7105">
        <ele>157</ele>
        <time>2017-05-17T11:26:40.753</time>
      </trkpt>
      <trkpt lat="48.43828" lon="2.71047">
        <ele>157</ele>
        <time>2017-05-17T11:26:41.754</time>
      </trkpt>
      <trkpt lat="48.43829" lon="2.71043">
        <ele>158</ele>
        <time>2017-05-17T11:26:42.755</time>
      </trkpt>
      <trkpt lat="48.43829" lon="2.7104">
        <ele>158</ele>
        <time>2017-05-17T11:26:43.754</time>
      </trkpt>
      <trkpt lat="48.4383" lon="2.71037">
        <ele>158</ele>
        <time>2017-05-17T11:26:44.754</time>
      </trkpt>
      <trkpt lat="48.4383" lon="2.71034">
        <ele>159</ele>
        <time>2017-05-17T11:26:45.754</time>
      </trkpt>
      <trkpt lat="48.43831" lon="2.7103">
        <ele>159</ele>
        <time>2017-05-17T11:26:46.756</time>
      </trkpt>
      <trkpt lat="48.43831" lon="2.71027">
        <ele>159</ele>
        <time>2017-05-17T11:26:47.757</time>
      </trkpt>
      <trkpt lat="48.43832" lon="2.71024">
        <ele>160</ele>
        <time>2017-05-17T11:26:48.755</time>
      </trkpt>
      <trkpt lat="48.43832" lon="2.71021">
        <ele>161</ele>
        <time>2017-05-17T11:26:49.758</time>
      </trkpt>
      <trkpt lat="48.43833" lon="2.71019">
        <ele>161</ele>
        <time>2017-05-17T11:26:50.758</time>
      </trkpt>
      <trkpt lat="48.43833" lon="2.71017">
        <ele>161</ele>
        <time>2017-05-17T11:26:51.766</time>
      </trkpt>
      <trkpt lat="48.43834" lon="2.71014">
        <ele>161</ele>
        <time>2017-05-17T11:26:52.758</time>
      </trkpt>
      <trkpt lat="48.43835" lon="2.71013">
        <ele>160</ele>
        <time>2017-05-17T11:26:53.766</time>
      </trkpt>
      <trkpt lat="48.43835" lon="2.7101">
        <ele>160</ele>
        <time>2017-05-17T11:26:54.765</time>
      </trkpt>
      <trkpt lat="48.43836" lon="2.71008">
        <ele>160</ele>
        <time>2017-05-17T11:26:55.765</time>
      </trkpt>
      <trkpt lat="48.43837" lon="2.71006">
        <ele>160</ele>
        <time>2017-05-17T11:26:56.769</time>
      </trkpt>
      <trkpt lat="48.43838" lon="2.71004">
        <ele>159</ele>
        <time>2017-05-17T11:26:57.760</time>
      </trkpt>
      <trkpt lat="48.43838" lon="2.71001">
        <ele>159</ele>
        <time>2017-05-17T11:26:58.754</time>
      </trkpt>
      <trkpt lat="48.43838" lon="2.70997">
        <ele>159</ele>
        <time>2017-05-17T11:26:59.755</time>
      </trkpt>
      <trkpt lat="48.43839" lon="2.70995">
        <ele>160</ele>
        <time>2017-05-17T11:27:00.757</time>
      </trkpt>
      <trkpt lat="48.4384" lon="2.70992">
        <ele>161</ele>
        <time>2017-05-17T11:27:01.754</time>
      </trkpt>
      <trkpt lat="48.43841" lon="2.70989">
        <ele>162</ele>
        <time>2017-05-17T11:27:02.754</time>
      </trkpt>
      <trkpt lat="48.43842" lon="2.70988">
        <ele>163</ele>
        <time>2017-05-17T11:27:03.755</time>
      </trkpt>
      <trkpt lat="48.43842" lon="2.70987">
        <ele>162</ele>
        <time>2017-05-17T11:27:04.755</time>
      </trkpt>
      <trkpt lat="48.43843" lon="2.70986">
        <ele>161</ele>
        <time>2017-05-17T11:27:05.754</time>
      </trkpt>
      <trkpt lat="48.43845" lon="2.70984">
        <ele>162</ele>
        <time>2017-05-17T11:27:06.754</time>
      </trkpt>
      <trkpt lat="48.43845" lon="2.7098">
        <ele>162</ele>
        <time>2017-05-17T11:27:07.755</time>
      </trkpt>
      <trkpt lat="48.43846" lon="2.70976">
        <ele>161</ele>
        <time>2017-05-17T11:27:08.754</time>
      </trkpt>
      <trkpt lat="48.43846" lon="2.70972">
        <ele>161</ele>
        <time>2017-05-17T11:27:09.754</time>
      </trkpt>
      <trkpt lat="48.43847" lon="2.70971">
        <ele>160</ele>
        <time>2017-05-17T11:27:10.753</time>
      </trkpt>
      <trkpt lat="48.43847" lon="2.70968">
        <ele>160</ele>
        <time>2017-05-17T11:27:11.755</time>
      </trkpt>
      <trkpt lat="48.43848" lon="2.70965">
        <ele>160</ele>
        <time>2017-05-17T11:27:12.753</time>
      </trkpt>
      <trkpt lat="48.43848" lon="2.70962">
        <ele>160</ele>
        <time>2017-05-17T11:27:13.755</time>
      </trkpt>
      <trkpt lat="48.43849" lon="2.7096">
        <ele>160</ele>
        <time>2017-05-17T11:27:14.754</time>
      </trkpt>
      <trkpt lat="48.4385" lon="2.70957">
        <ele>160</ele>
        <time>2017-05-17T11:27:15.754</time>
      </trkpt>
      <trkpt lat="48.4385" lon="2.70955">
        <ele>160</ele>
        <time>2017-05-17T11:27:16.755</time>
      </trkpt>
      <trkpt lat="48.4385" lon="2.70952">
        <ele>161</ele>
        <time>2017-05-17T11:27:17.756</time>
      </trkpt>
      <trkpt lat="48.43851" lon="2.70949">
        <ele>160</ele>
        <time>2017-05-17T11:27:18.754</time>
      </trkpt>
      <trkpt lat="48.43851" lon="2.70946">
        <ele>160</ele>
        <time>2017-05-17T11:27:19.753</time>
      </trkpt>
      <trkpt lat="48.43852" lon="2.70943">
        <ele>160</ele>
        <time>2017-05-17T11:27:20.753</time>
      </trkpt>
      <trkpt lat="48.43852" lon="2.70941">
        <ele>160</ele>
        <time>2017-05-17T11:27:21.754</time>
      </trkpt>
      <trkpt lat="48.43853" lon="2.70938">
        <ele>160</ele>
        <time>2017-05-17T11:27:22.755</time>
      </trkpt>
      <trkpt lat="48.43853" lon="2.70935">
        <ele>159</ele>
        <time>2017-05-17T11:27:23.757</time>
      </trkpt>
      <trkpt lat="48.43855" lon="2.70932">
        <ele>159</ele>
        <time>2017-05-17T11:27:24.755</time>
      </trkpt>
      <trkpt lat="48.43856" lon="2.70929">
        <ele>159</ele>
        <time>2017-05-17T11:27:25.754</time>
      </trkpt>
      <trkpt lat="48.43856" lon="2.70924">
        <ele>159</ele>
        <time>2017-05-17T11:27:26.755</time>
      </trkpt>
      <trkpt lat="48.43856" lon="2.7092">
        <ele>158</ele>
        <time>2017-05-17T11:27:27.753</time>
      </trkpt>
      <trkpt lat="48.43857" lon="2.70915">
        <ele>158</ele>
        <time>2017-05-17T11:27:28.754</time>
      </trkpt>
      <trkpt lat="48.43858" lon="2.70911">
        <ele>158</ele>
        <time>2017-05-17T11:27:29.755</time>
      </trkpt>
      <trkpt lat="48.43859" lon="2.70907">
        <ele>159</ele>
        <time>2017-05-17T11:27:30.755</time>
      </trkpt>
      <trkpt lat="48.43859" lon="2.70902">
        <ele>159</ele>
        <time>2017-05-17T11:27:31.755</time>
      </trkpt>
      <trkpt lat="48.4386" lon="2.70898">
        <ele>158</ele>
        <time>2017-05-17T11:27:32.754</time>
      </trkpt>
      <trkpt lat="48.4386" lon="2.70893">
        <ele>159</ele>
        <time>2017-05-17T11:27:33.755</time>
      </trkpt>
      <trkpt lat="48.43862" lon="2.70889">
        <ele>159</ele>
        <time>2017-05-17T11:27:34.754</time>
      </trkpt>
      <trkpt lat="48.43862" lon="2.70886">
        <ele>160</ele>
        <time>2017-05-17T11:27:35.755</time>
      </trkpt>
      <trkpt lat="48.43863" lon="2.70883">
        <ele>160</ele>
        <time>2017-05-17T11:27:36.755</time>
      </trkpt>
      <trkpt lat="48.43863" lon="2.70879">
        <ele>161</ele>
        <time>2017-05-17T11:27:37.756</time>
      </trkpt>
      <trkpt lat="48.43865" lon="2.70877">
        <ele>162</ele>
        <time>2017-05-17T11:27:38.756</time>
      </trkpt>
      <trkpt lat="48.43866" lon="2.70873">
        <ele>161</ele>
        <time>2017-05-17T11:27:39.754</time>
      </trkpt>
      <trkpt lat="48.43866" lon="2.7087">
        <ele>160</ele>
        <time>2017-05-17T11:27:40.754</time>
      </trkpt>
      <trkpt lat="48.43867" lon="2.70865">
        <ele>160</ele>
        <time>2017-05-17T11:27:41.754</time>
      </trkpt>
      <trkpt lat="48.43867" lon="2.7086">
        <ele>159</ele>
        <time>2017-05-17T11:27:42.756</time>
      </trkpt>
      <trkpt lat="48.43868" lon="2.70856">
        <ele>160</ele>
        <time>2017-05-17T11:27:43.756</time>
      </trkpt>
      <trkpt lat="48.43868" lon="2.70852">
        <ele>160</ele>
        <time>2017-05-17T11:27:44.754</time>
      </trkpt>
      <trkpt lat="48.4387" lon="2.70848">
        <ele>160</ele>
        <time>2017-05-17T11:27:45.756</time>
      </trkpt>
      <trkpt lat="48.43871" lon="2.70842">
        <ele>160</ele>
        <time>2017-05-17T11:27:46.755</time>
      </trkpt>
      <trkpt lat="48.43872" lon="2.70839">
        <ele>161</ele>
        <time>2017-05-17T11:27:47.754</time>
      </trkpt>
      <trkpt lat="48.43872" lon="2.70834">
        <ele>162</ele>
        <time>2017-05-17T11:27:48.754</time>
      </trkpt>
      <trkpt lat="48.43874" lon="2.7083">
        <ele>161</ele>
        <time>2017-05-17T11:27:49.756</time>
      </trkpt>
      <trkpt lat="48.43875" lon="2.70827">
        <ele>161</ele>
        <time>2017-05-17T11:27:50.756</time>
      </trkpt>
      <trkpt lat="48.43876" lon="2.70823">
        <ele>161</ele>
        <time>2017-05-17T11:27:51.756</time>
      </trkpt>
      <trkpt lat="48.43878" lon="2.70818">
        <ele>161</ele>
        <time>2017-05-17T11:27:52.756</time>
      </trkpt>
      <trkpt lat="48.43879" lon="2.70813">
        <ele>161</ele>
        <time>2017-05-17T11:27:53.755</time>
      </trkpt>
      <trkpt lat="48.43879" lon="2.70808">
        <ele>159</ele>
        <time>2017-05-17T11:27:54.755</time>
      </trkpt>
      <trkpt lat="48.43879" lon="2.70803">
        <ele>160</ele>
        <time>2017-05-17T11:27:55.756</time>
      </trkpt>
      <trkpt lat="48.43881" lon="2.70797">
        <ele>159</ele>
        <time>2017-05-17T11:27:56.756</time>
      </trkpt>
      <trkpt lat="48.4388" lon="2.7079">
        <ele>160</ele>
        <time>2017-05-17T11:27:57.755</time>
      </trkpt>
      <trkpt lat="48.4388" lon="2.70784">
        <ele>160</ele>
        <time>2017-05-17T11:27:58.755</time>
      </trkpt>
      <trkpt lat="48.4388" lon="2.70778">
        <ele>160</ele>
        <time>2017-05-17T11:27:59.753</time>
      </trkpt>
      <trkpt lat="48.4388" lon="2.70773">
        <ele>160</ele>
        <time>2017-05-17T11:28:00.754</time>
      </trkpt>
      <trkpt lat="48.4388" lon="2.70768">
        <ele>160</ele>
        <time>2017-05-17T11:28:01.755</time>
      </trkpt>
      <trkpt lat="48.4388" lon="2.70763">
        <ele>160</ele>
        <time>2017-05-17T11:28:02.756</time>
      </trkpt>
      <trkpt lat="48.43881" lon="2.70758">
        <ele>160</ele>
        <time>2017-05-17T11:28:03.753</time>
      </trkpt>
      <trkpt lat="48.43881" lon="2.70754">
        <ele>159</ele>
        <time>2017-05-17T11:28:04.754</time>
      </trkpt>
      <trkpt lat="48.4388" lon="2.70749">
        <ele>159</ele>
        <time>2017-05-17T11:28:05.754</time>
      </trkpt>
      <trkpt lat="48.43881" lon="2.70744">
        <ele>158</ele>
        <time>2017-05-17T11:28:06.755</time>
      </trkpt>
      <trkpt lat="48.43882" lon="2.70739">
        <ele>157</ele>
        <time>2017-05-17T11:28:07.755</time>
      </trkpt>
      <trkpt lat="48.43884" lon="2.70733">
        <ele>157</ele>
        <time>2017-05-17T11:28:08.755</time>
      </trkpt>
      <trkpt lat="48.43887" lon="2.70728">
        <ele>156</ele>
        <time>2017-05-17T11:28:09.756</time>
      </trkpt>
      <trkpt lat="48.4389" lon="2.70722">
        <ele>157</ele>
        <time>2017-05-17T11:28:10.757</time>
      </trkpt>
      <trkpt lat="48.43891" lon="2.70716">
        <ele>158</ele>
        <time>2017-05-17T11:28:11.756</time>
      </trkpt>
      <trkpt lat="48.43895" lon="2.70711">
        <ele>158</ele>
        <time>2017-05-17T11:28:12.755</time>
      </trkpt>
      <trkpt lat="48.43897" lon="2.70705">
        <ele>157</ele>
        <time>2017-05-17T11:28:13.754</time>
      </trkpt>
      <trkpt lat="48.43899" lon="2.707">
        <ele>156</ele>
        <time>2017-05-17T11:28:14.755</time>
      </trkpt>
      <trkpt lat="48.43901" lon="2.70694">
        <ele>156</ele>
        <time>2017-05-17T11:28:15.755</time>
      </trkpt>
      <trkpt lat="48.43902" lon="2.70688">
        <ele>157</ele>
        <time>2017-05-17T11:28:16.754</time>
      </trkpt>
      <trkpt lat="48.43904" lon="2.70682">
        <ele>157</ele>
        <time>2017-05-17T11:28:17.753</time>
      </trkpt>
      <trkpt lat="48.43906" lon="2.70677">
        <ele>157</ele>
        <time>2017-05-17T11:28:18.754</time>
      </trkpt>
      <trkpt lat="48.43907" lon="2.7067">
        <ele>156</ele>
        <time>2017-05-17T11:28:19.754</time>
      </trkpt>
      <trkpt lat="48.43908" lon="2.70665">
        <ele>156</ele>
        <time>2017-05-17T11:28:20.755</time>
      </trkpt>
      <trkpt lat="48.43909" lon="2.70659">
        <ele>157</ele>
        <time>2017-05-17T11:28:21.755</time>
      </trkpt>
      <trkpt lat="48.4391" lon="2.70653">
        <ele>156</ele>
        <time>2017-05-17T11:28:22.756</time>
      </trkpt>
      <trkpt lat="48.4391" lon="2.70648">
        <ele>155</ele>
        <time>2017-05-17T11:28:23.754</time>
      </trkpt>
      <trkpt lat="48.43911" lon="2.70643">
        <ele>154</ele>
        <time>2017-05-17T11:28:24.754</time>
      </trkpt>
      <trkpt lat="48.43911" lon="2.70636">
        <ele>155</ele>
        <time>2017-05-17T11:28:25.755</time>
      </trkpt>
      <trkpt lat="48.43911" lon="2.70629">
        <ele>156</ele>
        <time>2017-05-17T11:28:26.753</time>
      </trkpt>
      <trkpt lat="48.43912" lon="2.70625">
        <ele>156</ele>
        <time>2017-05-17T11:28:27.754</time>
      </trkpt>
      <trkpt lat="48.43913" lon="2.7062">
        <ele>156</ele>
        <time>2017-05-17T11:28:28.755</time>
      </trkpt>
      <trkpt lat="48.43914" lon="2.70615">
        <ele>156</ele>
        <time>2017-05-17T11:28:29.756</time>
      </trkpt>
      <trkpt lat="48.43915" lon="2.70609">
        <ele>156</ele>
        <time>2017-05-17T11:28:30.753</time>
      </trkpt>
      <trkpt lat="48.43916" lon="2.70604">
        <ele>156</ele>
        <time>2017-05-17T11:28:31.755</time>
      </trkpt>
      <trkpt lat="48.43917" lon="2.70599">
        <ele>156</ele>
        <time>2017-05-17T11:28:32.756</time>
      </trkpt>
      <trkpt lat="48.43918" lon="2.70595">
        <ele>156</ele>
        <time>2017-05-17T11:28:33.755</time>
      </trkpt>
      <trkpt lat="48.43919" lon="2.70591">
        <ele>156</ele>
        <time>2017-05-17T11:28:34.754</time>
      </trkpt>
      <trkpt lat="48.43918" lon="2.70585">
        <ele>156</ele>
        <time>2017-05-17T11:28:35.753</time>
      </trkpt>
      <trkpt lat="48.43918" lon="2.70581">
        <ele>156</ele>
        <time>2017-05-17T11:28:36.755</time>
      </trkpt>
      <trkpt lat="48.43919" lon="2.70577">
        <ele>155</ele>
        <time>2017-05-17T11:28:37.754</time>
      </trkpt>
      <trkpt lat="48.43919" lon="2.70572">
        <ele>155</ele>
        <time>2017-05-17T11:28:38.753</time>
      </trkpt>
      <trkpt lat="48.4392" lon="2.70568">
        <ele>155</ele>
        <time>2017-05-17T11:28:39.753</time>
      </trkpt>
      <trkpt lat="48.43921" lon="2.70564">
        <ele>155</ele>
        <time>2017-05-17T11:28:40.754</time>
      </trkpt>
      <trkpt lat="48.43921" lon="2.7056">
        <ele>154</ele>
        <time>2017-05-17T11:28:41.755</time>
      </trkpt>
      <trkpt lat="48.43922" lon="2.70556">
        <ele>155</ele>
        <time>2017-05-17T11:28:42.755</time>
      </trkpt>
      <trkpt lat="48.43923" lon="2.70549">
        <ele>156</ele>
        <time>2017-05-17T11:28:43.756</time>
      </trkpt>
      <trkpt lat="48.43924" lon="2.70545">
        <ele>157</ele>
        <time>2017-05-17T11:28:44.755</time>
      </trkpt>
      <trkpt lat="48.43924" lon="2.7054">
        <ele>157</ele>
        <time>2017-05-17T11:28:45.754</time>
      </trkpt>
      <trkpt lat="48.43925" lon="2.70537">
        <ele>158</ele>
        <time>2017-05-17T11:28:46.754</time>
      </trkpt>
      <trkpt lat="48.43926" lon="2.70531">
        <ele>158</ele>
        <time>2017-05-17T11:28:47.756</time>
      </trkpt>
      <trkpt lat="48.43927" lon="2.70525">
        <ele>159</ele>
        <time>2017-05-17T11:28:48.755</time>
      </trkpt>
      <trkpt lat="48.43928" lon="2.70522">
        <ele>159</ele>
        <time>2017-05-17T11:28:49.756</time>
      </trkpt>
      <trkpt lat="48.4393" lon="2.70519">
        <ele>159</ele>
        <time>2017-05-17T11:28:50.756</time>
      </trkpt>
      <trkpt lat="48.43929" lon="2.70511">
        <ele>158</ele>
        <time>2017-05-17T11:28:51.755</time>
      </trkpt>
      <trkpt lat="48.43929" lon="2.70504">
        <ele>158</ele>
        <time>2017-05-17T11:28:52.756</time>
      </trkpt>
      <trkpt lat="48.43929" lon="2.70497">
        <ele>158</ele>
        <time>2017-05-17T11:28:53.756</time>
      </trkpt>
      <trkpt lat="48.4393" lon="2.70491">
        <ele>158</ele>
        <time>2017-05-17T11:28:54.757</time>
      </trkpt>
      <trkpt lat="48.43931" lon="2.70484">
        <ele>157</ele>
        <time>2017-05-17T11:28:55.755</time>
      </trkpt>
      <trkpt lat="48.43931" lon="2.70477">
        <ele>157</ele>
        <time>2017-05-17T11:28:56.756</time>
      </trkpt>
      <trkpt lat="48.43931" lon="2.7047">
        <ele>157</ele>
        <time>2017-05-17T11:28:57.756</time>
      </trkpt>
      <trkpt lat="48.43931" lon="2.70465">
        <ele>157</ele>
        <time>2017-05-17T11:28:58.756</time>
      </trkpt>
      <trkpt lat="48.4393" lon="2.7046">
        <ele>157</ele>
        <time>2017-05-17T11:28:59.755</time>
      </trkpt>
      <trkpt lat="48.43928" lon="2.70456">
        <ele>156</ele>
        <time>2017-05-17T11:29:00.755</time>
      </trkpt>
      <trkpt lat="48.43926" lon="2.70451">
        <ele>157</ele>
        <time>2017-05-17T11:29:01.755</time>
      </trkpt>
      <trkpt lat="48.43925" lon="2.70448">
        <ele>156</ele>
        <time>2017-05-17T11:29:02.755</time>
      </trkpt>
      <trkpt lat="48.43924" lon="2.70444">
        <ele>156</ele>
        <time>2017-05-17T11:29:03.755</time>
      </trkpt>
      <trkpt lat="48.43923" lon="2.70439">
        <ele>156</ele>
        <time>2017-05-17T11:29:04.756</time>
      </trkpt>
      <trkpt lat="48.43921" lon="2.70435">
        <ele>156</ele>
        <time>2017-05-17T11:29:05.757</time>
      </trkpt>
      <trkpt lat="48.43922" lon="2.70428">
        <ele>156</ele>
        <time>2017-05-17T11:29:06.755</time>
      </trkpt>
      <trkpt lat="48.43921" lon="2.70422">
        <ele>155</ele>
        <time>2017-05-17T11:29:07.759</time>
      </trkpt>
      <trkpt lat="48.43921" lon="2.70416">
        <ele>155</ele>
        <time>2017-05-17T11:29:08.755</time>
      </trkpt>
      <trkpt lat="48.4392" lon="2.70409">
        <ele>155</ele>
        <time>2017-05-17T11:29:09.755</time>
      </trkpt>
      <trkpt lat="48.4392" lon="2.70402">
        <ele>155</ele>
        <time>2017-05-17T11:29:10.755</time>
      </trkpt>
      <trkpt lat="48.43921" lon="2.70397">
        <ele>155</ele>
        <time>2017-05-17T11:29:11.755</time>
      </trkpt>
      <trkpt lat="48.43922" lon="2.7039">
        <ele>155</ele>
        <time>2017-05-17T11:29:12.755</time>
      </trkpt>
      <trkpt lat="48.43922" lon="2.70385">
        <ele>155</ele>
        <time>2017-05-17T11:29:13.755</time>
      </trkpt>
      <trkpt lat="48.43923" lon="2.7038">
        <ele>153</ele>
        <time>2017-05-17T11:29:14.757</time>
      </trkpt>
      <trkpt lat="48.43923" lon="2.70374">
        <ele>153</ele>
        <time>2017-05-17T11:29:15.755</time>
      </trkpt>
      <trkpt lat="48.43923" lon="2.70368">
        <ele>153</ele>
        <time>2017-05-17T11:29:16.756</time>
      </trkpt>
      <trkpt lat="48.43922" lon="2.70361">
        <ele>152</ele>
        <time>2017-05-17T11:29:17.756</time>
      </trkpt>
      <trkpt lat="48.43923" lon="2.70356">
        <ele>151</ele>
        <time>2017-05-17T11:29:18.754</time>
      </trkpt>
      <trkpt lat="48.43924" lon="2.70351">
        <ele>151</ele>
        <time>2017-05-17T11:29:19.754</time>
      </trkpt>
      <trkpt lat="48.43926" lon="2.70345">
        <ele>153</ele>
        <time>2017-05-17T11:29:20.754</time>
      </trkpt>
      <trkpt lat="48.43928" lon="2.7034">
        <ele>152</ele>
        <time>2017-05-17T11:29:21.754</time>
      </trkpt>
      <trkpt lat="48.4393" lon="2.70335">
        <ele>152</ele>
        <time>2017-05-17T11:29:22.756</time>
      </trkpt>
      <trkpt lat="48.43934" lon="2.70331">
        <ele>153</ele>
        <time>2017-05-17T11:29:23.755</time>
      </trkpt>
      <trkpt lat="48.43937" lon="2.70327">
        <ele>153</ele>
        <time>2017-05-17T11:29:24.756</time>
      </trkpt>
      <trkpt lat="48.43941" lon="2.70324">
        <ele>154</ele>
        <time>2017-05-17T11:29:25.755</time>
      </trkpt>
      <trkpt lat="48.43945" lon="2.70321">
        <ele>154</ele>
        <time>2017-05-17T11:29:26.754</time>
      </trkpt>
      <trkpt lat="48.43949" lon="2.70319">
        <ele>154</ele>
        <time>2017-05-17T11:29:27.757</time>
      </trkpt>
      <trkpt lat="48.43953" lon="2.70316">
        <ele>155</ele>
        <time>2017-05-17T11:29:28.755</time>
      </trkpt>
      <trkpt lat="48.43957" lon="2.70314">
        <ele>155</ele>
        <time>2017-05-17T11:29:29.753</time>
      </trkpt>
      <trkpt lat="48.4396" lon="2.70312">
        <ele>156</ele>
        <time>2017-05-17T11:29:30.753</time>
      </trkpt>
      <trkpt lat="48.43963" lon="2.7031">
        <ele>157</ele>
        <time>2017-05-17T11:29:31.754</time>
      </trkpt>
      <trkpt lat="48.43967" lon="2.70307">
        <ele>156</ele>
        <time>2017-05-17T11:29:32.755</time>
      </trkpt>
      <trkpt lat="48.43971" lon="2.70302">
        <ele>156</ele>
        <time>2017-05-17T11:29:33.754</time>
      </trkpt>
      <trkpt lat="48.43974" lon="2.70298">
        <ele>156</ele>
        <time>2017-05-17T11:29:34.755</time>
      </trkpt>
      <trkpt lat="48.43976" lon="2.7029">
        <ele>156</ele>
        <time>2017-05-17T11:29:35.755</time>
      </trkpt>
      <trkpt lat="48.43978" lon="2.70283">
        <ele>156</ele>
        <time>2017-05-17T11:29:36.755</time>
      </trkpt>
      <trkpt lat="48.43979" lon="2.70276">
        <ele>155</ele>
        <time>2017-05-17T11:29:37.754</time>
      </trkpt>
      <trkpt lat="48.43982" lon="2.70269">
        <ele>155</ele>
        <time>2017-05-17T11:29:38.752</time>
      </trkpt>
      <trkpt lat="48.43983" lon="2.70261">
        <ele>154</ele>
        <time>2017-05-17T11:29:39.753</time>
      </trkpt>
      <trkpt lat="48.43983" lon="2.70255">
        <ele>154</ele>
        <time>2017-05-17T11:29:40.754</time>
      </trkpt>
      <trkpt lat="48.43984" lon="2.70248">
        <ele>153</ele>
        <time>2017-05-17T11:29:41.754</time>
      </trkpt>
      <trkpt lat="48.43986" lon="2.7024">
        <ele>154</ele>
        <time>2017-05-17T11:29:42.754</time>
      </trkpt>
      <trkpt lat="48.43987" lon="2.70232">
        <ele>154</ele>
        <time>2017-05-17T11:29:43.754</time>
      </trkpt>
      <trkpt lat="48.43987" lon="2.70222">
        <ele>155</ele>
        <time>2017-05-17T11:29:44.754</time>
      </trkpt>
      <trkpt lat="48.43988" lon="2.70215">
        <ele>155</ele>
        <time>2017-05-17T11:29:45.753</time>
      </trkpt>
      <trkpt lat="48.43989" lon="2.70208">
        <ele>155</ele>
        <time>2017-05-17T11:29:46.754</time>
      </trkpt>
      <trkpt lat="48.4399" lon="2.702">
        <ele>155</ele>
        <time>2017-05-17T11:29:47.753</time>
      </trkpt>
      <trkpt lat="48.43991" lon="2.70193">
        <ele>155</ele>
        <time>2017-05-17T11:29:48.753</time>
      </trkpt>
      <trkpt lat="48.43993" lon="2.70186">
        <ele>156</ele>
        <time>2017-05-17T11:29:49.755</time>
      </trkpt>
      <trkpt lat="48.43994" lon="2.7018">
        <ele>156</ele>
        <time>2017-05-17T11:29:50.755</time>
      </trkpt>
      <trkpt lat="48.43995" lon="2.70173">
        <ele>157</ele>
        <time>2017-05-17T11:29:51.756</time>
      </trkpt>
      <trkpt lat="48.43997" lon="2.70168">
        <ele>156</ele>
        <time>2017-05-17T11:29:52.760</time>
      </trkpt>
      <trkpt lat="48.43997" lon="2.70162">
        <ele>155</ele>
        <time>2017-05-17T11:29:53.754</time>
      </trkpt>
      <trkpt lat="48.43998" lon="2.70155">
        <ele>155</ele>
        <time>2017-05-17T11:29:54.753</time>
      </trkpt>
      <trkpt lat="48.43999" lon="2.70149">
        <ele>153</ele>
        <time>2017-05-17T11:29:55.759</time>
      </trkpt>
      <trkpt lat="48.44" lon="2.70142">
        <ele>152</ele>
        <time>2017-05-17T11:29:56.759</time>
      </trkpt>
      <trkpt lat="48.44" lon="2.70134">
        <ele>152</ele>
        <time>2017-05-17T11:29:57.759</time>
      </trkpt>
      <trkpt lat="48.44001" lon="2.70127">
        <ele>151</ele>
        <time>2017-05-17T11:29:58.759</time>
      </trkpt>
      <trkpt lat="48.44002" lon="2.70121">
        <ele>151</ele>
        <time>2017-05-17T11:29:59.759</time>
      </trkpt>
      <trkpt lat="48.44003" lon="2.70115">
        <ele>150</ele>
        <time>2017-05-17T11:30:00.754</time>
      </trkpt>
      <trkpt lat="48.44004" lon="2.70108">
        <ele>149</ele>
        <time>2017-05-17T11:30:01.753</time>
      </trkpt>
      <trkpt lat="48.44004" lon="2.70101">
        <ele>148</ele>
        <time>2017-05-17T11:30:02.754</time>
      </trkpt>
      <trkpt lat="48.44005" lon="2.70094">
        <ele>148</ele>
        <time>2017-05-17T11:30:03.756</time>
      </trkpt>
      <trkpt lat="48.44007" lon="2.70086">
        <ele>148</ele>
        <time>2017-05-17T11:30:04.755</time>
      </trkpt>
      <trkpt lat="48.44006" lon="2.70079">
        <ele>148</ele>
        <time>2017-05-17T11:30:05.755</time>
      </trkpt>
      <trkpt lat="48.44006" lon="2.70072">
        <ele>147</ele>
        <time>2017-05-17T11:30:06.753</time>
      </trkpt>
      <trkpt lat="48.44007" lon="2.70064">
        <ele>146</ele>
        <time>2017-05-17T11:30:07.754</time>
      </trkpt>
      <trkpt lat="48.44007" lon="2.70056">
        <ele>147</ele>
        <time>2017-05-17T11:30:08.756</time>
      </trkpt>
      <trkpt lat="48.44008" lon="2.70049">
        <ele>146</ele>
        <time>2017-05-17T11:30:09.755</time>
      </trkpt>
      <trkpt lat="48.4401" lon="2.70042">
        <ele>146</ele>
        <time>2017-05-17T11:30:10.755</time>
      </trkpt>
      <trkpt lat="48.44011" lon="2.70033">
        <ele>147</ele>
        <time>2017-05-17T11:30:11.758</time>
      </trkpt>
      <trkpt lat="48.44012" lon="2.70025">
        <ele>147</ele>
        <time>2017-05-17T11:30:12.758</time>
      </trkpt>
      <trkpt lat="48.44013" lon="2.70018">
        <ele>147</ele>
        <time>2017-05-17T11:30:13.756</time>
      </trkpt>
      <trkpt lat="48.44015" lon="2.7001">
        <ele>148</ele>
        <time>2017-05-17T11:30:14.758</time>
      </trkpt>
      <trkpt lat="48.44016" lon="2.70003">
        <ele>147</ele>
        <time>2017-05-17T11:30:15.756</time>
      </trkpt>
      <trkpt lat="48.44017" lon="2.69996">
        <ele>148</ele>
        <time>2017-05-17T11:30:16.755</time>
      </trkpt>
      <trkpt lat="48.44017" lon="2.69989">
        <ele>148</ele>
        <time>2017-05-17T11:30:17.754</time>
      </trkpt>
      <trkpt lat="48.44019" lon="2.69984">
        <ele>147</ele>
        <time>2017-05-17T11:30:18.754</time>
      </trkpt>
      <trkpt lat="48.4402" lon="2.69977">
        <ele>147</ele>
        <time>2017-05-17T11:30:19.753</time>
      </trkpt>
      <trkpt lat="48.44021" lon="2.69969">
        <ele>147</ele>
        <time>2017-05-17T11:30:20.755</time>
      </trkpt>
      <trkpt lat="48.44022" lon="2.69961">
        <ele>146</ele>
        <time>2017-05-17T11:30:21.755</time>
      </trkpt>
      <trkpt lat="48.44024" lon="2.69954">
        <ele>147</ele>
        <time>2017-05-17T11:30:22.756</time>
      </trkpt>
      <trkpt lat="48.44026" lon="2.69947">
        <ele>146</ele>
        <time>2017-05-17T11:30:23.756</time>
      </trkpt>
      <trkpt lat="48.44026" lon="2.69938">
        <ele>146</ele>
        <time>2017-05-17T11:30:24.756</time>
      </trkpt>
      <trkpt lat="48.44028" lon="2.69931">
        <ele>146</ele>
        <time>2017-05-17T11:30:25.755</time>
      </trkpt>
      <trkpt lat="48.44028" lon="2.69924">
        <ele>146</ele>
        <time>2017-05-17T11:30:26.757</time>
      </trkpt>
      <trkpt lat="48.4403" lon="2.69914">
        <ele>148</ele>
        <time>2017-05-17T11:30:27.755</time>
      </trkpt>
      <trkpt lat="48.44031" lon="2.69906">
        <ele>147</ele>
        <time>2017-05-17T11:30:28.755</time>
      </trkpt>
      <trkpt lat="48.44031" lon="2.69897">
        <ele>147</ele>
        <time>2017-05-17T11:30:29.756</time>
      </trkpt>
      <trkpt lat="48.44033" lon="2.69891">
        <ele>145</ele>
        <time>2017-05-17T11:30:30.756</time>
      </trkpt>
      <trkpt lat="48.44034" lon="2.69881">
        <ele>147</ele>
        <time>2017-05-17T11:30:31.757</time>
      </trkpt>
      <trkpt lat="48.44034" lon="2.69872">
        <ele>148</ele>
        <time>2017-05-17T11:30:32.759</time>
      </trkpt>
      <trkpt lat="48.44036" lon="2.69864">
        <ele>148</ele>
        <time>2017-05-17T11:30:33.757</time>
      </trkpt>
      <trkpt lat="48.44037" lon="2.69856">
        <ele>147</ele>
        <time>2017-05-17T11:30:34.757</time>
      </trkpt>
      <trkpt lat="48.44037" lon="2.69847">
        <ele>147</ele>
        <time>2017-05-17T11:30:35.756</time>
      </trkpt>
      <trkpt lat="48.44039" lon="2.6984">
        <ele>147</ele>
        <time>2017-05-17T11:30:36.755</time>
      </trkpt>
      <trkpt lat="48.44041" lon="2.69832">
        <ele>147</ele>
        <time>2017-05-17T11:30:37.755</time>
      </trkpt>
      <trkpt lat="48.44042" lon="2.69822">
        <ele>146</ele>
        <time>2017-05-17T11:30:38.755</time>
      </trkpt>
      <trkpt lat="48.44043" lon="2.69813">
        <ele>146</ele>
        <time>2017-05-17T11:30:39.756</time>
      </trkpt>
      <trkpt lat="48.44044" lon="2.69802">
        <ele>146</ele>
        <time>2017-05-17T11:30:40.755</time>
      </trkpt>
      <trkpt lat="48.44045" lon="2.69791">
        <ele>147</ele>
        <time>2017-05-17T11:30:41.756</time>
      </trkpt>
      <trkpt lat="48.44046" lon="2.69781">
        <ele>148</ele>
        <time>2017-05-17T11:30:42.755</time>
      </trkpt>
      <trkpt lat="48.44047" lon="2.69772">
        <ele>147</ele>
        <time>2017-05-17T11:30:43.755</time>
      </trkpt>
      <trkpt lat="48.44049" lon="2.69762">
        <ele>147</ele>
        <time>2017-05-17T11:30:44.758</time>
      </trkpt>
      <trkpt lat="48.4405" lon="2.69754">
        <ele>147</ele>
        <time>2017-05-17T11:30:45.757</time>
      </trkpt>
      <trkpt lat="48.44053" lon="2.69747">
        <ele>147</ele>
        <time>2017-05-17T11:30:46.755</time>
      </trkpt>
      <trkpt lat="48.44055" lon="2.69739">
        <ele>147</ele>
        <time>2017-05-17T11:30:47.754</time>
      </trkpt>
      <trkpt lat="48.44056" lon="2.69729">
        <ele>147</ele>
        <time>2017-05-17T11:30:48.754</time>
      </trkpt>
      <trkpt lat="48.44056" lon="2.6972">
        <ele>145</ele>
        <time>2017-05-17T11:30:49.754</time>
      </trkpt>
      <trkpt lat="48.44058" lon="2.69711">
        <ele>144</ele>
        <time>2017-05-17T11:30:50.754</time>
      </trkpt>
      <trkpt lat="48.44059" lon="2.69703">
        <ele>144</ele>
        <time>2017-05-17T11:30:51.757</time>
      </trkpt>
      <trkpt lat="48.4406" lon="2.69693">
        <ele>144</ele>
        <time>2017-05-17T11:30:52.755</time>
      </trkpt>
      <trkpt lat="48.44061" lon="2.69684">
        <ele>144</ele>
        <time>2017-05-17T11:30:53.759</time>
      </trkpt>
      <trkpt lat="48.44062" lon="2.69677">
        <ele>143</ele>
        <time>2017-05-17T11:30:54.755</time>
      </trkpt>
      <trkpt lat="48.44062" lon="2.69667">
        <ele>143</ele>
        <time>2017-05-17T11:30:55.755</time>
      </trkpt>
      <trkpt lat="48.44062" lon="2.69658">
        <ele>143</ele>
        <time>2017-05-17T11:30:56.756</time>
      </trkpt>
      <trkpt lat="48.44063" lon="2.69649">
        <ele>144</ele>
        <time>2017-05-17T11:30:57.755</time>
      </trkpt>
      <trkpt lat="48.44064" lon="2.6964">
        <ele>144</ele>
        <time>2017-05-17T11:30:58.757</time>
      </trkpt>
      <trkpt lat="48.44067" lon="2.69632">
        <ele>145</ele>
        <time>2017-05-17T11:30:59.757</time>
      </trkpt>
      <trkpt lat="48.44068" lon="2.69623">
        <ele>144</ele>
        <time>2017-05-17T11:31:00.754</time>
      </trkpt>
      <trkpt lat="48.44069" lon="2.69613">
        <ele>144</ele>
        <time>2017-05-17T11:31:01.755</time>
      </trkpt>
      <trkpt lat="48.4407" lon="2.69605">
        <ele>144</ele>
        <time>2017-05-17T11:31:02.755</time>
      </trkpt>
      <trkpt lat="48.44071" lon="2.69596">
        <ele>143</ele>
        <time>2017-05-17T11:31:03.755</time>
      </trkpt>
      <trkpt lat="48.44072" lon="2.69587">
        <ele>143</ele>
        <time>2017-05-17T11:31:04.755</time>
      </trkpt>
      <trkpt lat="48.44073" lon="2.69577">
        <ele>143</ele>
        <time>2017-05-17T11:31:05.755</time>
      </trkpt>
      <trkpt lat="48.44074" lon="2.69568">
        <ele>143</ele>
        <time>2017-05-17T11:31:06.755</time>
      </trkpt>
      <trkpt lat="48.44075" lon="2.69559">
        <ele>143</ele>
        <time>2017-05-17T11:31:07.755</time>
      </trkpt>
      <trkpt lat="48.44076" lon="2.6955">
        <ele>143</ele>
        <time>2017-05-17T11:31:08.755</time>
      </trkpt>
      <trkpt lat="48.44077" lon="2.69541">
        <ele>144</ele>
        <time>2017-05-17T11:31:09.757</time>
      </trkpt>
      <trkpt lat="48.44077" lon="2.69533">
        <ele>143</ele>
        <time>2017-05-17T11:31:10.755</time>
      </trkpt>
      <trkpt lat="48.44079" lon="2.69525">
        <ele>144</ele>
        <time>2017-05-17T11:31:11.755</time>
      </trkpt>
      <trkpt lat="48.4408" lon="2.69517">
        <ele>143</ele>
        <time>2017-05-17T11:31:12.756</time>
      </trkpt>
      <trkpt lat="48.44081" lon="2.69508">
        <ele>143</ele>
        <time>2017-05-17T11:31:13.756</time>
      </trkpt>
      <trkpt lat="48.44082" lon="2.69499">
        <ele>143</ele>
        <time>2017-05-17T11:31:14.756</time>
      </trkpt>
      <trkpt lat="48.44084" lon="2.69491">
        <ele>143</ele>
        <time>2017-05-17T11:31:15.756</time>
      </trkpt>
      <trkpt lat="48.44085" lon="2.69483">
        <ele>142</ele>
        <time>2017-05-17T11:31:16.756</time>
      </trkpt>
      <trkpt lat="48.44086" lon="2.69473">
        <ele>143</ele>
        <time>2017-05-17T11:31:17.757</time>
      </trkpt>
      <trkpt lat="48.44087" lon="2.69465">
        <ele>143</ele>
        <time>2017-05-17T11:31:18.758</time>
      </trkpt>
      <trkpt lat="48.44088" lon="2.69456">
        <ele>143</ele>
        <time>2017-05-17T11:31:19.757</time>
      </trkpt>
      <trkpt lat="48.44089" lon="2.69449">
        <ele>142</ele>
        <time>2017-05-17T11:31:20.756</time>
      </trkpt>
      <trkpt lat="48.44089" lon="2.6944">
        <ele>142</ele>
        <time>2017-05-17T11:31:21.757</time>
      </trkpt>
      <trkpt lat="48.4409" lon="2.69432">
        <ele>142</ele>
        <time>2017-05-17T11:31:22.756</time>
      </trkpt>
      <trkpt lat="48.44087" lon="2.69424">
        <ele>141</ele>
        <time>2017-05-17T11:31:23.757</time>
      </trkpt>
      <trkpt lat="48.44085" lon="2.69416">
        <ele>141</ele>
        <time>2017-05-17T11:31:24.755</time>
      </trkpt>
      <trkpt lat="48.44083" lon="2.69408">
        <ele>141</ele>
        <time>2017-05-17T11:31:25.757</time>
      </trkpt>
      <trkpt lat="48.44081" lon="2.69401">
        <ele>140</ele>
        <time>2017-05-17T11:31:26.754</time>
      </trkpt>
      <trkpt lat="48.44079" lon="2.69394">
        <ele>140</ele>
        <time>2017-05-17T11:31:27.753</time>
      </trkpt>
      <trkpt lat="48.44077" lon="2.69387">
        <ele>139</ele>
        <time>2017-05-17T11:31:28.756</time>
      </trkpt>
      <trkpt lat="48.44075" lon="2.69381">
        <ele>138</ele>
        <time>2017-05-17T11:31:29.754</time>
      </trkpt>
      <trkpt lat="48.44073" lon="2.69375">
        <ele>138</ele>
        <time>2017-05-17T11:31:30.754</time>
      </trkpt>
      <trkpt lat="48.4407" lon="2.69367">
        <ele>138</ele>
        <time>2017-05-17T11:31:31.754</time>
      </trkpt>
      <trkpt lat="48.44068" lon="2.6936">
        <ele>139</ele>
        <time>2017-05-17T11:31:32.755</time>
      </trkpt>
      <trkpt lat="48.44065" lon="2.69353">
        <ele>139</ele>
        <time>2017-05-17T11:31:33.756</time>
      </trkpt>
      <trkpt lat="48.44063" lon="2.69346">
        <ele>139</ele>
        <time>2017-05-17T11:31:34.755</time>
      </trkpt>
      <trkpt lat="48.44062" lon="2.69339">
        <ele>139</ele>
        <time>2017-05-17T11:31:35.756</time>
      </trkpt>
      <trkpt lat="48.4406" lon="2.69332">
        <ele>139</ele>
        <time>2017-05-17T11:31:36.755</time>
      </trkpt>
      <trkpt lat="48.44058" lon="2.69324">
        <ele>139</ele>
        <time>2017-05-17T11:31:37.756</time>
      </trkpt>
      <trkpt lat="48.44056" lon="2.69318">
        <ele>139</ele>
        <time>2017-05-17T11:31:38.757</time>
      </trkpt>
      <trkpt lat="48.44054" lon="2.69311">
        <ele>139</ele>
        <time>2017-05-17T11:31:39.758</time>
      </trkpt>
      <trkpt lat="48.44052" lon="2.69305">
        <ele>139</ele>
        <time>2017-05-17T11:31:40.756</time>
      </trkpt>
      <trkpt lat="48.4405" lon="2.69298">
        <ele>138</ele>
        <time>2017-05-17T11:31:41.756</time>
      </trkpt>
      <trkpt lat="48.44048" lon="2.69291">
        <ele>138</ele>
        <time>2017-05-17T11:31:42.763</time>
      </trkpt>
      <trkpt lat="48.44045" lon="2.69285">
        <ele>138</ele>
        <time>2017-05-17T11:31:43.756</time>
      </trkpt>
      <trkpt lat="48.44044" lon="2.69278">
        <ele>138</ele>
        <time>2017-05-17T11:31:44.754</time>
      </trkpt>
      <trkpt lat="48.44042" lon="2.69273">
        <ele>138</ele>
        <time>2017-05-17T11:31:45.757</time>
      </trkpt>
      <trkpt lat="48.44041" lon="2.69268">
        <ele>138</ele>
        <time>2017-05-17T11:31:46.754</time>
      </trkpt>
      <trkpt lat="48.44039" lon="2.69263">
        <ele>138</ele>
        <time>2017-05-17T11:31:47.753</time>
      </trkpt>
      <trkpt lat="48.44038" lon="2.69258">
        <ele>138</ele>
        <time>2017-05-17T11:31:48.757</time>
      </trkpt>
      <trkpt lat="48.44036" lon="2.69253">
        <ele>138</ele>
        <time>2017-05-17T11:31:49.758</time>
      </trkpt>
      <trkpt lat="48.44034" lon="2.69247">
        <ele>138</ele>
        <time>2017-05-17T11:31:50.758</time>
      </trkpt>
      <trkpt lat="48.44032" lon="2.69242">
        <ele>137</ele>
        <time>2017-05-17T11:31:51.758</time>
      </trkpt>
      <trkpt lat="48.44031" lon="2.69236">
        <ele>137</ele>
        <time>2017-05-17T11:31:52.755</time>
      </trkpt>
      <trkpt lat="48.44029" lon="2.69231">
        <ele>137</ele>
        <time>2017-05-17T11:31:53.757</time>
      </trkpt>
      <trkpt lat="48.44027" lon="2.69226">
        <ele>138</ele>
        <time>2017-05-17T11:31:54.754</time>
      </trkpt>
      <trkpt lat="48.44025" lon="2.6922">
        <ele>138</ele>
        <time>2017-05-17T11:31:55.755</time>
      </trkpt>
      <trkpt lat="48.44023" lon="2.69214">
        <ele>139</ele>
        <time>2017-05-17T11:31:56.756</time>
      </trkpt>
      <trkpt lat="48.44021" lon="2.69209">
        <ele>139</ele>
        <time>2017-05-17T11:31:57.754</time>
      </trkpt>
      <trkpt lat="48.44019" lon="2.69203">
        <ele>139</ele>
        <time>2017-05-17T11:31:58.753</time>
      </trkpt>
      <trkpt lat="48.44018" lon="2.69198">
        <ele>138</ele>
        <time>2017-05-17T11:31:59.753</time>
      </trkpt>
      <trkpt lat="48.44015" lon="2.69192">
        <ele>138</ele>
        <time>2017-05-17T11:32:00.756</time>
      </trkpt>
      <trkpt lat="48.44014" lon="2.69185">
        <ele>138</ele>
        <time>2017-05-17T11:32:01.755</time>
      </trkpt>
      <trkpt lat="48.44011" lon="2.69177">
        <ele>138</ele>
        <time>2017-05-17T11:32:02.753</time>
      </trkpt>
      <trkpt lat="48.44009" lon="2.69169">
        <ele>138</ele>
        <time>2017-05-17T11:32:03.753</time>
      </trkpt>
      <trkpt lat="48.44006" lon="2.69161">
        <ele>138</ele>
        <time>2017-05-17T11:32:04.754</time>
      </trkpt>
      <trkpt lat="48.44004" lon="2.69155">
        <ele>138</ele>
        <time>2017-05-17T11:32:05.753</time>
      </trkpt>
      <trkpt lat="48.44002" lon="2.69148">
        <ele>139</ele>
        <time>2017-05-17T11:32:06.752</time>
      </trkpt>
      <trkpt lat="48.44" lon="2.69142">
        <ele>139</ele>
        <time>2017-05-17T11:32:07.755</time>
      </trkpt>
      <trkpt lat="48.43998" lon="2.69134">
        <ele>139</ele>
        <time>2017-05-17T11:32:08.755</time>
      </trkpt>
      <trkpt lat="48.43996" lon="2.69126">
        <ele>140</ele>
        <time>2017-05-17T11:32:09.760</time>
      </trkpt>
      <trkpt lat="48.43995" lon="2.69118">
        <ele>140</ele>
        <time>2017-05-17T11:32:10.754</time>
      </trkpt>
      <trkpt lat="48.43993" lon="2.6911">
        <ele>139</ele>
        <time>2017-05-17T11:32:11.755</time>
      </trkpt>
      <trkpt lat="48.43989" lon="2.69104">
        <ele>140</ele>
        <time>2017-05-17T11:32:12.758</time>
      </trkpt>
      <trkpt lat="48.43987" lon="2.69097">
        <ele>140</ele>
        <time>2017-05-17T11:32:13.757</time>
      </trkpt>
      <trkpt lat="48.43986" lon="2.69091">
        <ele>139</ele>
        <time>2017-05-17T11:32:14.757</time>
      </trkpt>
      <trkpt lat="48.43984" lon="2.69084">
        <ele>140</ele>
        <time>2017-05-17T11:32:15.755</time>
      </trkpt>
      <trkpt lat="48.43982" lon="2.69078">
        <ele>139</ele>
        <time>2017-05-17T11:32:16.755</time>
      </trkpt>
      <trkpt lat="48.4398" lon="2.69073">
        <ele>140</ele>
        <time>2017-05-17T11:32:17.755</time>
      </trkpt>
      <trkpt lat="48.43979" lon="2.69068">
        <ele>139</ele>
        <time>2017-05-17T11:32:18.755</time>
      </trkpt>
      <trkpt lat="48.43977" lon="2.69063">
        <ele>139</ele>
        <time>2017-05-17T11:32:19.753</time>
      </trkpt>
      <trkpt lat="48.43974" lon="2.69054">
        <ele>139</ele>
        <time>2017-05-17T11:32:21.907</time>
      </trkpt>
      <trkpt lat="48.43973" lon="2.6905">
        <ele>139</ele>
        <time>2017-05-17T11:32:22.755</time>
      </trkpt>
      <trkpt lat="48.43973" lon="2.69045">
        <ele>139</ele>
        <time>2017-05-17T11:32:23.756</time>
      </trkpt>
      <trkpt lat="48.43974" lon="2.69041">
        <ele>140</ele>
        <time>2017-05-17T11:32:24.755</time>
      </trkpt>
      <trkpt lat="48.43975" lon="2.69039">
        <ele>141</ele>
        <time>2017-05-17T11:32:25.757</time>
      </trkpt>
      <trkpt lat="48.43978" lon="2.69037">
        <ele>142</ele>
        <time>2017-05-17T11:32:26.756</time>
      </trkpt>
      <trkpt lat="48.43981" lon="2.69036">
        <ele>142</ele>
        <time>2017-05-17T11:32:27.754</time>
      </trkpt>
      <trkpt lat="48.43984" lon="2.69034">
        <ele>142</ele>
        <time>2017-05-17T11:32:28.754</time>
      </trkpt>
      <trkpt lat="48.43988" lon="2.69033">
        <ele>143</ele>
        <time>2017-05-17T11:32:29.756</time>
      </trkpt>
      <trkpt lat="48.43991" lon="2.6903">
        <ele>143</ele>
        <time>2017-05-17T11:32:30.755</time>
      </trkpt>
      <trkpt lat="48.43995" lon="2.69026">
        <ele>143</ele>
        <time>2017-05-17T11:32:31.756</time>
      </trkpt>
      <trkpt lat="48.43998" lon="2.69023">
        <ele>143</ele>
        <time>2017-05-17T11:32:32.756</time>
      </trkpt>
      <trkpt lat="48.44002" lon="2.69021">
        <ele>144</ele>
        <time>2017-05-17T11:32:33.754</time>
      </trkpt>
      <trkpt lat="48.44006" lon="2.69019">
        <ele>144</ele>
        <time>2017-05-17T11:32:34.753</time>
      </trkpt>
      <trkpt lat="48.44011" lon="2.69018">
        <ele>144</ele>
        <time>2017-05-17T11:32:35.754</time>
      </trkpt>
      <trkpt lat="48.44015" lon="2.69016">
        <ele>144</ele>
        <time>2017-05-17T11:32:36.753</time>
      </trkpt>
      <trkpt lat="48.44019" lon="2.69012">
        <ele>144</ele>
        <time>2017-05-17T11:32:37.755</time>
      </trkpt>
      <trkpt lat="48.44022" lon="2.69007">
        <ele>145</ele>
        <time>2017-05-17T11:32:38.755</time>
      </trkpt>
      <trkpt lat="48.44023" lon="2.69">
        <ele>145</ele>
        <time>2017-05-17T11:32:39.755</time>
      </trkpt>
      <trkpt lat="48.44025" lon="2.68995">
        <ele>144</ele>
        <time>2017-05-17T11:32:40.755</time>
      </trkpt>
      <trkpt lat="48.44026" lon="2.68989">
        <ele>144</ele>
        <time>2017-05-17T11:32:41.753</time>
      </trkpt>
      <trkpt lat="48.44026" lon="2.68982">
        <ele>144</ele>
        <time>2017-05-17T11:32:42.754</time>
      </trkpt>
      <trkpt lat="48.44024" lon="2.68977">
        <ele>145</ele>
        <time>2017-05-17T11:32:43.754</time>
      </trkpt>
      <trkpt lat="48.44022" lon="2.68973">
        <ele>145</ele>
        <time>2017-05-17T11:32:44.754</time>
      </trkpt>
      <trkpt lat="48.4402" lon="2.68968">
        <ele>145</ele>
        <time>2017-05-17T11:32:45.756</time>
      </trkpt>
      <trkpt lat="48.4402" lon="2.68964">
        <ele>145</ele>
        <time>2017-05-17T11:32:46.756</time>
      </trkpt>
      <trkpt lat="48.4402" lon="2.68959">
        <ele>145</ele>
        <time>2017-05-17T11:32:47.756</time>
      </trkpt>
      <trkpt lat="48.4402" lon="2.68954">
        <ele>144</ele>
        <time>2017-05-17T11:32:48.755</time>
      </trkpt>
      <trkpt lat="48.44021" lon="2.68949">
        <ele>145</ele>
        <time>2017-05-17T11:32:49.756</time>
      </trkpt>
      <trkpt lat="48.44022" lon="2.68944">
        <ele>145</ele>
        <time>2017-05-17T11:32:50.755</time>
      </trkpt>
      <trkpt lat="48.44024" lon="2.68941">
        <ele>145</ele>
        <time>2017-05-17T11:32:51.756</time>
      </trkpt>
      <trkpt lat="48.44027" lon="2.68939">
        <ele>145</ele>
        <time>2017-05-17T11:32:52.759</time>
      </trkpt>
      <trkpt lat="48.44033" lon="2.68939">
        <ele>146</ele>
        <time>2017-05-17T11:32:53.757</time>
      </trkpt>
      <trkpt lat="48.44038" lon="2.68937">
        <ele>147</ele>
        <time>2017-05-17T11:32:54.756</time>
      </trkpt>
      <trkpt lat="48.44043" lon="2.68937">
        <ele>148</ele>
        <time>2017-05-17T11:32:55.758</time>
      </trkpt>
      <trkpt lat="48.44048" lon="2.68935">
        <ele>148</ele>
        <time>2017-05-17T11:32:56.757</time>
      </trkpt>
      <trkpt lat="48.44053" lon="2.68934">
        <ele>148</ele>
        <time>2017-05-17T11:32:57.756</time>
      </trkpt>
      <trkpt lat="48.44059" lon="2.68931">
        <ele>148</ele>
        <time>2017-05-17T11:32:58.755</time>
      </trkpt>
      <trkpt lat="48.44064" lon="2.68931">
        <ele>149</ele>
        <time>2017-05-17T11:32:59.755</time>
      </trkpt>
      <trkpt lat="48.44069" lon="2.6893">
        <ele>148</ele>
        <time>2017-05-17T11:33:00.808</time>
      </trkpt>
      <trkpt lat="48.44074" lon="2.68929">
        <ele>149</ele>
        <time>2017-05-17T11:33:01.757</time>
      </trkpt>
      <trkpt lat="48.44078" lon="2.68926">
        <ele>148</ele>
        <time>2017-05-17T11:33:02.757</time>
      </trkpt>
      <trkpt lat="48.44078" lon="2.68922">
        <ele>148</ele>
        <time>2017-05-17T11:33:03.755</time>
      </trkpt>
      <trkpt lat="48.44079" lon="2.68917">
        <ele>147</ele>
        <time>2017-05-17T11:33:04.755</time>
      </trkpt>
      <trkpt lat="48.44079" lon="2.68913">
        <ele>147</ele>
        <time>2017-05-17T11:33:05.756</time>
      </trkpt>
      <trkpt lat="48.44074" lon="2.68907">
        <ele>147</ele>
        <time>2017-05-17T11:33:06.756</time>
      </trkpt>
      <trkpt lat="48.44071" lon="2.68901">
        <ele>145</ele>
        <time>2017-05-17T11:33:07.754</time>
      </trkpt>
      <trkpt lat="48.44069" lon="2.68896">
        <ele>144</ele>
        <time>2017-05-17T11:33:08.753</time>
      </trkpt>
      <trkpt lat="48.44067" lon="2.6889">
        <ele>144</ele>
        <time>2017-05-17T11:33:09.755</time>
      </trkpt>
      <trkpt lat="48.44066" lon="2.68885">
        <ele>143</ele>
        <time>2017-05-17T11:33:10.755</time>
      </trkpt>
      <trkpt lat="48.44066" lon="2.68877">
        <ele>143</ele>
        <time>2017-05-17T11:33:11.754</time>
      </trkpt>
      <trkpt lat="48.44065" lon="2.68872">
        <ele>142</ele>
        <time>2017-05-17T11:33:12.756</time>
      </trkpt>
      <trkpt lat="48.44063" lon="2.68866">
        <ele>142</ele>
        <time>2017-05-17T11:33:13.755</time>
      </trkpt>
      <trkpt lat="48.44062" lon="2.68862">
        <ele>141</ele>
        <time>2017-05-17T11:33:14.756</time>
      </trkpt>
      <trkpt lat="48.4406" lon="2.68856">
        <ele>141</ele>
        <time>2017-05-17T11:33:15.756</time>
      </trkpt>
      <trkpt lat="48.44057" lon="2.68851">
        <ele>142</ele>
        <time>2017-05-17T11:33:16.758</time>
      </trkpt>
      <trkpt lat="48.44055" lon="2.68846">
        <ele>143</ele>
        <time>2017-05-17T11:33:17.757</time>
      </trkpt>
      <trkpt lat="48.44054" lon="2.68842">
        <ele>143</ele>
        <time>2017-05-17T11:33:18.754</time>
      </trkpt>
      <trkpt lat="48.44052" lon="2.68837">
        <ele>142</ele>
        <time>2017-05-17T11:33:19.754</time>
      </trkpt>
      <trkpt lat="48.4405" lon="2.68834">
        <ele>142</ele>
        <time>2017-05-17T11:33:20.757</time>
      </trkpt>
      <trkpt lat="48.44049" lon="2.68831">
        <ele>141</ele>
        <time>2017-05-17T11:33:21.756</time>
      </trkpt>
      <trkpt lat="48.44049" lon="2.68827">
        <ele>141</ele>
        <time>2017-05-17T11:33:22.756</time>
      </trkpt>
      <trkpt lat="48.44048" lon="2.68822">
        <ele>140</ele>
        <time>2017-05-17T11:33:23.755</time>
      </trkpt>
      <trkpt lat="48.44047" lon="2.68819">
        <ele>141</ele>
        <time>2017-05-17T11:33:24.754</time>
      </trkpt>
      <trkpt lat="48.44047" lon="2.68815">
        <ele>140</ele>
        <time>2017-05-17T11:33:25.755</time>
      </trkpt>
      <trkpt lat="48.44047" lon="2.68812">
        <ele>141</ele>
        <time>2017-05-17T11:33:26.755</time>
      </trkpt>
      <trkpt lat="48.44048" lon="2.6881">
        <ele>141</ele>
        <time>2017-05-17T11:33:27.755</time>
      </trkpt>
      <trkpt lat="48.44046" lon="2.68806">
        <ele>141</ele>
        <time>2017-05-17T11:33:28.754</time>
      </trkpt>
      <trkpt lat="48.44045" lon="2.68801">
        <ele>141</ele>
        <time>2017-05-17T11:33:29.755</time>
      </trkpt>
      <trkpt lat="48.44043" lon="2.68797">
        <ele>140</ele>
        <time>2017-05-17T11:33:30.756</time>
      </trkpt>
      <trkpt lat="48.44041" lon="2.68794">
        <ele>140</ele>
        <time>2017-05-17T11:33:31.756</time>
      </trkpt>
      <trkpt lat="48.4404" lon="2.68788">
        <ele>141</ele>
        <time>2017-05-17T11:33:32.754</time>
      </trkpt>
      <trkpt lat="48.44038" lon="2.68785">
        <ele>142</ele>
        <time>2017-05-17T11:33:33.755</time>
      </trkpt>
      <trkpt lat="48.44037" lon="2.68781">
        <ele>141</ele>
        <time>2017-05-17T11:33:34.756</time>
      </trkpt>
      <trkpt lat="48.44036" lon="2.68776">
        <ele>141</ele>
        <time>2017-05-17T11:33:35.755</time>
      </trkpt>
      <trkpt lat="48.44035" lon="2.68773">
        <ele>143</ele>
        <time>2017-05-17T11:33:36.755</time>
      </trkpt>
      <trkpt lat="48.44033" lon="2.68769">
        <ele>143</ele>
        <time>2017-05-17T11:33:37.755</time>
      </trkpt>
      <trkpt lat="48.4403" lon="2.68767">
        <ele>143</ele>
        <time>2017-05-17T11:33:38.755</time>
      </trkpt>
      <trkpt lat="48.44028" lon="2.68765">
        <ele>144</ele>
        <time>2017-05-17T11:33:39.756</time>
      </trkpt>
      <trkpt lat="48.44025" lon="2.68762">
        <ele>143</ele>
        <time>2017-05-17T11:33:40.756</time>
      </trkpt>
      <trkpt lat="48.44023" lon="2.68759">
        <ele>144</ele>
        <time>2017-05-17T11:33:41.756</time>
      </trkpt>
      <trkpt lat="48.44023" lon="2.68754">
        <ele>144</ele>
        <time>2017-05-17T11:33:42.754</time>
      </trkpt>
      <trkpt lat="48.44023" lon="2.6875">
        <ele>143</ele>
        <time>2017-05-17T11:33:43.753</time>
      </trkpt>
      <trkpt lat="48.44022" lon="2.68746">
        <ele>143</ele>
        <time>2017-05-17T11:33:44.754</time>
      </trkpt>
      <trkpt lat="48.4402" lon="2.68742">
        <ele>143</ele>
        <time>2017-05-17T11:33:45.755</time>
      </trkpt>
      <trkpt lat="48.44018" lon="2.68737">
        <ele>144</ele>
        <time>2017-05-17T11:33:46.757</time>
      </trkpt>
      <trkpt lat="48.44015" lon="2.68733">
        <ele>144</ele>
        <time>2017-05-17T11:33:47.757</time>
      </trkpt>
      <trkpt lat="48.44013" lon="2.68731">
        <ele>142</ele>
        <time>2017-05-17T11:33:48.755</time>
      </trkpt>
      <trkpt lat="48.4401" lon="2.68728">
        <ele>141</ele>
        <time>2017-05-17T11:33:49.755</time>
      </trkpt>
      <trkpt lat="48.44009" lon="2.68725">
        <ele>141</ele>
        <time>2017-05-17T11:33:50.754</time>
      </trkpt>
      <trkpt lat="48.44007" lon="2.68722">
        <ele>141</ele>
        <time>2017-05-17T11:33:51.754</time>
      </trkpt>
      <trkpt lat="48.44005" lon="2.68719">
        <ele>142</ele>
        <time>2017-05-17T11:33:52.755</time>
      </trkpt>
      <trkpt lat="48.44004" lon="2.68716">
        <ele>141</ele>
        <time>2017-05-17T11:33:53.754</time>
      </trkpt>
      <trkpt lat="48.44003" lon="2.68713">
        <ele>142</ele>
        <time>2017-05-17T11:33:54.757</time>
      </trkpt>
      <trkpt lat="48.44003" lon="2.6871">
        <ele>142</ele>
        <time>2017-05-17T11:33:55.755</time>
      </trkpt>
      <trkpt lat="48.44001" lon="2.68708">
        <ele>142</ele>
        <time>2017-05-17T11:33:56.755</time>
      </trkpt>
      <trkpt lat="48.43998" lon="2.68706">
        <ele>143</ele>
        <time>2017-05-17T11:33:57.755</time>
      </trkpt>
      <trkpt lat="48.43996" lon="2.68705">
        <ele>143</ele>
        <time>2017-05-17T11:33:58.756</time>
      </trkpt>
      <trkpt lat="48.43994" lon="2.68703">
        <ele>143</ele>
        <time>2017-05-17T11:33:59.755</time>
      </trkpt>
      <trkpt lat="48.43992" lon="2.68702">
        <ele>144</ele>
        <time>2017-05-17T11:34:00.755</time>
      </trkpt>
      <trkpt lat="48.43988" lon="2.68701">
        <ele>144</ele>
        <time>2017-05-17T11:34:01.754</time>
      </trkpt>
      <trkpt lat="48.43984" lon="2.68697">
        <ele>143</ele>
        <time>2017-05-17T11:34:02.755</time>
      </trkpt>
      <trkpt lat="48.43982" lon="2.68692">
        <ele>143</ele>
        <time>2017-05-17T11:34:03.755</time>
      </trkpt>
      <trkpt lat="48.4398" lon="2.68687">
        <ele>144</ele>
        <time>2017-05-17T11:34:04.755</time>
      </trkpt>
      <trkpt lat="48.43979" lon="2.68683">
        <ele>143</ele>
        <time>2017-05-17T11:34:05.756</time>
      </trkpt>
      <trkpt lat="48.4398" lon="2.68679">
        <ele>144</ele>
        <time>2017-05-17T11:34:06.756</time>
      </trkpt>
      <trkpt lat="48.43979" lon="2.68675">
        <ele>144</ele>
        <time>2017-05-17T11:34:07.754</time>
      </trkpt>
      <trkpt lat="48.4398" lon="2.68669">
        <ele>144</ele>
        <time>2017-05-17T11:34:08.753</time>
      </trkpt>
      <trkpt lat="48.43977" lon="2.68664">
        <ele>143</ele>
        <time>2017-05-17T11:34:09.756</time>
      </trkpt>
      <trkpt lat="48.43976" lon="2.68659">
        <ele>143</ele>
        <time>2017-05-17T11:34:10.756</time>
      </trkpt>
      <trkpt lat="48.43975" lon="2.68655">
        <ele>142</ele>
        <time>2017-05-17T11:34:11.756</time>
      </trkpt>
      <trkpt lat="48.43975" lon="2.6865">
        <ele>142</ele>
        <time>2017-05-17T11:34:12.754</time>
      </trkpt>
      <trkpt lat="48.43973" lon="2.68647">
        <ele>142</ele>
        <time>2017-05-17T11:34:13.757</time>
      </trkpt>
      <trkpt lat="48.43971" lon="2.68642">
        <ele>142</ele>
        <time>2017-05-17T11:34:14.755</time>
      </trkpt>
      <trkpt lat="48.43969" lon="2.68638">
        <ele>142</ele>
        <time>2017-05-17T11:34:15.757</time>
      </trkpt>
      <trkpt lat="48.43968" lon="2.68635">
        <ele>142</ele>
        <time>2017-05-17T11:34:16.756</time>
      </trkpt>
      <trkpt lat="48.43967" lon="2.68633">
        <ele>143</ele>
        <time>2017-05-17T11:34:17.755</time>
      </trkpt>
      <trkpt lat="48.43967" lon="2.6863">
        <ele>144</ele>
        <time>2017-05-17T11:34:18.754</time>
      </trkpt>
      <trkpt lat="48.43966" lon="2.68629">
        <ele>144</ele>
        <time>2017-05-17T11:34:19.756</time>
      </trkpt>
      <trkpt lat="48.43967" lon="2.68628">
        <ele>144</ele>
        <time>2017-05-17T11:34:20.754</time>
      </trkpt>
      <trkpt lat="48.43966" lon="2.68625">
        <ele>144</ele>
        <time>2017-05-17T11:34:21.754</time>
      </trkpt>
      <trkpt lat="48.43966" lon="2.68624">
        <ele>144</ele>
        <time>2017-05-17T11:34:22.755</time>
      </trkpt>
      <trkpt lat="48.43966" lon="2.68622">
        <ele>144</ele>
        <time>2017-05-17T11:34:23.754</time>
      </trkpt>
      <trkpt lat="48.43965" lon="2.68619">
        <ele>145</ele>
        <time>2017-05-17T11:34:24.758</time>
      </trkpt>
      <trkpt lat="48.43964" lon="2.68617">
        <ele>145</ele>
        <time>2017-05-17T11:34:25.754</time>
      </trkpt>
      <trkpt lat="48.43964" lon="2.68616">
        <ele>144</ele>
        <time>2017-05-17T11:34:26.756</time>
      </trkpt>
      <trkpt lat="48.43963" lon="2.68614">
        <ele>145</ele>
        <time>2017-05-17T11:34:27.755</time>
      </trkpt>
      <trkpt lat="48.43963" lon="2.68611">
        <ele>144</ele>
        <time>2017-05-17T11:34:28.755</time>
      </trkpt>
      <trkpt lat="48.43963" lon="2.68609">
        <ele>144</ele>
        <time>2017-05-17T11:34:29.756</time>
      </trkpt>
      <trkpt lat="48.43963" lon="2.68607">
        <ele>144</ele>
        <time>2017-05-17T11:34:30.756</time>
      </trkpt>
      <trkpt lat="48.43963" lon="2.68604">
        <ele>144</ele>
        <time>2017-05-17T11:34:31.756</time>
      </trkpt>
      <trkpt lat="48.43963" lon="2.68602">
        <ele>144</ele>
        <time>2017-05-17T11:34:32.755</time>
      </trkpt>
      <trkpt lat="48.43963" lon="2.686">
        <ele>144</ele>
        <time>2017-05-17T11:34:33.755</time>
      </trkpt>
      <trkpt lat="48.43963" lon="2.68598">
        <ele>145</ele>
        <time>2017-05-17T11:34:34.755</time>
      </trkpt>
      <trkpt lat="48.43963" lon="2.68597">
        <ele>145</ele>
        <time>2017-05-17T11:34:35.755</time>
      </trkpt>
      <trkpt lat="48.43963" lon="2.68595">
        <ele>145</ele>
        <time>2017-05-17T11:34:36.754</time>
      </trkpt>
      <trkpt lat="48.43963" lon="2.68593">
        <ele>145</ele>
        <time>2017-05-17T11:34:37.754</time>
      </trkpt>
      <trkpt lat="48.43962" lon="2.68591">
        <ele>145</ele>
        <time>2017-05-17T11:34:38.756</time>
      </trkpt>
      <trkpt lat="48.43961" lon="2.6859">
        <ele>146</ele>
        <time>2017-05-17T11:34:39.755</time>
      </trkpt>
      <trkpt lat="48.4396" lon="2.68587">
        <ele>147</ele>
        <time>2017-05-17T11:34:40.755</time>
      </trkpt>
      <trkpt lat="48.4396" lon="2.68586">
        <ele>147</ele>
        <time>2017-05-17T11:34:41.755</time>
      </trkpt>
      <trkpt lat="48.4396" lon="2.68584">
        <ele>148</ele>
        <time>2017-05-17T11:34:42.757</time>
      </trkpt>
      <trkpt lat="48.4396" lon="2.68582">
        <ele>148</ele>
        <time>2017-05-17T11:34:43.758</time>
      </trkpt>
      <trkpt lat="48.4396" lon="2.6858">
        <ele>148</ele>
        <time>2017-05-17T11:34:44.756</time>
      </trkpt>
      <trkpt lat="48.4396" lon="2.68578">
        <ele>149</ele>
        <time>2017-05-17T11:34:45.756</time>
      </trkpt>
      <trkpt lat="48.4396" lon="2.68576">
        <ele>149</ele>
        <time>2017-05-17T11:34:46.756</time>
      </trkpt>
      <trkpt lat="48.4396" lon="2.68575">
        <ele>149</ele>
        <time>2017-05-17T11:34:47.755</time>
      </trkpt>
      <trkpt lat="48.4396" lon="2.68573">
        <ele>149</ele>
        <time>2017-05-17T11:34:48.753</time>
      </trkpt>
      <trkpt lat="48.43961" lon="2.68573">
        <ele>149</ele>
        <time>2017-05-17T11:34:49.754</time>
      </trkpt>
      <trkpt lat="48.43962" lon="2.68571">
        <ele>149</ele>
        <time>2017-05-17T11:34:50.753</time>
      </trkpt>
      <trkpt lat="48.43962" lon="2.68569">
        <ele>149</ele>
        <time>2017-05-17T11:34:51.753</time>
      </trkpt>
      <trkpt lat="48.43962" lon="2.68568">
        <ele>149</ele>
        <time>2017-05-17T11:34:52.753</time>
      </trkpt>
      <trkpt lat="48.43962" lon="2.68567">
        <ele>149</ele>
        <time>2017-05-17T11:34:53.753</time>
      </trkpt>
      <trkpt lat="48.43962" lon="2.68566">
        <ele>149</ele>
        <time>2017-05-17T11:34:54.753</time>
      </trkpt>
      <trkpt lat="48.43962" lon="2.68565">
        <ele>149</ele>
        <time>2017-05-17T11:34:55.753</time>
      </trkpt>
      <trkpt lat="48.43963" lon="2.68563">
        <ele>148</ele>
        <time>2017-05-17T11:34:56.753</time>
      </trkpt>
      <trkpt lat="48.43963" lon="2.68562">
        <ele>149</ele>
        <time>2017-05-17T11:34:57.753</time>
      </trkpt>
      <trkpt lat="48.43962" lon="2.68561">
        <ele>149</ele>
        <time>2017-05-17T11:34:58.753</time>
      </trkpt>
      <trkpt lat="48.4396" lon="2.6856">
        <ele>148</ele>
        <time>2017-05-17T11:34:59.753</time>
      </trkpt>
      <trkpt lat="48.43959" lon="2.68558">
        <ele>148</ele>
        <time>2017-05-17T11:35:00.753</time>
      </trkpt>
      <trkpt lat="48.43959" lon="2.68555">
        <ele>148</ele>
        <time>2017-05-17T11:35:01.754</time>
      </trkpt>
      <trkpt lat="48.4396" lon="2.68554">
        <ele>148</ele>
        <time>2017-05-17T11:35:02.754</time>
      </trkpt>
      <trkpt lat="48.4396" lon="2.68553">
        <ele>148</ele>
        <time>2017-05-17T11:35:03.754</time>
      </trkpt>
      <trkpt lat="48.43961" lon="2.68552">
        <ele>148</ele>
        <time>2017-05-17T11:35:04.754</time>
      </trkpt>
      <trkpt lat="48.4396" lon="2.68552">
        <ele>148</ele>
        <time>2017-05-17T11:35:05.753</time>
      </trkpt>
      <trkpt lat="48.4396" lon="2.68552">
        <ele>148</ele>
        <time>2017-05-17T11:35:06.752</time>
      </trkpt>
      <trkpt lat="48.4396" lon="2.68552">
        <ele>149</ele>
        <time>2017-05-17T11:35:07.753</time>
      </trkpt>
      <trkpt lat="48.43961" lon="2.68552">
        <ele>149</ele>
        <time>2017-05-17T11:35:08.752</time>
      </trkpt>
      <trkpt lat="48.43961" lon="2.68552">
        <ele>150</ele>
        <time>2017-05-17T11:35:09.752</time>
      </trkpt>
      <trkpt lat="48.43961" lon="2.68552">
        <ele>150</ele>
        <time>2017-05-17T11:35:10.751</time>
      </trkpt>
      <trkpt lat="48.43961" lon="2.68552">
        <ele>151</ele>
        <time>2017-05-17T11:35:11.751</time>
      </trkpt>
      <trkpt lat="48.43961" lon="2.68552">
        <ele>151</ele>
        <time>2017-05-17T11:35:12.751</time>
      </trkpt>
      <trkpt lat="48.4396" lon="2.68552">
        <ele>152</ele>
        <time>2017-05-17T11:35:13.756</time>
      </trkpt>
      <trkpt lat="48.43961" lon="2.68552">
        <ele>152</ele>
        <time>2017-05-17T11:35:14.752</time>
      </trkpt>
      <trkpt lat="48.4396" lon="2.68552">
        <ele>152</ele>
        <time>2017-05-17T11:35:15.753</time>
      </trkpt>
      <trkpt lat="48.4396" lon="2.68552">
        <ele>152</ele>
        <time>2017-05-17T11:35:16.758</time>
      </trkpt>
      <trkpt lat="48.4396" lon="2.68551">
        <ele>152</ele>
        <time>2017-05-17T11:35:17.757</time>
      </trkpt>
      <trkpt lat="48.43959" lon="2.6855">
        <ele>153</ele>
        <time>2017-05-17T11:35:18.757</time>
      </trkpt>
      <trkpt lat="48.43959" lon="2.6855">
        <ele>153</ele>
        <time>2017-05-17T11:35:19.753</time>
      </trkpt>
      <trkpt lat="48.43959" lon="2.6855">
        <ele>152</ele>
        <time>2017-05-17T11:35:20.757</time>
      </trkpt>
      <trkpt lat="48.43959" lon="2.6855">
        <ele>152</ele>
        <time>2017-05-17T11:35:21.756</time>
      </trkpt>
      <trkpt lat="48.43959" lon="2.68549">
        <ele>152</ele>
        <time>2017-05-17T11:35:22.757</time>
      </trkpt>
      <trkpt lat="48.43958" lon="2.68549">
        <ele>152</ele>
        <time>2017-05-17T11:35:23.762</time>
      </trkpt>
      <trkpt lat="48.43958" lon="2.68549">
        <ele>152</ele>
        <time>2017-05-17T11:35:24.757</time>
      </trkpt>
      <trkpt lat="48.43958" lon="2.68549">
        <ele>152</ele>
        <time>2017-05-17T11:35:25.753</time>
      </trkpt>
      <trkpt lat="48.43958" lon="2.6855">
        <ele>152</ele>
        <time>2017-05-17T11:35:26.752</time>
      </trkpt>
      <trkpt lat="48.43958" lon="2.6855">
        <ele>152</ele>
        <time>2017-05-17T11:35:27.753</time>
      </trkpt>
      <trkpt lat="48.43958" lon="2.6855">
        <ele>153</ele>
        <time>2017-05-17T11:35:28.754</time>
      </trkpt>
      <trkpt lat="48.43958" lon="2.6855">
        <ele>153</ele>
        <time>2017-05-17T11:35:29.753</time>
      </trkpt>
      <trkpt lat="48.43958" lon="2.6855">
        <ele>153</ele>
        <time>2017-05-17T11:35:30.754</time>
      </trkpt>
      <trkpt lat="48.43958" lon="2.6855">
        <ele>153</ele>
        <time>2017-05-17T11:35:31.753</time>
      </trkpt>
      <trkpt lat="48.43958" lon="2.6855">
        <ele>153</ele>
        <time>2017-05-17T11:35:32.754</time>
      </trkpt>
      <trkpt lat="48.43958" lon="2.6855">
        <ele>153</ele>
        <time>2017-05-17T11:35:33.753</time>
      </trkpt>
      <trkpt lat="48.43957" lon="2.6855">
        <ele>153</ele>
        <time>2017-05-17T11:35:34.754</time>
      </trkpt>
      <trkpt lat="48.43957" lon="2.68548">
        <ele>152</ele>
        <time>2017-05-17T11:35:35.754</time>
      </trkpt>
      <trkpt lat="48.43956" lon="2.68546">
        <ele>152</ele>
        <time>2017-05-17T11:35:36.754</time>
      </trkpt>
      <trkpt lat="48.43955" lon="2.68543">
        <ele>153</ele>
        <time>2017-05-17T11:35:37.754</time>
      </trkpt>
      <trkpt lat="48.43955" lon="2.68541">
        <ele>153</ele>
        <time>2017-05-17T11:35:38.755</time>
      </trkpt>
      <trkpt lat="48.43955" lon="2.68538">
        <ele>152</ele>
        <time>2017-05-17T11:35:39.756</time>
      </trkpt>
      <trkpt lat="48.43954" lon="2.68535">
        <ele>153</ele>
        <time>2017-05-17T11:35:40.756</time>
      </trkpt>
      <trkpt lat="48.43953" lon="2.68531">
        <ele>152</ele>
        <time>2017-05-17T11:35:41.756</time>
      </trkpt>
      <trkpt lat="48.43953" lon="2.68526">
        <ele>151</ele>
        <time>2017-05-17T11:35:42.755</time>
      </trkpt>
      <trkpt lat="48.43953" lon="2.68521">
        <ele>151</ele>
        <time>2017-05-17T11:35:43.757</time>
      </trkpt>
      <trkpt lat="48.43953" lon="2.68517">
        <ele>150</ele>
        <time>2017-05-17T11:35:44.754</time>
      </trkpt>
      <trkpt lat="48.43954" lon="2.68513">
        <ele>150</ele>
        <time>2017-05-17T11:35:45.755</time>
      </trkpt>
      <trkpt lat="48.43955" lon="2.68509">
        <ele>150</ele>
        <time>2017-05-17T11:35:46.756</time>
      </trkpt>
      <trkpt lat="48.43956" lon="2.68507">
        <ele>148</ele>
        <time>2017-05-17T11:35:47.754</time>
      </trkpt>
      <trkpt lat="48.43957" lon="2.68505">
        <ele>148</ele>
        <time>2017-05-17T11:35:48.754</time>
      </trkpt>
      <trkpt lat="48.43957" lon="2.68503">
        <ele>147</ele>
        <time>2017-05-17T11:35:49.754</time>
      </trkpt>
      <trkpt lat="48.43958" lon="2.68501">
        <ele>147</ele>
        <time>2017-05-17T11:35:50.755</time>
      </trkpt>
      <trkpt lat="48.43958" lon="2.68498">
        <ele>147</ele>
        <time>2017-05-17T11:35:51.754</time>
      </trkpt>
      <trkpt lat="48.43958" lon="2.68496">
        <ele>147</ele>
        <time>2017-05-17T11:35:52.756</time>
      </trkpt>
      <trkpt lat="48.43958" lon="2.68494">
        <ele>147</ele>
        <time>2017-05-17T11:35:53.754</time>
      </trkpt>
      <trkpt lat="48.43958" lon="2.6849">
        <ele>147</ele>
        <time>2017-05-17T11:35:54.755</time>
      </trkpt>
      <trkpt lat="48.43959" lon="2.68487">
        <ele>145</ele>
        <time>2017-05-17T11:35:55.754</time>
      </trkpt>
      <trkpt lat="48.43958" lon="2.68484">
        <ele>145</ele>
        <time>2017-05-17T11:35:56.754</time>
      </trkpt>
      <trkpt lat="48.43958" lon="2.68479">
        <ele>145</ele>
        <time>2017-05-17T11:35:57.756</time>
      </trkpt>
      <trkpt lat="48.43958" lon="2.68474">
        <ele>146</ele>
        <time>2017-05-17T11:35:58.757</time>
      </trkpt>
      <trkpt lat="48.43958" lon="2.6847">
        <ele>146</ele>
        <time>2017-05-17T11:35:59.754</time>
      </trkpt>
      <trkpt lat="48.43959" lon="2.68466">
        <ele>146</ele>
        <time>2017-05-17T11:36:00.756</time>
      </trkpt>
      <trkpt lat="48.4396" lon="2.68462">
        <ele>147</ele>
        <time>2017-05-17T11:36:01.754</time>
      </trkpt>
      <trkpt lat="48.43961" lon="2.6846">
        <ele>147</ele>
        <time>2017-05-17T11:36:02.755</time>
      </trkpt>
      <trkpt lat="48.43961" lon="2.68456">
        <ele>148</ele>
        <time>2017-05-17T11:36:03.756</time>
      </trkpt>
      <trkpt lat="48.43959" lon="2.68451">
        <ele>149</ele>
        <time>2017-05-17T11:36:04.757</time>
      </trkpt>
      <trkpt lat="48.43958" lon="2.68448">
        <ele>148</ele>
        <time>2017-05-17T11:36:05.754</time>
      </trkpt>
      <trkpt lat="48.43958" lon="2.68446">
        <ele>148</ele>
        <time>2017-05-17T11:36:06.754</time>
      </trkpt>
      <trkpt lat="48.43956" lon="2.68442">
        <ele>148</ele>
        <time>2017-05-17T11:36:07.756</time>
      </trkpt>
      <trkpt lat="48.43956" lon="2.68439">
        <ele>148</ele>
        <time>2017-05-17T11:36:08.756</time>
      </trkpt>
      <trkpt lat="48.43957" lon="2.68436">
        <ele>148</ele>
        <time>2017-05-17T11:36:09.754</time>
      </trkpt>
      <trkpt lat="48.43959" lon="2.68434">
        <ele>148</ele>
        <time>2017-05-17T11:36:10.753</time>
      </trkpt>
      <trkpt lat="48.4396" lon="2.68432">
        <ele>148</ele>
        <time>2017-05-17T11:36:11.756</time>
      </trkpt>
      <trkpt lat="48.4396" lon="2.6843">
        <ele>148</ele>
        <time>2017-05-17T11:36:12.754</time>
      </trkpt>
      <trkpt lat="48.43959" lon="2.68428">
        <ele>148</ele>
        <time>2017-05-17T11:36:13.755</time>
      </trkpt>
      <trkpt lat="48.43956" lon="2.68428">
        <ele>149</ele>
        <time>2017-05-17T11:36:14.755</time>
      </trkpt>
      <trkpt lat="48.43953" lon="2.68426">
        <ele>149</ele>
        <time>2017-05-17T11:36:15.755</time>
      </trkpt>
      <trkpt lat="48.43951" lon="2.68422">
        <ele>149</ele>
        <time>2017-05-17T11:36:16.757</time>
      </trkpt>
      <trkpt lat="48.43949" lon="2.6842">
        <ele>150</ele>
        <time>2017-05-17T11:36:17.755</time>
      </trkpt>
      <trkpt lat="48.43948" lon="2.68416">
        <ele>150</ele>
        <time>2017-05-17T11:36:18.758</time>
      </trkpt>
      <trkpt lat="48.43948" lon="2.68412">
        <ele>150</ele>
        <time>2017-05-17T11:36:19.755</time>
      </trkpt>
      <trkpt lat="48.43947" lon="2.68411">
        <ele>149</ele>
        <time>2017-05-17T11:36:20.755</time>
      </trkpt>
      <trkpt lat="48.43946" lon="2.68407">
        <ele>149</ele>
        <time>2017-05-17T11:36:21.754</time>
      </trkpt>
      <trkpt lat="48.43946" lon="2.68405">
        <ele>150</ele>
        <time>2017-05-17T11:36:22.755</time>
      </trkpt>
      <trkpt lat="48.43946" lon="2.68402">
        <ele>149</ele>
        <time>2017-05-17T11:36:23.755</time>
      </trkpt>
      <trkpt lat="48.43947" lon="2.68399">
        <ele>149</ele>
        <time>2017-05-17T11:36:24.754</time>
      </trkpt>
      <trkpt lat="48.43947" lon="2.68395">
        <ele>149</ele>
        <time>2017-05-17T11:36:25.755</time>
      </trkpt>
      <trkpt lat="48.43947" lon="2.68392">
        <ele>150</ele>
        <time>2017-05-17T11:36:26.756</time>
      </trkpt>
      <trkpt lat="48.43945" lon="2.68388">
        <ele>150</ele>
        <time>2017-05-17T11:36:27.757</time>
      </trkpt>
      <trkpt lat="48.43943" lon="2.68384">
        <ele>149</ele>
        <time>2017-05-17T11:36:28.755</time>
      </trkpt>
      <trkpt lat="48.43938" lon="2.68378">
        <ele>149</ele>
        <time>2017-05-17T11:36:29.756</time>
      </trkpt>
      <trkpt lat="48.43936" lon="2.68371">
        <ele>148</ele>
        <time>2017-05-17T11:36:30.754</time>
      </trkpt>
      <trkpt lat="48.43935" lon="2.68365">
        <ele>149</ele>
        <time>2017-05-17T11:36:31.755</time>
      </trkpt>
      <trkpt lat="48.43936" lon="2.68361">
        <ele>149</ele>
        <time>2017-05-17T11:36:32.755</time>
      </trkpt>
      <trkpt lat="48.43937" lon="2.68357">
        <ele>147</ele>
        <time>2017-05-17T11:36:33.755</time>
      </trkpt>
      <trkpt lat="48.43937" lon="2.68352">
        <ele>146</ele>
        <time>2017-05-17T11:36:34.755</time>
      </trkpt>
      <trkpt lat="48.43934" lon="2.68346">
        <ele>146</ele>
        <time>2017-05-17T11:36:35.757</time>
      </trkpt>
      <trkpt lat="48.43933" lon="2.68338">
        <ele>146</ele>
        <time>2017-05-17T11:36:36.755</time>
      </trkpt>
      <trkpt lat="48.43933" lon="2.68332">
        <ele>145</ele>
        <time>2017-05-17T11:36:37.756</time>
      </trkpt>
      <trkpt lat="48.43931" lon="2.68325">
        <ele>146</ele>
        <time>2017-05-17T11:36:38.756</time>
      </trkpt>
      <trkpt lat="48.43929" lon="2.68321">
        <ele>146</ele>
        <time>2017-05-17T11:36:39.756</time>
      </trkpt>
      <trkpt lat="48.43926" lon="2.68316">
        <ele>147</ele>
        <time>2017-05-17T11:36:40.756</time>
      </trkpt>
      <trkpt lat="48.43924" lon="2.68311">
        <ele>147</ele>
        <time>2017-05-17T11:36:41.757</time>
      </trkpt>
      <trkpt lat="48.43921" lon="2.68306">
        <ele>147</ele>
        <time>2017-05-17T11:36:42.756</time>
      </trkpt>
      <trkpt lat="48.43917" lon="2.68302">
        <ele>147</ele>
        <time>2017-05-17T11:36:43.754</time>
      </trkpt>
      <trkpt lat="48.43913" lon="2.68298">
        <ele>146</ele>
        <time>2017-05-17T11:36:44.755</time>
      </trkpt>
      <trkpt lat="48.43908" lon="2.68295">
        <ele>147</ele>
        <time>2017-05-17T11:36:45.756</time>
      </trkpt>
      <trkpt lat="48.43903" lon="2.68294">
        <ele>147</ele>
        <time>2017-05-17T11:36:46.756</time>
      </trkpt>
      <trkpt lat="48.43901" lon="2.68294">
        <ele>147</ele>
        <time>2017-05-17T11:36:47.755</time>
      </trkpt>
      <trkpt lat="48.439" lon="2.68293">
        <ele>147</ele>
        <time>2017-05-17T11:36:48.756</time>
      </trkpt>
      <trkpt lat="48.43901" lon="2.68291">
        <ele>147</ele>
        <time>2017-05-17T11:36:49.755</time>
      </trkpt>
      <trkpt lat="48.43902" lon="2.68289">
        <ele>146</ele>
        <time>2017-05-17T11:36:50.756</time>
      </trkpt>
      <trkpt lat="48.43903" lon="2.68286">
        <ele>146</ele>
        <time>2017-05-17T11:36:51.755</time>
      </trkpt>
      <trkpt lat="48.43904" lon="2.68282">
        <ele>145</ele>
        <time>2017-05-17T11:36:52.754</time>
      </trkpt>
      <trkpt lat="48.43905" lon="2.68279">
        <ele>146</ele>
        <time>2017-05-17T11:36:53.755</time>
      </trkpt>
      <trkpt lat="48.43905" lon="2.68274">
        <ele>146</ele>
        <time>2017-05-17T11:36:54.755</time>
      </trkpt>
      <trkpt lat="48.43903" lon="2.68271">
        <ele>144</ele>
        <time>2017-05-17T11:36:55.756</time>
      </trkpt>
      <trkpt lat="48.43901" lon="2.68268">
        <ele>143</ele>
        <time>2017-05-17T11:36:56.756</time>
      </trkpt>
      <trkpt lat="48.43898" lon="2.68266">
        <ele>144</ele>
        <time>2017-05-17T11:36:57.754</time>
      </trkpt>
      <trkpt lat="48.43897" lon="2.68265">
        <ele>143</ele>
        <time>2017-05-17T11:36:58.753</time>
      </trkpt>
      <trkpt lat="48.43894" lon="2.68263">
        <ele>144</ele>
        <time>2017-05-17T11:36:59.753</time>
      </trkpt>
      <trkpt lat="48.43892" lon="2.68263">
        <ele>144</ele>
        <time>2017-05-17T11:37:00.754</time>
      </trkpt>
      <trkpt lat="48.4389" lon="2.68263">
        <ele>144</ele>
        <time>2017-05-17T11:37:01.755</time>
      </trkpt>
      <trkpt lat="48.43887" lon="2.6826">
        <ele>143</ele>
        <time>2017-05-17T11:37:02.754</time>
      </trkpt>
      <trkpt lat="48.43886" lon="2.68256">
        <ele>143</ele>
        <time>2017-05-17T11:37:03.754</time>
      </trkpt>
      <trkpt lat="48.43885" lon="2.68252">
        <ele>143</ele>
        <time>2017-05-17T11:37:04.756</time>
      </trkpt>
      <trkpt lat="48.43888" lon="2.68248">
        <ele>144</ele>
        <time>2017-05-17T11:37:05.754</time>
      </trkpt>
      <trkpt lat="48.43889" lon="2.68241">
        <ele>145</ele>
        <time>2017-05-17T11:37:06.755</time>
      </trkpt>
      <trkpt lat="48.4389" lon="2.68236">
        <ele>144</ele>
        <time>2017-05-17T11:37:07.754</time>
      </trkpt>
      <trkpt lat="48.43891" lon="2.68231">
        <ele>144</ele>
        <time>2017-05-17T11:37:08.754</time>
      </trkpt>
      <trkpt lat="48.43892" lon="2.68226">
        <ele>143</ele>
        <time>2017-05-17T11:37:09.754</time>
      </trkpt>
      <trkpt lat="48.43893" lon="2.6822">
        <ele>144</ele>
        <time>2017-05-17T11:37:10.753</time>
      </trkpt>
      <trkpt lat="48.43895" lon="2.68215">
        <ele>144</ele>
        <time>2017-05-17T11:37:11.755</time>
      </trkpt>
      <trkpt lat="48.43896" lon="2.6821">
        <ele>145</ele>
        <time>2017-05-17T11:37:12.756</time>
      </trkpt>
      <trkpt lat="48.43896" lon="2.68206">
        <ele>145</ele>
        <time>2017-05-17T11:37:13.756</time>
      </trkpt>
      <trkpt lat="48.43896" lon="2.68201">
        <ele>145</ele>
        <time>2017-05-17T11:37:14.755</time>
      </trkpt>
      <trkpt lat="48.43896" lon="2.68196">
        <ele>144</ele>
        <time>2017-05-17T11:37:15.755</time>
      </trkpt>
      <trkpt lat="48.43898" lon="2.68191">
        <ele>144</ele>
        <time>2017-05-17T11:37:16.756</time>
      </trkpt>
      <trkpt lat="48.43898" lon="2.68185">
        <ele>144</ele>
        <time>2017-05-17T11:37:17.756</time>
      </trkpt>
      <trkpt lat="48.43898" lon="2.68179">
        <ele>144</ele>
        <time>2017-05-17T11:37:18.754</time>
      </trkpt>
      <trkpt lat="48.43899" lon="2.68173">
        <ele>144</ele>
        <time>2017-05-17T11:37:19.755</time>
      </trkpt>
      <trkpt lat="48.439" lon="2.68167">
        <ele>145</ele>
        <time>2017-05-17T11:37:20.756</time>
      </trkpt>
      <trkpt lat="48.43901" lon="2.68163">
        <ele>145</ele>
        <time>2017-05-17T11:37:21.756</time>
      </trkpt>
      <trkpt lat="48.43901" lon="2.68157">
        <ele>145</ele>
        <time>2017-05-17T11:37:22.754</time>
      </trkpt>
      <trkpt lat="48.43902" lon="2.68152">
        <ele>145</ele>
        <time>2017-05-17T11:37:23.755</time>
      </trkpt>
      <trkpt lat="48.43902" lon="2.68145">
        <ele>145</ele>
        <time>2017-05-17T11:37:24.756</time>
      </trkpt>
      <trkpt lat="48.43903" lon="2.6814">
        <ele>145</ele>
        <time>2017-05-17T11:37:25.756</time>
      </trkpt>
      <trkpt lat="48.43904" lon="2.68135">
        <ele>146</ele>
        <time>2017-05-17T11:37:26.755</time>
      </trkpt>
      <trkpt lat="48.43905" lon="2.68129">
        <ele>146</ele>
        <time>2017-05-17T11:37:27.754</time>
      </trkpt>
      <trkpt lat="48.43906" lon="2.68124">
        <ele>146</ele>
        <time>2017-05-17T11:37:28.756</time>
      </trkpt>
      <trkpt lat="48.43907" lon="2.6812">
        <ele>145</ele>
        <time>2017-05-17T11:37:29.756</time>
      </trkpt>
      <trkpt lat="48.43907" lon="2.68114">
        <ele>145</ele>
        <time>2017-05-17T11:37:30.755</time>
      </trkpt>
      <trkpt lat="48.43909" lon="2.6811">
        <ele>145</ele>
        <time>2017-05-17T11:37:31.755</time>
      </trkpt>
      <trkpt lat="48.43909" lon="2.68105">
        <ele>144</ele>
        <time>2017-05-17T11:37:32.755</time>
      </trkpt>
      <trkpt lat="48.43909" lon="2.68099">
        <ele>144</ele>
        <time>2017-05-17T11:37:33.754</time>
      </trkpt>
      <trkpt lat="48.4391" lon="2.68094">
        <ele>144</ele>
        <time>2017-05-17T11:37:34.754</time>
      </trkpt>
      <trkpt lat="48.4391" lon="2.68089">
        <ele>145</ele>
        <time>2017-05-17T11:37:35.755</time>
      </trkpt>
      <trkpt lat="48.4391" lon="2.68082">
        <ele>145</ele>
        <time>2017-05-17T11:37:36.755</time>
      </trkpt>
      <trkpt lat="48.4391" lon="2.68077">
        <ele>145</ele>
        <time>2017-05-17T11:37:37.755</time>
      </trkpt>
      <trkpt lat="48.4391" lon="2.68071">
        <ele>144</ele>
        <time>2017-05-17T11:37:38.754</time>
      </trkpt>
      <trkpt lat="48.43911" lon="2.68067">
        <ele>144</ele>
        <time>2017-05-17T11:37:39.753</time>
      </trkpt>
      <trkpt lat="48.4391" lon="2.6806">
        <ele>145</ele>
        <time>2017-05-17T11:37:40.753</time>
      </trkpt>
      <trkpt lat="48.4391" lon="2.68053">
        <ele>146</ele>
        <time>2017-05-17T11:37:41.754</time>
      </trkpt>
      <trkpt lat="48.43911" lon="2.68046">
        <ele>146</ele>
        <time>2017-05-17T11:37:42.755</time>
      </trkpt>
      <trkpt lat="48.43911" lon="2.68041">
        <ele>145</ele>
        <time>2017-05-17T11:37:43.754</time>
      </trkpt>
      <trkpt lat="48.43911" lon="2.68036">
        <ele>146</ele>
        <time>2017-05-17T11:37:44.755</time>
      </trkpt>
      <trkpt lat="48.43912" lon="2.68031">
        <ele>145</ele>
        <time>2017-05-17T11:37:45.753</time>
      </trkpt>
      <trkpt lat="48.43912" lon="2.68025">
        <ele>146</ele>
        <time>2017-05-17T11:37:46.755</time>
      </trkpt>
      <trkpt lat="48.43913" lon="2.6802">
        <ele>146</ele>
        <time>2017-05-17T11:37:47.755</time>
      </trkpt>
      <trkpt lat="48.43913" lon="2.68014">
        <ele>145</ele>
        <time>2017-05-17T11:37:48.756</time>
      </trkpt>
      <trkpt lat="48.43913" lon="2.68008">
        <ele>144</ele>
        <time>2017-05-17T11:37:49.755</time>
      </trkpt>
      <trkpt lat="48.43913" lon="2.68002">
        <ele>144</ele>
        <time>2017-05-17T11:37:50.755</time>
      </trkpt>
      <trkpt lat="48.43914" lon="2.67997">
        <ele>144</ele>
        <time>2017-05-17T11:37:51.756</time>
      </trkpt>
      <trkpt lat="48.43914" lon="2.67991">
        <ele>143</ele>
        <time>2017-05-17T11:37:52.754</time>
      </trkpt>
      <trkpt lat="48.43915" lon="2.67985">
        <ele>142</ele>
        <time>2017-05-17T11:37:53.753</time>
      </trkpt>
      <trkpt lat="48.43915" lon="2.6798">
        <ele>141</ele>
        <time>2017-05-17T11:37:54.754</time>
      </trkpt>
      <trkpt lat="48.43916" lon="2.67975">
        <ele>138</ele>
        <time>2017-05-17T11:37:55.759</time>
      </trkpt>
      <trkpt lat="48.43917" lon="2.6797">
        <ele>137</ele>
        <time>2017-05-17T11:37:56.754</time>
      </trkpt>
      <trkpt lat="48.43917" lon="2.67963">
        <ele>136</ele>
        <time>2017-05-17T11:37:57.754</time>
      </trkpt>
      <trkpt lat="48.43917" lon="2.67956">
        <ele>136</ele>
        <time>2017-05-17T11:37:58.754</time>
      </trkpt>
      <trkpt lat="48.43917" lon="2.67949">
        <ele>136</ele>
        <time>2017-05-17T11:37:59.752</time>
      </trkpt>
      <trkpt lat="48.43917" lon="2.67941">
        <ele>136</ele>
        <time>2017-05-17T11:38:00.753</time>
      </trkpt>
      <trkpt lat="48.43917" lon="2.67934">
        <ele>136</ele>
        <time>2017-05-17T11:38:01.755</time>
      </trkpt>
      <trkpt lat="48.43917" lon="2.67928">
        <ele>136</ele>
        <time>2017-05-17T11:38:02.754</time>
      </trkpt>
      <trkpt lat="48.43916" lon="2.67922">
        <ele>136</ele>
        <time>2017-05-17T11:38:03.753</time>
      </trkpt>
      <trkpt lat="48.43917" lon="2.67917">
        <ele>137</ele>
        <time>2017-05-17T11:38:04.754</time>
      </trkpt>
      <trkpt lat="48.43917" lon="2.6791">
        <ele>137</ele>
        <time>2017-05-17T11:38:05.754</time>
      </trkpt>
      <trkpt lat="48.43917" lon="2.67903">
        <ele>137</ele>
        <time>2017-05-17T11:38:06.754</time>
      </trkpt>
      <trkpt lat="48.43918" lon="2.67899">
        <ele>136</ele>
        <time>2017-05-17T11:38:07.754</time>
      </trkpt>
      <trkpt lat="48.43919" lon="2.67892">
        <ele>136</ele>
        <time>2017-05-17T11:38:08.754</time>
      </trkpt>
      <trkpt lat="48.43918" lon="2.67887">
        <ele>137</ele>
        <time>2017-05-17T11:38:09.756</time>
      </trkpt>
      <trkpt lat="48.43918" lon="2.67879">
        <ele>137</ele>
        <time>2017-05-17T11:38:10.753</time>
      </trkpt>
      <trkpt lat="48.43917" lon="2.67873">
        <ele>138</ele>
        <time>2017-05-17T11:38:11.754</time>
      </trkpt>
      <trkpt lat="48.43918" lon="2.67866">
        <ele>140</ele>
        <time>2017-05-17T11:38:12.754</time>
      </trkpt>
      <trkpt lat="48.43918" lon="2.67859">
        <ele>141</ele>
        <time>2017-05-17T11:38:13.755</time>
      </trkpt>
      <trkpt lat="48.43917" lon="2.67854">
        <ele>141</ele>
        <time>2017-05-17T11:38:14.755</time>
      </trkpt>
      <trkpt lat="48.43918" lon="2.6785">
        <ele>141</ele>
        <time>2017-05-17T11:38:15.755</time>
      </trkpt>
      <trkpt lat="48.43918" lon="2.67843">
        <ele>142</ele>
        <time>2017-05-17T11:38:16.755</time>
      </trkpt>
      <trkpt lat="48.43919" lon="2.67837">
        <ele>140</ele>
        <time>2017-05-17T11:38:17.756</time>
      </trkpt>
      <trkpt lat="48.43919" lon="2.67832">
        <ele>140</ele>
        <time>2017-05-17T11:38:18.757</time>
      </trkpt>
      <trkpt lat="48.43919" lon="2.67825">
        <ele>140</ele>
        <time>2017-05-17T11:38:19.758</time>
      </trkpt>
      <trkpt lat="48.43919" lon="2.67817">
        <ele>140</ele>
        <time>2017-05-17T11:38:20.756</time>
      </trkpt>
      <trkpt lat="48.43919" lon="2.67811">
        <ele>140</ele>
        <time>2017-05-17T11:38:21.757</time>
      </trkpt>
      <trkpt lat="48.43919" lon="2.67803">
        <ele>140</ele>
        <time>2017-05-17T11:38:22.762</time>
      </trkpt>
      <trkpt lat="48.43919" lon="2.67793">
        <ele>141</ele>
        <time>2017-05-17T11:38:23.762</time>
      </trkpt>
      <trkpt lat="48.43919" lon="2.67785">
        <ele>142</ele>
        <time>2017-05-17T11:38:24.763</time>
      </trkpt>
      <trkpt lat="48.43919" lon="2.67776">
        <ele>142</ele>
        <time>2017-05-17T11:38:25.763</time>
      </trkpt>
      <trkpt lat="48.43919" lon="2.67768">
        <ele>142</ele>
        <time>2017-05-17T11:38:26.762</time>
      </trkpt>
      <trkpt lat="48.43919" lon="2.67758">
        <ele>143</ele>
        <time>2017-05-17T11:38:27.755</time>
      </trkpt>
      <trkpt lat="48.43919" lon="2.6775">
        <ele>143</ele>
        <time>2017-05-17T11:38:28.754</time>
      </trkpt>
      <trkpt lat="48.4392" lon="2.67742">
        <ele>145</ele>
        <time>2017-05-17T11:38:29.755</time>
      </trkpt>
      <trkpt lat="48.4392" lon="2.67735">
        <ele>144</ele>
        <time>2017-05-17T11:38:30.756</time>
      </trkpt>
      <trkpt lat="48.4392" lon="2.67727">
        <ele>144</ele>
        <time>2017-05-17T11:38:31.755</time>
      </trkpt>
      <trkpt lat="48.4392" lon="2.6772">
        <ele>144</ele>
        <time>2017-05-17T11:38:32.773</time>
      </trkpt>
      <trkpt lat="48.43921" lon="2.67712">
        <ele>146</ele>
        <time>2017-05-17T11:38:33.756</time>
      </trkpt>
      <trkpt lat="48.43922" lon="2.67705">
        <ele>145</ele>
        <time>2017-05-17T11:38:34.755</time>
      </trkpt>
      <trkpt lat="48.43922" lon="2.67697">
        <ele>145</ele>
        <time>2017-05-17T11:38:35.756</time>
      </trkpt>
      <trkpt lat="48.43923" lon="2.67691">
        <ele>146</ele>
        <time>2017-05-17T11:38:36.755</time>
      </trkpt>
      <trkpt lat="48.43924" lon="2.67684">
        <ele>146</ele>
        <time>2017-05-17T11:38:37.756</time>
      </trkpt>
      <trkpt lat="48.43925" lon="2.67678">
        <ele>146</ele>
        <time>2017-05-17T11:38:38.755</time>
      </trkpt>
      <trkpt lat="48.43925" lon="2.67671">
        <ele>146</ele>
        <time>2017-05-17T11:38:39.753</time>
      </trkpt>
      <trkpt lat="48.43924" lon="2.67664">
        <ele>147</ele>
        <time>2017-05-17T11:38:40.754</time>
      </trkpt>
      <trkpt lat="48.43924" lon="2.67658">
        <ele>148</ele>
        <time>2017-05-17T11:38:41.754</time>
      </trkpt>
      <trkpt lat="48.43925" lon="2.67654">
        <ele>148</ele>
        <time>2017-05-17T11:38:42.754</time>
      </trkpt>
      <trkpt lat="48.43926" lon="2.6765">
        <ele>148</ele>
        <time>2017-05-17T11:38:43.754</time>
      </trkpt>
      <trkpt lat="48.43927" lon="2.67647">
        <ele>148</ele>
        <time>2017-05-17T11:38:44.755</time>
      </trkpt>
      <trkpt lat="48.43928" lon="2.67643">
        <ele>148</ele>
        <time>2017-05-17T11:38:45.755</time>
      </trkpt>
      <trkpt lat="48.43929" lon="2.67639">
        <ele>148</ele>
        <time>2017-05-17T11:38:46.755</time>
      </trkpt>
      <trkpt lat="48.4393" lon="2.67637">
        <ele>148</ele>
        <time>2017-05-17T11:38:47.755</time>
      </trkpt>
      <trkpt lat="48.4393" lon="2.67634">
        <ele>147</ele>
        <time>2017-05-17T11:38:48.755</time>
      </trkpt>
      <trkpt lat="48.43931" lon="2.67632">
        <ele>146</ele>
        <time>2017-05-17T11:38:49.754</time>
      </trkpt>
      <trkpt lat="48.43931" lon="2.6763">
        <ele>147</ele>
        <time>2017-05-17T11:38:50.755</time>
      </trkpt>
      <trkpt lat="48.43932" lon="2.67626">
        <ele>147</ele>
        <time>2017-05-17T11:38:51.756</time>
      </trkpt>
      <trkpt lat="48.43931" lon="2.67622">
        <ele>147</ele>
        <time>2017-05-17T11:38:52.753</time>
      </trkpt>
      <trkpt lat="48.43932" lon="2.67617">
        <ele>148</ele>
        <time>2017-05-17T11:38:53.754</time>
      </trkpt>
      <trkpt lat="48.43934" lon="2.67614">
        <ele>148</ele>
        <time>2017-05-17T11:38:54.756</time>
      </trkpt>
      <trkpt lat="48.43934" lon="2.67611">
        <ele>148</ele>
        <time>2017-05-17T11:38:55.757</time>
      </trkpt>
      <trkpt lat="48.43935" lon="2.67607">
        <ele>147</ele>
        <time>2017-05-17T11:38:56.756</time>
      </trkpt>
      <trkpt lat="48.43936" lon="2.67603">
        <ele>147</ele>
        <time>2017-05-17T11:38:57.755</time>
      </trkpt>
      <trkpt lat="48.43936" lon="2.67599">
        <ele>147</ele>
        <time>2017-05-17T11:38:58.755</time>
      </trkpt>
      <trkpt lat="48.43936" lon="2.67596">
        <ele>147</ele>
        <time>2017-05-17T11:38:59.754</time>
      </trkpt>
      <trkpt lat="48.43937" lon="2.67592">
        <ele>147</ele>
        <time>2017-05-17T11:39:00.755</time>
      </trkpt>
      <trkpt lat="48.43938" lon="2.67589">
        <ele>148</ele>
        <time>2017-05-17T11:39:01.756</time>
      </trkpt>
      <trkpt lat="48.43939" lon="2.67585">
        <ele>147</ele>
        <time>2017-05-17T11:39:02.755</time>
      </trkpt>
      <trkpt lat="48.43939" lon="2.67581">
        <ele>148</ele>
        <time>2017-05-17T11:39:03.755</time>
      </trkpt>
      <trkpt lat="48.4394" lon="2.67578">
        <ele>148</ele>
        <time>2017-05-17T11:39:04.754</time>
      </trkpt>
      <trkpt lat="48.43941" lon="2.67574">
        <ele>148</ele>
        <time>2017-05-17T11:39:05.755</time>
      </trkpt>
      <trkpt lat="48.43942" lon="2.67571">
        <ele>148</ele>
        <time>2017-05-17T11:39:06.755</time>
      </trkpt>
      <trkpt lat="48.43943" lon="2.67568">
        <ele>149</ele>
        <time>2017-05-17T11:39:07.755</time>
      </trkpt>
      <trkpt lat="48.43943" lon="2.67564">
        <ele>149</ele>
        <time>2017-05-17T11:39:08.755</time>
      </trkpt>
      <trkpt lat="48.43943" lon="2.6756">
        <ele>150</ele>
        <time>2017-05-17T11:39:09.756</time>
      </trkpt>
      <trkpt lat="48.43944" lon="2.67555">
        <ele>150</ele>
        <time>2017-05-17T11:39:10.757</time>
      </trkpt>
      <trkpt lat="48.43945" lon="2.67551">
        <ele>151</ele>
        <time>2017-05-17T11:39:11.756</time>
      </trkpt>
      <trkpt lat="48.43946" lon="2.67544">
        <ele>152</ele>
        <time>2017-05-17T11:39:12.758</time>
      </trkpt>
      <trkpt lat="48.43945" lon="2.67541">
        <ele>153</ele>
        <time>2017-05-17T11:39:13.755</time>
      </trkpt>
      <trkpt lat="48.43945" lon="2.67537">
        <ele>153</ele>
        <time>2017-05-17T11:39:14.755</time>
      </trkpt>
      <trkpt lat="48.43946" lon="2.67533">
        <ele>152</ele>
        <time>2017-05-17T11:39:15.755</time>
      </trkpt>
      <trkpt lat="48.43946" lon="2.67528">
        <ele>152</ele>
        <time>2017-05-17T11:39:16.755</time>
      </trkpt>
      <trkpt lat="48.43947" lon="2.67524">
        <ele>152</ele>
        <time>2017-05-17T11:39:17.757</time>
      </trkpt>
      <trkpt lat="48.43948" lon="2.67521">
        <ele>152</ele>
        <time>2017-05-17T11:39:18.756</time>
      </trkpt>
      <trkpt lat="48.43948" lon="2.67516">
        <ele>152</ele>
        <time>2017-05-17T11:39:19.755</time>
      </trkpt>
      <trkpt lat="48.43949" lon="2.67512">
        <ele>152</ele>
        <time>2017-05-17T11:39:20.755</time>
      </trkpt>
      <trkpt lat="48.4395" lon="2.67508">
        <ele>152</ele>
        <time>2017-05-17T11:39:21.755</time>
      </trkpt>
      <trkpt lat="48.43951" lon="2.67504">
        <ele>152</ele>
        <time>2017-05-17T11:39:22.757</time>
      </trkpt>
      <trkpt lat="48.43951" lon="2.67499">
        <ele>152</ele>
        <time>2017-05-17T11:39:23.757</time>
      </trkpt>
      <trkpt lat="48.43951" lon="2.67494">
        <ele>152</ele>
        <time>2017-05-17T11:39:24.755</time>
      </trkpt>
      <trkpt lat="48.43952" lon="2.6749">
        <ele>152</ele>
        <time>2017-05-17T11:39:25.755</time>
      </trkpt>
      <trkpt lat="48.43953" lon="2.67485">
        <ele>153</ele>
        <time>2017-05-17T11:39:26.757</time>
      </trkpt>
      <trkpt lat="48.43952" lon="2.67481">
        <ele>153</ele>
        <time>2017-05-17T11:39:27.755</time>
      </trkpt>
      <trkpt lat="48.43952" lon="2.67477">
        <ele>153</ele>
        <time>2017-05-17T11:39:28.756</time>
      </trkpt>
      <trkpt lat="48.43953" lon="2.67473">
        <ele>152</ele>
        <time>2017-05-17T11:39:29.756</time>
      </trkpt>
      <trkpt lat="48.43954" lon="2.67471">
        <ele>152</ele>
        <time>2017-05-17T11:39:30.755</time>
      </trkpt>
      <trkpt lat="48.43955" lon="2.67467">
        <ele>152</ele>
        <time>2017-05-17T11:39:31.755</time>
      </trkpt>
      <trkpt lat="48.43954" lon="2.67462">
        <ele>153</ele>
        <time>2017-05-17T11:39:32.756</time>
      </trkpt>
      <trkpt lat="48.43954" lon="2.67457">
        <ele>153</ele>
        <time>2017-05-17T11:39:33.755</time>
      </trkpt>
      <trkpt lat="48.43955" lon="2.67453">
        <ele>154</ele>
        <time>2017-05-17T11:39:34.756</time>
      </trkpt>
      <trkpt lat="48.43956" lon="2.67449">
        <ele>153</ele>
        <time>2017-05-17T11:39:35.757</time>
      </trkpt>
      <trkpt lat="48.43956" lon="2.67445">
        <ele>153</ele>
        <time>2017-05-17T11:39:36.756</time>
      </trkpt>
      <trkpt lat="48.43957" lon="2.6744">
        <ele>153</ele>
        <time>2017-05-17T11:39:37.754</time>
      </trkpt>
      <trkpt lat="48.43958" lon="2.67436">
        <ele>153</ele>
        <time>2017-05-17T11:39:38.755</time>
      </trkpt>
      <trkpt lat="48.43959" lon="2.67432">
        <ele>154</ele>
        <time>2017-05-17T11:39:39.755</time>
      </trkpt>
      <trkpt lat="48.4396" lon="2.67428">
        <ele>153</ele>
        <time>2017-05-17T11:39:40.755</time>
      </trkpt>
      <trkpt lat="48.43961" lon="2.67423">
        <ele>153</ele>
        <time>2017-05-17T11:39:41.754</time>
      </trkpt>
      <trkpt lat="48.43962" lon="2.67418">
        <ele>153</ele>
        <time>2017-05-17T11:39:42.756</time>
      </trkpt>
      <trkpt lat="48.43962" lon="2.67413">
        <ele>153</ele>
        <time>2017-05-17T11:39:43.756</time>
      </trkpt>
      <trkpt lat="48.43964" lon="2.67409">
        <ele>154</ele>
        <time>2017-05-17T11:39:44.756</time>
      </trkpt>
      <trkpt lat="48.43965" lon="2.67403">
        <ele>155</ele>
        <time>2017-05-17T11:39:45.755</time>
      </trkpt>
      <trkpt lat="48.43967" lon="2.67399">
        <ele>155</ele>
        <time>2017-05-17T11:39:46.755</time>
      </trkpt>
      <trkpt lat="48.43968" lon="2.67395">
        <ele>156</ele>
        <time>2017-05-17T11:39:47.755</time>
      </trkpt>
      <trkpt lat="48.43969" lon="2.67391">
        <ele>156</ele>
        <time>2017-05-17T11:39:48.756</time>
      </trkpt>
      <trkpt lat="48.43971" lon="2.67387">
        <ele>156</ele>
        <time>2017-05-17T11:39:49.756</time>
      </trkpt>
      <trkpt lat="48.43972" lon="2.67382">
        <ele>156</ele>
        <time>2017-05-17T11:39:50.754</time>
      </trkpt>
      <trkpt lat="48.43974" lon="2.67377">
        <ele>156</ele>
        <time>2017-05-17T11:39:51.755</time>
      </trkpt>
      <trkpt lat="48.43975" lon="2.67373">
        <ele>156</ele>
        <time>2017-05-17T11:39:52.754</time>
      </trkpt>
      <trkpt lat="48.43976" lon="2.67369">
        <ele>156</ele>
        <time>2017-05-17T11:39:53.754</time>
      </trkpt>
      <trkpt lat="48.43977" lon="2.67365">
        <ele>155</ele>
        <time>2017-05-17T11:39:54.754</time>
      </trkpt>
      <trkpt lat="48.43979" lon="2.67362">
        <ele>156</ele>
        <time>2017-05-17T11:39:55.755</time>
      </trkpt>
      <trkpt lat="48.4398" lon="2.67358">
        <ele>156</ele>
        <time>2017-05-17T11:39:56.756</time>
      </trkpt>
      <trkpt lat="48.43982" lon="2.67355">
        <ele>156</ele>
        <time>2017-05-17T11:39:57.755</time>
      </trkpt>
      <trkpt lat="48.43982" lon="2.67351">
        <ele>155</ele>
        <time>2017-05-17T11:39:58.755</time>
      </trkpt>
      <trkpt lat="48.43984" lon="2.67349">
        <ele>155</ele>
        <time>2017-05-17T11:39:59.754</time>
      </trkpt>
      <trkpt lat="48.43985" lon="2.67346">
        <ele>155</ele>
        <time>2017-05-17T11:40:00.754</time>
      </trkpt>
      <trkpt lat="48.43986" lon="2.67343">
        <ele>155</ele>
        <time>2017-05-17T11:40:01.753</time>
      </trkpt>
      <trkpt lat="48.43988" lon="2.6734">
        <ele>155</ele>
        <time>2017-05-17T11:40:02.753</time>
      </trkpt>
      <trkpt lat="48.43989" lon="2.67336">
        <ele>156</ele>
        <time>2017-05-17T11:40:03.754</time>
      </trkpt>
      <trkpt lat="48.4399" lon="2.67333">
        <ele>156</ele>
        <time>2017-05-17T11:40:04.754</time>
      </trkpt>
      <trkpt lat="48.43992" lon="2.67329">
        <ele>156</ele>
        <time>2017-05-17T11:40:05.754</time>
      </trkpt>
      <trkpt lat="48.43993" lon="2.67326">
        <ele>156</ele>
        <time>2017-05-17T11:40:06.754</time>
      </trkpt>
      <trkpt lat="48.43994" lon="2.67322">
        <ele>157</ele>
        <time>2017-05-17T11:40:07.755</time>
      </trkpt>
      <trkpt lat="48.43995" lon="2.67319">
        <ele>158</ele>
        <time>2017-05-17T11:40:08.755</time>
      </trkpt>
      <trkpt lat="48.43997" lon="2.67316">
        <ele>158</ele>
        <time>2017-05-17T11:40:09.756</time>
      </trkpt>
      <trkpt lat="48.43998" lon="2.67312">
        <ele>158</ele>
        <time>2017-05-17T11:40:10.757</time>
      </trkpt>
      <trkpt lat="48.43999" lon="2.67308">
        <ele>157</ele>
        <time>2017-05-17T11:40:11.757</time>
      </trkpt>
      <trkpt lat="48.44" lon="2.67305">
        <ele>158</ele>
        <time>2017-05-17T11:40:12.757</time>
      </trkpt>
      <trkpt lat="48.44001" lon="2.673">
        <ele>159</ele>
        <time>2017-05-17T11:40:13.756</time>
      </trkpt>
      <trkpt lat="48.44003" lon="2.67297">
        <ele>159</ele>
        <time>2017-05-17T11:40:14.757</time>
      </trkpt>
      <trkpt lat="48.44004" lon="2.67294">
        <ele>158</ele>
        <time>2017-05-17T11:40:15.755</time>
      </trkpt>
      <trkpt lat="48.44005" lon="2.67292">
        <ele>158</ele>
        <time>2017-05-17T11:40:16.755</time>
      </trkpt>
      <trkpt lat="48.44006" lon="2.67289">
        <ele>158</ele>
        <time>2017-05-17T11:40:17.754</time>
      </trkpt>
      <trkpt lat="48.44008" lon="2.67286">
        <ele>158</ele>
        <time>2017-05-17T11:40:18.753</time>
      </trkpt>
      <trkpt lat="48.44009" lon="2.67283">
        <ele>158</ele>
        <time>2017-05-17T11:40:19.754</time>
      </trkpt>
      <trkpt lat="48.4401" lon="2.67281">
        <ele>158</ele>
        <time>2017-05-17T11:40:20.755</time>
      </trkpt>
      <trkpt lat="48.44012" lon="2.67277">
        <ele>158</ele>
        <time>2017-05-17T11:40:21.756</time>
      </trkpt>
      <trkpt lat="48.44013" lon="2.67274">
        <ele>158</ele>
        <time>2017-05-17T11:40:22.755</time>
      </trkpt>
      <trkpt lat="48.44014" lon="2.67271">
        <ele>158</ele>
        <time>2017-05-17T11:40:23.755</time>
      </trkpt>
      <trkpt lat="48.44015" lon="2.67267">
        <ele>159</ele>
        <time>2017-05-17T11:40:24.756</time>
      </trkpt>
      <trkpt lat="48.44015" lon="2.67262">
        <ele>159</ele>
        <time>2017-05-17T11:40:25.754</time>
      </trkpt>
      <trkpt lat="48.44016" lon="2.67259">
        <ele>159</ele>
        <time>2017-05-17T11:40:26.756</time>
      </trkpt>
      <trkpt lat="48.44017" lon="2.67256">
        <ele>159</ele>
        <time>2017-05-17T11:40:27.756</time>
      </trkpt>
      <trkpt lat="48.44019" lon="2.67252">
        <ele>159</ele>
        <time>2017-05-17T11:40:28.754</time>
      </trkpt>
      <trkpt lat="48.44019" lon="2.67248">
        <ele>159</ele>
        <time>2017-05-17T11:40:29.754</time>
      </trkpt>
      <trkpt lat="48.4402" lon="2.67244">
        <ele>159</ele>
        <time>2017-05-17T11:40:30.755</time>
      </trkpt>
      <trkpt lat="48.44021" lon="2.67242">
        <ele>160</ele>
        <time>2017-05-17T11:40:31.755</time>
      </trkpt>
      <trkpt lat="48.44023" lon="2.67238">
        <ele>160</ele>
        <time>2017-05-17T11:40:32.754</time>
      </trkpt>
      <trkpt lat="48.44024" lon="2.67235">
        <ele>159</ele>
        <time>2017-05-17T11:40:33.755</time>
      </trkpt>
      <trkpt lat="48.44025" lon="2.67231">
        <ele>159</ele>
        <time>2017-05-17T11:40:34.754</time>
      </trkpt>
      <trkpt lat="48.44026" lon="2.67228">
        <ele>160</ele>
        <time>2017-05-17T11:40:35.754</time>
      </trkpt>
      <trkpt lat="48.44027" lon="2.67225">
        <ele>160</ele>
        <time>2017-05-17T11:40:36.754</time>
      </trkpt>
      <trkpt lat="48.44028" lon="2.67223">
        <ele>160</ele>
        <time>2017-05-17T11:40:37.755</time>
      </trkpt>
      <trkpt lat="48.44029" lon="2.6722">
        <ele>160</ele>
        <time>2017-05-17T11:40:38.755</time>
      </trkpt>
      <trkpt lat="48.4403" lon="2.67217">
        <ele>160</ele>
        <time>2017-05-17T11:40:39.755</time>
      </trkpt>
      <trkpt lat="48.44031" lon="2.67214">
        <ele>161</ele>
        <time>2017-05-17T11:40:40.755</time>
      </trkpt>
      <trkpt lat="48.44032" lon="2.6721">
        <ele>162</ele>
        <time>2017-05-17T11:40:41.755</time>
      </trkpt>
      <trkpt lat="48.44033" lon="2.67207">
        <ele>163</ele>
        <time>2017-05-17T11:40:42.755</time>
      </trkpt>
      <trkpt lat="48.44034" lon="2.67203">
        <ele>163</ele>
        <time>2017-05-17T11:40:43.755</time>
      </trkpt>
      <trkpt lat="48.44036" lon="2.672">
        <ele>163</ele>
        <time>2017-05-17T11:40:44.756</time>
      </trkpt>
      <trkpt lat="48.44037" lon="2.67197">
        <ele>162</ele>
        <time>2017-05-17T11:40:45.754</time>
      </trkpt>
      <trkpt lat="48.44038" lon="2.67194">
        <ele>162</ele>
        <time>2017-05-17T11:40:46.756</time>
      </trkpt>
      <trkpt lat="48.4404" lon="2.67191">
        <ele>162</ele>
        <time>2017-05-17T11:40:47.755</time>
      </trkpt>
      <trkpt lat="48.44041" lon="2.67189">
        <ele>162</ele>
        <time>2017-05-17T11:40:48.755</time>
      </trkpt>
      <trkpt lat="48.44042" lon="2.67185">
        <ele>162</ele>
        <time>2017-05-17T11:40:49.758</time>
      </trkpt>
      <trkpt lat="48.44042" lon="2.67181">
        <ele>162</ele>
        <time>2017-05-17T11:40:50.755</time>
      </trkpt>
      <trkpt lat="48.44043" lon="2.67177">
        <ele>162</ele>
        <time>2017-05-17T11:40:51.754</time>
      </trkpt>
      <trkpt lat="48.44045" lon="2.67175">
        <ele>162</ele>
        <time>2017-05-17T11:40:52.754</time>
      </trkpt>
      <trkpt lat="48.44046" lon="2.67171">
        <ele>162</ele>
        <time>2017-05-17T11:40:53.754</time>
      </trkpt>
      <trkpt lat="48.44047" lon="2.67168">
        <ele>161</ele>
        <time>2017-05-17T11:40:54.754</time>
      </trkpt>
      <trkpt lat="48.44048" lon="2.67164">
        <ele>162</ele>
        <time>2017-05-17T11:40:55.754</time>
      </trkpt>
      <trkpt lat="48.4405" lon="2.6716">
        <ele>162</ele>
        <time>2017-05-17T11:40:56.754</time>
      </trkpt>
      <trkpt lat="48.4405" lon="2.67156">
        <ele>162</ele>
        <time>2017-05-17T11:40:57.754</time>
      </trkpt>
      <trkpt lat="48.44051" lon="2.67154">
        <ele>163</ele>
        <time>2017-05-17T11:40:58.754</time>
      </trkpt>
      <trkpt lat="48.44053" lon="2.67152">
        <ele>163</ele>
        <time>2017-05-17T11:40:59.755</time>
      </trkpt>
      <trkpt lat="48.44053" lon="2.67149">
        <ele>163</ele>
        <time>2017-05-17T11:41:00.754</time>
      </trkpt>
      <trkpt lat="48.44055" lon="2.67147">
        <ele>162</ele>
        <time>2017-05-17T11:41:01.752</time>
      </trkpt>
      <trkpt lat="48.44055" lon="2.67145">
        <ele>162</ele>
        <time>2017-05-17T11:41:02.753</time>
      </trkpt>
      <trkpt lat="48.44056" lon="2.67143">
        <ele>162</ele>
        <time>2017-05-17T11:41:03.754</time>
      </trkpt>
      <trkpt lat="48.44056" lon="2.6714">
        <ele>163</ele>
        <time>2017-05-17T11:41:04.754</time>
      </trkpt>
      <trkpt lat="48.44056" lon="2.67137">
        <ele>164</ele>
        <time>2017-05-17T11:41:05.753</time>
      </trkpt>
      <trkpt lat="48.44057" lon="2.67135">
        <ele>164</ele>
        <time>2017-05-17T11:41:06.753</time>
      </trkpt>
      <trkpt lat="48.44058" lon="2.67133">
        <ele>164</ele>
        <time>2017-05-17T11:41:07.753</time>
      </trkpt>
      <trkpt lat="48.44059" lon="2.67131">
        <ele>164</ele>
        <time>2017-05-17T11:41:08.753</time>
      </trkpt>
      <trkpt lat="48.44059" lon="2.67129">
        <ele>164</ele>
        <time>2017-05-17T11:41:09.754</time>
      </trkpt>
      <trkpt lat="48.4406" lon="2.67127">
        <ele>165</ele>
        <time>2017-05-17T11:41:10.753</time>
      </trkpt>
      <trkpt lat="48.4406" lon="2.67126">
        <ele>165</ele>
        <time>2017-05-17T11:41:11.753</time>
      </trkpt>
      <trkpt lat="48.44061" lon="2.67123">
        <ele>165</ele>
        <time>2017-05-17T11:41:12.754</time>
      </trkpt>
      <trkpt lat="48.44062" lon="2.67121">
        <ele>165</ele>
        <time>2017-05-17T11:41:13.754</time>
      </trkpt>
      <trkpt lat="48.44063" lon="2.67119">
        <ele>166</ele>
        <time>2017-05-17T11:41:14.754</time>
      </trkpt>
      <trkpt lat="48.44063" lon="2.67118">
        <ele>167</ele>
        <time>2017-05-17T11:41:15.754</time>
      </trkpt>
      <trkpt lat="48.44063" lon="2.67117">
        <ele>167</ele>
        <time>2017-05-17T11:41:16.753</time>
      </trkpt>
      <trkpt lat="48.44064" lon="2.67115">
        <ele>167</ele>
        <time>2017-05-17T11:41:17.755</time>
      </trkpt>
      <trkpt lat="48.44064" lon="2.67113">
        <ele>167</ele>
        <time>2017-05-17T11:41:18.755</time>
      </trkpt>
      <trkpt lat="48.44065" lon="2.67112">
        <ele>167</ele>
        <time>2017-05-17T11:41:19.753</time>
      </trkpt>
      <trkpt lat="48.44065" lon="2.6711">
        <ele>167</ele>
        <time>2017-05-17T11:41:20.756</time>
      </trkpt>
      <trkpt lat="48.44066" lon="2.67109">
        <ele>168</ele>
        <time>2017-05-17T11:41:21.754</time>
      </trkpt>
      <trkpt lat="48.44067" lon="2.67108">
        <ele>169</ele>
        <time>2017-05-17T11:41:22.752</time>
      </trkpt>
      <trkpt lat="48.44068" lon="2.67106">
        <ele>168</ele>
        <time>2017-05-17T11:41:23.752</time>
      </trkpt>
      <trkpt lat="48.44068" lon="2.67104">
        <ele>168</ele>
        <time>2017-05-17T11:41:24.755</time>
      </trkpt>
      <trkpt lat="48.44069" lon="2.67103">
        <ele>169</ele>
        <time>2017-05-17T11:41:25.761</time>
      </trkpt>
      <trkpt lat="48.4407" lon="2.67101">
        <ele>168</ele>
        <time>2017-05-17T11:41:26.760</time>
      </trkpt>
      <trkpt lat="48.44071" lon="2.671">
        <ele>169</ele>
        <time>2017-05-17T11:41:27.760</time>
      </trkpt>
      <trkpt lat="48.44072" lon="2.67098">
        <ele>169</ele>
        <time>2017-05-17T11:41:28.760</time>
      </trkpt>
      <trkpt lat="48.44073" lon="2.67097">
        <ele>169</ele>
        <time>2017-05-17T11:41:29.771</time>
      </trkpt>
      <trkpt lat="48.44074" lon="2.67095">
        <ele>169</ele>
        <time>2017-05-17T11:41:30.769</time>
      </trkpt>
      <trkpt lat="48.44074" lon="2.67093">
        <ele>169</ele>
        <time>2017-05-17T11:41:31.765</time>
      </trkpt>
      <trkpt lat="48.44075" lon="2.67092">
        <ele>169</ele>
        <time>2017-05-17T11:41:32.754</time>
      </trkpt>
      <trkpt lat="48.44076" lon="2.67091">
        <ele>169</ele>
        <time>2017-05-17T11:41:33.753</time>
      </trkpt>
      <trkpt lat="48.44077" lon="2.6709">
        <ele>169</ele>
        <time>2017-05-17T11:41:34.754</time>
      </trkpt>
      <trkpt lat="48.44078" lon="2.67089">
        <ele>169</ele>
        <time>2017-05-17T11:41:35.755</time>
      </trkpt>
      <trkpt lat="48.44079" lon="2.67088">
        <ele>169</ele>
        <time>2017-05-17T11:41:36.755</time>
      </trkpt>
      <trkpt lat="48.44079" lon="2.67086">
        <ele>169</ele>
        <time>2017-05-17T11:41:37.754</time>
      </trkpt>
      <trkpt lat="48.4408" lon="2.67085">
        <ele>169</ele>
        <time>2017-05-17T11:41:38.754</time>
      </trkpt>
      <trkpt lat="48.4408" lon="2.67084">
        <ele>170</ele>
        <time>2017-05-17T11:41:39.754</time>
      </trkpt>
      <trkpt lat="48.4408" lon="2.67083">
        <ele>169</ele>
        <time>2017-05-17T11:41:40.754</time>
      </trkpt>
      <trkpt lat="48.44081" lon="2.67082">
        <ele>169</ele>
        <time>2017-05-17T11:41:41.754</time>
      </trkpt>
      <trkpt lat="48.44082" lon="2.6708">
        <ele>170</ele>
        <time>2017-05-17T11:41:42.753</time>
      </trkpt>
      <trkpt lat="48.44082" lon="2.67079">
        <ele>169</ele>
        <time>2017-05-17T11:41:43.754</time>
      </trkpt>
      <trkpt lat="48.44083" lon="2.67078">
        <ele>170</ele>
        <time>2017-05-17T11:41:44.755</time>
      </trkpt>
      <trkpt lat="48.44083" lon="2.67076">
        <ele>169</ele>
        <time>2017-05-17T11:41:45.754</time>
      </trkpt>
      <trkpt lat="48.44084" lon="2.67075">
        <ele>169</ele>
        <time>2017-05-17T11:41:46.755</time>
      </trkpt>
      <trkpt lat="48.44085" lon="2.67073">
        <ele>169</ele>
        <time>2017-05-17T11:41:47.755</time>
      </trkpt>
      <trkpt lat="48.44085" lon="2.67071">
        <ele>169</ele>
        <time>2017-05-17T11:41:48.755</time>
      </trkpt>
      <trkpt lat="48.44086" lon="2.6707">
        <ele>169</ele>
        <time>2017-05-17T11:41:49.756</time>
      </trkpt>
      <trkpt lat="48.44087" lon="2.67068">
        <ele>169</ele>
        <time>2017-05-17T11:41:50.753</time>
      </trkpt>
      <trkpt lat="48.44087" lon="2.67066">
        <ele>169</ele>
        <time>2017-05-17T11:41:51.754</time>
      </trkpt>
      <trkpt lat="48.44088" lon="2.67064">
        <ele>168</ele>
        <time>2017-05-17T11:41:52.755</time>
      </trkpt>
      <trkpt lat="48.44088" lon="2.67062">
        <ele>169</ele>
        <time>2017-05-17T11:41:53.754</time>
      </trkpt>
      <trkpt lat="48.44089" lon="2.6706">
        <ele>169</ele>
        <time>2017-05-17T11:41:54.755</time>
      </trkpt>
      <trkpt lat="48.44089" lon="2.67058">
        <ele>169</ele>
        <time>2017-05-17T11:41:55.754</time>
      </trkpt>
      <trkpt lat="48.4409" lon="2.67057">
        <ele>169</ele>
        <time>2017-05-17T11:41:56.755</time>
      </trkpt>
      <trkpt lat="48.44091" lon="2.67055">
        <ele>168</ele>
        <time>2017-05-17T11:41:57.753</time>
      </trkpt>
      <trkpt lat="48.44091" lon="2.67054">
        <ele>167</ele>
        <time>2017-05-17T11:41:58.753</time>
      </trkpt>
      <trkpt lat="48.44091" lon="2.67053">
        <ele>167</ele>
        <time>2017-05-17T11:41:59.754</time>
      </trkpt>
      <trkpt lat="48.44092" lon="2.67051">
        <ele>167</ele>
        <time>2017-05-17T11:42:00.755</time>
      </trkpt>
      <trkpt lat="48.44092" lon="2.6705">
        <ele>169</ele>
        <time>2017-05-17T11:42:01.754</time>
      </trkpt>
      <trkpt lat="48.44093" lon="2.67048">
        <ele>169</ele>
        <time>2017-05-17T11:42:02.753</time>
      </trkpt>
      <trkpt lat="48.44093" lon="2.67047">
        <ele>169</ele>
        <time>2017-05-17T11:42:03.752</time>
      </trkpt>
      <trkpt lat="48.44094" lon="2.67046">
        <ele>169</ele>
        <time>2017-05-17T11:42:04.754</time>
      </trkpt>
      <trkpt lat="48.44094" lon="2.67044">
        <ele>169</ele>
        <time>2017-05-17T11:42:05.753</time>
      </trkpt>
      <trkpt lat="48.44094" lon="2.67043">
        <ele>169</ele>
        <time>2017-05-17T11:42:06.753</time>
      </trkpt>
      <trkpt lat="48.44095" lon="2.67041">
        <ele>169</ele>
        <time>2017-05-17T11:42:07.754</time>
      </trkpt>
      <trkpt lat="48.44096" lon="2.6704">
        <ele>170</ele>
        <time>2017-05-17T11:42:08.755</time>
      </trkpt>
      <trkpt lat="48.44096" lon="2.67038">
        <ele>171</ele>
        <time>2017-05-17T11:42:09.754</time>
      </trkpt>
      <trkpt lat="48.44096" lon="2.67035">
        <ele>172</ele>
        <time>2017-05-17T11:42:10.754</time>
      </trkpt>
      <trkpt lat="48.44097" lon="2.67033">
        <ele>172</ele>
        <time>2017-05-17T11:42:11.754</time>
      </trkpt>
      <trkpt lat="48.44098" lon="2.67032">
        <ele>172</ele>
        <time>2017-05-17T11:42:12.754</time>
      </trkpt>
      <trkpt lat="48.44098" lon="2.67029">
        <ele>172</ele>
        <time>2017-05-17T11:42:13.754</time>
      </trkpt>
      <trkpt lat="48.44099" lon="2.67028">
        <ele>172</ele>
        <time>2017-05-17T11:42:14.754</time>
      </trkpt>
      <trkpt lat="48.44099" lon="2.67026">
        <ele>173</ele>
        <time>2017-05-17T11:42:15.755</time>
      </trkpt>
      <trkpt lat="48.44099" lon="2.67024">
        <ele>173</ele>
        <time>2017-05-17T11:42:16.754</time>
      </trkpt>
      <trkpt lat="48.44099" lon="2.67022">
        <ele>173</ele>
        <time>2017-05-17T11:42:17.754</time>
      </trkpt>
      <trkpt lat="48.441" lon="2.67021">
        <ele>174</ele>
        <time>2017-05-17T11:42:18.754</time>
      </trkpt>
      <trkpt lat="48.441" lon="2.67019">
        <ele>174</ele>
        <time>2017-05-17T11:42:19.753</time>
      </trkpt>
      <trkpt lat="48.44101" lon="2.67017">
        <ele>174</ele>
        <time>2017-05-17T11:42:20.753</time>
      </trkpt>
      <trkpt lat="48.44101" lon="2.67016">
        <ele>175</ele>
        <time>2017-05-17T11:42:21.755</time>
      </trkpt>
      <trkpt lat="48.44101" lon="2.67015">
        <ele>175</ele>
        <time>2017-05-17T11:42:22.754</time>
      </trkpt>
      <trkpt lat="48.44102" lon="2.67013">
        <ele>175</ele>
        <time>2017-05-17T11:42:23.755</time>
      </trkpt>
      <trkpt lat="48.44102" lon="2.67011">
        <ele>176</ele>
        <time>2017-05-17T11:42:24.754</time>
      </trkpt>
      <trkpt lat="48.44103" lon="2.67008">
        <ele>176</ele>
        <time>2017-05-17T11:42:25.755</time>
      </trkpt>
      <trkpt lat="48.44103" lon="2.67006">
        <ele>176</ele>
        <time>2017-05-17T11:42:26.753</time>
      </trkpt>
      <trkpt lat="48.44104" lon="2.67004">
        <ele>177</ele>
        <time>2017-05-17T11:42:27.753</time>
      </trkpt>
      <trkpt lat="48.44104" lon="2.67002">
        <ele>177</ele>
        <time>2017-05-17T11:42:28.753</time>
      </trkpt>
      <trkpt lat="48.44104" lon="2.67">
        <ele>177</ele>
        <time>2017-05-17T11:42:29.752</time>
      </trkpt>
      <trkpt lat="48.44105" lon="2.66999">
        <ele>178</ele>
        <time>2017-05-17T11:42:30.754</time>
      </trkpt>
      <trkpt lat="48.44105" lon="2.66997">
        <ele>178</ele>
        <time>2017-05-17T11:42:31.755</time>
      </trkpt>
      <trkpt lat="48.44106" lon="2.66995">
        <ele>178</ele>
        <time>2017-05-17T11:42:32.755</time>
      </trkpt>
      <trkpt lat="48.44107" lon="2.66993">
        <ele>179</ele>
        <time>2017-05-17T11:42:33.755</time>
      </trkpt>
      <trkpt lat="48.44107" lon="2.66991">
        <ele>178</ele>
        <time>2017-05-17T11:42:34.756</time>
      </trkpt>
      <trkpt lat="48.44108" lon="2.66989">
        <ele>179</ele>
        <time>2017-05-17T11:42:35.755</time>
      </trkpt>
      <trkpt lat="48.44108" lon="2.66988">
        <ele>180</ele>
        <time>2017-05-17T11:42:36.756</time>
      </trkpt>
      <trkpt lat="48.44109" lon="2.66986">
        <ele>180</ele>
        <time>2017-05-17T11:42:37.755</time>
      </trkpt>
      <trkpt lat="48.44109" lon="2.66984">
        <ele>181</ele>
        <time>2017-05-17T11:42:38.756</time>
      </trkpt>
      <trkpt lat="48.4411" lon="2.66982">
        <ele>181</ele>
        <time>2017-05-17T11:42:39.755</time>
      </trkpt>
      <trkpt lat="48.4411" lon="2.66981">
        <ele>181</ele>
        <time>2017-05-17T11:42:40.755</time>
      </trkpt>
      <trkpt lat="48.44111" lon="2.66979">
        <ele>181</ele>
        <time>2017-05-17T11:42:41.754</time>
      </trkpt>
      <trkpt lat="48.44111" lon="2.66978">
        <ele>182</ele>
        <time>2017-05-17T11:42:42.753</time>
      </trkpt>
      <trkpt lat="48.44111" lon="2.66975">
        <ele>182</ele>
        <time>2017-05-17T11:42:43.754</time>
      </trkpt>
      <trkpt lat="48.44112" lon="2.66974">
        <ele>181</ele>
        <time>2017-05-17T11:42:44.754</time>
      </trkpt>
      <trkpt lat="48.44112" lon="2.66973">
        <ele>181</ele>
        <time>2017-05-17T11:42:45.753</time>
      </trkpt>
      <trkpt lat="48.44113" lon="2.66971">
        <ele>181</ele>
        <time>2017-05-17T11:42:46.755</time>
      </trkpt>
      <trkpt lat="48.44114" lon="2.66969">
        <ele>182</ele>
        <time>2017-05-17T11:42:47.755</time>
      </trkpt>
      <trkpt lat="48.44114" lon="2.66967">
        <ele>182</ele>
        <time>2017-05-17T11:42:48.755</time>
      </trkpt>
      <trkpt lat="48.44114" lon="2.66965">
        <ele>183</ele>
        <time>2017-05-17T11:42:49.754</time>
      </trkpt>
      <trkpt lat="48.44115" lon="2.66963">
        <ele>183</ele>
        <time>2017-05-17T11:42:50.754</time>
      </trkpt>
      <trkpt lat="48.44115" lon="2.66962">
        <ele>183</ele>
        <time>2017-05-17T11:42:51.753</time>
      </trkpt>
      <trkpt lat="48.44116" lon="2.6696">
        <ele>183</ele>
        <time>2017-05-17T11:42:52.753</time>
      </trkpt>
      <trkpt lat="48.44116" lon="2.66958">
        <ele>183</ele>
        <time>2017-05-17T11:42:53.754</time>
      </trkpt>
      <trkpt lat="48.44116" lon="2.66956">
        <ele>183</ele>
        <time>2017-05-17T11:42:54.753</time>
      </trkpt>
      <trkpt lat="48.44117" lon="2.66955">
        <ele>184</ele>
        <time>2017-05-17T11:42:55.753</time>
      </trkpt>
      <trkpt lat="48.44117" lon="2.66953">
        <ele>184</ele>
        <time>2017-05-17T11:42:56.753</time>
      </trkpt>
      <trkpt lat="48.44117" lon="2.66952">
        <ele>184</ele>
        <time>2017-05-17T11:42:57.753</time>
      </trkpt>
      <trkpt lat="48.44117" lon="2.6695">
        <ele>185</ele>
        <time>2017-05-17T11:42:58.755</time>
      </trkpt>
      <trkpt lat="48.44118" lon="2.66948">
        <ele>185</ele>
        <time>2017-05-17T11:42:59.753</time>
      </trkpt>
      <trkpt lat="48.44118" lon="2.66947">
        <ele>185</ele>
        <time>2017-05-17T11:43:00.754</time>
      </trkpt>
      <trkpt lat="48.44118" lon="2.66946">
        <ele>186</ele>
        <time>2017-05-17T11:43:01.755</time>
      </trkpt>
      <trkpt lat="48.44118" lon="2.66945">
        <ele>186</ele>
        <time>2017-05-17T11:43:02.755</time>
      </trkpt>
      <trkpt lat="48.44119" lon="2.66943">
        <ele>186</ele>
        <time>2017-05-17T11:43:03.756</time>
      </trkpt>
      <trkpt lat="48.4412" lon="2.66942">
        <ele>186</ele>
        <time>2017-05-17T11:43:04.753</time>
      </trkpt>
      <trkpt lat="48.4412" lon="2.66941">
        <ele>186</ele>
        <time>2017-05-17T11:43:05.753</time>
      </trkpt>
      <trkpt lat="48.4412" lon="2.6694">
        <ele>185</ele>
        <time>2017-05-17T11:43:06.754</time>
      </trkpt>
      <trkpt lat="48.44121" lon="2.66939">
        <ele>185</ele>
        <time>2017-05-17T11:43:07.752</time>
      </trkpt>
      <trkpt lat="48.44121" lon="2.66938">
        <ele>184</ele>
        <time>2017-05-17T11:43:08.754</time>
      </trkpt>
      <trkpt lat="48.44122" lon="2.66937">
        <ele>185</ele>
        <time>2017-05-17T11:43:09.753</time>
      </trkpt>
      <trkpt lat="48.44122" lon="2.66936">
        <ele>184</ele>
        <time>2017-05-17T11:43:10.753</time>
      </trkpt>
      <trkpt lat="48.44123" lon="2.66934">
        <ele>185</ele>
        <time>2017-05-17T11:43:11.755</time>
      </trkpt>
      <trkpt lat="48.44124" lon="2.66932">
        <ele>185</ele>
        <time>2017-05-17T11:43:12.757</time>
      </trkpt>
      <trkpt lat="48.44124" lon="2.66931">
        <ele>185</ele>
        <time>2017-05-17T11:43:13.754</time>
      </trkpt>
      <trkpt lat="48.44125" lon="2.66928">
        <ele>185</ele>
        <time>2017-05-17T11:43:14.755</time>
      </trkpt>
      <trkpt lat="48.44125" lon="2.66927">
        <ele>186</ele>
        <time>2017-05-17T11:43:15.756</time>
      </trkpt>
      <trkpt lat="48.44125" lon="2.66925">
        <ele>186</ele>
        <time>2017-05-17T11:43:16.757</time>
      </trkpt>
      <trkpt lat="48.44125" lon="2.66923">
        <ele>187</ele>
        <time>2017-05-17T11:43:17.755</time>
      </trkpt>
      <trkpt lat="48.44125" lon="2.66922">
        <ele>187</ele>
        <time>2017-05-17T11:43:18.756</time>
      </trkpt>
      <trkpt lat="48.44126" lon="2.6692">
        <ele>187</ele>
        <time>2017-05-17T11:43:19.755</time>
      </trkpt>
      <trkpt lat="48.44126" lon="2.66918">
        <ele>187</ele>
        <time>2017-05-17T11:43:20.755</time>
      </trkpt>
      <trkpt lat="48.44127" lon="2.66918">
        <ele>188</ele>
        <time>2017-05-17T11:43:21.755</time>
      </trkpt>
      <trkpt lat="48.44128" lon="2.66916">
        <ele>188</ele>
        <time>2017-05-17T11:43:22.755</time>
      </trkpt>
      <trkpt lat="48.44128" lon="2.66915">
        <ele>189</ele>
        <time>2017-05-17T11:43:23.753</time>
      </trkpt>
      <trkpt lat="48.44128" lon="2.66913">
        <ele>189</ele>
        <time>2017-05-17T11:43:24.754</time>
      </trkpt>
      <trkpt lat="48.44129" lon="2.66912">
        <ele>188</ele>
        <time>2017-05-17T11:43:25.754</time>
      </trkpt>
      <trkpt lat="48.44129" lon="2.6691">
        <ele>189</ele>
        <time>2017-05-17T11:43:26.756</time>
      </trkpt>
      <trkpt lat="48.4413" lon="2.66909">
        <ele>189</ele>
        <time>2017-05-17T11:43:27.755</time>
      </trkpt>
      <trkpt lat="48.4413" lon="2.66907">
        <ele>189</ele>
        <time>2017-05-17T11:43:28.755</time>
      </trkpt>
      <trkpt lat="48.44131" lon="2.66906">
        <ele>189</ele>
        <time>2017-05-17T11:43:29.755</time>
      </trkpt>
      <trkpt lat="48.44131" lon="2.66904">
        <ele>188</ele>
        <time>2017-05-17T11:43:30.756</time>
      </trkpt>
      <trkpt lat="48.44131" lon="2.66902">
        <ele>188</ele>
        <time>2017-05-17T11:43:31.756</time>
      </trkpt>
      <trkpt lat="48.44132" lon="2.66901">
        <ele>188</ele>
        <time>2017-05-17T11:43:32.754</time>
      </trkpt>
      <trkpt lat="48.44132" lon="2.66899">
        <ele>188</ele>
        <time>2017-05-17T11:43:33.753</time>
      </trkpt>
      <trkpt lat="48.44133" lon="2.66898">
        <ele>188</ele>
        <time>2017-05-17T11:43:34.756</time>
      </trkpt>
      <trkpt lat="48.44133" lon="2.66896">
        <ele>189</ele>
        <time>2017-05-17T11:43:35.755</time>
      </trkpt>
      <trkpt lat="48.44134" lon="2.66895">
        <ele>189</ele>
        <time>2017-05-17T11:43:36.757</time>
      </trkpt>
      <trkpt lat="48.44134" lon="2.66893">
        <ele>190</ele>
        <time>2017-05-17T11:43:37.757</time>
      </trkpt>
      <trkpt lat="48.44134" lon="2.66891">
        <ele>190</ele>
        <time>2017-05-17T11:43:38.754</time>
      </trkpt>
      <trkpt lat="48.44135" lon="2.6689">
        <ele>190</ele>
        <time>2017-05-17T11:43:39.754</time>
      </trkpt>
      <trkpt lat="48.44135" lon="2.66889">
        <ele>191</ele>
        <time>2017-05-17T11:43:40.754</time>
      </trkpt>
      <trkpt lat="48.44135" lon="2.66888">
        <ele>191</ele>
        <time>2017-05-17T11:43:41.753</time>
      </trkpt>
      <trkpt lat="48.44136" lon="2.66887">
        <ele>191</ele>
        <time>2017-05-17T11:43:42.754</time>
      </trkpt>
      <trkpt lat="48.44136" lon="2.66887">
        <ele>191</ele>
        <time>2017-05-17T11:43:43.753</time>
      </trkpt>
      <trkpt lat="48.44137" lon="2.66886">
        <ele>191</ele>
        <time>2017-05-17T11:43:44.753</time>
      </trkpt>
      <trkpt lat="48.44137" lon="2.66887">
        <ele>192</ele>
        <time>2017-05-17T11:43:45.754</time>
      </trkpt>
      <trkpt lat="48.44138" lon="2.66887">
        <ele>192</ele>
        <time>2017-05-17T11:43:46.756</time>
      </trkpt>
      <trkpt lat="48.44138" lon="2.66886">
        <ele>192</ele>
        <time>2017-05-17T11:43:47.755</time>
      </trkpt>
      <trkpt lat="48.44139" lon="2.66887">
        <ele>192</ele>
        <time>2017-05-17T11:43:48.754</time>
      </trkpt>
      <trkpt lat="48.44139" lon="2.66886">
        <ele>193</ele>
        <time>2017-05-17T11:43:49.754</time>
      </trkpt>
      <trkpt lat="48.4414" lon="2.66886">
        <ele>194</ele>
        <time>2017-05-17T11:43:50.754</time>
      </trkpt>
      <trkpt lat="48.4414" lon="2.66885">
        <ele>194</ele>
        <time>2017-05-17T11:43:51.754</time>
      </trkpt>
      <trkpt lat="48.44141" lon="2.66885">
        <ele>195</ele>
        <time>2017-05-17T11:43:52.755</time>
      </trkpt>
      <trkpt lat="48.44142" lon="2.66886">
        <ele>195</ele>
        <time>2017-05-17T11:43:53.757</time>
      </trkpt>
      <trkpt lat="48.44143" lon="2.66887">
        <ele>195</ele>
        <time>2017-05-17T11:43:54.754</time>
      </trkpt>
      <trkpt lat="48.44144" lon="2.66887">
        <ele>195</ele>
        <time>2017-05-17T11:43:55.754</time>
      </trkpt>
      <trkpt lat="48.44145" lon="2.66888">
        <ele>195</ele>
        <time>2017-05-17T11:43:56.755</time>
      </trkpt>
      <trkpt lat="48.44146" lon="2.66889">
        <ele>196</ele>
        <time>2017-05-17T11:43:57.756</time>
      </trkpt>
      <trkpt lat="48.44146" lon="2.66889">
        <ele>196</ele>
        <time>2017-05-17T11:43:58.754</time>
      </trkpt>
      <trkpt lat="48.44148" lon="2.66889">
        <ele>197</ele>
        <time>2017-05-17T11:43:59.754</time>
      </trkpt>
      <trkpt lat="48.44149" lon="2.66889">
        <ele>196</ele>
        <time>2017-05-17T11:44:00.756</time>
      </trkpt>
      <trkpt lat="48.4415" lon="2.66889">
        <ele>196</ele>
        <time>2017-05-17T11:44:01.755</time>
      </trkpt>
      <trkpt lat="48.44151" lon="2.66889">
        <ele>197</ele>
        <time>2017-05-17T11:44:02.756</time>
      </trkpt>
      <trkpt lat="48.44152" lon="2.6689">
        <ele>197</ele>
        <time>2017-05-17T11:44:03.755</time>
      </trkpt>
      <trkpt lat="48.44153" lon="2.66891">
        <ele>197</ele>
        <time>2017-05-17T11:44:04.754</time>
      </trkpt>
      <trkpt lat="48.44154" lon="2.66891">
        <ele>198</ele>
        <time>2017-05-17T11:44:05.755</time>
      </trkpt>
      <trkpt lat="48.44155" lon="2.66892">
        <ele>198</ele>
        <time>2017-05-17T11:44:06.753</time>
      </trkpt>
      <trkpt lat="48.44156" lon="2.66893">
        <ele>198</ele>
        <time>2017-05-17T11:44:07.755</time>
      </trkpt>
      <trkpt lat="48.44157" lon="2.66893">
        <ele>199</ele>
        <time>2017-05-17T11:44:08.755</time>
      </trkpt>
      <trkpt lat="48.44159" lon="2.66894">
        <ele>199</ele>
        <time>2017-05-17T11:44:09.755</time>
      </trkpt>
      <trkpt lat="48.4416" lon="2.66894">
        <ele>199</ele>
        <time>2017-05-17T11:44:10.754</time>
      </trkpt>
      <trkpt lat="48.44161" lon="2.66894">
        <ele>199</ele>
        <time>2017-05-17T11:44:11.755</time>
      </trkpt>
      <trkpt lat="48.44163" lon="2.66895">
        <ele>199</ele>
        <time>2017-05-17T11:44:12.756</time>
      </trkpt>
      <trkpt lat="48.44163" lon="2.66896">
        <ele>199</ele>
        <time>2017-05-17T11:44:13.755</time>
      </trkpt>
      <trkpt lat="48.44165" lon="2.66897">
        <ele>199</ele>
        <time>2017-05-17T11:44:14.754</time>
      </trkpt>
      <trkpt lat="48.44166" lon="2.66897">
        <ele>199</ele>
        <time>2017-05-17T11:44:15.754</time>
      </trkpt>
      <trkpt lat="48.44166" lon="2.66898">
        <ele>199</ele>
        <time>2017-05-17T11:44:16.754</time>
      </trkpt>
      <trkpt lat="48.44167" lon="2.66899">
        <ele>199</ele>
        <time>2017-05-17T11:44:17.753</time>
      </trkpt>
      <trkpt lat="48.44168" lon="2.66899">
        <ele>199</ele>
        <time>2017-05-17T11:44:18.755</time>
      </trkpt>
      <trkpt lat="48.44168" lon="2.669">
        <ele>199</ele>
        <time>2017-05-17T11:44:19.755</time>
      </trkpt>
      <trkpt lat="48.44169" lon="2.66901">
        <ele>199</ele>
        <time>2017-05-17T11:44:20.755</time>
      </trkpt>
      <trkpt lat="48.4417" lon="2.66901">
        <ele>199</ele>
        <time>2017-05-17T11:44:21.753</time>
      </trkpt>
      <trkpt lat="48.44171" lon="2.66901">
        <ele>199</ele>
        <time>2017-05-17T11:44:22.753</time>
      </trkpt>
      <trkpt lat="48.44173" lon="2.66902">
        <ele>199</ele>
        <time>2017-05-17T11:44:23.755</time>
      </trkpt>
      <trkpt lat="48.44174" lon="2.66902">
        <ele>199</ele>
        <time>2017-05-17T11:44:24.754</time>
      </trkpt>
      <trkpt lat="48.44175" lon="2.66902">
        <ele>199</ele>
        <time>2017-05-17T11:44:25.754</time>
      </trkpt>
      <trkpt lat="48.44177" lon="2.66904">
        <ele>199</ele>
        <time>2017-05-17T11:44:26.754</time>
      </trkpt>
      <trkpt lat="48.44178" lon="2.66904">
        <ele>199</ele>
        <time>2017-05-17T11:44:27.756</time>
      </trkpt>
      <trkpt lat="48.44179" lon="2.66905">
        <ele>199</ele>
        <time>2017-05-17T11:44:28.758</time>
      </trkpt>
      <trkpt lat="48.44181" lon="2.66905">
        <ele>199</ele>
        <time>2017-05-17T11:44:29.759</time>
      </trkpt>
      <trkpt lat="48.44183" lon="2.66905">
        <ele>200</ele>
        <time>2017-05-17T11:44:30.762</time>
      </trkpt>
      <trkpt lat="48.44184" lon="2.66906">
        <ele>200</ele>
        <time>2017-05-17T11:44:31.758</time>
      </trkpt>
      <trkpt lat="48.44185" lon="2.66907">
        <ele>201</ele>
        <time>2017-05-17T11:44:32.759</time>
      </trkpt>
      <trkpt lat="48.44186" lon="2.66908">
        <ele>200</ele>
        <time>2017-05-17T11:44:33.769</time>
      </trkpt>
      <trkpt lat="48.44188" lon="2.66908">
        <ele>200</ele>
        <time>2017-05-17T11:44:34.759</time>
      </trkpt>
      <trkpt lat="48.44191" lon="2.66909">
        <ele>200</ele>
        <time>2017-05-17T11:44:35.766</time>
      </trkpt>
      <trkpt lat="48.44195" lon="2.66912">
        <ele>200</ele>
        <time>2017-05-17T11:44:36.766</time>
      </trkpt>
      <trkpt lat="48.44196" lon="2.66917">
        <ele>200</ele>
        <time>2017-05-17T11:44:37.759</time>
      </trkpt>
      <trkpt lat="48.44198" lon="2.6692">
        <ele>200</ele>
        <time>2017-05-17T11:44:38.774</time>
      </trkpt>
      <trkpt lat="48.44198" lon="2.66921">
        <ele>201</ele>
        <time>2017-05-17T11:44:39.777</time>
      </trkpt>
      <trkpt lat="48.44199" lon="2.66923">
        <ele>201</ele>
        <time>2017-05-17T11:44:40.773</time>
      </trkpt>
      <trkpt lat="48.44201" lon="2.66924">
        <ele>200</ele>
        <time>2017-05-17T11:44:41.756</time>
      </trkpt>
      <trkpt lat="48.44204" lon="2.66924">
        <ele>200</ele>
        <time>2017-05-17T11:44:42.758</time>
      </trkpt>
      <trkpt lat="48.44207" lon="2.66925">
        <ele>199</ele>
        <time>2017-05-17T11:44:43.756</time>
      </trkpt>
      <trkpt lat="48.4421" lon="2.66928">
        <ele>199</ele>
        <time>2017-05-17T11:44:44.756</time>
      </trkpt>
      <trkpt lat="48.44212" lon="2.66929">
        <ele>199</ele>
        <time>2017-05-17T11:44:45.756</time>
      </trkpt>
      <trkpt lat="48.44213" lon="2.6693">
        <ele>199</ele>
        <time>2017-05-17T11:44:46.757</time>
      </trkpt>
      <trkpt lat="48.44214" lon="2.66929">
        <ele>199</ele>
        <time>2017-05-17T11:44:47.755</time>
      </trkpt>
      <trkpt lat="48.44216" lon="2.66929">
        <ele>198</ele>
        <time>2017-05-17T11:44:48.755</time>
      </trkpt>
      <trkpt lat="48.44218" lon="2.6693">
        <ele>198</ele>
        <time>2017-05-17T11:44:49.754</time>
      </trkpt>
      <trkpt lat="48.44221" lon="2.66929">
        <ele>198</ele>
        <time>2017-05-17T11:44:50.755</time>
      </trkpt>
      <trkpt lat="48.44224" lon="2.66929">
        <ele>199</ele>
        <time>2017-05-17T11:44:51.756</time>
      </trkpt>
      <trkpt lat="48.44225" lon="2.66931">
        <ele>199</ele>
        <time>2017-05-17T11:44:52.755</time>
      </trkpt>
      <trkpt lat="48.44226" lon="2.66933">
        <ele>199</ele>
        <time>2017-05-17T11:44:53.755</time>
      </trkpt>
      <trkpt lat="48.44228" lon="2.66934">
        <ele>198</ele>
        <time>2017-05-17T11:44:54.760</time>
      </trkpt>
      <trkpt lat="48.44231" lon="2.66936">
        <ele>198</ele>
        <time>2017-05-17T11:44:55.756</time>
      </trkpt>
      <trkpt lat="48.44233" lon="2.66937">
        <ele>198</ele>
        <time>2017-05-17T11:44:56.755</time>
      </trkpt>
      <trkpt lat="48.44234" lon="2.66937">
        <ele>197</ele>
        <time>2017-05-17T11:44:57.755</time>
      </trkpt>
      <trkpt lat="48.44237" lon="2.66937">
        <ele>197</ele>
        <time>2017-05-17T11:44:58.757</time>
      </trkpt>
      <trkpt lat="48.4424" lon="2.66938">
        <ele>198</ele>
        <time>2017-05-17T11:44:59.757</time>
      </trkpt>
      <trkpt lat="48.44243" lon="2.66941">
        <ele>197</ele>
        <time>2017-05-17T11:45:00.757</time>
      </trkpt>
      <trkpt lat="48.44245" lon="2.66942">
        <ele>197</ele>
        <time>2017-05-17T11:45:01.755</time>
      </trkpt>
      <trkpt lat="48.44248" lon="2.66942">
        <ele>197</ele>
        <time>2017-05-17T11:45:02.755</time>
      </trkpt>
      <trkpt lat="48.44251" lon="2.66941">
        <ele>197</ele>
        <time>2017-05-17T11:45:03.756</time>
      </trkpt>
      <trkpt lat="48.44254" lon="2.66941">
        <ele>197</ele>
        <time>2017-05-17T11:45:04.758</time>
      </trkpt>
      <trkpt lat="48.44256" lon="2.66943">
        <ele>197</ele>
        <time>2017-05-17T11:45:05.756</time>
      </trkpt>
      <trkpt lat="48.44259" lon="2.66944">
        <ele>196</ele>
        <time>2017-05-17T11:45:06.757</time>
      </trkpt>
      <trkpt lat="48.44263" lon="2.66943">
        <ele>196</ele>
        <time>2017-05-17T11:45:07.759</time>
      </trkpt>
      <trkpt lat="48.44267" lon="2.66944">
        <ele>197</ele>
        <time>2017-05-17T11:45:08.755</time>
      </trkpt>
      <trkpt lat="48.4427" lon="2.66947">
        <ele>197</ele>
        <time>2017-05-17T11:45:09.756</time>
      </trkpt>
      <trkpt lat="48.44271" lon="2.66944">
        <ele>197</ele>
        <time>2017-05-17T11:45:10.756</time>
      </trkpt>
      <trkpt lat="48.44275" lon="2.66942">
        <ele>197</ele>
        <time>2017-05-17T11:45:11.754</time>
      </trkpt>
      <trkpt lat="48.44278" lon="2.66942">
        <ele>196</ele>
        <time>2017-05-17T11:45:12.756</time>
      </trkpt>
      <trkpt lat="48.44281" lon="2.6694">
        <ele>196</ele>
        <time>2017-05-17T11:45:13.756</time>
      </trkpt>
      <trkpt lat="48.44283" lon="2.6694">
        <ele>196</ele>
        <time>2017-05-17T11:45:14.756</time>
      </trkpt>
      <trkpt lat="48.44286" lon="2.66937">
        <ele>196</ele>
        <time>2017-05-17T11:45:15.756</time>
      </trkpt>
      <trkpt lat="48.44289" lon="2.66934">
        <ele>196</ele>
        <time>2017-05-17T11:45:16.757</time>
      </trkpt>
      <trkpt lat="48.44291" lon="2.66935">
        <ele>193</ele>
        <time>2017-05-17T11:45:17.756</time>
      </trkpt>
      <trkpt lat="48.44292" lon="2.66937">
        <ele>192</ele>
        <time>2017-05-17T11:45:18.758</time>
      </trkpt>
      <trkpt lat="48.44294" lon="2.66937">
        <ele>192</ele>
        <time>2017-05-17T11:45:19.755</time>
      </trkpt>
      <trkpt lat="48.44296" lon="2.66939">
        <ele>193</ele>
        <time>2017-05-17T11:45:20.755</time>
      </trkpt>
      <trkpt lat="48.44299" lon="2.66938">
        <ele>194</ele>
        <time>2017-05-17T11:45:21.756</time>
      </trkpt>
      <trkpt lat="48.44302" lon="2.66939">
        <ele>195</ele>
        <time>2017-05-17T11:45:22.758</time>
      </trkpt>
      <trkpt lat="48.44306" lon="2.6694">
        <ele>195</ele>
        <time>2017-05-17T11:45:23.758</time>
      </trkpt>
      <trkpt lat="48.44309" lon="2.66945">
        <ele>195</ele>
        <time>2017-05-17T11:45:24.757</time>
      </trkpt>
      <trkpt lat="48.44311" lon="2.66948">
        <ele>195</ele>
        <time>2017-05-17T11:45:25.757</time>
      </trkpt>
      <trkpt lat="48.44313" lon="2.66951">
        <ele>195</ele>
        <time>2017-05-17T11:45:26.758</time>
      </trkpt>
      <trkpt lat="48.44315" lon="2.66952">
        <ele>196</ele>
        <time>2017-05-17T11:45:27.756</time>
      </trkpt>
      <trkpt lat="48.44318" lon="2.66952">
        <ele>196</ele>
        <time>2017-05-17T11:45:28.758</time>
      </trkpt>
      <trkpt lat="48.44321" lon="2.66952">
        <ele>196</ele>
        <time>2017-05-17T11:45:29.757</time>
      </trkpt>
      <trkpt lat="48.44324" lon="2.66953">
        <ele>196</ele>
        <time>2017-05-17T11:45:30.757</time>
      </trkpt>
      <trkpt lat="48.44325" lon="2.66954">
        <ele>195</ele>
        <time>2017-05-17T11:45:31.756</time>
      </trkpt>
      <trkpt lat="48.44329" lon="2.66954">
        <ele>196</ele>
        <time>2017-05-17T11:45:32.756</time>
      </trkpt>
      <trkpt lat="48.44333" lon="2.66954">
        <ele>196</ele>
        <time>2017-05-17T11:45:33.757</time>
      </trkpt>
      <trkpt lat="48.44335" lon="2.66955">
        <ele>197</ele>
        <time>2017-05-17T11:45:34.755</time>
      </trkpt>
      <trkpt lat="48.44337" lon="2.66955">
        <ele>198</ele>
        <time>2017-05-17T11:45:35.755</time>
      </trkpt>
      <trkpt lat="48.4434" lon="2.66954">
        <ele>199</ele>
        <time>2017-05-17T11:45:36.756</time>
      </trkpt>
      <trkpt lat="48.44344" lon="2.66954">
        <ele>198</ele>
        <time>2017-05-17T11:45:37.757</time>
      </trkpt>
      <trkpt lat="48.44346" lon="2.66955">
        <ele>198</ele>
        <time>2017-05-17T11:45:38.755</time>
      </trkpt>
      <trkpt lat="48.44348" lon="2.66955">
        <ele>198</ele>
        <time>2017-05-17T11:45:39.755</time>
      </trkpt>
      <trkpt lat="48.4435" lon="2.66957">
        <ele>198</ele>
        <time>2017-05-17T11:45:40.755</time>
      </trkpt>
      <trkpt lat="48.44354" lon="2.6696">
        <ele>198</ele>
        <time>2017-05-17T11:45:41.756</time>
      </trkpt>
      <trkpt lat="48.44357" lon="2.66965">
        <ele>198</ele>
        <time>2017-05-17T11:45:42.755</time>
      </trkpt>
      <trkpt lat="48.44361" lon="2.66969">
        <ele>197</ele>
        <time>2017-05-17T11:45:43.759</time>
      </trkpt>
      <trkpt lat="48.44364" lon="2.66972">
        <ele>197</ele>
        <time>2017-05-17T11:45:44.758</time>
      </trkpt>
      <trkpt lat="48.44366" lon="2.66976">
        <ele>196</ele>
        <time>2017-05-17T11:45:45.757</time>
      </trkpt>
      <trkpt lat="48.44368" lon="2.6698">
        <ele>197</ele>
        <time>2017-05-17T11:45:46.756</time>
      </trkpt>
      <trkpt lat="48.44371" lon="2.66981">
        <ele>197</ele>
        <time>2017-05-17T11:45:47.757</time>
      </trkpt>
      <trkpt lat="48.44373" lon="2.66981">
        <ele>196</ele>
        <time>2017-05-17T11:45:48.755</time>
      </trkpt>
      <trkpt lat="48.44376" lon="2.66979">
        <ele>197</ele>
        <time>2017-05-17T11:45:49.757</time>
      </trkpt>
      <trkpt lat="48.44377" lon="2.66976">
        <ele>197</ele>
        <time>2017-05-17T11:45:50.758</time>
      </trkpt>
      <trkpt lat="48.44377" lon="2.66972">
        <ele>197</ele>
        <time>2017-05-17T11:45:51.757</time>
      </trkpt>
      <trkpt lat="48.44378" lon="2.66967">
        <ele>196</ele>
        <time>2017-05-17T11:45:52.756</time>
      </trkpt>
      <trkpt lat="48.44377" lon="2.66964">
        <ele>196</ele>
        <time>2017-05-17T11:45:53.756</time>
      </trkpt>
      <trkpt lat="48.44377" lon="2.6696">
        <ele>195</ele>
        <time>2017-05-17T11:45:54.757</time>
      </trkpt>
      <trkpt lat="48.44377" lon="2.66955">
        <ele>195</ele>
        <time>2017-05-17T11:45:55.755</time>
      </trkpt>
      <trkpt lat="48.44376" lon="2.66951">
        <ele>195</ele>
        <time>2017-05-17T11:45:56.754</time>
      </trkpt>
      <trkpt lat="48.44376" lon="2.66947">
        <ele>195</ele>
        <time>2017-05-17T11:45:57.757</time>
      </trkpt>
      <trkpt lat="48.44377" lon="2.66942">
        <ele>196</ele>
        <time>2017-05-17T11:45:58.755</time>
      </trkpt>
      <trkpt lat="48.44377" lon="2.66939">
        <ele>196</ele>
        <time>2017-05-17T11:45:59.756</time>
      </trkpt>
      <trkpt lat="48.44378" lon="2.66936">
        <ele>196</ele>
        <time>2017-05-17T11:46:00.756</time>
      </trkpt>
      <trkpt lat="48.44379" lon="2.66936">
        <ele>196</ele>
        <time>2017-05-17T11:46:01.757</time>
      </trkpt>
      <trkpt lat="48.4438" lon="2.66933">
        <ele>196</ele>
        <time>2017-05-17T11:46:02.755</time>
      </trkpt>
      <trkpt lat="48.44382" lon="2.66931">
        <ele>196</ele>
        <time>2017-05-17T11:46:03.758</time>
      </trkpt>
      <trkpt lat="48.44383" lon="2.66927">
        <ele>197</ele>
        <time>2017-05-17T11:46:04.757</time>
      </trkpt>
      <trkpt lat="48.44384" lon="2.66923">
        <ele>197</ele>
        <time>2017-05-17T11:46:05.755</time>
      </trkpt>
      <trkpt lat="48.44383" lon="2.66918">
        <ele>196</ele>
        <time>2017-05-17T11:46:06.756</time>
      </trkpt>
      <trkpt lat="48.44382" lon="2.66913">
        <ele>197</ele>
        <time>2017-05-17T11:46:07.759</time>
      </trkpt>
      <trkpt lat="48.44381" lon="2.66909">
        <ele>196</ele>
        <time>2017-05-17T11:46:08.755</time>
      </trkpt>
      <trkpt lat="48.44381" lon="2.66904">
        <ele>196</ele>
        <time>2017-05-17T11:46:09.757</time>
      </trkpt>
      <trkpt lat="48.44381" lon="2.66899">
        <ele>196</ele>
        <time>2017-05-17T11:46:10.756</time>
      </trkpt>
      <trkpt lat="48.4438" lon="2.66894">
        <ele>196</ele>
        <time>2017-05-17T11:46:11.756</time>
      </trkpt>
      <trkpt lat="48.44379" lon="2.6689">
        <ele>196</ele>
        <time>2017-05-17T11:46:12.756</time>
      </trkpt>
      <trkpt lat="48.4438" lon="2.66884">
        <ele>196</ele>
        <time>2017-05-17T11:46:13.753</time>
      </trkpt>
      <trkpt lat="48.44381" lon="2.66878">
        <ele>195</ele>
        <time>2017-05-17T11:46:14.755</time>
      </trkpt>
      <trkpt lat="48.44381" lon="2.66873">
        <ele>196</ele>
        <time>2017-05-17T11:46:15.758</time>
      </trkpt>
      <trkpt lat="48.44382" lon="2.66867">
        <ele>196</ele>
        <time>2017-05-17T11:46:16.755</time>
      </trkpt>
      <trkpt lat="48.44383" lon="2.66864">
        <ele>195</ele>
        <time>2017-05-17T11:46:17.756</time>
      </trkpt>
      <trkpt lat="48.44383" lon="2.66859">
        <ele>195</ele>
        <time>2017-05-17T11:46:18.755</time>
      </trkpt>
      <trkpt lat="48.44384" lon="2.66855">
        <ele>195</ele>
        <time>2017-05-17T11:46:19.756</time>
      </trkpt>
      <trkpt lat="48.44385" lon="2.66848">
        <ele>195</ele>
        <time>2017-05-17T11:46:20.755</time>
      </trkpt>
      <trkpt lat="48.44385" lon="2.66841">
        <ele>195</ele>
        <time>2017-05-17T11:46:21.755</time>
      </trkpt>
      <trkpt lat="48.44386" lon="2.66835">
        <ele>195</ele>
        <time>2017-05-17T11:46:22.756</time>
      </trkpt>
      <trkpt lat="48.44387" lon="2.66829">
        <ele>195</ele>
        <time>2017-05-17T11:46:23.757</time>
      </trkpt>
      <trkpt lat="48.44387" lon="2.66823">
        <ele>195</ele>
        <time>2017-05-17T11:46:24.757</time>
      </trkpt>
      <trkpt lat="48.44387" lon="2.66817">
        <ele>195</ele>
        <time>2017-05-17T11:46:25.757</time>
      </trkpt>
      <trkpt lat="48.44388" lon="2.6681">
        <ele>195</ele>
        <time>2017-05-17T11:46:26.757</time>
      </trkpt>
      <trkpt lat="48.44387" lon="2.66802">
        <ele>195</ele>
        <time>2017-05-17T11:46:27.757</time>
      </trkpt>
      <trkpt lat="48.44388" lon="2.66796">
        <ele>195</ele>
        <time>2017-05-17T11:46:28.756</time>
      </trkpt>
      <trkpt lat="48.44388" lon="2.66788">
        <ele>195</ele>
        <time>2017-05-17T11:46:29.756</time>
      </trkpt>
      <trkpt lat="48.44388" lon="2.66782">
        <ele>195</ele>
        <time>2017-05-17T11:46:30.757</time>
      </trkpt>
      <trkpt lat="48.4439" lon="2.66776">
        <ele>193</ele>
        <time>2017-05-17T11:46:31.755</time>
      </trkpt>
      <trkpt lat="48.4439" lon="2.66768">
        <ele>193</ele>
        <time>2017-05-17T11:46:32.757</time>
      </trkpt>
      <trkpt lat="48.44391" lon="2.66761">
        <ele>193</ele>
        <time>2017-05-17T11:46:33.758</time>
      </trkpt>
      <trkpt lat="48.44391" lon="2.66752">
        <ele>193</ele>
        <time>2017-05-17T11:46:34.756</time>
      </trkpt>
      <trkpt lat="48.44392" lon="2.66744">
        <ele>194</ele>
        <time>2017-05-17T11:46:35.755</time>
      </trkpt>
      <trkpt lat="48.44391" lon="2.66734">
        <ele>195</ele>
        <time>2017-05-17T11:46:36.758</time>
      </trkpt>
      <trkpt lat="48.44392" lon="2.66726">
        <ele>196</ele>
        <time>2017-05-17T11:46:37.754</time>
      </trkpt>
      <trkpt lat="48.44393" lon="2.66718">
        <ele>196</ele>
        <time>2017-05-17T11:46:38.757</time>
      </trkpt>
      <trkpt lat="48.44392" lon="2.66708">
        <ele>196</ele>
        <time>2017-05-17T11:46:39.756</time>
      </trkpt>
      <trkpt lat="48.44392" lon="2.667">
        <ele>195</ele>
        <time>2017-05-17T11:46:40.760</time>
      </trkpt>
      <trkpt lat="48.44393" lon="2.66692">
        <ele>195</ele>
        <time>2017-05-17T11:46:41.756</time>
      </trkpt>
      <trkpt lat="48.44392" lon="2.66682">
        <ele>196</ele>
        <time>2017-05-17T11:46:42.756</time>
      </trkpt>
      <trkpt lat="48.44392" lon="2.66673">
        <ele>195</ele>
        <time>2017-05-17T11:46:43.757</time>
      </trkpt>
      <trkpt lat="48.44393" lon="2.66664">
        <ele>195</ele>
        <time>2017-05-17T11:46:44.756</time>
      </trkpt>
      <trkpt lat="48.44393" lon="2.66654">
        <ele>195</ele>
        <time>2017-05-17T11:46:45.757</time>
      </trkpt>
      <trkpt lat="48.44394" lon="2.66645">
        <ele>196</ele>
        <time>2017-05-17T11:46:46.758</time>
      </trkpt>
      <trkpt lat="48.44393" lon="2.66636">
        <ele>196</ele>
        <time>2017-05-17T11:46:47.757</time>
      </trkpt>
      <trkpt lat="48.44395" lon="2.66629">
        <ele>196</ele>
        <time>2017-05-17T11:46:48.756</time>
      </trkpt>
      <trkpt lat="48.44396" lon="2.6662">
        <ele>195</ele>
        <time>2017-05-17T11:46:49.755</time>
      </trkpt>
      <trkpt lat="48.44396" lon="2.66611">
        <ele>196</ele>
        <time>2017-05-17T11:46:50.756</time>
      </trkpt>
      <trkpt lat="48.44396" lon="2.66601">
        <ele>196</ele>
        <time>2017-05-17T11:46:51.755</time>
      </trkpt>
      <trkpt lat="48.44396" lon="2.66592">
        <ele>196</ele>
        <time>2017-05-17T11:46:52.757</time>
      </trkpt>
      <trkpt lat="48.44397" lon="2.66584">
        <ele>197</ele>
        <time>2017-05-17T11:46:53.757</time>
      </trkpt>
      <trkpt lat="48.44398" lon="2.66575">
        <ele>196</ele>
        <time>2017-05-17T11:46:54.758</time>
      </trkpt>
      <trkpt lat="48.44398" lon="2.66565">
        <ele>197</ele>
        <time>2017-05-17T11:46:55.757</time>
      </trkpt>
      <trkpt lat="48.44399" lon="2.66557">
        <ele>198</ele>
        <time>2017-05-17T11:46:56.756</time>
      </trkpt>
      <trkpt lat="48.44398" lon="2.66548">
        <ele>198</ele>
        <time>2017-05-17T11:46:57.755</time>
      </trkpt>
      <trkpt lat="48.44399" lon="2.66539">
        <ele>198</ele>
        <time>2017-05-17T11:46:58.756</time>
      </trkpt>
      <trkpt lat="48.444" lon="2.66531">
        <ele>198</ele>
        <time>2017-05-17T11:46:59.755</time>
      </trkpt>
      <trkpt lat="48.44401" lon="2.66523">
        <ele>197</ele>
        <time>2017-05-17T11:47:00.755</time>
      </trkpt>
      <trkpt lat="48.44401" lon="2.66515">
        <ele>197</ele>
        <time>2017-05-17T11:47:01.754</time>
      </trkpt>
      <trkpt lat="48.44401" lon="2.66506">
        <ele>198</ele>
        <time>2017-05-17T11:47:02.756</time>
      </trkpt>
      <trkpt lat="48.44402" lon="2.66498">
        <ele>198</ele>
        <time>2017-05-17T11:47:03.757</time>
      </trkpt>
      <trkpt lat="48.44403" lon="2.6649">
        <ele>198</ele>
        <time>2017-05-17T11:47:04.760</time>
      </trkpt>
      <trkpt lat="48.44403" lon="2.66481">
        <ele>198</ele>
        <time>2017-05-17T11:47:05.755</time>
      </trkpt>
      <trkpt lat="48.44404" lon="2.66472">
        <ele>198</ele>
        <time>2017-05-17T11:47:06.757</time>
      </trkpt>
      <trkpt lat="48.44405" lon="2.66463">
        <ele>197</ele>
        <time>2017-05-17T11:47:07.757</time>
      </trkpt>
      <trkpt lat="48.44407" lon="2.66454">
        <ele>197</ele>
        <time>2017-05-17T11:47:08.757</time>
      </trkpt>
      <trkpt lat="48.44409" lon="2.66446">
        <ele>195</ele>
        <time>2017-05-17T11:47:09.756</time>
      </trkpt>
      <trkpt lat="48.44412" lon="2.66438">
        <ele>195</ele>
        <time>2017-05-17T11:47:10.755</time>
      </trkpt>
      <trkpt lat="48.44414" lon="2.6643">
        <ele>195</ele>
        <time>2017-05-17T11:47:11.755</time>
      </trkpt>
      <trkpt lat="48.44417" lon="2.66424">
        <ele>194</ele>
        <time>2017-05-17T11:47:12.756</time>
      </trkpt>
      <trkpt lat="48.4442" lon="2.66416">
        <ele>194</ele>
        <time>2017-05-17T11:47:13.756</time>
      </trkpt>
      <trkpt lat="48.44422" lon="2.66409">
        <ele>194</ele>
        <time>2017-05-17T11:47:14.754</time>
      </trkpt>
      <trkpt lat="48.44426" lon="2.66403">
        <ele>194</ele>
        <time>2017-05-17T11:47:15.754</time>
      </trkpt>
      <trkpt lat="48.44428" lon="2.66396">
        <ele>194</ele>
        <time>2017-05-17T11:47:16.755</time>
      </trkpt>
      <trkpt lat="48.44431" lon="2.6639">
        <ele>194</ele>
        <time>2017-05-17T11:47:17.756</time>
      </trkpt>
      <trkpt lat="48.44434" lon="2.66385">
        <ele>194</ele>
        <time>2017-05-17T11:47:18.757</time>
      </trkpt>
      <trkpt lat="48.44437" lon="2.66378">
        <ele>194</ele>
        <time>2017-05-17T11:47:19.757</time>
      </trkpt>
      <trkpt lat="48.4444" lon="2.66372">
        <ele>194</ele>
        <time>2017-05-17T11:47:20.756</time>
      </trkpt>
      <trkpt lat="48.44441" lon="2.66367">
        <ele>196</ele>
        <time>2017-05-17T11:47:21.756</time>
      </trkpt>
      <trkpt lat="48.44443" lon="2.6636">
        <ele>195</ele>
        <time>2017-05-17T11:47:22.755</time>
      </trkpt>
      <trkpt lat="48.44444" lon="2.66355">
        <ele>196</ele>
        <time>2017-05-17T11:47:23.754</time>
      </trkpt>
      <trkpt lat="48.44446" lon="2.66349">
        <ele>195</ele>
        <time>2017-05-17T11:47:24.756</time>
      </trkpt>
      <trkpt lat="48.44449" lon="2.66344">
        <ele>195</ele>
        <time>2017-05-17T11:47:25.755</time>
      </trkpt>
      <trkpt lat="48.44449" lon="2.66338">
        <ele>194</ele>
        <time>2017-05-17T11:47:26.755</time>
      </trkpt>
      <trkpt lat="48.44452" lon="2.66332">
        <ele>194</ele>
        <time>2017-05-17T11:47:27.755</time>
      </trkpt>
      <trkpt lat="48.44454" lon="2.66326">
        <ele>195</ele>
        <time>2017-05-17T11:47:28.755</time>
      </trkpt>
      <trkpt lat="48.44457" lon="2.6632">
        <ele>196</ele>
        <time>2017-05-17T11:47:29.755</time>
      </trkpt>
      <trkpt lat="48.44459" lon="2.66314">
        <ele>196</ele>
        <time>2017-05-17T11:47:30.755</time>
      </trkpt>
      <trkpt lat="48.44463" lon="2.6631">
        <ele>196</ele>
        <time>2017-05-17T11:47:31.755</time>
      </trkpt>
      <trkpt lat="48.44465" lon="2.66305">
        <ele>196</ele>
        <time>2017-05-17T11:47:32.754</time>
      </trkpt>
      <trkpt lat="48.44467" lon="2.66298">
        <ele>196</ele>
        <time>2017-05-17T11:47:33.754</time>
      </trkpt>
      <trkpt lat="48.44469" lon="2.66293">
        <ele>196</ele>
        <time>2017-05-17T11:47:34.754</time>
      </trkpt>
      <trkpt lat="48.44471" lon="2.66288">
        <ele>196</ele>
        <time>2017-05-17T11:47:35.755</time>
      </trkpt>
      <trkpt lat="48.44474" lon="2.66282">
        <ele>196</ele>
        <time>2017-05-17T11:47:36.755</time>
      </trkpt>
      <trkpt lat="48.44476" lon="2.66276">
        <ele>197</ele>
        <time>2017-05-17T11:47:37.755</time>
      </trkpt>
      <trkpt lat="48.44479" lon="2.66271">
        <ele>196</ele>
        <time>2017-05-17T11:47:38.755</time>
      </trkpt>
      <trkpt lat="48.44482" lon="2.66266">
        <ele>196</ele>
        <time>2017-05-17T11:47:39.755</time>
      </trkpt>
      <trkpt lat="48.44484" lon="2.66261">
        <ele>196</ele>
        <time>2017-05-17T11:47:40.756</time>
      </trkpt>
      <trkpt lat="48.44486" lon="2.66256">
        <ele>196</ele>
        <time>2017-05-17T11:47:41.756</time>
      </trkpt>
      <trkpt lat="48.44489" lon="2.66251">
        <ele>195</ele>
        <time>2017-05-17T11:47:42.762</time>
      </trkpt>
      <trkpt lat="48.44491" lon="2.66245">
        <ele>196</ele>
        <time>2017-05-17T11:47:43.768</time>
      </trkpt>
      <trkpt lat="48.44493" lon="2.66239">
        <ele>195</ele>
        <time>2017-05-17T11:47:44.762</time>
      </trkpt>
      <trkpt lat="48.44496" lon="2.66234">
        <ele>195</ele>
        <time>2017-05-17T11:47:45.761</time>
      </trkpt>
      <trkpt lat="48.44498" lon="2.66229">
        <ele>195</ele>
        <time>2017-05-17T11:47:46.764</time>
      </trkpt>
      <trkpt lat="48.44501" lon="2.66224">
        <ele>195</ele>
        <time>2017-05-17T11:47:47.764</time>
      </trkpt>
      <trkpt lat="48.44503" lon="2.66218">
        <ele>195</ele>
        <time>2017-05-17T11:47:48.757</time>
      </trkpt>
      <trkpt lat="48.44506" lon="2.66213">
        <ele>195</ele>
        <time>2017-05-17T11:47:49.756</time>
      </trkpt>
      <trkpt lat="48.44508" lon="2.66207">
        <ele>194</ele>
        <time>2017-05-17T11:47:50.756</time>
      </trkpt>
      <trkpt lat="48.4451" lon="2.66201">
        <ele>194</ele>
        <time>2017-05-17T11:47:51.757</time>
      </trkpt>
      <trkpt lat="48.44513" lon="2.66196">
        <ele>194</ele>
        <time>2017-05-17T11:47:52.757</time>
      </trkpt>
      <trkpt lat="48.44515" lon="2.6619">
        <ele>194</ele>
        <time>2017-05-17T11:47:53.756</time>
      </trkpt>
      <trkpt lat="48.44517" lon="2.66184">
        <ele>194</ele>
        <time>2017-05-17T11:47:54.755</time>
      </trkpt>
      <trkpt lat="48.44519" lon="2.66179">
        <ele>194</ele>
        <time>2017-05-17T11:47:55.756</time>
      </trkpt>
      <trkpt lat="48.44521" lon="2.66173">
        <ele>194</ele>
        <time>2017-05-17T11:47:56.757</time>
      </trkpt>
      <trkpt lat="48.44524" lon="2.66168">
        <ele>195</ele>
        <time>2017-05-17T11:47:57.757</time>
      </trkpt>
      <trkpt lat="48.44526" lon="2.66166">
        <ele>194</ele>
        <time>2017-05-17T11:47:58.756</time>
      </trkpt>
      <trkpt lat="48.44527" lon="2.66167">
        <ele>195</ele>
        <time>2017-05-17T11:47:59.757</time>
      </trkpt>
      <trkpt lat="48.44528" lon="2.66168">
        <ele>195</ele>
        <time>2017-05-17T11:48:00.756</time>
      </trkpt>
      <trkpt lat="48.44528" lon="2.66168">
        <ele>194</ele>
        <time>2017-05-17T11:48:01.757</time>
      </trkpt>
      <trkpt lat="48.44528" lon="2.66167">
        <ele>194</ele>
        <time>2017-05-17T11:48:02.756</time>
      </trkpt>
      <trkpt lat="48.44528" lon="2.66165">
        <ele>194</ele>
        <time>2017-05-17T11:48:03.755</time>
      </trkpt>
      <trkpt lat="48.44529" lon="2.66163">
        <ele>194</ele>
        <time>2017-05-17T11:48:04.758</time>
      </trkpt>
      <trkpt lat="48.4453" lon="2.6616">
        <ele>194</ele>
        <time>2017-05-17T11:48:05.756</time>
      </trkpt>
      <trkpt lat="48.44532" lon="2.66159">
        <ele>194</ele>
        <time>2017-05-17T11:48:06.756</time>
      </trkpt>
      <trkpt lat="48.44534" lon="2.6616">
        <ele>194</ele>
        <time>2017-05-17T11:48:07.758</time>
      </trkpt>
      <trkpt lat="48.44538" lon="2.66157">
        <ele>194</ele>
        <time>2017-05-17T11:48:08.757</time>
      </trkpt>
      <trkpt lat="48.44542" lon="2.66155">
        <ele>194</ele>
        <time>2017-05-17T11:48:09.756</time>
      </trkpt>
      <trkpt lat="48.44546" lon="2.66154">
        <ele>194</ele>
        <time>2017-05-17T11:48:10.755</time>
      </trkpt>
      <trkpt lat="48.4455" lon="2.66152">
        <ele>194</ele>
        <time>2017-05-17T11:48:11.756</time>
      </trkpt>
      <trkpt lat="48.44554" lon="2.66148">
        <ele>194</ele>
        <time>2017-05-17T11:48:12.757</time>
      </trkpt>
      <trkpt lat="48.44557" lon="2.66143">
        <ele>194</ele>
        <time>2017-05-17T11:48:13.756</time>
      </trkpt>
      <trkpt lat="48.44561" lon="2.66138">
        <ele>195</ele>
        <time>2017-05-17T11:48:14.758</time>
      </trkpt>
      <trkpt lat="48.44565" lon="2.66138">
        <ele>194</ele>
        <time>2017-05-17T11:48:15.756</time>
      </trkpt>
      <trkpt lat="48.44569" lon="2.66137">
        <ele>194</ele>
        <time>2017-05-17T11:48:16.755</time>
      </trkpt>
      <trkpt lat="48.44573" lon="2.66135">
        <ele>194</ele>
        <time>2017-05-17T11:48:17.755</time>
      </trkpt>
      <trkpt lat="48.44578" lon="2.66132">
        <ele>195</ele>
        <time>2017-05-17T11:48:18.756</time>
      </trkpt>
      <trkpt lat="48.44583" lon="2.66129">
        <ele>196</ele>
        <time>2017-05-17T11:48:19.755</time>
      </trkpt>
      <trkpt lat="48.44587" lon="2.66127">
        <ele>196</ele>
        <time>2017-05-17T11:48:20.757</time>
      </trkpt>
      <trkpt lat="48.4459" lon="2.66126">
        <ele>196</ele>
        <time>2017-05-17T11:48:21.763</time>
      </trkpt>
      <trkpt lat="48.44595" lon="2.66123">
        <ele>196</ele>
        <time>2017-05-17T11:48:22.758</time>
      </trkpt>
      <trkpt lat="48.44599" lon="2.66121">
        <ele>196</ele>
        <time>2017-05-17T11:48:23.759</time>
      </trkpt>
      <trkpt lat="48.44603" lon="2.66121">
        <ele>195</ele>
        <time>2017-05-17T11:48:24.757</time>
      </trkpt>
      <trkpt lat="48.44607" lon="2.66119">
        <ele>196</ele>
        <time>2017-05-17T11:48:25.755</time>
      </trkpt>
      <trkpt lat="48.44612" lon="2.66115">
        <ele>196</ele>
        <time>2017-05-17T11:48:26.755</time>
      </trkpt>
      <trkpt lat="48.44616" lon="2.66115">
        <ele>197</ele>
        <time>2017-05-17T11:48:27.755</time>
      </trkpt>
      <trkpt lat="48.44619" lon="2.66112">
        <ele>197</ele>
        <time>2017-05-17T11:48:28.756</time>
      </trkpt>
      <trkpt lat="48.44623" lon="2.6611">
        <ele>197</ele>
        <time>2017-05-17T11:48:29.756</time>
      </trkpt>
      <trkpt lat="48.44627" lon="2.66107">
        <ele>197</ele>
        <time>2017-05-17T11:48:30.754</time>
      </trkpt>
      <trkpt lat="48.44632" lon="2.66104">
        <ele>197</ele>
        <time>2017-05-17T11:48:31.754</time>
      </trkpt>
      <trkpt lat="48.44636" lon="2.66102">
        <ele>197</ele>
        <time>2017-05-17T11:48:32.754</time>
      </trkpt>
      <trkpt lat="48.4464" lon="2.66099">
        <ele>198</ele>
        <time>2017-05-17T11:48:33.755</time>
      </trkpt>
      <trkpt lat="48.44644" lon="2.66097">
        <ele>197</ele>
        <time>2017-05-17T11:48:34.755</time>
      </trkpt>
      <trkpt lat="48.44648" lon="2.66094">
        <ele>197</ele>
        <time>2017-05-17T11:48:35.755</time>
      </trkpt>
      <trkpt lat="48.44652" lon="2.66093">
        <ele>197</ele>
        <time>2017-05-17T11:48:36.755</time>
      </trkpt>
      <trkpt lat="48.44656" lon="2.66091">
        <ele>197</ele>
        <time>2017-05-17T11:48:37.755</time>
      </trkpt>
      <trkpt lat="48.4466" lon="2.66088">
        <ele>197</ele>
        <time>2017-05-17T11:48:38.755</time>
      </trkpt>
      <trkpt lat="48.44665" lon="2.66084">
        <ele>197</ele>
        <time>2017-05-17T11:48:39.769</time>
      </trkpt>
      <trkpt lat="48.44669" lon="2.66081">
        <ele>197</ele>
        <time>2017-05-17T11:48:40.754</time>
      </trkpt>
      <trkpt lat="48.44674" lon="2.66078">
        <ele>197</ele>
        <time>2017-05-17T11:48:41.754</time>
      </trkpt>
      <trkpt lat="48.44678" lon="2.66075">
        <ele>197</ele>
        <time>2017-05-17T11:48:42.757</time>
      </trkpt>
      <trkpt lat="48.44683" lon="2.66073">
        <ele>197</ele>
        <time>2017-05-17T11:48:43.759</time>
      </trkpt>
      <trkpt lat="48.44688" lon="2.6607">
        <ele>196</ele>
        <time>2017-05-17T11:48:44.755</time>
      </trkpt>
      <trkpt lat="48.44693" lon="2.66066">
        <ele>195</ele>
        <time>2017-05-17T11:48:45.756</time>
      </trkpt>
      <trkpt lat="48.44696" lon="2.66062">
        <ele>194</ele>
        <time>2017-05-17T11:48:46.755</time>
      </trkpt>
      <trkpt lat="48.44701" lon="2.66059">
        <ele>195</ele>
        <time>2017-05-17T11:48:47.756</time>
      </trkpt>
      <trkpt lat="48.44705" lon="2.66056">
        <ele>195</ele>
        <time>2017-05-17T11:48:48.755</time>
      </trkpt>
      <trkpt lat="48.44709" lon="2.66053">
        <ele>196</ele>
        <time>2017-05-17T11:48:49.755</time>
      </trkpt>
      <trkpt lat="48.44714" lon="2.66051">
        <ele>197</ele>
        <time>2017-05-17T11:48:50.753</time>
      </trkpt>
      <trkpt lat="48.44719" lon="2.66048">
        <ele>197</ele>
        <time>2017-05-17T11:48:51.755</time>
      </trkpt>
      <trkpt lat="48.44723" lon="2.66045">
        <ele>197</ele>
        <time>2017-05-17T11:48:52.756</time>
      </trkpt>
      <trkpt lat="48.44727" lon="2.66041">
        <ele>196</ele>
        <time>2017-05-17T11:48:53.755</time>
      </trkpt>
      <trkpt lat="48.44733" lon="2.66037">
        <ele>196</ele>
        <time>2017-05-17T11:48:54.756</time>
      </trkpt>
      <trkpt lat="48.44735" lon="2.6603">
        <ele>196</ele>
        <time>2017-05-17T11:48:55.756</time>
      </trkpt>
      <trkpt lat="48.44737" lon="2.66023">
        <ele>195</ele>
        <time>2017-05-17T11:48:56.756</time>
      </trkpt>
      <trkpt lat="48.44739" lon="2.66017">
        <ele>195</ele>
        <time>2017-05-17T11:48:57.756</time>
      </trkpt>
      <trkpt lat="48.44742" lon="2.6601">
        <ele>195</ele>
        <time>2017-05-17T11:48:58.755</time>
      </trkpt>
      <trkpt lat="48.44744" lon="2.66003">
        <ele>194</ele>
        <time>2017-05-17T11:48:59.759</time>
      </trkpt>
      <trkpt lat="48.44746" lon="2.65995">
        <ele>194</ele>
        <time>2017-05-17T11:49:00.755</time>
      </trkpt>
      <trkpt lat="48.44748" lon="2.65988">
        <ele>193</ele>
        <time>2017-05-17T11:49:01.756</time>
      </trkpt>
      <trkpt lat="48.4475" lon="2.65978">
        <ele>193</ele>
        <time>2017-05-17T11:49:02.756</time>
      </trkpt>
      <trkpt lat="48.44752" lon="2.6597">
        <ele>192</ele>
        <time>2017-05-17T11:49:03.755</time>
      </trkpt>
      <trkpt lat="48.44754" lon="2.65961">
        <ele>192</ele>
        <time>2017-05-17T11:49:04.755</time>
      </trkpt>
      <trkpt lat="48.44756" lon="2.65951">
        <ele>193</ele>
        <time>2017-05-17T11:49:05.756</time>
      </trkpt>
      <trkpt lat="48.44759" lon="2.65943">
        <ele>192</ele>
        <time>2017-05-17T11:49:06.755</time>
      </trkpt>
      <trkpt lat="48.44762" lon="2.65934">
        <ele>192</ele>
        <time>2017-05-17T11:49:07.756</time>
      </trkpt>
      <trkpt lat="48.44764" lon="2.65926">
        <ele>192</ele>
        <time>2017-05-17T11:49:08.755</time>
      </trkpt>
      <trkpt lat="48.44767" lon="2.65918">
        <ele>193</ele>
        <time>2017-05-17T11:49:09.755</time>
      </trkpt>
      <trkpt lat="48.44768" lon="2.6591">
        <ele>193</ele>
        <time>2017-05-17T11:49:10.754</time>
      </trkpt>
      <trkpt lat="48.44771" lon="2.65902">
        <ele>193</ele>
        <time>2017-05-17T11:49:11.755</time>
      </trkpt>
      <trkpt lat="48.44774" lon="2.65895">
        <ele>192</ele>
        <time>2017-05-17T11:49:12.756</time>
      </trkpt>
      <trkpt lat="48.44777" lon="2.65887">
        <ele>193</ele>
        <time>2017-05-17T11:49:13.756</time>
      </trkpt>
      <trkpt lat="48.44779" lon="2.65879">
        <ele>194</ele>
        <time>2017-05-17T11:49:14.755</time>
      </trkpt>
      <trkpt lat="48.44782" lon="2.65871">
        <ele>194</ele>
        <time>2017-05-17T11:49:15.755</time>
      </trkpt>
      <trkpt lat="48.44785" lon="2.65863">
        <ele>194</ele>
        <time>2017-05-17T11:49:16.755</time>
      </trkpt>
      <trkpt lat="48.44788" lon="2.65856">
        <ele>193</ele>
        <time>2017-05-17T11:49:17.756</time>
      </trkpt>
      <trkpt lat="48.4479" lon="2.65849">
        <ele>192</ele>
        <time>2017-05-17T11:49:18.756</time>
      </trkpt>
      <trkpt lat="48.44792" lon="2.65841">
        <ele>192</ele>
        <time>2017-05-17T11:49:19.754</time>
      </trkpt>
      <trkpt lat="48.44793" lon="2.65832">
        <ele>191</ele>
        <time>2017-05-17T11:49:20.755</time>
      </trkpt>
      <trkpt lat="48.44796" lon="2.65825">
        <ele>190</ele>
        <time>2017-05-17T11:49:21.757</time>
      </trkpt>
      <trkpt lat="48.44798" lon="2.65815">
        <ele>190</ele>
        <time>2017-05-17T11:49:22.755</time>
      </trkpt>
      <trkpt lat="48.44799" lon="2.65806">
        <ele>190</ele>
        <time>2017-05-17T11:49:23.756</time>
      </trkpt>
      <trkpt lat="48.44801" lon="2.65795">
        <ele>190</ele>
        <time>2017-05-17T11:49:24.756</time>
      </trkpt>
      <trkpt lat="48.44803" lon="2.65787">
        <ele>191</ele>
        <time>2017-05-17T11:49:25.754</time>
      </trkpt>
      <trkpt lat="48.44806" lon="2.65779">
        <ele>191</ele>
        <time>2017-05-17T11:49:26.754</time>
      </trkpt>
      <trkpt lat="48.44808" lon="2.65771">
        <ele>191</ele>
        <time>2017-05-17T11:49:27.755</time>
      </trkpt>
      <trkpt lat="48.44811" lon="2.65762">
        <ele>191</ele>
        <time>2017-05-17T11:49:28.756</time>
      </trkpt>
      <trkpt lat="48.44814" lon="2.65753">
        <ele>192</ele>
        <time>2017-05-17T11:49:29.755</time>
      </trkpt>
      <trkpt lat="48.44816" lon="2.65744">
        <ele>192</ele>
        <time>2017-05-17T11:49:30.755</time>
      </trkpt>
      <trkpt lat="48.44818" lon="2.65735">
        <ele>192</ele>
        <time>2017-05-17T11:49:31.755</time>
      </trkpt>
      <trkpt lat="48.44821" lon="2.65726">
        <ele>192</ele>
        <time>2017-05-17T11:49:32.754</time>
      </trkpt>
      <trkpt lat="48.44824" lon="2.65717">
        <ele>192</ele>
        <time>2017-05-17T11:49:33.755</time>
      </trkpt>
      <trkpt lat="48.44827" lon="2.65708">
        <ele>192</ele>
        <time>2017-05-17T11:49:34.756</time>
      </trkpt>
      <trkpt lat="48.44829" lon="2.65699">
        <ele>192</ele>
        <time>2017-05-17T11:49:35.755</time>
      </trkpt>
      <trkpt lat="48.44832" lon="2.6569">
        <ele>192</ele>
        <time>2017-05-17T11:49:36.755</time>
      </trkpt>
      <trkpt lat="48.44834" lon="2.65681">
        <ele>192</ele>
        <time>2017-05-17T11:49:37.754</time>
      </trkpt>
      <trkpt lat="48.44836" lon="2.65672">
        <ele>192</ele>
        <time>2017-05-17T11:49:38.755</time>
      </trkpt>
      <trkpt lat="48.44839" lon="2.65663">
        <ele>192</ele>
        <time>2017-05-17T11:49:39.756</time>
      </trkpt>
      <trkpt lat="48.44842" lon="2.65654">
        <ele>192</ele>
        <time>2017-05-17T11:49:40.755</time>
      </trkpt>
      <trkpt lat="48.44845" lon="2.65646">
        <ele>192</ele>
        <time>2017-05-17T11:49:41.755</time>
      </trkpt>
      <trkpt lat="48.44847" lon="2.65637">
        <ele>192</ele>
        <time>2017-05-17T11:49:42.755</time>
      </trkpt>
      <trkpt lat="48.4485" lon="2.65629">
        <ele>192</ele>
        <time>2017-05-17T11:49:43.755</time>
      </trkpt>
      <trkpt lat="48.44852" lon="2.65621">
        <ele>193</ele>
        <time>2017-05-17T11:49:44.755</time>
      </trkpt>
      <trkpt lat="48.44854" lon="2.65612">
        <ele>193</ele>
        <time>2017-05-17T11:49:45.756</time>
      </trkpt>
      <trkpt lat="48.44856" lon="2.65604">
        <ele>193</ele>
        <time>2017-05-17T11:49:46.755</time>
      </trkpt>
      <trkpt lat="48.44859" lon="2.65595">
        <ele>193</ele>
        <time>2017-05-17T11:49:47.755</time>
      </trkpt>
      <trkpt lat="48.44861" lon="2.65587">
        <ele>193</ele>
        <time>2017-05-17T11:49:48.754</time>
      </trkpt>
      <trkpt lat="48.44863" lon="2.65579">
        <ele>193</ele>
        <time>2017-05-17T11:49:49.754</time>
      </trkpt>
      <trkpt lat="48.44865" lon="2.6557">
        <ele>193</ele>
        <time>2017-05-17T11:49:50.755</time>
      </trkpt>
      <trkpt lat="48.44868" lon="2.65562">
        <ele>193</ele>
        <time>2017-05-17T11:49:51.756</time>
      </trkpt>
      <trkpt lat="48.4487" lon="2.65554">
        <ele>193</ele>
        <time>2017-05-17T11:49:52.755</time>
      </trkpt>
      <trkpt lat="48.44872" lon="2.65545">
        <ele>192</ele>
        <time>2017-05-17T11:49:53.756</time>
      </trkpt>
      <trkpt lat="48.44874" lon="2.65535">
        <ele>193</ele>
        <time>2017-05-17T11:49:54.755</time>
      </trkpt>
      <trkpt lat="48.44877" lon="2.65526">
        <ele>192</ele>
        <time>2017-05-17T11:49:55.754</time>
      </trkpt>
      <trkpt lat="48.44879" lon="2.65516">
        <ele>194</ele>
        <time>2017-05-17T11:49:56.756</time>
      </trkpt>
      <trkpt lat="48.44882" lon="2.65509">
        <ele>193</ele>
        <time>2017-05-17T11:49:57.755</time>
      </trkpt>
      <trkpt lat="48.44884" lon="2.655">
        <ele>193</ele>
        <time>2017-05-17T11:49:58.755</time>
      </trkpt>
      <trkpt lat="48.44886" lon="2.65492">
        <ele>194</ele>
        <time>2017-05-17T11:49:59.754</time>
      </trkpt>
      <trkpt lat="48.44889" lon="2.65484">
        <ele>195</ele>
        <time>2017-05-17T11:50:00.756</time>
      </trkpt>
      <trkpt lat="48.44891" lon="2.65476">
        <ele>195</ele>
        <time>2017-05-17T11:50:01.756</time>
      </trkpt>
      <trkpt lat="48.44893" lon="2.65468">
        <ele>194</ele>
        <time>2017-05-17T11:50:02.755</time>
      </trkpt>
      <trkpt lat="48.44895" lon="2.65459">
        <ele>194</ele>
        <time>2017-05-17T11:50:03.755</time>
      </trkpt>
      <trkpt lat="48.44897" lon="2.65451">
        <ele>193</ele>
        <time>2017-05-17T11:50:04.755</time>
      </trkpt>
      <trkpt lat="48.449" lon="2.65445">
        <ele>193</ele>
        <time>2017-05-17T11:50:05.757</time>
      </trkpt>
      <trkpt lat="48.44902" lon="2.65438">
        <ele>192</ele>
        <time>2017-05-17T11:50:06.757</time>
      </trkpt>
      <trkpt lat="48.44903" lon="2.65429">
        <ele>192</ele>
        <time>2017-05-17T11:50:07.755</time>
      </trkpt>
      <trkpt lat="48.44905" lon="2.65419">
        <ele>192</ele>
        <time>2017-05-17T11:50:08.756</time>
      </trkpt>
      <trkpt lat="48.44906" lon="2.65411">
        <ele>192</ele>
        <time>2017-05-17T11:50:09.755</time>
      </trkpt>
      <trkpt lat="48.44907" lon="2.65402">
        <ele>192</ele>
        <time>2017-05-17T11:50:10.757</time>
      </trkpt>
      <trkpt lat="48.44905" lon="2.65393">
        <ele>191</ele>
        <time>2017-05-17T11:50:11.755</time>
      </trkpt>
      <trkpt lat="48.44904" lon="2.65385">
        <ele>191</ele>
        <time>2017-05-17T11:50:12.756</time>
      </trkpt>
      <trkpt lat="48.44902" lon="2.65377">
        <ele>192</ele>
        <time>2017-05-17T11:50:13.756</time>
      </trkpt>
      <trkpt lat="48.44901" lon="2.65369">
        <ele>192</ele>
        <time>2017-05-17T11:50:14.754</time>
      </trkpt>
      <trkpt lat="48.44899" lon="2.65363">
        <ele>192</ele>
        <time>2017-05-17T11:50:15.755</time>
      </trkpt>
      <trkpt lat="48.44897" lon="2.65354">
        <ele>192</ele>
        <time>2017-05-17T11:50:16.755</time>
      </trkpt>
      <trkpt lat="48.44894" lon="2.65348">
        <ele>192</ele>
        <time>2017-05-17T11:50:17.753</time>
      </trkpt>
      <trkpt lat="48.44892" lon="2.65341">
        <ele>192</ele>
        <time>2017-05-17T11:50:18.754</time>
      </trkpt>
      <trkpt lat="48.44889" lon="2.65335">
        <ele>193</ele>
        <time>2017-05-17T11:50:19.754</time>
      </trkpt>
      <trkpt lat="48.44886" lon="2.6533">
        <ele>191</ele>
        <time>2017-05-17T11:50:20.755</time>
      </trkpt>
      <trkpt lat="48.44882" lon="2.65325">
        <ele>191</ele>
        <time>2017-05-17T11:50:21.755</time>
      </trkpt>
      <trkpt lat="48.44878" lon="2.65321">
        <ele>191</ele>
        <time>2017-05-17T11:50:22.757</time>
      </trkpt>
      <trkpt lat="48.44873" lon="2.65315">
        <ele>192</ele>
        <time>2017-05-17T11:50:23.757</time>
      </trkpt>
      <trkpt lat="48.44869" lon="2.65307">
        <ele>190</ele>
        <time>2017-05-17T11:50:24.755</time>
      </trkpt>
      <trkpt lat="48.44865" lon="2.65301">
        <ele>190</ele>
        <time>2017-05-17T11:50:25.754</time>
      </trkpt>
      <trkpt lat="48.44861" lon="2.65294">
        <ele>192</ele>
        <time>2017-05-17T11:50:26.754</time>
      </trkpt>
      <trkpt lat="48.44857" lon="2.65288">
        <ele>192</ele>
        <time>2017-05-17T11:50:27.754</time>
      </trkpt>
      <trkpt lat="48.44853" lon="2.65283">
        <ele>193</ele>
        <time>2017-05-17T11:50:28.754</time>
      </trkpt>
      <trkpt lat="48.44848" lon="2.65276">
        <ele>193</ele>
        <time>2017-05-17T11:50:29.755</time>
      </trkpt>
      <trkpt lat="48.44843" lon="2.65268">
        <ele>195</ele>
        <time>2017-05-17T11:50:30.754</time>
      </trkpt>
      <trkpt lat="48.44841" lon="2.6526">
        <ele>196</ele>
        <time>2017-05-17T11:50:31.754</time>
      </trkpt>
      <trkpt lat="48.44837" lon="2.65253">
        <ele>197</ele>
        <time>2017-05-17T11:50:32.756</time>
      </trkpt>
      <trkpt lat="48.44834" lon="2.65247">
        <ele>197</ele>
        <time>2017-05-17T11:50:33.757</time>
      </trkpt>
      <trkpt lat="48.44831" lon="2.65239">
        <ele>197</ele>
        <time>2017-05-17T11:50:34.755</time>
      </trkpt>
      <trkpt lat="48.44829" lon="2.65232">
        <ele>197</ele>
        <time>2017-05-17T11:50:35.755</time>
      </trkpt>
      <trkpt lat="48.44826" lon="2.65225">
        <ele>196</ele>
        <time>2017-05-17T11:50:36.755</time>
      </trkpt>
      <trkpt lat="48.44825" lon="2.65217">
        <ele>196</ele>
        <time>2017-05-17T11:50:37.755</time>
      </trkpt>
      <trkpt lat="48.44822" lon="2.65211">
        <ele>195</ele>
        <time>2017-05-17T11:50:38.756</time>
      </trkpt>
      <trkpt lat="48.44819" lon="2.65205">
        <ele>196</ele>
        <time>2017-05-17T11:50:39.757</time>
      </trkpt>
      <trkpt lat="48.44816" lon="2.65197">
        <ele>196</ele>
        <time>2017-05-17T11:50:40.758</time>
      </trkpt>
      <trkpt lat="48.44813" lon="2.6519">
        <ele>196</ele>
        <time>2017-05-17T11:50:41.755</time>
      </trkpt>
      <trkpt lat="48.44811" lon="2.65184">
        <ele>196</ele>
        <time>2017-05-17T11:50:42.757</time>
      </trkpt>
      <trkpt lat="48.44809" lon="2.65176">
        <ele>195</ele>
        <time>2017-05-17T11:50:43.761</time>
      </trkpt>
      <trkpt lat="48.44806" lon="2.6517">
        <ele>194</ele>
        <time>2017-05-17T11:50:44.760</time>
      </trkpt>
      <trkpt lat="48.44804" lon="2.65164">
        <ele>194</ele>
        <time>2017-05-17T11:50:45.761</time>
      </trkpt>
      <trkpt lat="48.44801" lon="2.65157">
        <ele>194</ele>
        <time>2017-05-17T11:50:46.760</time>
      </trkpt>
      <trkpt lat="48.44799" lon="2.6515">
        <ele>195</ele>
        <time>2017-05-17T11:50:47.759</time>
      </trkpt>
      <trkpt lat="48.44796" lon="2.65143">
        <ele>194</ele>
        <time>2017-05-17T11:50:48.766</time>
      </trkpt>
      <trkpt lat="48.44793" lon="2.65137">
        <ele>193</ele>
        <time>2017-05-17T11:50:49.774</time>
      </trkpt>
      <trkpt lat="48.44791" lon="2.65129">
        <ele>194</ele>
        <time>2017-05-17T11:50:50.765</time>
      </trkpt>
      <trkpt lat="48.44789" lon="2.65122">
        <ele>194</ele>
        <time>2017-05-17T11:50:51.765</time>
      </trkpt>
      <trkpt lat="48.44786" lon="2.65115">
        <ele>193</ele>
        <time>2017-05-17T11:50:52.757</time>
      </trkpt>
      <trkpt lat="48.44783" lon="2.65107">
        <ele>193</ele>
        <time>2017-05-17T11:50:53.756</time>
      </trkpt>
      <trkpt lat="48.4478" lon="2.65102">
        <ele>193</ele>
        <time>2017-05-17T11:50:54.756</time>
      </trkpt>
      <trkpt lat="48.44779" lon="2.65094">
        <ele>192</ele>
        <time>2017-05-17T11:50:55.757</time>
      </trkpt>
      <trkpt lat="48.4478" lon="2.65087">
        <ele>192</ele>
        <time>2017-05-17T11:50:56.756</time>
      </trkpt>
      <trkpt lat="48.44781" lon="2.65079">
        <ele>193</ele>
        <time>2017-05-17T11:50:57.757</time>
      </trkpt>
      <trkpt lat="48.44782" lon="2.65073">
        <ele>194</ele>
        <time>2017-05-17T11:50:58.758</time>
      </trkpt>
      <trkpt lat="48.44784" lon="2.65066">
        <ele>192</ele>
        <time>2017-05-17T11:50:59.756</time>
      </trkpt>
      <trkpt lat="48.44786" lon="2.65058">
        <ele>191</ele>
        <time>2017-05-17T11:51:00.758</time>
      </trkpt>
      <trkpt lat="48.44788" lon="2.65051">
        <ele>192</ele>
        <time>2017-05-17T11:51:01.757</time>
      </trkpt>
      <trkpt lat="48.44791" lon="2.65043">
        <ele>193</ele>
        <time>2017-05-17T11:51:02.757</time>
      </trkpt>
      <trkpt lat="48.44793" lon="2.65036">
        <ele>193</ele>
        <time>2017-05-17T11:51:03.757</time>
      </trkpt>
      <trkpt lat="48.44795" lon="2.65029">
        <ele>193</ele>
        <time>2017-05-17T11:51:04.756</time>
      </trkpt>
      <trkpt lat="48.44797" lon="2.65022">
        <ele>193</ele>
        <time>2017-05-17T11:51:05.756</time>
      </trkpt>
      <trkpt lat="48.448" lon="2.65015">
        <ele>193</ele>
        <time>2017-05-17T11:51:06.757</time>
      </trkpt>
      <trkpt lat="48.44803" lon="2.65008">
        <ele>192</ele>
        <time>2017-05-17T11:51:07.756</time>
      </trkpt>
      <trkpt lat="48.44805" lon="2.65001">
        <ele>192</ele>
        <time>2017-05-17T11:51:08.756</time>
      </trkpt>
      <trkpt lat="48.44808" lon="2.64994">
        <ele>192</ele>
        <time>2017-05-17T11:51:09.756</time>
      </trkpt>
      <trkpt lat="48.44811" lon="2.64988">
        <ele>191</ele>
        <time>2017-05-17T11:51:10.756</time>
      </trkpt>
      <trkpt lat="48.44814" lon="2.64981">
        <ele>191</ele>
        <time>2017-05-17T11:51:11.758</time>
      </trkpt>
      <trkpt lat="48.44817" lon="2.64974">
        <ele>192</ele>
        <time>2017-05-17T11:51:12.756</time>
      </trkpt>
      <trkpt lat="48.4482" lon="2.64966">
        <ele>193</ele>
        <time>2017-05-17T11:51:13.756</time>
      </trkpt>
      <trkpt lat="48.44823" lon="2.64958">
        <ele>192</ele>
        <time>2017-05-17T11:51:14.757</time>
      </trkpt>
      <trkpt lat="48.44826" lon="2.64952">
        <ele>192</ele>
        <time>2017-05-17T11:51:15.756</time>
      </trkpt>
      <trkpt lat="48.44829" lon="2.64944">
        <ele>190</ele>
        <time>2017-05-17T11:51:16.757</time>
      </trkpt>
      <trkpt lat="48.44831" lon="2.64936">
        <ele>190</ele>
        <time>2017-05-17T11:51:17.756</time>
      </trkpt>
      <trkpt lat="48.44833" lon="2.64927">
        <ele>191</ele>
        <time>2017-05-17T11:51:18.757</time>
      </trkpt>
      <trkpt lat="48.44837" lon="2.64921">
        <ele>190</ele>
        <time>2017-05-17T11:51:19.757</time>
      </trkpt>
      <trkpt lat="48.4484" lon="2.64913">
        <ele>191</ele>
        <time>2017-05-17T11:51:20.757</time>
      </trkpt>
      <trkpt lat="48.44842" lon="2.64905">
        <ele>190</ele>
        <time>2017-05-17T11:51:21.756</time>
      </trkpt>
      <trkpt lat="48.44845" lon="2.64897">
        <ele>191</ele>
        <time>2017-05-17T11:51:22.757</time>
      </trkpt>
      <trkpt lat="48.44847" lon="2.6489">
        <ele>191</ele>
        <time>2017-05-17T11:51:23.756</time>
      </trkpt>
      <trkpt lat="48.44849" lon="2.64882">
        <ele>191</ele>
        <time>2017-05-17T11:51:24.758</time>
      </trkpt>
      <trkpt lat="48.44852" lon="2.64873">
        <ele>191</ele>
        <time>2017-05-17T11:51:25.757</time>
      </trkpt>
      <trkpt lat="48.44855" lon="2.64866">
        <ele>191</ele>
        <time>2017-05-17T11:51:26.755</time>
      </trkpt>
      <trkpt lat="48.44858" lon="2.64858">
        <ele>192</ele>
        <time>2017-05-17T11:51:27.755</time>
      </trkpt>
      <trkpt lat="48.44861" lon="2.64851">
        <ele>192</ele>
        <time>2017-05-17T11:51:28.755</time>
      </trkpt>
      <trkpt lat="48.44863" lon="2.64844">
        <ele>192</ele>
        <time>2017-05-17T11:51:29.756</time>
      </trkpt>
      <trkpt lat="48.44865" lon="2.64837">
        <ele>192</ele>
        <time>2017-05-17T11:51:30.755</time>
      </trkpt>
      <trkpt lat="48.44868" lon="2.64829">
        <ele>193</ele>
        <time>2017-05-17T11:51:31.754</time>
      </trkpt>
      <trkpt lat="48.44871" lon="2.64821">
        <ele>193</ele>
        <time>2017-05-17T11:51:32.757</time>
      </trkpt>
      <trkpt lat="48.44873" lon="2.64814">
        <ele>193</ele>
        <time>2017-05-17T11:51:33.755</time>
      </trkpt>
      <trkpt lat="48.44876" lon="2.64808">
        <ele>193</ele>
        <time>2017-05-17T11:51:34.755</time>
      </trkpt>
      <trkpt lat="48.44879" lon="2.648">
        <ele>193</ele>
        <time>2017-05-17T11:51:35.754</time>
      </trkpt>
      <trkpt lat="48.44882" lon="2.64791">
        <ele>193</ele>
        <time>2017-05-17T11:51:36.754</time>
      </trkpt>
      <trkpt lat="48.44885" lon="2.64782">
        <ele>193</ele>
        <time>2017-05-17T11:51:37.755</time>
      </trkpt>
      <trkpt lat="48.44887" lon="2.64775">
        <ele>193</ele>
        <time>2017-05-17T11:51:38.755</time>
      </trkpt>
      <trkpt lat="48.4489" lon="2.64767">
        <ele>193</ele>
        <time>2017-05-17T11:51:39.755</time>
      </trkpt>
      <trkpt lat="48.44893" lon="2.64759">
        <ele>193</ele>
        <time>2017-05-17T11:51:40.754</time>
      </trkpt>
      <trkpt lat="48.44895" lon="2.64751">
        <ele>193</ele>
        <time>2017-05-17T11:51:41.774</time>
      </trkpt>
      <trkpt lat="48.44898" lon="2.64744">
        <ele>193</ele>
        <time>2017-05-17T11:51:42.755</time>
      </trkpt>
      <trkpt lat="48.44902" lon="2.64737">
        <ele>193</ele>
        <time>2017-05-17T11:51:43.755</time>
      </trkpt>
      <trkpt lat="48.44906" lon="2.64729">
        <ele>193</ele>
        <time>2017-05-17T11:51:44.755</time>
      </trkpt>
      <trkpt lat="48.4491" lon="2.64724">
        <ele>193</ele>
        <time>2017-05-17T11:51:45.754</time>
      </trkpt>
      <trkpt lat="48.44915" lon="2.64717">
        <ele>194</ele>
        <time>2017-05-17T11:51:46.755</time>
      </trkpt>
      <trkpt lat="48.44919" lon="2.64713">
        <ele>195</ele>
        <time>2017-05-17T11:51:47.755</time>
      </trkpt>
      <trkpt lat="48.44925" lon="2.64711">
        <ele>195</ele>
        <time>2017-05-17T11:51:48.756</time>
      </trkpt>
      <trkpt lat="48.4493" lon="2.64711">
        <ele>195</ele>
        <time>2017-05-17T11:51:49.757</time>
      </trkpt>
      <trkpt lat="48.44935" lon="2.6471">
        <ele>195</ele>
        <time>2017-05-17T11:51:50.757</time>
      </trkpt>
      <trkpt lat="48.4494" lon="2.64708">
        <ele>195</ele>
        <time>2017-05-17T11:51:51.756</time>
      </trkpt>
      <trkpt lat="48.44945" lon="2.64707">
        <ele>195</ele>
        <time>2017-05-17T11:51:52.755</time>
      </trkpt>
      <trkpt lat="48.44948" lon="2.64709">
        <ele>195</ele>
        <time>2017-05-17T11:51:53.755</time>
      </trkpt>
      <trkpt lat="48.44952" lon="2.6471">
        <ele>194</ele>
        <time>2017-05-17T11:51:54.756</time>
      </trkpt>
      <trkpt lat="48.44956" lon="2.64714">
        <ele>194</ele>
        <time>2017-05-17T11:51:55.756</time>
      </trkpt>
      <trkpt lat="48.44957" lon="2.6472">
        <ele>195</ele>
        <time>2017-05-17T11:51:56.758</time>
      </trkpt>
      <trkpt lat="48.44957" lon="2.64728">
        <ele>194</ele>
        <time>2017-05-17T11:51:57.756</time>
      </trkpt>
      <trkpt lat="48.44959" lon="2.64734">
        <ele>194</ele>
        <time>2017-05-17T11:51:58.756</time>
      </trkpt>
      <trkpt lat="48.4496" lon="2.64742">
        <ele>194</ele>
        <time>2017-05-17T11:51:59.755</time>
      </trkpt>
      <trkpt lat="48.44961" lon="2.64747">
        <ele>194</ele>
        <time>2017-05-17T11:52:00.756</time>
      </trkpt>
      <trkpt lat="48.44962" lon="2.64752">
        <ele>194</ele>
        <time>2017-05-17T11:52:01.756</time>
      </trkpt>
      <trkpt lat="48.44963" lon="2.64758">
        <ele>194</ele>
        <time>2017-05-17T11:52:02.755</time>
      </trkpt>
      <trkpt lat="48.44965" lon="2.64762">
        <ele>194</ele>
        <time>2017-05-17T11:52:03.756</time>
      </trkpt>
      <trkpt lat="48.44966" lon="2.64769">
        <ele>194</ele>
        <time>2017-05-17T11:52:04.756</time>
      </trkpt>
      <trkpt lat="48.44968" lon="2.64773">
        <ele>194</ele>
        <time>2017-05-17T11:52:05.756</time>
      </trkpt>
      <trkpt lat="48.44969" lon="2.64779">
        <ele>194</ele>
        <time>2017-05-17T11:52:06.758</time>
      </trkpt>
      <trkpt lat="48.4497" lon="2.64785">
        <ele>194</ele>
        <time>2017-05-17T11:52:07.757</time>
      </trkpt>
      <trkpt lat="48.44973" lon="2.6479">
        <ele>194</ele>
        <time>2017-05-17T11:52:08.757</time>
      </trkpt>
      <trkpt lat="48.44974" lon="2.64796">
        <ele>193</ele>
        <time>2017-05-17T11:52:09.759</time>
      </trkpt>
      <trkpt lat="48.44974" lon="2.64802">
        <ele>193</ele>
        <time>2017-05-17T11:52:10.757</time>
      </trkpt>
      <trkpt lat="48.44975" lon="2.64808">
        <ele>193</ele>
        <time>2017-05-17T11:52:11.755</time>
      </trkpt>
      <trkpt lat="48.44976" lon="2.64813">
        <ele>193</ele>
        <time>2017-05-17T11:52:12.760</time>
      </trkpt>
      <trkpt lat="48.44977" lon="2.6482">
        <ele>195</ele>
        <time>2017-05-17T11:52:13.758</time>
      </trkpt>
      <trkpt lat="48.4498" lon="2.64826">
        <ele>195</ele>
        <time>2017-05-17T11:52:14.757</time>
      </trkpt>
      <trkpt lat="48.44982" lon="2.64832">
        <ele>194</ele>
        <time>2017-05-17T11:52:15.756</time>
      </trkpt>
      <trkpt lat="48.44984" lon="2.64839">
        <ele>195</ele>
        <time>2017-05-17T11:52:16.760</time>
      </trkpt>
      <trkpt lat="48.44986" lon="2.64845">
        <ele>196</ele>
        <time>2017-05-17T11:52:17.757</time>
      </trkpt>
      <trkpt lat="48.44986" lon="2.64851">
        <ele>196</ele>
        <time>2017-05-17T11:52:18.757</time>
      </trkpt>
      <trkpt lat="48.44987" lon="2.64858">
        <ele>195</ele>
        <time>2017-05-17T11:52:19.756</time>
      </trkpt>
      <trkpt lat="48.44987" lon="2.64865">
        <ele>195</ele>
        <time>2017-05-17T11:52:20.757</time>
      </trkpt>
      <trkpt lat="48.44988" lon="2.6487">
        <ele>194</ele>
        <time>2017-05-17T11:52:21.756</time>
      </trkpt>
      <trkpt lat="48.4499" lon="2.64877">
        <ele>193</ele>
        <time>2017-05-17T11:52:22.756</time>
      </trkpt>
      <trkpt lat="48.44991" lon="2.64885">
        <ele>196</ele>
        <time>2017-05-17T11:52:23.759</time>
      </trkpt>
      <trkpt lat="48.44992" lon="2.64891">
        <ele>195</ele>
        <time>2017-05-17T11:52:24.760</time>
      </trkpt>
      <trkpt lat="48.44993" lon="2.64896">
        <ele>194</ele>
        <time>2017-05-17T11:52:25.757</time>
      </trkpt>
      <trkpt lat="48.44995" lon="2.64903">
        <ele>193</ele>
        <time>2017-05-17T11:52:26.757</time>
      </trkpt>
      <trkpt lat="48.44997" lon="2.64909">
        <ele>192</ele>
        <time>2017-05-17T11:52:27.759</time>
      </trkpt>
      <trkpt lat="48.44999" lon="2.64917">
        <ele>192</ele>
        <time>2017-05-17T11:52:28.757</time>
      </trkpt>
      <trkpt lat="48.45001" lon="2.64923">
        <ele>192</ele>
        <time>2017-05-17T11:52:29.756</time>
      </trkpt>
      <trkpt lat="48.45003" lon="2.6493">
        <ele>192</ele>
        <time>2017-05-17T11:52:30.756</time>
      </trkpt>
      <trkpt lat="48.45005" lon="2.64936">
        <ele>192</ele>
        <time>2017-05-17T11:52:31.757</time>
      </trkpt>
      <trkpt lat="48.45009" lon="2.6494">
        <ele>192</ele>
        <time>2017-05-17T11:52:32.758</time>
      </trkpt>
      <trkpt lat="48.45013" lon="2.64939">
        <ele>193</ele>
        <time>2017-05-17T11:52:33.757</time>
      </trkpt>
      <trkpt lat="48.45015" lon="2.64939">
        <ele>193</ele>
        <time>2017-05-17T11:52:34.757</time>
      </trkpt>
      <trkpt lat="48.45017" lon="2.64936">
        <ele>193</ele>
        <time>2017-05-17T11:52:35.756</time>
      </trkpt>
      <trkpt lat="48.45021" lon="2.64934">
        <ele>194</ele>
        <time>2017-05-17T11:52:36.757</time>
      </trkpt>
      <trkpt lat="48.45024" lon="2.64932">
        <ele>194</ele>
        <time>2017-05-17T11:52:37.755</time>
      </trkpt>
      <trkpt lat="48.45028" lon="2.64929">
        <ele>194</ele>
        <time>2017-05-17T11:52:38.755</time>
      </trkpt>
      <trkpt lat="48.45032" lon="2.64927">
        <ele>195</ele>
        <time>2017-05-17T11:52:39.756</time>
      </trkpt>
      <trkpt lat="48.45036" lon="2.64925">
        <ele>196</ele>
        <time>2017-05-17T11:52:40.757</time>
      </trkpt>
      <trkpt lat="48.45039" lon="2.64927">
        <ele>195</ele>
        <time>2017-05-17T11:52:41.759</time>
      </trkpt>
      <trkpt lat="48.45044" lon="2.64924">
        <ele>195</ele>
        <time>2017-05-17T11:52:42.757</time>
      </trkpt>
      <trkpt lat="48.45048" lon="2.64922">
        <ele>195</ele>
        <time>2017-05-17T11:52:43.756</time>
      </trkpt>
      <trkpt lat="48.45052" lon="2.6492">
        <ele>195</ele>
        <time>2017-05-17T11:52:44.755</time>
      </trkpt>
      <trkpt lat="48.45057" lon="2.64917">
        <ele>195</ele>
        <time>2017-05-17T11:52:45.756</time>
      </trkpt>
      <trkpt lat="48.45061" lon="2.64915">
        <ele>195</ele>
        <time>2017-05-17T11:52:46.757</time>
      </trkpt>
      <trkpt lat="48.45064" lon="2.64912">
        <ele>195</ele>
        <time>2017-05-17T11:52:47.757</time>
      </trkpt>
      <trkpt lat="48.45068" lon="2.64912">
        <ele>195</ele>
        <time>2017-05-17T11:52:48.756</time>
      </trkpt>
      <trkpt lat="48.45072" lon="2.64907">
        <ele>195</ele>
        <time>2017-05-17T11:52:49.757</time>
      </trkpt>
      <trkpt lat="48.45076" lon="2.64904">
        <ele>195</ele>
        <time>2017-05-17T11:52:50.758</time>
      </trkpt>
      <trkpt lat="48.45079" lon="2.64903">
        <ele>196</ele>
        <time>2017-05-17T11:52:51.756</time>
      </trkpt>
      <trkpt lat="48.45084" lon="2.649">
        <ele>194</ele>
        <time>2017-05-17T11:52:52.755</time>
      </trkpt>
      <trkpt lat="48.45088" lon="2.64898">
        <ele>194</ele>
        <time>2017-05-17T11:52:53.755</time>
      </trkpt>
      <trkpt lat="48.45091" lon="2.64895">
        <ele>194</ele>
        <time>2017-05-17T11:52:54.755</time>
      </trkpt>
      <trkpt lat="48.45095" lon="2.64895">
        <ele>192</ele>
        <time>2017-05-17T11:52:55.754</time>
      </trkpt>
      <trkpt lat="48.45099" lon="2.64893">
        <ele>193</ele>
        <time>2017-05-17T11:52:56.756</time>
      </trkpt>
      <trkpt lat="48.45103" lon="2.64889">
        <ele>193</ele>
        <time>2017-05-17T11:52:57.758</time>
      </trkpt>
      <trkpt lat="48.45106" lon="2.64888">
        <ele>193</ele>
        <time>2017-05-17T11:52:58.756</time>
      </trkpt>
      <trkpt lat="48.45109" lon="2.64886">
        <ele>193</ele>
        <time>2017-05-17T11:52:59.755</time>
      </trkpt>
      <trkpt lat="48.45112" lon="2.64882">
        <ele>193</ele>
        <time>2017-05-17T11:53:00.755</time>
      </trkpt>
      <trkpt lat="48.45116" lon="2.64879">
        <ele>193</ele>
        <time>2017-05-17T11:53:01.755</time>
      </trkpt>
      <trkpt lat="48.4512" lon="2.64876">
        <ele>194</ele>
        <time>2017-05-17T11:53:02.756</time>
      </trkpt>
      <trkpt lat="48.45125" lon="2.64872">
        <ele>194</ele>
        <time>2017-05-17T11:53:03.754</time>
      </trkpt>
      <trkpt lat="48.4513" lon="2.64868">
        <ele>195</ele>
        <time>2017-05-17T11:53:04.755</time>
      </trkpt>
      <trkpt lat="48.45136" lon="2.64864">
        <ele>195</ele>
        <time>2017-05-17T11:53:05.757</time>
      </trkpt>
      <trkpt lat="48.4514" lon="2.64863">
        <ele>196</ele>
        <time>2017-05-17T11:53:06.757</time>
      </trkpt>
      <trkpt lat="48.45144" lon="2.64861">
        <ele>197</ele>
        <time>2017-05-17T11:53:07.756</time>
      </trkpt>
      <trkpt lat="48.45147" lon="2.64859">
        <ele>197</ele>
        <time>2017-05-17T11:53:08.757</time>
      </trkpt>
      <trkpt lat="48.45151" lon="2.64858">
        <ele>197</ele>
        <time>2017-05-17T11:53:09.754</time>
      </trkpt>
      <trkpt lat="48.45156" lon="2.64853">
        <ele>198</ele>
        <time>2017-05-17T11:53:10.754</time>
      </trkpt>
      <trkpt lat="48.4516" lon="2.64849">
        <ele>198</ele>
        <time>2017-05-17T11:53:11.757</time>
      </trkpt>
      <trkpt lat="48.45164" lon="2.64848">
        <ele>199</ele>
        <time>2017-05-17T11:53:12.756</time>
      </trkpt>
      <trkpt lat="48.45168" lon="2.64849">
        <ele>199</ele>
        <time>2017-05-17T11:53:13.756</time>
      </trkpt>
      <trkpt lat="48.45169" lon="2.64845">
        <ele>199</ele>
        <time>2017-05-17T11:53:14.756</time>
      </trkpt>
      <trkpt lat="48.45172" lon="2.64843">
        <ele>199</ele>
        <time>2017-05-17T11:53:15.757</time>
      </trkpt>
      <trkpt lat="48.45179" lon="2.64839">
        <ele>198</ele>
        <time>2017-05-17T11:53:16.756</time>
      </trkpt>
      <trkpt lat="48.45183" lon="2.64836">
        <ele>198</ele>
        <time>2017-05-17T11:53:17.757</time>
      </trkpt>
      <trkpt lat="48.45187" lon="2.64834">
        <ele>198</ele>
        <time>2017-05-17T11:53:18.755</time>
      </trkpt>
      <trkpt lat="48.45191" lon="2.64834">
        <ele>199</ele>
        <time>2017-05-17T11:53:19.754</time>
      </trkpt>
      <trkpt lat="48.45195" lon="2.64834">
        <ele>198</ele>
        <time>2017-05-17T11:53:20.756</time>
      </trkpt>
      <trkpt lat="48.452" lon="2.64836">
        <ele>198</ele>
        <time>2017-05-17T11:53:21.755</time>
      </trkpt>
      <trkpt lat="48.45203" lon="2.64838">
        <ele>198</ele>
        <time>2017-05-17T11:53:22.755</time>
      </trkpt>
      <trkpt lat="48.45206" lon="2.64839">
        <ele>198</ele>
        <time>2017-05-17T11:53:23.756</time>
      </trkpt>
      <trkpt lat="48.45207" lon="2.64844">
        <ele>198</ele>
        <time>2017-05-17T11:53:24.757</time>
      </trkpt>
      <trkpt lat="48.45212" lon="2.64844">
        <ele>201</ele>
        <time>2017-05-17T11:53:25.755</time>
      </trkpt>
      <trkpt lat="48.45213" lon="2.64842">
        <ele>200</ele>
        <time>2017-05-17T11:53:26.755</time>
      </trkpt>
      <trkpt lat="48.45209" lon="2.64843">
        <ele>200</ele>
        <time>2017-05-17T11:53:27.754</time>
      </trkpt>
      <trkpt lat="48.45209" lon="2.64844">
        <ele>201</ele>
        <time>2017-05-17T11:53:28.753</time>
      </trkpt>
      <trkpt lat="48.45208" lon="2.64844">
        <ele>201</ele>
        <time>2017-05-17T11:53:29.752</time>
      </trkpt>
      <trkpt lat="48.45208" lon="2.64845">
        <ele>201</ele>
        <time>2017-05-17T11:53:30.752</time>
      </trkpt>
      <trkpt lat="48.45209" lon="2.64845">
        <ele>201</ele>
        <time>2017-05-17T11:53:31.753</time>
      </trkpt>
      <trkpt lat="48.4521" lon="2.64846">
        <ele>201</ele>
        <time>2017-05-17T11:53:32.758</time>
      </trkpt>
      <trkpt lat="48.45211" lon="2.64848">
        <ele>200</ele>
        <time>2017-05-17T11:53:33.758</time>
      </trkpt>
      <trkpt lat="48.45213" lon="2.6485">
        <ele>200</ele>
        <time>2017-05-17T11:53:34.756</time>
      </trkpt>
      <trkpt lat="48.45216" lon="2.64853">
        <ele>199</ele>
        <time>2017-05-17T11:53:35.756</time>
      </trkpt>
      <trkpt lat="48.45219" lon="2.64857">
        <ele>198</ele>
        <time>2017-05-17T11:53:36.756</time>
      </trkpt>
      <trkpt lat="48.45222" lon="2.64858">
        <ele>197</ele>
        <time>2017-05-17T11:53:37.755</time>
      </trkpt>
      <trkpt lat="48.45226" lon="2.64862">
        <ele>197</ele>
        <time>2017-05-17T11:53:38.755</time>
      </trkpt>
      <trkpt lat="48.45227" lon="2.64866">
        <ele>197</ele>
        <time>2017-05-17T11:53:39.755</time>
      </trkpt>
      <trkpt lat="48.45231" lon="2.64867">
        <ele>196</ele>
        <time>2017-05-17T11:53:40.756</time>
      </trkpt>
      <trkpt lat="48.45236" lon="2.6487">
        <ele>196</ele>
        <time>2017-05-17T11:53:41.757</time>
      </trkpt>
      <trkpt lat="48.45241" lon="2.64871">
        <ele>196</ele>
        <time>2017-05-17T11:53:42.757</time>
      </trkpt>
      <trkpt lat="48.45247" lon="2.64871">
        <ele>196</ele>
        <time>2017-05-17T11:53:43.757</time>
      </trkpt>
      <trkpt lat="48.45251" lon="2.64874">
        <ele>195</ele>
        <time>2017-05-17T11:53:44.758</time>
      </trkpt>
      <trkpt lat="48.45253" lon="2.64878">
        <ele>196</ele>
        <time>2017-05-17T11:53:45.760</time>
      </trkpt>
      <trkpt lat="48.45256" lon="2.6488">
        <ele>196</ele>
        <time>2017-05-17T11:53:46.756</time>
      </trkpt>
      <trkpt lat="48.45259" lon="2.64883">
        <ele>195</ele>
        <time>2017-05-17T11:53:47.757</time>
      </trkpt>
      <trkpt lat="48.45262" lon="2.64886">
        <ele>195</ele>
        <time>2017-05-17T11:53:48.756</time>
      </trkpt>
      <trkpt lat="48.45264" lon="2.6489">
        <ele>197</ele>
        <time>2017-05-17T11:53:49.759</time>
      </trkpt>
      <trkpt lat="48.45268" lon="2.64892">
        <ele>196</ele>
        <time>2017-05-17T11:53:50.767</time>
      </trkpt>
      <trkpt lat="48.45272" lon="2.64895">
        <ele>196</ele>
        <time>2017-05-17T11:53:51.767</time>
      </trkpt>
      <trkpt lat="48.45277" lon="2.64897">
        <ele>196</ele>
        <time>2017-05-17T11:53:52.767</time>
      </trkpt>
      <trkpt lat="48.45283" lon="2.64899">
        <ele>196</ele>
        <time>2017-05-17T11:53:53.764</time>
      </trkpt>
      <trkpt lat="48.45287" lon="2.64903">
        <ele>198</ele>
        <time>2017-05-17T11:53:54.765</time>
      </trkpt>
      <trkpt lat="48.45291" lon="2.64907">
        <ele>199</ele>
        <time>2017-05-17T11:53:55.778</time>
      </trkpt>
      <trkpt lat="48.45294" lon="2.64914">
        <ele>198</ele>
        <time>2017-05-17T11:53:56.777</time>
      </trkpt>
      <trkpt lat="48.45299" lon="2.64917">
        <ele>198</ele>
        <time>2017-05-17T11:53:57.758</time>
      </trkpt>
      <trkpt lat="48.45304" lon="2.64918">
        <ele>199</ele>
        <time>2017-05-17T11:53:58.756</time>
      </trkpt>
      <trkpt lat="48.45309" lon="2.6492">
        <ele>200</ele>
        <time>2017-05-17T11:53:59.756</time>
      </trkpt>
      <trkpt lat="48.45313" lon="2.64922">
        <ele>199</ele>
        <time>2017-05-17T11:54:00.757</time>
      </trkpt>
      <trkpt lat="48.45312" lon="2.64929">
        <ele>198</ele>
        <time>2017-05-17T11:54:01.755</time>
      </trkpt>
      <trkpt lat="48.45314" lon="2.64933">
        <ele>198</ele>
        <time>2017-05-17T11:54:02.758</time>
      </trkpt>
      <trkpt lat="48.45317" lon="2.64938">
        <ele>197</ele>
        <time>2017-05-17T11:54:03.756</time>
      </trkpt>
      <trkpt lat="48.45321" lon="2.64939">
        <ele>197</ele>
        <time>2017-05-17T11:54:04.757</time>
      </trkpt>
      <trkpt lat="48.45323" lon="2.64944">
        <ele>196</ele>
        <time>2017-05-17T11:54:05.756</time>
      </trkpt>
      <trkpt lat="48.45325" lon="2.64951">
        <ele>197</ele>
        <time>2017-05-17T11:54:06.755</time>
      </trkpt>
      <trkpt lat="48.45329" lon="2.64955">
        <ele>196</ele>
        <time>2017-05-17T11:54:07.755</time>
      </trkpt>
      <trkpt lat="48.45333" lon="2.64957">
        <ele>196</ele>
        <time>2017-05-17T11:54:08.757</time>
      </trkpt>
      <trkpt lat="48.45337" lon="2.6496">
        <ele>195</ele>
        <time>2017-05-17T11:54:09.756</time>
      </trkpt>
      <trkpt lat="48.45342" lon="2.64963">
        <ele>195</ele>
        <time>2017-05-17T11:54:10.758</time>
      </trkpt>
      <trkpt lat="48.45347" lon="2.64969">
        <ele>195</ele>
        <time>2017-05-17T11:54:11.756</time>
      </trkpt>
      <trkpt lat="48.45352" lon="2.64975">
        <ele>195</ele>
        <time>2017-05-17T11:54:12.756</time>
      </trkpt>
      <trkpt lat="48.45358" lon="2.64979">
        <ele>193</ele>
        <time>2017-05-17T11:54:13.756</time>
      </trkpt>
      <trkpt lat="48.45364" lon="2.6498">
        <ele>192</ele>
        <time>2017-05-17T11:54:14.756</time>
      </trkpt>
      <trkpt lat="48.45368" lon="2.64983">
        <ele>192</ele>
        <time>2017-05-17T11:54:15.756</time>
      </trkpt>
      <trkpt lat="48.45373" lon="2.64986">
        <ele>191</ele>
        <time>2017-05-17T11:54:16.757</time>
      </trkpt>
      <trkpt lat="48.45375" lon="2.64992">
        <ele>191</ele>
        <time>2017-05-17T11:54:17.755</time>
      </trkpt>
      <trkpt lat="48.4538" lon="2.64998">
        <ele>191</ele>
        <time>2017-05-17T11:54:18.757</time>
      </trkpt>
      <trkpt lat="48.45384" lon="2.65002">
        <ele>191</ele>
        <time>2017-05-17T11:54:19.759</time>
      </trkpt>
      <trkpt lat="48.4539" lon="2.65007">
        <ele>192</ele>
        <time>2017-05-17T11:54:20.757</time>
      </trkpt>
      <trkpt lat="48.45395" lon="2.65012">
        <ele>193</ele>
        <time>2017-05-17T11:54:21.756</time>
      </trkpt>
      <trkpt lat="48.45404" lon="2.65013">
        <ele>191</ele>
        <time>2017-05-17T11:54:22.759</time>
      </trkpt>
      <trkpt lat="48.45411" lon="2.65015">
        <ele>191</ele>
        <time>2017-05-17T11:54:23.756</time>
      </trkpt>
      <trkpt lat="48.45417" lon="2.65016">
        <ele>191</ele>
        <time>2017-05-17T11:54:24.755</time>
      </trkpt>
      <trkpt lat="48.45425" lon="2.65019">
        <ele>192</ele>
        <time>2017-05-17T11:54:25.756</time>
      </trkpt>
      <trkpt lat="48.45431" lon="2.65022">
        <ele>193</ele>
        <time>2017-05-17T11:54:26.756</time>
      </trkpt>
      <trkpt lat="48.45438" lon="2.65026">
        <ele>194</ele>
        <time>2017-05-17T11:54:27.754</time>
      </trkpt>
      <trkpt lat="48.45444" lon="2.65027">
        <ele>195</ele>
        <time>2017-05-17T11:54:28.756</time>
      </trkpt>
      <trkpt lat="48.45447" lon="2.65023">
        <ele>194</ele>
        <time>2017-05-17T11:54:29.757</time>
      </trkpt>
      <trkpt lat="48.4545" lon="2.65019">
        <ele>195</ele>
        <time>2017-05-17T11:54:30.756</time>
      </trkpt>
      <trkpt lat="48.45451" lon="2.65014">
        <ele>194</ele>
        <time>2017-05-17T11:54:31.755</time>
      </trkpt>
      <trkpt lat="48.45452" lon="2.65008">
        <ele>194</ele>
        <time>2017-05-17T11:54:32.757</time>
      </trkpt>
      <trkpt lat="48.45453" lon="2.65001">
        <ele>194</ele>
        <time>2017-05-17T11:54:33.757</time>
      </trkpt>
      <trkpt lat="48.45455" lon="2.64996">
        <ele>194</ele>
        <time>2017-05-17T11:54:34.756</time>
      </trkpt>
      <trkpt lat="48.45457" lon="2.64989">
        <ele>194</ele>
        <time>2017-05-17T11:54:35.755</time>
      </trkpt>
      <trkpt lat="48.45459" lon="2.64983">
        <ele>194</ele>
        <time>2017-05-17T11:54:36.756</time>
      </trkpt>
      <trkpt lat="48.45462" lon="2.64978">
        <ele>194</ele>
        <time>2017-05-17T11:54:37.756</time>
      </trkpt>
      <trkpt lat="48.45463" lon="2.64972">
        <ele>194</ele>
        <time>2017-05-17T11:54:38.756</time>
      </trkpt>
      <trkpt lat="48.45465" lon="2.64966">
        <ele>194</ele>
        <time>2017-05-17T11:54:39.756</time>
      </trkpt>
      <trkpt lat="48.45467" lon="2.64959">
        <ele>194</ele>
        <time>2017-05-17T11:54:40.758</time>
      </trkpt>
      <trkpt lat="48.45469" lon="2.6495">
        <ele>195</ele>
        <time>2017-05-17T11:54:41.756</time>
      </trkpt>
      <trkpt lat="48.45471" lon="2.64943">
        <ele>194</ele>
        <time>2017-05-17T11:54:42.756</time>
      </trkpt>
      <trkpt lat="48.45473" lon="2.64935">
        <ele>195</ele>
        <time>2017-05-17T11:54:43.756</time>
      </trkpt>
      <trkpt lat="48.45474" lon="2.64929">
        <ele>194</ele>
        <time>2017-05-17T11:54:44.758</time>
      </trkpt>
      <trkpt lat="48.45476" lon="2.64922">
        <ele>193</ele>
        <time>2017-05-17T11:54:45.757</time>
      </trkpt>
      <trkpt lat="48.45478" lon="2.64915">
        <ele>193</ele>
        <time>2017-05-17T11:54:46.757</time>
      </trkpt>
      <trkpt lat="48.45481" lon="2.64909">
        <ele>193</ele>
        <time>2017-05-17T11:54:47.756</time>
      </trkpt>
      <trkpt lat="48.45485" lon="2.64901">
        <ele>192</ele>
        <time>2017-05-17T11:54:48.757</time>
      </trkpt>
      <trkpt lat="48.45486" lon="2.64891">
        <ele>193</ele>
        <time>2017-05-17T11:54:49.758</time>
      </trkpt>
      <trkpt lat="48.45488" lon="2.64883">
        <ele>192</ele>
        <time>2017-05-17T11:54:50.756</time>
      </trkpt>
      <trkpt lat="48.45491" lon="2.64874">
        <ele>192</ele>
        <time>2017-05-17T11:54:51.757</time>
      </trkpt>
      <trkpt lat="48.45494" lon="2.64865">
        <ele>193</ele>
        <time>2017-05-17T11:54:52.758</time>
      </trkpt>
      <trkpt lat="48.45496" lon="2.64858">
        <ele>193</ele>
        <time>2017-05-17T11:54:53.757</time>
      </trkpt>
      <trkpt lat="48.45499" lon="2.6485">
        <ele>193</ele>
        <time>2017-05-17T11:54:54.756</time>
      </trkpt>
      <trkpt lat="48.45501" lon="2.64842">
        <ele>194</ele>
        <time>2017-05-17T11:54:55.756</time>
      </trkpt>
      <trkpt lat="48.45502" lon="2.64836">
        <ele>194</ele>
        <time>2017-05-17T11:54:56.756</time>
      </trkpt>
      <trkpt lat="48.45504" lon="2.64829">
        <ele>194</ele>
        <time>2017-05-17T11:54:57.757</time>
      </trkpt>
      <trkpt lat="48.45507" lon="2.64821">
        <ele>195</ele>
        <time>2017-05-17T11:54:58.757</time>
      </trkpt>
      <trkpt lat="48.45509" lon="2.64813">
        <ele>195</ele>
        <time>2017-05-17T11:54:59.754</time>
      </trkpt>
      <trkpt lat="48.45511" lon="2.64805">
        <ele>195</ele>
        <time>2017-05-17T11:55:00.755</time>
      </trkpt>
      <trkpt lat="48.45513" lon="2.64797">
        <ele>195</ele>
        <time>2017-05-17T11:55:01.756</time>
      </trkpt>
      <trkpt lat="48.45515" lon="2.64789">
        <ele>195</ele>
        <time>2017-05-17T11:55:02.756</time>
      </trkpt>
      <trkpt lat="48.45516" lon="2.64779">
        <ele>195</ele>
        <time>2017-05-17T11:55:03.756</time>
      </trkpt>
      <trkpt lat="48.45519" lon="2.64774">
        <ele>195</ele>
        <time>2017-05-17T11:55:04.755</time>
      </trkpt>
      <trkpt lat="48.45521" lon="2.64766">
        <ele>196</ele>
        <time>2017-05-17T11:55:05.756</time>
      </trkpt>
      <trkpt lat="48.45523" lon="2.64759">
        <ele>196</ele>
        <time>2017-05-17T11:55:06.757</time>
      </trkpt>
      <trkpt lat="48.45525" lon="2.64749">
        <ele>195</ele>
        <time>2017-05-17T11:55:07.756</time>
      </trkpt>
      <trkpt lat="48.45527" lon="2.64741">
        <ele>195</ele>
        <time>2017-05-17T11:55:08.755</time>
      </trkpt>
      <trkpt lat="48.45529" lon="2.64734">
        <ele>195</ele>
        <time>2017-05-17T11:55:09.756</time>
      </trkpt>
      <trkpt lat="48.45531" lon="2.64728">
        <ele>194</ele>
        <time>2017-05-17T11:55:10.755</time>
      </trkpt>
      <trkpt lat="48.45535" lon="2.64722">
        <ele>192</ele>
        <time>2017-05-17T11:55:11.755</time>
      </trkpt>
      <trkpt lat="48.45537" lon="2.64714">
        <ele>193</ele>
        <time>2017-05-17T11:55:12.756</time>
      </trkpt>
      <trkpt lat="48.45539" lon="2.64706">
        <ele>193</ele>
        <time>2017-05-17T11:55:13.754</time>
      </trkpt>
      <trkpt lat="48.45541" lon="2.64696">
        <ele>193</ele>
        <time>2017-05-17T11:55:14.756</time>
      </trkpt>
      <trkpt lat="48.45542" lon="2.64687">
        <ele>193</ele>
        <time>2017-05-17T11:55:15.757</time>
      </trkpt>
      <trkpt lat="48.45543" lon="2.64674">
        <ele>194</ele>
        <time>2017-05-17T11:55:16.757</time>
      </trkpt>
      <trkpt lat="48.45546" lon="2.64668">
        <ele>195</ele>
        <time>2017-05-17T11:55:17.755</time>
      </trkpt>
      <trkpt lat="48.45549" lon="2.64664">
        <ele>194</ele>
        <time>2017-05-17T11:55:18.755</time>
      </trkpt>
      <trkpt lat="48.45551" lon="2.64658">
        <ele>195</ele>
        <time>2017-05-17T11:55:19.755</time>
      </trkpt>
      <trkpt lat="48.45553" lon="2.6465">
        <ele>196</ele>
        <time>2017-05-17T11:55:20.755</time>
      </trkpt>
      <trkpt lat="48.45555" lon="2.64642">
        <ele>195</ele>
        <time>2017-05-17T11:55:21.756</time>
      </trkpt>
      <trkpt lat="48.45557" lon="2.64635">
        <ele>194</ele>
        <time>2017-05-17T11:55:22.757</time>
      </trkpt>
      <trkpt lat="48.45561" lon="2.64627">
        <ele>195</ele>
        <time>2017-05-17T11:55:23.756</time>
      </trkpt>
      <trkpt lat="48.45563" lon="2.64619">
        <ele>195</ele>
        <time>2017-05-17T11:55:24.755</time>
      </trkpt>
      <trkpt lat="48.45565" lon="2.6461">
        <ele>195</ele>
        <time>2017-05-17T11:55:25.756</time>
      </trkpt>
      <trkpt lat="48.45567" lon="2.64601">
        <ele>195</ele>
        <time>2017-05-17T11:55:26.756</time>
      </trkpt>
      <trkpt lat="48.4557" lon="2.64593">
        <ele>195</ele>
        <time>2017-05-17T11:55:27.756</time>
      </trkpt>
      <trkpt lat="48.45572" lon="2.64585">
        <ele>195</ele>
        <time>2017-05-17T11:55:28.756</time>
      </trkpt>
      <trkpt lat="48.45574" lon="2.64577">
        <ele>195</ele>
        <time>2017-05-17T11:55:29.756</time>
      </trkpt>
      <trkpt lat="48.45576" lon="2.64568">
        <ele>196</ele>
        <time>2017-05-17T11:55:30.758</time>
      </trkpt>
      <trkpt lat="48.45578" lon="2.6456">
        <ele>196</ele>
        <time>2017-05-17T11:55:31.758</time>
      </trkpt>
      <trkpt lat="48.45581" lon="2.64553">
        <ele>195</ele>
        <time>2017-05-17T11:55:32.757</time>
      </trkpt>
      <trkpt lat="48.45582" lon="2.64545">
        <ele>195</ele>
        <time>2017-05-17T11:55:33.757</time>
      </trkpt>
      <trkpt lat="48.45584" lon="2.64536">
        <ele>195</ele>
        <time>2017-05-17T11:55:34.757</time>
      </trkpt>
      <trkpt lat="48.45587" lon="2.64528">
        <ele>194</ele>
        <time>2017-05-17T11:55:35.756</time>
      </trkpt>
      <trkpt lat="48.45589" lon="2.6452">
        <ele>193</ele>
        <time>2017-05-17T11:55:36.756</time>
      </trkpt>
      <trkpt lat="48.45591" lon="2.64511">
        <ele>194</ele>
        <time>2017-05-17T11:55:37.757</time>
      </trkpt>
      <trkpt lat="48.45593" lon="2.64503">
        <ele>193</ele>
        <time>2017-05-17T11:55:38.757</time>
      </trkpt>
      <trkpt lat="48.45595" lon="2.64495">
        <ele>193</ele>
        <time>2017-05-17T11:55:39.757</time>
      </trkpt>
      <trkpt lat="48.45598" lon="2.64486">
        <ele>193</ele>
        <time>2017-05-17T11:55:40.758</time>
      </trkpt>
      <trkpt lat="48.456" lon="2.64477">
        <ele>193</ele>
        <time>2017-05-17T11:55:41.756</time>
      </trkpt>
      <trkpt lat="48.45602" lon="2.64469">
        <ele>193</ele>
        <time>2017-05-17T11:55:42.755</time>
      </trkpt>
      <trkpt lat="48.45604" lon="2.6446">
        <ele>193</ele>
        <time>2017-05-17T11:55:43.754</time>
      </trkpt>
      <trkpt lat="48.45607" lon="2.64452">
        <ele>193</ele>
        <time>2017-05-17T11:55:44.754</time>
      </trkpt>
      <trkpt lat="48.45609" lon="2.64443">
        <ele>193</ele>
        <time>2017-05-17T11:55:45.754</time>
      </trkpt>
      <trkpt lat="48.45611" lon="2.64434">
        <ele>194</ele>
        <time>2017-05-17T11:55:46.756</time>
      </trkpt>
      <trkpt lat="48.45613" lon="2.64425">
        <ele>193</ele>
        <time>2017-05-17T11:55:47.757</time>
      </trkpt>
      <trkpt lat="48.45616" lon="2.64416">
        <ele>193</ele>
        <time>2017-05-17T11:55:48.757</time>
      </trkpt>
      <trkpt lat="48.45618" lon="2.64407">
        <ele>193</ele>
        <time>2017-05-17T11:55:49.757</time>
      </trkpt>
      <trkpt lat="48.45621" lon="2.64398">
        <ele>193</ele>
        <time>2017-05-17T11:55:50.756</time>
      </trkpt>
      <trkpt lat="48.45623" lon="2.6439">
        <ele>192</ele>
        <time>2017-05-17T11:55:51.757</time>
      </trkpt>
      <trkpt lat="48.45626" lon="2.6438">
        <ele>192</ele>
        <time>2017-05-17T11:55:52.757</time>
      </trkpt>
      <trkpt lat="48.45628" lon="2.64371">
        <ele>192</ele>
        <time>2017-05-17T11:55:53.756</time>
      </trkpt>
      <trkpt lat="48.45631" lon="2.64362">
        <ele>191</ele>
        <time>2017-05-17T11:55:54.758</time>
      </trkpt>
      <trkpt lat="48.45633" lon="2.64353">
        <ele>192</ele>
        <time>2017-05-17T11:55:55.755</time>
      </trkpt>
      <trkpt lat="48.45636" lon="2.64345">
        <ele>192</ele>
        <time>2017-05-17T11:55:56.755</time>
      </trkpt>
      <trkpt lat="48.45638" lon="2.64337">
        <ele>192</ele>
        <time>2017-05-17T11:55:57.755</time>
      </trkpt>
      <trkpt lat="48.4564" lon="2.64328">
        <ele>192</ele>
        <time>2017-05-17T11:55:58.754</time>
      </trkpt>
      <trkpt lat="48.45643" lon="2.6432">
        <ele>192</ele>
        <time>2017-05-17T11:55:59.755</time>
      </trkpt>
      <trkpt lat="48.45645" lon="2.64312">
        <ele>192</ele>
        <time>2017-05-17T11:56:00.756</time>
      </trkpt>
      <trkpt lat="48.45648" lon="2.64303">
        <ele>192</ele>
        <time>2017-05-17T11:56:01.755</time>
      </trkpt>
      <trkpt lat="48.4565" lon="2.64295">
        <ele>192</ele>
        <time>2017-05-17T11:56:02.756</time>
      </trkpt>
      <trkpt lat="48.45653" lon="2.64287">
        <ele>192</ele>
        <time>2017-05-17T11:56:03.756</time>
      </trkpt>
      <trkpt lat="48.45655" lon="2.64278">
        <ele>192</ele>
        <time>2017-05-17T11:56:04.757</time>
      </trkpt>
      <trkpt lat="48.45658" lon="2.64271">
        <ele>191</ele>
        <time>2017-05-17T11:56:05.757</time>
      </trkpt>
      <trkpt lat="48.4566" lon="2.6426">
        <ele>191</ele>
        <time>2017-05-17T11:56:06.755</time>
      </trkpt>
      <trkpt lat="48.45662" lon="2.64252">
        <ele>191</ele>
        <time>2017-05-17T11:56:07.756</time>
      </trkpt>
      <trkpt lat="48.45665" lon="2.64243">
        <ele>192</ele>
        <time>2017-05-17T11:56:08.756</time>
      </trkpt>
      <trkpt lat="48.45667" lon="2.64234">
        <ele>192</ele>
        <time>2017-05-17T11:56:09.757</time>
      </trkpt>
      <trkpt lat="48.45669" lon="2.64226">
        <ele>192</ele>
        <time>2017-05-17T11:56:10.758</time>
      </trkpt>
      <trkpt lat="48.45672" lon="2.64218">
        <ele>191</ele>
        <time>2017-05-17T11:56:11.757</time>
      </trkpt>
      <trkpt lat="48.45674" lon="2.6421">
        <ele>191</ele>
        <time>2017-05-17T11:56:12.756</time>
      </trkpt>
      <trkpt lat="48.45676" lon="2.64202">
        <ele>191</ele>
        <time>2017-05-17T11:56:13.756</time>
      </trkpt>
      <trkpt lat="48.45677" lon="2.64194">
        <ele>190</ele>
        <time>2017-05-17T11:56:14.756</time>
      </trkpt>
      <trkpt lat="48.45679" lon="2.64187">
        <ele>189</ele>
        <time>2017-05-17T11:56:15.757</time>
      </trkpt>
      <trkpt lat="48.45682" lon="2.64179">
        <ele>189</ele>
        <time>2017-05-17T11:56:16.757</time>
      </trkpt>
      <trkpt lat="48.45684" lon="2.64171">
        <ele>189</ele>
        <time>2017-05-17T11:56:17.756</time>
      </trkpt>
      <trkpt lat="48.45686" lon="2.64164">
        <ele>189</ele>
        <time>2017-05-17T11:56:18.756</time>
      </trkpt>
      <trkpt lat="48.45688" lon="2.64157">
        <ele>189</ele>
        <time>2017-05-17T11:56:19.756</time>
      </trkpt>
      <trkpt lat="48.4569" lon="2.6415">
        <ele>190</ele>
        <time>2017-05-17T11:56:20.755</time>
      </trkpt>
      <trkpt lat="48.45691" lon="2.64142">
        <ele>189</ele>
        <time>2017-05-17T11:56:21.758</time>
      </trkpt>
      <trkpt lat="48.45692" lon="2.64133">
        <ele>190</ele>
        <time>2017-05-17T11:56:22.758</time>
      </trkpt>
      <trkpt lat="48.45694" lon="2.64128">
        <ele>190</ele>
        <time>2017-05-17T11:56:23.757</time>
      </trkpt>
      <trkpt lat="48.45695" lon="2.64121">
        <ele>190</ele>
        <time>2017-05-17T11:56:24.757</time>
      </trkpt>
      <trkpt lat="48.45697" lon="2.64116">
        <ele>190</ele>
        <time>2017-05-17T11:56:25.756</time>
      </trkpt>
      <trkpt lat="48.45699" lon="2.64111">
        <ele>190</ele>
        <time>2017-05-17T11:56:26.756</time>
      </trkpt>
      <trkpt lat="48.45701" lon="2.64104">
        <ele>190</ele>
        <time>2017-05-17T11:56:27.755</time>
      </trkpt>
      <trkpt lat="48.45702" lon="2.64098">
        <ele>189</ele>
        <time>2017-05-17T11:56:28.755</time>
      </trkpt>
      <trkpt lat="48.45703" lon="2.64091">
        <ele>190</ele>
        <time>2017-05-17T11:56:29.757</time>
      </trkpt>
      <trkpt lat="48.45705" lon="2.64086">
        <ele>190</ele>
        <time>2017-05-17T11:56:30.758</time>
      </trkpt>
      <trkpt lat="48.45707" lon="2.64078">
        <ele>190</ele>
        <time>2017-05-17T11:56:31.757</time>
      </trkpt>
      <trkpt lat="48.45709" lon="2.64072">
        <ele>190</ele>
        <time>2017-05-17T11:56:32.756</time>
      </trkpt>
      <trkpt lat="48.45711" lon="2.64065">
        <ele>190</ele>
        <time>2017-05-17T11:56:33.756</time>
      </trkpt>
      <trkpt lat="48.45713" lon="2.64059">
        <ele>190</ele>
        <time>2017-05-17T11:56:34.757</time>
      </trkpt>
      <trkpt lat="48.45715" lon="2.64054">
        <ele>189</ele>
        <time>2017-05-17T11:56:35.755</time>
      </trkpt>
      <trkpt lat="48.45716" lon="2.64047">
        <ele>189</ele>
        <time>2017-05-17T11:56:36.755</time>
      </trkpt>
      <trkpt lat="48.45718" lon="2.6404">
        <ele>190</ele>
        <time>2017-05-17T11:56:37.755</time>
      </trkpt>
      <trkpt lat="48.45721" lon="2.64033">
        <ele>189</ele>
        <time>2017-05-17T11:56:38.755</time>
      </trkpt>
      <trkpt lat="48.45723" lon="2.64026">
        <ele>190</ele>
        <time>2017-05-17T11:56:39.755</time>
      </trkpt>
      <trkpt lat="48.45725" lon="2.64018">
        <ele>191</ele>
        <time>2017-05-17T11:56:40.755</time>
      </trkpt>
      <trkpt lat="48.45727" lon="2.64011">
        <ele>191</ele>
        <time>2017-05-17T11:56:41.755</time>
      </trkpt>
      <trkpt lat="48.45728" lon="2.64006">
        <ele>191</ele>
        <time>2017-05-17T11:56:42.755</time>
      </trkpt>
      <trkpt lat="48.4573" lon="2.63999">
        <ele>191</ele>
        <time>2017-05-17T11:56:43.756</time>
      </trkpt>
      <trkpt lat="48.45732" lon="2.63992">
        <ele>190</ele>
        <time>2017-05-17T11:56:44.755</time>
      </trkpt>
      <trkpt lat="48.45734" lon="2.63985">
        <ele>190</ele>
        <time>2017-05-17T11:56:45.756</time>
      </trkpt>
      <trkpt lat="48.45735" lon="2.63977">
        <ele>191</ele>
        <time>2017-05-17T11:56:46.756</time>
      </trkpt>
      <trkpt lat="48.45737" lon="2.63971">
        <ele>191</ele>
        <time>2017-05-17T11:56:47.754</time>
      </trkpt>
      <trkpt lat="48.4574" lon="2.63963">
        <ele>190</ele>
        <time>2017-05-17T11:56:48.754</time>
      </trkpt>
      <trkpt lat="48.45742" lon="2.63955">
        <ele>190</ele>
        <time>2017-05-17T11:56:49.755</time>
      </trkpt>
      <trkpt lat="48.45743" lon="2.63948">
        <ele>190</ele>
        <time>2017-05-17T11:56:50.754</time>
      </trkpt>
      <trkpt lat="48.45745" lon="2.63941">
        <ele>190</ele>
        <time>2017-05-17T11:56:51.756</time>
      </trkpt>
      <trkpt lat="48.45747" lon="2.63935">
        <ele>190</ele>
        <time>2017-05-17T11:56:52.756</time>
      </trkpt>
      <trkpt lat="48.45748" lon="2.63929">
        <ele>190</ele>
        <time>2017-05-17T11:56:53.755</time>
      </trkpt>
      <trkpt lat="48.45749" lon="2.63923">
        <ele>190</ele>
        <time>2017-05-17T11:56:54.754</time>
      </trkpt>
      <trkpt lat="48.45752" lon="2.63919">
        <ele>189</ele>
        <time>2017-05-17T11:56:55.756</time>
      </trkpt>
      <trkpt lat="48.45754" lon="2.63915">
        <ele>190</ele>
        <time>2017-05-17T11:56:56.756</time>
      </trkpt>
      <trkpt lat="48.45756" lon="2.6391">
        <ele>190</ele>
        <time>2017-05-17T11:56:57.755</time>
      </trkpt>
      <trkpt lat="48.45757" lon="2.63905">
        <ele>190</ele>
        <time>2017-05-17T11:56:58.754</time>
      </trkpt>
      <trkpt lat="48.45759" lon="2.639">
        <ele>189</ele>
        <time>2017-05-17T11:56:59.754</time>
      </trkpt>
      <trkpt lat="48.4576" lon="2.63895">
        <ele>189</ele>
        <time>2017-05-17T11:57:00.756</time>
      </trkpt>
      <trkpt lat="48.45762" lon="2.63891">
        <ele>189</ele>
        <time>2017-05-17T11:57:01.755</time>
      </trkpt>
      <trkpt lat="48.45762" lon="2.63885">
        <ele>189</ele>
        <time>2017-05-17T11:57:02.759</time>
      </trkpt>
      <trkpt lat="48.45764" lon="2.63878">
        <ele>189</ele>
        <time>2017-05-17T11:57:03.761</time>
      </trkpt>
      <trkpt lat="48.45766" lon="2.63874">
        <ele>188</ele>
        <time>2017-05-17T11:57:04.767</time>
      </trkpt>
      <trkpt lat="48.45767" lon="2.63868">
        <ele>189</ele>
        <time>2017-05-17T11:57:05.759</time>
      </trkpt>
      <trkpt lat="48.45766" lon="2.63861">
        <ele>188</ele>
        <time>2017-05-17T11:57:06.761</time>
      </trkpt>
      <trkpt lat="48.45765" lon="2.63856">
        <ele>188</ele>
        <time>2017-05-17T11:57:07.778</time>
      </trkpt>
      <trkpt lat="48.45764" lon="2.6385">
        <ele>188</ele>
        <time>2017-05-17T11:57:08.755</time>
      </trkpt>
      <trkpt lat="48.45763" lon="2.63845">
        <ele>187</ele>
        <time>2017-05-17T11:57:09.756</time>
      </trkpt>
      <trkpt lat="48.45761" lon="2.63839">
        <ele>187</ele>
        <time>2017-05-17T11:57:10.756</time>
      </trkpt>
      <trkpt lat="48.45758" lon="2.63834">
        <ele>187</ele>
        <time>2017-05-17T11:57:11.756</time>
      </trkpt>
      <trkpt lat="48.45755" lon="2.6383">
        <ele>187</ele>
        <time>2017-05-17T11:57:12.757</time>
      </trkpt>
      <trkpt lat="48.4575" lon="2.6383">
        <ele>186</ele>
        <time>2017-05-17T11:57:13.758</time>
      </trkpt>
      <trkpt lat="48.45746" lon="2.63831">
        <ele>186</ele>
        <time>2017-05-17T11:57:14.759</time>
      </trkpt>
      <trkpt lat="48.45741" lon="2.63833">
        <ele>186</ele>
        <time>2017-05-17T11:57:15.758</time>
      </trkpt>
      <trkpt lat="48.45738" lon="2.63838">
        <ele>186</ele>
        <time>2017-05-17T11:57:16.757</time>
      </trkpt>
      <trkpt lat="48.45734" lon="2.63844">
        <ele>186</ele>
        <time>2017-05-17T11:57:17.758</time>
      </trkpt>
      <trkpt lat="48.4573" lon="2.63851">
        <ele>185</ele>
        <time>2017-05-17T11:57:18.756</time>
      </trkpt>
      <trkpt lat="48.45727" lon="2.63858">
        <ele>186</ele>
        <time>2017-05-17T11:57:19.758</time>
      </trkpt>
      <trkpt lat="48.45725" lon="2.63866">
        <ele>186</ele>
        <time>2017-05-17T11:57:20.755</time>
      </trkpt>
      <trkpt lat="48.45723" lon="2.63873">
        <ele>185</ele>
        <time>2017-05-17T11:57:21.756</time>
      </trkpt>
      <trkpt lat="48.45721" lon="2.63879">
        <ele>185</ele>
        <time>2017-05-17T11:57:22.756</time>
      </trkpt>
      <trkpt lat="48.45719" lon="2.63885">
        <ele>186</ele>
        <time>2017-05-17T11:57:23.756</time>
      </trkpt>
      <trkpt lat="48.45716" lon="2.63892">
        <ele>186</ele>
        <time>2017-05-17T11:57:24.758</time>
      </trkpt>
      <trkpt lat="48.45713" lon="2.63897">
        <ele>185</ele>
        <time>2017-05-17T11:57:25.757</time>
      </trkpt>
      <trkpt lat="48.45709" lon="2.63902">
        <ele>185</ele>
        <time>2017-05-17T11:57:26.756</time>
      </trkpt>
      <trkpt lat="48.45706" lon="2.63907">
        <ele>185</ele>
        <time>2017-05-17T11:57:27.756</time>
      </trkpt>
      <trkpt lat="48.45703" lon="2.63913">
        <ele>185</ele>
        <time>2017-05-17T11:57:28.756</time>
      </trkpt>
      <trkpt lat="48.45699" lon="2.63915">
        <ele>185</ele>
        <time>2017-05-17T11:57:29.756</time>
      </trkpt>
      <trkpt lat="48.45695" lon="2.63919">
        <ele>186</ele>
        <time>2017-05-17T11:57:30.757</time>
      </trkpt>
      <trkpt lat="48.45691" lon="2.63922">
        <ele>185</ele>
        <time>2017-05-17T11:57:31.757</time>
      </trkpt>
      <trkpt lat="48.45687" lon="2.63924">
        <ele>185</ele>
        <time>2017-05-17T11:57:32.754</time>
      </trkpt>
      <trkpt lat="48.45682" lon="2.63926">
        <ele>185</ele>
        <time>2017-05-17T11:57:33.755</time>
      </trkpt>
      <trkpt lat="48.45677" lon="2.63927">
        <ele>185</ele>
        <time>2017-05-17T11:57:34.758</time>
      </trkpt>
      <trkpt lat="48.45671" lon="2.63928">
        <ele>185</ele>
        <time>2017-05-17T11:57:35.757</time>
      </trkpt>
      <trkpt lat="48.45666" lon="2.63928">
        <ele>185</ele>
        <time>2017-05-17T11:57:36.756</time>
      </trkpt>
      <trkpt lat="48.45661" lon="2.6393">
        <ele>185</ele>
        <time>2017-05-17T11:57:37.755</time>
      </trkpt>
      <trkpt lat="48.45655" lon="2.6393">
        <ele>185</ele>
        <time>2017-05-17T11:57:38.755</time>
      </trkpt>
      <trkpt lat="48.4565" lon="2.6393">
        <ele>185</ele>
        <time>2017-05-17T11:57:39.755</time>
      </trkpt>
      <trkpt lat="48.45644" lon="2.63929">
        <ele>186</ele>
        <time>2017-05-17T11:57:40.755</time>
      </trkpt>
      <trkpt lat="48.45639" lon="2.63928">
        <ele>187</ele>
        <time>2017-05-17T11:57:41.757</time>
      </trkpt>
      <trkpt lat="48.45635" lon="2.63926">
        <ele>187</ele>
        <time>2017-05-17T11:57:42.758</time>
      </trkpt>
      <trkpt lat="48.45631" lon="2.63921">
        <ele>187</ele>
        <time>2017-05-17T11:57:43.759</time>
      </trkpt>
      <trkpt lat="48.45628" lon="2.63916">
        <ele>187</ele>
        <time>2017-05-17T11:57:44.756</time>
      </trkpt>
      <trkpt lat="48.45624" lon="2.63909">
        <ele>187</ele>
        <time>2017-05-17T11:57:45.756</time>
      </trkpt>
      <trkpt lat="48.45621" lon="2.63902">
        <ele>187</ele>
        <time>2017-05-17T11:57:46.755</time>
      </trkpt>
      <trkpt lat="48.45619" lon="2.63895">
        <ele>188</ele>
        <time>2017-05-17T11:57:47.754</time>
      </trkpt>
      <trkpt lat="48.45616" lon="2.63888">
        <ele>188</ele>
        <time>2017-05-17T11:57:48.753</time>
      </trkpt>
      <trkpt lat="48.45613" lon="2.63882">
        <ele>187</ele>
        <time>2017-05-17T11:57:49.756</time>
      </trkpt>
      <trkpt lat="48.4561" lon="2.63877">
        <ele>187</ele>
        <time>2017-05-17T11:57:50.755</time>
      </trkpt>
      <trkpt lat="48.45605" lon="2.63872">
        <ele>187</ele>
        <time>2017-05-17T11:57:51.755</time>
      </trkpt>
      <trkpt lat="48.456" lon="2.63872">
        <ele>187</ele>
        <time>2017-05-17T11:57:52.754</time>
      </trkpt>
      <trkpt lat="48.45594" lon="2.63873">
        <ele>187</ele>
        <time>2017-05-17T11:57:53.753</time>
      </trkpt>
      <trkpt lat="48.45588" lon="2.63876">
        <ele>187</ele>
        <time>2017-05-17T11:57:54.755</time>
      </trkpt>
      <trkpt lat="48.45583" lon="2.63878">
        <ele>187</ele>
        <time>2017-05-17T11:57:55.757</time>
      </trkpt>
      <trkpt lat="48.45578" lon="2.6388">
        <ele>187</ele>
        <time>2017-05-17T11:57:56.757</time>
      </trkpt>
      <trkpt lat="48.45573" lon="2.63881">
        <ele>186</ele>
        <time>2017-05-17T11:57:57.756</time>
      </trkpt>
      <trkpt lat="48.45568" lon="2.6388">
        <ele>186</ele>
        <time>2017-05-17T11:57:58.755</time>
      </trkpt>
      <trkpt lat="48.45563" lon="2.63879">
        <ele>186</ele>
        <time>2017-05-17T11:57:59.756</time>
      </trkpt>
      <trkpt lat="48.45558" lon="2.63876">
        <ele>186</ele>
        <time>2017-05-17T11:58:00.756</time>
      </trkpt>
      <trkpt lat="48.45554" lon="2.63873">
        <ele>186</ele>
        <time>2017-05-17T11:58:01.757</time>
      </trkpt>
      <trkpt lat="48.45551" lon="2.63869">
        <ele>187</ele>
        <time>2017-05-17T11:58:02.756</time>
      </trkpt>
      <trkpt lat="48.45548" lon="2.63866">
        <ele>187</ele>
        <time>2017-05-17T11:58:03.755</time>
      </trkpt>
      <trkpt lat="48.45544" lon="2.63862">
        <ele>187</ele>
        <time>2017-05-17T11:58:04.757</time>
      </trkpt>
      <trkpt lat="48.4554" lon="2.63858">
        <ele>187</ele>
        <time>2017-05-17T11:58:05.756</time>
      </trkpt>
      <trkpt lat="48.45535" lon="2.63856">
        <ele>187</ele>
        <time>2017-05-17T11:58:06.758</time>
      </trkpt>
      <trkpt lat="48.45531" lon="2.63854">
        <ele>187</ele>
        <time>2017-05-17T11:58:07.756</time>
      </trkpt>
      <trkpt lat="48.45526" lon="2.63853">
        <ele>187</ele>
        <time>2017-05-17T11:58:08.755</time>
      </trkpt>
      <trkpt lat="48.4552" lon="2.63852">
        <ele>187</ele>
        <time>2017-05-17T11:58:09.756</time>
      </trkpt>
      <trkpt lat="48.45515" lon="2.63852">
        <ele>187</ele>
        <time>2017-05-17T11:58:10.758</time>
      </trkpt>
      <trkpt lat="48.45509" lon="2.63852">
        <ele>187</ele>
        <time>2017-05-17T11:58:11.756</time>
      </trkpt>
      <trkpt lat="48.45504" lon="2.63853">
        <ele>187</ele>
        <time>2017-05-17T11:58:12.756</time>
      </trkpt>
      <trkpt lat="48.45499" lon="2.63853">
        <ele>187</ele>
        <time>2017-05-17T11:58:13.755</time>
      </trkpt>
      <trkpt lat="48.45493" lon="2.63852">
        <ele>187</ele>
        <time>2017-05-17T11:58:14.755</time>
      </trkpt>
      <trkpt lat="48.45488" lon="2.6385">
        <ele>188</ele>
        <time>2017-05-17T11:58:15.754</time>
      </trkpt>
      <trkpt lat="48.45484" lon="2.63847">
        <ele>188</ele>
        <time>2017-05-17T11:58:16.758</time>
      </trkpt>
      <trkpt lat="48.45479" lon="2.63841">
        <ele>188</ele>
        <time>2017-05-17T11:58:17.756</time>
      </trkpt>
      <trkpt lat="48.45476" lon="2.63835">
        <ele>188</ele>
        <time>2017-05-17T11:58:18.755</time>
      </trkpt>
      <trkpt lat="48.45472" lon="2.6383">
        <ele>188</ele>
        <time>2017-05-17T11:58:19.756</time>
      </trkpt>
      <trkpt lat="48.45469" lon="2.63824">
        <ele>188</ele>
        <time>2017-05-17T11:58:20.756</time>
      </trkpt>
      <trkpt lat="48.45466" lon="2.63818">
        <ele>188</ele>
        <time>2017-05-17T11:58:21.757</time>
      </trkpt>
      <trkpt lat="48.45462" lon="2.63811">
        <ele>188</ele>
        <time>2017-05-17T11:58:22.757</time>
      </trkpt>
      <trkpt lat="48.45461" lon="2.63804">
        <ele>188</ele>
        <time>2017-05-17T11:58:23.758</time>
      </trkpt>
      <trkpt lat="48.45457" lon="2.63797">
        <ele>189</ele>
        <time>2017-05-17T11:58:24.757</time>
      </trkpt>
      <trkpt lat="48.45453" lon="2.63791">
        <ele>187</ele>
        <time>2017-05-17T11:58:25.756</time>
      </trkpt>
      <trkpt lat="48.45449" lon="2.63786">
        <ele>187</ele>
        <time>2017-05-17T11:58:26.756</time>
      </trkpt>
      <trkpt lat="48.45445" lon="2.6378">
        <ele>187</ele>
        <time>2017-05-17T11:58:27.758</time>
      </trkpt>
      <trkpt lat="48.45441" lon="2.63774">
        <ele>187</ele>
        <time>2017-05-17T11:58:28.756</time>
      </trkpt>
      <trkpt lat="48.45439" lon="2.63767">
        <ele>187</ele>
        <time>2017-05-17T11:58:29.756</time>
      </trkpt>
      <trkpt lat="48.45437" lon="2.63759">
        <ele>188</ele>
        <time>2017-05-17T11:58:30.757</time>
      </trkpt>
      <trkpt lat="48.45436" lon="2.63752">
        <ele>188</ele>
        <time>2017-05-17T11:58:31.756</time>
      </trkpt>
      <trkpt lat="48.45434" lon="2.63745">
        <ele>188</ele>
        <time>2017-05-17T11:58:32.756</time>
      </trkpt>
      <trkpt lat="48.45434" lon="2.63738">
        <ele>187</ele>
        <time>2017-05-17T11:58:33.756</time>
      </trkpt>
      <trkpt lat="48.45433" lon="2.63729">
        <ele>187</ele>
        <time>2017-05-17T11:58:34.756</time>
      </trkpt>
      <trkpt lat="48.45432" lon="2.63721">
        <ele>186</ele>
        <time>2017-05-17T11:58:35.756</time>
      </trkpt>
      <trkpt lat="48.45431" lon="2.63712">
        <ele>186</ele>
        <time>2017-05-17T11:58:36.756</time>
      </trkpt>
      <trkpt lat="48.4543" lon="2.63703">
        <ele>186</ele>
        <time>2017-05-17T11:58:37.757</time>
      </trkpt>
      <trkpt lat="48.45429" lon="2.63695">
        <ele>187</ele>
        <time>2017-05-17T11:58:38.754</time>
      </trkpt>
      <trkpt lat="48.45427" lon="2.63688">
        <ele>187</ele>
        <time>2017-05-17T11:58:39.756</time>
      </trkpt>
      <trkpt lat="48.45425" lon="2.63682">
        <ele>186</ele>
        <time>2017-05-17T11:58:40.759</time>
      </trkpt>
      <trkpt lat="48.45424" lon="2.63674">
        <ele>187</ele>
        <time>2017-05-17T11:58:41.758</time>
      </trkpt>
      <trkpt lat="48.45419" lon="2.63667">
        <ele>187</ele>
        <time>2017-05-17T11:58:42.756</time>
      </trkpt>
      <trkpt lat="48.45416" lon="2.63661">
        <ele>187</ele>
        <time>2017-05-17T11:58:43.756</time>
      </trkpt>
      <trkpt lat="48.45412" lon="2.63655">
        <ele>186</ele>
        <time>2017-05-17T11:58:44.755</time>
      </trkpt>
      <trkpt lat="48.45408" lon="2.6365">
        <ele>187</ele>
        <time>2017-05-17T11:58:45.756</time>
      </trkpt>
      <trkpt lat="48.45404" lon="2.63645">
        <ele>186</ele>
        <time>2017-05-17T11:58:46.756</time>
      </trkpt>
      <trkpt lat="48.454" lon="2.63642">
        <ele>186</ele>
        <time>2017-05-17T11:58:47.757</time>
      </trkpt>
      <trkpt lat="48.45396" lon="2.63637">
        <ele>187</ele>
        <time>2017-05-17T11:58:48.756</time>
      </trkpt>
      <trkpt lat="48.45391" lon="2.63635">
        <ele>186</ele>
        <time>2017-05-17T11:58:49.756</time>
      </trkpt>
      <trkpt lat="48.45384" lon="2.63635">
        <ele>186</ele>
        <time>2017-05-17T11:58:50.756</time>
      </trkpt>
      <trkpt lat="48.45379" lon="2.63636">
        <ele>185</ele>
        <time>2017-05-17T11:58:51.755</time>
      </trkpt>
      <trkpt lat="48.45374" lon="2.63637">
        <ele>186</ele>
        <time>2017-05-17T11:58:52.756</time>
      </trkpt>
      <trkpt lat="48.45367" lon="2.63639">
        <ele>185</ele>
        <time>2017-05-17T11:58:53.757</time>
      </trkpt>
      <trkpt lat="48.45361" lon="2.63642">
        <ele>185</ele>
        <time>2017-05-17T11:58:54.756</time>
      </trkpt>
      <trkpt lat="48.45355" lon="2.63644">
        <ele>186</ele>
        <time>2017-05-17T11:58:55.756</time>
      </trkpt>
      <trkpt lat="48.4535" lon="2.63647">
        <ele>185</ele>
        <time>2017-05-17T11:58:56.756</time>
      </trkpt>
      <trkpt lat="48.45345" lon="2.63648">
        <ele>185</ele>
        <time>2017-05-17T11:58:57.755</time>
      </trkpt>
      <trkpt lat="48.4534" lon="2.63651">
        <ele>185</ele>
        <time>2017-05-17T11:58:58.756</time>
      </trkpt>
      <trkpt lat="48.45335" lon="2.63653">
        <ele>185</ele>
        <time>2017-05-17T11:58:59.757</time>
      </trkpt>
      <trkpt lat="48.4533" lon="2.63655">
        <ele>185</ele>
        <time>2017-05-17T11:59:00.756</time>
      </trkpt>
      <trkpt lat="48.45325" lon="2.63658">
        <ele>186</ele>
        <time>2017-05-17T11:59:01.757</time>
      </trkpt>
      <trkpt lat="48.4532" lon="2.63661">
        <ele>185</ele>
        <time>2017-05-17T11:59:02.757</time>
      </trkpt>
      <trkpt lat="48.45315" lon="2.63664">
        <ele>186</ele>
        <time>2017-05-17T11:59:03.757</time>
      </trkpt>
      <trkpt lat="48.4531" lon="2.63668">
        <ele>187</ele>
        <time>2017-05-17T11:59:04.755</time>
      </trkpt>
      <trkpt lat="48.45305" lon="2.63669">
        <ele>187</ele>
        <time>2017-05-17T11:59:05.754</time>
      </trkpt>
      <trkpt lat="48.453" lon="2.63669">
        <ele>187</ele>
        <time>2017-05-17T11:59:06.756</time>
      </trkpt>
      <trkpt lat="48.45295" lon="2.63665">
        <ele>187</ele>
        <time>2017-05-17T11:59:07.755</time>
      </trkpt>
      <trkpt lat="48.45291" lon="2.63662">
        <ele>187</ele>
        <time>2017-05-17T11:59:08.755</time>
      </trkpt>
      <trkpt lat="48.45287" lon="2.63657">
        <ele>187</ele>
        <time>2017-05-17T11:59:09.756</time>
      </trkpt>
      <trkpt lat="48.45284" lon="2.63652">
        <ele>187</ele>
        <time>2017-05-17T11:59:10.755</time>
      </trkpt>
      <trkpt lat="48.4528" lon="2.63645">
        <ele>187</ele>
        <time>2017-05-17T11:59:11.757</time>
      </trkpt>
      <trkpt lat="48.45277" lon="2.63639">
        <ele>188</ele>
        <time>2017-05-17T11:59:12.758</time>
      </trkpt>
      <trkpt lat="48.45273" lon="2.63632">
        <ele>189</ele>
        <time>2017-05-17T11:59:13.758</time>
      </trkpt>
      <trkpt lat="48.45269" lon="2.63626">
        <ele>189</ele>
        <time>2017-05-17T11:59:14.756</time>
      </trkpt>
      <trkpt lat="48.45266" lon="2.6362">
        <ele>188</ele>
        <time>2017-05-17T11:59:15.758</time>
      </trkpt>
      <trkpt lat="48.45262" lon="2.63614">
        <ele>188</ele>
        <time>2017-05-17T11:59:16.759</time>
      </trkpt>
      <trkpt lat="48.45259" lon="2.63609">
        <ele>187</ele>
        <time>2017-05-17T11:59:17.755</time>
      </trkpt>
      <trkpt lat="48.45256" lon="2.63606">
        <ele>187</ele>
        <time>2017-05-17T11:59:18.757</time>
      </trkpt>
      <trkpt lat="48.45251" lon="2.63604">
        <ele>188</ele>
        <time>2017-05-17T11:59:19.756</time>
      </trkpt>
      <trkpt lat="48.45246" lon="2.63604">
        <ele>188</ele>
        <time>2017-05-17T11:59:20.756</time>
      </trkpt>
      <trkpt lat="48.45241" lon="2.63605">
        <ele>188</ele>
        <time>2017-05-17T11:59:21.756</time>
      </trkpt>
      <trkpt lat="48.45236" lon="2.63606">
        <ele>189</ele>
        <time>2017-05-17T11:59:22.756</time>
      </trkpt>
      <trkpt lat="48.4523" lon="2.63607">
        <ele>189</ele>
        <time>2017-05-17T11:59:23.757</time>
      </trkpt>
      <trkpt lat="48.45225" lon="2.63607">
        <ele>189</ele>
        <time>2017-05-17T11:59:24.759</time>
      </trkpt>
      <trkpt lat="48.4522" lon="2.63606">
        <ele>189</ele>
        <time>2017-05-17T11:59:25.757</time>
      </trkpt>
      <trkpt lat="48.45214" lon="2.63607">
        <ele>189</ele>
        <time>2017-05-17T11:59:26.758</time>
      </trkpt>
      <trkpt lat="48.45208" lon="2.63605">
        <ele>190</ele>
        <time>2017-05-17T11:59:27.759</time>
      </trkpt>
      <trkpt lat="48.45206" lon="2.63599">
        <ele>189</ele>
        <time>2017-05-17T11:59:28.756</time>
      </trkpt>
      <trkpt lat="48.45203" lon="2.63591">
        <ele>190</ele>
        <time>2017-05-17T11:59:29.755</time>
      </trkpt>
      <trkpt lat="48.452" lon="2.63585">
        <ele>190</ele>
        <time>2017-05-17T11:59:30.755</time>
      </trkpt>
      <trkpt lat="48.45197" lon="2.63579">
        <ele>190</ele>
        <time>2017-05-17T11:59:31.756</time>
      </trkpt>
      <trkpt lat="48.45195" lon="2.63571">
        <ele>189</ele>
        <time>2017-05-17T11:59:32.757</time>
      </trkpt>
      <trkpt lat="48.45195" lon="2.63564">
        <ele>188</ele>
        <time>2017-05-17T11:59:33.755</time>
      </trkpt>
      <trkpt lat="48.45196" lon="2.63557">
        <ele>188</ele>
        <time>2017-05-17T11:59:34.755</time>
      </trkpt>
      <trkpt lat="48.45196" lon="2.6355">
        <ele>188</ele>
        <time>2017-05-17T11:59:35.757</time>
      </trkpt>
      <trkpt lat="48.45196" lon="2.63542">
        <ele>188</ele>
        <time>2017-05-17T11:59:36.758</time>
      </trkpt>
      <trkpt lat="48.45196" lon="2.63534">
        <ele>189</ele>
        <time>2017-05-17T11:59:37.757</time>
      </trkpt>
      <trkpt lat="48.45196" lon="2.63526">
        <ele>189</ele>
        <time>2017-05-17T11:59:38.756</time>
      </trkpt>
      <trkpt lat="48.45196" lon="2.63518">
        <ele>189</ele>
        <time>2017-05-17T11:59:39.755</time>
      </trkpt>
      <trkpt lat="48.45196" lon="2.6351">
        <ele>188</ele>
        <time>2017-05-17T11:59:40.754</time>
      </trkpt>
      <trkpt lat="48.45196" lon="2.63502">
        <ele>188</ele>
        <time>2017-05-17T11:59:41.756</time>
      </trkpt>
      <trkpt lat="48.45197" lon="2.63496">
        <ele>187</ele>
        <time>2017-05-17T11:59:42.756</time>
      </trkpt>
      <trkpt lat="48.45198" lon="2.6349">
        <ele>187</ele>
        <time>2017-05-17T11:59:43.755</time>
      </trkpt>
      <trkpt lat="48.45199" lon="2.63483">
        <ele>186</ele>
        <time>2017-05-17T11:59:44.756</time>
      </trkpt>
      <trkpt lat="48.452" lon="2.63476">
        <ele>186</ele>
        <time>2017-05-17T11:59:45.756</time>
      </trkpt>
      <trkpt lat="48.45201" lon="2.63469">
        <ele>187</ele>
        <time>2017-05-17T11:59:46.755</time>
      </trkpt>
      <trkpt lat="48.45201" lon="2.63461">
        <ele>187</ele>
        <time>2017-05-17T11:59:47.756</time>
      </trkpt>
      <trkpt lat="48.45202" lon="2.63454">
        <ele>187</ele>
        <time>2017-05-17T11:59:48.764</time>
      </trkpt>
      <trkpt lat="48.45201" lon="2.63446">
        <ele>186</ele>
        <time>2017-05-17T11:59:49.756</time>
      </trkpt>
      <trkpt lat="48.45202" lon="2.63439">
        <ele>186</ele>
        <time>2017-05-17T11:59:50.756</time>
      </trkpt>
      <trkpt lat="48.45202" lon="2.63431">
        <ele>186</ele>
        <time>2017-05-17T11:59:51.755</time>
      </trkpt>
      <trkpt lat="48.45202" lon="2.63423">
        <ele>187</ele>
        <time>2017-05-17T11:59:52.754</time>
      </trkpt>
      <trkpt lat="48.45202" lon="2.63415">
        <ele>187</ele>
        <time>2017-05-17T11:59:53.755</time>
      </trkpt>
      <trkpt lat="48.45202" lon="2.63407">
        <ele>187</ele>
        <time>2017-05-17T11:59:54.756</time>
      </trkpt>
      <trkpt lat="48.45202" lon="2.634">
        <ele>188</ele>
        <time>2017-05-17T11:59:55.760</time>
      </trkpt>
      <trkpt lat="48.45201" lon="2.63393">
        <ele>188</ele>
        <time>2017-05-17T11:59:56.759</time>
      </trkpt>
      <trkpt lat="48.45201" lon="2.63386">
        <ele>188</ele>
        <time>2017-05-17T11:59:57.757</time>
      </trkpt>
      <trkpt lat="48.452" lon="2.63381">
        <ele>189</ele>
        <time>2017-05-17T11:59:58.759</time>
      </trkpt>
      <trkpt lat="48.45199" lon="2.63379">
        <ele>188</ele>
        <time>2017-05-17T11:59:59.758</time>
      </trkpt>
      <trkpt lat="48.45199" lon="2.63379">
        <ele>188</ele>
        <time>2017-05-17T12:00:00.764</time>
      </trkpt>
      <trkpt lat="48.45198" lon="2.63379">
        <ele>188</ele>
        <time>2017-05-17T12:00:01.765</time>
      </trkpt>
      <trkpt lat="48.45198" lon="2.63379">
        <ele>189</ele>
        <time>2017-05-17T12:00:02.765</time>
      </trkpt>
      <trkpt lat="48.45198" lon="2.63379">
        <ele>190</ele>
        <time>2017-05-17T12:00:03.764</time>
      </trkpt>
      <trkpt lat="48.45197" lon="2.63379">
        <ele>190</ele>
        <time>2017-05-17T12:00:04.757</time>
      </trkpt>
      <trkpt lat="48.45197" lon="2.63378">
        <ele>190</ele>
        <time>2017-05-17T12:00:05.754</time>
      </trkpt>
      <trkpt lat="48.45197" lon="2.63378">
        <ele>189</ele>
        <time>2017-05-17T12:00:06.755</time>
      </trkpt>
      <trkpt lat="48.45197" lon="2.6338">
        <ele>189</ele>
        <time>2017-05-17T12:00:07.754</time>
      </trkpt>
      <trkpt lat="48.45197" lon="2.63379">
        <ele>189</ele>
        <time>2017-05-17T12:00:08.755</time>
      </trkpt>
      <trkpt lat="48.45198" lon="2.63379">
        <ele>189</ele>
        <time>2017-05-17T12:00:09.756</time>
      </trkpt>
      <trkpt lat="48.45198" lon="2.63379">
        <ele>188</ele>
        <time>2017-05-17T12:00:10.755</time>
      </trkpt>
      <trkpt lat="48.45198" lon="2.63379">
        <ele>188</ele>
        <time>2017-05-17T12:00:11.755</time>
      </trkpt>
      <trkpt lat="48.45198" lon="2.63379">
        <ele>187</ele>
        <time>2017-05-17T12:00:12.755</time>
      </trkpt>
      <trkpt lat="48.45198" lon="2.63379">
        <ele>187</ele>
        <time>2017-05-17T12:00:13.757</time>
      </trkpt>
      <trkpt lat="48.45199" lon="2.63379">
        <ele>188</ele>
        <time>2017-05-17T12:00:14.761</time>
      </trkpt>
      <trkpt lat="48.45199" lon="2.63379">
        <ele>189</ele>
        <time>2017-05-17T12:00:15.756</time>
      </trkpt>
      <trkpt lat="48.45199" lon="2.6338">
        <ele>189</ele>
        <time>2017-05-17T12:00:16.755</time>
      </trkpt>
      <trkpt lat="48.45199" lon="2.6338">
        <ele>190</ele>
        <time>2017-05-17T12:00:17.754</time>
      </trkpt>
      <trkpt lat="48.45199" lon="2.6338">
        <ele>190</ele>
        <time>2017-05-17T12:00:18.754</time>
      </trkpt>
      <trkpt lat="48.45198" lon="2.6338">
        <ele>190</ele>
        <time>2017-05-17T12:00:19.755</time>
      </trkpt>
      <trkpt lat="48.45198" lon="2.6338">
        <ele>190</ele>
        <time>2017-05-17T12:00:20.754</time>
      </trkpt>
      <trkpt lat="48.45199" lon="2.6338">
        <ele>190</ele>
        <time>2017-05-17T12:00:21.753</time>
      </trkpt>
      <trkpt lat="48.45198" lon="2.6338">
        <ele>190</ele>
        <time>2017-05-17T12:00:22.753</time>
      </trkpt>
      <trkpt lat="48.45198" lon="2.6338">
        <ele>190</ele>
        <time>2017-05-17T12:00:23.754</time>
      </trkpt>
      <trkpt lat="48.45198" lon="2.6338">
        <ele>189</ele>
        <time>2017-05-17T12:00:24.754</time>
      </trkpt>
      <trkpt lat="48.45198" lon="2.6338">
        <ele>189</ele>
        <time>2017-05-17T12:00:25.754</time>
      </trkpt>
      <trkpt lat="48.45198" lon="2.6338">
        <ele>189</ele>
        <time>2017-05-17T12:00:26.753</time>
      </trkpt>
      <trkpt lat="48.45198" lon="2.63379">
        <ele>190</ele>
        <time>2017-05-17T12:00:27.753</time>
      </trkpt>
      <trkpt lat="48.45199" lon="2.63379">
        <ele>190</ele>
        <time>2017-05-17T12:00:28.753</time>
      </trkpt>
      <trkpt lat="48.45199" lon="2.63379">
        <ele>189</ele>
        <time>2017-05-17T12:00:29.757</time>
      </trkpt>
      <trkpt lat="48.45199" lon="2.63379">
        <ele>190</ele>
        <time>2017-05-17T12:00:30.754</time>
      </trkpt>
      <trkpt lat="48.45199" lon="2.63379">
        <ele>189</ele>
        <time>2017-05-17T12:00:31.755</time>
      </trkpt>
      <trkpt lat="48.45199" lon="2.6338">
        <ele>189</ele>
        <time>2017-05-17T12:00:32.753</time>
      </trkpt>
      <trkpt lat="48.45199" lon="2.6338">
        <ele>189</ele>
        <time>2017-05-17T12:00:33.753</time>
      </trkpt>
      <trkpt lat="48.45199" lon="2.6338">
        <ele>189</ele>
        <time>2017-05-17T12:00:34.752</time>
      </trkpt>
      <trkpt lat="48.45199" lon="2.6338">
        <ele>189</ele>
        <time>2017-05-17T12:00:35.756</time>
      </trkpt>
      <trkpt lat="48.45199" lon="2.6338">
        <ele>189</ele>
        <time>2017-05-17T12:00:36.754</time>
      </trkpt>
      <trkpt lat="48.45198" lon="2.6338">
        <ele>189</ele>
        <time>2017-05-17T12:00:37.757</time>
      </trkpt>
      <trkpt lat="48.45198" lon="2.6338">
        <ele>189</ele>
        <time>2017-05-17T12:00:38.752</time>
      </trkpt>
      <trkpt lat="48.45198" lon="2.6338">
        <ele>189</ele>
        <time>2017-05-17T12:00:39.757</time>
      </trkpt>
      <trkpt lat="48.45198" lon="2.6338">
        <ele>189</ele>
        <time>2017-05-17T12:00:40.757</time>
      </trkpt>
      <trkpt lat="48.45198" lon="2.6338">
        <ele>189</ele>
        <time>2017-05-17T12:00:41.755</time>
      </trkpt>
      <trkpt lat="48.45198" lon="2.6338">
        <ele>189</ele>
        <time>2017-05-17T12:00:42.753</time>
      </trkpt>
      <trkpt lat="48.45198" lon="2.6338">
        <ele>189</ele>
        <time>2017-05-17T12:00:43.758</time>
      </trkpt>
      <trkpt lat="48.45198" lon="2.6338">
        <ele>189</ele>
        <time>2017-05-17T12:00:44.754</time>
      </trkpt>
      <trkpt lat="48.45198" lon="2.6338">
        <ele>189</ele>
        <time>2017-05-17T12:00:46.065</time>
      </trkpt>
      <trkpt lat="48.45198" lon="2.6338">
        <ele>189</ele>
        <time>2017-05-17T12:00:46.753</time>
      </trkpt>
      <trkpt lat="48.45198" lon="2.6338">
        <ele>189</ele>
        <time>2017-05-17T12:00:47.756</time>
      </trkpt>
      <trkpt lat="48.45198" lon="2.6338">
        <ele>189</ele>
        <time>2017-05-17T12:00:48.756</time>
      </trkpt>
      <trkpt lat="48.45198" lon="2.6338">
        <ele>189</ele>
        <time>2017-05-17T12:00:49.753</time>
      </trkpt>
      <trkpt lat="48.45198" lon="2.6338">
        <ele>189</ele>
        <time>2017-05-17T12:00:50.754</time>
      </trkpt>
      <trkpt lat="48.45198" lon="2.6338">
        <ele>189</ele>
        <time>2017-05-17T12:00:51.753</time>
      </trkpt>
      <trkpt lat="48.45198" lon="2.6338">
        <ele>189</ele>
        <time>2017-05-17T12:00:52.752</time>
      </trkpt>
      <trkpt lat="48.45198" lon="2.6338">
        <ele>189</ele>
        <time>2017-05-17T12:00:53.752</time>
      </trkpt>
      <trkpt lat="48.45198" lon="2.6338">
        <ele>189</ele>
        <time>2017-05-17T12:00:54.753</time>
      </trkpt>
      <trkpt lat="48.45198" lon="2.63379">
        <ele>189</ele>
        <time>2017-05-17T12:00:55.755</time>
      </trkpt>
      <trkpt lat="48.45198" lon="2.63379">
        <ele>189</ele>
        <time>2017-05-17T12:00:56.756</time>
      </trkpt>
      <trkpt lat="48.45198" lon="2.63379">
        <ele>190</ele>
        <time>2017-05-17T12:00:57.754</time>
      </trkpt>
      <trkpt lat="48.45198" lon="2.63379">
        <ele>190</ele>
        <time>2017-05-17T12:00:58.756</time>
      </trkpt>
      <trkpt lat="48.45198" lon="2.63379">
        <ele>190</ele>
        <time>2017-05-17T12:00:59.752</time>
      </trkpt>
      <trkpt lat="48.45198" lon="2.63379">
        <ele>190</ele>
        <time>2017-05-17T12:01:00.754</time>
      </trkpt>
      <trkpt lat="48.45198" lon="2.6338">
        <ele>189</ele>
        <time>2017-05-17T12:01:01.760</time>
      </trkpt>
      <trkpt lat="48.45198" lon="2.6338">
        <ele>189</ele>
        <time>2017-05-17T12:01:02.757</time>
      </trkpt>
      <trkpt lat="48.45198" lon="2.63379">
        <ele>189</ele>
        <time>2017-05-17T12:01:03.753</time>
      </trkpt>
      <trkpt lat="48.45198" lon="2.6338">
        <ele>189</ele>
        <time>2017-05-17T12:01:04.756</time>
      </trkpt>
      <trkpt lat="48.45197" lon="2.63379">
        <ele>189</ele>
        <time>2017-05-17T12:01:06.359</time>
      </trkpt>
      <trkpt lat="48.45197" lon="2.63379">
        <ele>189</ele>
        <time>2017-05-17T12:01:06.762</time>
      </trkpt>
      <trkpt lat="48.45197" lon="2.63379">
        <ele>189</ele>
        <time>2017-05-17T12:01:07.761</time>
      </trkpt>
      <trkpt lat="48.45197" lon="2.63379">
        <ele>190</ele>
        <time>2017-05-17T12:01:08.761</time>
      </trkpt>
      <trkpt lat="48.45197" lon="2.63379">
        <ele>190</ele>
        <time>2017-05-17T12:01:09.759</time>
      </trkpt>
      <trkpt lat="48.45197" lon="2.63379">
        <ele>189</ele>
        <time>2017-05-17T12:01:10.761</time>
      </trkpt>
      <trkpt lat="48.45197" lon="2.63379">
        <ele>189</ele>
        <time>2017-05-17T12:01:11.758</time>
      </trkpt>
      <trkpt lat="48.45197" lon="2.63379">
        <ele>189</ele>
        <time>2017-05-17T12:01:12.767</time>
      </trkpt>
      <trkpt lat="48.45197" lon="2.63379">
        <ele>189</ele>
        <time>2017-05-17T12:01:13.759</time>
      </trkpt>
      <trkpt lat="48.45197" lon="2.6338">
        <ele>189</ele>
        <time>2017-05-17T12:01:14.759</time>
      </trkpt>
      <trkpt lat="48.45198" lon="2.63379">
        <ele>188</ele>
        <time>2017-05-17T12:01:15.763</time>
      </trkpt>
      <trkpt lat="48.45198" lon="2.63379">
        <ele>188</ele>
        <time>2017-05-17T12:01:16.761</time>
      </trkpt>
      <trkpt lat="48.45198" lon="2.6338">
        <ele>188</ele>
        <time>2017-05-17T12:01:17.761</time>
      </trkpt>
      <trkpt lat="48.45198" lon="2.63379">
        <ele>188</ele>
        <time>2017-05-17T12:01:18.760</time>
      </trkpt>
      <trkpt lat="48.45198" lon="2.6338">
        <ele>188</ele>
        <time>2017-05-17T12:01:19.756</time>
      </trkpt>
      <trkpt lat="48.45198" lon="2.6338">
        <ele>188</ele>
        <time>2017-05-17T12:01:20.763</time>
      </trkpt>
      <trkpt lat="48.45198" lon="2.63379">
        <ele>189</ele>
        <time>2017-05-17T12:01:21.760</time>
      </trkpt>
      <trkpt lat="48.45198" lon="2.63379">
        <ele>188</ele>
        <time>2017-05-17T12:01:22.759</time>
      </trkpt>
      <trkpt lat="48.45198" lon="2.63379">
        <ele>188</ele>
        <time>2017-05-17T12:01:23.760</time>
      </trkpt>
      <trkpt lat="48.45198" lon="2.63379">
        <ele>189</ele>
        <time>2017-05-17T12:01:24.762</time>
      </trkpt>
      <trkpt lat="48.45198" lon="2.63379">
        <ele>189</ele>
        <time>2017-05-17T12:01:25.765</time>
      </trkpt>
      <trkpt lat="48.45198" lon="2.63379">
        <ele>189</ele>
        <time>2017-05-17T12:01:26.763</time>
      </trkpt>
      <trkpt lat="48.45198" lon="2.63379">
        <ele>189</ele>
        <time>2017-05-17T12:01:27.765</time>
      </trkpt>
      <trkpt lat="48.45198" lon="2.63379">
        <ele>189</ele>
        <time>2017-05-17T12:01:28.766</time>
      </trkpt>
      <trkpt lat="48.45198" lon="2.63379">
        <ele>189</ele>
        <time>2017-05-17T12:01:29.759</time>
      </trkpt>
      <trkpt lat="48.45198" lon="2.6338">
        <ele>189</ele>
        <time>2017-05-17T12:01:30.767</time>
      </trkpt>
      <trkpt lat="48.45197" lon="2.6338">
        <ele>189</ele>
        <time>2017-05-17T12:01:31.762</time>
      </trkpt>
      <trkpt lat="48.45198" lon="2.6338">
        <ele>188</ele>
        <time>2017-05-17T12:01:32.759</time>
      </trkpt>
      <trkpt lat="48.45198" lon="2.6338">
        <ele>188</ele>
        <time>2017-05-17T12:01:33.759</time>
      </trkpt>
      <trkpt lat="48.45198" lon="2.6338">
        <ele>188</ele>
        <time>2017-05-17T12:01:34.758</time>
      </trkpt>
      <trkpt lat="48.45198" lon="2.6338">
        <ele>188</ele>
        <time>2017-05-17T12:01:35.761</time>
      </trkpt>
      <trkpt lat="48.45199" lon="2.6338">
        <ele>188</ele>
        <time>2017-05-17T12:01:37.605</time>
      </trkpt>
      <trkpt lat="48.45199" lon="2.63381">
        <ele>187</ele>
        <time>2017-05-17T12:01:37.756</time>
      </trkpt>
      <trkpt lat="48.45198" lon="2.63381">
        <ele>188</ele>
        <time>2017-05-17T12:01:38.754</time>
      </trkpt>
      <trkpt lat="48.45197" lon="2.63381">
        <ele>188</ele>
        <time>2017-05-17T12:01:39.762</time>
      </trkpt>
      <trkpt lat="48.45198" lon="2.63381">
        <ele>187</ele>
        <time>2017-05-17T12:01:40.765</time>
      </trkpt>
      <trkpt lat="48.45198" lon="2.63381">
        <ele>187</ele>
        <time>2017-05-17T12:01:41.761</time>
      </trkpt>
      <trkpt lat="48.45197" lon="2.63381">
        <ele>187</ele>
        <time>2017-05-17T12:01:42.760</time>
      </trkpt>
      <trkpt lat="48.45197" lon="2.63381">
        <ele>187</ele>
        <time>2017-05-17T12:01:43.762</time>
      </trkpt>
      <trkpt lat="48.45197" lon="2.63381">
        <ele>187</ele>
        <time>2017-05-17T12:01:44.762</time>
      </trkpt>
      <trkpt lat="48.45197" lon="2.63381">
        <ele>187</ele>
        <time>2017-05-17T12:01:45.764</time>
      </trkpt>
      <trkpt lat="48.45197" lon="2.63381">
        <ele>187</ele>
        <time>2017-05-17T12:01:46.761</time>
      </trkpt>
      <trkpt lat="48.45197" lon="2.63382">
        <ele>187</ele>
        <time>2017-05-17T12:01:47.763</time>
      </trkpt>
      <trkpt lat="48.45197" lon="2.63382">
        <ele>187</ele>
        <time>2017-05-17T12:01:48.761</time>
      </trkpt>
      <trkpt lat="48.45197" lon="2.63382">
        <ele>187</ele>
        <time>2017-05-17T12:01:49.760</time>
      </trkpt>
      <trkpt lat="48.45197" lon="2.63382">
        <ele>187</ele>
        <time>2017-05-17T12:01:50.764</time>
      </trkpt>
      <trkpt lat="48.45197" lon="2.63382">
        <ele>188</ele>
        <time>2017-05-17T12:01:51.762</time>
      </trkpt>
      <trkpt lat="48.45197" lon="2.63382">
        <ele>188</ele>
        <time>2017-05-17T12:01:52.761</time>
      </trkpt>
      <trkpt lat="48.45197" lon="2.63382">
        <ele>188</ele>
        <time>2017-05-17T12:01:53.760</time>
      </trkpt>
      <trkpt lat="48.45197" lon="2.63382">
        <ele>187</ele>
        <time>2017-05-17T12:01:54.758</time>
      </trkpt>
      <trkpt lat="48.45198" lon="2.63381">
        <ele>187</ele>
        <time>2017-05-17T12:01:55.762</time>
      </trkpt>
      <trkpt lat="48.45197" lon="2.63381">
        <ele>187</ele>
        <time>2017-05-17T12:01:56.762</time>
      </trkpt>
      <trkpt lat="48.45197" lon="2.63381">
        <ele>187</ele>
        <time>2017-05-17T12:01:57.763</time>
      </trkpt>
      <trkpt lat="48.45198" lon="2.63381">
        <ele>186</ele>
        <time>2017-05-17T12:01:58.762</time>
      </trkpt>
      <trkpt lat="48.45198" lon="2.63382">
        <ele>186</ele>
        <time>2017-05-17T12:01:59.782</time>
      </trkpt>
      <trkpt lat="48.45198" lon="2.63381">
        <ele>186</ele>
        <time>2017-05-17T12:02:00.762</time>
      </trkpt>
      <trkpt lat="48.45198" lon="2.63382">
        <ele>187</ele>
        <time>2017-05-17T12:02:01.761</time>
      </trkpt>
      <trkpt lat="48.45198" lon="2.63382">
        <ele>186</ele>
        <time>2017-05-17T12:02:02.762</time>
      </trkpt>
      <trkpt lat="48.45198" lon="2.63381">
        <ele>187</ele>
        <time>2017-05-17T12:02:03.761</time>
      </trkpt>
      <trkpt lat="48.45197" lon="2.6338">
        <ele>187</ele>
        <time>2017-05-17T12:02:04.760</time>
      </trkpt>
      <trkpt lat="48.45197" lon="2.63379">
        <ele>186</ele>
        <time>2017-05-17T12:02:05.763</time>
      </trkpt>
      <trkpt lat="48.45195" lon="2.63378">
        <ele>187</ele>
        <time>2017-05-17T12:02:06.763</time>
      </trkpt>
      <trkpt lat="48.45195" lon="2.63377">
        <ele>187</ele>
        <time>2017-05-17T12:02:07.763</time>
      </trkpt>
      <trkpt lat="48.45194" lon="2.63376">
        <ele>187</ele>
        <time>2017-05-17T12:02:08.763</time>
      </trkpt>
      <trkpt lat="48.45193" lon="2.63375">
        <ele>186</ele>
        <time>2017-05-17T12:02:09.763</time>
      </trkpt>
      <trkpt lat="48.45193" lon="2.63373">
        <ele>185</ele>
        <time>2017-05-17T12:02:10.799</time>
      </trkpt>
      <trkpt lat="48.45193" lon="2.63372">
        <ele>185</ele>
        <time>2017-05-17T12:02:11.764</time>
      </trkpt>
      <trkpt lat="48.45192" lon="2.63372">
        <ele>185</ele>
        <time>2017-05-17T12:02:12.765</time>
      </trkpt>
      <trkpt lat="48.45191" lon="2.63369">
        <ele>185</ele>
        <time>2017-05-17T12:02:13.765</time>
      </trkpt>
      <trkpt lat="48.45192" lon="2.63367">
        <ele>186</ele>
        <time>2017-05-17T12:02:14.762</time>
      </trkpt>
      <trkpt lat="48.45191" lon="2.63367">
        <ele>186</ele>
        <time>2017-05-17T12:02:15.762</time>
      </trkpt>
      <trkpt lat="48.45191" lon="2.63366">
        <ele>186</ele>
        <time>2017-05-17T12:02:16.762</time>
      </trkpt>
      <trkpt lat="48.45192" lon="2.63365">
        <ele>186</ele>
        <time>2017-05-17T12:02:17.776</time>
      </trkpt>
      <trkpt lat="48.45191" lon="2.63365">
        <ele>186</ele>
        <time>2017-05-17T12:02:18.756</time>
      </trkpt>
      <trkpt lat="48.45191" lon="2.63365">
        <ele>186</ele>
        <time>2017-05-17T12:02:19.756</time>
      </trkpt>
      <trkpt lat="48.45191" lon="2.63365">
        <ele>185</ele>
        <time>2017-05-17T12:02:20.755</time>
      </trkpt>
      <trkpt lat="48.45191" lon="2.63365">
        <ele>185</ele>
        <time>2017-05-17T12:02:21.757</time>
      </trkpt>
      <trkpt lat="48.45191" lon="2.63366">
        <ele>185</ele>
        <time>2017-05-17T12:02:22.759</time>
      </trkpt>
      <trkpt lat="48.45191" lon="2.63365">
        <ele>185</ele>
        <time>2017-05-17T12:02:23.755</time>
      </trkpt>
      <trkpt lat="48.4519" lon="2.63365">
        <ele>185</ele>
        <time>2017-05-17T12:02:24.765</time>
      </trkpt>
      <trkpt lat="48.4519" lon="2.63363">
        <ele>185</ele>
        <time>2017-05-17T12:02:25.756</time>
      </trkpt>
      <trkpt lat="48.4519" lon="2.63364">
        <ele>185</ele>
        <time>2017-05-17T12:02:26.754</time>
      </trkpt>
      <trkpt lat="48.4519" lon="2.63364">
        <ele>184</ele>
        <time>2017-05-17T12:02:27.758</time>
      </trkpt>
      <trkpt lat="48.4519" lon="2.63364">
        <ele>184</ele>
        <time>2017-05-17T12:02:28.756</time>
      </trkpt>
      <trkpt lat="48.4519" lon="2.63364">
        <ele>184</ele>
        <time>2017-05-17T12:02:29.756</time>
      </trkpt>
      <trkpt lat="48.4519" lon="2.63363">
        <ele>184</ele>
        <time>2017-05-17T12:02:30.757</time>
      </trkpt>
      <trkpt lat="48.4519" lon="2.63362">
        <ele>184</ele>
        <time>2017-05-17T12:02:31.758</time>
      </trkpt>
      <trkpt lat="48.4519" lon="2.63362">
        <ele>184</ele>
        <time>2017-05-17T12:02:32.755</time>
      </trkpt>
      <trkpt lat="48.4519" lon="2.63363">
        <ele>183</ele>
        <time>2017-05-17T12:02:33.753</time>
      </trkpt>
      <trkpt lat="48.4519" lon="2.63363">
        <ele>183</ele>
        <time>2017-05-17T12:02:34.753</time>
      </trkpt>
      <trkpt lat="48.4519" lon="2.63363">
        <ele>183</ele>
        <time>2017-05-17T12:02:35.755</time>
      </trkpt>
      <trkpt lat="48.4519" lon="2.63363">
        <ele>183</ele>
        <time>2017-05-17T12:02:36.756</time>
      </trkpt>
      <trkpt lat="48.4519" lon="2.63363">
        <ele>182</ele>
        <time>2017-05-17T12:02:37.756</time>
      </trkpt>
      <trkpt lat="48.45191" lon="2.63363">
        <ele>182</ele>
        <time>2017-05-17T12:02:38.753</time>
      </trkpt>
      <trkpt lat="48.45191" lon="2.63363">
        <ele>182</ele>
        <time>2017-05-17T12:02:39.753</time>
      </trkpt>
      <trkpt lat="48.45191" lon="2.63363">
        <ele>182</ele>
        <time>2017-05-17T12:02:40.757</time>
      </trkpt>
      <trkpt lat="48.45191" lon="2.63363">
        <ele>182</ele>
        <time>2017-05-17T12:02:41.755</time>
      </trkpt>
      <trkpt lat="48.45191" lon="2.63364">
        <ele>182</ele>
        <time>2017-05-17T12:02:42.757</time>
      </trkpt>
      <trkpt lat="48.45191" lon="2.63363">
        <ele>183</ele>
        <time>2017-05-17T12:02:43.754</time>
      </trkpt>
      <trkpt lat="48.45191" lon="2.63364">
        <ele>183</ele>
        <time>2017-05-17T12:02:44.755</time>
      </trkpt>
      <trkpt lat="48.45191" lon="2.63364">
        <ele>183</ele>
        <time>2017-05-17T12:02:45.757</time>
      </trkpt>
      <trkpt lat="48.45192" lon="2.63363">
        <ele>183</ele>
        <time>2017-05-17T12:02:46.759</time>
      </trkpt>
      <trkpt lat="48.45191" lon="2.63363">
        <ele>184</ele>
        <time>2017-05-17T12:02:47.757</time>
      </trkpt>
      <trkpt lat="48.45191" lon="2.63363">
        <ele>184</ele>
        <time>2017-05-17T12:02:48.756</time>
      </trkpt>
      <trkpt lat="48.45191" lon="2.63363">
        <ele>184</ele>
        <time>2017-05-17T12:02:49.753</time>
      </trkpt>
      <trkpt lat="48.45191" lon="2.63364">
        <ele>184</ele>
        <time>2017-05-17T12:02:50.754</time>
      </trkpt>
      <trkpt lat="48.45191" lon="2.63364">
        <ele>184</ele>
        <time>2017-05-17T12:02:51.758</time>
      </trkpt>
      <trkpt lat="48.45191" lon="2.63364">
        <ele>185</ele>
        <time>2017-05-17T12:02:52.754</time>
      </trkpt>
      <trkpt lat="48.45191" lon="2.63363">
        <ele>185</ele>
        <time>2017-05-17T12:02:53.753</time>
      </trkpt>
      <trkpt lat="48.45191" lon="2.63363">
        <ele>185</ele>
        <time>2017-05-17T12:02:54.754</time>
      </trkpt>
      <trkpt lat="48.45191" lon="2.63363">
        <ele>185</ele>
        <time>2017-05-17T12:02:55.753</time>
      </trkpt>
      <trkpt lat="48.45191" lon="2.63363">
        <ele>185</ele>
        <time>2017-05-17T12:02:56.754</time>
      </trkpt>
      <trkpt lat="48.45191" lon="2.63363">
        <ele>186</ele>
        <time>2017-05-17T12:02:57.755</time>
      </trkpt>
      <trkpt lat="48.4519" lon="2.63364">
        <ele>186</ele>
        <time>2017-05-17T12:02:58.758</time>
      </trkpt>
      <trkpt lat="48.45191" lon="2.63363">
        <ele>186</ele>
        <time>2017-05-17T12:02:59.755</time>
      </trkpt>
      <trkpt lat="48.45191" lon="2.63363">
        <ele>186</ele>
        <time>2017-05-17T12:03:00.755</time>
      </trkpt>
      <trkpt lat="48.45191" lon="2.63364">
        <ele>186</ele>
        <time>2017-05-17T12:03:01.754</time>
      </trkpt>
      <trkpt lat="48.45191" lon="2.63364">
        <ele>186</ele>
        <time>2017-05-17T12:03:02.753</time>
      </trkpt>
      <trkpt lat="48.45192" lon="2.63364">
        <ele>187</ele>
        <time>2017-05-17T12:03:03.754</time>
      </trkpt>
      <trkpt lat="48.45192" lon="2.63364">
        <ele>187</ele>
        <time>2017-05-17T12:03:04.753</time>
      </trkpt>
      <trkpt lat="48.45192" lon="2.63364">
        <ele>187</ele>
        <time>2017-05-17T12:03:05.755</time>
      </trkpt>
      <trkpt lat="48.45192" lon="2.63364">
        <ele>187</ele>
        <time>2017-05-17T12:03:06.756</time>
      </trkpt>
      <trkpt lat="48.45192" lon="2.63364">
        <ele>187</ele>
        <time>2017-05-17T12:03:07.754</time>
      </trkpt>
      <trkpt lat="48.45192" lon="2.63364">
        <ele>187</ele>
        <time>2017-05-17T12:03:08.754</time>
      </trkpt>
      <trkpt lat="48.45193" lon="2.63364">
        <ele>187</ele>
        <time>2017-05-17T12:03:09.754</time>
      </trkpt>
      <trkpt lat="48.45193" lon="2.63364">
        <ele>187</ele>
        <time>2017-05-17T12:03:10.769</time>
      </trkpt>
      <trkpt lat="48.45193" lon="2.63364">
        <ele>187</ele>
        <time>2017-05-17T12:03:11.753</time>
      </trkpt>
      <trkpt lat="48.45193" lon="2.63364">
        <ele>187</ele>
        <time>2017-05-17T12:03:12.753</time>
      </trkpt>
      <trkpt lat="48.45193" lon="2.63364">
        <ele>186</ele>
        <time>2017-05-17T12:03:13.759</time>
      </trkpt>
      <trkpt lat="48.45193" lon="2.63364">
        <ele>186</ele>
        <time>2017-05-17T12:03:14.753</time>
      </trkpt>
      <trkpt lat="48.45193" lon="2.63365">
        <ele>186</ele>
        <time>2017-05-17T12:03:15.755</time>
      </trkpt>
      <trkpt lat="48.45193" lon="2.63364">
        <ele>187</ele>
        <time>2017-05-17T12:03:16.757</time>
      </trkpt>
      <trkpt lat="48.45193" lon="2.63364">
        <ele>187</ele>
        <time>2017-05-17T12:03:17.752</time>
      </trkpt>
      <trkpt lat="48.45193" lon="2.63364">
        <ele>187</ele>
        <time>2017-05-17T12:03:18.754</time>
      </trkpt>
      <trkpt lat="48.45194" lon="2.63364">
        <ele>187</ele>
        <time>2017-05-17T12:03:19.754</time>
      </trkpt>
      <trkpt lat="48.45194" lon="2.63364">
        <ele>188</ele>
        <time>2017-05-17T12:03:20.754</time>
      </trkpt>
      <trkpt lat="48.45194" lon="2.63364">
        <ele>187</ele>
        <time>2017-05-17T12:03:21.753</time>
      </trkpt>
      <trkpt lat="48.45193" lon="2.63364">
        <ele>187</ele>
        <time>2017-05-17T12:03:22.757</time>
      </trkpt>
      <trkpt lat="48.45194" lon="2.63363">
        <ele>188</ele>
        <time>2017-05-17T12:03:23.756</time>
      </trkpt>
      <trkpt lat="48.45193" lon="2.63363">
        <ele>188</ele>
        <time>2017-05-17T12:03:24.755</time>
      </trkpt>
      <trkpt lat="48.45193" lon="2.63363">
        <ele>187</ele>
        <time>2017-05-17T12:03:25.752</time>
      </trkpt>
      <trkpt lat="48.45193" lon="2.63363">
        <ele>187</ele>
        <time>2017-05-17T12:03:26.755</time>
      </trkpt>
      <trkpt lat="48.45193" lon="2.63363">
        <ele>187</ele>
        <time>2017-05-17T12:03:27.754</time>
      </trkpt>
      <trkpt lat="48.45193" lon="2.63362">
        <ele>187</ele>
        <time>2017-05-17T12:03:28.754</time>
      </trkpt>
      <trkpt lat="48.45193" lon="2.63363">
        <ele>186</ele>
        <time>2017-05-17T12:03:29.756</time>
      </trkpt>
      <trkpt lat="48.45193" lon="2.63363">
        <ele>186</ele>
        <time>2017-05-17T12:03:30.756</time>
      </trkpt>
      <trkpt lat="48.45193" lon="2.63363">
        <ele>186</ele>
        <time>2017-05-17T12:03:31.757</time>
      </trkpt>
      <trkpt lat="48.45193" lon="2.63362">
        <ele>187</ele>
        <time>2017-05-17T12:03:32.755</time>
      </trkpt>
      <trkpt lat="48.45193" lon="2.63363">
        <ele>187</ele>
        <time>2017-05-17T12:03:33.753</time>
      </trkpt>
      <trkpt lat="48.45193" lon="2.63362">
        <ele>187</ele>
        <time>2017-05-17T12:03:34.754</time>
      </trkpt>
      <trkpt lat="48.45193" lon="2.63363">
        <ele>187</ele>
        <time>2017-05-17T12:03:35.756</time>
      </trkpt>
      <trkpt lat="48.45193" lon="2.63362">
        <ele>187</ele>
        <time>2017-05-17T12:03:36.756</time>
      </trkpt>
      <trkpt lat="48.45192" lon="2.63362">
        <ele>187</ele>
        <time>2017-05-17T12:03:37.753</time>
      </trkpt>
      <trkpt lat="48.45192" lon="2.63362">
        <ele>187</ele>
        <time>2017-05-17T12:03:38.773</time>
      </trkpt>
      <trkpt lat="48.45192" lon="2.63362">
        <ele>187</ele>
        <time>2017-05-17T12:03:39.294</time>
      </trkpt>
      <trkpt lat="48.45192" lon="2.63362">
        <ele>187</ele>
        <time>2017-05-17T12:03:40.289</time>
      </trkpt>
      <trkpt lat="48.45192" lon="2.63362">
        <ele>187</ele>
        <time>2017-05-17T12:03:41.284</time>
      </trkpt>
      <trkpt lat="48.45192" lon="2.63362">
        <ele>187</ele>
        <time>2017-05-17T12:03:42.280</time>
      </trkpt>
      <trkpt lat="48.45192" lon="2.63362">
        <ele>187</ele>
        <time>2017-05-17T12:03:43.289</time>
      </trkpt>
      <trkpt lat="48.45192" lon="2.63362">
        <ele>187</ele>
        <time>2017-05-17T12:03:44.321</time>
      </trkpt>
      <trkpt lat="48.45192" lon="2.63362">
        <ele>187</ele>
        <time>2017-05-17T12:03:45.286</time>
      </trkpt>
      <trkpt lat="48.45192" lon="2.63362">
        <ele>187</ele>
        <time>2017-05-17T12:03:46.294</time>
      </trkpt>
      <trkpt lat="48.45192" lon="2.63362">
        <ele>187</ele>
        <time>2017-05-17T12:03:47.288</time>
      </trkpt>
      <trkpt lat="48.45192" lon="2.63362">
        <ele>187</ele>
        <time>2017-05-17T12:03:48.297</time>
      </trkpt>
      <trkpt lat="48.45192" lon="2.63362">
        <ele>187</ele>
        <time>2017-05-17T12:03:49.296</time>
      </trkpt>
      <trkpt lat="48.45192" lon="2.63362">
        <ele>187</ele>
        <time>2017-05-17T12:03:50.285</time>
      </trkpt>
      <trkpt lat="48.45192" lon="2.63362">
        <ele>187</ele>
        <time>2017-05-17T12:03:51.288</time>
      </trkpt>
      <trkpt lat="48.45192" lon="2.63362">
        <ele>187</ele>
        <time>2017-05-17T12:03:52.291</time>
      </trkpt>
      <trkpt lat="48.45192" lon="2.63362">
        <ele>187</ele>
        <time>2017-05-17T12:03:53.285</time>
      </trkpt>
      <trkpt lat="48.45192" lon="2.63362">
        <ele>187</ele>
        <time>2017-05-17T12:03:54.285</time>
      </trkpt>
      <trkpt lat="48.45192" lon="2.63362">
        <ele>187</ele>
        <time>2017-05-17T12:03:55.291</time>
      </trkpt>
      <trkpt lat="48.45192" lon="2.63362">
        <ele>187</ele>
        <time>2017-05-17T12:03:56.285</time>
      </trkpt>
      <trkpt lat="48.45192" lon="2.63362">
        <ele>187</ele>
        <time>2017-05-17T12:03:57.285</time>
      </trkpt>
      <trkpt lat="48.45192" lon="2.63362">
        <ele>187</ele>
        <time>2017-05-17T12:03:58.292</time>
      </trkpt>
      <trkpt lat="48.45192" lon="2.63362">
        <ele>187</ele>
        <time>2017-05-17T12:03:59.300</time>
      </trkpt>
      <trkpt lat="48.45192" lon="2.63362">
        <ele>187</ele>
        <time>2017-05-17T12:04:00.290</time>
      </trkpt>
      <trkpt lat="48.45192" lon="2.63362">
        <ele>187</ele>
        <time>2017-05-17T12:04:01.290</time>
      </trkpt>
      <trkpt lat="48.45192" lon="2.63362">
        <ele>187</ele>
        <time>2017-05-17T12:04:02.290</time>
      </trkpt>
      <trkpt lat="48.45192" lon="2.63362">
        <ele>187</ele>
        <time>2017-05-17T12:04:04.310</time>
      </trkpt>
      <trkpt lat="48.45192" lon="2.63362">
        <ele>187</ele>
        <time>2017-05-17T12:04:05.293</time>
      </trkpt>
      <trkpt lat="48.45192" lon="2.63362">
        <ele>187</ele>
        <time>2017-05-17T12:04:06.293</time>
      </trkpt>
      <trkpt lat="48.45192" lon="2.63362">
        <ele>187</ele>
        <time>2017-05-17T12:04:07.289</time>
      </trkpt>
      <trkpt lat="48.45192" lon="2.63362">
        <ele>187</ele>
        <time>2017-05-17T12:04:08.300</time>
      </trkpt>
      <trkpt lat="48.45192" lon="2.63362">
        <ele>187</ele>
        <time>2017-05-17T12:04:09.293</time>
      </trkpt>
      <trkpt lat="48.45192" lon="2.63362">
        <ele>187</ele>
        <time>2017-05-17T12:04:10.286</time>
      </trkpt>
      <trkpt lat="48.45192" lon="2.63362">
        <ele>187</ele>
        <time>2017-05-17T12:04:11.285</time>
      </trkpt>
      <trkpt lat="48.45192" lon="2.63362">
        <ele>187</ele>
        <time>2017-05-17T12:04:12.291</time>
      </trkpt>
      <trkpt lat="48.45192" lon="2.63362">
        <ele>187</ele>
        <time>2017-05-17T12:04:13.292</time>
      </trkpt>
      <trkpt lat="48.45192" lon="2.63362">
        <ele>187</ele>
        <time>2017-05-17T12:04:14.286</time>
      </trkpt>
      <trkpt lat="48.45192" lon="2.63362">
        <ele>187</ele>
        <time>2017-05-17T12:04:15.287</time>
      </trkpt>
      <trkpt lat="48.45192" lon="2.63362">
        <ele>187</ele>
        <time>2017-05-17T12:04:16.292</time>
      </trkpt>
      <trkpt lat="48.45192" lon="2.63362">
        <ele>187</ele>
        <time>2017-05-17T12:04:17.290</time>
      </trkpt>
      <trkpt lat="48.45192" lon="2.63362">
        <ele>187</ele>
        <time>2017-05-17T12:04:18.302</time>
      </trkpt>
      <trkpt lat="48.45192" lon="2.63362">
        <ele>187</ele>
        <time>2017-05-17T12:04:19.303</time>
      </trkpt>
      <trkpt lat="48.45192" lon="2.63362">
        <ele>187</ele>
        <time>2017-05-17T12:04:20.293</time>
      </trkpt>
      <trkpt lat="48.45192" lon="2.63362">
        <ele>187</ele>
        <time>2017-05-17T12:04:21.292</time>
      </trkpt>
      <trkpt lat="48.45192" lon="2.63362">
        <ele>187</ele>
        <time>2017-05-17T12:04:22.289</time>
      </trkpt>
      <trkpt lat="48.45192" lon="2.63362">
        <ele>187</ele>
        <time>2017-05-17T12:04:23.291</time>
      </trkpt>
      <trkpt lat="48.45192" lon="2.63362">
        <ele>187</ele>
        <time>2017-05-17T12:04:24.292</time>
      </trkpt>
      <trkpt lat="48.45192" lon="2.63362">
        <ele>187</ele>
        <time>2017-05-17T12:04:25.290</time>
      </trkpt>
      <trkpt lat="48.45192" lon="2.63362">
        <ele>187</ele>
        <time>2017-05-17T12:04:26.286</time>
      </trkpt>
      <trkpt lat="48.45192" lon="2.63362">
        <ele>187</ele>
        <time>2017-05-17T12:04:27.285</time>
      </trkpt>
      <trkpt lat="48.45192" lon="2.63362">
        <ele>187</ele>
        <time>2017-05-17T12:04:28.298</time>
      </trkpt>
      <trkpt lat="48.45192" lon="2.63362">
        <ele>187</ele>
        <time>2017-05-17T12:04:29.288</time>
      </trkpt>
      <trkpt lat="48.45192" lon="2.63362">
        <ele>187</ele>
        <time>2017-05-17T12:04:30.290</time>
      </trkpt>
      <trkpt lat="48.45192" lon="2.63362">
        <ele>187</ele>
        <time>2017-05-17T12:04:31.290</time>
      </trkpt>
      <trkpt lat="48.45192" lon="2.63362">
        <ele>187</ele>
        <time>2017-05-17T12:04:32.515</time>
      </trkpt>
      <trkpt lat="48.45192" lon="2.63362">
        <ele>187</ele>
        <time>2017-05-17T12:04:33.288</time>
      </trkpt>
      <trkpt lat="48.45192" lon="2.63362">
        <ele>187</ele>
        <time>2017-05-17T12:04:34.289</time>
      </trkpt>
      <trkpt lat="48.45192" lon="2.63362">
        <ele>187</ele>
        <time>2017-05-17T12:04:35.286</time>
      </trkpt>
      <trkpt lat="48.45192" lon="2.63362">
        <ele>187</ele>
        <time>2017-05-17T12:04:36.289</time>
      </trkpt>
      <trkpt lat="48.45192" lon="2.63362">
        <ele>187</ele>
        <time>2017-05-17T12:04:37.289</time>
      </trkpt>
      <trkpt lat="48.45192" lon="2.63362">
        <ele>187</ele>
        <time>2017-05-17T12:04:38.292</time>
      </trkpt>
      <trkpt lat="48.45192" lon="2.63362">
        <ele>187</ele>
        <time>2017-05-17T12:04:39.292</time>
      </trkpt>
      <trkpt lat="48.45192" lon="2.63362">
        <ele>187</ele>
        <time>2017-05-17T12:04:40.292</time>
      </trkpt>
      <trkpt lat="48.45192" lon="2.63362">
        <ele>187</ele>
        <time>2017-05-17T12:04:41.291</time>
      </trkpt>
      <trkpt lat="48.45192" lon="2.63362">
        <ele>187</ele>
        <time>2017-05-17T12:04:42.286</time>
      </trkpt>
      <trkpt lat="48.45192" lon="2.63362">
        <ele>187</ele>
        <time>2017-05-17T12:04:43.291</time>
      </trkpt>
      <trkpt lat="48.45192" lon="2.63362">
        <ele>187</ele>
        <time>2017-05-17T12:04:44.294</time>
      </trkpt>
      <trkpt lat="48.45192" lon="2.63362">
        <ele>187</ele>
        <time>2017-05-17T12:04:45.292</time>
      </trkpt>
      <trkpt lat="48.45192" lon="2.63362">
        <ele>187</ele>
        <time>2017-05-17T12:04:46.292</time>
      </trkpt>
      <trkpt lat="48.45192" lon="2.63362">
        <ele>187</ele>
        <time>2017-05-17T12:04:47.295</time>
      </trkpt>
      <trkpt lat="48.45191" lon="2.63362">
        <ele>187</ele>
        <time>2017-05-17T12:04:48.298</time>
      </trkpt>
      <trkpt lat="48.45192" lon="2.63362">
        <ele>186</ele>
        <time>2017-05-17T12:04:49.298</time>
      </trkpt>
      <trkpt lat="48.45192" lon="2.63362">
        <ele>186</ele>
        <time>2017-05-17T12:04:50.284</time>
      </trkpt>
      <trkpt lat="48.45192" lon="2.63361">
        <ele>186</ele>
        <time>2017-05-17T12:04:51.283</time>
      </trkpt>
      <trkpt lat="48.45192" lon="2.63361">
        <ele>186</ele>
        <time>2017-05-17T12:04:52.285</time>
      </trkpt>
      <trkpt lat="48.45192" lon="2.63361">
        <ele>186</ele>
        <time>2017-05-17T12:04:53.284</time>
      </trkpt>
      <trkpt lat="48.45192" lon="2.63361">
        <ele>187</ele>
        <time>2017-05-17T12:04:54.288</time>
      </trkpt>
      <trkpt lat="48.45192" lon="2.63361">
        <ele>187</ele>
        <time>2017-05-17T12:04:55.288</time>
      </trkpt>
      <trkpt lat="48.45192" lon="2.63361">
        <ele>187</ele>
        <time>2017-05-17T12:04:56.357</time>
      </trkpt>
      <trkpt lat="48.45192" lon="2.63361">
        <ele>187</ele>
        <time>2017-05-17T12:04:57.287</time>
      </trkpt>
      <trkpt lat="48.45192" lon="2.63361">
        <ele>187</ele>
        <time>2017-05-17T12:04:58.291</time>
      </trkpt>
      <trkpt lat="48.45192" lon="2.63361">
        <ele>187</ele>
        <time>2017-05-17T12:04:59.287</time>
      </trkpt>
      <trkpt lat="48.45192" lon="2.63361">
        <ele>187</ele>
        <time>2017-05-17T12:05:00.283</time>
      </trkpt>
      <trkpt lat="48.45192" lon="2.63361">
        <ele>187</ele>
        <time>2017-05-17T12:05:01.286</time>
      </trkpt>
      <trkpt lat="48.45192" lon="2.63361">
        <ele>187</ele>
        <time>2017-05-17T12:05:02.284</time>
      </trkpt>
      <trkpt lat="48.45192" lon="2.63361">
        <ele>187</ele>
        <time>2017-05-17T12:05:03.285</time>
      </trkpt>
      <trkpt lat="48.45192" lon="2.63361">
        <ele>187</ele>
        <time>2017-05-17T12:05:04.289</time>
      </trkpt>
      <trkpt lat="48.45192" lon="2.63361">
        <ele>187</ele>
        <time>2017-05-17T12:05:05.291</time>
      </trkpt>
      <trkpt lat="48.45192" lon="2.63361">
        <ele>187</ele>
        <time>2017-05-17T12:05:06.290</time>
      </trkpt>
      <trkpt lat="48.45192" lon="2.63361">
        <ele>187</ele>
        <time>2017-05-17T12:05:07.290</time>
      </trkpt>
      <trkpt lat="48.45192" lon="2.63361">
        <ele>187</ele>
        <time>2017-05-17T12:05:08.289</time>
      </trkpt>
      <trkpt lat="48.45192" lon="2.63361">
        <ele>187</ele>
        <time>2017-05-17T12:05:09.290</time>
      </trkpt>
      <trkpt lat="48.45192" lon="2.63361">
        <ele>187</ele>
        <time>2017-05-17T12:05:10.300</time>
      </trkpt>
      <trkpt lat="48.45192" lon="2.63361">
        <ele>187</ele>
        <time>2017-05-17T12:05:11.289</time>
      </trkpt>
      <trkpt lat="48.45192" lon="2.63361">
        <ele>187</ele>
        <time>2017-05-17T12:05:12.292</time>
      </trkpt>
      <trkpt lat="48.45192" lon="2.63361">
        <ele>187</ele>
        <time>2017-05-17T12:05:13.295</time>
      </trkpt>
      <trkpt lat="48.45192" lon="2.63361">
        <ele>187</ele>
        <time>2017-05-17T12:05:14.303</time>
      </trkpt>
      <trkpt lat="48.45193" lon="2.63361">
        <ele>188</ele>
        <time>2017-05-17T12:05:15.296</time>
      </trkpt>
      <trkpt lat="48.45192" lon="2.63361">
        <ele>188</ele>
        <time>2017-05-17T12:05:16.288</time>
      </trkpt>
      <trkpt lat="48.45192" lon="2.63361">
        <ele>188</ele>
        <time>2017-05-17T12:05:17.288</time>
      </trkpt>
      <trkpt lat="48.45193" lon="2.63361">
        <ele>188</ele>
        <time>2017-05-17T12:05:18.295</time>
      </trkpt>
      <trkpt lat="48.45193" lon="2.63361">
        <ele>188</ele>
        <time>2017-05-17T12:05:19.300</time>
      </trkpt>
      <trkpt lat="48.45193" lon="2.63361">
        <ele>188</ele>
        <time>2017-05-17T12:05:20.293</time>
      </trkpt>
      <trkpt lat="48.45193" lon="2.63362">
        <ele>188</ele>
        <time>2017-05-17T12:05:21.292</time>
      </trkpt>
      <trkpt lat="48.45193" lon="2.63362">
        <ele>188</ele>
        <time>2017-05-17T12:05:22.293</time>
      </trkpt>
      <trkpt lat="48.45194" lon="2.63362">
        <ele>187</ele>
        <time>2017-05-17T12:05:23.293</time>
      </trkpt>
      <trkpt lat="48.45194" lon="2.63362">
        <ele>188</ele>
        <time>2017-05-17T12:05:24.293</time>
      </trkpt>
      <trkpt lat="48.45193" lon="2.63362">
        <ele>188</ele>
        <time>2017-05-17T12:05:25.290</time>
      </trkpt>
      <trkpt lat="48.45194" lon="2.63362">
        <ele>188</ele>
        <time>2017-05-17T12:05:26.294</time>
      </trkpt>
      <trkpt lat="48.45194" lon="2.63362">
        <ele>188</ele>
        <time>2017-05-17T12:05:27.295</time>
      </trkpt>
      <trkpt lat="48.45194" lon="2.63362">
        <ele>188</ele>
        <time>2017-05-17T12:05:28.293</time>
      </trkpt>
      <trkpt lat="48.45194" lon="2.63362">
        <ele>188</ele>
        <time>2017-05-17T12:05:29.292</time>
      </trkpt>
      <trkpt lat="48.45194" lon="2.63362">
        <ele>188</ele>
        <time>2017-05-17T12:05:30.294</time>
      </trkpt>
      <trkpt lat="48.45194" lon="2.63362">
        <ele>188</ele>
        <time>2017-05-17T12:05:31.294</time>
      </trkpt>
      <trkpt lat="48.45193" lon="2.63362">
        <ele>188</ele>
        <time>2017-05-17T12:05:32.297</time>
      </trkpt>
      <trkpt lat="48.45193" lon="2.63361">
        <ele>188</ele>
        <time>2017-05-17T12:05:33.288</time>
      </trkpt>
      <trkpt lat="48.45193" lon="2.63361">
        <ele>187</ele>
        <time>2017-05-17T12:05:34.291</time>
      </trkpt>
      <trkpt lat="48.45193" lon="2.63361">
        <ele>187</ele>
        <time>2017-05-17T12:05:35.285</time>
      </trkpt>
      <trkpt lat="48.45193" lon="2.63361">
        <ele>187</ele>
        <time>2017-05-17T12:05:36.291</time>
      </trkpt>
      <trkpt lat="48.45193" lon="2.63361">
        <ele>187</ele>
        <time>2017-05-17T12:05:37.292</time>
      </trkpt>
      <trkpt lat="48.45193" lon="2.63361">
        <ele>187</ele>
        <time>2017-05-17T12:05:38.295</time>
      </trkpt>
      <trkpt lat="48.45193" lon="2.63361">
        <ele>187</ele>
        <time>2017-05-17T12:05:39.296</time>
      </trkpt>
      <trkpt lat="48.45193" lon="2.63361">
        <ele>187</ele>
        <time>2017-05-17T12:05:40.294</time>
      </trkpt>
      <trkpt lat="48.45192" lon="2.63361">
        <ele>187</ele>
        <time>2017-05-17T12:05:41.290</time>
      </trkpt>
      <trkpt lat="48.45192" lon="2.63361">
        <ele>188</ele>
        <time>2017-05-17T12:05:42.290</time>
      </trkpt>
      <trkpt lat="48.45192" lon="2.6336">
        <ele>188</ele>
        <time>2017-05-17T12:05:43.292</time>
      </trkpt>
      <trkpt lat="48.45192" lon="2.63361">
        <ele>188</ele>
        <time>2017-05-17T12:05:44.290</time>
      </trkpt>
      <trkpt lat="48.45192" lon="2.63361">
        <ele>188</ele>
        <time>2017-05-17T12:05:45.296</time>
      </trkpt>
      <trkpt lat="48.45192" lon="2.63361">
        <ele>188</ele>
        <time>2017-05-17T12:05:46.291</time>
      </trkpt>
      <trkpt lat="48.45192" lon="2.63361">
        <ele>188</ele>
        <time>2017-05-17T12:05:47.290</time>
      </trkpt>
      <trkpt lat="48.45192" lon="2.63361">
        <ele>188</ele>
        <time>2017-05-17T12:05:48.295</time>
      </trkpt>
      <trkpt lat="48.45192" lon="2.63361">
        <ele>188</ele>
        <time>2017-05-17T12:05:49.294</time>
      </trkpt>
      <trkpt lat="48.45192" lon="2.63361">
        <ele>188</ele>
        <time>2017-05-17T12:05:50.296</time>
      </trkpt>
      <trkpt lat="48.45192" lon="2.63361">
        <ele>188</ele>
        <time>2017-05-17T12:05:51.287</time>
      </trkpt>
      <trkpt lat="48.45192" lon="2.63361">
        <ele>188</ele>
        <time>2017-05-17T12:05:52.292</time>
      </trkpt>
      <trkpt lat="48.45192" lon="2.63361">
        <ele>188</ele>
        <time>2017-05-17T12:05:53.290</time>
      </trkpt>
      <trkpt lat="48.45192" lon="2.63361">
        <ele>188</ele>
        <time>2017-05-17T12:05:54.287</time>
      </trkpt>
      <trkpt lat="48.45192" lon="2.63361">
        <ele>188</ele>
        <time>2017-05-17T12:05:55.282</time>
      </trkpt>
      <trkpt lat="48.45192" lon="2.63361">
        <ele>188</ele>
        <time>2017-05-17T12:05:56.287</time>
      </trkpt>
      <trkpt lat="48.45192" lon="2.63361">
        <ele>188</ele>
        <time>2017-05-17T12:05:57.286</time>
      </trkpt>
      <trkpt lat="48.45192" lon="2.63361">
        <ele>188</ele>
        <time>2017-05-17T12:05:58.284</time>
      </trkpt>
      <trkpt lat="48.45192" lon="2.63361">
        <ele>188</ele>
        <time>2017-05-17T12:05:59.295</time>
      </trkpt>
      <trkpt lat="48.45192" lon="2.63361">
        <ele>188</ele>
        <time>2017-05-17T12:06:00.291</time>
      </trkpt>
      <trkpt lat="48.45192" lon="2.63361">
        <ele>188</ele>
        <time>2017-05-17T12:06:01.296</time>
      </trkpt>
      <trkpt lat="48.45192" lon="2.63361">
        <ele>188</ele>
        <time>2017-05-17T12:06:02.296</time>
      </trkpt>
      <trkpt lat="48.45192" lon="2.63361">
        <ele>188</ele>
        <time>2017-05-17T12:06:03.293</time>
      </trkpt>
      <trkpt lat="48.45192" lon="2.63361">
        <ele>188</ele>
        <time>2017-05-17T12:06:04.292</time>
      </trkpt>
      <trkpt lat="48.45192" lon="2.63361">
        <ele>188</ele>
        <time>2017-05-17T12:06:05.284</time>
      </trkpt>
      <trkpt lat="48.45192" lon="2.63361">
        <ele>188</ele>
        <time>2017-05-17T12:06:06.280</time>
      </trkpt>
      <trkpt lat="48.45192" lon="2.63361">
        <ele>188</ele>
        <time>2017-05-17T12:06:07.286</time>
      </trkpt>
      <trkpt lat="48.45192" lon="2.63361">
        <ele>188</ele>
        <time>2017-05-17T12:06:08.296</time>
      </trkpt>
      <trkpt lat="48.45192" lon="2.63361">
        <ele>188</ele>
        <time>2017-05-17T12:06:09.290</time>
      </trkpt>
      <trkpt lat="48.45192" lon="2.63361">
        <ele>188</ele>
        <time>2017-05-17T12:06:10.282</time>
      </trkpt>
      <trkpt lat="48.45192" lon="2.63361">
        <ele>188</ele>
        <time>2017-05-17T12:06:11.283</time>
      </trkpt>
      <trkpt lat="48.45192" lon="2.63361">
        <ele>188</ele>
        <time>2017-05-17T12:06:12.283</time>
      </trkpt>
      <trkpt lat="48.45192" lon="2.63361">
        <ele>188</ele>
        <time>2017-05-17T12:06:13.282</time>
      </trkpt>
      <trkpt lat="48.45192" lon="2.63361">
        <ele>188</ele>
        <time>2017-05-17T12:06:14.290</time>
      </trkpt>
      <trkpt lat="48.45192" lon="2.63361">
        <ele>188</ele>
        <time>2017-05-17T12:06:15.292</time>
      </trkpt>
      <trkpt lat="48.45192" lon="2.63361">
        <ele>188</ele>
        <time>2017-05-17T12:06:16.294</time>
      </trkpt>
      <trkpt lat="48.45192" lon="2.63361">
        <ele>188</ele>
        <time>2017-05-17T12:06:17.296</time>
      </trkpt>
      <trkpt lat="48.45192" lon="2.63361">
        <ele>188</ele>
        <time>2017-05-17T12:06:18.315</time>
      </trkpt>
      <trkpt lat="48.45192" lon="2.63361">
        <ele>188</ele>
        <time>2017-05-17T12:06:19.314</time>
      </trkpt>
      <trkpt lat="48.45192" lon="2.63361">
        <ele>188</ele>
        <time>2017-05-17T12:06:20.294</time>
      </trkpt>
      <trkpt lat="48.45192" lon="2.63361">
        <ele>188</ele>
        <time>2017-05-17T12:06:21.288</time>
      </trkpt>
      <trkpt lat="48.45192" lon="2.63361">
        <ele>188</ele>
        <time>2017-05-17T12:06:22.289</time>
      </trkpt>
      <trkpt lat="48.45192" lon="2.63361">
        <ele>188</ele>
        <time>2017-05-17T12:06:23.292</time>
      </trkpt>
      <trkpt lat="48.45192" lon="2.63361">
        <ele>188</ele>
        <time>2017-05-17T12:06:24.293</time>
      </trkpt>
      <trkpt lat="48.45192" lon="2.63361">
        <ele>188</ele>
        <time>2017-05-17T12:06:26.079</time>
      </trkpt>
      <trkpt lat="48.45192" lon="2.63361">
        <ele>188</ele>
        <time>2017-05-17T12:06:26.286</time>
      </trkpt>
      <trkpt lat="48.45192" lon="2.63361">
        <ele>188</ele>
        <time>2017-05-17T12:06:27.290</time>
      </trkpt>
      <trkpt lat="48.45192" lon="2.63361">
        <ele>188</ele>
        <time>2017-05-17T12:06:28.296</time>
      </trkpt>
      <trkpt lat="48.45192" lon="2.63361">
        <ele>188</ele>
        <time>2017-05-17T12:06:29.294</time>
      </trkpt>
      <trkpt lat="48.45192" lon="2.63361">
        <ele>188</ele>
        <time>2017-05-17T12:06:30.283</time>
      </trkpt>
      <trkpt lat="48.45192" lon="2.63361">
        <ele>188</ele>
        <time>2017-05-17T12:06:31.288</time>
      </trkpt>
      <trkpt lat="48.45192" lon="2.63361">
        <ele>188</ele>
        <time>2017-05-17T12:06:32.291</time>
      </trkpt>
      <trkpt lat="48.45192" lon="2.63361">
        <ele>188</ele>
        <time>2017-05-17T12:06:33.292</time>
      </trkpt>
      <trkpt lat="48.45191" lon="2.63362">
        <ele>187</ele>
        <time>2017-05-17T12:06:34.293</time>
      </trkpt>
      <trkpt lat="48.45192" lon="2.63362">
        <ele>187</ele>
        <time>2017-05-17T12:06:35.290</time>
      </trkpt>
      <trkpt lat="48.45192" lon="2.63362">
        <ele>187</ele>
        <time>2017-05-17T12:06:36.281</time>
      </trkpt>
      <trkpt lat="48.45192" lon="2.63362">
        <ele>187</ele>
        <time>2017-05-17T12:06:37.285</time>
      </trkpt>
      <trkpt lat="48.45192" lon="2.63362">
        <ele>187</ele>
        <time>2017-05-17T12:06:38.290</time>
      </trkpt>
      <trkpt lat="48.45191" lon="2.63362">
        <ele>186</ele>
        <time>2017-05-17T12:06:39.293</time>
      </trkpt>
      <trkpt lat="48.45191" lon="2.63362">
        <ele>186</ele>
        <time>2017-05-17T12:06:40.289</time>
      </trkpt>
      <trkpt lat="48.45191" lon="2.63362">
        <ele>186</ele>
        <time>2017-05-17T12:06:41.290</time>
      </trkpt>
      <trkpt lat="48.45191" lon="2.63362">
        <ele>186</ele>
        <time>2017-05-17T12:06:42.292</time>
      </trkpt>
      <trkpt lat="48.45191" lon="2.63362">
        <ele>186</ele>
        <time>2017-05-17T12:06:43.284</time>
      </trkpt>
      <trkpt lat="48.45192" lon="2.63362">
        <ele>186</ele>
        <time>2017-05-17T12:06:44.284</time>
      </trkpt>
      <trkpt lat="48.45192" lon="2.63361">
        <ele>186</ele>
        <time>2017-05-17T12:06:45.288</time>
      </trkpt>
      <trkpt lat="48.45192" lon="2.63362">
        <ele>185</ele>
        <time>2017-05-17T12:06:46.296</time>
      </trkpt>
      <trkpt lat="48.45192" lon="2.63362">
        <ele>185</ele>
        <time>2017-05-17T12:06:47.289</time>
      </trkpt>
      <trkpt lat="48.45192" lon="2.63362">
        <ele>185</ele>
        <time>2017-05-17T12:06:48.308</time>
      </trkpt>
      <trkpt lat="48.45192" lon="2.63362">
        <ele>185</ele>
        <time>2017-05-17T12:06:49.330</time>
      </trkpt>
      <trkpt lat="48.45192" lon="2.63362">
        <ele>185</ele>
        <time>2017-05-17T12:06:50.291</time>
      </trkpt>
      <trkpt lat="48.45192" lon="2.63362">
        <ele>185</ele>
        <time>2017-05-17T12:06:51.286</time>
      </trkpt>
      <trkpt lat="48.45192" lon="2.63362">
        <ele>185</ele>
        <time>2017-05-17T12:06:52.284</time>
      </trkpt>
      <trkpt lat="48.45192" lon="2.63362">
        <ele>185</ele>
        <time>2017-05-17T12:06:53.288</time>
      </trkpt>
      <trkpt lat="48.45192" lon="2.63362">
        <ele>185</ele>
        <time>2017-05-17T12:06:54.286</time>
      </trkpt>
      <trkpt lat="48.45192" lon="2.63362">
        <ele>185</ele>
        <time>2017-05-17T12:06:55.289</time>
      </trkpt>
      <trkpt lat="48.45192" lon="2.63362">
        <ele>185</ele>
        <time>2017-05-17T12:06:56.286</time>
      </trkpt>
      <trkpt lat="48.45192" lon="2.63362">
        <ele>185</ele>
        <time>2017-05-17T12:06:57.288</time>
      </trkpt>
      <trkpt lat="48.45192" lon="2.63362">
        <ele>185</ele>
        <time>2017-05-17T12:06:58.287</time>
      </trkpt>
      <trkpt lat="48.45192" lon="2.63362">
        <ele>185</ele>
        <time>2017-05-17T12:06:59.283</time>
      </trkpt>
      <trkpt lat="48.45192" lon="2.63362">
        <ele>185</ele>
        <time>2017-05-17T12:07:00.289</time>
      </trkpt>
      <trkpt lat="48.45192" lon="2.63362">
        <ele>185</ele>
        <time>2017-05-17T12:07:01.288</time>
      </trkpt>
      <trkpt lat="48.45192" lon="2.63362">
        <ele>185</ele>
        <time>2017-05-17T12:07:02.281</time>
      </trkpt>
      <trkpt lat="48.45192" lon="2.63362">
        <ele>185</ele>
        <time>2017-05-17T12:07:03.280</time>
      </trkpt>
      <trkpt lat="48.45192" lon="2.63362">
        <ele>185</ele>
        <time>2017-05-17T12:07:04.281</time>
      </trkpt>
      <trkpt lat="48.45192" lon="2.63362">
        <ele>185</ele>
        <time>2017-05-17T12:07:05.285</time>
      </trkpt>
      <trkpt lat="48.45192" lon="2.63362">
        <ele>185</ele>
        <time>2017-05-17T12:07:06.281</time>
      </trkpt>
      <trkpt lat="48.45192" lon="2.63362">
        <ele>185</ele>
        <time>2017-05-17T12:07:07.281</time>
      </trkpt>
      <trkpt lat="48.45192" lon="2.63361">
        <ele>185</ele>
        <time>2017-05-17T12:07:08.290</time>
      </trkpt>
      <trkpt lat="48.45192" lon="2.63362">
        <ele>185</ele>
        <time>2017-05-17T12:07:09.286</time>
      </trkpt>
      <trkpt lat="48.45192" lon="2.63362">
        <ele>185</ele>
        <time>2017-05-17T12:07:10.341</time>
      </trkpt>
      <trkpt lat="48.45192" lon="2.63362">
        <ele>185</ele>
        <time>2017-05-17T12:07:11.327</time>
      </trkpt>
      <trkpt lat="48.45192" lon="2.63362">
        <ele>185</ele>
        <time>2017-05-17T12:07:12.287</time>
      </trkpt>
      <trkpt lat="48.45192" lon="2.63362">
        <ele>185</ele>
        <time>2017-05-17T12:07:13.293</time>
      </trkpt>
      <trkpt lat="48.45192" lon="2.63362">
        <ele>185</ele>
        <time>2017-05-17T12:07:14.291</time>
      </trkpt>
      <trkpt lat="48.45192" lon="2.63362">
        <ele>185</ele>
        <time>2017-05-17T12:07:15.287</time>
      </trkpt>
      <trkpt lat="48.45192" lon="2.63362">
        <ele>185</ele>
        <time>2017-05-17T12:07:16.283</time>
      </trkpt>
      <trkpt lat="48.45192" lon="2.63362">
        <ele>185</ele>
        <time>2017-05-17T12:07:17.292</time>
      </trkpt>
      <trkpt lat="48.45192" lon="2.63362">
        <ele>186</ele>
        <time>2017-05-17T12:07:18.306</time>
      </trkpt>
      <trkpt lat="48.45192" lon="2.63362">
        <ele>186</ele>
        <time>2017-05-17T12:07:19.308</time>
      </trkpt>
      <trkpt lat="48.45192" lon="2.63362">
        <ele>186</ele>
        <time>2017-05-17T12:07:20.288</time>
      </trkpt>
      <trkpt lat="48.45192" lon="2.63361">
        <ele>186</ele>
        <time>2017-05-17T12:07:21.288</time>
      </trkpt>
      <trkpt lat="48.45192" lon="2.63361">
        <ele>186</ele>
        <time>2017-05-17T12:07:22.294</time>
      </trkpt>
      <trkpt lat="48.45192" lon="2.63361">
        <ele>186</ele>
        <time>2017-05-17T12:07:23.288</time>
      </trkpt>
      <trkpt lat="48.45192" lon="2.63362">
        <ele>186</ele>
        <time>2017-05-17T12:07:24.283</time>
      </trkpt>
      <trkpt lat="48.45192" lon="2.63362">
        <ele>186</ele>
        <time>2017-05-17T12:07:25.287</time>
      </trkpt>
      <trkpt lat="48.45192" lon="2.63362">
        <ele>186</ele>
        <time>2017-05-17T12:07:26.292</time>
      </trkpt>
      <trkpt lat="48.45192" lon="2.63362">
        <ele>186</ele>
        <time>2017-05-17T12:07:27.293</time>
      </trkpt>
      <trkpt lat="48.45192" lon="2.63362">
        <ele>186</ele>
        <time>2017-05-17T12:07:28.304</time>
      </trkpt>
      <trkpt lat="48.45192" lon="2.63362">
        <ele>186</ele>
        <time>2017-05-17T12:07:29.291</time>
      </trkpt>
      <trkpt lat="48.45192" lon="2.63362">
        <ele>186</ele>
        <time>2017-05-17T12:07:30.288</time>
      </trkpt>
      <trkpt lat="48.45192" lon="2.63362">
        <ele>186</ele>
        <time>2017-05-17T12:07:31.293</time>
      </trkpt>
      <trkpt lat="48.45191" lon="2.63362">
        <ele>185</ele>
        <time>2017-05-17T12:07:32.288</time>
      </trkpt>
      <trkpt lat="48.45191" lon="2.63362">
        <ele>185</ele>
        <time>2017-05-17T12:07:33.288</time>
      </trkpt>
      <trkpt lat="48.45191" lon="2.63362">
        <ele>186</ele>
        <time>2017-05-17T12:07:34.292</time>
      </trkpt>
      <trkpt lat="48.45192" lon="2.63362">
        <ele>185</ele>
        <time>2017-05-17T12:07:35.295</time>
      </trkpt>
      <trkpt lat="48.45191" lon="2.63362">
        <ele>185</ele>
        <time>2017-05-17T12:07:36.289</time>
      </trkpt>
      <trkpt lat="48.45192" lon="2.63362">
        <ele>186</ele>
        <time>2017-05-17T12:07:37.285</time>
      </trkpt>
      <trkpt lat="48.45192" lon="2.63362">
        <ele>187</ele>
        <time>2017-05-17T12:07:38.292</time>
      </trkpt>
      <trkpt lat="48.45192" lon="2.63363">
        <ele>186</ele>
        <time>2017-05-17T12:07:39.300</time>
      </trkpt>
      <trkpt lat="48.45192" lon="2.63362">
        <ele>187</ele>
        <time>2017-05-17T12:07:40.292</time>
      </trkpt>
      <trkpt lat="48.45192" lon="2.63362">
        <ele>187</ele>
        <time>2017-05-17T12:07:41.297</time>
      </trkpt>
      <trkpt lat="48.45193" lon="2.63363">
        <ele>186</ele>
        <time>2017-05-17T12:07:42.297</time>
      </trkpt>
      <trkpt lat="48.45193" lon="2.63363">
        <ele>186</ele>
        <time>2017-05-17T12:07:43.288</time>
      </trkpt>
      <trkpt lat="48.45193" lon="2.63364">
        <ele>185</ele>
        <time>2017-05-17T12:07:44.319</time>
      </trkpt>
      <trkpt lat="48.45193" lon="2.63364">
        <ele>186</ele>
        <time>2017-05-17T12:07:45.295</time>
      </trkpt>
      <trkpt lat="48.45193" lon="2.63364">
        <ele>185</ele>
        <time>2017-05-17T12:07:46.293</time>
      </trkpt>
      <trkpt lat="48.45193" lon="2.63364">
        <ele>185</ele>
        <time>2017-05-17T12:07:47.293</time>
      </trkpt>
      <trkpt lat="48.45193" lon="2.63364">
        <ele>186</ele>
        <time>2017-05-17T12:07:48.298</time>
      </trkpt>
      <trkpt lat="48.45193" lon="2.63364">
        <ele>186</ele>
        <time>2017-05-17T12:07:49.294</time>
      </trkpt>
      <trkpt lat="48.45193" lon="2.63364">
        <ele>186</ele>
        <time>2017-05-17T12:07:50.293</time>
      </trkpt>
      <trkpt lat="48.45193" lon="2.63364">
        <ele>186</ele>
        <time>2017-05-17T12:07:51.291</time>
      </trkpt>
      <trkpt lat="48.45193" lon="2.63364">
        <ele>186</ele>
        <time>2017-05-17T12:07:52.290</time>
      </trkpt>
      <trkpt lat="48.45193" lon="2.63364">
        <ele>186</ele>
        <time>2017-05-17T12:07:53.293</time>
      </trkpt>
      <trkpt lat="48.45193" lon="2.63364">
        <ele>186</ele>
        <time>2017-05-17T12:07:54.292</time>
      </trkpt>
      <trkpt lat="48.45193" lon="2.63364">
        <ele>186</ele>
        <time>2017-05-17T12:07:55.294</time>
      </trkpt>
      <trkpt lat="48.45193" lon="2.63364">
        <ele>186</ele>
        <time>2017-05-17T12:07:56.293</time>
      </trkpt>
      <trkpt lat="48.45193" lon="2.63364">
        <ele>186</ele>
        <time>2017-05-17T12:07:57.291</time>
      </trkpt>
      <trkpt lat="48.45193" lon="2.63364">
        <ele>186</ele>
        <time>2017-05-17T12:07:58.287</time>
      </trkpt>
      <trkpt lat="48.45193" lon="2.63364">
        <ele>186</ele>
        <time>2017-05-17T12:07:59.283</time>
      </trkpt>
      <trkpt lat="48.45193" lon="2.63364">
        <ele>186</ele>
        <time>2017-05-17T12:08:00.291</time>
      </trkpt>
      <trkpt lat="48.45193" lon="2.63364">
        <ele>186</ele>
        <time>2017-05-17T12:08:01.290</time>
      </trkpt>
      <trkpt lat="48.45193" lon="2.63364">
        <ele>186</ele>
        <time>2017-05-17T12:08:02.310</time>
      </trkpt>
      <trkpt lat="48.45193" lon="2.63364">
        <ele>186</ele>
        <time>2017-05-17T12:08:03.290</time>
      </trkpt>
      <trkpt lat="48.45193" lon="2.63364">
        <ele>186</ele>
        <time>2017-05-17T12:08:04.300</time>
      </trkpt>
      <trkpt lat="48.45193" lon="2.63364">
        <ele>186</ele>
        <time>2017-05-17T12:08:05.300</time>
      </trkpt>
      <trkpt lat="48.45193" lon="2.63364">
        <ele>186</ele>
        <time>2017-05-17T12:08:06.300</time>
      </trkpt>
      <trkpt lat="48.45193" lon="2.63364">
        <ele>186</ele>
        <time>2017-05-17T12:08:07.295</time>
      </trkpt>
      <trkpt lat="48.45193" lon="2.63364">
        <ele>186</ele>
        <time>2017-05-17T12:08:08.300</time>
      </trkpt>
      <trkpt lat="48.45193" lon="2.63364">
        <ele>186</ele>
        <time>2017-05-17T12:08:09.296</time>
      </trkpt>
      <trkpt lat="48.45193" lon="2.63364">
        <ele>186</ele>
        <time>2017-05-17T12:08:10.297</time>
      </trkpt>
      <trkpt lat="48.45193" lon="2.63364">
        <ele>186</ele>
        <time>2017-05-17T12:08:11.296</time>
      </trkpt>
      <trkpt lat="48.45193" lon="2.63364">
        <ele>186</ele>
        <time>2017-05-17T12:08:12.290</time>
      </trkpt>
      <trkpt lat="48.45193" lon="2.63364">
        <ele>186</ele>
        <time>2017-05-17T12:08:13.294</time>
      </trkpt>
      <trkpt lat="48.45193" lon="2.63364">
        <ele>186</ele>
        <time>2017-05-17T12:08:14.299</time>
      </trkpt>
      <trkpt lat="48.45193" lon="2.63364">
        <ele>186</ele>
        <time>2017-05-17T12:08:15.292</time>
      </trkpt>
      <trkpt lat="48.45193" lon="2.63364">
        <ele>186</ele>
        <time>2017-05-17T12:08:16.290</time>
      </trkpt>
      <trkpt lat="48.45193" lon="2.63364">
        <ele>186</ele>
        <time>2017-05-17T12:08:17.292</time>
      </trkpt>
      <trkpt lat="48.45193" lon="2.63364">
        <ele>186</ele>
        <time>2017-05-17T12:08:18.297</time>
      </trkpt>
      <trkpt lat="48.45193" lon="2.63364">
        <ele>186</ele>
        <time>2017-05-17T12:08:19.301</time>
      </trkpt>
      <trkpt lat="48.45193" lon="2.63364">
        <ele>186</ele>
        <time>2017-05-17T12:08:20.297</time>
      </trkpt>
      <trkpt lat="48.45193" lon="2.63364">
        <ele>186</ele>
        <time>2017-05-17T12:08:21.316</time>
      </trkpt>
      <trkpt lat="48.45193" lon="2.63364">
        <ele>186</ele>
        <time>2017-05-17T12:08:22.298</time>
      </trkpt>
      <trkpt lat="48.45193" lon="2.63364">
        <ele>186</ele>
        <time>2017-05-17T12:08:23.291</time>
      </trkpt>
      <trkpt lat="48.45193" lon="2.63364">
        <ele>186</ele>
        <time>2017-05-17T12:08:24.296</time>
      </trkpt>
      <trkpt lat="48.45193" lon="2.63364">
        <ele>186</ele>
        <time>2017-05-17T12:08:25.297</time>
      </trkpt>
      <trkpt lat="48.45193" lon="2.63364">
        <ele>186</ele>
        <time>2017-05-17T12:08:26.298</time>
      </trkpt>
      <trkpt lat="48.45193" lon="2.63364">
        <ele>186</ele>
        <time>2017-05-17T12:08:27.293</time>
      </trkpt>
      <trkpt lat="48.45193" lon="2.63364">
        <ele>186</ele>
        <time>2017-05-17T12:08:28.293</time>
      </trkpt>
      <trkpt lat="48.45193" lon="2.63364">
        <ele>186</ele>
        <time>2017-05-17T12:08:29.297</time>
      </trkpt>
      <trkpt lat="48.45193" lon="2.63364">
        <ele>186</ele>
        <time>2017-05-17T12:08:30.299</time>
      </trkpt>
      <trkpt lat="48.45193" lon="2.63364">
        <ele>186</ele>
        <time>2017-05-17T12:08:31.289</time>
      </trkpt>
      <trkpt lat="48.45193" lon="2.63364">
        <ele>186</ele>
        <time>2017-05-17T12:08:32.295</time>
      </trkpt>
      <trkpt lat="48.45193" lon="2.63364">
        <ele>186</ele>
        <time>2017-05-17T12:08:33.299</time>
      </trkpt>
      <trkpt lat="48.45193" lon="2.63364">
        <ele>186</ele>
        <time>2017-05-17T12:08:34.306</time>
      </trkpt>
      <trkpt lat="48.45193" lon="2.63364">
        <ele>186</ele>
        <time>2017-05-17T12:08:35.302</time>
      </trkpt>
      <trkpt lat="48.45193" lon="2.63364">
        <ele>186</ele>
        <time>2017-05-17T12:08:36.301</time>
      </trkpt>
      <trkpt lat="48.45193" lon="2.63364">
        <ele>186</ele>
        <time>2017-05-17T12:08:37.308</time>
      </trkpt>
      <trkpt lat="48.45193" lon="2.63364">
        <ele>186</ele>
        <time>2017-05-17T12:08:38.297</time>
      </trkpt>
      <trkpt lat="48.45193" lon="2.63364">
        <ele>186</ele>
        <time>2017-05-17T12:08:39.300</time>
      </trkpt>
      <trkpt lat="48.45194" lon="2.63365">
        <ele>187</ele>
        <time>2017-05-17T12:08:40.301</time>
      </trkpt>
      <trkpt lat="48.45193" lon="2.63366">
        <ele>187</ele>
        <time>2017-05-17T12:08:41.301</time>
      </trkpt>
      <trkpt lat="48.45193" lon="2.63366">
        <ele>187</ele>
        <time>2017-05-17T12:08:42.307</time>
      </trkpt>
      <trkpt lat="48.45194" lon="2.63367">
        <ele>187</ele>
        <time>2017-05-17T12:08:43.340</time>
      </trkpt>
      <trkpt lat="48.45194" lon="2.63367">
        <ele>187</ele>
        <time>2017-05-17T12:08:44.309</time>
      </trkpt>
      <trkpt lat="48.45195" lon="2.63367">
        <ele>187</ele>
        <time>2017-05-17T12:08:45.292</time>
      </trkpt>
      <trkpt lat="48.45195" lon="2.63368">
        <ele>187</ele>
        <time>2017-05-17T12:08:46.294</time>
      </trkpt>
      <trkpt lat="48.45196" lon="2.63368">
        <ele>186</ele>
        <time>2017-05-17T12:08:47.294</time>
      </trkpt>
      <trkpt lat="48.45196" lon="2.63369">
        <ele>186</ele>
        <time>2017-05-17T12:08:48.295</time>
      </trkpt>
      <trkpt lat="48.45197" lon="2.63369">
        <ele>186</ele>
        <time>2017-05-17T12:08:49.302</time>
      </trkpt>
      <trkpt lat="48.45197" lon="2.63369">
        <ele>185</ele>
        <time>2017-05-17T12:08:50.301</time>
      </trkpt>
      <trkpt lat="48.45197" lon="2.6337">
        <ele>185</ele>
        <time>2017-05-17T12:08:51.299</time>
      </trkpt>
      <trkpt lat="48.45197" lon="2.6337">
        <ele>185</ele>
        <time>2017-05-17T12:08:52.296</time>
      </trkpt>
      <trkpt lat="48.45197" lon="2.6337">
        <ele>185</ele>
        <time>2017-05-17T12:08:53.297</time>
      </trkpt>
      <trkpt lat="48.45197" lon="2.6337">
        <ele>186</ele>
        <time>2017-05-17T12:08:54.299</time>
      </trkpt>
      <trkpt lat="48.45198" lon="2.6337">
        <ele>186</ele>
        <time>2017-05-17T12:08:55.292</time>
      </trkpt>
      <trkpt lat="48.45198" lon="2.6337">
        <ele>186</ele>
        <time>2017-05-17T12:08:56.293</time>
      </trkpt>
      <trkpt lat="48.45198" lon="2.6337">
        <ele>186</ele>
        <time>2017-05-17T12:08:57.298</time>
      </trkpt>
      <trkpt lat="48.45198" lon="2.6337">
        <ele>186</ele>
        <time>2017-05-17T12:08:58.303</time>
      </trkpt>
      <trkpt lat="48.45198" lon="2.6337">
        <ele>186</ele>
        <time>2017-05-17T12:08:59.299</time>
      </trkpt>
      <trkpt lat="48.45198" lon="2.63369">
        <ele>186</ele>
        <time>2017-05-17T12:09:00.296</time>
      </trkpt>
      <trkpt lat="48.45198" lon="2.63369">
        <ele>186</ele>
        <time>2017-05-17T12:09:02.129</time>
      </trkpt>
      <trkpt lat="48.45198" lon="2.63369">
        <ele>186</ele>
        <time>2017-05-17T12:09:02.419</time>
      </trkpt>
      <trkpt lat="48.45198" lon="2.63369">
        <ele>186</ele>
        <time>2017-05-17T12:09:03.290</time>
      </trkpt>
      <trkpt lat="48.45198" lon="2.63369">
        <ele>186</ele>
        <time>2017-05-17T12:09:04.288</time>
      </trkpt>
      <trkpt lat="48.452" lon="2.63369">
        <ele>185</ele>
        <time>2017-05-17T12:09:05.293</time>
      </trkpt>
      <trkpt lat="48.452" lon="2.63368">
        <ele>185</ele>
        <time>2017-05-17T12:09:06.292</time>
      </trkpt>
      <trkpt lat="48.45201" lon="2.63368">
        <ele>185</ele>
        <time>2017-05-17T12:09:07.293</time>
      </trkpt>
      <trkpt lat="48.45201" lon="2.63367">
        <ele>183</ele>
        <time>2017-05-17T12:09:08.295</time>
      </trkpt>
      <trkpt lat="48.45201" lon="2.63367">
        <ele>183</ele>
        <time>2017-05-17T12:09:09.297</time>
      </trkpt>
      <trkpt lat="48.45201" lon="2.63367">
        <ele>182</ele>
        <time>2017-05-17T12:09:10.300</time>
      </trkpt>
      <trkpt lat="48.45201" lon="2.63367">
        <ele>183</ele>
        <time>2017-05-17T12:09:11.292</time>
      </trkpt>
      <trkpt lat="48.45202" lon="2.63367">
        <ele>183</ele>
        <time>2017-05-17T12:09:12.287</time>
      </trkpt>
      <trkpt lat="48.45203" lon="2.63366">
        <ele>183</ele>
        <time>2017-05-17T12:09:13.291</time>
      </trkpt>
      <trkpt lat="48.45203" lon="2.63366">
        <ele>183</ele>
        <time>2017-05-17T12:09:14.300</time>
      </trkpt>
      <trkpt lat="48.45204" lon="2.63366">
        <ele>184</ele>
        <time>2017-05-17T12:09:15.298</time>
      </trkpt>
      <trkpt lat="48.45205" lon="2.63366">
        <ele>184</ele>
        <time>2017-05-17T12:09:16.296</time>
      </trkpt>
      <trkpt lat="48.45204" lon="2.63365">
        <ele>184</ele>
        <time>2017-05-17T12:09:17.295</time>
      </trkpt>
      <trkpt lat="48.45204" lon="2.63365">
        <ele>183</ele>
        <time>2017-05-17T12:09:18.306</time>
      </trkpt>
      <trkpt lat="48.45205" lon="2.63366">
        <ele>185</ele>
        <time>2017-05-17T12:09:19.302</time>
      </trkpt>
      <trkpt lat="48.45205" lon="2.63366">
        <ele>185</ele>
        <time>2017-05-17T12:09:20.287</time>
      </trkpt>
      <trkpt lat="48.45205" lon="2.63366">
        <ele>185</ele>
        <time>2017-05-17T12:09:21.294</time>
      </trkpt>
      <trkpt lat="48.45205" lon="2.63365">
        <ele>185</ele>
        <time>2017-05-17T12:09:22.297</time>
      </trkpt>
      <trkpt lat="48.45204" lon="2.63367">
        <ele>184</ele>
        <time>2017-05-17T12:09:23.293</time>
      </trkpt>
      <trkpt lat="48.45205" lon="2.63366">
        <ele>184</ele>
        <time>2017-05-17T12:09:24.296</time>
      </trkpt>
      <trkpt lat="48.45205" lon="2.63366">
        <ele>184</ele>
        <time>2017-05-17T12:09:25.297</time>
      </trkpt>
      <trkpt lat="48.45205" lon="2.63365">
        <ele>184</ele>
        <time>2017-05-17T12:09:26.297</time>
      </trkpt>
      <trkpt lat="48.45205" lon="2.63365">
        <ele>184</ele>
        <time>2017-05-17T12:09:27.293</time>
      </trkpt>
      <trkpt lat="48.45205" lon="2.63365">
        <ele>184</ele>
        <time>2017-05-17T12:09:28.292</time>
      </trkpt>
      <trkpt lat="48.45205" lon="2.63365">
        <ele>184</ele>
        <time>2017-05-17T12:09:29.293</time>
      </trkpt>
      <trkpt lat="48.45205" lon="2.63364">
        <ele>184</ele>
        <time>2017-05-17T12:09:30.295</time>
      </trkpt>
      <trkpt lat="48.45204" lon="2.63365">
        <ele>183</ele>
        <time>2017-05-17T12:09:31.291</time>
      </trkpt>
      <trkpt lat="48.45204" lon="2.63365">
        <ele>183</ele>
        <time>2017-05-17T12:09:32.292</time>
      </trkpt>
      <trkpt lat="48.45204" lon="2.63365">
        <ele>183</ele>
        <time>2017-05-17T12:09:33.293</time>
      </trkpt>
      <trkpt lat="48.45205" lon="2.63365">
        <ele>183</ele>
        <time>2017-05-17T12:09:34.296</time>
      </trkpt>
      <trkpt lat="48.45205" lon="2.63365">
        <ele>183</ele>
        <time>2017-05-17T12:09:35.296</time>
      </trkpt>
      <trkpt lat="48.45205" lon="2.63364">
        <ele>183</ele>
        <time>2017-05-17T12:09:36.292</time>
      </trkpt>
      <trkpt lat="48.45205" lon="2.63364">
        <ele>183</ele>
        <time>2017-05-17T12:09:37.291</time>
      </trkpt>
      <trkpt lat="48.45205" lon="2.63364">
        <ele>183</ele>
        <time>2017-05-17T12:09:38.289</time>
      </trkpt>
      <trkpt lat="48.45205" lon="2.63364">
        <ele>183</ele>
        <time>2017-05-17T12:09:39.296</time>
      </trkpt>
      <trkpt lat="48.45205" lon="2.63364">
        <ele>183</ele>
        <time>2017-05-17T12:09:40.297</time>
      </trkpt>
      <trkpt lat="48.45205" lon="2.63364">
        <ele>183</ele>
        <time>2017-05-17T12:09:41.297</time>
      </trkpt>
      <trkpt lat="48.45205" lon="2.63364">
        <ele>183</ele>
        <time>2017-05-17T12:09:42.297</time>
      </trkpt>
      <trkpt lat="48.45205" lon="2.63364">
        <ele>183</ele>
        <time>2017-05-17T12:09:43.290</time>
      </trkpt>
      <trkpt lat="48.45205" lon="2.63363">
        <ele>183</ele>
        <time>2017-05-17T12:09:44.291</time>
      </trkpt>
      <trkpt lat="48.45205" lon="2.63364">
        <ele>183</ele>
        <time>2017-05-17T12:09:45.293</time>
      </trkpt>
      <trkpt lat="48.45205" lon="2.63364">
        <ele>183</ele>
        <time>2017-05-17T12:09:46.298</time>
      </trkpt>
      <trkpt lat="48.45205" lon="2.63364">
        <ele>183</ele>
        <time>2017-05-17T12:09:47.299</time>
      </trkpt>
      <trkpt lat="48.45205" lon="2.63364">
        <ele>183</ele>
        <time>2017-05-17T12:09:48.306</time>
      </trkpt>
      <trkpt lat="48.45205" lon="2.63364">
        <ele>183</ele>
        <time>2017-05-17T12:09:49.333</time>
      </trkpt>
      <trkpt lat="48.45205" lon="2.63364">
        <ele>183</ele>
        <time>2017-05-17T12:09:50.296</time>
      </trkpt>
      <trkpt lat="48.45205" lon="2.63364">
        <ele>183</ele>
        <time>2017-05-17T12:09:51.293</time>
      </trkpt>
      <trkpt lat="48.45204" lon="2.63366">
        <ele>179</ele>
        <time>2017-05-17T12:09:52.292</time>
      </trkpt>
      <trkpt lat="48.45204" lon="2.63368">
        <ele>178</ele>
        <time>2017-05-17T12:09:53.294</time>
      </trkpt>
      <trkpt lat="48.45204" lon="2.63367">
        <ele>179</ele>
        <time>2017-05-17T12:09:54.297</time>
      </trkpt>
      <trkpt lat="48.45204" lon="2.63367">
        <ele>179</ele>
        <time>2017-05-17T12:09:55.290</time>
      </trkpt>
      <trkpt lat="48.45204" lon="2.63367">
        <ele>179</ele>
        <time>2017-05-17T12:09:56.293</time>
      </trkpt>
      <trkpt lat="48.45204" lon="2.63366">
        <ele>180</ele>
        <time>2017-05-17T12:09:57.295</time>
      </trkpt>
      <trkpt lat="48.45204" lon="2.63366">
        <ele>180</ele>
        <time>2017-05-17T12:09:58.300</time>
      </trkpt>
      <trkpt lat="48.45204" lon="2.63366">
        <ele>180</ele>
        <time>2017-05-17T12:09:59.298</time>
      </trkpt>
      <trkpt lat="48.45205" lon="2.63365">
        <ele>181</ele>
        <time>2017-05-17T12:10:00.290</time>
      </trkpt>
      <trkpt lat="48.45204" lon="2.63365">
        <ele>180</ele>
        <time>2017-05-17T12:10:01.287</time>
      </trkpt>
      <trkpt lat="48.45204" lon="2.63365">
        <ele>180</ele>
        <time>2017-05-17T12:10:02.294</time>
      </trkpt>
      <trkpt lat="48.45204" lon="2.63365">
        <ele>180</ele>
        <time>2017-05-17T12:10:03.297</time>
      </trkpt>
      <trkpt lat="48.45204" lon="2.63365">
        <ele>180</ele>
        <time>2017-05-17T12:10:04.299</time>
      </trkpt>
      <trkpt lat="48.45204" lon="2.63365">
        <ele>180</ele>
        <time>2017-05-17T12:10:05.297</time>
      </trkpt>
      <trkpt lat="48.45204" lon="2.63365">
        <ele>181</ele>
        <time>2017-05-17T12:10:06.296</time>
      </trkpt>
      <trkpt lat="48.45204" lon="2.63365">
        <ele>180</ele>
        <time>2017-05-17T12:10:07.290</time>
      </trkpt>
      <trkpt lat="48.45204" lon="2.63365">
        <ele>181</ele>
        <time>2017-05-17T12:10:08.289</time>
      </trkpt>
      <trkpt lat="48.45204" lon="2.63365">
        <ele>181</ele>
        <time>2017-05-17T12:10:09.294</time>
      </trkpt>
      <trkpt lat="48.45204" lon="2.63365">
        <ele>181</ele>
        <time>2017-05-17T12:10:10.296</time>
      </trkpt>
      <trkpt lat="48.45204" lon="2.63365">
        <ele>181</ele>
        <time>2017-05-17T12:10:11.292</time>
      </trkpt>
      <trkpt lat="48.45204" lon="2.63365">
        <ele>181</ele>
        <time>2017-05-17T12:10:12.294</time>
      </trkpt>
      <trkpt lat="48.45204" lon="2.63365">
        <ele>181</ele>
        <time>2017-05-17T12:10:13.296</time>
      </trkpt>
      <trkpt lat="48.45204" lon="2.63365">
        <ele>181</ele>
        <time>2017-05-17T12:10:14.294</time>
      </trkpt>
      <trkpt lat="48.45205" lon="2.63365">
        <ele>180</ele>
        <time>2017-05-17T12:10:15.288</time>
      </trkpt>
      <trkpt lat="48.45205" lon="2.63362">
        <ele>182</ele>
        <time>2017-05-17T12:10:16.288</time>
      </trkpt>
      <trkpt lat="48.45204" lon="2.63362">
        <ele>182</ele>
        <time>2017-05-17T12:10:17.289</time>
      </trkpt>
      <trkpt lat="48.45205" lon="2.63362">
        <ele>182</ele>
        <time>2017-05-17T12:10:18.299</time>
      </trkpt>
      <trkpt lat="48.45205" lon="2.63362">
        <ele>182</ele>
        <time>2017-05-17T12:10:19.298</time>
      </trkpt>
      <trkpt lat="48.45206" lon="2.63362">
        <ele>183</ele>
        <time>2017-05-17T12:10:20.294</time>
      </trkpt>
      <trkpt lat="48.45206" lon="2.63362">
        <ele>182</ele>
        <time>2017-05-17T12:10:21.296</time>
      </trkpt>
      <trkpt lat="48.45205" lon="2.63363">
        <ele>183</ele>
        <time>2017-05-17T12:10:22.320</time>
      </trkpt>
      <trkpt lat="48.45206" lon="2.63363">
        <ele>182</ele>
        <time>2017-05-17T12:10:23.294</time>
      </trkpt>
      <trkpt lat="48.45206" lon="2.63362">
        <ele>182</ele>
        <time>2017-05-17T12:10:24.296</time>
      </trkpt>
      <trkpt lat="48.45206" lon="2.63363">
        <ele>182</ele>
        <time>2017-05-17T12:10:25.289</time>
      </trkpt>
      <trkpt lat="48.45206" lon="2.63363">
        <ele>182</ele>
        <time>2017-05-17T12:10:26.286</time>
      </trkpt>
      <trkpt lat="48.45206" lon="2.63363">
        <ele>182</ele>
        <time>2017-05-17T12:10:27.287</time>
      </trkpt>
      <trkpt lat="48.45206" lon="2.63363">
        <ele>182</ele>
        <time>2017-05-17T12:10:28.299</time>
      </trkpt>
      <trkpt lat="48.45205" lon="2.63363">
        <ele>182</ele>
        <time>2017-05-17T12:10:29.300</time>
      </trkpt>
      <trkpt lat="48.45205" lon="2.63363">
        <ele>183</ele>
        <time>2017-05-17T12:10:30.289</time>
      </trkpt>
      <trkpt lat="48.45205" lon="2.63363">
        <ele>183</ele>
        <time>2017-05-17T12:10:31.284</time>
      </trkpt>
      <trkpt lat="48.45205" lon="2.63363">
        <ele>183</ele>
        <time>2017-05-17T12:10:32.291</time>
      </trkpt>
      <trkpt lat="48.45205" lon="2.63363">
        <ele>183</ele>
        <time>2017-05-17T12:10:33.296</time>
      </trkpt>
      <trkpt lat="48.45205" lon="2.63363">
        <ele>183</ele>
        <time>2017-05-17T12:10:34.298</time>
      </trkpt>
      <trkpt lat="48.45205" lon="2.63363">
        <ele>183</ele>
        <time>2017-05-17T12:10:35.292</time>
      </trkpt>
      <trkpt lat="48.45205" lon="2.63363">
        <ele>183</ele>
        <time>2017-05-17T12:10:36.298</time>
      </trkpt>
      <trkpt lat="48.45205" lon="2.63363">
        <ele>183</ele>
        <time>2017-05-17T12:10:37.296</time>
      </trkpt>
      <trkpt lat="48.45205" lon="2.63363">
        <ele>183</ele>
        <time>2017-05-17T12:10:38.291</time>
      </trkpt>
      <trkpt lat="48.45205" lon="2.63363">
        <ele>183</ele>
        <time>2017-05-17T12:10:39.294</time>
      </trkpt>
      <trkpt lat="48.45205" lon="2.63363">
        <ele>183</ele>
        <time>2017-05-17T12:10:40.295</time>
      </trkpt>
      <trkpt lat="48.45205" lon="2.63363">
        <ele>183</ele>
        <time>2017-05-17T12:10:41.294</time>
      </trkpt>
      <trkpt lat="48.45205" lon="2.63363">
        <ele>183</ele>
        <time>2017-05-17T12:10:42.293</time>
      </trkpt>
      <trkpt lat="48.45205" lon="2.63363">
        <ele>183</ele>
        <time>2017-05-17T12:10:43.292</time>
      </trkpt>
      <trkpt lat="48.45205" lon="2.63363">
        <ele>183</ele>
        <time>2017-05-17T12:10:44.298</time>
      </trkpt>
      <trkpt lat="48.45205" lon="2.63363">
        <ele>183</ele>
        <time>2017-05-17T12:10:45.294</time>
      </trkpt>
      <trkpt lat="48.45205" lon="2.63363">
        <ele>183</ele>
        <time>2017-05-17T12:10:46.293</time>
      </trkpt>
      <trkpt lat="48.45205" lon="2.63363">
        <ele>183</ele>
        <time>2017-05-17T12:10:47.296</time>
      </trkpt>
      <trkpt lat="48.45205" lon="2.63363">
        <ele>183</ele>
        <time>2017-05-17T12:10:48.301</time>
      </trkpt>
      <trkpt lat="48.45205" lon="2.63363">
        <ele>183</ele>
        <time>2017-05-17T12:10:49.298</time>
      </trkpt>
      <trkpt lat="48.45205" lon="2.63363">
        <ele>183</ele>
        <time>2017-05-17T12:10:50.289</time>
      </trkpt>
      <trkpt lat="48.45205" lon="2.63363">
        <ele>183</ele>
        <time>2017-05-17T12:10:51.288</time>
      </trkpt>
      <trkpt lat="48.45205" lon="2.63363">
        <ele>183</ele>
        <time>2017-05-17T12:10:52.289</time>
      </trkpt>
      <trkpt lat="48.45205" lon="2.63363">
        <ele>183</ele>
        <time>2017-05-17T12:10:53.296</time>
      </trkpt>
      <trkpt lat="48.45205" lon="2.63363">
        <ele>183</ele>
        <time>2017-05-17T12:10:54.299</time>
      </trkpt>
      <trkpt lat="48.45205" lon="2.63363">
        <ele>183</ele>
        <time>2017-05-17T12:10:55.313</time>
      </trkpt>
      <trkpt lat="48.45205" lon="2.63363">
        <ele>183</ele>
        <time>2017-05-17T12:10:56.298</time>
      </trkpt>
      <trkpt lat="48.45205" lon="2.63363">
        <ele>183</ele>
        <time>2017-05-17T12:10:57.298</time>
      </trkpt>
      <trkpt lat="48.45205" lon="2.63363">
        <ele>183</ele>
        <time>2017-05-17T12:10:58.291</time>
      </trkpt>
      <trkpt lat="48.45205" lon="2.63363">
        <ele>183</ele>
        <time>2017-05-17T12:10:59.296</time>
      </trkpt>
      <trkpt lat="48.45205" lon="2.63363">
        <ele>183</ele>
        <time>2017-05-17T12:11:00.881</time>
      </trkpt>
      <trkpt lat="48.45205" lon="2.63363">
        <ele>183</ele>
        <time>2017-05-17T12:11:01.297</time>
      </trkpt>
      <trkpt lat="48.45205" lon="2.63363">
        <ele>183</ele>
        <time>2017-05-17T12:11:02.300</time>
      </trkpt>
      <trkpt lat="48.45205" lon="2.63363">
        <ele>183</ele>
        <time>2017-05-17T12:11:03.296</time>
      </trkpt>
      <trkpt lat="48.45205" lon="2.63363">
        <ele>183</ele>
        <time>2017-05-17T12:11:04.300</time>
      </trkpt>
      <trkpt lat="48.45205" lon="2.63363">
        <ele>183</ele>
        <time>2017-05-17T12:11:05.299</time>
      </trkpt>
      <trkpt lat="48.45205" lon="2.63363">
        <ele>183</ele>
        <time>2017-05-17T12:11:06.295</time>
      </trkpt>
      <trkpt lat="48.45205" lon="2.63363">
        <ele>183</ele>
        <time>2017-05-17T12:11:07.288</time>
      </trkpt>
      <trkpt lat="48.45205" lon="2.63363">
        <ele>183</ele>
        <time>2017-05-17T12:11:08.294</time>
      </trkpt>
      <trkpt lat="48.45205" lon="2.63363">
        <ele>183</ele>
        <time>2017-05-17T12:11:09.303</time>
      </trkpt>
      <trkpt lat="48.45205" lon="2.63363">
        <ele>183</ele>
        <time>2017-05-17T12:11:10.297</time>
      </trkpt>
      <trkpt lat="48.45205" lon="2.63363">
        <ele>183</ele>
        <time>2017-05-17T12:11:11.297</time>
      </trkpt>
      <trkpt lat="48.45206" lon="2.63363">
        <ele>182</ele>
        <time>2017-05-17T12:11:12.297</time>
      </trkpt>
      <trkpt lat="48.45206" lon="2.63363">
        <ele>182</ele>
        <time>2017-05-17T12:11:13.297</time>
      </trkpt>
      <trkpt lat="48.45206" lon="2.63363">
        <ele>182</ele>
        <time>2017-05-17T12:11:14.303</time>
      </trkpt>
      <trkpt lat="48.45206" lon="2.63363">
        <ele>182</ele>
        <time>2017-05-17T12:11:15.296</time>
      </trkpt>
      <trkpt lat="48.45206" lon="2.63363">
        <ele>182</ele>
        <time>2017-05-17T12:11:16.294</time>
      </trkpt>
      <trkpt lat="48.45206" lon="2.63363">
        <ele>182</ele>
        <time>2017-05-17T12:11:17.301</time>
      </trkpt>
      <trkpt lat="48.45206" lon="2.63363">
        <ele>182</ele>
        <time>2017-05-17T12:11:18.301</time>
      </trkpt>
      <trkpt lat="48.45206" lon="2.63363">
        <ele>182</ele>
        <time>2017-05-17T12:11:19.304</time>
      </trkpt>
      <trkpt lat="48.45206" lon="2.63363">
        <ele>182</ele>
        <time>2017-05-17T12:11:20.299</time>
      </trkpt>
      <trkpt lat="48.45206" lon="2.63363">
        <ele>182</ele>
        <time>2017-05-17T12:11:21.299</time>
      </trkpt>
      <trkpt lat="48.45206" lon="2.63363">
        <ele>182</ele>
        <time>2017-05-17T12:11:22.301</time>
      </trkpt>
      <trkpt lat="48.45206" lon="2.63363">
        <ele>182</ele>
        <time>2017-05-17T12:11:23.299</time>
      </trkpt>
      <trkpt lat="48.45206" lon="2.63363">
        <ele>182</ele>
        <time>2017-05-17T12:11:24.300</time>
      </trkpt>
      <trkpt lat="48.45206" lon="2.63363">
        <ele>182</ele>
        <time>2017-05-17T12:11:25.296</time>
      </trkpt>
      <trkpt lat="48.45206" lon="2.63363">
        <ele>182</ele>
        <time>2017-05-17T12:11:26.294</time>
      </trkpt>
      <trkpt lat="48.45206" lon="2.63363">
        <ele>182</ele>
        <time>2017-05-17T12:11:27.297</time>
      </trkpt>
      <trkpt lat="48.45206" lon="2.63363">
        <ele>182</ele>
        <time>2017-05-17T12:11:28.301</time>
      </trkpt>
      <trkpt lat="48.45206" lon="2.63363">
        <ele>182</ele>
        <time>2017-05-17T12:11:29.301</time>
      </trkpt>
      <trkpt lat="48.45206" lon="2.63363">
        <ele>182</ele>
        <time>2017-05-17T12:11:30.295</time>
      </trkpt>
      <trkpt lat="48.45206" lon="2.63363">
        <ele>182</ele>
        <time>2017-05-17T12:11:31.295</time>
      </trkpt>
      <trkpt lat="48.45206" lon="2.63363">
        <ele>182</ele>
        <time>2017-05-17T12:11:32.294</time>
      </trkpt>
      <trkpt lat="48.45206" lon="2.63363">
        <ele>182</ele>
        <time>2017-05-17T12:11:33.298</time>
      </trkpt>
      <trkpt lat="48.45206" lon="2.63363">
        <ele>182</ele>
        <time>2017-05-17T12:11:34.298</time>
      </trkpt>
      <trkpt lat="48.45206" lon="2.63363">
        <ele>182</ele>
        <time>2017-05-17T12:11:35.295</time>
      </trkpt>
      <trkpt lat="48.45206" lon="2.63363">
        <ele>182</ele>
        <time>2017-05-17T12:11:36.293</time>
      </trkpt>
      <trkpt lat="48.45206" lon="2.63363">
        <ele>182</ele>
        <time>2017-05-17T12:11:37.296</time>
      </trkpt>
      <trkpt lat="48.45206" lon="2.63363">
        <ele>182</ele>
        <time>2017-05-17T12:11:38.299</time>
      </trkpt>
      <trkpt lat="48.45206" lon="2.63363">
        <ele>182</ele>
        <time>2017-05-17T12:11:39.303</time>
      </trkpt>
      <trkpt lat="48.45206" lon="2.63365">
        <ele>182</ele>
        <time>2017-05-17T12:11:40.296</time>
      </trkpt>
      <trkpt lat="48.45205" lon="2.63364">
        <ele>182</ele>
        <time>2017-05-17T12:11:41.296</time>
      </trkpt>
      <trkpt lat="48.45205" lon="2.63364">
        <ele>183</ele>
        <time>2017-05-17T12:11:42.295</time>
      </trkpt>
      <trkpt lat="48.45205" lon="2.63365">
        <ele>182</ele>
        <time>2017-05-17T12:11:43.296</time>
      </trkpt>
      <trkpt lat="48.45205" lon="2.63366">
        <ele>183</ele>
        <time>2017-05-17T12:11:44.297</time>
      </trkpt>
      <trkpt lat="48.45205" lon="2.63366">
        <ele>183</ele>
        <time>2017-05-17T12:11:45.297</time>
      </trkpt>
      <trkpt lat="48.45205" lon="2.63368">
        <ele>182</ele>
        <time>2017-05-17T12:11:46.296</time>
      </trkpt>
      <trkpt lat="48.45205" lon="2.63368">
        <ele>183</ele>
        <time>2017-05-17T12:11:47.295</time>
      </trkpt>
      <trkpt lat="48.45205" lon="2.63369">
        <ele>184</ele>
        <time>2017-05-17T12:11:48.303</time>
      </trkpt>
      <trkpt lat="48.45204" lon="2.6337">
        <ele>184</ele>
        <time>2017-05-17T12:11:49.298</time>
      </trkpt>
      <trkpt lat="48.45204" lon="2.6337">
        <ele>185</ele>
        <time>2017-05-17T12:11:50.293</time>
      </trkpt>
      <trkpt lat="48.45205" lon="2.6337">
        <ele>185</ele>
        <time>2017-05-17T12:11:51.299</time>
      </trkpt>
      <trkpt lat="48.45205" lon="2.6337">
        <ele>185</ele>
        <time>2017-05-17T12:11:52.296</time>
      </trkpt>
      <trkpt lat="48.45204" lon="2.6337">
        <ele>185</ele>
        <time>2017-05-17T12:11:53.297</time>
      </trkpt>
      <trkpt lat="48.45205" lon="2.63369">
        <ele>185</ele>
        <time>2017-05-17T12:11:54.298</time>
      </trkpt>
      <trkpt lat="48.45205" lon="2.63369">
        <ele>185</ele>
        <time>2017-05-17T12:11:55.295</time>
      </trkpt>
      <trkpt lat="48.45205" lon="2.63369">
        <ele>185</ele>
        <time>2017-05-17T12:11:56.297</time>
      </trkpt>
      <trkpt lat="48.45205" lon="2.63369">
        <ele>185</ele>
        <time>2017-05-17T12:11:57.298</time>
      </trkpt>
      <trkpt lat="48.45205" lon="2.63369">
        <ele>185</ele>
        <time>2017-05-17T12:11:58.296</time>
      </trkpt>
      <trkpt lat="48.45205" lon="2.63369">
        <ele>185</ele>
        <time>2017-05-17T12:11:59.296</time>
      </trkpt>
      <trkpt lat="48.45205" lon="2.63369">
        <ele>185</ele>
        <time>2017-05-17T12:12:00.297</time>
      </trkpt>
      <trkpt lat="48.45205" lon="2.63369">
        <ele>186</ele>
        <time>2017-05-17T12:12:01.296</time>
      </trkpt>
      <trkpt lat="48.45205" lon="2.63369">
        <ele>186</ele>
        <time>2017-05-17T12:12:02.295</time>
      </trkpt>
      <trkpt lat="48.45205" lon="2.63369">
        <ele>186</ele>
        <time>2017-05-17T12:12:03.294</time>
      </trkpt>
      <trkpt lat="48.45205" lon="2.63369">
        <ele>186</ele>
        <time>2017-05-17T12:12:04.295</time>
      </trkpt>
      <trkpt lat="48.45205" lon="2.63369">
        <ele>186</ele>
        <time>2017-05-17T12:12:05.296</time>
      </trkpt>
      <trkpt lat="48.45205" lon="2.63369">
        <ele>186</ele>
        <time>2017-05-17T12:12:06.295</time>
      </trkpt>
      <trkpt lat="48.45205" lon="2.6337">
        <ele>186</ele>
        <time>2017-05-17T12:12:07.296</time>
      </trkpt>
      <trkpt lat="48.45205" lon="2.6337">
        <ele>185</ele>
        <time>2017-05-17T12:12:08.300</time>
      </trkpt>
      <trkpt lat="48.45204" lon="2.63369">
        <ele>184</ele>
        <time>2017-05-17T12:12:09.301</time>
      </trkpt>
      <trkpt lat="48.45203" lon="2.63371">
        <ele>183</ele>
        <time>2017-05-17T12:12:10.295</time>
      </trkpt>
      <trkpt lat="48.45204" lon="2.63371">
        <ele>183</ele>
        <time>2017-05-17T12:12:11.297</time>
      </trkpt>
      <trkpt lat="48.45203" lon="2.63371">
        <ele>185</ele>
        <time>2017-05-17T12:12:12.298</time>
      </trkpt>
      <trkpt lat="48.45204" lon="2.63369">
        <ele>187</ele>
        <time>2017-05-17T12:12:13.297</time>
      </trkpt>
      <trkpt lat="48.45201" lon="2.63369">
        <ele>185</ele>
        <time>2017-05-17T12:12:14.297</time>
      </trkpt>
      <trkpt lat="48.45201" lon="2.63368">
        <ele>189</ele>
        <time>2017-05-17T12:12:15.296</time>
      </trkpt>
      <trkpt lat="48.45202" lon="2.63371">
        <ele>191</ele>
        <time>2017-05-17T12:12:16.298</time>
      </trkpt>
      <trkpt lat="48.45201" lon="2.63373">
        <ele>191</ele>
        <time>2017-05-17T12:12:17.297</time>
      </trkpt>
      <trkpt lat="48.45201" lon="2.63376">
        <ele>189</ele>
        <time>2017-05-17T12:12:18.303</time>
      </trkpt>
      <trkpt lat="48.452" lon="2.63374">
        <ele>189</ele>
        <time>2017-05-17T12:12:19.301</time>
      </trkpt>
      <trkpt lat="48.45201" lon="2.63372">
        <ele>191</ele>
        <time>2017-05-17T12:12:20.296</time>
      </trkpt>
      <trkpt lat="48.45203" lon="2.63371">
        <ele>192</ele>
        <time>2017-05-17T12:12:21.298</time>
      </trkpt>
      <trkpt lat="48.45203" lon="2.6337">
        <ele>192</ele>
        <time>2017-05-17T12:12:22.297</time>
      </trkpt>
      <trkpt lat="48.45205" lon="2.6337">
        <ele>194</ele>
        <time>2017-05-17T12:12:23.294</time>
      </trkpt>
      <trkpt lat="48.45205" lon="2.63369">
        <ele>194</ele>
        <time>2017-05-17T12:12:24.300</time>
      </trkpt>
      <trkpt lat="48.45204" lon="2.63369">
        <ele>193</ele>
        <time>2017-05-17T12:12:25.295</time>
      </trkpt>
      <trkpt lat="48.45202" lon="2.63368">
        <ele>191</ele>
        <time>2017-05-17T12:12:26.296</time>
      </trkpt>
      <trkpt lat="48.45202" lon="2.63369">
        <ele>190</ele>
        <time>2017-05-17T12:12:27.296</time>
      </trkpt>
      <trkpt lat="48.45201" lon="2.6337">
        <ele>189</ele>
        <time>2017-05-17T12:12:28.296</time>
      </trkpt>
      <trkpt lat="48.45201" lon="2.63369">
        <ele>189</ele>
        <time>2017-05-17T12:12:29.301</time>
      </trkpt>
      <trkpt lat="48.45201" lon="2.63369">
        <ele>189</ele>
        <time>2017-05-17T12:12:30.300</time>
      </trkpt>
      <trkpt lat="48.452" lon="2.63368">
        <ele>189</ele>
        <time>2017-05-17T12:12:31.294</time>
      </trkpt>
      <trkpt lat="48.452" lon="2.63369">
        <ele>189</ele>
        <time>2017-05-17T12:12:32.294</time>
      </trkpt>
      <trkpt lat="48.452" lon="2.63369">
        <ele>189</ele>
        <time>2017-05-17T12:12:33.296</time>
      </trkpt>
      <trkpt lat="48.452" lon="2.63369">
        <ele>189</ele>
        <time>2017-05-17T12:12:34.298</time>
      </trkpt>
      <trkpt lat="48.45199" lon="2.6337">
        <ele>188</ele>
        <time>2017-05-17T12:12:35.295</time>
      </trkpt>
      <trkpt lat="48.45199" lon="2.6337">
        <ele>188</ele>
        <time>2017-05-17T12:12:36.297</time>
      </trkpt>
      <trkpt lat="48.45199" lon="2.6337">
        <ele>188</ele>
        <time>2017-05-17T12:12:37.297</time>
      </trkpt>
      <trkpt lat="48.45199" lon="2.6337">
        <ele>188</ele>
        <time>2017-05-17T12:12:38.298</time>
      </trkpt>
      <trkpt lat="48.45199" lon="2.6337">
        <ele>188</ele>
        <time>2017-05-17T12:12:39.300</time>
      </trkpt>
      <trkpt lat="48.45198" lon="2.6337">
        <ele>188</ele>
        <time>2017-05-17T12:12:40.294</time>
      </trkpt>
      <trkpt lat="48.45198" lon="2.6337">
        <ele>188</ele>
        <time>2017-05-17T12:12:41.296</time>
      </trkpt>
      <trkpt lat="48.45198" lon="2.6337">
        <ele>188</ele>
        <time>2017-05-17T12:12:42.298</time>
      </trkpt>
      <trkpt lat="48.45198" lon="2.6337">
        <ele>188</ele>
        <time>2017-05-17T12:12:43.298</time>
      </trkpt>
      <trkpt lat="48.45198" lon="2.6337">
        <ele>188</ele>
        <time>2017-05-17T12:12:44.299</time>
      </trkpt>
      <trkpt lat="48.45198" lon="2.6337">
        <ele>188</ele>
        <time>2017-05-17T12:12:45.297</time>
      </trkpt>
      <trkpt lat="48.45198" lon="2.6337">
        <ele>188</ele>
        <time>2017-05-17T12:12:46.300</time>
      </trkpt>
      <trkpt lat="48.45199" lon="2.6337">
        <ele>188</ele>
        <time>2017-05-17T12:12:47.298</time>
      </trkpt>
      <trkpt lat="48.45199" lon="2.6337">
        <ele>188</ele>
        <time>2017-05-17T12:12:48.300</time>
      </trkpt>
      <trkpt lat="48.45199" lon="2.6337">
        <ele>188</ele>
        <time>2017-05-17T12:12:49.306</time>
      </trkpt>
      <trkpt lat="48.45199" lon="2.6337">
        <ele>188</ele>
        <time>2017-05-17T12:12:50.303</time>
      </trkpt>
      <trkpt lat="48.45199" lon="2.6337">
        <ele>188</ele>
        <time>2017-05-17T12:12:51.299</time>
      </trkpt>
      <trkpt lat="48.45199" lon="2.6337">
        <ele>188</ele>
        <time>2017-05-17T12:12:52.294</time>
      </trkpt>
      <trkpt lat="48.45199" lon="2.6337">
        <ele>187</ele>
        <time>2017-05-17T12:12:53.294</time>
      </trkpt>
      <trkpt lat="48.452" lon="2.63369">
        <ele>188</ele>
        <time>2017-05-17T12:12:54.298</time>
      </trkpt>
      <trkpt lat="48.45201" lon="2.63364">
        <ele>187</ele>
        <time>2017-05-17T12:12:55.297</time>
      </trkpt>
      <trkpt lat="48.452" lon="2.63368">
        <ele>187</ele>
        <time>2017-05-17T12:12:56.297</time>
      </trkpt>
      <trkpt lat="48.452" lon="2.63371">
        <ele>185</ele>
        <time>2017-05-17T12:12:57.298</time>
      </trkpt>
      <trkpt lat="48.45199" lon="2.63371">
        <ele>186</ele>
        <time>2017-05-17T12:12:58.301</time>
      </trkpt>
      <trkpt lat="48.45199" lon="2.63371">
        <ele>187</ele>
        <time>2017-05-17T12:12:59.298</time>
      </trkpt>
      <trkpt lat="48.45199" lon="2.63371">
        <ele>186</ele>
        <time>2017-05-17T12:13:00.296</time>
      </trkpt>
      <trkpt lat="48.45199" lon="2.63371">
        <ele>186</ele>
        <time>2017-05-17T12:13:01.296</time>
      </trkpt>
      <trkpt lat="48.45198" lon="2.63371">
        <ele>186</ele>
        <time>2017-05-17T12:13:02.289</time>
      </trkpt>
      <trkpt lat="48.45199" lon="2.63371">
        <ele>186</ele>
        <time>2017-05-17T12:13:03.295</time>
      </trkpt>
      <trkpt lat="48.45195" lon="2.63369">
        <ele>185</ele>
        <time>2017-05-17T12:13:04.296</time>
      </trkpt>
      <trkpt lat="48.45198" lon="2.63369">
        <ele>186</ele>
        <time>2017-05-17T12:13:05.295</time>
      </trkpt>
      <trkpt lat="48.45198" lon="2.6337">
        <ele>185</ele>
        <time>2017-05-17T12:13:06.296</time>
      </trkpt>
      <trkpt lat="48.45197" lon="2.6337">
        <ele>185</ele>
        <time>2017-05-17T12:13:07.296</time>
      </trkpt>
      <trkpt lat="48.45199" lon="2.63369">
        <ele>186</ele>
        <time>2017-05-17T12:13:08.299</time>
      </trkpt>
      <trkpt lat="48.45199" lon="2.63369">
        <ele>186</ele>
        <time>2017-05-17T12:13:09.299</time>
      </trkpt>
      <trkpt lat="48.45199" lon="2.6337">
        <ele>185</ele>
        <time>2017-05-17T12:13:10.294</time>
      </trkpt>
      <trkpt lat="48.452" lon="2.63371">
        <ele>186</ele>
        <time>2017-05-17T12:13:11.297</time>
      </trkpt>
      <trkpt lat="48.452" lon="2.63372">
        <ele>185</ele>
        <time>2017-05-17T12:13:12.300</time>
      </trkpt>
      <trkpt lat="48.45201" lon="2.63369">
        <ele>185</ele>
        <time>2017-05-17T12:13:13.296</time>
      </trkpt>
      <trkpt lat="48.45202" lon="2.6337">
        <ele>185</ele>
        <time>2017-05-17T12:13:14.300</time>
      </trkpt>
      <trkpt lat="48.45202" lon="2.6337">
        <ele>184</ele>
        <time>2017-05-17T12:13:15.298</time>
      </trkpt>
      <trkpt lat="48.45202" lon="2.6337">
        <ele>182</ele>
        <time>2017-05-17T12:13:16.297</time>
      </trkpt>
      <trkpt lat="48.45203" lon="2.6337">
        <ele>183</ele>
        <time>2017-05-17T12:13:17.297</time>
      </trkpt>
      <trkpt lat="48.45203" lon="2.63371">
        <ele>183</ele>
        <time>2017-05-17T12:13:18.302</time>
      </trkpt>
      <trkpt lat="48.45202" lon="2.63371">
        <ele>183</ele>
        <time>2017-05-17T12:13:19.302</time>
      </trkpt>
      <trkpt lat="48.45203" lon="2.6337">
        <ele>184</ele>
        <time>2017-05-17T12:13:20.289</time>
      </trkpt>
      <trkpt lat="48.45203" lon="2.6337">
        <ele>183</ele>
        <time>2017-05-17T12:13:21.292</time>
      </trkpt>
      <trkpt lat="48.45203" lon="2.6337">
        <ele>184</ele>
        <time>2017-05-17T12:13:22.295</time>
      </trkpt>
      <trkpt lat="48.45203" lon="2.6337">
        <ele>183</ele>
        <time>2017-05-17T12:13:23.297</time>
      </trkpt>
      <trkpt lat="48.45203" lon="2.63369">
        <ele>184</ele>
        <time>2017-05-17T12:13:24.299</time>
      </trkpt>
      <trkpt lat="48.45204" lon="2.63369">
        <ele>184</ele>
        <time>2017-05-17T12:13:25.302</time>
      </trkpt>
      <trkpt lat="48.45204" lon="2.63369">
        <ele>184</ele>
        <time>2017-05-17T12:13:26.294</time>
      </trkpt>
      <trkpt lat="48.45204" lon="2.63369">
        <ele>184</ele>
        <time>2017-05-17T12:13:27.296</time>
      </trkpt>
      <trkpt lat="48.45204" lon="2.63369">
        <ele>184</ele>
        <time>2017-05-17T12:13:28.298</time>
      </trkpt>
      <trkpt lat="48.45204" lon="2.63369">
        <ele>184</ele>
        <time>2017-05-17T12:13:29.300</time>
      </trkpt>
      <trkpt lat="48.45204" lon="2.63369">
        <ele>184</ele>
        <time>2017-05-17T12:13:30.295</time>
      </trkpt>
      <trkpt lat="48.45204" lon="2.63369">
        <ele>184</ele>
        <time>2017-05-17T12:13:31.295</time>
      </trkpt>
      <trkpt lat="48.45204" lon="2.63369">
        <ele>184</ele>
        <time>2017-05-17T12:13:32.295</time>
      </trkpt>
      <trkpt lat="48.45204" lon="2.63369">
        <ele>184</ele>
        <time>2017-05-17T12:13:33.297</time>
      </trkpt>
      <trkpt lat="48.45204" lon="2.63369">
        <ele>184</ele>
        <time>2017-05-17T12:13:34.299</time>
      </trkpt>
      <trkpt lat="48.45203" lon="2.63367">
        <ele>182</ele>
        <time>2017-05-17T12:13:35.297</time>
      </trkpt>
      <trkpt lat="48.45202" lon="2.63366">
        <ele>181</ele>
        <time>2017-05-17T12:13:36.291</time>
      </trkpt>
      <trkpt lat="48.45201" lon="2.63366">
        <ele>182</ele>
        <time>2017-05-17T12:13:37.296</time>
      </trkpt>
      <trkpt lat="48.45201" lon="2.63365">
        <ele>181</ele>
        <time>2017-05-17T12:13:38.287</time>
      </trkpt>
      <trkpt lat="48.45201" lon="2.63363">
        <ele>182</ele>
        <time>2017-05-17T12:13:39.283</time>
      </trkpt>
      <trkpt lat="48.45201" lon="2.63362">
        <ele>182</ele>
        <time>2017-05-17T12:13:40.280</time>
      </trkpt>
      <trkpt lat="48.45201" lon="2.63361">
        <ele>182</ele>
        <time>2017-05-17T12:13:41.289</time>
      </trkpt>
      <trkpt lat="48.45202" lon="2.6336">
        <ele>183</ele>
        <time>2017-05-17T12:13:42.294</time>
      </trkpt>
      <trkpt lat="48.45202" lon="2.63359">
        <ele>183</ele>
        <time>2017-05-17T12:13:43.287</time>
      </trkpt>
      <trkpt lat="48.45202" lon="2.63358">
        <ele>183</ele>
        <time>2017-05-17T12:13:44.288</time>
      </trkpt>
      <trkpt lat="48.45202" lon="2.63357">
        <ele>183</ele>
        <time>2017-05-17T12:13:45.292</time>
      </trkpt>
      <trkpt lat="48.45202" lon="2.63357">
        <ele>183</ele>
        <time>2017-05-17T12:13:46.291</time>
      </trkpt>
      <trkpt lat="48.45202" lon="2.63357">
        <ele>183</ele>
        <time>2017-05-17T12:13:47.287</time>
      </trkpt>
      <trkpt lat="48.45202" lon="2.63357">
        <ele>183</ele>
        <time>2017-05-17T12:13:48.301</time>
      </trkpt>
      <trkpt lat="48.45202" lon="2.63357">
        <ele>183</ele>
        <time>2017-05-17T12:13:49.305</time>
      </trkpt>
      <trkpt lat="48.45202" lon="2.63356">
        <ele>183</ele>
        <time>2017-05-17T12:13:50.290</time>
      </trkpt>
      <trkpt lat="48.45202" lon="2.63356">
        <ele>184</ele>
        <time>2017-05-17T12:13:51.284</time>
      </trkpt>
      <trkpt lat="48.45202" lon="2.63356">
        <ele>184</ele>
        <time>2017-05-17T12:13:52.283</time>
      </trkpt>
      <trkpt lat="48.45202" lon="2.63356">
        <ele>184</ele>
        <time>2017-05-17T12:13:53.289</time>
      </trkpt>
      <trkpt lat="48.45202" lon="2.63355">
        <ele>185</ele>
        <time>2017-05-17T12:13:54.289</time>
      </trkpt>
      <trkpt lat="48.45202" lon="2.63355">
        <ele>185</ele>
        <time>2017-05-17T12:13:55.284</time>
      </trkpt>
      <trkpt lat="48.45202" lon="2.63355">
        <ele>185</ele>
        <time>2017-05-17T12:13:56.290</time>
      </trkpt>
      <trkpt lat="48.45202" lon="2.63355">
        <ele>185</ele>
        <time>2017-05-17T12:13:57.293</time>
      </trkpt>
      <trkpt lat="48.45202" lon="2.63355">
        <ele>185</ele>
        <time>2017-05-17T12:13:58.293</time>
      </trkpt>
      <trkpt lat="48.45202" lon="2.63355">
        <ele>185</ele>
        <time>2017-05-17T12:13:59.290</time>
      </trkpt>
      <trkpt lat="48.45202" lon="2.63354">
        <ele>185</ele>
        <time>2017-05-17T12:14:00.286</time>
      </trkpt>
      <trkpt lat="48.45202" lon="2.63354">
        <ele>185</ele>
        <time>2017-05-17T12:14:01.291</time>
      </trkpt>
      <trkpt lat="48.45202" lon="2.63354">
        <ele>185</ele>
        <time>2017-05-17T12:14:02.285</time>
      </trkpt>
      <trkpt lat="48.45202" lon="2.63354">
        <ele>185</ele>
        <time>2017-05-17T12:14:03.283</time>
      </trkpt>
      <trkpt lat="48.45202" lon="2.63354">
        <ele>185</ele>
        <time>2017-05-17T12:14:04.288</time>
      </trkpt>
      <trkpt lat="48.45202" lon="2.63354">
        <ele>185</ele>
        <time>2017-05-17T12:14:05.290</time>
      </trkpt>
      <trkpt lat="48.45202" lon="2.63354">
        <ele>185</ele>
        <time>2017-05-17T12:14:06.289</time>
      </trkpt>
      <trkpt lat="48.45202" lon="2.63354">
        <ele>186</ele>
        <time>2017-05-17T12:14:07.292</time>
      </trkpt>
      <trkpt lat="48.45202" lon="2.63354">
        <ele>185</ele>
        <time>2017-05-17T12:14:08.295</time>
      </trkpt>
      <trkpt lat="48.45202" lon="2.63354">
        <ele>185</ele>
        <time>2017-05-17T12:14:09.289</time>
      </trkpt>
      <trkpt lat="48.45202" lon="2.63354">
        <ele>185</ele>
        <time>2017-05-17T12:14:10.280</time>
      </trkpt>
      <trkpt lat="48.45202" lon="2.63354">
        <ele>186</ele>
        <time>2017-05-17T12:14:11.285</time>
      </trkpt>
      <trkpt lat="48.45202" lon="2.63353">
        <ele>186</ele>
        <time>2017-05-17T12:14:12.289</time>
      </trkpt>
      <trkpt lat="48.45202" lon="2.63354">
        <ele>186</ele>
        <time>2017-05-17T12:14:13.292</time>
      </trkpt>
      <trkpt lat="48.45203" lon="2.63353">
        <ele>186</ele>
        <time>2017-05-17T12:14:14.288</time>
      </trkpt>
      <trkpt lat="48.45203" lon="2.63352">
        <ele>187</ele>
        <time>2017-05-17T12:14:15.289</time>
      </trkpt>
      <trkpt lat="48.45203" lon="2.63352">
        <ele>187</ele>
        <time>2017-05-17T12:14:16.292</time>
      </trkpt>
      <trkpt lat="48.45203" lon="2.63351">
        <ele>187</ele>
        <time>2017-05-17T12:14:17.291</time>
      </trkpt>
      <trkpt lat="48.45203" lon="2.63351">
        <ele>188</ele>
        <time>2017-05-17T12:14:18.291</time>
      </trkpt>
      <trkpt lat="48.45203" lon="2.63351">
        <ele>188</ele>
        <time>2017-05-17T12:14:19.294</time>
      </trkpt>
      <trkpt lat="48.45203" lon="2.63351">
        <ele>187</ele>
        <time>2017-05-17T12:14:20.298</time>
      </trkpt>
      <trkpt lat="48.45203" lon="2.63351">
        <ele>187</ele>
        <time>2017-05-17T12:14:21.293</time>
      </trkpt>
      <trkpt lat="48.45203" lon="2.63352">
        <ele>187</ele>
        <time>2017-05-17T12:14:22.295</time>
      </trkpt>
      <trkpt lat="48.45203" lon="2.63353">
        <ele>187</ele>
        <time>2017-05-17T12:14:23.294</time>
      </trkpt>
      <trkpt lat="48.45203" lon="2.63353">
        <ele>187</ele>
        <time>2017-05-17T12:14:24.294</time>
      </trkpt>
      <trkpt lat="48.45203" lon="2.63354">
        <ele>187</ele>
        <time>2017-05-17T12:14:25.291</time>
      </trkpt>
      <trkpt lat="48.45203" lon="2.63353">
        <ele>187</ele>
        <time>2017-05-17T12:14:26.289</time>
      </trkpt>
      <trkpt lat="48.45202" lon="2.63353">
        <ele>187</ele>
        <time>2017-05-17T12:14:27.291</time>
      </trkpt>
      <trkpt lat="48.45202" lon="2.63352">
        <ele>187</ele>
        <time>2017-05-17T12:14:28.295</time>
      </trkpt>
      <trkpt lat="48.45201" lon="2.63351">
        <ele>188</ele>
        <time>2017-05-17T12:14:29.297</time>
      </trkpt>
      <trkpt lat="48.45202" lon="2.6335">
        <ele>188</ele>
        <time>2017-05-17T12:14:30.286</time>
      </trkpt>
      <trkpt lat="48.45201" lon="2.6335">
        <ele>188</ele>
        <time>2017-05-17T12:14:31.289</time>
      </trkpt>
      <trkpt lat="48.45201" lon="2.63351">
        <ele>188</ele>
        <time>2017-05-17T12:14:32.294</time>
      </trkpt>
      <trkpt lat="48.45201" lon="2.6335">
        <ele>188</ele>
        <time>2017-05-17T12:14:33.291</time>
      </trkpt>
      <trkpt lat="48.45201" lon="2.6335">
        <ele>188</ele>
        <time>2017-05-17T12:14:34.290</time>
      </trkpt>
      <trkpt lat="48.45201" lon="2.63349">
        <ele>188</ele>
        <time>2017-05-17T12:14:35.290</time>
      </trkpt>
      <trkpt lat="48.45201" lon="2.63349">
        <ele>187</ele>
        <time>2017-05-17T12:14:36.289</time>
      </trkpt>
      <trkpt lat="48.45201" lon="2.63349">
        <ele>187</ele>
        <time>2017-05-17T12:14:37.289</time>
      </trkpt>
      <trkpt lat="48.45201" lon="2.63349">
        <ele>188</ele>
        <time>2017-05-17T12:14:38.303</time>
      </trkpt>
      <trkpt lat="48.45201" lon="2.63349">
        <ele>188</ele>
        <time>2017-05-17T12:14:39.292</time>
      </trkpt>
      <trkpt lat="48.45201" lon="2.63349">
        <ele>188</ele>
        <time>2017-05-17T12:14:40.286</time>
      </trkpt>
      <trkpt lat="48.45201" lon="2.63349">
        <ele>188</ele>
        <time>2017-05-17T12:14:41.290</time>
      </trkpt>
      <trkpt lat="48.45201" lon="2.63349">
        <ele>188</ele>
        <time>2017-05-17T12:14:42.290</time>
      </trkpt>
      <trkpt lat="48.45201" lon="2.63348">
        <ele>188</ele>
        <time>2017-05-17T12:14:43.289</time>
      </trkpt>
      <trkpt lat="48.45201" lon="2.63348">
        <ele>188</ele>
        <time>2017-05-17T12:14:44.291</time>
      </trkpt>
      <trkpt lat="48.45201" lon="2.63348">
        <ele>188</ele>
        <time>2017-05-17T12:14:45.291</time>
      </trkpt>
      <trkpt lat="48.45201" lon="2.63348">
        <ele>188</ele>
        <time>2017-05-17T12:14:46.288</time>
      </trkpt>
      <trkpt lat="48.45201" lon="2.63348">
        <ele>188</ele>
        <time>2017-05-17T12:14:47.288</time>
      </trkpt>
      <trkpt lat="48.45201" lon="2.63349">
        <ele>188</ele>
        <time>2017-05-17T12:14:48.291</time>
      </trkpt>
      <trkpt lat="48.45201" lon="2.63348">
        <ele>187</ele>
        <time>2017-05-17T12:14:49.289</time>
      </trkpt>
      <trkpt lat="48.452" lon="2.63348">
        <ele>187</ele>
        <time>2017-05-17T12:14:50.292</time>
      </trkpt>
      <trkpt lat="48.452" lon="2.63349">
        <ele>187</ele>
        <time>2017-05-17T12:14:51.294</time>
      </trkpt>
      <trkpt lat="48.452" lon="2.63349">
        <ele>187</ele>
        <time>2017-05-17T12:14:52.292</time>
      </trkpt>
      <trkpt lat="48.452" lon="2.63348">
        <ele>187</ele>
        <time>2017-05-17T12:14:53.292</time>
      </trkpt>
      <trkpt lat="48.452" lon="2.63348">
        <ele>187</ele>
        <time>2017-05-17T12:14:54.292</time>
      </trkpt>
      <trkpt lat="48.452" lon="2.63348">
        <ele>187</ele>
        <time>2017-05-17T12:14:55.290</time>
      </trkpt>
      <trkpt lat="48.452" lon="2.63348">
        <ele>187</ele>
        <time>2017-05-17T12:14:56.288</time>
      </trkpt>
      <trkpt lat="48.452" lon="2.63348">
        <ele>187</ele>
        <time>2017-05-17T12:14:57.289</time>
      </trkpt>
      <trkpt lat="48.452" lon="2.63348">
        <ele>187</ele>
        <time>2017-05-17T12:14:58.291</time>
      </trkpt>
      <trkpt lat="48.452" lon="2.63348">
        <ele>187</ele>
        <time>2017-05-17T12:14:59.290</time>
      </trkpt>
      <trkpt lat="48.452" lon="2.63348">
        <ele>187</ele>
        <time>2017-05-17T12:15:00.290</time>
      </trkpt>
      <trkpt lat="48.452" lon="2.63348">
        <ele>187</ele>
        <time>2017-05-17T12:15:01.289</time>
      </trkpt>
      <trkpt lat="48.452" lon="2.63348">
        <ele>187</ele>
        <time>2017-05-17T12:15:02.290</time>
      </trkpt>
      <trkpt lat="48.452" lon="2.63348">
        <ele>187</ele>
        <time>2017-05-17T12:15:03.289</time>
      </trkpt>
      <trkpt lat="48.452" lon="2.63348">
        <ele>187</ele>
        <time>2017-05-17T12:15:04.309</time>
      </trkpt>
      <trkpt lat="48.452" lon="2.63348">
        <ele>187</ele>
        <time>2017-05-17T12:15:05.298</time>
      </trkpt>
      <trkpt lat="48.452" lon="2.63348">
        <ele>187</ele>
        <time>2017-05-17T12:15:06.294</time>
      </trkpt>
      <trkpt lat="48.452" lon="2.63348">
        <ele>187</ele>
        <time>2017-05-17T12:15:07.295</time>
      </trkpt>
      <trkpt lat="48.452" lon="2.63348">
        <ele>187</ele>
        <time>2017-05-17T12:15:08.336</time>
      </trkpt>
      <trkpt lat="48.452" lon="2.63348">
        <ele>187</ele>
        <time>2017-05-17T12:15:09.311</time>
      </trkpt>
      <trkpt lat="48.452" lon="2.63348">
        <ele>187</ele>
        <time>2017-05-17T12:15:10.298</time>
      </trkpt>
      <trkpt lat="48.452" lon="2.63348">
        <ele>187</ele>
        <time>2017-05-17T12:15:11.295</time>
      </trkpt>
      <trkpt lat="48.452" lon="2.63348">
        <ele>187</ele>
        <time>2017-05-17T12:15:12.295</time>
      </trkpt>
      <trkpt lat="48.452" lon="2.63348">
        <ele>187</ele>
        <time>2017-05-17T12:15:13.296</time>
      </trkpt>
      <trkpt lat="48.452" lon="2.63348">
        <ele>187</ele>
        <time>2017-05-17T12:15:14.297</time>
      </trkpt>
      <trkpt lat="48.452" lon="2.63349">
        <ele>188</ele>
        <time>2017-05-17T12:15:15.298</time>
      </trkpt>
      <trkpt lat="48.452" lon="2.63348">
        <ele>188</ele>
        <time>2017-05-17T12:15:16.296</time>
      </trkpt>
      <trkpt lat="48.452" lon="2.63349">
        <ele>188</ele>
        <time>2017-05-17T12:15:17.296</time>
      </trkpt>
      <trkpt lat="48.452" lon="2.63349">
        <ele>188</ele>
        <time>2017-05-17T12:15:18.297</time>
      </trkpt>
      <trkpt lat="48.452" lon="2.63349">
        <ele>188</ele>
        <time>2017-05-17T12:15:19.297</time>
      </trkpt>
      <trkpt lat="48.452" lon="2.63349">
        <ele>188</ele>
        <time>2017-05-17T12:15:20.297</time>
      </trkpt>
      <trkpt lat="48.452" lon="2.6335">
        <ele>188</ele>
        <time>2017-05-17T12:15:21.296</time>
      </trkpt>
      <trkpt lat="48.452" lon="2.6335">
        <ele>188</ele>
        <time>2017-05-17T12:15:22.295</time>
      </trkpt>
      <trkpt lat="48.452" lon="2.6335">
        <ele>188</ele>
        <time>2017-05-17T12:15:23.296</time>
      </trkpt>
      <trkpt lat="48.452" lon="2.6335">
        <ele>188</ele>
        <time>2017-05-17T12:15:24.297</time>
      </trkpt>
      <trkpt lat="48.452" lon="2.6335">
        <ele>188</ele>
        <time>2017-05-17T12:15:25.296</time>
      </trkpt>
      <trkpt lat="48.45199" lon="2.6335">
        <ele>187</ele>
        <time>2017-05-17T12:15:26.296</time>
      </trkpt>
      <trkpt lat="48.45199" lon="2.6335">
        <ele>187</ele>
        <time>2017-05-17T12:15:27.296</time>
      </trkpt>
      <trkpt lat="48.45199" lon="2.6335">
        <ele>187</ele>
        <time>2017-05-17T12:15:28.297</time>
      </trkpt>
      <trkpt lat="48.45199" lon="2.6335">
        <ele>187</ele>
        <time>2017-05-17T12:15:29.296</time>
      </trkpt>
      <trkpt lat="48.45199" lon="2.6335">
        <ele>187</ele>
        <time>2017-05-17T12:15:30.299</time>
      </trkpt>
      <trkpt lat="48.45198" lon="2.63347">
        <ele>188</ele>
        <time>2017-05-17T12:15:31.297</time>
      </trkpt>
      <trkpt lat="48.45199" lon="2.63345">
        <ele>188</ele>
        <time>2017-05-17T12:15:32.297</time>
      </trkpt>
      <trkpt lat="48.45199" lon="2.63346">
        <ele>188</ele>
        <time>2017-05-17T12:15:33.298</time>
      </trkpt>
      <trkpt lat="48.45199" lon="2.63345">
        <ele>188</ele>
        <time>2017-05-17T12:15:34.297</time>
      </trkpt>
      <trkpt lat="48.452" lon="2.63345">
        <ele>189</ele>
        <time>2017-05-17T12:15:35.298</time>
      </trkpt>
      <trkpt lat="48.452" lon="2.63345">
        <ele>190</ele>
        <time>2017-05-17T12:15:36.297</time>
      </trkpt>
      <trkpt lat="48.45199" lon="2.63344">
        <ele>190</ele>
        <time>2017-05-17T12:15:37.297</time>
      </trkpt>
      <trkpt lat="48.45199" lon="2.63344">
        <ele>190</ele>
        <time>2017-05-17T12:15:38.297</time>
      </trkpt>
      <trkpt lat="48.45199" lon="2.63344">
        <ele>190</ele>
        <time>2017-05-17T12:15:39.296</time>
      </trkpt>
      <trkpt lat="48.45199" lon="2.63344">
        <ele>190</ele>
        <time>2017-05-17T12:15:40.298</time>
      </trkpt>
      <trkpt lat="48.45199" lon="2.63344">
        <ele>190</ele>
        <time>2017-05-17T12:15:41.297</time>
      </trkpt>
      <trkpt lat="48.45199" lon="2.63344">
        <ele>190</ele>
        <time>2017-05-17T12:15:42.298</time>
      </trkpt>
      <trkpt lat="48.45199" lon="2.63344">
        <ele>190</ele>
        <time>2017-05-17T12:15:43.297</time>
      </trkpt>
      <trkpt lat="48.45199" lon="2.63344">
        <ele>190</ele>
        <time>2017-05-17T12:15:44.296</time>
      </trkpt>
      <trkpt lat="48.45199" lon="2.63344">
        <ele>190</ele>
        <time>2017-05-17T12:15:45.298</time>
      </trkpt>
      <trkpt lat="48.45199" lon="2.63343">
        <ele>190</ele>
        <time>2017-05-17T12:15:46.296</time>
      </trkpt>
      <trkpt lat="48.45199" lon="2.63343">
        <ele>191</ele>
        <time>2017-05-17T12:15:47.297</time>
      </trkpt>
      <trkpt lat="48.45199" lon="2.63343">
        <ele>191</ele>
        <time>2017-05-17T12:15:48.296</time>
      </trkpt>
      <trkpt lat="48.45199" lon="2.63343">
        <ele>191</ele>
        <time>2017-05-17T12:15:49.297</time>
      </trkpt>
      <trkpt lat="48.45199" lon="2.63343">
        <ele>191</ele>
        <time>2017-05-17T12:15:50.294</time>
      </trkpt>
      <trkpt lat="48.45199" lon="2.63343">
        <ele>191</ele>
        <time>2017-05-17T12:15:51.295</time>
      </trkpt>
      <trkpt lat="48.45199" lon="2.63343">
        <ele>191</ele>
        <time>2017-05-17T12:15:52.296</time>
      </trkpt>
      <trkpt lat="48.45199" lon="2.63343">
        <ele>191</ele>
        <time>2017-05-17T12:15:53.297</time>
      </trkpt>
      <trkpt lat="48.45199" lon="2.63343">
        <ele>191</ele>
        <time>2017-05-17T12:15:54.296</time>
      </trkpt>
      <trkpt lat="48.45199" lon="2.63343">
        <ele>191</ele>
        <time>2017-05-17T12:15:55.298</time>
      </trkpt>
      <trkpt lat="48.45199" lon="2.63343">
        <ele>191</ele>
        <time>2017-05-17T12:15:56.295</time>
      </trkpt>
      <trkpt lat="48.45199" lon="2.63343">
        <ele>191</ele>
        <time>2017-05-17T12:15:57.295</time>
      </trkpt>
      <trkpt lat="48.45199" lon="2.63343">
        <ele>191</ele>
        <time>2017-05-17T12:15:58.295</time>
      </trkpt>
      <trkpt lat="48.45199" lon="2.63343">
        <ele>191</ele>
        <time>2017-05-17T12:15:59.299</time>
      </trkpt>
      <trkpt lat="48.45199" lon="2.63343">
        <ele>191</ele>
        <time>2017-05-17T12:16:00.294</time>
      </trkpt>
      <trkpt lat="48.45199" lon="2.63343">
        <ele>191</ele>
        <time>2017-05-17T12:16:01.295</time>
      </trkpt>
      <trkpt lat="48.45199" lon="2.63343">
        <ele>191</ele>
        <time>2017-05-17T12:16:02.296</time>
      </trkpt>
      <trkpt lat="48.45199" lon="2.63343">
        <ele>191</ele>
        <time>2017-05-17T12:16:03.297</time>
      </trkpt>
      <trkpt lat="48.45199" lon="2.63343">
        <ele>191</ele>
        <time>2017-05-17T12:16:04.296</time>
      </trkpt>
      <trkpt lat="48.45199" lon="2.63343">
        <ele>191</ele>
        <time>2017-05-17T12:16:05.299</time>
      </trkpt>
      <trkpt lat="48.45199" lon="2.63343">
        <ele>191</ele>
        <time>2017-05-17T12:16:06.299</time>
      </trkpt>
      <trkpt lat="48.45199" lon="2.63343">
        <ele>191</ele>
        <time>2017-05-17T12:16:07.297</time>
      </trkpt>
      <trkpt lat="48.45199" lon="2.63343">
        <ele>191</ele>
        <time>2017-05-17T12:16:08.296</time>
      </trkpt>
      <trkpt lat="48.45199" lon="2.63343">
        <ele>191</ele>
        <time>2017-05-17T12:16:09.297</time>
      </trkpt>
      <trkpt lat="48.45199" lon="2.63343">
        <ele>191</ele>
        <time>2017-05-17T12:16:10.299</time>
      </trkpt>
      <trkpt lat="48.45199" lon="2.63343">
        <ele>191</ele>
        <time>2017-05-17T12:16:11.297</time>
      </trkpt>
      <trkpt lat="48.45199" lon="2.63343">
        <ele>191</ele>
        <time>2017-05-17T12:16:12.295</time>
      </trkpt>
      <trkpt lat="48.45199" lon="2.63343">
        <ele>191</ele>
        <time>2017-05-17T12:16:13.296</time>
      </trkpt>
      <trkpt lat="48.45199" lon="2.63343">
        <ele>191</ele>
        <time>2017-05-17T12:16:14.296</time>
      </trkpt>
      <trkpt lat="48.45199" lon="2.63343">
        <ele>191</ele>
        <time>2017-05-17T12:16:15.298</time>
      </trkpt>
      <trkpt lat="48.45199" lon="2.63343">
        <ele>191</ele>
        <time>2017-05-17T12:16:16.297</time>
      </trkpt>
      <trkpt lat="48.45199" lon="2.63343">
        <ele>191</ele>
        <time>2017-05-17T12:16:17.295</time>
      </trkpt>
      <trkpt lat="48.45199" lon="2.63343">
        <ele>191</ele>
        <time>2017-05-17T12:16:18.298</time>
      </trkpt>
      <trkpt lat="48.45199" lon="2.63343">
        <ele>191</ele>
        <time>2017-05-17T12:16:19.296</time>
      </trkpt>
      <trkpt lat="48.45199" lon="2.63343">
        <ele>191</ele>
        <time>2017-05-17T12:16:20.299</time>
      </trkpt>
      <trkpt lat="48.45199" lon="2.63343">
        <ele>191</ele>
        <time>2017-05-17T12:16:21.297</time>
      </trkpt>
      <trkpt lat="48.45199" lon="2.63343">
        <ele>191</ele>
        <time>2017-05-17T12:16:22.299</time>
      </trkpt>
      <trkpt lat="48.45199" lon="2.63343">
        <ele>191</ele>
        <time>2017-05-17T12:16:23.297</time>
      </trkpt>
      <trkpt lat="48.45199" lon="2.63343">
        <ele>191</ele>
        <time>2017-05-17T12:16:24.296</time>
      </trkpt>
      <trkpt lat="48.45199" lon="2.63343">
        <ele>191</ele>
        <time>2017-05-17T12:16:25.298</time>
      </trkpt>
      <trkpt lat="48.45199" lon="2.63343">
        <ele>191</ele>
        <time>2017-05-17T12:16:26.297</time>
      </trkpt>
      <trkpt lat="48.45199" lon="2.63343">
        <ele>191</ele>
        <time>2017-05-17T12:16:27.296</time>
      </trkpt>
      <trkpt lat="48.45199" lon="2.63343">
        <ele>191</ele>
        <time>2017-05-17T12:16:28.297</time>
      </trkpt>
      <trkpt lat="48.45197" lon="2.63343">
        <ele>190</ele>
        <time>2017-05-17T12:16:29.297</time>
      </trkpt>
      <trkpt lat="48.45197" lon="2.63343">
        <ele>189</ele>
        <time>2017-05-17T12:16:30.298</time>
      </trkpt>
      <trkpt lat="48.45196" lon="2.63343">
        <ele>188</ele>
        <time>2017-05-17T12:16:31.298</time>
      </trkpt>
      <trkpt lat="48.45197" lon="2.63343">
        <ele>190</ele>
        <time>2017-05-17T12:16:32.296</time>
      </trkpt>
      <trkpt lat="48.45197" lon="2.63343">
        <ele>190</ele>
        <time>2017-05-17T12:16:33.296</time>
      </trkpt>
      <trkpt lat="48.45198" lon="2.63343">
        <ele>190</ele>
        <time>2017-05-17T12:16:34.296</time>
      </trkpt>
      <trkpt lat="48.45198" lon="2.63343">
        <ele>190</ele>
        <time>2017-05-17T12:16:35.295</time>
      </trkpt>
      <trkpt lat="48.45197" lon="2.63343">
        <ele>189</ele>
        <time>2017-05-17T12:16:36.295</time>
      </trkpt>
      <trkpt lat="48.45198" lon="2.63343">
        <ele>189</ele>
        <time>2017-05-17T12:16:37.296</time>
      </trkpt>
      <trkpt lat="48.45198" lon="2.63343">
        <ele>188</ele>
        <time>2017-05-17T12:16:38.297</time>
      </trkpt>
      <trkpt lat="48.45198" lon="2.63343">
        <ele>188</ele>
        <time>2017-05-17T12:16:39.296</time>
      </trkpt>
      <trkpt lat="48.45198" lon="2.63343">
        <ele>188</ele>
        <time>2017-05-17T12:16:40.295</time>
      </trkpt>
      <trkpt lat="48.45197" lon="2.63343">
        <ele>188</ele>
        <time>2017-05-17T12:16:41.295</time>
      </trkpt>
      <trkpt lat="48.45197" lon="2.63343">
        <ele>187</ele>
        <time>2017-05-17T12:16:42.295</time>
      </trkpt>
      <trkpt lat="48.45197" lon="2.63343">
        <ele>187</ele>
        <time>2017-05-17T12:16:43.294</time>
      </trkpt>
      <trkpt lat="48.45197" lon="2.63343">
        <ele>187</ele>
        <time>2017-05-17T12:16:44.296</time>
      </trkpt>
      <trkpt lat="48.45196" lon="2.63341">
        <ele>187</ele>
        <time>2017-05-17T12:16:45.298</time>
      </trkpt>
      <trkpt lat="48.45195" lon="2.63341">
        <ele>187</ele>
        <time>2017-05-17T12:16:46.297</time>
      </trkpt>
      <trkpt lat="48.45195" lon="2.63343">
        <ele>186</ele>
        <time>2017-05-17T12:16:47.297</time>
      </trkpt>
      <trkpt lat="48.45196" lon="2.63342">
        <ele>187</ele>
        <time>2017-05-17T12:16:48.297</time>
      </trkpt>
      <trkpt lat="48.45197" lon="2.63343">
        <ele>188</ele>
        <time>2017-05-17T12:16:49.297</time>
      </trkpt>
      <trkpt lat="48.45198" lon="2.63346">
        <ele>188</ele>
        <time>2017-05-17T12:16:50.300</time>
      </trkpt>
      <trkpt lat="48.45198" lon="2.63345">
        <ele>189</ele>
        <time>2017-05-17T12:16:51.297</time>
      </trkpt>
      <trkpt lat="48.45197" lon="2.63345">
        <ele>190</ele>
        <time>2017-05-17T12:16:52.297</time>
      </trkpt>
      <trkpt lat="48.45195" lon="2.63344">
        <ele>190</ele>
        <time>2017-05-17T12:16:53.296</time>
      </trkpt>
      <trkpt lat="48.45194" lon="2.63343">
        <ele>190</ele>
        <time>2017-05-17T12:16:54.296</time>
      </trkpt>
      <trkpt lat="48.45194" lon="2.63345">
        <ele>188</ele>
        <time>2017-05-17T12:16:55.299</time>
      </trkpt>
      <trkpt lat="48.45196" lon="2.63348">
        <ele>187</ele>
        <time>2017-05-17T12:16:56.297</time>
      </trkpt>
      <trkpt lat="48.45196" lon="2.63349">
        <ele>187</ele>
        <time>2017-05-17T12:16:57.295</time>
      </trkpt>
      <trkpt lat="48.45197" lon="2.6335">
        <ele>187</ele>
        <time>2017-05-17T12:16:58.296</time>
      </trkpt>
      <trkpt lat="48.45197" lon="2.6335">
        <ele>187</ele>
        <time>2017-05-17T12:16:59.300</time>
      </trkpt>
      <trkpt lat="48.45197" lon="2.6335">
        <ele>187</ele>
        <time>2017-05-17T12:17:00.296</time>
      </trkpt>
      <trkpt lat="48.45197" lon="2.6335">
        <ele>187</ele>
        <time>2017-05-17T12:17:01.294</time>
      </trkpt>
      <trkpt lat="48.45197" lon="2.6335">
        <ele>186</ele>
        <time>2017-05-17T12:17:02.300</time>
      </trkpt>
      <trkpt lat="48.45198" lon="2.6335">
        <ele>186</ele>
        <time>2017-05-17T12:17:03.297</time>
      </trkpt>
      <trkpt lat="48.45198" lon="2.6335">
        <ele>185</ele>
        <time>2017-05-17T12:17:04.291</time>
      </trkpt>
      <trkpt lat="48.45198" lon="2.6335">
        <ele>185</ele>
        <time>2017-05-17T12:17:05.297</time>
      </trkpt>
      <trkpt lat="48.45198" lon="2.6335">
        <ele>186</ele>
        <time>2017-05-17T12:17:06.294</time>
      </trkpt>
      <trkpt lat="48.45198" lon="2.6335">
        <ele>186</ele>
        <time>2017-05-17T12:17:07.296</time>
      </trkpt>
      <trkpt lat="48.45198" lon="2.6335">
        <ele>186</ele>
        <time>2017-05-17T12:17:08.295</time>
      </trkpt>
      <trkpt lat="48.45198" lon="2.6335">
        <ele>186</ele>
        <time>2017-05-17T12:17:09.295</time>
      </trkpt>
      <trkpt lat="48.45198" lon="2.6335">
        <ele>186</ele>
        <time>2017-05-17T12:17:10.297</time>
      </trkpt>
      <trkpt lat="48.45198" lon="2.6335">
        <ele>186</ele>
        <time>2017-05-17T12:17:11.296</time>
      </trkpt>
      <trkpt lat="48.45198" lon="2.6335">
        <ele>186</ele>
        <time>2017-05-17T12:17:12.297</time>
      </trkpt>
      <trkpt lat="48.45198" lon="2.6335">
        <ele>186</ele>
        <time>2017-05-17T12:17:13.294</time>
      </trkpt>
      <trkpt lat="48.45198" lon="2.6335">
        <ele>186</ele>
        <time>2017-05-17T12:17:14.295</time>
      </trkpt>
      <trkpt lat="48.45198" lon="2.6335">
        <ele>186</ele>
        <time>2017-05-17T12:17:15.297</time>
      </trkpt>
      <trkpt lat="48.45198" lon="2.6335">
        <ele>186</ele>
        <time>2017-05-17T12:17:16.296</time>
      </trkpt>
      <trkpt lat="48.45198" lon="2.6335">
        <ele>186</ele>
        <time>2017-05-17T12:17:17.294</time>
      </trkpt>
      <trkpt lat="48.45198" lon="2.6335">
        <ele>186</ele>
        <time>2017-05-17T12:17:18.295</time>
      </trkpt>
      <trkpt lat="48.45198" lon="2.6335">
        <ele>186</ele>
        <time>2017-05-17T12:17:19.297</time>
      </trkpt>
      <trkpt lat="48.45198" lon="2.6335">
        <ele>186</ele>
        <time>2017-05-17T12:17:20.298</time>
      </trkpt>
      <trkpt lat="48.45198" lon="2.63351">
        <ele>184</ele>
        <time>2017-05-17T12:17:21.297</time>
      </trkpt>
      <trkpt lat="48.45199" lon="2.63353">
        <ele>183</ele>
        <time>2017-05-17T12:17:22.297</time>
      </trkpt>
      <trkpt lat="48.45199" lon="2.63354">
        <ele>185</ele>
        <time>2017-05-17T12:17:23.298</time>
      </trkpt>
      <trkpt lat="48.45199" lon="2.63356">
        <ele>184</ele>
        <time>2017-05-17T12:17:24.296</time>
      </trkpt>
      <trkpt lat="48.45199" lon="2.63357">
        <ele>185</ele>
        <time>2017-05-17T12:17:25.296</time>
      </trkpt>
      <trkpt lat="48.45198" lon="2.63357">
        <ele>186</ele>
        <time>2017-05-17T12:17:26.295</time>
      </trkpt>
      <trkpt lat="48.45199" lon="2.63357">
        <ele>186</ele>
        <time>2017-05-17T12:17:27.297</time>
      </trkpt>
      <trkpt lat="48.45199" lon="2.63358">
        <ele>186</ele>
        <time>2017-05-17T12:17:28.297</time>
      </trkpt>
      <trkpt lat="48.45199" lon="2.6336">
        <ele>186</ele>
        <time>2017-05-17T12:17:29.296</time>
      </trkpt>
      <trkpt lat="48.45199" lon="2.6336">
        <ele>188</ele>
        <time>2017-05-17T12:17:30.297</time>
      </trkpt>
      <trkpt lat="48.45199" lon="2.63361">
        <ele>188</ele>
        <time>2017-05-17T12:17:31.296</time>
      </trkpt>
      <trkpt lat="48.45199" lon="2.63363">
        <ele>188</ele>
        <time>2017-05-17T12:17:32.296</time>
      </trkpt>
      <trkpt lat="48.45198" lon="2.63362">
        <ele>190</ele>
        <time>2017-05-17T12:17:33.297</time>
      </trkpt>
      <trkpt lat="48.45198" lon="2.63362">
        <ele>190</ele>
        <time>2017-05-17T12:17:34.297</time>
      </trkpt>
      <trkpt lat="48.45198" lon="2.63363">
        <ele>190</ele>
        <time>2017-05-17T12:17:35.298</time>
      </trkpt>
      <trkpt lat="48.45198" lon="2.63363">
        <ele>190</ele>
        <time>2017-05-17T12:17:36.297</time>
      </trkpt>
      <trkpt lat="48.45197" lon="2.63363">
        <ele>189</ele>
        <time>2017-05-17T12:17:37.298</time>
      </trkpt>
      <trkpt lat="48.45197" lon="2.63363">
        <ele>188</ele>
        <time>2017-05-17T12:17:38.296</time>
      </trkpt>
      <trkpt lat="48.45197" lon="2.63364">
        <ele>189</ele>
        <time>2017-05-17T12:17:39.295</time>
      </trkpt>
      <trkpt lat="48.45196" lon="2.63363">
        <ele>189</ele>
        <time>2017-05-17T12:17:40.297</time>
      </trkpt>
      <trkpt lat="48.45195" lon="2.63364">
        <ele>189</ele>
        <time>2017-05-17T12:17:41.296</time>
      </trkpt>
      <trkpt lat="48.45196" lon="2.63365">
        <ele>189</ele>
        <time>2017-05-17T12:17:42.296</time>
      </trkpt>
      <trkpt lat="48.45196" lon="2.63363">
        <ele>190</ele>
        <time>2017-05-17T12:17:43.296</time>
      </trkpt>
      <trkpt lat="48.45197" lon="2.63367">
        <ele>188</ele>
        <time>2017-05-17T12:17:44.297</time>
      </trkpt>
      <trkpt lat="48.45197" lon="2.63366">
        <ele>189</ele>
        <time>2017-05-17T12:17:45.298</time>
      </trkpt>
      <trkpt lat="48.45198" lon="2.63368">
        <ele>190</ele>
        <time>2017-05-17T12:17:46.297</time>
      </trkpt>
      <trkpt lat="48.45198" lon="2.63374">
        <ele>190</ele>
        <time>2017-05-17T12:17:47.296</time>
      </trkpt>
      <trkpt lat="48.45198" lon="2.63376">
        <ele>189</ele>
        <time>2017-05-17T12:17:48.297</time>
      </trkpt>
      <trkpt lat="48.45198" lon="2.63375">
        <ele>189</ele>
        <time>2017-05-17T12:17:49.295</time>
      </trkpt>
      <trkpt lat="48.45199" lon="2.63375">
        <ele>187</ele>
        <time>2017-05-17T12:17:50.298</time>
      </trkpt>
      <trkpt lat="48.45197" lon="2.63376">
        <ele>187</ele>
        <time>2017-05-17T12:17:51.296</time>
      </trkpt>
      <trkpt lat="48.45197" lon="2.63376">
        <ele>186</ele>
        <time>2017-05-17T12:17:52.294</time>
      </trkpt>
      <trkpt lat="48.45198" lon="2.63375">
        <ele>186</ele>
        <time>2017-05-17T12:17:53.294</time>
      </trkpt>
      <trkpt lat="48.45198" lon="2.63375">
        <ele>186</ele>
        <time>2017-05-17T12:17:54.294</time>
      </trkpt>
      <trkpt lat="48.45198" lon="2.63374">
        <ele>186</ele>
        <time>2017-05-17T12:17:55.299</time>
      </trkpt>
      <trkpt lat="48.45197" lon="2.63375">
        <ele>187</ele>
        <time>2017-05-17T12:17:56.295</time>
      </trkpt>
      <trkpt lat="48.45197" lon="2.63375">
        <ele>187</ele>
        <time>2017-05-17T12:17:57.296</time>
      </trkpt>
      <trkpt lat="48.45197" lon="2.63374">
        <ele>187</ele>
        <time>2017-05-17T12:17:58.290</time>
      </trkpt>
      <trkpt lat="48.45198" lon="2.63375">
        <ele>187</ele>
        <time>2017-05-17T12:17:59.296</time>
      </trkpt>
      <trkpt lat="48.45198" lon="2.63374">
        <ele>187</ele>
        <time>2017-05-17T12:18:00.287</time>
      </trkpt>
      <trkpt lat="48.45198" lon="2.63374">
        <ele>188</ele>
        <time>2017-05-17T12:18:01.294</time>
      </trkpt>
      <trkpt lat="48.45197" lon="2.63374">
        <ele>188</ele>
        <time>2017-05-17T12:18:02.296</time>
      </trkpt>
      <trkpt lat="48.45197" lon="2.63375">
        <ele>188</ele>
        <time>2017-05-17T12:18:03.313</time>
      </trkpt>
      <trkpt lat="48.45197" lon="2.63375">
        <ele>188</ele>
        <time>2017-05-17T12:18:04.296</time>
      </trkpt>
      <trkpt lat="48.45198" lon="2.63375">
        <ele>188</ele>
        <time>2017-05-17T12:18:05.298</time>
      </trkpt>
      <trkpt lat="48.45197" lon="2.63375">
        <ele>188</ele>
        <time>2017-05-17T12:18:06.295</time>
      </trkpt>
      <trkpt lat="48.45197" lon="2.63376">
        <ele>189</ele>
        <time>2017-05-17T12:18:07.296</time>
      </trkpt>
      <trkpt lat="48.45198" lon="2.63376">
        <ele>189</ele>
        <time>2017-05-17T12:18:08.297</time>
      </trkpt>
      <trkpt lat="48.45198" lon="2.63376">
        <ele>189</ele>
        <time>2017-05-17T12:18:09.296</time>
      </trkpt>
      <trkpt lat="48.45198" lon="2.63376">
        <ele>189</ele>
        <time>2017-05-17T12:18:10.299</time>
      </trkpt>
      <trkpt lat="48.45198" lon="2.63376">
        <ele>189</ele>
        <time>2017-05-17T12:18:11.296</time>
      </trkpt>
      <trkpt lat="48.45198" lon="2.63376">
        <ele>189</ele>
        <time>2017-05-17T12:18:12.295</time>
      </trkpt>
      <trkpt lat="48.45198" lon="2.63376">
        <ele>189</ele>
        <time>2017-05-17T12:18:13.295</time>
      </trkpt>
      <trkpt lat="48.45198" lon="2.63376">
        <ele>189</ele>
        <time>2017-05-17T12:18:14.296</time>
      </trkpt>
      <trkpt lat="48.45198" lon="2.63376">
        <ele>189</ele>
        <time>2017-05-17T12:18:15.297</time>
      </trkpt>
      <trkpt lat="48.45198" lon="2.63376">
        <ele>189</ele>
        <time>2017-05-17T12:18:16.294</time>
      </trkpt>
      <trkpt lat="48.45198" lon="2.63376">
        <ele>189</ele>
        <time>2017-05-17T12:18:17.295</time>
      </trkpt>
      <trkpt lat="48.45198" lon="2.63376">
        <ele>189</ele>
        <time>2017-05-17T12:18:18.296</time>
      </trkpt>
      <trkpt lat="48.45198" lon="2.63376">
        <ele>189</ele>
        <time>2017-05-17T12:18:19.296</time>
      </trkpt>
      <trkpt lat="48.45198" lon="2.63376">
        <ele>189</ele>
        <time>2017-05-17T12:18:20.297</time>
      </trkpt>
      <trkpt lat="48.45198" lon="2.63376">
        <ele>189</ele>
        <time>2017-05-17T12:18:21.295</time>
      </trkpt>
      <trkpt lat="48.45198" lon="2.63376">
        <ele>189</ele>
        <time>2017-05-17T12:18:22.296</time>
      </trkpt>
      <trkpt lat="48.45198" lon="2.63376">
        <ele>189</ele>
        <time>2017-05-17T12:18:23.296</time>
      </trkpt>
      <trkpt lat="48.45198" lon="2.63376">
        <ele>189</ele>
        <time>2017-05-17T12:18:24.294</time>
      </trkpt>
      <trkpt lat="48.45198" lon="2.63376">
        <ele>189</ele>
        <time>2017-05-17T12:18:25.298</time>
      </trkpt>
      <trkpt lat="48.45198" lon="2.63376">
        <ele>189</ele>
        <time>2017-05-17T12:18:26.294</time>
      </trkpt>
      <trkpt lat="48.45198" lon="2.63376">
        <ele>189</ele>
        <time>2017-05-17T12:18:27.296</time>
      </trkpt>
      <trkpt lat="48.45198" lon="2.63376">
        <ele>189</ele>
        <time>2017-05-17T12:18:28.294</time>
      </trkpt>
      <trkpt lat="48.45198" lon="2.63376">
        <ele>189</ele>
        <time>2017-05-17T12:18:29.294</time>
      </trkpt>
      <trkpt lat="48.45198" lon="2.63376">
        <ele>189</ele>
        <time>2017-05-17T12:18:30.297</time>
      </trkpt>
      <trkpt lat="48.45198" lon="2.63376">
        <ele>189</ele>
        <time>2017-05-17T12:18:31.295</time>
      </trkpt>
      <trkpt lat="48.45198" lon="2.63376">
        <ele>189</ele>
        <time>2017-05-17T12:18:32.295</time>
      </trkpt>
      <trkpt lat="48.45198" lon="2.63376">
        <ele>189</ele>
        <time>2017-05-17T12:18:33.295</time>
      </trkpt>
      <trkpt lat="48.45198" lon="2.63376">
        <ele>189</ele>
        <time>2017-05-17T12:18:34.295</time>
      </trkpt>
      <trkpt lat="48.45198" lon="2.63376">
        <ele>189</ele>
        <time>2017-05-17T12:18:35.297</time>
      </trkpt>
      <trkpt lat="48.45198" lon="2.63376">
        <ele>189</ele>
        <time>2017-05-17T12:18:36.295</time>
      </trkpt>
      <trkpt lat="48.45198" lon="2.63376">
        <ele>189</ele>
        <time>2017-05-17T12:18:37.295</time>
      </trkpt>
      <trkpt lat="48.45198" lon="2.63376">
        <ele>189</ele>
        <time>2017-05-17T12:18:38.295</time>
      </trkpt>
      <trkpt lat="48.45198" lon="2.63376">
        <ele>189</ele>
        <time>2017-05-17T12:18:39.296</time>
      </trkpt>
      <trkpt lat="48.45198" lon="2.63376">
        <ele>189</ele>
        <time>2017-05-17T12:18:40.296</time>
      </trkpt>
      <trkpt lat="48.45198" lon="2.63376">
        <ele>189</ele>
        <time>2017-05-17T12:18:41.295</time>
      </trkpt>
      <trkpt lat="48.45198" lon="2.63376">
        <ele>189</ele>
        <time>2017-05-17T12:18:42.294</time>
      </trkpt>
      <trkpt lat="48.45198" lon="2.63376">
        <ele>189</ele>
        <time>2017-05-17T12:18:43.295</time>
      </trkpt>
      <trkpt lat="48.45198" lon="2.63376">
        <ele>189</ele>
        <time>2017-05-17T12:18:44.294</time>
      </trkpt>
      <trkpt lat="48.45198" lon="2.63376">
        <ele>189</ele>
        <time>2017-05-17T12:18:45.297</time>
      </trkpt>
      <trkpt lat="48.45198" lon="2.63376">
        <ele>189</ele>
        <time>2017-05-17T12:18:46.294</time>
      </trkpt>
      <trkpt lat="48.45198" lon="2.63376">
        <ele>189</ele>
        <time>2017-05-17T12:18:47.296</time>
      </trkpt>
      <trkpt lat="48.45198" lon="2.63376">
        <ele>189</ele>
        <time>2017-05-17T12:18:48.295</time>
      </trkpt>
      <trkpt lat="48.45198" lon="2.63376">
        <ele>189</ele>
        <time>2017-05-17T12:18:49.294</time>
      </trkpt>
      <trkpt lat="48.45197" lon="2.63375">
        <ele>191</ele>
        <time>2017-05-17T12:18:50.293</time>
      </trkpt>
      <trkpt lat="48.45195" lon="2.63373">
        <ele>192</ele>
        <time>2017-05-17T12:18:51.297</time>
      </trkpt>
      <trkpt lat="48.45194" lon="2.63371">
        <ele>195</ele>
        <time>2017-05-17T12:18:52.295</time>
      </trkpt>
      <trkpt lat="48.45194" lon="2.63371">
        <ele>197</ele>
        <time>2017-05-17T12:18:53.296</time>
      </trkpt>
      <trkpt lat="48.45194" lon="2.63372">
        <ele>196</ele>
        <time>2017-05-17T12:18:54.299</time>
      </trkpt>
      <trkpt lat="48.45197" lon="2.63373">
        <ele>196</ele>
        <time>2017-05-17T12:18:55.301</time>
      </trkpt>
      <trkpt lat="48.45194" lon="2.63374">
        <ele>192</ele>
        <time>2017-05-17T12:18:56.300</time>
      </trkpt>
      <trkpt lat="48.45193" lon="2.63375">
        <ele>190</ele>
        <time>2017-05-17T12:18:57.298</time>
      </trkpt>
      <trkpt lat="48.45195" lon="2.63375">
        <ele>193</ele>
        <time>2017-05-17T12:18:58.299</time>
      </trkpt>
      <trkpt lat="48.45195" lon="2.63377">
        <ele>191</ele>
        <time>2017-05-17T12:18:59.301</time>
      </trkpt>
      <trkpt lat="48.45195" lon="2.63377">
        <ele>192</ele>
        <time>2017-05-17T12:19:00.303</time>
      </trkpt>
      <trkpt lat="48.45196" lon="2.63376">
        <ele>192</ele>
        <time>2017-05-17T12:19:01.297</time>
      </trkpt>
      <trkpt lat="48.45196" lon="2.63377">
        <ele>193</ele>
        <time>2017-05-17T12:19:02.298</time>
      </trkpt>
      <trkpt lat="48.45197" lon="2.63377">
        <ele>193</ele>
        <time>2017-05-17T12:19:03.296</time>
      </trkpt>
      <trkpt lat="48.45198" lon="2.63377">
        <ele>194</ele>
        <time>2017-05-17T12:19:04.297</time>
      </trkpt>
      <trkpt lat="48.45199" lon="2.63377">
        <ele>195</ele>
        <time>2017-05-17T12:19:05.299</time>
      </trkpt>
      <trkpt lat="48.452" lon="2.63377">
        <ele>195</ele>
        <time>2017-05-17T12:19:06.345</time>
      </trkpt>
      <trkpt lat="48.452" lon="2.63377">
        <ele>195</ele>
        <time>2017-05-17T12:19:07.289</time>
      </trkpt>
      <trkpt lat="48.452" lon="2.63377">
        <ele>195</ele>
        <time>2017-05-17T12:19:08.288</time>
      </trkpt>
      <trkpt lat="48.452" lon="2.63377">
        <ele>195</ele>
        <time>2017-05-17T12:19:09.288</time>
      </trkpt>
      <trkpt lat="48.452" lon="2.63377">
        <ele>195</ele>
        <time>2017-05-17T12:19:10.288</time>
      </trkpt>
      <trkpt lat="48.452" lon="2.63377">
        <ele>195</ele>
        <time>2017-05-17T12:19:12.082</time>
      </trkpt>
      <trkpt lat="48.452" lon="2.63377">
        <ele>195</ele>
        <time>2017-05-17T12:19:12.290</time>
      </trkpt>
      <trkpt lat="48.452" lon="2.63377">
        <ele>195</ele>
        <time>2017-05-17T12:19:13.291</time>
      </trkpt>
      <trkpt lat="48.452" lon="2.63377">
        <ele>195</ele>
        <time>2017-05-17T12:19:14.290</time>
      </trkpt>
      <trkpt lat="48.452" lon="2.63377">
        <ele>195</ele>
        <time>2017-05-17T12:19:15.291</time>
      </trkpt>
      <trkpt lat="48.45199" lon="2.63377">
        <ele>194</ele>
        <time>2017-05-17T12:19:16.292</time>
      </trkpt>
      <trkpt lat="48.452" lon="2.63377">
        <ele>195</ele>
        <time>2017-05-17T12:19:17.291</time>
      </trkpt>
      <trkpt lat="48.45199" lon="2.63377">
        <ele>194</ele>
        <time>2017-05-17T12:19:18.293</time>
      </trkpt>
      <trkpt lat="48.45198" lon="2.63377">
        <ele>193</ele>
        <time>2017-05-17T12:19:19.293</time>
      </trkpt>
      <trkpt lat="48.45198" lon="2.63377">
        <ele>193</ele>
        <time>2017-05-17T12:19:20.294</time>
      </trkpt>
      <trkpt lat="48.45199" lon="2.63378">
        <ele>193</ele>
        <time>2017-05-17T12:19:21.297</time>
      </trkpt>
      <trkpt lat="48.45199" lon="2.63377">
        <ele>193</ele>
        <time>2017-05-17T12:19:22.292</time>
      </trkpt>
      <trkpt lat="48.45199" lon="2.63377">
        <ele>193</ele>
        <time>2017-05-17T12:19:23.312</time>
      </trkpt>
      <trkpt lat="48.45199" lon="2.63376">
        <ele>193</ele>
        <time>2017-05-17T12:19:24.290</time>
      </trkpt>
      <trkpt lat="48.45199" lon="2.63377">
        <ele>193</ele>
        <time>2017-05-17T12:19:25.292</time>
      </trkpt>
      <trkpt lat="48.45199" lon="2.63376">
        <ele>194</ele>
        <time>2017-05-17T12:19:26.292</time>
      </trkpt>
      <trkpt lat="48.45199" lon="2.63376">
        <ele>194</ele>
        <time>2017-05-17T12:19:27.293</time>
      </trkpt>
      <trkpt lat="48.45199" lon="2.63376">
        <ele>193</ele>
        <time>2017-05-17T12:19:28.294</time>
      </trkpt>
      <trkpt lat="48.45199" lon="2.63376">
        <ele>193</ele>
        <time>2017-05-17T12:19:29.293</time>
      </trkpt>
      <trkpt lat="48.45199" lon="2.63377">
        <ele>194</ele>
        <time>2017-05-17T12:19:30.293</time>
      </trkpt>
      <trkpt lat="48.45198" lon="2.63377">
        <ele>194</ele>
        <time>2017-05-17T12:19:31.294</time>
      </trkpt>
      <trkpt lat="48.45199" lon="2.63376">
        <ele>193</ele>
        <time>2017-05-17T12:19:32.293</time>
      </trkpt>
      <trkpt lat="48.45199" lon="2.63376">
        <ele>194</ele>
        <time>2017-05-17T12:19:33.293</time>
      </trkpt>
      <trkpt lat="48.45199" lon="2.63376">
        <ele>194</ele>
        <time>2017-05-17T12:19:34.294</time>
      </trkpt>
      <trkpt lat="48.45199" lon="2.63376">
        <ele>194</ele>
        <time>2017-05-17T12:19:35.292</time>
      </trkpt>
      <trkpt lat="48.45199" lon="2.63376">
        <ele>194</ele>
        <time>2017-05-17T12:19:36.293</time>
      </trkpt>
      <trkpt lat="48.45199" lon="2.63376">
        <ele>194</ele>
        <time>2017-05-17T12:19:37.293</time>
      </trkpt>
      <trkpt lat="48.45199" lon="2.63376">
        <ele>195</ele>
        <time>2017-05-17T12:19:38.292</time>
      </trkpt>
      <trkpt lat="48.45199" lon="2.63376">
        <ele>195</ele>
        <time>2017-05-17T12:19:39.294</time>
      </trkpt>
      <trkpt lat="48.45199" lon="2.63376">
        <ele>194</ele>
        <time>2017-05-17T12:19:40.294</time>
      </trkpt>
      <trkpt lat="48.45199" lon="2.63376">
        <ele>195</ele>
        <time>2017-05-17T12:19:41.293</time>
      </trkpt>
      <trkpt lat="48.45199" lon="2.63376">
        <ele>195</ele>
        <time>2017-05-17T12:19:42.292</time>
      </trkpt>
      <trkpt lat="48.45199" lon="2.63376">
        <ele>195</ele>
        <time>2017-05-17T12:19:43.293</time>
      </trkpt>
      <trkpt lat="48.45199" lon="2.63376">
        <ele>195</ele>
        <time>2017-05-17T12:19:44.292</time>
      </trkpt>
      <trkpt lat="48.45199" lon="2.63377">
        <ele>196</ele>
        <time>2017-05-17T12:19:45.292</time>
      </trkpt>
      <trkpt lat="48.45199" lon="2.63377">
        <ele>196</ele>
        <time>2017-05-17T12:19:46.293</time>
      </trkpt>
      <trkpt lat="48.45199" lon="2.63376">
        <ele>196</ele>
        <time>2017-05-17T12:19:47.290</time>
      </trkpt>
      <trkpt lat="48.45198" lon="2.63376">
        <ele>196</ele>
        <time>2017-05-17T12:19:48.292</time>
      </trkpt>
      <trkpt lat="48.45198" lon="2.63376">
        <ele>197</ele>
        <time>2017-05-17T12:19:49.293</time>
      </trkpt>
      <trkpt lat="48.45198" lon="2.63376">
        <ele>197</ele>
        <time>2017-05-17T12:19:50.292</time>
      </trkpt>
      <trkpt lat="48.45198" lon="2.63376">
        <ele>197</ele>
        <time>2017-05-17T12:19:51.293</time>
      </trkpt>
      <trkpt lat="48.45198" lon="2.63376">
        <ele>197</ele>
        <time>2017-05-17T12:19:52.293</time>
      </trkpt>
      <trkpt lat="48.45198" lon="2.63376">
        <ele>197</ele>
        <time>2017-05-17T12:19:53.293</time>
      </trkpt>
      <trkpt lat="48.45198" lon="2.63376">
        <ele>197</ele>
        <time>2017-05-17T12:19:54.293</time>
      </trkpt>
      <trkpt lat="48.45198" lon="2.63376">
        <ele>197</ele>
        <time>2017-05-17T12:19:55.292</time>
      </trkpt>
      <trkpt lat="48.45198" lon="2.63376">
        <ele>197</ele>
        <time>2017-05-17T12:19:56.292</time>
      </trkpt>
      <trkpt lat="48.45198" lon="2.63376">
        <ele>197</ele>
        <time>2017-05-17T12:19:57.292</time>
      </trkpt>
      <trkpt lat="48.45198" lon="2.63376">
        <ele>197</ele>
        <time>2017-05-17T12:19:58.293</time>
      </trkpt>
      <trkpt lat="48.45198" lon="2.63376">
        <ele>197</ele>
        <time>2017-05-17T12:19:59.292</time>
      </trkpt>
      <trkpt lat="48.45198" lon="2.63376">
        <ele>197</ele>
        <time>2017-05-17T12:20:00.591</time>
      </trkpt>
      <trkpt lat="48.45198" lon="2.63376">
        <ele>197</ele>
        <time>2017-05-17T12:20:01.292</time>
      </trkpt>
      <trkpt lat="48.45198" lon="2.63376">
        <ele>197</ele>
        <time>2017-05-17T12:20:02.292</time>
      </trkpt>
      <trkpt lat="48.45198" lon="2.63376">
        <ele>197</ele>
        <time>2017-05-17T12:20:03.292</time>
      </trkpt>
      <trkpt lat="48.45198" lon="2.63376">
        <ele>197</ele>
        <time>2017-05-17T12:20:04.292</time>
      </trkpt>
      <trkpt lat="48.45198" lon="2.63376">
        <ele>197</ele>
        <time>2017-05-17T12:20:05.292</time>
      </trkpt>
      <trkpt lat="48.45198" lon="2.63376">
        <ele>197</ele>
        <time>2017-05-17T12:20:06.291</time>
      </trkpt>
      <trkpt lat="48.45198" lon="2.63376">
        <ele>197</ele>
        <time>2017-05-17T12:20:07.293</time>
      </trkpt>
      <trkpt lat="48.45198" lon="2.63376">
        <ele>197</ele>
        <time>2017-05-17T12:20:08.293</time>
      </trkpt>
      <trkpt lat="48.45198" lon="2.63376">
        <ele>197</ele>
        <time>2017-05-17T12:20:09.294</time>
      </trkpt>
      <trkpt lat="48.45199" lon="2.63376">
        <ele>197</ele>
        <time>2017-05-17T12:20:10.294</time>
      </trkpt>
      <trkpt lat="48.45199" lon="2.63376">
        <ele>197</ele>
        <time>2017-05-17T12:20:11.294</time>
      </trkpt>
      <trkpt lat="48.45199" lon="2.63376">
        <ele>197</ele>
        <time>2017-05-17T12:20:12.292</time>
      </trkpt>
      <trkpt lat="48.45199" lon="2.63376">
        <ele>198</ele>
        <time>2017-05-17T12:20:13.291</time>
      </trkpt>
      <trkpt lat="48.45199" lon="2.63376">
        <ele>198</ele>
        <time>2017-05-17T12:20:14.291</time>
      </trkpt>
      <trkpt lat="48.45199" lon="2.63376">
        <ele>198</ele>
        <time>2017-05-17T12:20:15.292</time>
      </trkpt>
      <trkpt lat="48.45199" lon="2.63376">
        <ele>198</ele>
        <time>2017-05-17T12:20:16.293</time>
      </trkpt>
      <trkpt lat="48.45199" lon="2.63376">
        <ele>197</ele>
        <time>2017-05-17T12:20:17.294</time>
      </trkpt>
      <trkpt lat="48.45199" lon="2.63376">
        <ele>198</ele>
        <time>2017-05-17T12:20:18.297</time>
      </trkpt>
      <trkpt lat="48.45199" lon="2.63376">
        <ele>198</ele>
        <time>2017-05-17T12:20:19.297</time>
      </trkpt>
      <trkpt lat="48.452" lon="2.63376">
        <ele>198</ele>
        <time>2017-05-17T12:20:20.294</time>
      </trkpt>
      <trkpt lat="48.452" lon="2.63376">
        <ele>197</ele>
        <time>2017-05-17T12:20:21.293</time>
      </trkpt>
      <trkpt lat="48.45199" lon="2.63376">
        <ele>197</ele>
        <time>2017-05-17T12:20:22.292</time>
      </trkpt>
      <trkpt lat="48.45199" lon="2.63376">
        <ele>197</ele>
        <time>2017-05-17T12:20:23.293</time>
      </trkpt>
      <trkpt lat="48.45199" lon="2.63377">
        <ele>197</ele>
        <time>2017-05-17T12:20:24.293</time>
      </trkpt>
      <trkpt lat="48.45199" lon="2.63377">
        <ele>197</ele>
        <time>2017-05-17T12:20:25.292</time>
      </trkpt>
      <trkpt lat="48.452" lon="2.63377">
        <ele>197</ele>
        <time>2017-05-17T12:20:26.293</time>
      </trkpt>
      <trkpt lat="48.452" lon="2.63377">
        <ele>197</ele>
        <time>2017-05-17T12:20:27.292</time>
      </trkpt>
      <trkpt lat="48.452" lon="2.63378">
        <ele>197</ele>
        <time>2017-05-17T12:20:28.292</time>
      </trkpt>
      <trkpt lat="48.452" lon="2.63377">
        <ele>198</ele>
        <time>2017-05-17T12:20:29.292</time>
      </trkpt>
      <trkpt lat="48.452" lon="2.63378">
        <ele>198</ele>
        <time>2017-05-17T12:20:30.293</time>
      </trkpt>
      <trkpt lat="48.452" lon="2.63378">
        <ele>198</ele>
        <time>2017-05-17T12:20:31.292</time>
      </trkpt>
      <trkpt lat="48.452" lon="2.63378">
        <ele>198</ele>
        <time>2017-05-17T12:20:32.293</time>
      </trkpt>
      <trkpt lat="48.452" lon="2.63378">
        <ele>198</ele>
        <time>2017-05-17T12:20:33.292</time>
      </trkpt>
      <trkpt lat="48.452" lon="2.63378">
        <ele>198</ele>
        <time>2017-05-17T12:20:34.294</time>
      </trkpt>
      <trkpt lat="48.452" lon="2.63378">
        <ele>198</ele>
        <time>2017-05-17T12:20:35.292</time>
      </trkpt>
      <trkpt lat="48.452" lon="2.63378">
        <ele>198</ele>
        <time>2017-05-17T12:20:36.291</time>
      </trkpt>
      <trkpt lat="48.452" lon="2.63378">
        <ele>198</ele>
        <time>2017-05-17T12:20:37.292</time>
      </trkpt>
      <trkpt lat="48.452" lon="2.63378">
        <ele>198</ele>
        <time>2017-05-17T12:20:38.294</time>
      </trkpt>
      <trkpt lat="48.452" lon="2.63378">
        <ele>198</ele>
        <time>2017-05-17T12:20:39.292</time>
      </trkpt>
      <trkpt lat="48.452" lon="2.63378">
        <ele>198</ele>
        <time>2017-05-17T12:20:40.294</time>
      </trkpt>
      <trkpt lat="48.452" lon="2.63378">
        <ele>198</ele>
        <time>2017-05-17T12:20:41.293</time>
      </trkpt>
      <trkpt lat="48.452" lon="2.63378">
        <ele>198</ele>
        <time>2017-05-17T12:20:42.292</time>
      </trkpt>
      <trkpt lat="48.452" lon="2.63378">
        <ele>198</ele>
        <time>2017-05-17T12:20:43.293</time>
      </trkpt>
      <trkpt lat="48.45199" lon="2.63377">
        <ele>198</ele>
        <time>2017-05-17T12:20:44.294</time>
      </trkpt>
      <trkpt lat="48.45199" lon="2.63378">
        <ele>198</ele>
        <time>2017-05-17T12:20:45.295</time>
      </trkpt>
      <trkpt lat="48.45199" lon="2.63378">
        <ele>198</ele>
        <time>2017-05-17T12:20:46.295</time>
      </trkpt>
      <trkpt lat="48.45198" lon="2.63378">
        <ele>198</ele>
        <time>2017-05-17T12:20:47.292</time>
      </trkpt>
      <trkpt lat="48.45198" lon="2.63379">
        <ele>199</ele>
        <time>2017-05-17T12:20:48.294</time>
      </trkpt>
      <trkpt lat="48.45198" lon="2.63379">
        <ele>199</ele>
        <time>2017-05-17T12:20:49.294</time>
      </trkpt>
      <trkpt lat="48.45198" lon="2.63379">
        <ele>199</ele>
        <time>2017-05-17T12:20:50.295</time>
      </trkpt>
      <trkpt lat="48.45198" lon="2.6338">
        <ele>199</ele>
        <time>2017-05-17T12:20:51.295</time>
      </trkpt>
      <trkpt lat="48.45198" lon="2.6338">
        <ele>199</ele>
        <time>2017-05-17T12:20:52.293</time>
      </trkpt>
      <trkpt lat="48.45197" lon="2.6338">
        <ele>199</ele>
        <time>2017-05-17T12:20:53.292</time>
      </trkpt>
      <trkpt lat="48.45197" lon="2.6338">
        <ele>199</ele>
        <time>2017-05-17T12:20:54.292</time>
      </trkpt>
      <trkpt lat="48.45198" lon="2.63381">
        <ele>199</ele>
        <time>2017-05-17T12:20:55.292</time>
      </trkpt>
      <trkpt lat="48.45198" lon="2.63381">
        <ele>199</ele>
        <time>2017-05-17T12:20:56.291</time>
      </trkpt>
      <trkpt lat="48.45197" lon="2.63381">
        <ele>199</ele>
        <time>2017-05-17T12:20:57.293</time>
      </trkpt>
      <trkpt lat="48.45197" lon="2.63381">
        <ele>199</ele>
        <time>2017-05-17T12:20:58.293</time>
      </trkpt>
      <trkpt lat="48.45197" lon="2.63381">
        <ele>199</ele>
        <time>2017-05-17T12:20:59.293</time>
      </trkpt>
      <trkpt lat="48.45197" lon="2.63381">
        <ele>199</ele>
        <time>2017-05-17T12:21:00.302</time>
      </trkpt>
      <trkpt lat="48.45197" lon="2.63381">
        <ele>199</ele>
        <time>2017-05-17T12:21:01.293</time>
      </trkpt>
      <trkpt lat="48.45197" lon="2.63382">
        <ele>199</ele>
        <time>2017-05-17T12:21:02.294</time>
      </trkpt>
      <trkpt lat="48.45197" lon="2.63382">
        <ele>199</ele>
        <time>2017-05-17T12:21:03.293</time>
      </trkpt>
      <trkpt lat="48.45198" lon="2.63382">
        <ele>199</ele>
        <time>2017-05-17T12:21:04.293</time>
      </trkpt>
      <trkpt lat="48.45198" lon="2.63382">
        <ele>200</ele>
        <time>2017-05-17T12:21:05.292</time>
      </trkpt>
      <trkpt lat="48.45198" lon="2.63381">
        <ele>199</ele>
        <time>2017-05-17T12:21:06.294</time>
      </trkpt>
      <trkpt lat="48.45198" lon="2.6338">
        <ele>199</ele>
        <time>2017-05-17T12:21:07.291</time>
      </trkpt>
      <trkpt lat="48.45198" lon="2.6338">
        <ele>199</ele>
        <time>2017-05-17T12:21:08.291</time>
      </trkpt>
      <trkpt lat="48.45198" lon="2.6338">
        <ele>199</ele>
        <time>2017-05-17T12:21:09.292</time>
      </trkpt>
      <trkpt lat="48.45198" lon="2.6338">
        <ele>199</ele>
        <time>2017-05-17T12:21:10.293</time>
      </trkpt>
      <trkpt lat="48.45199" lon="2.6338">
        <ele>199</ele>
        <time>2017-05-17T12:21:11.291</time>
      </trkpt>
      <trkpt lat="48.45199" lon="2.6338">
        <ele>199</ele>
        <time>2017-05-17T12:21:12.292</time>
      </trkpt>
      <trkpt lat="48.45199" lon="2.63379">
        <ele>199</ele>
        <time>2017-05-17T12:21:13.291</time>
      </trkpt>
      <trkpt lat="48.45199" lon="2.63379">
        <ele>199</ele>
        <time>2017-05-17T12:21:14.291</time>
      </trkpt>
      <trkpt lat="48.45199" lon="2.63379">
        <ele>199</ele>
        <time>2017-05-17T12:21:15.291</time>
      </trkpt>
      <trkpt lat="48.45199" lon="2.63379">
        <ele>199</ele>
        <time>2017-05-17T12:21:16.292</time>
      </trkpt>
      <trkpt lat="48.45199" lon="2.63379">
        <ele>199</ele>
        <time>2017-05-17T12:21:17.293</time>
      </trkpt>
      <trkpt lat="48.45199" lon="2.63379">
        <ele>199</ele>
        <time>2017-05-17T12:21:18.293</time>
      </trkpt>
      <trkpt lat="48.45199" lon="2.63379">
        <ele>199</ele>
        <time>2017-05-17T12:21:19.291</time>
      </trkpt>
      <trkpt lat="48.45199" lon="2.63379">
        <ele>199</ele>
        <time>2017-05-17T12:21:20.291</time>
      </trkpt>
      <trkpt lat="48.45199" lon="2.6338">
        <ele>199</ele>
        <time>2017-05-17T12:21:21.293</time>
      </trkpt>
      <trkpt lat="48.45199" lon="2.6338">
        <ele>200</ele>
        <time>2017-05-17T12:21:22.292</time>
      </trkpt>
      <trkpt lat="48.45198" lon="2.6338">
        <ele>199</ele>
        <time>2017-05-17T12:21:23.291</time>
      </trkpt>
      <trkpt lat="48.45199" lon="2.6338">
        <ele>199</ele>
        <time>2017-05-17T12:21:24.291</time>
      </trkpt>
      <trkpt lat="48.45199" lon="2.63381">
        <ele>199</ele>
        <time>2017-05-17T12:21:25.290</time>
      </trkpt>
      <trkpt lat="48.45199" lon="2.63381">
        <ele>199</ele>
        <time>2017-05-17T12:21:26.290</time>
      </trkpt>
      <trkpt lat="48.45199" lon="2.63381">
        <ele>199</ele>
        <time>2017-05-17T12:21:27.290</time>
      </trkpt>
      <trkpt lat="48.45199" lon="2.63381">
        <ele>199</ele>
        <time>2017-05-17T12:21:28.291</time>
      </trkpt>
      <trkpt lat="48.45198" lon="2.63381">
        <ele>199</ele>
        <time>2017-05-17T12:21:29.291</time>
      </trkpt>
      <trkpt lat="48.45198" lon="2.63382">
        <ele>200</ele>
        <time>2017-05-17T12:21:30.293</time>
      </trkpt>
      <trkpt lat="48.45198" lon="2.63383">
        <ele>200</ele>
        <time>2017-05-17T12:21:31.295</time>
      </trkpt>
      <trkpt lat="48.45197" lon="2.63385">
        <ele>200</ele>
        <time>2017-05-17T12:21:32.296</time>
      </trkpt>
      <trkpt lat="48.45196" lon="2.63386">
        <ele>200</ele>
        <time>2017-05-17T12:21:33.294</time>
      </trkpt>
      <trkpt lat="48.45196" lon="2.63387">
        <ele>200</ele>
        <time>2017-05-17T12:21:34.292</time>
      </trkpt>
      <trkpt lat="48.45195" lon="2.63388">
        <ele>200</ele>
        <time>2017-05-17T12:21:35.293</time>
      </trkpt>
      <trkpt lat="48.45195" lon="2.6339">
        <ele>199</ele>
        <time>2017-05-17T12:21:36.293</time>
      </trkpt>
      <trkpt lat="48.45194" lon="2.63392">
        <ele>199</ele>
        <time>2017-05-17T12:21:37.293</time>
      </trkpt>
      <trkpt lat="48.45194" lon="2.63393">
        <ele>199</ele>
        <time>2017-05-17T12:21:38.293</time>
      </trkpt>
      <trkpt lat="48.45194" lon="2.63395">
        <ele>199</ele>
        <time>2017-05-17T12:21:39.293</time>
      </trkpt>
      <trkpt lat="48.45193" lon="2.63398">
        <ele>199</ele>
        <time>2017-05-17T12:21:40.294</time>
      </trkpt>
      <trkpt lat="48.45194" lon="2.63399">
        <ele>198</ele>
        <time>2017-05-17T12:21:41.299</time>
      </trkpt>
      <trkpt lat="48.45194" lon="2.63401">
        <ele>198</ele>
        <time>2017-05-17T12:21:42.296</time>
      </trkpt>
      <trkpt lat="48.45195" lon="2.63403">
        <ele>197</ele>
        <time>2017-05-17T12:21:43.298</time>
      </trkpt>
      <trkpt lat="48.45195" lon="2.63403">
        <ele>197</ele>
        <time>2017-05-17T12:21:44.297</time>
      </trkpt>
      <trkpt lat="48.45196" lon="2.63403">
        <ele>196</ele>
        <time>2017-05-17T12:21:45.300</time>
      </trkpt>
      <trkpt lat="48.45197" lon="2.63403">
        <ele>196</ele>
        <time>2017-05-17T12:21:46.298</time>
      </trkpt>
      <trkpt lat="48.45197" lon="2.63404">
        <ele>196</ele>
        <time>2017-05-17T12:21:47.302</time>
      </trkpt>
      <trkpt lat="48.45198" lon="2.63406">
        <ele>196</ele>
        <time>2017-05-17T12:21:48.301</time>
      </trkpt>
      <trkpt lat="48.45199" lon="2.63408">
        <ele>195</ele>
        <time>2017-05-17T12:21:49.301</time>
      </trkpt>
      <trkpt lat="48.452" lon="2.63409">
        <ele>195</ele>
        <time>2017-05-17T12:21:50.300</time>
      </trkpt>
      <trkpt lat="48.45201" lon="2.63411">
        <ele>195</ele>
        <time>2017-05-17T12:21:51.297</time>
      </trkpt>
      <trkpt lat="48.45201" lon="2.63414">
        <ele>195</ele>
        <time>2017-05-17T12:21:52.295</time>
      </trkpt>
      <trkpt lat="48.45201" lon="2.63415">
        <ele>195</ele>
        <time>2017-05-17T12:21:53.295</time>
      </trkpt>
      <trkpt lat="48.45202" lon="2.63417">
        <ele>195</ele>
        <time>2017-05-17T12:21:54.294</time>
      </trkpt>
      <trkpt lat="48.45202" lon="2.63419">
        <ele>195</ele>
        <time>2017-05-17T12:21:55.294</time>
      </trkpt>
      <trkpt lat="48.45203" lon="2.63423">
        <ele>195</ele>
        <time>2017-05-17T12:21:56.294</time>
      </trkpt>
      <trkpt lat="48.45202" lon="2.63428">
        <ele>194</ele>
        <time>2017-05-17T12:21:57.293</time>
      </trkpt>
      <trkpt lat="48.45202" lon="2.63432">
        <ele>194</ele>
        <time>2017-05-17T12:21:58.296</time>
      </trkpt>
      <trkpt lat="48.45203" lon="2.63436">
        <ele>195</ele>
        <time>2017-05-17T12:21:59.296</time>
      </trkpt>
      <trkpt lat="48.45204" lon="2.6344">
        <ele>195</ele>
        <time>2017-05-17T12:22:00.425</time>
      </trkpt>
      <trkpt lat="48.45204" lon="2.63445">
        <ele>195</ele>
        <time>2017-05-17T12:22:01.295</time>
      </trkpt>
      <trkpt lat="48.45204" lon="2.63451">
        <ele>195</ele>
        <time>2017-05-17T12:22:02.294</time>
      </trkpt>
      <trkpt lat="48.45203" lon="2.63456">
        <ele>194</ele>
        <time>2017-05-17T12:22:03.295</time>
      </trkpt>
      <trkpt lat="48.45202" lon="2.63461">
        <ele>194</ele>
        <time>2017-05-17T12:22:04.295</time>
      </trkpt>
      <trkpt lat="48.45202" lon="2.63467">
        <ele>194</ele>
        <time>2017-05-17T12:22:05.295</time>
      </trkpt>
      <trkpt lat="48.45201" lon="2.63472">
        <ele>194</ele>
        <time>2017-05-17T12:22:06.293</time>
      </trkpt>
      <trkpt lat="48.452" lon="2.63477">
        <ele>193</ele>
        <time>2017-05-17T12:22:07.294</time>
      </trkpt>
      <trkpt lat="48.452" lon="2.63483">
        <ele>193</ele>
        <time>2017-05-17T12:22:08.294</time>
      </trkpt>
      <trkpt lat="48.45199" lon="2.63488">
        <ele>192</ele>
        <time>2017-05-17T12:22:09.295</time>
      </trkpt>
      <trkpt lat="48.45198" lon="2.63493">
        <ele>192</ele>
        <time>2017-05-17T12:22:10.298</time>
      </trkpt>
      <trkpt lat="48.45197" lon="2.63498">
        <ele>192</ele>
        <time>2017-05-17T12:22:11.297</time>
      </trkpt>
      <trkpt lat="48.45196" lon="2.63504">
        <ele>191</ele>
        <time>2017-05-17T12:22:12.296</time>
      </trkpt>
      <trkpt lat="48.45196" lon="2.6351">
        <ele>192</ele>
        <time>2017-05-17T12:22:13.294</time>
      </trkpt>
      <trkpt lat="48.45196" lon="2.63517">
        <ele>192</ele>
        <time>2017-05-17T12:22:14.295</time>
      </trkpt>
      <trkpt lat="48.45196" lon="2.63522">
        <ele>191</ele>
        <time>2017-05-17T12:22:15.295</time>
      </trkpt>
      <trkpt lat="48.45197" lon="2.63527">
        <ele>191</ele>
        <time>2017-05-17T12:22:16.294</time>
      </trkpt>
      <trkpt lat="48.45198" lon="2.63532">
        <ele>190</ele>
        <time>2017-05-17T12:22:17.294</time>
      </trkpt>
      <trkpt lat="48.45198" lon="2.63538">
        <ele>190</ele>
        <time>2017-05-17T12:22:18.296</time>
      </trkpt>
      <trkpt lat="48.45198" lon="2.63543">
        <ele>190</ele>
        <time>2017-05-17T12:22:19.296</time>
      </trkpt>
      <trkpt lat="48.45198" lon="2.63549">
        <ele>190</ele>
        <time>2017-05-17T12:22:20.297</time>
      </trkpt>
      <trkpt lat="48.45198" lon="2.63553">
        <ele>190</ele>
        <time>2017-05-17T12:22:21.296</time>
      </trkpt>
      <trkpt lat="48.45198" lon="2.63558">
        <ele>191</ele>
        <time>2017-05-17T12:22:22.295</time>
      </trkpt>
      <trkpt lat="48.45199" lon="2.63562">
        <ele>191</ele>
        <time>2017-05-17T12:22:23.294</time>
      </trkpt>
      <trkpt lat="48.452" lon="2.63565">
        <ele>189</ele>
        <time>2017-05-17T12:22:24.296</time>
      </trkpt>
      <trkpt lat="48.45203" lon="2.63566">
        <ele>188</ele>
        <time>2017-05-17T12:22:25.296</time>
      </trkpt>
      <trkpt lat="48.45205" lon="2.63569">
        <ele>188</ele>
        <time>2017-05-17T12:22:26.293</time>
      </trkpt>
      <trkpt lat="48.45209" lon="2.6357">
        <ele>188</ele>
        <time>2017-05-17T12:22:27.295</time>
      </trkpt>
      <trkpt lat="48.45212" lon="2.6357">
        <ele>189</ele>
        <time>2017-05-17T12:22:28.296</time>
      </trkpt>
      <trkpt lat="48.45215" lon="2.63572">
        <ele>188</ele>
        <time>2017-05-17T12:22:29.295</time>
      </trkpt>
      <trkpt lat="48.45218" lon="2.63575">
        <ele>188</ele>
        <time>2017-05-17T12:22:30.294</time>
      </trkpt>
      <trkpt lat="48.45225" lon="2.63575">
        <ele>186</ele>
        <time>2017-05-17T12:22:31.296</time>
      </trkpt>
      <trkpt lat="48.45231" lon="2.63573">
        <ele>184</ele>
        <time>2017-05-17T12:22:32.293</time>
      </trkpt>
      <trkpt lat="48.45236" lon="2.6357">
        <ele>185</ele>
        <time>2017-05-17T12:22:33.294</time>
      </trkpt>
      <trkpt lat="48.45239" lon="2.63565">
        <ele>183</ele>
        <time>2017-05-17T12:22:34.294</time>
      </trkpt>
      <trkpt lat="48.45243" lon="2.63558">
        <ele>182</ele>
        <time>2017-05-17T12:22:35.293</time>
      </trkpt>
      <trkpt lat="48.4525" lon="2.63551">
        <ele>181</ele>
        <time>2017-05-17T12:22:36.294</time>
      </trkpt>
      <trkpt lat="48.45256" lon="2.6354">
        <ele>180</ele>
        <time>2017-05-17T12:22:37.294</time>
      </trkpt>
      <trkpt lat="48.45261" lon="2.63532">
        <ele>180</ele>
        <time>2017-05-17T12:22:38.293</time>
      </trkpt>
      <trkpt lat="48.45266" lon="2.63524">
        <ele>180</ele>
        <time>2017-05-17T12:22:39.295</time>
      </trkpt>
      <trkpt lat="48.45272" lon="2.63516">
        <ele>179</ele>
        <time>2017-05-17T12:22:40.295</time>
      </trkpt>
      <trkpt lat="48.45278" lon="2.63511">
        <ele>177</ele>
        <time>2017-05-17T12:22:41.294</time>
      </trkpt>
      <trkpt lat="48.45283" lon="2.63502">
        <ele>177</ele>
        <time>2017-05-17T12:22:42.294</time>
      </trkpt>
      <trkpt lat="48.45288" lon="2.63495">
        <ele>176</ele>
        <time>2017-05-17T12:22:43.294</time>
      </trkpt>
      <trkpt lat="48.45292" lon="2.63489">
        <ele>175</ele>
        <time>2017-05-17T12:22:44.294</time>
      </trkpt>
      <trkpt lat="48.45296" lon="2.63479">
        <ele>175</ele>
        <time>2017-05-17T12:22:45.294</time>
      </trkpt>
      <trkpt lat="48.45301" lon="2.63469">
        <ele>174</ele>
        <time>2017-05-17T12:22:46.293</time>
      </trkpt>
      <trkpt lat="48.45307" lon="2.63463">
        <ele>172</ele>
        <time>2017-05-17T12:22:47.294</time>
      </trkpt>
      <trkpt lat="48.45313" lon="2.63455">
        <ele>171</ele>
        <time>2017-05-17T12:22:48.293</time>
      </trkpt>
      <trkpt lat="48.45318" lon="2.63448">
        <ele>170</ele>
        <time>2017-05-17T12:22:49.293</time>
      </trkpt>
      <trkpt lat="48.45324" lon="2.63442">
        <ele>168</ele>
        <time>2017-05-17T12:22:50.294</time>
      </trkpt>
      <trkpt lat="48.45329" lon="2.63435">
        <ele>168</ele>
        <time>2017-05-17T12:22:51.295</time>
      </trkpt>
      <trkpt lat="48.45333" lon="2.63426">
        <ele>167</ele>
        <time>2017-05-17T12:22:52.294</time>
      </trkpt>
      <trkpt lat="48.45339" lon="2.63417">
        <ele>167</ele>
        <time>2017-05-17T12:22:53.295</time>
      </trkpt>
      <trkpt lat="48.45346" lon="2.63409">
        <ele>166</ele>
        <time>2017-05-17T12:22:54.295</time>
      </trkpt>
      <trkpt lat="48.45353" lon="2.634">
        <ele>164</ele>
        <time>2017-05-17T12:22:55.293</time>
      </trkpt>
      <trkpt lat="48.4536" lon="2.63391">
        <ele>163</ele>
        <time>2017-05-17T12:22:56.294</time>
      </trkpt>
      <trkpt lat="48.45367" lon="2.63381">
        <ele>162</ele>
        <time>2017-05-17T12:22:57.296</time>
      </trkpt>
      <trkpt lat="48.45374" lon="2.63371">
        <ele>161</ele>
        <time>2017-05-17T12:22:58.296</time>
      </trkpt>
      <trkpt lat="48.45381" lon="2.63361">
        <ele>160</ele>
        <time>2017-05-17T12:22:59.294</time>
      </trkpt>
      <trkpt lat="48.45388" lon="2.6335">
        <ele>160</ele>
        <time>2017-05-17T12:23:00.295</time>
      </trkpt>
      <trkpt lat="48.45394" lon="2.6334">
        <ele>160</ele>
        <time>2017-05-17T12:23:01.295</time>
      </trkpt>
      <trkpt lat="48.45399" lon="2.63331">
        <ele>159</ele>
        <time>2017-05-17T12:23:02.294</time>
      </trkpt>
      <trkpt lat="48.45404" lon="2.63325">
        <ele>159</ele>
        <time>2017-05-17T12:23:03.295</time>
      </trkpt>
      <trkpt lat="48.45407" lon="2.63324">
        <ele>158</ele>
        <time>2017-05-17T12:23:04.294</time>
      </trkpt>
      <trkpt lat="48.45409" lon="2.63325">
        <ele>158</ele>
        <time>2017-05-17T12:23:05.294</time>
      </trkpt>
      <trkpt lat="48.45411" lon="2.63326">
        <ele>158</ele>
        <time>2017-05-17T12:23:06.295</time>
      </trkpt>
      <trkpt lat="48.45412" lon="2.63331">
        <ele>157</ele>
        <time>2017-05-17T12:23:07.295</time>
      </trkpt>
      <trkpt lat="48.45413" lon="2.63335">
        <ele>156</ele>
        <time>2017-05-17T12:23:08.296</time>
      </trkpt>
      <trkpt lat="48.45415" lon="2.6334">
        <ele>156</ele>
        <time>2017-05-17T12:23:09.296</time>
      </trkpt>
      <trkpt lat="48.45417" lon="2.63344">
        <ele>157</ele>
        <time>2017-05-17T12:23:10.294</time>
      </trkpt>
      <trkpt lat="48.4542" lon="2.63348">
        <ele>157</ele>
        <time>2017-05-17T12:23:11.293</time>
      </trkpt>
      <trkpt lat="48.45422" lon="2.63352">
        <ele>157</ele>
        <time>2017-05-17T12:23:12.294</time>
      </trkpt>
      <trkpt lat="48.45424" lon="2.63356">
        <ele>157</ele>
        <time>2017-05-17T12:23:13.295</time>
      </trkpt>
      <trkpt lat="48.45426" lon="2.63361">
        <ele>157</ele>
        <time>2017-05-17T12:23:14.294</time>
      </trkpt>
      <trkpt lat="48.45429" lon="2.63365">
        <ele>156</ele>
        <time>2017-05-17T12:23:15.294</time>
      </trkpt>
      <trkpt lat="48.45432" lon="2.6337">
        <ele>156</ele>
        <time>2017-05-17T12:23:16.293</time>
      </trkpt>
      <trkpt lat="48.45436" lon="2.63375">
        <ele>157</ele>
        <time>2017-05-17T12:23:17.294</time>
      </trkpt>
      <trkpt lat="48.45438" lon="2.63382">
        <ele>157</ele>
        <time>2017-05-17T12:23:18.294</time>
      </trkpt>
      <trkpt lat="48.45441" lon="2.63388">
        <ele>157</ele>
        <time>2017-05-17T12:23:19.294</time>
      </trkpt>
      <trkpt lat="48.45443" lon="2.63396">
        <ele>157</ele>
        <time>2017-05-17T12:23:20.294</time>
      </trkpt>
      <trkpt lat="48.45447" lon="2.63403">
        <ele>156</ele>
        <time>2017-05-17T12:23:21.294</time>
      </trkpt>
      <trkpt lat="48.45449" lon="2.6341">
        <ele>156</ele>
        <time>2017-05-17T12:23:22.292</time>
      </trkpt>
      <trkpt lat="48.45452" lon="2.63417">
        <ele>156</ele>
        <time>2017-05-17T12:23:23.291</time>
      </trkpt>
      <trkpt lat="48.45455" lon="2.63423">
        <ele>156</ele>
        <time>2017-05-17T12:23:24.292</time>
      </trkpt>
      <trkpt lat="48.45459" lon="2.63429">
        <ele>157</ele>
        <time>2017-05-17T12:23:25.291</time>
      </trkpt>
      <trkpt lat="48.45462" lon="2.63436">
        <ele>157</ele>
        <time>2017-05-17T12:23:26.292</time>
      </trkpt>
      <trkpt lat="48.45465" lon="2.63443">
        <ele>157</ele>
        <time>2017-05-17T12:23:27.293</time>
      </trkpt>
      <trkpt lat="48.45469" lon="2.6345">
        <ele>157</ele>
        <time>2017-05-17T12:23:28.294</time>
      </trkpt>
      <trkpt lat="48.45473" lon="2.63455">
        <ele>158</ele>
        <time>2017-05-17T12:23:29.294</time>
      </trkpt>
      <trkpt lat="48.45477" lon="2.63462">
        <ele>159</ele>
        <time>2017-05-17T12:23:30.294</time>
      </trkpt>
      <trkpt lat="48.45479" lon="2.6347">
        <ele>158</ele>
        <time>2017-05-17T12:23:31.293</time>
      </trkpt>
      <trkpt lat="48.45484" lon="2.63475">
        <ele>160</ele>
        <time>2017-05-17T12:23:32.294</time>
      </trkpt>
      <trkpt lat="48.45487" lon="2.63479">
        <ele>161</ele>
        <time>2017-05-17T12:23:33.294</time>
      </trkpt>
      <trkpt lat="48.45491" lon="2.63483">
        <ele>160</ele>
        <time>2017-05-17T12:23:34.293</time>
      </trkpt>
      <trkpt lat="48.45494" lon="2.63488">
        <ele>160</ele>
        <time>2017-05-17T12:23:35.293</time>
      </trkpt>
      <trkpt lat="48.45498" lon="2.6349">
        <ele>159</ele>
        <time>2017-05-17T12:23:36.294</time>
      </trkpt>
      <trkpt lat="48.45502" lon="2.63495">
        <ele>159</ele>
        <time>2017-05-17T12:23:37.294</time>
      </trkpt>
      <trkpt lat="48.45507" lon="2.63498">
        <ele>159</ele>
        <time>2017-05-17T12:23:38.293</time>
      </trkpt>
      <trkpt lat="48.45511" lon="2.63502">
        <ele>158</ele>
        <time>2017-05-17T12:23:39.293</time>
      </trkpt>
      <trkpt lat="48.45515" lon="2.63506">
        <ele>158</ele>
        <time>2017-05-17T12:23:40.292</time>
      </trkpt>
      <trkpt lat="48.45519" lon="2.63509">
        <ele>158</ele>
        <time>2017-05-17T12:23:41.293</time>
      </trkpt>
      <trkpt lat="48.45524" lon="2.63512">
        <ele>159</ele>
        <time>2017-05-17T12:23:42.294</time>
      </trkpt>
      <trkpt lat="48.45529" lon="2.63514">
        <ele>159</ele>
        <time>2017-05-17T12:23:43.294</time>
      </trkpt>
      <trkpt lat="48.45532" lon="2.63517">
        <ele>159</ele>
        <time>2017-05-17T12:23:44.294</time>
      </trkpt>
      <trkpt lat="48.45534" lon="2.63521">
        <ele>159</ele>
        <time>2017-05-17T12:23:45.293</time>
      </trkpt>
      <trkpt lat="48.45539" lon="2.63524">
        <ele>159</ele>
        <time>2017-05-17T12:23:46.294</time>
      </trkpt>
      <trkpt lat="48.45543" lon="2.63527">
        <ele>159</ele>
        <time>2017-05-17T12:23:47.296</time>
      </trkpt>
      <trkpt lat="48.45545" lon="2.63531">
        <ele>159</ele>
        <time>2017-05-17T12:23:48.293</time>
      </trkpt>
      <trkpt lat="48.45549" lon="2.63533">
        <ele>159</ele>
        <time>2017-05-17T12:23:49.295</time>
      </trkpt>
      <trkpt lat="48.45555" lon="2.63535">
        <ele>160</ele>
        <time>2017-05-17T12:23:50.294</time>
      </trkpt>
      <trkpt lat="48.45557" lon="2.63538">
        <ele>160</ele>
        <time>2017-05-17T12:23:51.295</time>
      </trkpt>
      <trkpt lat="48.45561" lon="2.6354">
        <ele>160</ele>
        <time>2017-05-17T12:23:52.294</time>
      </trkpt>
      <trkpt lat="48.45564" lon="2.63544">
        <ele>160</ele>
        <time>2017-05-17T12:23:53.295</time>
      </trkpt>
      <trkpt lat="48.45568" lon="2.63546">
        <ele>161</ele>
        <time>2017-05-17T12:23:54.292</time>
      </trkpt>
      <trkpt lat="48.45571" lon="2.63548">
        <ele>161</ele>
        <time>2017-05-17T12:23:55.293</time>
      </trkpt>
      <trkpt lat="48.45575" lon="2.63551">
        <ele>161</ele>
        <time>2017-05-17T12:23:56.293</time>
      </trkpt>
      <trkpt lat="48.45579" lon="2.63554">
        <ele>161</ele>
        <time>2017-05-17T12:23:57.294</time>
      </trkpt>
      <trkpt lat="48.45582" lon="2.63557">
        <ele>161</ele>
        <time>2017-05-17T12:23:58.294</time>
      </trkpt>
      <trkpt lat="48.45586" lon="2.6356">
        <ele>160</ele>
        <time>2017-05-17T12:23:59.292</time>
      </trkpt>
      <trkpt lat="48.45589" lon="2.63563">
        <ele>159</ele>
        <time>2017-05-17T12:24:00.294</time>
      </trkpt>
      <trkpt lat="48.45593" lon="2.63567">
        <ele>159</ele>
        <time>2017-05-17T12:24:01.297</time>
      </trkpt>
      <trkpt lat="48.45597" lon="2.63571">
        <ele>158</ele>
        <time>2017-05-17T12:24:02.295</time>
      </trkpt>
      <trkpt lat="48.45601" lon="2.63574">
        <ele>157</ele>
        <time>2017-05-17T12:24:03.294</time>
      </trkpt>
      <trkpt lat="48.45606" lon="2.63578">
        <ele>157</ele>
        <time>2017-05-17T12:24:04.293</time>
      </trkpt>
      <trkpt lat="48.45611" lon="2.63581">
        <ele>158</ele>
        <time>2017-05-17T12:24:05.293</time>
      </trkpt>
      <trkpt lat="48.45614" lon="2.63585">
        <ele>158</ele>
        <time>2017-05-17T12:24:06.295</time>
      </trkpt>
      <trkpt lat="48.45619" lon="2.63587">
        <ele>158</ele>
        <time>2017-05-17T12:24:07.295</time>
      </trkpt>
      <trkpt lat="48.45623" lon="2.63591">
        <ele>158</ele>
        <time>2017-05-17T12:24:08.294</time>
      </trkpt>
      <trkpt lat="48.45628" lon="2.63593">
        <ele>159</ele>
        <time>2017-05-17T12:24:09.294</time>
      </trkpt>
      <trkpt lat="48.45633" lon="2.63597">
        <ele>159</ele>
        <time>2017-05-17T12:24:10.295</time>
      </trkpt>
      <trkpt lat="48.45638" lon="2.636">
        <ele>158</ele>
        <time>2017-05-17T12:24:11.294</time>
      </trkpt>
      <trkpt lat="48.45644" lon="2.63604">
        <ele>159</ele>
        <time>2017-05-17T12:24:12.294</time>
      </trkpt>
      <trkpt lat="48.4565" lon="2.63608">
        <ele>160</ele>
        <time>2017-05-17T12:24:13.296</time>
      </trkpt>
      <trkpt lat="48.45654" lon="2.63611">
        <ele>160</ele>
        <time>2017-05-17T12:24:14.295</time>
      </trkpt>
      <trkpt lat="48.45659" lon="2.63615">
        <ele>160</ele>
        <time>2017-05-17T12:24:15.294</time>
      </trkpt>
      <trkpt lat="48.45664" lon="2.63619">
        <ele>160</ele>
        <time>2017-05-17T12:24:16.297</time>
      </trkpt>
      <trkpt lat="48.45667" lon="2.63624">
        <ele>160</ele>
        <time>2017-05-17T12:24:17.295</time>
      </trkpt>
      <trkpt lat="48.45671" lon="2.63627">
        <ele>161</ele>
        <time>2017-05-17T12:24:18.294</time>
      </trkpt>
      <trkpt lat="48.45676" lon="2.6363">
        <ele>162</ele>
        <time>2017-05-17T12:24:19.294</time>
      </trkpt>
      <trkpt lat="48.45679" lon="2.63634">
        <ele>161</ele>
        <time>2017-05-17T12:24:20.295</time>
      </trkpt>
      <trkpt lat="48.45683" lon="2.63638">
        <ele>161</ele>
        <time>2017-05-17T12:24:21.296</time>
      </trkpt>
      <trkpt lat="48.45687" lon="2.63641">
        <ele>163</ele>
        <time>2017-05-17T12:24:22.294</time>
      </trkpt>
      <trkpt lat="48.45692" lon="2.63643">
        <ele>163</ele>
        <time>2017-05-17T12:24:23.297</time>
      </trkpt>
      <trkpt lat="48.45696" lon="2.63647">
        <ele>163</ele>
        <time>2017-05-17T12:24:24.296</time>
      </trkpt>
      <trkpt lat="48.45702" lon="2.63649">
        <ele>163</ele>
        <time>2017-05-17T12:24:25.296</time>
      </trkpt>
      <trkpt lat="48.45708" lon="2.63652">
        <ele>163</ele>
        <time>2017-05-17T12:24:26.295</time>
      </trkpt>
      <trkpt lat="48.45714" lon="2.63656">
        <ele>163</ele>
        <time>2017-05-17T12:24:27.292</time>
      </trkpt>
      <trkpt lat="48.45719" lon="2.6366">
        <ele>163</ele>
        <time>2017-05-17T12:24:28.293</time>
      </trkpt>
      <trkpt lat="48.45725" lon="2.63664">
        <ele>163</ele>
        <time>2017-05-17T12:24:29.293</time>
      </trkpt>
      <trkpt lat="48.45731" lon="2.63668">
        <ele>162</ele>
        <time>2017-05-17T12:24:30.293</time>
      </trkpt>
      <trkpt lat="48.45737" lon="2.63671">
        <ele>162</ele>
        <time>2017-05-17T12:24:31.293</time>
      </trkpt>
      <trkpt lat="48.45742" lon="2.63675">
        <ele>163</ele>
        <time>2017-05-17T12:24:32.296</time>
      </trkpt>
      <trkpt lat="48.45747" lon="2.63681">
        <ele>162</ele>
        <time>2017-05-17T12:24:33.292</time>
      </trkpt>
      <trkpt lat="48.45751" lon="2.63685">
        <ele>162</ele>
        <time>2017-05-17T12:24:34.293</time>
      </trkpt>
      <trkpt lat="48.45756" lon="2.6369">
        <ele>162</ele>
        <time>2017-05-17T12:24:35.293</time>
      </trkpt>
      <trkpt lat="48.45762" lon="2.63694">
        <ele>162</ele>
        <time>2017-05-17T12:24:36.293</time>
      </trkpt>
      <trkpt lat="48.45767" lon="2.63698">
        <ele>161</ele>
        <time>2017-05-17T12:24:37.294</time>
      </trkpt>
      <trkpt lat="48.45772" lon="2.63702">
        <ele>161</ele>
        <time>2017-05-17T12:24:38.295</time>
      </trkpt>
      <trkpt lat="48.45778" lon="2.63706">
        <ele>161</ele>
        <time>2017-05-17T12:24:39.296</time>
      </trkpt>
      <trkpt lat="48.45782" lon="2.6371">
        <ele>161</ele>
        <time>2017-05-17T12:24:40.296</time>
      </trkpt>
      <trkpt lat="48.45789" lon="2.63713">
        <ele>161</ele>
        <time>2017-05-17T12:24:41.294</time>
      </trkpt>
      <trkpt lat="48.45793" lon="2.63717">
        <ele>161</ele>
        <time>2017-05-17T12:24:42.293</time>
      </trkpt>
      <trkpt lat="48.45799" lon="2.63722">
        <ele>161</ele>
        <time>2017-05-17T12:24:43.292</time>
      </trkpt>
      <trkpt lat="48.45803" lon="2.63726">
        <ele>160</ele>
        <time>2017-05-17T12:24:44.291</time>
      </trkpt>
      <trkpt lat="48.45807" lon="2.63731">
        <ele>160</ele>
        <time>2017-05-17T12:24:45.293</time>
      </trkpt>
      <trkpt lat="48.45813" lon="2.63734">
        <ele>160</ele>
        <time>2017-05-17T12:24:46.294</time>
      </trkpt>
      <trkpt lat="48.45819" lon="2.63738">
        <ele>160</ele>
        <time>2017-05-17T12:24:47.295</time>
      </trkpt>
      <trkpt lat="48.45824" lon="2.63741">
        <ele>160</ele>
        <time>2017-05-17T12:24:48.294</time>
      </trkpt>
      <trkpt lat="48.45829" lon="2.63746">
        <ele>160</ele>
        <time>2017-05-17T12:24:49.294</time>
      </trkpt>
      <trkpt lat="48.45833" lon="2.6375">
        <ele>160</ele>
        <time>2017-05-17T12:24:50.302</time>
      </trkpt>
      <trkpt lat="48.45836" lon="2.63755">
        <ele>159</ele>
        <time>2017-05-17T12:24:51.302</time>
      </trkpt>
      <trkpt lat="48.45842" lon="2.63757">
        <ele>160</ele>
        <time>2017-05-17T12:24:52.300</time>
      </trkpt>
      <trkpt lat="48.45847" lon="2.63761">
        <ele>160</ele>
        <time>2017-05-17T12:24:53.303</time>
      </trkpt>
      <trkpt lat="48.45851" lon="2.63765">
        <ele>159</ele>
        <time>2017-05-17T12:24:54.296</time>
      </trkpt>
      <trkpt lat="48.45857" lon="2.6377">
        <ele>158</ele>
        <time>2017-05-17T12:24:55.305</time>
      </trkpt>
      <trkpt lat="48.45862" lon="2.63776">
        <ele>158</ele>
        <time>2017-05-17T12:24:56.300</time>
      </trkpt>
      <trkpt lat="48.45869" lon="2.63779">
        <ele>158</ele>
        <time>2017-05-17T12:24:57.306</time>
      </trkpt>
      <trkpt lat="48.45878" lon="2.63789">
        <ele>157</ele>
        <time>2017-05-17T12:24:58.305</time>
      </trkpt>
      <trkpt lat="48.45888" lon="2.63794">
        <ele>157</ele>
        <time>2017-05-17T12:24:59.306</time>
      </trkpt>
      <trkpt lat="48.45897" lon="2.63801">
        <ele>156</ele>
        <time>2017-05-17T12:25:00.295</time>
      </trkpt>
      <trkpt lat="48.45905" lon="2.63808">
        <ele>156</ele>
        <time>2017-05-17T12:25:01.294</time>
      </trkpt>
      <trkpt lat="48.45915" lon="2.63814">
        <ele>156</ele>
        <time>2017-05-17T12:25:02.296</time>
      </trkpt>
      <trkpt lat="48.45922" lon="2.63821">
        <ele>156</ele>
        <time>2017-05-17T12:25:03.295</time>
      </trkpt>
      <trkpt lat="48.4593" lon="2.63829">
        <ele>156</ele>
        <time>2017-05-17T12:25:04.295</time>
      </trkpt>
      <trkpt lat="48.45939" lon="2.63836">
        <ele>155</ele>
        <time>2017-05-17T12:25:05.295</time>
      </trkpt>
      <trkpt lat="48.45949" lon="2.6384">
        <ele>155</ele>
        <time>2017-05-17T12:25:06.296</time>
      </trkpt>
      <trkpt lat="48.45958" lon="2.63847">
        <ele>156</ele>
        <time>2017-05-17T12:25:07.294</time>
      </trkpt>
      <trkpt lat="48.45967" lon="2.63854">
        <ele>156</ele>
        <time>2017-05-17T12:25:08.294</time>
      </trkpt>
      <trkpt lat="48.45975" lon="2.63862">
        <ele>156</ele>
        <time>2017-05-17T12:25:09.295</time>
      </trkpt>
      <trkpt lat="48.45984" lon="2.63869">
        <ele>156</ele>
        <time>2017-05-17T12:25:10.295</time>
      </trkpt>
      <trkpt lat="48.45991" lon="2.63878">
        <ele>156</ele>
        <time>2017-05-17T12:25:11.294</time>
      </trkpt>
      <trkpt lat="48.46" lon="2.63884">
        <ele>156</ele>
        <time>2017-05-17T12:25:12.293</time>
      </trkpt>
      <trkpt lat="48.46009" lon="2.63889">
        <ele>157</ele>
        <time>2017-05-17T12:25:13.294</time>
      </trkpt>
      <trkpt lat="48.46017" lon="2.63896">
        <ele>157</ele>
        <time>2017-05-17T12:25:14.294</time>
      </trkpt>
      <trkpt lat="48.46024" lon="2.63902">
        <ele>157</ele>
        <time>2017-05-17T12:25:15.293</time>
      </trkpt>
      <trkpt lat="48.46032" lon="2.63906">
        <ele>157</ele>
        <time>2017-05-17T12:25:16.293</time>
      </trkpt>
      <trkpt lat="48.46039" lon="2.6391">
        <ele>158</ele>
        <time>2017-05-17T12:25:17.295</time>
      </trkpt>
      <trkpt lat="48.46045" lon="2.63914">
        <ele>158</ele>
        <time>2017-05-17T12:25:18.294</time>
      </trkpt>
      <trkpt lat="48.46049" lon="2.63918">
        <ele>157</ele>
        <time>2017-05-17T12:25:19.296</time>
      </trkpt>
      <trkpt lat="48.46053" lon="2.63921">
        <ele>158</ele>
        <time>2017-05-17T12:25:20.296</time>
      </trkpt>
      <trkpt lat="48.46057" lon="2.63924">
        <ele>158</ele>
        <time>2017-05-17T12:25:21.295</time>
      </trkpt>
      <trkpt lat="48.46061" lon="2.63927">
        <ele>157</ele>
        <time>2017-05-17T12:25:22.295</time>
      </trkpt>
      <trkpt lat="48.46064" lon="2.63931">
        <ele>157</ele>
        <time>2017-05-17T12:25:23.295</time>
      </trkpt>
      <trkpt lat="48.46069" lon="2.63934">
        <ele>156</ele>
        <time>2017-05-17T12:25:24.295</time>
      </trkpt>
      <trkpt lat="48.46073" lon="2.63935">
        <ele>155</ele>
        <time>2017-05-17T12:25:25.297</time>
      </trkpt>
      <trkpt lat="48.46074" lon="2.63934">
        <ele>154</ele>
        <time>2017-05-17T12:25:26.294</time>
      </trkpt>
      <trkpt lat="48.46075" lon="2.63933">
        <ele>154</ele>
        <time>2017-05-17T12:25:27.295</time>
      </trkpt>
      <trkpt lat="48.46076" lon="2.63933">
        <ele>155</ele>
        <time>2017-05-17T12:25:28.294</time>
      </trkpt>
      <trkpt lat="48.46077" lon="2.63933">
        <ele>155</ele>
        <time>2017-05-17T12:25:29.292</time>
      </trkpt>
      <trkpt lat="48.46077" lon="2.63933">
        <ele>156</ele>
        <time>2017-05-17T12:25:30.292</time>
      </trkpt>
      <trkpt lat="48.46077" lon="2.63933">
        <ele>157</ele>
        <time>2017-05-17T12:25:31.293</time>
      </trkpt>
      <trkpt lat="48.46079" lon="2.63934">
        <ele>156</ele>
        <time>2017-05-17T12:25:32.294</time>
      </trkpt>
      <trkpt lat="48.4608" lon="2.63935">
        <ele>157</ele>
        <time>2017-05-17T12:25:33.295</time>
      </trkpt>
      <trkpt lat="48.46083" lon="2.63934">
        <ele>156</ele>
        <time>2017-05-17T12:25:34.295</time>
      </trkpt>
      <trkpt lat="48.46087" lon="2.63933">
        <ele>157</ele>
        <time>2017-05-17T12:25:35.296</time>
      </trkpt>
      <trkpt lat="48.46091" lon="2.63932">
        <ele>156</ele>
        <time>2017-05-17T12:25:36.294</time>
      </trkpt>
      <trkpt lat="48.46096" lon="2.63932">
        <ele>156</ele>
        <time>2017-05-17T12:25:37.295</time>
      </trkpt>
      <trkpt lat="48.46102" lon="2.63932">
        <ele>155</ele>
        <time>2017-05-17T12:25:38.295</time>
      </trkpt>
      <trkpt lat="48.46108" lon="2.63932">
        <ele>156</ele>
        <time>2017-05-17T12:25:39.294</time>
      </trkpt>
      <trkpt lat="48.46115" lon="2.63931">
        <ele>155</ele>
        <time>2017-05-17T12:25:40.294</time>
      </trkpt>
      <trkpt lat="48.46122" lon="2.6393">
        <ele>156</ele>
        <time>2017-05-17T12:25:41.293</time>
      </trkpt>
      <trkpt lat="48.46129" lon="2.63928">
        <ele>155</ele>
        <time>2017-05-17T12:25:42.293</time>
      </trkpt>
      <trkpt lat="48.46138" lon="2.63927">
        <ele>155</ele>
        <time>2017-05-17T12:25:43.295</time>
      </trkpt>
      <trkpt lat="48.46146" lon="2.63927">
        <ele>156</ele>
        <time>2017-05-17T12:25:44.296</time>
      </trkpt>
      <trkpt lat="48.46153" lon="2.63926">
        <ele>156</ele>
        <time>2017-05-17T12:25:45.297</time>
      </trkpt>
      <trkpt lat="48.46161" lon="2.63925">
        <ele>156</ele>
        <time>2017-05-17T12:25:46.296</time>
      </trkpt>
      <trkpt lat="48.46169" lon="2.63924">
        <ele>156</ele>
        <time>2017-05-17T12:25:47.294</time>
      </trkpt>
      <trkpt lat="48.46176" lon="2.63922">
        <ele>156</ele>
        <time>2017-05-17T12:25:48.294</time>
      </trkpt>
      <trkpt lat="48.46183" lon="2.6392">
        <ele>156</ele>
        <time>2017-05-17T12:25:49.295</time>
      </trkpt>
      <trkpt lat="48.4619" lon="2.63919">
        <ele>156</ele>
        <time>2017-05-17T12:25:50.294</time>
      </trkpt>
      <trkpt lat="48.46197" lon="2.63917">
        <ele>156</ele>
        <time>2017-05-17T12:25:51.293</time>
      </trkpt>
      <trkpt lat="48.46204" lon="2.63916">
        <ele>155</ele>
        <time>2017-05-17T12:25:52.296</time>
      </trkpt>
      <trkpt lat="48.46212" lon="2.63915">
        <ele>155</ele>
        <time>2017-05-17T12:25:53.294</time>
      </trkpt>
      <trkpt lat="48.46218" lon="2.63914">
        <ele>154</ele>
        <time>2017-05-17T12:25:54.293</time>
      </trkpt>
      <trkpt lat="48.46224" lon="2.63912">
        <ele>154</ele>
        <time>2017-05-17T12:25:55.296</time>
      </trkpt>
      <trkpt lat="48.4623" lon="2.63912">
        <ele>153</ele>
        <time>2017-05-17T12:25:56.296</time>
      </trkpt>
      <trkpt lat="48.46236" lon="2.6391">
        <ele>154</ele>
        <time>2017-05-17T12:25:57.296</time>
      </trkpt>
      <trkpt lat="48.46245" lon="2.6391">
        <ele>153</ele>
        <time>2017-05-17T12:25:58.296</time>
      </trkpt>
      <trkpt lat="48.46253" lon="2.63909">
        <ele>153</ele>
        <time>2017-05-17T12:25:59.295</time>
      </trkpt>
      <trkpt lat="48.46261" lon="2.63909">
        <ele>153</ele>
        <time>2017-05-17T12:26:00.294</time>
      </trkpt>
      <trkpt lat="48.46269" lon="2.63908">
        <ele>152</ele>
        <time>2017-05-17T12:26:01.295</time>
      </trkpt>
      <trkpt lat="48.46275" lon="2.63908">
        <ele>151</ele>
        <time>2017-05-17T12:26:02.295</time>
      </trkpt>
      <trkpt lat="48.46282" lon="2.63909">
        <ele>150</ele>
        <time>2017-05-17T12:26:03.294</time>
      </trkpt>
      <trkpt lat="48.46288" lon="2.6391">
        <ele>150</ele>
        <time>2017-05-17T12:26:04.295</time>
      </trkpt>
      <trkpt lat="48.46295" lon="2.63908">
        <ele>150</ele>
        <time>2017-05-17T12:26:05.296</time>
      </trkpt>
      <trkpt lat="48.46303" lon="2.63908">
        <ele>151</ele>
        <time>2017-05-17T12:26:06.294</time>
      </trkpt>
      <trkpt lat="48.46312" lon="2.63907">
        <ele>151</ele>
        <time>2017-05-17T12:26:07.294</time>
      </trkpt>
      <trkpt lat="48.46319" lon="2.63904">
        <ele>151</ele>
        <time>2017-05-17T12:26:08.294</time>
      </trkpt>
      <trkpt lat="48.46327" lon="2.63903">
        <ele>150</ele>
        <time>2017-05-17T12:26:09.296</time>
      </trkpt>
      <trkpt lat="48.46334" lon="2.639">
        <ele>153</ele>
        <time>2017-05-17T12:26:10.295</time>
      </trkpt>
      <trkpt lat="48.46341" lon="2.63899">
        <ele>154</ele>
        <time>2017-05-17T12:26:11.295</time>
      </trkpt>
      <trkpt lat="48.46349" lon="2.63898">
        <ele>156</ele>
        <time>2017-05-17T12:26:12.294</time>
      </trkpt>
      <trkpt lat="48.46356" lon="2.63896">
        <ele>156</ele>
        <time>2017-05-17T12:26:13.294</time>
      </trkpt>
      <trkpt lat="48.46363" lon="2.63894">
        <ele>157</ele>
        <time>2017-05-17T12:26:14.293</time>
      </trkpt>
      <trkpt lat="48.46371" lon="2.63892">
        <ele>157</ele>
        <time>2017-05-17T12:26:15.294</time>
      </trkpt>
      <trkpt lat="48.46377" lon="2.63892">
        <ele>156</ele>
        <time>2017-05-17T12:26:16.294</time>
      </trkpt>
      <trkpt lat="48.46384" lon="2.63892">
        <ele>156</ele>
        <time>2017-05-17T12:26:17.295</time>
      </trkpt>
      <trkpt lat="48.46392" lon="2.6389">
        <ele>157</ele>
        <time>2017-05-17T12:26:18.295</time>
      </trkpt>
      <trkpt lat="48.46398" lon="2.63889">
        <ele>156</ele>
        <time>2017-05-17T12:26:19.295</time>
      </trkpt>
      <trkpt lat="48.46404" lon="2.63889">
        <ele>156</ele>
        <time>2017-05-17T12:26:20.295</time>
      </trkpt>
      <trkpt lat="48.46411" lon="2.63888">
        <ele>156</ele>
        <time>2017-05-17T12:26:21.295</time>
      </trkpt>
      <trkpt lat="48.46418" lon="2.63886">
        <ele>156</ele>
        <time>2017-05-17T12:26:22.295</time>
      </trkpt>
      <trkpt lat="48.46428" lon="2.63882">
        <ele>158</ele>
        <time>2017-05-17T12:26:23.296</time>
      </trkpt>
      <trkpt lat="48.46434" lon="2.6388">
        <ele>157</ele>
        <time>2017-05-17T12:26:24.297</time>
      </trkpt>
      <trkpt lat="48.46439" lon="2.63881">
        <ele>156</ele>
        <time>2017-05-17T12:26:25.296</time>
      </trkpt>
      <trkpt lat="48.46444" lon="2.6388">
        <ele>156</ele>
        <time>2017-05-17T12:26:26.296</time>
      </trkpt>
      <trkpt lat="48.46449" lon="2.63881">
        <ele>155</ele>
        <time>2017-05-17T12:26:27.295</time>
      </trkpt>
      <trkpt lat="48.46455" lon="2.63879">
        <ele>156</ele>
        <time>2017-05-17T12:26:28.295</time>
      </trkpt>
      <trkpt lat="48.4646" lon="2.63875">
        <ele>156</ele>
        <time>2017-05-17T12:26:29.293</time>
      </trkpt>
      <trkpt lat="48.46465" lon="2.63875">
        <ele>155</ele>
        <time>2017-05-17T12:26:30.296</time>
      </trkpt>
      <trkpt lat="48.4647" lon="2.63875">
        <ele>155</ele>
        <time>2017-05-17T12:26:31.297</time>
      </trkpt>
      <trkpt lat="48.46475" lon="2.63875">
        <ele>155</ele>
        <time>2017-05-17T12:26:32.297</time>
      </trkpt>
      <trkpt lat="48.46478" lon="2.63875">
        <ele>155</ele>
        <time>2017-05-17T12:26:33.295</time>
      </trkpt>
      <trkpt lat="48.46483" lon="2.63875">
        <ele>156</ele>
        <time>2017-05-17T12:26:34.296</time>
      </trkpt>
      <trkpt lat="48.46491" lon="2.63875">
        <ele>156</ele>
        <time>2017-05-17T12:26:35.293</time>
      </trkpt>
      <trkpt lat="48.46498" lon="2.63874">
        <ele>156</ele>
        <time>2017-05-17T12:26:36.295</time>
      </trkpt>
      <trkpt lat="48.46506" lon="2.63872">
        <ele>156</ele>
        <time>2017-05-17T12:26:37.297</time>
      </trkpt>
      <trkpt lat="48.46514" lon="2.63871">
        <ele>157</ele>
        <time>2017-05-17T12:26:38.295</time>
      </trkpt>
      <trkpt lat="48.46519" lon="2.63872">
        <ele>154</ele>
        <time>2017-05-17T12:26:39.294</time>
      </trkpt>
      <trkpt lat="48.46526" lon="2.63871">
        <ele>153</ele>
        <time>2017-05-17T12:26:40.294</time>
      </trkpt>
      <trkpt lat="48.46533" lon="2.63871">
        <ele>153</ele>
        <time>2017-05-17T12:26:41.294</time>
      </trkpt>
      <trkpt lat="48.46541" lon="2.63869">
        <ele>151</ele>
        <time>2017-05-17T12:26:42.293</time>
      </trkpt>
      <trkpt lat="48.46549" lon="2.6387">
        <ele>150</ele>
        <time>2017-05-17T12:26:43.294</time>
      </trkpt>
      <trkpt lat="48.46555" lon="2.63872">
        <ele>149</ele>
        <time>2017-05-17T12:26:44.294</time>
      </trkpt>
      <trkpt lat="48.46564" lon="2.6387">
        <ele>148</ele>
        <time>2017-05-17T12:26:45.294</time>
      </trkpt>
      <trkpt lat="48.46573" lon="2.63867">
        <ele>148</ele>
        <time>2017-05-17T12:26:46.293</time>
      </trkpt>
      <trkpt lat="48.46579" lon="2.63864">
        <ele>148</ele>
        <time>2017-05-17T12:26:47.292</time>
      </trkpt>
      <trkpt lat="48.46587" lon="2.63863">
        <ele>149</ele>
        <time>2017-05-17T12:26:48.294</time>
      </trkpt>
      <trkpt lat="48.46594" lon="2.63861">
        <ele>150</ele>
        <time>2017-05-17T12:26:49.297</time>
      </trkpt>
      <trkpt lat="48.46602" lon="2.6386">
        <ele>150</ele>
        <time>2017-05-17T12:26:50.295</time>
      </trkpt>
      <trkpt lat="48.46612" lon="2.63858">
        <ele>150</ele>
        <time>2017-05-17T12:26:51.294</time>
      </trkpt>
      <trkpt lat="48.46621" lon="2.63856">
        <ele>150</ele>
        <time>2017-05-17T12:26:52.296</time>
      </trkpt>
      <trkpt lat="48.4663" lon="2.63855">
        <ele>150</ele>
        <time>2017-05-17T12:26:53.293</time>
      </trkpt>
      <trkpt lat="48.46638" lon="2.63852">
        <ele>149</ele>
        <time>2017-05-17T12:26:54.293</time>
      </trkpt>
      <trkpt lat="48.46646" lon="2.63851">
        <ele>150</ele>
        <time>2017-05-17T12:26:55.293</time>
      </trkpt>
      <trkpt lat="48.46654" lon="2.6385">
        <ele>150</ele>
        <time>2017-05-17T12:26:56.293</time>
      </trkpt>
      <trkpt lat="48.46661" lon="2.6385">
        <ele>149</ele>
        <time>2017-05-17T12:26:57.295</time>
      </trkpt>
      <trkpt lat="48.46673" lon="2.6385">
        <ele>149</ele>
        <time>2017-05-17T12:26:58.295</time>
      </trkpt>
      <trkpt lat="48.46684" lon="2.63846">
        <ele>150</ele>
        <time>2017-05-17T12:26:59.294</time>
      </trkpt>
      <trkpt lat="48.46693" lon="2.63844">
        <ele>149</ele>
        <time>2017-05-17T12:27:00.295</time>
      </trkpt>
      <trkpt lat="48.46704" lon="2.63844">
        <ele>151</ele>
        <time>2017-05-17T12:27:01.294</time>
      </trkpt>
      <trkpt lat="48.46713" lon="2.63843">
        <ele>150</ele>
        <time>2017-05-17T12:27:02.295</time>
      </trkpt>
      <trkpt lat="48.46723" lon="2.63842">
        <ele>150</ele>
        <time>2017-05-17T12:27:03.294</time>
      </trkpt>
      <trkpt lat="48.46732" lon="2.6384">
        <ele>150</ele>
        <time>2017-05-17T12:27:04.293</time>
      </trkpt>
      <trkpt lat="48.46742" lon="2.63838">
        <ele>150</ele>
        <time>2017-05-17T12:27:05.294</time>
      </trkpt>
      <trkpt lat="48.46751" lon="2.63837">
        <ele>150</ele>
        <time>2017-05-17T12:27:06.293</time>
      </trkpt>
      <trkpt lat="48.4676" lon="2.63835">
        <ele>151</ele>
        <time>2017-05-17T12:27:07.295</time>
      </trkpt>
      <trkpt lat="48.4677" lon="2.63833">
        <ele>152</ele>
        <time>2017-05-17T12:27:08.295</time>
      </trkpt>
      <trkpt lat="48.46778" lon="2.63834">
        <ele>152</ele>
        <time>2017-05-17T12:27:09.295</time>
      </trkpt>
      <trkpt lat="48.46788" lon="2.63836">
        <ele>152</ele>
        <time>2017-05-17T12:27:10.295</time>
      </trkpt>
      <trkpt lat="48.46795" lon="2.63835">
        <ele>151</ele>
        <time>2017-05-17T12:27:11.295</time>
      </trkpt>
      <trkpt lat="48.46805" lon="2.63834">
        <ele>151</ele>
        <time>2017-05-17T12:27:12.294</time>
      </trkpt>
      <trkpt lat="48.46817" lon="2.63828">
        <ele>152</ele>
        <time>2017-05-17T12:27:13.293</time>
      </trkpt>
      <trkpt lat="48.46825" lon="2.6383">
        <ele>152</ele>
        <time>2017-05-17T12:27:14.293</time>
      </trkpt>
      <trkpt lat="48.46832" lon="2.63832">
        <ele>152</ele>
        <time>2017-05-17T12:27:15.294</time>
      </trkpt>
      <trkpt lat="48.46838" lon="2.63832">
        <ele>151</ele>
        <time>2017-05-17T12:27:16.294</time>
      </trkpt>
      <trkpt lat="48.46847" lon="2.63831">
        <ele>151</ele>
        <time>2017-05-17T12:27:17.294</time>
      </trkpt>
      <trkpt lat="48.46855" lon="2.63829">
        <ele>151</ele>
        <time>2017-05-17T12:27:18.294</time>
      </trkpt>
      <trkpt lat="48.46864" lon="2.63826">
        <ele>151</ele>
        <time>2017-05-17T12:27:19.293</time>
      </trkpt>
      <trkpt lat="48.46872" lon="2.63824">
        <ele>152</ele>
        <time>2017-05-17T12:27:20.295</time>
      </trkpt>
      <trkpt lat="48.46881" lon="2.6382">
        <ele>151</ele>
        <time>2017-05-17T12:27:21.296</time>
      </trkpt>
      <trkpt lat="48.46887" lon="2.63818">
        <ele>150</ele>
        <time>2017-05-17T12:27:22.295</time>
      </trkpt>
      <trkpt lat="48.46894" lon="2.63818">
        <ele>150</ele>
        <time>2017-05-17T12:27:23.295</time>
      </trkpt>
      <trkpt lat="48.46899" lon="2.63816">
        <ele>150</ele>
        <time>2017-05-17T12:27:24.295</time>
      </trkpt>
      <trkpt lat="48.46907" lon="2.63814">
        <ele>150</ele>
        <time>2017-05-17T12:27:25.294</time>
      </trkpt>
      <trkpt lat="48.46915" lon="2.63811">
        <ele>149</ele>
        <time>2017-05-17T12:27:26.294</time>
      </trkpt>
      <trkpt lat="48.46921" lon="2.63809">
        <ele>149</ele>
        <time>2017-05-17T12:27:27.294</time>
      </trkpt>
      <trkpt lat="48.46928" lon="2.63808">
        <ele>150</ele>
        <time>2017-05-17T12:27:28.293</time>
      </trkpt>
      <trkpt lat="48.46935" lon="2.63807">
        <ele>149</ele>
        <time>2017-05-17T12:27:29.293</time>
      </trkpt>
      <trkpt lat="48.46941" lon="2.63807">
        <ele>150</ele>
        <time>2017-05-17T12:27:30.292</time>
      </trkpt>
      <trkpt lat="48.46949" lon="2.63806">
        <ele>149</ele>
        <time>2017-05-17T12:27:31.304</time>
      </trkpt>
      <trkpt lat="48.46955" lon="2.63806">
        <ele>149</ele>
        <time>2017-05-17T12:27:32.294</time>
      </trkpt>
      <trkpt lat="48.46961" lon="2.63805">
        <ele>150</ele>
        <time>2017-05-17T12:27:33.293</time>
      </trkpt>
      <trkpt lat="48.46966" lon="2.63806">
        <ele>150</ele>
        <time>2017-05-17T12:27:34.292</time>
      </trkpt>
      <trkpt lat="48.46973" lon="2.63809">
        <ele>150</ele>
        <time>2017-05-17T12:27:35.292</time>
      </trkpt>
      <trkpt lat="48.46983" lon="2.63808">
        <ele>151</ele>
        <time>2017-05-17T12:27:36.292</time>
      </trkpt>
      <trkpt lat="48.4699" lon="2.63805">
        <ele>150</ele>
        <time>2017-05-17T12:27:37.291</time>
      </trkpt>
      <trkpt lat="48.46996" lon="2.63804">
        <ele>151</ele>
        <time>2017-05-17T12:27:38.293</time>
      </trkpt>
      <trkpt lat="48.47001" lon="2.638">
        <ele>149</ele>
        <time>2017-05-17T12:27:39.295</time>
      </trkpt>
      <trkpt lat="48.47009" lon="2.63799">
        <ele>148</ele>
        <time>2017-05-17T12:27:40.294</time>
      </trkpt>
      <trkpt lat="48.47014" lon="2.63799">
        <ele>146</ele>
        <time>2017-05-17T12:27:41.293</time>
      </trkpt>
      <trkpt lat="48.47021" lon="2.63797">
        <ele>146</ele>
        <time>2017-05-17T12:27:42.295</time>
      </trkpt>
      <trkpt lat="48.47027" lon="2.63796">
        <ele>145</ele>
        <time>2017-05-17T12:27:43.295</time>
      </trkpt>
      <trkpt lat="48.47033" lon="2.63796">
        <ele>145</ele>
        <time>2017-05-17T12:27:44.293</time>
      </trkpt>
      <trkpt lat="48.47039" lon="2.63795">
        <ele>144</ele>
        <time>2017-05-17T12:27:45.294</time>
      </trkpt>
      <trkpt lat="48.47044" lon="2.63797">
        <ele>143</ele>
        <time>2017-05-17T12:27:46.293</time>
      </trkpt>
      <trkpt lat="48.47051" lon="2.63795">
        <ele>142</ele>
        <time>2017-05-17T12:27:47.292</time>
      </trkpt>
      <trkpt lat="48.47057" lon="2.63795">
        <ele>142</ele>
        <time>2017-05-17T12:27:48.292</time>
      </trkpt>
      <trkpt lat="48.47063" lon="2.63796">
        <ele>142</ele>
        <time>2017-05-17T12:27:49.294</time>
      </trkpt>
      <trkpt lat="48.47069" lon="2.63795">
        <ele>144</ele>
        <time>2017-05-17T12:27:50.293</time>
      </trkpt>
      <trkpt lat="48.47075" lon="2.63795">
        <ele>144</ele>
        <time>2017-05-17T12:27:51.291</time>
      </trkpt>
      <trkpt lat="48.4708" lon="2.63795">
        <ele>144</ele>
        <time>2017-05-17T12:27:52.293</time>
      </trkpt>
      <trkpt lat="48.47087" lon="2.63795">
        <ele>143</ele>
        <time>2017-05-17T12:27:53.292</time>
      </trkpt>
      <trkpt lat="48.47093" lon="2.63794">
        <ele>143</ele>
        <time>2017-05-17T12:27:54.297</time>
      </trkpt>
      <trkpt lat="48.47098" lon="2.63796">
        <ele>141</ele>
        <time>2017-05-17T12:27:55.296</time>
      </trkpt>
      <trkpt lat="48.47104" lon="2.63795">
        <ele>141</ele>
        <time>2017-05-17T12:27:56.294</time>
      </trkpt>
      <trkpt lat="48.47109" lon="2.63793">
        <ele>140</ele>
        <time>2017-05-17T12:27:57.295</time>
      </trkpt>
      <trkpt lat="48.47115" lon="2.63792">
        <ele>139</ele>
        <time>2017-05-17T12:27:58.297</time>
      </trkpt>
      <trkpt lat="48.47121" lon="2.63789">
        <ele>140</ele>
        <time>2017-05-17T12:27:59.299</time>
      </trkpt>
      <trkpt lat="48.47127" lon="2.63789">
        <ele>140</ele>
        <time>2017-05-17T12:28:00.306</time>
      </trkpt>
      <trkpt lat="48.47133" lon="2.63788">
        <ele>141</ele>
        <time>2017-05-17T12:28:01.305</time>
      </trkpt>
      <trkpt lat="48.47138" lon="2.63788">
        <ele>139</ele>
        <time>2017-05-17T12:28:02.363</time>
      </trkpt>
      <trkpt lat="48.47143" lon="2.63788">
        <ele>139</ele>
        <time>2017-05-17T12:28:03.443</time>
      </trkpt>
      <trkpt lat="48.4715" lon="2.63786">
        <ele>140</ele>
        <time>2017-05-17T12:28:04.295</time>
      </trkpt>
      <trkpt lat="48.47156" lon="2.63784">
        <ele>139</ele>
        <time>2017-05-17T12:28:05.294</time>
      </trkpt>
      <trkpt lat="48.47164" lon="2.63785">
        <ele>138</ele>
        <time>2017-05-17T12:28:06.294</time>
      </trkpt>
      <trkpt lat="48.4717" lon="2.63783">
        <ele>138</ele>
        <time>2017-05-17T12:28:07.295</time>
      </trkpt>
      <trkpt lat="48.47175" lon="2.63781">
        <ele>138</ele>
        <time>2017-05-17T12:28:08.295</time>
      </trkpt>
      <trkpt lat="48.47183" lon="2.63782">
        <ele>137</ele>
        <time>2017-05-17T12:28:09.295</time>
      </trkpt>
      <trkpt lat="48.47191" lon="2.6378">
        <ele>140</ele>
        <time>2017-05-17T12:28:10.295</time>
      </trkpt>
      <trkpt lat="48.47198" lon="2.63778">
        <ele>140</ele>
        <time>2017-05-17T12:28:11.295</time>
      </trkpt>
      <trkpt lat="48.47203" lon="2.63777">
        <ele>140</ele>
        <time>2017-05-17T12:28:12.294</time>
      </trkpt>
      <trkpt lat="48.47208" lon="2.63776">
        <ele>140</ele>
        <time>2017-05-17T12:28:13.294</time>
      </trkpt>
      <trkpt lat="48.47213" lon="2.63773">
        <ele>141</ele>
        <time>2017-05-17T12:28:14.296</time>
      </trkpt>
      <trkpt lat="48.47221" lon="2.63769">
        <ele>141</ele>
        <time>2017-05-17T12:28:15.294</time>
      </trkpt>
      <trkpt lat="48.47228" lon="2.63768">
        <ele>142</ele>
        <time>2017-05-17T12:28:16.294</time>
      </trkpt>
      <trkpt lat="48.47237" lon="2.6377">
        <ele>141</ele>
        <time>2017-05-17T12:28:17.294</time>
      </trkpt>
      <trkpt lat="48.47242" lon="2.63769">
        <ele>140</ele>
        <time>2017-05-17T12:28:18.294</time>
      </trkpt>
      <trkpt lat="48.47247" lon="2.63767">
        <ele>140</ele>
        <time>2017-05-17T12:28:19.293</time>
      </trkpt>
      <trkpt lat="48.47252" lon="2.63769">
        <ele>142</ele>
        <time>2017-05-17T12:28:20.294</time>
      </trkpt>
      <trkpt lat="48.4726" lon="2.6377">
        <ele>143</ele>
        <time>2017-05-17T12:28:21.293</time>
      </trkpt>
      <trkpt lat="48.47269" lon="2.63769">
        <ele>142</ele>
        <time>2017-05-17T12:28:22.294</time>
      </trkpt>
      <trkpt lat="48.47276" lon="2.63769">
        <ele>144</ele>
        <time>2017-05-17T12:28:23.292</time>
      </trkpt>
      <trkpt lat="48.47284" lon="2.63768">
        <ele>144</ele>
        <time>2017-05-17T12:28:24.295</time>
      </trkpt>
      <trkpt lat="48.47289" lon="2.63766">
        <ele>144</ele>
        <time>2017-05-17T12:28:25.293</time>
      </trkpt>
      <trkpt lat="48.47294" lon="2.63764">
        <ele>143</ele>
        <time>2017-05-17T12:28:26.294</time>
      </trkpt>
      <trkpt lat="48.47299" lon="2.63763">
        <ele>144</ele>
        <time>2017-05-17T12:28:27.294</time>
      </trkpt>
      <trkpt lat="48.47304" lon="2.63763">
        <ele>143</ele>
        <time>2017-05-17T12:28:28.292</time>
      </trkpt>
      <trkpt lat="48.4731" lon="2.63761">
        <ele>144</ele>
        <time>2017-05-17T12:28:29.294</time>
      </trkpt>
      <trkpt lat="48.47316" lon="2.6376">
        <ele>143</ele>
        <time>2017-05-17T12:28:30.295</time>
      </trkpt>
      <trkpt lat="48.47322" lon="2.63763">
        <ele>142</ele>
        <time>2017-05-17T12:28:31.294</time>
      </trkpt>
      <trkpt lat="48.47328" lon="2.63761">
        <ele>142</ele>
        <time>2017-05-17T12:28:32.293</time>
      </trkpt>
      <trkpt lat="48.47335" lon="2.63761">
        <ele>144</ele>
        <time>2017-05-17T12:28:33.295</time>
      </trkpt>
      <trkpt lat="48.47343" lon="2.63759">
        <ele>144</ele>
        <time>2017-05-17T12:28:34.294</time>
      </trkpt>
      <trkpt lat="48.47349" lon="2.63759">
        <ele>144</ele>
        <time>2017-05-17T12:28:35.293</time>
      </trkpt>
      <trkpt lat="48.47357" lon="2.63756">
        <ele>144</ele>
        <time>2017-05-17T12:28:36.294</time>
      </trkpt>
      <trkpt lat="48.47364" lon="2.63756">
        <ele>145</ele>
        <time>2017-05-17T12:28:37.294</time>
      </trkpt>
      <trkpt lat="48.47368" lon="2.63755">
        <ele>146</ele>
        <time>2017-05-17T12:28:38.293</time>
      </trkpt>
      <trkpt lat="48.47373" lon="2.63753">
        <ele>147</ele>
        <time>2017-05-17T12:28:39.293</time>
      </trkpt>
      <trkpt lat="48.47381" lon="2.63753">
        <ele>146</ele>
        <time>2017-05-17T12:28:40.295</time>
      </trkpt>
      <trkpt lat="48.47385" lon="2.63749">
        <ele>144</ele>
        <time>2017-05-17T12:28:41.294</time>
      </trkpt>
      <trkpt lat="48.47386" lon="2.63744">
        <ele>143</ele>
        <time>2017-05-17T12:28:42.294</time>
      </trkpt>
      <trkpt lat="48.47388" lon="2.63741">
        <ele>143</ele>
        <time>2017-05-17T12:28:43.293</time>
      </trkpt>
      <trkpt lat="48.47388" lon="2.63734">
        <ele>144</ele>
        <time>2017-05-17T12:28:44.293</time>
      </trkpt>
      <trkpt lat="48.47389" lon="2.63729">
        <ele>145</ele>
        <time>2017-05-17T12:28:45.296</time>
      </trkpt>
      <trkpt lat="48.47391" lon="2.63728">
        <ele>143</ele>
        <time>2017-05-17T12:28:46.295</time>
      </trkpt>
      <trkpt lat="48.47392" lon="2.63726">
        <ele>143</ele>
        <time>2017-05-17T12:28:47.293</time>
      </trkpt>
      <trkpt lat="48.47394" lon="2.63725">
        <ele>144</ele>
        <time>2017-05-17T12:28:48.293</time>
      </trkpt>
      <trkpt lat="48.47397" lon="2.63723">
        <ele>144</ele>
        <time>2017-05-17T12:28:49.295</time>
      </trkpt>
      <trkpt lat="48.47399" lon="2.63723">
        <ele>144</ele>
        <time>2017-05-17T12:28:50.294</time>
      </trkpt>
      <trkpt lat="48.47401" lon="2.63723">
        <ele>144</ele>
        <time>2017-05-17T12:28:51.294</time>
      </trkpt>
      <trkpt lat="48.47404" lon="2.63723">
        <ele>144</ele>
        <time>2017-05-17T12:28:52.293</time>
      </trkpt>
      <trkpt lat="48.47405" lon="2.63723">
        <ele>143</ele>
        <time>2017-05-17T12:28:53.294</time>
      </trkpt>
      <trkpt lat="48.47406" lon="2.63723">
        <ele>143</ele>
        <time>2017-05-17T12:28:54.295</time>
      </trkpt>
      <trkpt lat="48.47406" lon="2.63723">
        <ele>142</ele>
        <time>2017-05-17T12:28:55.296</time>
      </trkpt>
      <trkpt lat="48.47408" lon="2.63725">
        <ele>141</ele>
        <time>2017-05-17T12:28:56.296</time>
      </trkpt>
      <trkpt lat="48.47409" lon="2.63725">
        <ele>141</ele>
        <time>2017-05-17T12:28:57.294</time>
      </trkpt>
      <trkpt lat="48.47409" lon="2.63726">
        <ele>142</ele>
        <time>2017-05-17T12:28:58.294</time>
      </trkpt>
      <trkpt lat="48.47409" lon="2.63727">
        <ele>142</ele>
        <time>2017-05-17T12:28:59.293</time>
      </trkpt>
      <trkpt lat="48.47412" lon="2.63725">
        <ele>142</ele>
        <time>2017-05-17T12:29:00.293</time>
      </trkpt>
      <trkpt lat="48.47412" lon="2.63725">
        <ele>142</ele>
        <time>2017-05-17T12:29:01.293</time>
      </trkpt>
      <trkpt lat="48.47412" lon="2.63724">
        <ele>143</ele>
        <time>2017-05-17T12:29:02.295</time>
      </trkpt>
      <trkpt lat="48.47412" lon="2.63725">
        <ele>143</ele>
        <time>2017-05-17T12:29:03.294</time>
      </trkpt>
      <trkpt lat="48.47412" lon="2.63727">
        <ele>143</ele>
        <time>2017-05-17T12:29:04.295</time>
      </trkpt>
      <trkpt lat="48.47413" lon="2.63727">
        <ele>143</ele>
        <time>2017-05-17T12:29:05.294</time>
      </trkpt>
      <trkpt lat="48.47413" lon="2.63728">
        <ele>143</ele>
        <time>2017-05-17T12:29:06.295</time>
      </trkpt>
      <trkpt lat="48.47414" lon="2.63729">
        <ele>142</ele>
        <time>2017-05-17T12:29:07.293</time>
      </trkpt>
      <trkpt lat="48.47415" lon="2.6373">
        <ele>142</ele>
        <time>2017-05-17T12:29:08.457</time>
      </trkpt>
      <trkpt lat="48.47417" lon="2.63729">
        <ele>143</ele>
        <time>2017-05-17T12:29:09.293</time>
      </trkpt>
      <trkpt lat="48.47419" lon="2.63727">
        <ele>142</ele>
        <time>2017-05-17T12:29:10.294</time>
      </trkpt>
      <trkpt lat="48.47419" lon="2.63728">
        <ele>142</ele>
        <time>2017-05-17T12:29:11.294</time>
      </trkpt>
      <trkpt lat="48.4742" lon="2.6373">
        <ele>142</ele>
        <time>2017-05-17T12:29:12.294</time>
      </trkpt>
      <trkpt lat="48.47421" lon="2.6373">
        <ele>142</ele>
        <time>2017-05-17T12:29:13.293</time>
      </trkpt>
      <trkpt lat="48.47421" lon="2.63733">
        <ele>141</ele>
        <time>2017-05-17T12:29:14.296</time>
      </trkpt>
      <trkpt lat="48.47422" lon="2.63735">
        <ele>142</ele>
        <time>2017-05-17T12:29:15.294</time>
      </trkpt>
      <trkpt lat="48.47422" lon="2.63736">
        <ele>142</ele>
        <time>2017-05-17T12:29:16.294</time>
      </trkpt>
      <trkpt lat="48.47422" lon="2.63739">
        <ele>144</ele>
        <time>2017-05-17T12:29:17.294</time>
      </trkpt>
      <trkpt lat="48.47422" lon="2.63741">
        <ele>144</ele>
        <time>2017-05-17T12:29:18.294</time>
      </trkpt>
      <trkpt lat="48.47423" lon="2.63743">
        <ele>143</ele>
        <time>2017-05-17T12:29:19.295</time>
      </trkpt>
      <trkpt lat="48.47424" lon="2.63743">
        <ele>142</ele>
        <time>2017-05-17T12:29:20.295</time>
      </trkpt>
      <trkpt lat="48.47426" lon="2.63743">
        <ele>143</ele>
        <time>2017-05-17T12:29:21.294</time>
      </trkpt>
      <trkpt lat="48.47428" lon="2.63744">
        <ele>143</ele>
        <time>2017-05-17T12:29:22.294</time>
      </trkpt>
      <trkpt lat="48.47429" lon="2.63745">
        <ele>144</ele>
        <time>2017-05-17T12:29:23.295</time>
      </trkpt>
      <trkpt lat="48.47432" lon="2.63745">
        <ele>144</ele>
        <time>2017-05-17T12:29:24.293</time>
      </trkpt>
      <trkpt lat="48.47433" lon="2.63746">
        <ele>143</ele>
        <time>2017-05-17T12:29:25.294</time>
      </trkpt>
      <trkpt lat="48.47438" lon="2.63744">
        <ele>145</ele>
        <time>2017-05-17T12:29:26.294</time>
      </trkpt>
      <trkpt lat="48.47442" lon="2.63743">
        <ele>145</ele>
        <time>2017-05-17T12:29:27.295</time>
      </trkpt>
      <trkpt lat="48.47445" lon="2.63743">
        <ele>144</ele>
        <time>2017-05-17T12:29:28.294</time>
      </trkpt>
      <trkpt lat="48.47449" lon="2.63741">
        <ele>144</ele>
        <time>2017-05-17T12:29:29.294</time>
      </trkpt>
      <trkpt lat="48.47453" lon="2.6374">
        <ele>145</ele>
        <time>2017-05-17T12:29:30.294</time>
      </trkpt>
      <trkpt lat="48.47457" lon="2.63738">
        <ele>145</ele>
        <time>2017-05-17T12:29:31.294</time>
      </trkpt>
      <trkpt lat="48.47461" lon="2.63738">
        <ele>146</ele>
        <time>2017-05-17T12:29:32.293</time>
      </trkpt>
      <trkpt lat="48.47466" lon="2.63739">
        <ele>145</ele>
        <time>2017-05-17T12:29:33.295</time>
      </trkpt>
      <trkpt lat="48.47471" lon="2.63739">
        <ele>145</ele>
        <time>2017-05-17T12:29:34.295</time>
      </trkpt>
      <trkpt lat="48.47476" lon="2.63739">
        <ele>145</ele>
        <time>2017-05-17T12:29:35.292</time>
      </trkpt>
      <trkpt lat="48.4748" lon="2.63737">
        <ele>145</ele>
        <time>2017-05-17T12:29:36.294</time>
      </trkpt>
      <trkpt lat="48.47487" lon="2.63736">
        <ele>146</ele>
        <time>2017-05-17T12:29:37.294</time>
      </trkpt>
      <trkpt lat="48.47491" lon="2.63735">
        <ele>146</ele>
        <time>2017-05-17T12:29:38.293</time>
      </trkpt>
      <trkpt lat="48.47495" lon="2.63733">
        <ele>147</ele>
        <time>2017-05-17T12:29:39.292</time>
      </trkpt>
      <trkpt lat="48.475" lon="2.63731">
        <ele>147</ele>
        <time>2017-05-17T12:29:40.292</time>
      </trkpt>
      <trkpt lat="48.47505" lon="2.6373">
        <ele>148</ele>
        <time>2017-05-17T12:29:41.294</time>
      </trkpt>
      <trkpt lat="48.4751" lon="2.6373">
        <ele>149</ele>
        <time>2017-05-17T12:29:42.294</time>
      </trkpt>
      <trkpt lat="48.47515" lon="2.6373">
        <ele>149</ele>
        <time>2017-05-17T12:29:43.293</time>
      </trkpt>
      <trkpt lat="48.4752" lon="2.63731">
        <ele>148</ele>
        <time>2017-05-17T12:29:44.292</time>
      </trkpt>
      <trkpt lat="48.47525" lon="2.63732">
        <ele>147</ele>
        <time>2017-05-17T12:29:45.293</time>
      </trkpt>
      <trkpt lat="48.47529" lon="2.63732">
        <ele>147</ele>
        <time>2017-05-17T12:29:46.293</time>
      </trkpt>
      <trkpt lat="48.47536" lon="2.6373">
        <ele>148</ele>
        <time>2017-05-17T12:29:47.291</time>
      </trkpt>
      <trkpt lat="48.47541" lon="2.63729">
        <ele>148</ele>
        <time>2017-05-17T12:29:48.292</time>
      </trkpt>
      <trkpt lat="48.47543" lon="2.63728">
        <ele>148</ele>
        <time>2017-05-17T12:29:49.292</time>
      </trkpt>
      <trkpt lat="48.47549" lon="2.63728">
        <ele>147</ele>
        <time>2017-05-17T12:29:50.292</time>
      </trkpt>
      <trkpt lat="48.47554" lon="2.63726">
        <ele>147</ele>
        <time>2017-05-17T12:29:51.292</time>
      </trkpt>
      <trkpt lat="48.47556" lon="2.63726">
        <ele>146</ele>
        <time>2017-05-17T12:29:52.291</time>
      </trkpt>
      <trkpt lat="48.4756" lon="2.63724">
        <ele>146</ele>
        <time>2017-05-17T12:29:53.292</time>
      </trkpt>
      <trkpt lat="48.47565" lon="2.63723">
        <ele>147</ele>
        <time>2017-05-17T12:29:54.292</time>
      </trkpt>
      <trkpt lat="48.4757" lon="2.63722">
        <ele>148</ele>
        <time>2017-05-17T12:29:55.293</time>
      </trkpt>
      <trkpt lat="48.47576" lon="2.63721">
        <ele>148</ele>
        <time>2017-05-17T12:29:56.292</time>
      </trkpt>
      <trkpt lat="48.47582" lon="2.63721">
        <ele>147</ele>
        <time>2017-05-17T12:29:57.292</time>
      </trkpt>
      <trkpt lat="48.47586" lon="2.63719">
        <ele>149</ele>
        <time>2017-05-17T12:29:58.292</time>
      </trkpt>
      <trkpt lat="48.47591" lon="2.63719">
        <ele>149</ele>
        <time>2017-05-17T12:29:59.291</time>
      </trkpt>
      <trkpt lat="48.47596" lon="2.63718">
        <ele>149</ele>
        <time>2017-05-17T12:30:00.298</time>
      </trkpt>
      <trkpt lat="48.476" lon="2.63718">
        <ele>149</ele>
        <time>2017-05-17T12:30:01.301</time>
      </trkpt>
      <trkpt lat="48.47605" lon="2.63718">
        <ele>149</ele>
        <time>2017-05-17T12:30:02.307</time>
      </trkpt>
      <trkpt lat="48.4761" lon="2.63717">
        <ele>148</ele>
        <time>2017-05-17T12:30:03.298</time>
      </trkpt>
      <trkpt lat="48.47614" lon="2.63716">
        <ele>148</ele>
        <time>2017-05-17T12:30:04.297</time>
      </trkpt>
      <trkpt lat="48.47617" lon="2.63716">
        <ele>147</ele>
        <time>2017-05-17T12:30:05.303</time>
      </trkpt>
      <trkpt lat="48.4762" lon="2.63718">
        <ele>147</ele>
        <time>2017-05-17T12:30:06.306</time>
      </trkpt>
      <trkpt lat="48.47625" lon="2.63718">
        <ele>146</ele>
        <time>2017-05-17T12:30:07.303</time>
      </trkpt>
      <trkpt lat="48.47631" lon="2.63717">
        <ele>144</ele>
        <time>2017-05-17T12:30:08.303</time>
      </trkpt>
      <trkpt lat="48.47636" lon="2.63714">
        <ele>144</ele>
        <time>2017-05-17T12:30:09.296</time>
      </trkpt>
      <trkpt lat="48.47642" lon="2.63714">
        <ele>143</ele>
        <time>2017-05-17T12:30:10.295</time>
      </trkpt>
      <trkpt lat="48.47647" lon="2.63714">
        <ele>142</ele>
        <time>2017-05-17T12:30:11.294</time>
      </trkpt>
      <trkpt lat="48.47651" lon="2.63715">
        <ele>142</ele>
        <time>2017-05-17T12:30:12.293</time>
      </trkpt>
      <trkpt lat="48.47655" lon="2.63713">
        <ele>142</ele>
        <time>2017-05-17T12:30:13.295</time>
      </trkpt>
      <trkpt lat="48.47658" lon="2.63713">
        <ele>142</ele>
        <time>2017-05-17T12:30:14.295</time>
      </trkpt>
      <trkpt lat="48.47662" lon="2.63713">
        <ele>141</ele>
        <time>2017-05-17T12:30:15.295</time>
      </trkpt>
      <trkpt lat="48.47665" lon="2.63711">
        <ele>141</ele>
        <time>2017-05-17T12:30:16.294</time>
      </trkpt>
      <trkpt lat="48.4767" lon="2.6371">
        <ele>141</ele>
        <time>2017-05-17T12:30:17.299</time>
      </trkpt>
      <trkpt lat="48.47674" lon="2.63712">
        <ele>140</ele>
        <time>2017-05-17T12:30:18.294</time>
      </trkpt>
      <trkpt lat="48.47676" lon="2.63712">
        <ele>141</ele>
        <time>2017-05-17T12:30:19.295</time>
      </trkpt>
      <trkpt lat="48.4768" lon="2.63712">
        <ele>142</ele>
        <time>2017-05-17T12:30:20.293</time>
      </trkpt>
      <trkpt lat="48.47682" lon="2.63714">
        <ele>143</ele>
        <time>2017-05-17T12:30:21.293</time>
      </trkpt>
      <trkpt lat="48.47687" lon="2.63712">
        <ele>144</ele>
        <time>2017-05-17T12:30:22.295</time>
      </trkpt>
      <trkpt lat="48.47691" lon="2.6371">
        <ele>144</ele>
        <time>2017-05-17T12:30:23.293</time>
      </trkpt>
      <trkpt lat="48.47695" lon="2.63709">
        <ele>144</ele>
        <time>2017-05-17T12:30:24.295</time>
      </trkpt>
      <trkpt lat="48.47699" lon="2.63709">
        <ele>145</ele>
        <time>2017-05-17T12:30:25.294</time>
      </trkpt>
      <trkpt lat="48.47703" lon="2.63709">
        <ele>145</ele>
        <time>2017-05-17T12:30:26.294</time>
      </trkpt>
      <trkpt lat="48.47707" lon="2.63707">
        <ele>145</ele>
        <time>2017-05-17T12:30:27.295</time>
      </trkpt>
      <trkpt lat="48.47713" lon="2.6371">
        <ele>143</ele>
        <time>2017-05-17T12:30:28.295</time>
      </trkpt>
      <trkpt lat="48.47717" lon="2.63708">
        <ele>143</ele>
        <time>2017-05-17T12:30:29.296</time>
      </trkpt>
      <trkpt lat="48.47722" lon="2.63705">
        <ele>143</ele>
        <time>2017-05-17T12:30:30.297</time>
      </trkpt>
      <trkpt lat="48.47728" lon="2.63705">
        <ele>142</ele>
        <time>2017-05-17T12:30:31.296</time>
      </trkpt>
      <trkpt lat="48.47731" lon="2.63704">
        <ele>142</ele>
        <time>2017-05-17T12:30:32.296</time>
      </trkpt>
      <trkpt lat="48.47736" lon="2.63703">
        <ele>143</ele>
        <time>2017-05-17T12:30:33.296</time>
      </trkpt>
      <trkpt lat="48.4774" lon="2.63701">
        <ele>144</ele>
        <time>2017-05-17T12:30:34.296</time>
      </trkpt>
      <trkpt lat="48.47743" lon="2.637">
        <ele>144</ele>
        <time>2017-05-17T12:30:35.295</time>
      </trkpt>
      <trkpt lat="48.47747" lon="2.63699">
        <ele>145</ele>
        <time>2017-05-17T12:30:36.293</time>
      </trkpt>
      <trkpt lat="48.47752" lon="2.63696">
        <ele>145</ele>
        <time>2017-05-17T12:30:37.295</time>
      </trkpt>
      <trkpt lat="48.47758" lon="2.63695">
        <ele>144</ele>
        <time>2017-05-17T12:30:38.293</time>
      </trkpt>
      <trkpt lat="48.47762" lon="2.63696">
        <ele>144</ele>
        <time>2017-05-17T12:30:39.295</time>
      </trkpt>
      <trkpt lat="48.47767" lon="2.63692">
        <ele>145</ele>
        <time>2017-05-17T12:30:40.294</time>
      </trkpt>
      <trkpt lat="48.47771" lon="2.63691">
        <ele>144</ele>
        <time>2017-05-17T12:30:41.294</time>
      </trkpt>
      <trkpt lat="48.47776" lon="2.63693">
        <ele>144</ele>
        <time>2017-05-17T12:30:42.306</time>
      </trkpt>
      <trkpt lat="48.4778" lon="2.63692">
        <ele>143</ele>
        <time>2017-05-17T12:30:43.295</time>
      </trkpt>
      <trkpt lat="48.47784" lon="2.63694">
        <ele>142</ele>
        <time>2017-05-17T12:30:44.296</time>
      </trkpt>
      <trkpt lat="48.4779" lon="2.63692">
        <ele>141</ele>
        <time>2017-05-17T12:30:45.295</time>
      </trkpt>
      <trkpt lat="48.47795" lon="2.63693">
        <ele>141</ele>
        <time>2017-05-17T12:30:46.294</time>
      </trkpt>
      <trkpt lat="48.478" lon="2.63694">
        <ele>140</ele>
        <time>2017-05-17T12:30:47.293</time>
      </trkpt>
      <trkpt lat="48.47805" lon="2.63693">
        <ele>140</ele>
        <time>2017-05-17T12:30:48.294</time>
      </trkpt>
      <trkpt lat="48.47811" lon="2.63691">
        <ele>140</ele>
        <time>2017-05-17T12:30:49.294</time>
      </trkpt>
      <trkpt lat="48.47814" lon="2.63691">
        <ele>140</ele>
        <time>2017-05-17T12:30:50.294</time>
      </trkpt>
      <trkpt lat="48.4782" lon="2.63691">
        <ele>142</ele>
        <time>2017-05-17T12:30:51.293</time>
      </trkpt>
      <trkpt lat="48.47826" lon="2.6369">
        <ele>143</ele>
        <time>2017-05-17T12:30:52.294</time>
      </trkpt>
      <trkpt lat="48.47833" lon="2.63687">
        <ele>145</ele>
        <time>2017-05-17T12:30:53.293</time>
      </trkpt>
      <trkpt lat="48.47838" lon="2.63685">
        <ele>144</ele>
        <time>2017-05-17T12:30:54.292</time>
      </trkpt>
      <trkpt lat="48.47842" lon="2.63685">
        <ele>146</ele>
        <time>2017-05-17T12:30:55.294</time>
      </trkpt>
      <trkpt lat="48.47847" lon="2.63686">
        <ele>145</ele>
        <time>2017-05-17T12:30:56.295</time>
      </trkpt>
      <trkpt lat="48.47854" lon="2.63684">
        <ele>144</ele>
        <time>2017-05-17T12:30:57.294</time>
      </trkpt>
      <trkpt lat="48.47859" lon="2.63683">
        <ele>146</ele>
        <time>2017-05-17T12:30:58.293</time>
      </trkpt>
      <trkpt lat="48.47864" lon="2.63682">
        <ele>145</ele>
        <time>2017-05-17T12:30:59.294</time>
      </trkpt>
      <trkpt lat="48.47871" lon="2.63682">
        <ele>145</ele>
        <time>2017-05-17T12:31:00.295</time>
      </trkpt>
      <trkpt lat="48.47874" lon="2.63683">
        <ele>145</ele>
        <time>2017-05-17T12:31:01.295</time>
      </trkpt>
      <trkpt lat="48.4788" lon="2.63681">
        <ele>146</ele>
        <time>2017-05-17T12:31:02.294</time>
      </trkpt>
      <trkpt lat="48.47886" lon="2.6368">
        <ele>147</ele>
        <time>2017-05-17T12:31:03.295</time>
      </trkpt>
      <trkpt lat="48.47892" lon="2.63678">
        <ele>146</ele>
        <time>2017-05-17T12:31:04.296</time>
      </trkpt>
      <trkpt lat="48.47899" lon="2.63675">
        <ele>148</ele>
        <time>2017-05-17T12:31:05.294</time>
      </trkpt>
      <trkpt lat="48.47906" lon="2.63678">
        <ele>148</ele>
        <time>2017-05-17T12:31:06.294</time>
      </trkpt>
      <trkpt lat="48.47909" lon="2.63675">
        <ele>147</ele>
        <time>2017-05-17T12:31:07.292</time>
      </trkpt>
      <trkpt lat="48.47914" lon="2.63673">
        <ele>146</ele>
        <time>2017-05-17T12:31:08.294</time>
      </trkpt>
      <trkpt lat="48.4792" lon="2.63673">
        <ele>147</ele>
        <time>2017-05-17T12:31:09.294</time>
      </trkpt>
      <trkpt lat="48.47923" lon="2.63672">
        <ele>146</ele>
        <time>2017-05-17T12:31:10.293</time>
      </trkpt>
      <trkpt lat="48.47929" lon="2.63672">
        <ele>146</ele>
        <time>2017-05-17T12:31:11.296</time>
      </trkpt>
      <trkpt lat="48.47934" lon="2.63671">
        <ele>145</ele>
        <time>2017-05-17T12:31:12.293</time>
      </trkpt>
      <trkpt lat="48.47941" lon="2.63671">
        <ele>144</ele>
        <time>2017-05-17T12:31:13.294</time>
      </trkpt>
      <trkpt lat="48.47947" lon="2.63671">
        <ele>144</ele>
        <time>2017-05-17T12:31:14.293</time>
      </trkpt>
      <trkpt lat="48.47952" lon="2.63671">
        <ele>144</ele>
        <time>2017-05-17T12:31:15.292</time>
      </trkpt>
      <trkpt lat="48.47958" lon="2.63671">
        <ele>143</ele>
        <time>2017-05-17T12:31:16.293</time>
      </trkpt>
      <trkpt lat="48.47964" lon="2.6367">
        <ele>144</ele>
        <time>2017-05-17T12:31:17.294</time>
      </trkpt>
      <trkpt lat="48.4797" lon="2.63667">
        <ele>144</ele>
        <time>2017-05-17T12:31:18.294</time>
      </trkpt>
      <trkpt lat="48.47975" lon="2.63664">
        <ele>144</ele>
        <time>2017-05-17T12:31:19.294</time>
      </trkpt>
      <trkpt lat="48.47981" lon="2.63664">
        <ele>145</ele>
        <time>2017-05-17T12:31:20.293</time>
      </trkpt>
      <trkpt lat="48.47984" lon="2.63662">
        <ele>143</ele>
        <time>2017-05-17T12:31:21.294</time>
      </trkpt>
      <trkpt lat="48.47991" lon="2.63662">
        <ele>144</ele>
        <time>2017-05-17T12:31:22.295</time>
      </trkpt>
      <trkpt lat="48.47998" lon="2.63661">
        <ele>144</ele>
        <time>2017-05-17T12:31:23.295</time>
      </trkpt>
      <trkpt lat="48.48002" lon="2.63663">
        <ele>144</ele>
        <time>2017-05-17T12:31:24.294</time>
      </trkpt>
      <trkpt lat="48.48009" lon="2.63662">
        <ele>143</ele>
        <time>2017-05-17T12:31:25.296</time>
      </trkpt>
      <trkpt lat="48.48013" lon="2.63664">
        <ele>142</ele>
        <time>2017-05-17T12:31:26.295</time>
      </trkpt>
      <trkpt lat="48.48017" lon="2.63665">
        <ele>141</ele>
        <time>2017-05-17T12:31:27.295</time>
      </trkpt>
      <trkpt lat="48.48022" lon="2.63662">
        <ele>140</ele>
        <time>2017-05-17T12:31:28.296</time>
      </trkpt>
      <trkpt lat="48.48027" lon="2.63661">
        <ele>140</ele>
        <time>2017-05-17T12:31:29.294</time>
      </trkpt>
      <trkpt lat="48.48032" lon="2.6366">
        <ele>141</ele>
        <time>2017-05-17T12:31:30.297</time>
      </trkpt>
      <trkpt lat="48.48038" lon="2.63662">
        <ele>140</ele>
        <time>2017-05-17T12:31:31.295</time>
      </trkpt>
      <trkpt lat="48.48043" lon="2.6366">
        <ele>140</ele>
        <time>2017-05-17T12:31:32.294</time>
      </trkpt>
      <trkpt lat="48.48049" lon="2.63657">
        <ele>139</ele>
        <time>2017-05-17T12:31:33.294</time>
      </trkpt>
      <trkpt lat="48.48053" lon="2.63654">
        <ele>140</ele>
        <time>2017-05-17T12:31:34.296</time>
      </trkpt>
      <trkpt lat="48.48057" lon="2.63653">
        <ele>140</ele>
        <time>2017-05-17T12:31:35.296</time>
      </trkpt>
      <trkpt lat="48.48064" lon="2.63654">
        <ele>141</ele>
        <time>2017-05-17T12:31:36.293</time>
      </trkpt>
      <trkpt lat="48.4807" lon="2.63653">
        <ele>141</ele>
        <time>2017-05-17T12:31:37.292</time>
      </trkpt>
      <trkpt lat="48.48076" lon="2.63652">
        <ele>142</ele>
        <time>2017-05-17T12:31:38.294</time>
      </trkpt>
      <trkpt lat="48.48081" lon="2.63652">
        <ele>143</ele>
        <time>2017-05-17T12:31:39.295</time>
      </trkpt>
      <trkpt lat="48.48087" lon="2.63651">
        <ele>144</ele>
        <time>2017-05-17T12:31:40.293</time>
      </trkpt>
      <trkpt lat="48.48092" lon="2.63654">
        <ele>144</ele>
        <time>2017-05-17T12:31:41.294</time>
      </trkpt>
      <trkpt lat="48.48097" lon="2.63652">
        <ele>145</ele>
        <time>2017-05-17T12:31:42.293</time>
      </trkpt>
      <trkpt lat="48.48102" lon="2.63652">
        <ele>145</ele>
        <time>2017-05-17T12:31:43.292</time>
      </trkpt>
      <trkpt lat="48.48106" lon="2.63654">
        <ele>146</ele>
        <time>2017-05-17T12:31:44.292</time>
      </trkpt>
      <trkpt lat="48.48112" lon="2.63653">
        <ele>147</ele>
        <time>2017-05-17T12:31:45.294</time>
      </trkpt>
      <trkpt lat="48.48117" lon="2.63648">
        <ele>149</ele>
        <time>2017-05-17T12:31:46.294</time>
      </trkpt>
      <trkpt lat="48.48123" lon="2.63647">
        <ele>149</ele>
        <time>2017-05-17T12:31:47.294</time>
      </trkpt>
      <trkpt lat="48.48128" lon="2.63647">
        <ele>149</ele>
        <time>2017-05-17T12:31:48.295</time>
      </trkpt>
      <trkpt lat="48.48135" lon="2.63647">
        <ele>148</ele>
        <time>2017-05-17T12:31:49.294</time>
      </trkpt>
      <trkpt lat="48.48142" lon="2.63644">
        <ele>147</ele>
        <time>2017-05-17T12:31:50.295</time>
      </trkpt>
      <trkpt lat="48.48146" lon="2.63642">
        <ele>145</ele>
        <time>2017-05-17T12:31:51.294</time>
      </trkpt>
      <trkpt lat="48.48152" lon="2.6364">
        <ele>146</ele>
        <time>2017-05-17T12:31:52.295</time>
      </trkpt>
      <trkpt lat="48.48156" lon="2.63639">
        <ele>146</ele>
        <time>2017-05-17T12:31:53.294</time>
      </trkpt>
      <trkpt lat="48.48163" lon="2.63638">
        <ele>147</ele>
        <time>2017-05-17T12:31:54.295</time>
      </trkpt>
      <trkpt lat="48.48169" lon="2.63636">
        <ele>147</ele>
        <time>2017-05-17T12:31:55.297</time>
      </trkpt>
      <trkpt lat="48.48175" lon="2.63637">
        <ele>147</ele>
        <time>2017-05-17T12:31:56.294</time>
      </trkpt>
      <trkpt lat="48.48182" lon="2.63639">
        <ele>146</ele>
        <time>2017-05-17T12:31:57.295</time>
      </trkpt>
      <trkpt lat="48.48191" lon="2.63639">
        <ele>145</ele>
        <time>2017-05-17T12:31:58.296</time>
      </trkpt>
      <trkpt lat="48.48195" lon="2.63643">
        <ele>146</ele>
        <time>2017-05-17T12:31:59.295</time>
      </trkpt>
      <trkpt lat="48.48206" lon="2.63634">
        <ele>146</ele>
        <time>2017-05-17T12:32:00.294</time>
      </trkpt>
      <trkpt lat="48.48211" lon="2.63635">
        <ele>145</ele>
        <time>2017-05-17T12:32:01.294</time>
      </trkpt>
      <trkpt lat="48.48212" lon="2.63639">
        <ele>145</ele>
        <time>2017-05-17T12:32:02.296</time>
      </trkpt>
      <trkpt lat="48.48219" lon="2.63637">
        <ele>144</ele>
        <time>2017-05-17T12:32:03.296</time>
      </trkpt>
      <trkpt lat="48.48224" lon="2.63637">
        <ele>144</ele>
        <time>2017-05-17T12:32:04.297</time>
      </trkpt>
      <trkpt lat="48.48229" lon="2.63634">
        <ele>144</ele>
        <time>2017-05-17T12:32:05.297</time>
      </trkpt>
      <trkpt lat="48.48237" lon="2.63633">
        <ele>145</ele>
        <time>2017-05-17T12:32:06.294</time>
      </trkpt>
      <trkpt lat="48.48244" lon="2.63632">
        <ele>144</ele>
        <time>2017-05-17T12:32:07.294</time>
      </trkpt>
      <trkpt lat="48.4825" lon="2.63631">
        <ele>144</ele>
        <time>2017-05-17T12:32:08.294</time>
      </trkpt>
      <trkpt lat="48.48256" lon="2.63631">
        <ele>144</ele>
        <time>2017-05-17T12:32:09.295</time>
      </trkpt>
      <trkpt lat="48.48263" lon="2.63632">
        <ele>144</ele>
        <time>2017-05-17T12:32:10.294</time>
      </trkpt>
      <trkpt lat="48.48268" lon="2.63632">
        <ele>144</ele>
        <time>2017-05-17T12:32:11.294</time>
      </trkpt>
      <trkpt lat="48.48273" lon="2.63632">
        <ele>143</ele>
        <time>2017-05-17T12:32:12.294</time>
      </trkpt>
      <trkpt lat="48.4828" lon="2.63631">
        <ele>144</ele>
        <time>2017-05-17T12:32:13.294</time>
      </trkpt>
      <trkpt lat="48.48285" lon="2.6363">
        <ele>143</ele>
        <time>2017-05-17T12:32:14.293</time>
      </trkpt>
      <trkpt lat="48.48292" lon="2.63628">
        <ele>144</ele>
        <time>2017-05-17T12:32:15.294</time>
      </trkpt>
      <trkpt lat="48.48298" lon="2.63626">
        <ele>144</ele>
        <time>2017-05-17T12:32:16.294</time>
      </trkpt>
      <trkpt lat="48.48304" lon="2.63625">
        <ele>145</ele>
        <time>2017-05-17T12:32:17.295</time>
      </trkpt>
      <trkpt lat="48.4831" lon="2.63623">
        <ele>145</ele>
        <time>2017-05-17T12:32:18.294</time>
      </trkpt>
      <trkpt lat="48.48316" lon="2.63623">
        <ele>145</ele>
        <time>2017-05-17T12:32:19.295</time>
      </trkpt>
      <trkpt lat="48.48321" lon="2.63621">
        <ele>145</ele>
        <time>2017-05-17T12:32:20.297</time>
      </trkpt>
      <trkpt lat="48.48326" lon="2.63622">
        <ele>144</ele>
        <time>2017-05-17T12:32:21.294</time>
      </trkpt>
      <trkpt lat="48.48332" lon="2.63622">
        <ele>143</ele>
        <time>2017-05-17T12:32:22.293</time>
      </trkpt>
      <trkpt lat="48.48337" lon="2.6362">
        <ele>143</ele>
        <time>2017-05-17T12:32:23.294</time>
      </trkpt>
      <trkpt lat="48.48343" lon="2.63619">
        <ele>143</ele>
        <time>2017-05-17T12:32:24.294</time>
      </trkpt>
      <trkpt lat="48.48349" lon="2.63616">
        <ele>144</ele>
        <time>2017-05-17T12:32:25.296</time>
      </trkpt>
      <trkpt lat="48.48354" lon="2.63614">
        <ele>145</ele>
        <time>2017-05-17T12:32:26.294</time>
      </trkpt>
      <trkpt lat="48.48359" lon="2.63614">
        <ele>145</ele>
        <time>2017-05-17T12:32:27.294</time>
      </trkpt>
      <trkpt lat="48.48364" lon="2.63613">
        <ele>146</ele>
        <time>2017-05-17T12:32:28.295</time>
      </trkpt>
      <trkpt lat="48.48369" lon="2.63615">
        <ele>145</ele>
        <time>2017-05-17T12:32:29.297</time>
      </trkpt>
      <trkpt lat="48.48375" lon="2.63614">
        <ele>145</ele>
        <time>2017-05-17T12:32:30.296</time>
      </trkpt>
      <trkpt lat="48.4838" lon="2.63614">
        <ele>145</ele>
        <time>2017-05-17T12:32:31.295</time>
      </trkpt>
      <trkpt lat="48.48386" lon="2.63614">
        <ele>145</ele>
        <time>2017-05-17T12:32:32.295</time>
      </trkpt>
      <trkpt lat="48.48391" lon="2.63613">
        <ele>145</ele>
        <time>2017-05-17T12:32:33.296</time>
      </trkpt>
      <trkpt lat="48.48397" lon="2.63611">
        <ele>145</ele>
        <time>2017-05-17T12:32:34.293</time>
      </trkpt>
      <trkpt lat="48.48402" lon="2.63609">
        <ele>145</ele>
        <time>2017-05-17T12:32:35.295</time>
      </trkpt>
      <trkpt lat="48.48405" lon="2.63609">
        <ele>144</ele>
        <time>2017-05-17T12:32:36.295</time>
      </trkpt>
      <trkpt lat="48.48409" lon="2.6361">
        <ele>144</ele>
        <time>2017-05-17T12:32:37.295</time>
      </trkpt>
      <trkpt lat="48.48415" lon="2.6361">
        <ele>144</ele>
        <time>2017-05-17T12:32:38.295</time>
      </trkpt>
      <trkpt lat="48.48421" lon="2.63609">
        <ele>146</ele>
        <time>2017-05-17T12:32:39.296</time>
      </trkpt>
      <trkpt lat="48.48426" lon="2.63609">
        <ele>146</ele>
        <time>2017-05-17T12:32:40.296</time>
      </trkpt>
      <trkpt lat="48.4843" lon="2.63607">
        <ele>147</ele>
        <time>2017-05-17T12:32:41.295</time>
      </trkpt>
      <trkpt lat="48.48436" lon="2.63607">
        <ele>148</ele>
        <time>2017-05-17T12:32:42.295</time>
      </trkpt>
      <trkpt lat="48.48442" lon="2.63607">
        <ele>147</ele>
        <time>2017-05-17T12:32:43.294</time>
      </trkpt>
      <trkpt lat="48.48446" lon="2.63606">
        <ele>148</ele>
        <time>2017-05-17T12:32:44.293</time>
      </trkpt>
      <trkpt lat="48.48451" lon="2.63606">
        <ele>148</ele>
        <time>2017-05-17T12:32:45.293</time>
      </trkpt>
      <trkpt lat="48.48455" lon="2.63606">
        <ele>148</ele>
        <time>2017-05-17T12:32:46.294</time>
      </trkpt>
      <trkpt lat="48.48459" lon="2.63605">
        <ele>148</ele>
        <time>2017-05-17T12:32:47.294</time>
      </trkpt>
      <trkpt lat="48.48461" lon="2.63604">
        <ele>147</ele>
        <time>2017-05-17T12:32:48.294</time>
      </trkpt>
      <trkpt lat="48.48465" lon="2.63603">
        <ele>147</ele>
        <time>2017-05-17T12:32:49.294</time>
      </trkpt>
      <trkpt lat="48.48469" lon="2.63605">
        <ele>147</ele>
        <time>2017-05-17T12:32:50.292</time>
      </trkpt>
      <trkpt lat="48.48472" lon="2.63604">
        <ele>148</ele>
        <time>2017-05-17T12:32:51.293</time>
      </trkpt>
      <trkpt lat="48.48475" lon="2.63602">
        <ele>148</ele>
        <time>2017-05-17T12:32:52.295</time>
      </trkpt>
      <trkpt lat="48.4848" lon="2.63602">
        <ele>148</ele>
        <time>2017-05-17T12:32:53.293</time>
      </trkpt>
      <trkpt lat="48.48482" lon="2.63602">
        <ele>149</ele>
        <time>2017-05-17T12:32:54.295</time>
      </trkpt>
      <trkpt lat="48.48485" lon="2.63602">
        <ele>149</ele>
        <time>2017-05-17T12:32:55.294</time>
      </trkpt>
      <trkpt lat="48.48489" lon="2.63602">
        <ele>149</ele>
        <time>2017-05-17T12:32:56.293</time>
      </trkpt>
      <trkpt lat="48.48491" lon="2.63602">
        <ele>148</ele>
        <time>2017-05-17T12:32:57.294</time>
      </trkpt>
      <trkpt lat="48.48494" lon="2.63601">
        <ele>149</ele>
        <time>2017-05-17T12:32:58.294</time>
      </trkpt>
      <trkpt lat="48.48498" lon="2.63599">
        <ele>150</ele>
        <time>2017-05-17T12:32:59.294</time>
      </trkpt>
      <trkpt lat="48.48502" lon="2.63598">
        <ele>150</ele>
        <time>2017-05-17T12:33:00.292</time>
      </trkpt>
      <trkpt lat="48.48505" lon="2.63597">
        <ele>151</ele>
        <time>2017-05-17T12:33:01.294</time>
      </trkpt>
      <trkpt lat="48.48508" lon="2.63596">
        <ele>151</ele>
        <time>2017-05-17T12:33:02.297</time>
      </trkpt>
      <trkpt lat="48.48512" lon="2.63596">
        <ele>151</ele>
        <time>2017-05-17T12:33:03.297</time>
      </trkpt>
      <trkpt lat="48.48516" lon="2.63595">
        <ele>151</ele>
        <time>2017-05-17T12:33:04.296</time>
      </trkpt>
      <trkpt lat="48.48518" lon="2.63594">
        <ele>152</ele>
        <time>2017-05-17T12:33:05.297</time>
      </trkpt>
      <trkpt lat="48.48522" lon="2.63594">
        <ele>151</ele>
        <time>2017-05-17T12:33:06.295</time>
      </trkpt>
      <trkpt lat="48.48524" lon="2.63594">
        <ele>152</ele>
        <time>2017-05-17T12:33:07.297</time>
      </trkpt>
      <trkpt lat="48.48528" lon="2.63593">
        <ele>151</ele>
        <time>2017-05-17T12:33:08.300</time>
      </trkpt>
      <trkpt lat="48.48531" lon="2.63591">
        <ele>153</ele>
        <time>2017-05-17T12:33:09.303</time>
      </trkpt>
      <trkpt lat="48.48533" lon="2.6359">
        <ele>153</ele>
        <time>2017-05-17T12:33:10.302</time>
      </trkpt>
      <trkpt lat="48.48535" lon="2.6359">
        <ele>154</ele>
        <time>2017-05-17T12:33:11.303</time>
      </trkpt>
      <trkpt lat="48.48538" lon="2.63589">
        <ele>155</ele>
        <time>2017-05-17T12:33:12.316</time>
      </trkpt>
      <trkpt lat="48.4854" lon="2.63589">
        <ele>154</ele>
        <time>2017-05-17T12:33:13.312</time>
      </trkpt>
      <trkpt lat="48.48543" lon="2.63588">
        <ele>153</ele>
        <time>2017-05-17T12:33:14.295</time>
      </trkpt>
      <trkpt lat="48.48546" lon="2.63587">
        <ele>154</ele>
        <time>2017-05-17T12:33:15.293</time>
      </trkpt>
      <trkpt lat="48.48549" lon="2.63586">
        <ele>154</ele>
        <time>2017-05-17T12:33:16.294</time>
      </trkpt>
      <trkpt lat="48.48552" lon="2.63585">
        <ele>154</ele>
        <time>2017-05-17T12:33:17.295</time>
      </trkpt>
      <trkpt lat="48.48555" lon="2.63585">
        <ele>154</ele>
        <time>2017-05-17T12:33:18.296</time>
      </trkpt>
      <trkpt lat="48.48557" lon="2.63587">
        <ele>152</ele>
        <time>2017-05-17T12:33:19.297</time>
      </trkpt>
      <trkpt lat="48.48561" lon="2.63586">
        <ele>154</ele>
        <time>2017-05-17T12:33:20.297</time>
      </trkpt>
      <trkpt lat="48.48565" lon="2.63585">
        <ele>155</ele>
        <time>2017-05-17T12:33:21.295</time>
      </trkpt>
      <trkpt lat="48.48568" lon="2.63586">
        <ele>155</ele>
        <time>2017-05-17T12:33:22.293</time>
      </trkpt>
      <trkpt lat="48.48571" lon="2.63587">
        <ele>154</ele>
        <time>2017-05-17T12:33:23.293</time>
      </trkpt>
      <trkpt lat="48.48575" lon="2.63587">
        <ele>154</ele>
        <time>2017-05-17T12:33:24.294</time>
      </trkpt>
      <trkpt lat="48.48577" lon="2.63587">
        <ele>154</ele>
        <time>2017-05-17T12:33:25.297</time>
      </trkpt>
      <trkpt lat="48.48579" lon="2.63586">
        <ele>154</ele>
        <time>2017-05-17T12:33:26.295</time>
      </trkpt>
      <trkpt lat="48.48581" lon="2.63585">
        <ele>154</ele>
        <time>2017-05-17T12:33:27.294</time>
      </trkpt>
      <trkpt lat="48.48585" lon="2.63584">
        <ele>155</ele>
        <time>2017-05-17T12:33:28.295</time>
      </trkpt>
      <trkpt lat="48.48588" lon="2.63583">
        <ele>156</ele>
        <time>2017-05-17T12:33:29.295</time>
      </trkpt>
      <trkpt lat="48.48591" lon="2.63582">
        <ele>156</ele>
        <time>2017-05-17T12:33:30.298</time>
      </trkpt>
      <trkpt lat="48.48594" lon="2.63582">
        <ele>156</ele>
        <time>2017-05-17T12:33:31.296</time>
      </trkpt>
      <trkpt lat="48.48598" lon="2.63581">
        <ele>156</ele>
        <time>2017-05-17T12:33:32.295</time>
      </trkpt>
      <trkpt lat="48.48602" lon="2.63579">
        <ele>156</ele>
        <time>2017-05-17T12:33:33.296</time>
      </trkpt>
      <trkpt lat="48.48604" lon="2.63579">
        <ele>156</ele>
        <time>2017-05-17T12:33:34.297</time>
      </trkpt>
      <trkpt lat="48.48607" lon="2.63577">
        <ele>156</ele>
        <time>2017-05-17T12:33:35.299</time>
      </trkpt>
      <trkpt lat="48.48611" lon="2.63578">
        <ele>155</ele>
        <time>2017-05-17T12:33:36.296</time>
      </trkpt>
      <trkpt lat="48.48614" lon="2.63579">
        <ele>155</ele>
        <time>2017-05-17T12:33:37.295</time>
      </trkpt>
      <trkpt lat="48.48617" lon="2.63579">
        <ele>156</ele>
        <time>2017-05-17T12:33:38.295</time>
      </trkpt>
      <trkpt lat="48.4862" lon="2.63579">
        <ele>156</ele>
        <time>2017-05-17T12:33:39.295</time>
      </trkpt>
      <trkpt lat="48.48623" lon="2.63579">
        <ele>156</ele>
        <time>2017-05-17T12:33:40.296</time>
      </trkpt>
      <trkpt lat="48.48626" lon="2.63579">
        <ele>156</ele>
        <time>2017-05-17T12:33:41.296</time>
      </trkpt>
      <trkpt lat="48.4863" lon="2.63578">
        <ele>157</ele>
        <time>2017-05-17T12:33:42.295</time>
      </trkpt>
      <trkpt lat="48.48633" lon="2.63577">
        <ele>157</ele>
        <time>2017-05-17T12:33:43.293</time>
      </trkpt>
      <trkpt lat="48.48636" lon="2.63577">
        <ele>157</ele>
        <time>2017-05-17T12:33:44.309</time>
      </trkpt>
      <trkpt lat="48.4864" lon="2.63577">
        <ele>157</ele>
        <time>2017-05-17T12:33:45.294</time>
      </trkpt>
      <trkpt lat="48.48643" lon="2.63576">
        <ele>157</ele>
        <time>2017-05-17T12:33:46.295</time>
      </trkpt>
      <trkpt lat="48.48645" lon="2.63576">
        <ele>156</ele>
        <time>2017-05-17T12:33:47.294</time>
      </trkpt>
      <trkpt lat="48.48648" lon="2.63575">
        <ele>156</ele>
        <time>2017-05-17T12:33:48.293</time>
      </trkpt>
      <trkpt lat="48.4865" lon="2.63574">
        <ele>156</ele>
        <time>2017-05-17T12:33:49.294</time>
      </trkpt>
      <trkpt lat="48.48654" lon="2.63574">
        <ele>156</ele>
        <time>2017-05-17T12:33:50.294</time>
      </trkpt>
      <trkpt lat="48.48656" lon="2.63572">
        <ele>155</ele>
        <time>2017-05-17T12:33:51.294</time>
      </trkpt>
      <trkpt lat="48.48658" lon="2.63574">
        <ele>155</ele>
        <time>2017-05-17T12:33:52.293</time>
      </trkpt>
      <trkpt lat="48.48661" lon="2.63573">
        <ele>156</ele>
        <time>2017-05-17T12:33:53.295</time>
      </trkpt>
      <trkpt lat="48.48665" lon="2.63574">
        <ele>156</ele>
        <time>2017-05-17T12:33:54.294</time>
      </trkpt>
      <trkpt lat="48.4867" lon="2.63574">
        <ele>156</ele>
        <time>2017-05-17T12:33:55.294</time>
      </trkpt>
      <trkpt lat="48.48674" lon="2.63573">
        <ele>157</ele>
        <time>2017-05-17T12:33:56.296</time>
      </trkpt>
      <trkpt lat="48.4868" lon="2.63571">
        <ele>156</ele>
        <time>2017-05-17T12:33:57.294</time>
      </trkpt>
      <trkpt lat="48.48684" lon="2.63571">
        <ele>156</ele>
        <time>2017-05-17T12:33:58.295</time>
      </trkpt>
      <trkpt lat="48.48688" lon="2.6357">
        <ele>155</ele>
        <time>2017-05-17T12:33:59.295</time>
      </trkpt>
      <trkpt lat="48.48693" lon="2.6357">
        <ele>156</ele>
        <time>2017-05-17T12:34:00.294</time>
      </trkpt>
      <trkpt lat="48.48697" lon="2.63569">
        <ele>156</ele>
        <time>2017-05-17T12:34:01.294</time>
      </trkpt>
      <trkpt lat="48.48701" lon="2.63568">
        <ele>156</ele>
        <time>2017-05-17T12:34:02.296</time>
      </trkpt>
      <trkpt lat="48.48706" lon="2.63567">
        <ele>155</ele>
        <time>2017-05-17T12:34:03.296</time>
      </trkpt>
      <trkpt lat="48.4871" lon="2.63567">
        <ele>156</ele>
        <time>2017-05-17T12:34:04.295</time>
      </trkpt>
      <trkpt lat="48.48715" lon="2.63564">
        <ele>157</ele>
        <time>2017-05-17T12:34:05.297</time>
      </trkpt>
      <trkpt lat="48.48718" lon="2.63563">
        <ele>157</ele>
        <time>2017-05-17T12:34:06.295</time>
      </trkpt>
      <trkpt lat="48.48723" lon="2.63564">
        <ele>155</ele>
        <time>2017-05-17T12:34:07.294</time>
      </trkpt>
      <trkpt lat="48.48727" lon="2.63564">
        <ele>154</ele>
        <time>2017-05-17T12:34:08.295</time>
      </trkpt>
      <trkpt lat="48.48731" lon="2.63565">
        <ele>153</ele>
        <time>2017-05-17T12:34:09.294</time>
      </trkpt>
      <trkpt lat="48.48736" lon="2.63566">
        <ele>154</ele>
        <time>2017-05-17T12:34:10.296</time>
      </trkpt>
      <trkpt lat="48.48741" lon="2.63567">
        <ele>153</ele>
        <time>2017-05-17T12:34:11.297</time>
      </trkpt>
      <trkpt lat="48.48745" lon="2.63567">
        <ele>154</ele>
        <time>2017-05-17T12:34:12.295</time>
      </trkpt>
      <trkpt lat="48.48749" lon="2.63565">
        <ele>155</ele>
        <time>2017-05-17T12:34:13.294</time>
      </trkpt>
      <trkpt lat="48.48754" lon="2.63564">
        <ele>155</ele>
        <time>2017-05-17T12:34:14.296</time>
      </trkpt>
      <trkpt lat="48.48757" lon="2.63564">
        <ele>155</ele>
        <time>2017-05-17T12:34:15.297</time>
      </trkpt>
      <trkpt lat="48.48762" lon="2.63565">
        <ele>155</ele>
        <time>2017-05-17T12:34:16.295</time>
      </trkpt>
      <trkpt lat="48.48767" lon="2.63563">
        <ele>155</ele>
        <time>2017-05-17T12:34:17.298</time>
      </trkpt>
      <trkpt lat="48.48772" lon="2.63562">
        <ele>155</ele>
        <time>2017-05-17T12:34:18.301</time>
      </trkpt>
      <trkpt lat="48.48776" lon="2.63562">
        <ele>156</ele>
        <time>2017-05-17T12:34:19.296</time>
      </trkpt>
      <trkpt lat="48.48781" lon="2.63561">
        <ele>157</ele>
        <time>2017-05-17T12:34:20.297</time>
      </trkpt>
      <trkpt lat="48.48786" lon="2.63559">
        <ele>158</ele>
        <time>2017-05-17T12:34:21.297</time>
      </trkpt>
      <trkpt lat="48.4879" lon="2.63559">
        <ele>157</ele>
        <time>2017-05-17T12:34:22.296</time>
      </trkpt>
      <trkpt lat="48.48794" lon="2.63557">
        <ele>158</ele>
        <time>2017-05-17T12:34:23.296</time>
      </trkpt>
      <trkpt lat="48.48799" lon="2.63555">
        <ele>159</ele>
        <time>2017-05-17T12:34:24.295</time>
      </trkpt>
      <trkpt lat="48.48803" lon="2.63553">
        <ele>158</ele>
        <time>2017-05-17T12:34:25.295</time>
      </trkpt>
      <trkpt lat="48.48808" lon="2.63552">
        <ele>157</ele>
        <time>2017-05-17T12:34:26.295</time>
      </trkpt>
      <trkpt lat="48.48812" lon="2.63551">
        <ele>157</ele>
        <time>2017-05-17T12:34:27.295</time>
      </trkpt>
      <trkpt lat="48.48817" lon="2.63551">
        <ele>157</ele>
        <time>2017-05-17T12:34:28.297</time>
      </trkpt>
      <trkpt lat="48.48822" lon="2.6355">
        <ele>157</ele>
        <time>2017-05-17T12:34:29.295</time>
      </trkpt>
      <trkpt lat="48.48827" lon="2.63549">
        <ele>157</ele>
        <time>2017-05-17T12:34:30.293</time>
      </trkpt>
      <trkpt lat="48.48832" lon="2.63547">
        <ele>157</ele>
        <time>2017-05-17T12:34:31.293</time>
      </trkpt>
      <trkpt lat="48.48837" lon="2.63547">
        <ele>156</ele>
        <time>2017-05-17T12:34:32.292</time>
      </trkpt>
      <trkpt lat="48.48843" lon="2.63546">
        <ele>157</ele>
        <time>2017-05-17T12:34:33.294</time>
      </trkpt>
      <trkpt lat="48.48849" lon="2.63545">
        <ele>157</ele>
        <time>2017-05-17T12:34:34.295</time>
      </trkpt>
      <trkpt lat="48.48853" lon="2.63545">
        <ele>156</ele>
        <time>2017-05-17T12:34:35.295</time>
      </trkpt>
      <trkpt lat="48.48858" lon="2.63546">
        <ele>156</ele>
        <time>2017-05-17T12:34:36.295</time>
      </trkpt>
      <trkpt lat="48.48863" lon="2.63546">
        <ele>156</ele>
        <time>2017-05-17T12:34:37.295</time>
      </trkpt>
      <trkpt lat="48.48867" lon="2.63546">
        <ele>156</ele>
        <time>2017-05-17T12:34:38.296</time>
      </trkpt>
      <trkpt lat="48.4887" lon="2.63546">
        <ele>156</ele>
        <time>2017-05-17T12:34:39.295</time>
      </trkpt>
      <trkpt lat="48.48874" lon="2.63546">
        <ele>157</ele>
        <time>2017-05-17T12:34:40.294</time>
      </trkpt>
      <trkpt lat="48.48878" lon="2.63546">
        <ele>157</ele>
        <time>2017-05-17T12:34:41.293</time>
      </trkpt>
      <trkpt lat="48.48884" lon="2.63546">
        <ele>157</ele>
        <time>2017-05-17T12:34:42.294</time>
      </trkpt>
      <trkpt lat="48.48888" lon="2.63545">
        <ele>158</ele>
        <time>2017-05-17T12:34:43.292</time>
      </trkpt>
      <trkpt lat="48.48893" lon="2.63545">
        <ele>158</ele>
        <time>2017-05-17T12:34:44.294</time>
      </trkpt>
      <trkpt lat="48.48899" lon="2.63545">
        <ele>158</ele>
        <time>2017-05-17T12:34:45.294</time>
      </trkpt>
      <trkpt lat="48.48905" lon="2.63544">
        <ele>158</ele>
        <time>2017-05-17T12:34:46.294</time>
      </trkpt>
      <trkpt lat="48.48911" lon="2.63542">
        <ele>158</ele>
        <time>2017-05-17T12:34:47.294</time>
      </trkpt>
      <trkpt lat="48.48916" lon="2.6354">
        <ele>158</ele>
        <time>2017-05-17T12:34:48.295</time>
      </trkpt>
      <trkpt lat="48.48922" lon="2.63541">
        <ele>157</ele>
        <time>2017-05-17T12:34:49.295</time>
      </trkpt>
      <trkpt lat="48.48929" lon="2.6354">
        <ele>157</ele>
        <time>2017-05-17T12:34:50.295</time>
      </trkpt>
      <trkpt lat="48.48935" lon="2.63539">
        <ele>156</ele>
        <time>2017-05-17T12:34:51.295</time>
      </trkpt>
      <trkpt lat="48.48942" lon="2.63539">
        <ele>156</ele>
        <time>2017-05-17T12:34:52.295</time>
      </trkpt>
      <trkpt lat="48.48948" lon="2.63538">
        <ele>156</ele>
        <time>2017-05-17T12:34:53.295</time>
      </trkpt>
      <trkpt lat="48.48953" lon="2.63536">
        <ele>155</ele>
        <time>2017-05-17T12:34:54.294</time>
      </trkpt>
      <trkpt lat="48.48959" lon="2.63536">
        <ele>154</ele>
        <time>2017-05-17T12:34:55.297</time>
      </trkpt>
      <trkpt lat="48.48966" lon="2.63536">
        <ele>154</ele>
        <time>2017-05-17T12:34:56.296</time>
      </trkpt>
      <trkpt lat="48.48973" lon="2.63534">
        <ele>155</ele>
        <time>2017-05-17T12:34:57.294</time>
      </trkpt>
      <trkpt lat="48.4898" lon="2.63534">
        <ele>155</ele>
        <time>2017-05-17T12:34:58.294</time>
      </trkpt>
      <trkpt lat="48.48987" lon="2.63533">
        <ele>156</ele>
        <time>2017-05-17T12:34:59.294</time>
      </trkpt>
      <trkpt lat="48.48993" lon="2.63532">
        <ele>156</ele>
        <time>2017-05-17T12:35:00.402</time>
      </trkpt>
      <trkpt lat="48.48999" lon="2.63533">
        <ele>155</ele>
        <time>2017-05-17T12:35:01.296</time>
      </trkpt>
      <trkpt lat="48.49004" lon="2.63532">
        <ele>156</ele>
        <time>2017-05-17T12:35:02.294</time>
      </trkpt>
      <trkpt lat="48.49011" lon="2.63531">
        <ele>156</ele>
        <time>2017-05-17T12:35:03.295</time>
      </trkpt>
      <trkpt lat="48.49017" lon="2.63529">
        <ele>155</ele>
        <time>2017-05-17T12:35:04.294</time>
      </trkpt>
      <trkpt lat="48.49023" lon="2.6353">
        <ele>153</ele>
        <time>2017-05-17T12:35:05.291</time>
      </trkpt>
      <trkpt lat="48.49029" lon="2.63529">
        <ele>154</ele>
        <time>2017-05-17T12:35:06.293</time>
      </trkpt>
      <trkpt lat="48.49036" lon="2.63529">
        <ele>155</ele>
        <time>2017-05-17T12:35:07.294</time>
      </trkpt>
      <trkpt lat="48.49043" lon="2.63528">
        <ele>155</ele>
        <time>2017-05-17T12:35:08.295</time>
      </trkpt>
      <trkpt lat="48.49049" lon="2.63527">
        <ele>154</ele>
        <time>2017-05-17T12:35:09.294</time>
      </trkpt>
      <trkpt lat="48.49055" lon="2.63525">
        <ele>155</ele>
        <time>2017-05-17T12:35:10.293</time>
      </trkpt>
      <trkpt lat="48.49061" lon="2.63523">
        <ele>156</ele>
        <time>2017-05-17T12:35:11.295</time>
      </trkpt>
      <trkpt lat="48.49068" lon="2.63522">
        <ele>156</ele>
        <time>2017-05-17T12:35:12.295</time>
      </trkpt>
      <trkpt lat="48.49075" lon="2.63521">
        <ele>157</ele>
        <time>2017-05-17T12:35:13.296</time>
      </trkpt>
      <trkpt lat="48.49081" lon="2.63521">
        <ele>157</ele>
        <time>2017-05-17T12:35:14.297</time>
      </trkpt>
      <trkpt lat="48.49089" lon="2.6352">
        <ele>157</ele>
        <time>2017-05-17T12:35:15.295</time>
      </trkpt>
      <trkpt lat="48.49096" lon="2.6352">
        <ele>157</ele>
        <time>2017-05-17T12:35:16.294</time>
      </trkpt>
      <trkpt lat="48.49103" lon="2.63519">
        <ele>156</ele>
        <time>2017-05-17T12:35:17.294</time>
      </trkpt>
      <trkpt lat="48.49109" lon="2.63518">
        <ele>155</ele>
        <time>2017-05-17T12:35:18.294</time>
      </trkpt>
      <trkpt lat="48.49116" lon="2.63517">
        <ele>155</ele>
        <time>2017-05-17T12:35:19.294</time>
      </trkpt>
      <trkpt lat="48.49123" lon="2.63518">
        <ele>156</ele>
        <time>2017-05-17T12:35:20.295</time>
      </trkpt>
      <trkpt lat="48.4913" lon="2.63518">
        <ele>155</ele>
        <time>2017-05-17T12:35:21.295</time>
      </trkpt>
      <trkpt lat="48.49137" lon="2.63517">
        <ele>155</ele>
        <time>2017-05-17T12:35:22.294</time>
      </trkpt>
      <trkpt lat="48.49144" lon="2.63517">
        <ele>154</ele>
        <time>2017-05-17T12:35:23.292</time>
      </trkpt>
      <trkpt lat="48.49151" lon="2.63515">
        <ele>154</ele>
        <time>2017-05-17T12:35:24.292</time>
      </trkpt>
      <trkpt lat="48.49157" lon="2.63515">
        <ele>154</ele>
        <time>2017-05-17T12:35:25.294</time>
      </trkpt>
      <trkpt lat="48.49164" lon="2.63515">
        <ele>153</ele>
        <time>2017-05-17T12:35:26.294</time>
      </trkpt>
      <trkpt lat="48.4917" lon="2.63514">
        <ele>153</ele>
        <time>2017-05-17T12:35:27.294</time>
      </trkpt>
      <trkpt lat="48.49177" lon="2.63514">
        <ele>153</ele>
        <time>2017-05-17T12:35:28.295</time>
      </trkpt>
      <trkpt lat="48.49185" lon="2.63513">
        <ele>153</ele>
        <time>2017-05-17T12:35:29.294</time>
      </trkpt>
      <trkpt lat="48.49192" lon="2.63512">
        <ele>152</ele>
        <time>2017-05-17T12:35:30.294</time>
      </trkpt>
      <trkpt lat="48.49199" lon="2.63511">
        <ele>152</ele>
        <time>2017-05-17T12:35:31.294</time>
      </trkpt>
      <trkpt lat="48.49206" lon="2.63509">
        <ele>152</ele>
        <time>2017-05-17T12:35:32.296</time>
      </trkpt>
      <trkpt lat="48.49212" lon="2.63508">
        <ele>151</ele>
        <time>2017-05-17T12:35:33.295</time>
      </trkpt>
      <trkpt lat="48.49216" lon="2.63508">
        <ele>151</ele>
        <time>2017-05-17T12:35:34.299</time>
      </trkpt>
      <trkpt lat="48.49214" lon="2.63508">
        <ele>152</ele>
        <time>2017-05-17T12:35:35.298</time>
      </trkpt>
      <trkpt lat="48.49212" lon="2.63507">
        <ele>152</ele>
        <time>2017-05-17T12:35:36.295</time>
      </trkpt>
      <trkpt lat="48.49212" lon="2.63506">
        <ele>152</ele>
        <time>2017-05-17T12:35:37.293</time>
      </trkpt>
      <trkpt lat="48.49212" lon="2.63506">
        <ele>152</ele>
        <time>2017-05-17T12:35:38.293</time>
      </trkpt>
      <trkpt lat="48.49212" lon="2.63505">
        <ele>152</ele>
        <time>2017-05-17T12:35:39.292</time>
      </trkpt>
      <trkpt lat="48.49212" lon="2.63504">
        <ele>152</ele>
        <time>2017-05-17T12:35:40.291</time>
      </trkpt>
      <trkpt lat="48.49211" lon="2.63504">
        <ele>153</ele>
        <time>2017-05-17T12:35:41.291</time>
      </trkpt>
      <trkpt lat="48.49211" lon="2.63504">
        <ele>153</ele>
        <time>2017-05-17T12:35:42.292</time>
      </trkpt>
      <trkpt lat="48.49211" lon="2.63504">
        <ele>153</ele>
        <time>2017-05-17T12:35:43.291</time>
      </trkpt>
      <trkpt lat="48.49211" lon="2.63503">
        <ele>153</ele>
        <time>2017-05-17T12:35:44.291</time>
      </trkpt>
      <trkpt lat="48.49211" lon="2.63503">
        <ele>152</ele>
        <time>2017-05-17T12:35:45.291</time>
      </trkpt>
      <trkpt lat="48.49211" lon="2.63503">
        <ele>152</ele>
        <time>2017-05-17T12:35:46.291</time>
      </trkpt>
      <trkpt lat="48.4921" lon="2.63503">
        <ele>152</ele>
        <time>2017-05-17T12:35:47.291</time>
      </trkpt>
      <trkpt lat="48.4921" lon="2.63503">
        <ele>152</ele>
        <time>2017-05-17T12:35:48.293</time>
      </trkpt>
      <trkpt lat="48.4921" lon="2.63503">
        <ele>153</ele>
        <time>2017-05-17T12:35:49.295</time>
      </trkpt>
      <trkpt lat="48.4921" lon="2.63503">
        <ele>152</ele>
        <time>2017-05-17T12:35:50.292</time>
      </trkpt>
      <trkpt lat="48.4921" lon="2.63503">
        <ele>152</ele>
        <time>2017-05-17T12:35:51.299</time>
      </trkpt>
      <trkpt lat="48.4921" lon="2.63502">
        <ele>153</ele>
        <time>2017-05-17T12:35:52.291</time>
      </trkpt>
      <trkpt lat="48.4921" lon="2.63501">
        <ele>153</ele>
        <time>2017-05-17T12:35:53.292</time>
      </trkpt>
      <trkpt lat="48.4921" lon="2.63501">
        <ele>153</ele>
        <time>2017-05-17T12:35:54.292</time>
      </trkpt>
      <trkpt lat="48.49209" lon="2.63501">
        <ele>153</ele>
        <time>2017-05-17T12:35:55.291</time>
      </trkpt>
      <trkpt lat="48.49209" lon="2.635">
        <ele>153</ele>
        <time>2017-05-17T12:35:56.292</time>
      </trkpt>
      <trkpt lat="48.49209" lon="2.635">
        <ele>153</ele>
        <time>2017-05-17T12:35:57.292</time>
      </trkpt>
      <trkpt lat="48.49209" lon="2.635">
        <ele>153</ele>
        <time>2017-05-17T12:35:58.292</time>
      </trkpt>
      <trkpt lat="48.49209" lon="2.63499">
        <ele>153</ele>
        <time>2017-05-17T12:35:59.292</time>
      </trkpt>
      <trkpt lat="48.49209" lon="2.63499">
        <ele>153</ele>
        <time>2017-05-17T12:36:00.292</time>
      </trkpt>
      <trkpt lat="48.4921" lon="2.635">
        <ele>153</ele>
        <time>2017-05-17T12:36:01.291</time>
      </trkpt>
      <trkpt lat="48.4921" lon="2.635">
        <ele>153</ele>
        <time>2017-05-17T12:36:02.292</time>
      </trkpt>
      <trkpt lat="48.4921" lon="2.635">
        <ele>153</ele>
        <time>2017-05-17T12:36:03.292</time>
      </trkpt>
      <trkpt lat="48.4921" lon="2.635">
        <ele>153</ele>
        <time>2017-05-17T12:36:04.291</time>
      </trkpt>
      <trkpt lat="48.4921" lon="2.635">
        <ele>153</ele>
        <time>2017-05-17T12:36:05.292</time>
      </trkpt>
      <trkpt lat="48.4921" lon="2.635">
        <ele>153</ele>
        <time>2017-05-17T12:36:06.291</time>
      </trkpt>
      <trkpt lat="48.4921" lon="2.635">
        <ele>153</ele>
        <time>2017-05-17T12:36:07.291</time>
      </trkpt>
      <trkpt lat="48.4921" lon="2.635">
        <ele>153</ele>
        <time>2017-05-17T12:36:08.292</time>
      </trkpt>
      <trkpt lat="48.4921" lon="2.635">
        <ele>153</ele>
        <time>2017-05-17T12:36:09.291</time>
      </trkpt>
      <trkpt lat="48.4921" lon="2.635">
        <ele>153</ele>
        <time>2017-05-17T12:36:10.291</time>
      </trkpt>
      <trkpt lat="48.4921" lon="2.635">
        <ele>153</ele>
        <time>2017-05-17T12:36:11.292</time>
      </trkpt>
      <trkpt lat="48.4921" lon="2.635">
        <ele>153</ele>
        <time>2017-05-17T12:36:12.291</time>
      </trkpt>
      <trkpt lat="48.4921" lon="2.635">
        <ele>153</ele>
        <time>2017-05-17T12:36:13.292</time>
      </trkpt>
      <trkpt lat="48.49209" lon="2.635">
        <ele>153</ele>
        <time>2017-05-17T12:36:14.292</time>
      </trkpt>
      <trkpt lat="48.49209" lon="2.635">
        <ele>153</ele>
        <time>2017-05-17T12:36:15.292</time>
      </trkpt>
      <trkpt lat="48.49209" lon="2.635">
        <ele>153</ele>
        <time>2017-05-17T12:36:16.291</time>
      </trkpt>
      <trkpt lat="48.49209" lon="2.635">
        <ele>153</ele>
        <time>2017-05-17T12:36:17.292</time>
      </trkpt>
      <trkpt lat="48.49209" lon="2.635">
        <ele>153</ele>
        <time>2017-05-17T12:36:18.291</time>
      </trkpt>
      <trkpt lat="48.49209" lon="2.635">
        <ele>153</ele>
        <time>2017-05-17T12:36:19.292</time>
      </trkpt>
      <trkpt lat="48.49209" lon="2.635">
        <ele>153</ele>
        <time>2017-05-17T12:36:20.293</time>
      </trkpt>
      <trkpt lat="48.49209" lon="2.635">
        <ele>153</ele>
        <time>2017-05-17T12:36:21.293</time>
      </trkpt>
      <trkpt lat="48.49209" lon="2.635">
        <ele>153</ele>
        <time>2017-05-17T12:36:22.292</time>
      </trkpt>
      <trkpt lat="48.49209" lon="2.635">
        <ele>153</ele>
        <time>2017-05-17T12:36:23.292</time>
      </trkpt>
      <trkpt lat="48.49209" lon="2.635">
        <ele>153</ele>
        <time>2017-05-17T12:36:24.293</time>
      </trkpt>
      <trkpt lat="48.49209" lon="2.635">
        <ele>153</ele>
        <time>2017-05-17T12:36:25.291</time>
      </trkpt>
      <trkpt lat="48.49209" lon="2.635">
        <ele>153</ele>
        <time>2017-05-17T12:36:26.292</time>
      </trkpt>
      <trkpt lat="48.49209" lon="2.635">
        <ele>153</ele>
        <time>2017-05-17T12:36:27.291</time>
      </trkpt>
      <trkpt lat="48.49209" lon="2.635">
        <ele>153</ele>
        <time>2017-05-17T12:36:28.291</time>
      </trkpt>
      <trkpt lat="48.49209" lon="2.635">
        <ele>153</ele>
        <time>2017-05-17T12:36:29.291</time>
      </trkpt>
      <trkpt lat="48.49209" lon="2.635">
        <ele>153</ele>
        <time>2017-05-17T12:36:30.291</time>
      </trkpt>
      <trkpt lat="48.49209" lon="2.635">
        <ele>153</ele>
        <time>2017-05-17T12:36:31.292</time>
      </trkpt>
      <trkpt lat="48.49209" lon="2.635">
        <ele>153</ele>
        <time>2017-05-17T12:36:32.292</time>
      </trkpt>
      <trkpt lat="48.49209" lon="2.635">
        <ele>153</ele>
        <time>2017-05-17T12:36:33.292</time>
      </trkpt>
      <trkpt lat="48.49209" lon="2.635">
        <ele>153</ele>
        <time>2017-05-17T12:36:34.292</time>
      </trkpt>
      <trkpt lat="48.49209" lon="2.635">
        <ele>153</ele>
        <time>2017-05-17T12:36:35.291</time>
      </trkpt>
      <trkpt lat="48.49209" lon="2.635">
        <ele>153</ele>
        <time>2017-05-17T12:36:36.291</time>
      </trkpt>
      <trkpt lat="48.49209" lon="2.635">
        <ele>153</ele>
        <time>2017-05-17T12:36:37.291</time>
      </trkpt>
      <trkpt lat="48.49209" lon="2.635">
        <ele>153</ele>
        <time>2017-05-17T12:36:38.291</time>
      </trkpt>
      <trkpt lat="48.49209" lon="2.635">
        <ele>153</ele>
        <time>2017-05-17T12:36:39.292</time>
      </trkpt>
      <trkpt lat="48.49209" lon="2.635">
        <ele>153</ele>
        <time>2017-05-17T12:36:40.293</time>
      </trkpt>
      <trkpt lat="48.49209" lon="2.635">
        <ele>153</ele>
        <time>2017-05-17T12:36:41.293</time>
      </trkpt>
      <trkpt lat="48.49209" lon="2.635">
        <ele>153</ele>
        <time>2017-05-17T12:36:42.292</time>
      </trkpt>
      <trkpt lat="48.49209" lon="2.635">
        <ele>153</ele>
        <time>2017-05-17T12:36:43.292</time>
      </trkpt>
      <trkpt lat="48.49209" lon="2.635">
        <ele>153</ele>
        <time>2017-05-17T12:36:44.294</time>
      </trkpt>
      <trkpt lat="48.49209" lon="2.635">
        <ele>153</ele>
        <time>2017-05-17T12:36:45.293</time>
      </trkpt>
      <trkpt lat="48.49209" lon="2.635">
        <ele>153</ele>
        <time>2017-05-17T12:36:46.293</time>
      </trkpt>
      <trkpt lat="48.49209" lon="2.635">
        <ele>153</ele>
        <time>2017-05-17T12:36:47.293</time>
      </trkpt>
      <trkpt lat="48.49209" lon="2.635">
        <ele>153</ele>
        <time>2017-05-17T12:36:48.293</time>
      </trkpt>
      <trkpt lat="48.49209" lon="2.635">
        <ele>153</ele>
        <time>2017-05-17T12:36:49.293</time>
      </trkpt>
      <trkpt lat="48.49209" lon="2.635">
        <ele>153</ele>
        <time>2017-05-17T12:36:50.293</time>
      </trkpt>
      <trkpt lat="48.49209" lon="2.635">
        <ele>153</ele>
        <time>2017-05-17T12:36:51.293</time>
      </trkpt>
      <trkpt lat="48.49209" lon="2.635">
        <ele>153</ele>
        <time>2017-05-17T12:36:52.292</time>
      </trkpt>
      <trkpt lat="48.49209" lon="2.635">
        <ele>153</ele>
        <time>2017-05-17T12:36:53.292</time>
      </trkpt>
      <trkpt lat="48.49209" lon="2.635">
        <ele>153</ele>
        <time>2017-05-17T12:36:54.293</time>
      </trkpt>
      <trkpt lat="48.49209" lon="2.635">
        <ele>153</ele>
        <time>2017-05-17T12:36:55.291</time>
      </trkpt>
      <trkpt lat="48.49209" lon="2.635">
        <ele>153</ele>
        <time>2017-05-17T12:36:56.295</time>
      </trkpt>
      <trkpt lat="48.49209" lon="2.635">
        <ele>153</ele>
        <time>2017-05-17T12:36:57.296</time>
      </trkpt>
      <trkpt lat="48.49209" lon="2.635">
        <ele>153</ele>
        <time>2017-05-17T12:36:58.293</time>
      </trkpt>
      <trkpt lat="48.49209" lon="2.635">
        <ele>153</ele>
        <time>2017-05-17T12:36:59.292</time>
      </trkpt>
      <trkpt lat="48.49209" lon="2.635">
        <ele>153</ele>
        <time>2017-05-17T12:37:00.380</time>
      </trkpt>
      <trkpt lat="48.49209" lon="2.635">
        <ele>153</ele>
        <time>2017-05-17T12:37:01.293</time>
      </trkpt>
      <trkpt lat="48.49209" lon="2.635">
        <ele>153</ele>
        <time>2017-05-17T12:37:02.293</time>
      </trkpt>
      <trkpt lat="48.49209" lon="2.635">
        <ele>153</ele>
        <time>2017-05-17T12:37:03.292</time>
      </trkpt>
      <trkpt lat="48.49209" lon="2.635">
        <ele>153</ele>
        <time>2017-05-17T12:37:04.294</time>
      </trkpt>
      <trkpt lat="48.49209" lon="2.635">
        <ele>153</ele>
        <time>2017-05-17T12:37:05.294</time>
      </trkpt>
      <trkpt lat="48.49209" lon="2.635">
        <ele>153</ele>
        <time>2017-05-17T12:37:06.294</time>
      </trkpt>
      <trkpt lat="48.49209" lon="2.635">
        <ele>153</ele>
        <time>2017-05-17T12:37:07.292</time>
      </trkpt>
      <trkpt lat="48.49209" lon="2.635">
        <ele>153</ele>
        <time>2017-05-17T12:37:08.294</time>
      </trkpt>
      <trkpt lat="48.49209" lon="2.635">
        <ele>153</ele>
        <time>2017-05-17T12:37:09.294</time>
      </trkpt>
      <trkpt lat="48.49209" lon="2.635">
        <ele>153</ele>
        <time>2017-05-17T12:37:10.292</time>
      </trkpt>
      <trkpt lat="48.49209" lon="2.635">
        <ele>153</ele>
        <time>2017-05-17T12:37:11.293</time>
      </trkpt>
      <trkpt lat="48.49209" lon="2.635">
        <ele>153</ele>
        <time>2017-05-17T12:37:12.293</time>
      </trkpt>
      <trkpt lat="48.49209" lon="2.635">
        <ele>153</ele>
        <time>2017-05-17T12:37:13.293</time>
      </trkpt>
      <trkpt lat="48.49209" lon="2.635">
        <ele>153</ele>
        <time>2017-05-17T12:37:14.294</time>
      </trkpt>
      <trkpt lat="48.49209" lon="2.635">
        <ele>153</ele>
        <time>2017-05-17T12:37:15.317</time>
      </trkpt>
      <trkpt lat="48.49209" lon="2.635">
        <ele>153</ele>
        <time>2017-05-17T12:37:16.293</time>
      </trkpt>
      <trkpt lat="48.49209" lon="2.635">
        <ele>153</ele>
        <time>2017-05-17T12:37:17.293</time>
      </trkpt>
      <trkpt lat="48.49209" lon="2.635">
        <ele>153</ele>
        <time>2017-05-17T12:37:18.293</time>
      </trkpt>
      <trkpt lat="48.49209" lon="2.635">
        <ele>153</ele>
        <time>2017-05-17T12:37:19.294</time>
      </trkpt>
      <trkpt lat="48.49209" lon="2.635">
        <ele>153</ele>
        <time>2017-05-17T12:37:20.293</time>
      </trkpt>
      <trkpt lat="48.49209" lon="2.635">
        <ele>153</ele>
        <time>2017-05-17T12:37:21.294</time>
      </trkpt>
      <trkpt lat="48.49209" lon="2.635">
        <ele>153</ele>
        <time>2017-05-17T12:37:22.294</time>
      </trkpt>
      <trkpt lat="48.49209" lon="2.635">
        <ele>153</ele>
        <time>2017-05-17T12:37:23.292</time>
      </trkpt>
      <trkpt lat="48.49209" lon="2.635">
        <ele>153</ele>
        <time>2017-05-17T12:37:24.293</time>
      </trkpt>
      <trkpt lat="48.49209" lon="2.635">
        <ele>153</ele>
        <time>2017-05-17T12:37:25.292</time>
      </trkpt>
      <trkpt lat="48.49209" lon="2.635">
        <ele>153</ele>
        <time>2017-05-17T12:37:26.291</time>
      </trkpt>
      <trkpt lat="48.49209" lon="2.635">
        <ele>153</ele>
        <time>2017-05-17T12:37:27.291</time>
      </trkpt>
      <trkpt lat="48.49209" lon="2.635">
        <ele>153</ele>
        <time>2017-05-17T12:37:28.292</time>
      </trkpt>
      <trkpt lat="48.49209" lon="2.635">
        <ele>153</ele>
        <time>2017-05-17T12:37:29.292</time>
      </trkpt>
      <trkpt lat="48.49209" lon="2.635">
        <ele>153</ele>
        <time>2017-05-17T12:37:30.291</time>
      </trkpt>
      <trkpt lat="48.49209" lon="2.635">
        <ele>153</ele>
        <time>2017-05-17T12:37:31.291</time>
      </trkpt>
      <trkpt lat="48.49209" lon="2.635">
        <ele>153</ele>
        <time>2017-05-17T12:37:32.291</time>
      </trkpt>
      <trkpt lat="48.49209" lon="2.635">
        <ele>153</ele>
        <time>2017-05-17T12:37:33.291</time>
      </trkpt>
      <trkpt lat="48.49209" lon="2.635">
        <ele>153</ele>
        <time>2017-05-17T12:37:34.291</time>
      </trkpt>
      <trkpt lat="48.49209" lon="2.635">
        <ele>153</ele>
        <time>2017-05-17T12:37:35.292</time>
      </trkpt>
      <trkpt lat="48.49209" lon="2.635">
        <ele>153</ele>
        <time>2017-05-17T12:37:36.291</time>
      </trkpt>
      <trkpt lat="48.49209" lon="2.635">
        <ele>153</ele>
        <time>2017-05-17T12:37:37.291</time>
      </trkpt>
      <trkpt lat="48.49209" lon="2.635">
        <ele>153</ele>
        <time>2017-05-17T12:37:38.291</time>
      </trkpt>
      <trkpt lat="48.49209" lon="2.635">
        <ele>153</ele>
        <time>2017-05-17T12:37:39.291</time>
      </trkpt>
      <trkpt lat="48.49209" lon="2.635">
        <ele>153</ele>
        <time>2017-05-17T12:37:40.291</time>
      </trkpt>
      <trkpt lat="48.49209" lon="2.635">
        <ele>153</ele>
        <time>2017-05-17T12:37:41.292</time>
      </trkpt>
      <trkpt lat="48.49209" lon="2.635">
        <ele>153</ele>
        <time>2017-05-17T12:37:42.291</time>
      </trkpt>
      <trkpt lat="48.49209" lon="2.635">
        <ele>153</ele>
        <time>2017-05-17T12:37:43.291</time>
      </trkpt>
      <trkpt lat="48.49209" lon="2.635">
        <ele>153</ele>
        <time>2017-05-17T12:37:44.291</time>
      </trkpt>
      <trkpt lat="48.49209" lon="2.635">
        <ele>153</ele>
        <time>2017-05-17T12:37:45.291</time>
      </trkpt>
      <trkpt lat="48.49209" lon="2.635">
        <ele>153</ele>
        <time>2017-05-17T12:37:46.290</time>
      </trkpt>
      <trkpt lat="48.49209" lon="2.635">
        <ele>153</ele>
        <time>2017-05-17T12:37:47.295</time>
      </trkpt>
      <trkpt lat="48.49209" lon="2.635">
        <ele>153</ele>
        <time>2017-05-17T12:37:48.292</time>
      </trkpt>
      <trkpt lat="48.49209" lon="2.63501">
        <ele>154</ele>
        <time>2017-05-17T12:37:49.294</time>
      </trkpt>
      <trkpt lat="48.49209" lon="2.63501">
        <ele>153</ele>
        <time>2017-05-17T12:37:50.294</time>
      </trkpt>
      <trkpt lat="48.49209" lon="2.63502">
        <ele>154</ele>
        <time>2017-05-17T12:37:51.296</time>
      </trkpt>
      <trkpt lat="48.49209" lon="2.63502">
        <ele>154</ele>
        <time>2017-05-17T12:37:52.302</time>
      </trkpt>
      <trkpt lat="48.49209" lon="2.63502">
        <ele>154</ele>
        <time>2017-05-17T12:37:53.303</time>
      </trkpt>
      <trkpt lat="48.4921" lon="2.63502">
        <ele>155</ele>
        <time>2017-05-17T12:37:54.303</time>
      </trkpt>
      <trkpt lat="48.4921" lon="2.63502">
        <ele>156</ele>
        <time>2017-05-17T12:37:55.303</time>
      </trkpt>
      <trkpt lat="48.4921" lon="2.63502">
        <ele>156</ele>
        <time>2017-05-17T12:37:56.290</time>
      </trkpt>
      <trkpt lat="48.4921" lon="2.63502">
        <ele>156</ele>
        <time>2017-05-17T12:37:57.293</time>
      </trkpt>
      <trkpt lat="48.4921" lon="2.63502">
        <ele>156</ele>
        <time>2017-05-17T12:37:58.293</time>
      </trkpt>
      <trkpt lat="48.4921" lon="2.63502">
        <ele>156</ele>
        <time>2017-05-17T12:37:59.345</time>
      </trkpt>
      <trkpt lat="48.49209" lon="2.63502">
        <ele>156</ele>
        <time>2017-05-17T12:38:00.293</time>
      </trkpt>
      <trkpt lat="48.49209" lon="2.63502">
        <ele>156</ele>
        <time>2017-05-17T12:38:01.298</time>
      </trkpt>
      <trkpt lat="48.49209" lon="2.63503">
        <ele>156</ele>
        <time>2017-05-17T12:38:02.298</time>
      </trkpt>
      <trkpt lat="48.49209" lon="2.63502">
        <ele>156</ele>
        <time>2017-05-17T12:38:03.296</time>
      </trkpt>
      <trkpt lat="48.49209" lon="2.63503">
        <ele>156</ele>
        <time>2017-05-17T12:38:04.304</time>
      </trkpt>
      <trkpt lat="48.49209" lon="2.63503">
        <ele>157</ele>
        <time>2017-05-17T12:38:05.294</time>
      </trkpt>
      <trkpt lat="48.4921" lon="2.63504">
        <ele>157</ele>
        <time>2017-05-17T12:38:06.292</time>
      </trkpt>
      <trkpt lat="48.49209" lon="2.63504">
        <ele>157</ele>
        <time>2017-05-17T12:38:07.294</time>
      </trkpt>
      <trkpt lat="48.49209" lon="2.63503">
        <ele>157</ele>
        <time>2017-05-17T12:38:08.292</time>
      </trkpt>
      <trkpt lat="48.49209" lon="2.63504">
        <ele>157</ele>
        <time>2017-05-17T12:38:09.295</time>
      </trkpt>
      <trkpt lat="48.49209" lon="2.63504">
        <ele>157</ele>
        <time>2017-05-17T12:38:10.293</time>
      </trkpt>
      <trkpt lat="48.49209" lon="2.63504">
        <ele>157</ele>
        <time>2017-05-17T12:38:11.295</time>
      </trkpt>
      <trkpt lat="48.49209" lon="2.63504">
        <ele>157</ele>
        <time>2017-05-17T12:38:12.294</time>
      </trkpt>
      <trkpt lat="48.49209" lon="2.63504">
        <ele>157</ele>
        <time>2017-05-17T12:38:13.308</time>
      </trkpt>
      <trkpt lat="48.49209" lon="2.63504">
        <ele>157</ele>
        <time>2017-05-17T12:38:14.290</time>
      </trkpt>
      <trkpt lat="48.49209" lon="2.63504">
        <ele>158</ele>
        <time>2017-05-17T12:38:15.295</time>
      </trkpt>
      <trkpt lat="48.49209" lon="2.63503">
        <ele>157</ele>
        <time>2017-05-17T12:38:16.295</time>
      </trkpt>
      <trkpt lat="48.49209" lon="2.63504">
        <ele>158</ele>
        <time>2017-05-17T12:38:17.296</time>
      </trkpt>
      <trkpt lat="48.49209" lon="2.63504">
        <ele>157</ele>
        <time>2017-05-17T12:38:18.295</time>
      </trkpt>
      <trkpt lat="48.4921" lon="2.63505">
        <ele>157</ele>
        <time>2017-05-17T12:38:19.296</time>
      </trkpt>
      <trkpt lat="48.4921" lon="2.63505">
        <ele>157</ele>
        <time>2017-05-17T12:38:20.296</time>
      </trkpt>
      <trkpt lat="48.4921" lon="2.63505">
        <ele>157</ele>
        <time>2017-05-17T12:38:21.293</time>
      </trkpt>
      <trkpt lat="48.4921" lon="2.63505">
        <ele>157</ele>
        <time>2017-05-17T12:38:22.293</time>
      </trkpt>
      <trkpt lat="48.4921" lon="2.63507">
        <ele>157</ele>
        <time>2017-05-17T12:38:23.295</time>
      </trkpt>
      <trkpt lat="48.4921" lon="2.63507">
        <ele>157</ele>
        <time>2017-05-17T12:38:24.293</time>
      </trkpt>
      <trkpt lat="48.4921" lon="2.63508">
        <ele>156</ele>
        <time>2017-05-17T12:38:25.293</time>
      </trkpt>
      <trkpt lat="48.4921" lon="2.63508">
        <ele>156</ele>
        <time>2017-05-17T12:38:26.292</time>
      </trkpt>
      <trkpt lat="48.4921" lon="2.63508">
        <ele>156</ele>
        <time>2017-05-17T12:38:27.291</time>
      </trkpt>
      <trkpt lat="48.4921" lon="2.63508">
        <ele>156</ele>
        <time>2017-05-17T12:38:28.292</time>
      </trkpt>
      <trkpt lat="48.4921" lon="2.63508">
        <ele>156</ele>
        <time>2017-05-17T12:38:29.292</time>
      </trkpt>
      <trkpt lat="48.49211" lon="2.63509">
        <ele>156</ele>
        <time>2017-05-17T12:38:30.292</time>
      </trkpt>
      <trkpt lat="48.49211" lon="2.63509">
        <ele>156</ele>
        <time>2017-05-17T12:38:31.291</time>
      </trkpt>
      <trkpt lat="48.4921" lon="2.63509">
        <ele>156</ele>
        <time>2017-05-17T12:38:32.293</time>
      </trkpt>
      <trkpt lat="48.4921" lon="2.63509">
        <ele>156</ele>
        <time>2017-05-17T12:38:33.294</time>
      </trkpt>
      <trkpt lat="48.49211" lon="2.63509">
        <ele>156</ele>
        <time>2017-05-17T12:38:34.294</time>
      </trkpt>
      <trkpt lat="48.49212" lon="2.63509">
        <ele>156</ele>
        <time>2017-05-17T12:38:35.293</time>
      </trkpt>
      <trkpt lat="48.49212" lon="2.63509">
        <ele>156</ele>
        <time>2017-05-17T12:38:36.292</time>
      </trkpt>
      <trkpt lat="48.49212" lon="2.63509">
        <ele>156</ele>
        <time>2017-05-17T12:38:37.292</time>
      </trkpt>
      <trkpt lat="48.49212" lon="2.63509">
        <ele>156</ele>
        <time>2017-05-17T12:38:38.293</time>
      </trkpt>
      <trkpt lat="48.49212" lon="2.63509">
        <ele>156</ele>
        <time>2017-05-17T12:38:39.292</time>
      </trkpt>
      <trkpt lat="48.49212" lon="2.63509">
        <ele>156</ele>
        <time>2017-05-17T12:38:40.293</time>
      </trkpt>
      <trkpt lat="48.49213" lon="2.63509">
        <ele>156</ele>
        <time>2017-05-17T12:38:41.292</time>
      </trkpt>
      <trkpt lat="48.49213" lon="2.63509">
        <ele>156</ele>
        <time>2017-05-17T12:38:42.292</time>
      </trkpt>
      <trkpt lat="48.49213" lon="2.63509">
        <ele>156</ele>
        <time>2017-05-17T12:38:43.292</time>
      </trkpt>
      <trkpt lat="48.49213" lon="2.63509">
        <ele>156</ele>
        <time>2017-05-17T12:38:44.293</time>
      </trkpt>
      <trkpt lat="48.49213" lon="2.63509">
        <ele>156</ele>
        <time>2017-05-17T12:38:45.294</time>
      </trkpt>
      <trkpt lat="48.49213" lon="2.63509">
        <ele>156</ele>
        <time>2017-05-17T12:38:46.292</time>
      </trkpt>
      <trkpt lat="48.49213" lon="2.63508">
        <ele>157</ele>
        <time>2017-05-17T12:38:47.294</time>
      </trkpt>
      <trkpt lat="48.49213" lon="2.63509">
        <ele>157</ele>
        <time>2017-05-17T12:38:48.293</time>
      </trkpt>
      <trkpt lat="48.49214" lon="2.63509">
        <ele>157</ele>
        <time>2017-05-17T12:38:49.292</time>
      </trkpt>
      <trkpt lat="48.49214" lon="2.63509">
        <ele>157</ele>
        <time>2017-05-17T12:38:50.292</time>
      </trkpt>
      <trkpt lat="48.49215" lon="2.63509">
        <ele>157</ele>
        <time>2017-05-17T12:38:51.291</time>
      </trkpt>
      <trkpt lat="48.49214" lon="2.63509">
        <ele>157</ele>
        <time>2017-05-17T12:38:52.292</time>
      </trkpt>
      <trkpt lat="48.49214" lon="2.63509">
        <ele>157</ele>
        <time>2017-05-17T12:38:53.293</time>
      </trkpt>
      <trkpt lat="48.49214" lon="2.63509">
        <ele>156</ele>
        <time>2017-05-17T12:38:54.293</time>
      </trkpt>
      <trkpt lat="48.49214" lon="2.63508">
        <ele>156</ele>
        <time>2017-05-17T12:38:55.292</time>
      </trkpt>
      <trkpt lat="48.49214" lon="2.63508">
        <ele>156</ele>
        <time>2017-05-17T12:38:56.293</time>
      </trkpt>
      <trkpt lat="48.49214" lon="2.63508">
        <ele>157</ele>
        <time>2017-05-17T12:38:57.292</time>
      </trkpt>
      <trkpt lat="48.49214" lon="2.63508">
        <ele>157</ele>
        <time>2017-05-17T12:38:58.293</time>
      </trkpt>
      <trkpt lat="48.49214" lon="2.63508">
        <ele>157</ele>
        <time>2017-05-17T12:38:59.293</time>
      </trkpt>
      <trkpt lat="48.49214" lon="2.63508">
        <ele>157</ele>
        <time>2017-05-17T12:39:00.295</time>
      </trkpt>
      <trkpt lat="48.49214" lon="2.63508">
        <ele>157</ele>
        <time>2017-05-17T12:39:01.294</time>
      </trkpt>
      <trkpt lat="48.49214" lon="2.63508">
        <ele>157</ele>
        <time>2017-05-17T12:39:02.293</time>
      </trkpt>
      <trkpt lat="48.49214" lon="2.63508">
        <ele>157</ele>
        <time>2017-05-17T12:39:03.293</time>
      </trkpt>
      <trkpt lat="48.49214" lon="2.63508">
        <ele>157</ele>
        <time>2017-05-17T12:39:04.293</time>
      </trkpt>
      <trkpt lat="48.49214" lon="2.63508">
        <ele>157</ele>
        <time>2017-05-17T12:39:05.293</time>
      </trkpt>
      <trkpt lat="48.49214" lon="2.63508">
        <ele>157</ele>
        <time>2017-05-17T12:39:06.293</time>
      </trkpt>
      <trkpt lat="48.49214" lon="2.63508">
        <ele>157</ele>
        <time>2017-05-17T12:39:07.293</time>
      </trkpt>
      <trkpt lat="48.49214" lon="2.63508">
        <ele>157</ele>
        <time>2017-05-17T12:39:08.294</time>
      </trkpt>
      <trkpt lat="48.49214" lon="2.63508">
        <ele>157</ele>
        <time>2017-05-17T12:39:09.292</time>
      </trkpt>
      <trkpt lat="48.49214" lon="2.63508">
        <ele>157</ele>
        <time>2017-05-17T12:39:10.293</time>
      </trkpt>
      <trkpt lat="48.49214" lon="2.63508">
        <ele>157</ele>
        <time>2017-05-17T12:39:11.292</time>
      </trkpt>
      <trkpt lat="48.49214" lon="2.63508">
        <ele>157</ele>
        <time>2017-05-17T12:39:12.292</time>
      </trkpt>
      <trkpt lat="48.49214" lon="2.63508">
        <ele>157</ele>
        <time>2017-05-17T12:39:13.292</time>
      </trkpt>
      <trkpt lat="48.49214" lon="2.63508">
        <ele>157</ele>
        <time>2017-05-17T12:39:14.293</time>
      </trkpt>
      <trkpt lat="48.49214" lon="2.63508">
        <ele>157</ele>
        <time>2017-05-17T12:39:15.295</time>
      </trkpt>
      <trkpt lat="48.49214" lon="2.63508">
        <ele>157</ele>
        <time>2017-05-17T12:39:16.294</time>
      </trkpt>
      <trkpt lat="48.49214" lon="2.63508">
        <ele>157</ele>
        <time>2017-05-17T12:39:17.293</time>
      </trkpt>
      <trkpt lat="48.49214" lon="2.63508">
        <ele>157</ele>
        <time>2017-05-17T12:39:18.293</time>
      </trkpt>
      <trkpt lat="48.49214" lon="2.63508">
        <ele>157</ele>
        <time>2017-05-17T12:39:19.293</time>
      </trkpt>
      <trkpt lat="48.49214" lon="2.63508">
        <ele>157</ele>
        <time>2017-05-17T12:39:20.293</time>
      </trkpt>
      <trkpt lat="48.49214" lon="2.63508">
        <ele>157</ele>
        <time>2017-05-17T12:39:21.292</time>
      </trkpt>
      <trkpt lat="48.49214" lon="2.63508">
        <ele>157</ele>
        <time>2017-05-17T12:39:22.292</time>
      </trkpt>
      <trkpt lat="48.49214" lon="2.63508">
        <ele>157</ele>
        <time>2017-05-17T12:39:23.294</time>
      </trkpt>
      <trkpt lat="48.49214" lon="2.63508">
        <ele>157</ele>
        <time>2017-05-17T12:39:24.294</time>
      </trkpt>
      <trkpt lat="48.49214" lon="2.63508">
        <ele>157</ele>
        <time>2017-05-17T12:39:25.293</time>
      </trkpt>
      <trkpt lat="48.49214" lon="2.63508">
        <ele>157</ele>
        <time>2017-05-17T12:39:26.293</time>
      </trkpt>
      <trkpt lat="48.49214" lon="2.63508">
        <ele>157</ele>
        <time>2017-05-17T12:39:27.293</time>
      </trkpt>
      <trkpt lat="48.49214" lon="2.63508">
        <ele>157</ele>
        <time>2017-05-17T12:39:28.294</time>
      </trkpt>
      <trkpt lat="48.49215" lon="2.63507">
        <ele>157</ele>
        <time>2017-05-17T12:39:29.295</time>
      </trkpt>
      <trkpt lat="48.49215" lon="2.63507">
        <ele>157</ele>
        <time>2017-05-17T12:39:30.295</time>
      </trkpt>
      <trkpt lat="48.49215" lon="2.63506">
        <ele>158</ele>
        <time>2017-05-17T12:39:31.294</time>
      </trkpt>
      <trkpt lat="48.49215" lon="2.63506">
        <ele>158</ele>
        <time>2017-05-17T12:39:32.294</time>
      </trkpt>
      <trkpt lat="48.49215" lon="2.63506">
        <ele>158</ele>
        <time>2017-05-17T12:39:33.293</time>
      </trkpt>
      <trkpt lat="48.49215" lon="2.63506">
        <ele>158</ele>
        <time>2017-05-17T12:39:34.293</time>
      </trkpt>
      <trkpt lat="48.49215" lon="2.63506">
        <ele>158</ele>
        <time>2017-05-17T12:39:35.293</time>
      </trkpt>
      <trkpt lat="48.49215" lon="2.63506">
        <ele>158</ele>
        <time>2017-05-17T12:39:36.293</time>
      </trkpt>
      <trkpt lat="48.49215" lon="2.63506">
        <ele>158</ele>
        <time>2017-05-17T12:39:37.293</time>
      </trkpt>
      <trkpt lat="48.49215" lon="2.63506">
        <ele>158</ele>
        <time>2017-05-17T12:39:38.292</time>
      </trkpt>
      <trkpt lat="48.49215" lon="2.63506">
        <ele>158</ele>
        <time>2017-05-17T12:39:39.294</time>
      </trkpt>
      <trkpt lat="48.49215" lon="2.63506">
        <ele>158</ele>
        <time>2017-05-17T12:39:40.293</time>
      </trkpt>
      <trkpt lat="48.49215" lon="2.63504">
        <ele>157</ele>
        <time>2017-05-17T12:39:41.293</time>
      </trkpt>
      <trkpt lat="48.49215" lon="2.63503">
        <ele>158</ele>
        <time>2017-05-17T12:39:42.291</time>
      </trkpt>
      <trkpt lat="48.49215" lon="2.63504">
        <ele>158</ele>
        <time>2017-05-17T12:39:43.298</time>
      </trkpt>
      <trkpt lat="48.49215" lon="2.63504">
        <ele>158</ele>
        <time>2017-05-17T12:39:44.295</time>
      </trkpt>
      <trkpt lat="48.49215" lon="2.63504">
        <ele>158</ele>
        <time>2017-05-17T12:39:45.293</time>
      </trkpt>
      <trkpt lat="48.49214" lon="2.63505">
        <ele>157</ele>
        <time>2017-05-17T12:39:46.292</time>
      </trkpt>
      <trkpt lat="48.49214" lon="2.63504">
        <ele>158</ele>
        <time>2017-05-17T12:39:47.291</time>
      </trkpt>
      <trkpt lat="48.49214" lon="2.63504">
        <ele>158</ele>
        <time>2017-05-17T12:39:48.290</time>
      </trkpt>
      <trkpt lat="48.49214" lon="2.63504">
        <ele>158</ele>
        <time>2017-05-17T12:39:49.289</time>
      </trkpt>
      <trkpt lat="48.49214" lon="2.63503">
        <ele>158</ele>
        <time>2017-05-17T12:39:50.291</time>
      </trkpt>
      <trkpt lat="48.49214" lon="2.63503">
        <ele>158</ele>
        <time>2017-05-17T12:39:51.296</time>
      </trkpt>
      <trkpt lat="48.49214" lon="2.63503">
        <ele>157</ele>
        <time>2017-05-17T12:39:52.293</time>
      </trkpt>
      <trkpt lat="48.49214" lon="2.63503">
        <ele>157</ele>
        <time>2017-05-17T12:39:53.292</time>
      </trkpt>
      <trkpt lat="48.49214" lon="2.63503">
        <ele>158</ele>
        <time>2017-05-17T12:39:54.291</time>
      </trkpt>
      <trkpt lat="48.49214" lon="2.63503">
        <ele>158</ele>
        <time>2017-05-17T12:39:55.290</time>
      </trkpt>
      <trkpt lat="48.49213" lon="2.63503">
        <ele>157</ele>
        <time>2017-05-17T12:39:56.291</time>
      </trkpt>
      <trkpt lat="48.49214" lon="2.63503">
        <ele>157</ele>
        <time>2017-05-17T12:39:57.293</time>
      </trkpt>
      <trkpt lat="48.49214" lon="2.63503">
        <ele>157</ele>
        <time>2017-05-17T12:39:58.294</time>
      </trkpt>
      <trkpt lat="48.49213" lon="2.63503">
        <ele>157</ele>
        <time>2017-05-17T12:39:59.292</time>
      </trkpt>
      <trkpt lat="48.49213" lon="2.63503">
        <ele>157</ele>
        <time>2017-05-17T12:40:00.295</time>
      </trkpt>
      <trkpt lat="48.49213" lon="2.63503">
        <ele>157</ele>
        <time>2017-05-17T12:40:01.292</time>
      </trkpt>
      <trkpt lat="48.49214" lon="2.63504">
        <ele>157</ele>
        <time>2017-05-17T12:40:02.293</time>
      </trkpt>
      <trkpt lat="48.49214" lon="2.63504">
        <ele>157</ele>
        <time>2017-05-17T12:40:03.290</time>
      </trkpt>
      <trkpt lat="48.49213" lon="2.63504">
        <ele>156</ele>
        <time>2017-05-17T12:40:04.297</time>
      </trkpt>
      <trkpt lat="48.49213" lon="2.63505">
        <ele>157</ele>
        <time>2017-05-17T12:40:05.291</time>
      </trkpt>
      <trkpt lat="48.49213" lon="2.63504">
        <ele>157</ele>
        <time>2017-05-17T12:40:06.292</time>
      </trkpt>
      <trkpt lat="48.49213" lon="2.63504">
        <ele>155</ele>
        <time>2017-05-17T12:40:07.292</time>
      </trkpt>
      <trkpt lat="48.49213" lon="2.63504">
        <ele>155</ele>
        <time>2017-05-17T12:40:08.291</time>
      </trkpt>
      <trkpt lat="48.49213" lon="2.63504">
        <ele>155</ele>
        <time>2017-05-17T12:40:09.295</time>
      </trkpt>
      <trkpt lat="48.49213" lon="2.63503">
        <ele>156</ele>
        <time>2017-05-17T12:40:10.293</time>
      </trkpt>
      <trkpt lat="48.49213" lon="2.63503">
        <ele>155</ele>
        <time>2017-05-17T12:40:11.292</time>
      </trkpt>
      <trkpt lat="48.49213" lon="2.63503">
        <ele>155</ele>
        <time>2017-05-17T12:40:12.291</time>
      </trkpt>
      <trkpt lat="48.49213" lon="2.63504">
        <ele>155</ele>
        <time>2017-05-17T12:40:13.290</time>
      </trkpt>
      <trkpt lat="48.49213" lon="2.63504">
        <ele>154</ele>
        <time>2017-05-17T12:40:14.291</time>
      </trkpt>
      <trkpt lat="48.49213" lon="2.63504">
        <ele>155</ele>
        <time>2017-05-17T12:40:15.291</time>
      </trkpt>
      <trkpt lat="48.49213" lon="2.63504">
        <ele>154</ele>
        <time>2017-05-17T12:40:16.291</time>
      </trkpt>
      <trkpt lat="48.49213" lon="2.63504">
        <ele>154</ele>
        <time>2017-05-17T12:40:17.291</time>
      </trkpt>
      <trkpt lat="48.49213" lon="2.63504">
        <ele>153</ele>
        <time>2017-05-17T12:40:18.291</time>
      </trkpt>
      <trkpt lat="48.49212" lon="2.63504">
        <ele>153</ele>
        <time>2017-05-17T12:40:19.293</time>
      </trkpt>
      <trkpt lat="48.49211" lon="2.63503">
        <ele>154</ele>
        <time>2017-05-17T12:40:20.292</time>
      </trkpt>
      <trkpt lat="48.49211" lon="2.63503">
        <ele>154</ele>
        <time>2017-05-17T12:40:21.292</time>
      </trkpt>
      <trkpt lat="48.49211" lon="2.63504">
        <ele>154</ele>
        <time>2017-05-17T12:40:22.291</time>
      </trkpt>
      <trkpt lat="48.49211" lon="2.63504">
        <ele>154</ele>
        <time>2017-05-17T12:40:23.290</time>
      </trkpt>
      <trkpt lat="48.49211" lon="2.63503">
        <ele>154</ele>
        <time>2017-05-17T12:40:24.290</time>
      </trkpt>
      <trkpt lat="48.49212" lon="2.63504">
        <ele>155</ele>
        <time>2017-05-17T12:40:25.291</time>
      </trkpt>
      <trkpt lat="48.49212" lon="2.63504">
        <ele>154</ele>
        <time>2017-05-17T12:40:26.291</time>
      </trkpt>
      <trkpt lat="48.49212" lon="2.63504">
        <ele>155</ele>
        <time>2017-05-17T12:40:27.290</time>
      </trkpt>
      <trkpt lat="48.49212" lon="2.63503">
        <ele>155</ele>
        <time>2017-05-17T12:40:28.292</time>
      </trkpt>
      <trkpt lat="48.49211" lon="2.63503">
        <ele>154</ele>
        <time>2017-05-17T12:40:29.292</time>
      </trkpt>
      <trkpt lat="48.49212" lon="2.63504">
        <ele>155</ele>
        <time>2017-05-17T12:40:30.291</time>
      </trkpt>
      <trkpt lat="48.49212" lon="2.63504">
        <ele>154</ele>
        <time>2017-05-17T12:40:31.291</time>
      </trkpt>
      <trkpt lat="48.49213" lon="2.63504">
        <ele>154</ele>
        <time>2017-05-17T12:40:32.290</time>
      </trkpt>
      <trkpt lat="48.49213" lon="2.63504">
        <ele>154</ele>
        <time>2017-05-17T12:40:33.293</time>
      </trkpt>
      <trkpt lat="48.49213" lon="2.63504">
        <ele>155</ele>
        <time>2017-05-17T12:40:34.294</time>
      </trkpt>
      <trkpt lat="48.49213" lon="2.63505">
        <ele>154</ele>
        <time>2017-05-17T12:40:35.294</time>
      </trkpt>
      <trkpt lat="48.49213" lon="2.63505">
        <ele>155</ele>
        <time>2017-05-17T12:40:36.293</time>
      </trkpt>
      <trkpt lat="48.49214" lon="2.63504">
        <ele>155</ele>
        <time>2017-05-17T12:40:37.306</time>
      </trkpt>
      <trkpt lat="48.49213" lon="2.63504">
        <ele>155</ele>
        <time>2017-05-17T12:40:38.294</time>
      </trkpt>
      <trkpt lat="48.49213" lon="2.63504">
        <ele>155</ele>
        <time>2017-05-17T12:40:39.295</time>
      </trkpt>
      <trkpt lat="48.49213" lon="2.63504">
        <ele>156</ele>
        <time>2017-05-17T12:40:40.292</time>
      </trkpt>
      <trkpt lat="48.49213" lon="2.63504">
        <ele>155</ele>
        <time>2017-05-17T12:40:41.291</time>
      </trkpt>
      <trkpt lat="48.49213" lon="2.63504">
        <ele>155</ele>
        <time>2017-05-17T12:40:42.294</time>
      </trkpt>
      <trkpt lat="48.49213" lon="2.63504">
        <ele>156</ele>
        <time>2017-05-17T12:40:43.297</time>
      </trkpt>
      <trkpt lat="48.49213" lon="2.63504">
        <ele>156</ele>
        <time>2017-05-17T12:40:44.293</time>
      </trkpt>
      <trkpt lat="48.49213" lon="2.63504">
        <ele>156</ele>
        <time>2017-05-17T12:40:45.294</time>
      </trkpt>
      <trkpt lat="48.49214" lon="2.63504">
        <ele>156</ele>
        <time>2017-05-17T12:40:46.294</time>
      </trkpt>
      <trkpt lat="48.49214" lon="2.63504">
        <ele>156</ele>
        <time>2017-05-17T12:40:47.296</time>
      </trkpt>
      <trkpt lat="48.49214" lon="2.63504">
        <ele>156</ele>
        <time>2017-05-17T12:40:48.290</time>
      </trkpt>
      <trkpt lat="48.49214" lon="2.63504">
        <ele>156</ele>
        <time>2017-05-17T12:40:49.290</time>
      </trkpt>
      <trkpt lat="48.49214" lon="2.63504">
        <ele>156</ele>
        <time>2017-05-17T12:40:50.420</time>
      </trkpt>
      <trkpt lat="48.49214" lon="2.63504">
        <ele>156</ele>
        <time>2017-05-17T12:40:51.291</time>
      </trkpt>
      <trkpt lat="48.49214" lon="2.63504">
        <ele>156</ele>
        <time>2017-05-17T12:40:52.292</time>
      </trkpt>
      <trkpt lat="48.49214" lon="2.63504">
        <ele>156</ele>
        <time>2017-05-17T12:40:53.291</time>
      </trkpt>
      <trkpt lat="48.49213" lon="2.63504">
        <ele>155</ele>
        <time>2017-05-17T12:40:54.293</time>
      </trkpt>
      <trkpt lat="48.49215" lon="2.63503">
        <ele>156</ele>
        <time>2017-05-17T12:40:55.293</time>
      </trkpt>
      <trkpt lat="48.49215" lon="2.63503">
        <ele>156</ele>
        <time>2017-05-17T12:40:56.324</time>
      </trkpt>
      <trkpt lat="48.49214" lon="2.63504">
        <ele>156</ele>
        <time>2017-05-17T12:40:57.294</time>
      </trkpt>
      <trkpt lat="48.49214" lon="2.63504">
        <ele>156</ele>
        <time>2017-05-17T12:40:58.294</time>
      </trkpt>
      <trkpt lat="48.49214" lon="2.63504">
        <ele>155</ele>
        <time>2017-05-17T12:40:59.293</time>
      </trkpt>
      <trkpt lat="48.49214" lon="2.63504">
        <ele>155</ele>
        <time>2017-05-17T12:41:00.293</time>
      </trkpt>
      <trkpt lat="48.49214" lon="2.63504">
        <ele>155</ele>
        <time>2017-05-17T12:41:01.290</time>
      </trkpt>
      <trkpt lat="48.49214" lon="2.63504">
        <ele>155</ele>
        <time>2017-05-17T12:41:02.291</time>
      </trkpt>
      <trkpt lat="48.49213" lon="2.63505">
        <ele>155</ele>
        <time>2017-05-17T12:41:04.364</time>
      </trkpt>
      <trkpt lat="48.49214" lon="2.63506">
        <ele>155</ele>
        <time>2017-05-17T12:41:05.301</time>
      </trkpt>
      <trkpt lat="48.49214" lon="2.63506">
        <ele>155</ele>
        <time>2017-05-17T12:41:06.299</time>
      </trkpt>
      <trkpt lat="48.49214" lon="2.63506">
        <ele>155</ele>
        <time>2017-05-17T12:41:07.298</time>
      </trkpt>
      <trkpt lat="48.49213" lon="2.63506">
        <ele>156</ele>
        <time>2017-05-17T12:41:08.300</time>
      </trkpt>
      <trkpt lat="48.49213" lon="2.63506">
        <ele>156</ele>
        <time>2017-05-17T12:41:09.298</time>
      </trkpt>
      <trkpt lat="48.49213" lon="2.63506">
        <ele>156</ele>
        <time>2017-05-17T12:41:10.300</time>
      </trkpt>
      <trkpt lat="48.49213" lon="2.63505">
        <ele>155</ele>
        <time>2017-05-17T12:41:11.298</time>
      </trkpt>
      <trkpt lat="48.49212" lon="2.63506">
        <ele>156</ele>
        <time>2017-05-17T12:41:12.297</time>
      </trkpt>
      <trkpt lat="48.49212" lon="2.63506">
        <ele>155</ele>
        <time>2017-05-17T12:41:13.296</time>
      </trkpt>
      <trkpt lat="48.49213" lon="2.63506">
        <ele>156</ele>
        <time>2017-05-17T12:41:14.299</time>
      </trkpt>
      <trkpt lat="48.49213" lon="2.63506">
        <ele>156</ele>
        <time>2017-05-17T12:41:15.291</time>
      </trkpt>
      <trkpt lat="48.49213" lon="2.63505">
        <ele>156</ele>
        <time>2017-05-17T12:41:16.453</time>
      </trkpt>
      <trkpt lat="48.49213" lon="2.63505">
        <ele>156</ele>
        <time>2017-05-17T12:41:17.291</time>
      </trkpt>
      <trkpt lat="48.49213" lon="2.63505">
        <ele>156</ele>
        <time>2017-05-17T12:41:18.293</time>
      </trkpt>
      <trkpt lat="48.49213" lon="2.63504">
        <ele>156</ele>
        <time>2017-05-17T12:41:19.291</time>
      </trkpt>
      <trkpt lat="48.49213" lon="2.63504">
        <ele>156</ele>
        <time>2017-05-17T12:41:20.440</time>
      </trkpt>
      <trkpt lat="48.49213" lon="2.63504">
        <ele>157</ele>
        <time>2017-05-17T12:41:21.292</time>
      </trkpt>
      <trkpt lat="48.49212" lon="2.63505">
        <ele>157</ele>
        <time>2017-05-17T12:41:22.293</time>
      </trkpt>
      <trkpt lat="48.49212" lon="2.63505">
        <ele>157</ele>
        <time>2017-05-17T12:41:23.291</time>
      </trkpt>
      <trkpt lat="48.49212" lon="2.63505">
        <ele>157</ele>
        <time>2017-05-17T12:41:24.292</time>
      </trkpt>
      <trkpt lat="48.49212" lon="2.63505">
        <ele>158</ele>
        <time>2017-05-17T12:41:25.292</time>
      </trkpt>
      <trkpt lat="48.49212" lon="2.63505">
        <ele>158</ele>
        <time>2017-05-17T12:41:26.294</time>
      </trkpt>
      <trkpt lat="48.49212" lon="2.63505">
        <ele>158</ele>
        <time>2017-05-17T12:41:27.293</time>
      </trkpt>
      <trkpt lat="48.49212" lon="2.63506">
        <ele>159</ele>
        <time>2017-05-17T12:41:28.293</time>
      </trkpt>
      <trkpt lat="48.49213" lon="2.63506">
        <ele>159</ele>
        <time>2017-05-17T12:41:29.292</time>
      </trkpt>
      <trkpt lat="48.49212" lon="2.63506">
        <ele>159</ele>
        <time>2017-05-17T12:41:30.292</time>
      </trkpt>
      <trkpt lat="48.49213" lon="2.63507">
        <ele>159</ele>
        <time>2017-05-17T12:41:31.291</time>
      </trkpt>
      <trkpt lat="48.49213" lon="2.63507">
        <ele>159</ele>
        <time>2017-05-17T12:41:32.293</time>
      </trkpt>
      <trkpt lat="48.49213" lon="2.63507">
        <ele>160</ele>
        <time>2017-05-17T12:41:33.293</time>
      </trkpt>
      <trkpt lat="48.49211" lon="2.63507">
        <ele>158</ele>
        <time>2017-05-17T12:41:34.294</time>
      </trkpt>
      <trkpt lat="48.49211" lon="2.63508">
        <ele>158</ele>
        <time>2017-05-17T12:41:35.294</time>
      </trkpt>
      <trkpt lat="48.49211" lon="2.63508">
        <ele>158</ele>
        <time>2017-05-17T12:41:36.292</time>
      </trkpt>
      <trkpt lat="48.49211" lon="2.63508">
        <ele>157</ele>
        <time>2017-05-17T12:41:37.293</time>
      </trkpt>
      <trkpt lat="48.49211" lon="2.63508">
        <ele>157</ele>
        <time>2017-05-17T12:41:38.293</time>
      </trkpt>
      <trkpt lat="48.49211" lon="2.63507">
        <ele>158</ele>
        <time>2017-05-17T12:41:39.295</time>
      </trkpt>
      <trkpt lat="48.49212" lon="2.63507">
        <ele>159</ele>
        <time>2017-05-17T12:41:40.295</time>
      </trkpt>
      <trkpt lat="48.49211" lon="2.63507">
        <ele>160</ele>
        <time>2017-05-17T12:41:41.293</time>
      </trkpt>
      <trkpt lat="48.49212" lon="2.63507">
        <ele>160</ele>
        <time>2017-05-17T12:41:42.293</time>
      </trkpt>
      <trkpt lat="48.49212" lon="2.63506">
        <ele>160</ele>
        <time>2017-05-17T12:41:43.293</time>
      </trkpt>
      <trkpt lat="48.49212" lon="2.63505">
        <ele>159</ele>
        <time>2017-05-17T12:41:44.293</time>
      </trkpt>
      <trkpt lat="48.49212" lon="2.63505">
        <ele>159</ele>
        <time>2017-05-17T12:41:45.292</time>
      </trkpt>
      <trkpt lat="48.49212" lon="2.63504">
        <ele>159</ele>
        <time>2017-05-17T12:41:46.293</time>
      </trkpt>
      <trkpt lat="48.49213" lon="2.63504">
        <ele>158</ele>
        <time>2017-05-17T12:41:47.293</time>
      </trkpt>
      <trkpt lat="48.49213" lon="2.63504">
        <ele>159</ele>
        <time>2017-05-17T12:41:48.292</time>
      </trkpt>
      <trkpt lat="48.49212" lon="2.63505">
        <ele>158</ele>
        <time>2017-05-17T12:41:49.293</time>
      </trkpt>
      <trkpt lat="48.49212" lon="2.63505">
        <ele>158</ele>
        <time>2017-05-17T12:41:50.293</time>
      </trkpt>
      <trkpt lat="48.49212" lon="2.63505">
        <ele>158</ele>
        <time>2017-05-17T12:41:51.293</time>
      </trkpt>
      <trkpt lat="48.49212" lon="2.63506">
        <ele>158</ele>
        <time>2017-05-17T12:41:52.294</time>
      </trkpt>
      <trkpt lat="48.49212" lon="2.63507">
        <ele>158</ele>
        <time>2017-05-17T12:41:53.297</time>
      </trkpt>
      <trkpt lat="48.49211" lon="2.63508">
        <ele>158</ele>
        <time>2017-05-17T12:41:54.296</time>
      </trkpt>
      <trkpt lat="48.4921" lon="2.63507">
        <ele>157</ele>
        <time>2017-05-17T12:41:55.296</time>
      </trkpt>
      <trkpt lat="48.49209" lon="2.63506">
        <ele>157</ele>
        <time>2017-05-17T12:41:56.297</time>
      </trkpt>
      <trkpt lat="48.49209" lon="2.63506">
        <ele>157</ele>
        <time>2017-05-17T12:41:57.296</time>
      </trkpt>
      <trkpt lat="48.4921" lon="2.63505">
        <ele>157</ele>
        <time>2017-05-17T12:41:58.734</time>
      </trkpt>
      <trkpt lat="48.49211" lon="2.63505">
        <ele>157</ele>
        <time>2017-05-17T12:41:59.293</time>
      </trkpt>
      <trkpt lat="48.49212" lon="2.63503">
        <ele>157</ele>
        <time>2017-05-17T12:42:00.302</time>
      </trkpt>
      <trkpt lat="48.49213" lon="2.63502">
        <ele>157</ele>
        <time>2017-05-17T12:42:01.293</time>
      </trkpt>
      <trkpt lat="48.49213" lon="2.63502">
        <ele>157</ele>
        <time>2017-05-17T12:42:02.295</time>
      </trkpt>
      <trkpt lat="48.49213" lon="2.63502">
        <ele>157</ele>
        <time>2017-05-17T12:42:03.294</time>
      </trkpt>
      <trkpt lat="48.49213" lon="2.63503">
        <ele>156</ele>
        <time>2017-05-17T12:42:04.293</time>
      </trkpt>
      <trkpt lat="48.49213" lon="2.63503">
        <ele>156</ele>
        <time>2017-05-17T12:42:05.294</time>
      </trkpt>
      <trkpt lat="48.49213" lon="2.63503">
        <ele>156</ele>
        <time>2017-05-17T12:42:06.293</time>
      </trkpt>
      <trkpt lat="48.49212" lon="2.63503">
        <ele>156</ele>
        <time>2017-05-17T12:42:07.292</time>
      </trkpt>
      <trkpt lat="48.49212" lon="2.63503">
        <ele>156</ele>
        <time>2017-05-17T12:42:08.292</time>
      </trkpt>
      <trkpt lat="48.49212" lon="2.63504">
        <ele>155</ele>
        <time>2017-05-17T12:42:09.293</time>
      </trkpt>
      <trkpt lat="48.49212" lon="2.63504">
        <ele>155</ele>
        <time>2017-05-17T12:42:10.294</time>
      </trkpt>
      <trkpt lat="48.49213" lon="2.63505">
        <ele>155</ele>
        <time>2017-05-17T12:42:11.294</time>
      </trkpt>
      <trkpt lat="48.49212" lon="2.63505">
        <ele>155</ele>
        <time>2017-05-17T12:42:12.293</time>
      </trkpt>
      <trkpt lat="48.49213" lon="2.63505">
        <ele>155</ele>
        <time>2017-05-17T12:42:13.293</time>
      </trkpt>
      <trkpt lat="48.49212" lon="2.63505">
        <ele>155</ele>
        <time>2017-05-17T12:42:14.293</time>
      </trkpt>
      <trkpt lat="48.49212" lon="2.63505">
        <ele>155</ele>
        <time>2017-05-17T12:42:15.294</time>
      </trkpt>
      <trkpt lat="48.49212" lon="2.63505">
        <ele>155</ele>
        <time>2017-05-17T12:42:16.294</time>
      </trkpt>
      <trkpt lat="48.49213" lon="2.63506">
        <ele>155</ele>
        <time>2017-05-17T12:42:17.294</time>
      </trkpt>
      <trkpt lat="48.49214" lon="2.63506">
        <ele>155</ele>
        <time>2017-05-17T12:42:18.295</time>
      </trkpt>
      <trkpt lat="48.49217" lon="2.63506">
        <ele>155</ele>
        <time>2017-05-17T12:42:19.295</time>
      </trkpt>
      <trkpt lat="48.4922" lon="2.63506">
        <ele>156</ele>
        <time>2017-05-17T12:42:20.295</time>
      </trkpt>
      <trkpt lat="48.49223" lon="2.63505">
        <ele>155</ele>
        <time>2017-05-17T12:42:21.296</time>
      </trkpt>
      <trkpt lat="48.49225" lon="2.63505">
        <ele>155</ele>
        <time>2017-05-17T12:42:22.295</time>
      </trkpt>
      <trkpt lat="48.49228" lon="2.63504">
        <ele>155</ele>
        <time>2017-05-17T12:42:23.295</time>
      </trkpt>
      <trkpt lat="48.49231" lon="2.63504">
        <ele>155</ele>
        <time>2017-05-17T12:42:24.296</time>
      </trkpt>
      <trkpt lat="48.49235" lon="2.63503">
        <ele>156</ele>
        <time>2017-05-17T12:42:25.297</time>
      </trkpt>
      <trkpt lat="48.49239" lon="2.63503">
        <ele>156</ele>
        <time>2017-05-17T12:42:26.294</time>
      </trkpt>
      <trkpt lat="48.49242" lon="2.63503">
        <ele>155</ele>
        <time>2017-05-17T12:42:27.293</time>
      </trkpt>
      <trkpt lat="48.49246" lon="2.63503">
        <ele>154</ele>
        <time>2017-05-17T12:42:28.293</time>
      </trkpt>
      <trkpt lat="48.49252" lon="2.63501">
        <ele>154</ele>
        <time>2017-05-17T12:42:29.294</time>
      </trkpt>
      <trkpt lat="48.49257" lon="2.635">
        <ele>153</ele>
        <time>2017-05-17T12:42:30.294</time>
      </trkpt>
      <trkpt lat="48.49261" lon="2.63501">
        <ele>152</ele>
        <time>2017-05-17T12:42:31.295</time>
      </trkpt>
      <trkpt lat="48.49266" lon="2.63501">
        <ele>151</ele>
        <time>2017-05-17T12:42:32.295</time>
      </trkpt>
      <trkpt lat="48.4927" lon="2.63499">
        <ele>151</ele>
        <time>2017-05-17T12:42:33.295</time>
      </trkpt>
      <trkpt lat="48.49274" lon="2.63499">
        <ele>152</ele>
        <time>2017-05-17T12:42:34.296</time>
      </trkpt>
      <trkpt lat="48.49278" lon="2.63498">
        <ele>151</ele>
        <time>2017-05-17T12:42:35.297</time>
      </trkpt>
      <trkpt lat="48.49282" lon="2.63498">
        <ele>151</ele>
        <time>2017-05-17T12:42:36.293</time>
      </trkpt>
      <trkpt lat="48.49287" lon="2.63497">
        <ele>152</ele>
        <time>2017-05-17T12:42:37.294</time>
      </trkpt>
      <trkpt lat="48.49292" lon="2.63496">
        <ele>152</ele>
        <time>2017-05-17T12:42:38.292</time>
      </trkpt>
      <trkpt lat="48.49297" lon="2.63495">
        <ele>152</ele>
        <time>2017-05-17T12:42:39.293</time>
      </trkpt>
      <trkpt lat="48.49302" lon="2.63495">
        <ele>152</ele>
        <time>2017-05-17T12:42:40.293</time>
      </trkpt>
      <trkpt lat="48.49306" lon="2.63494">
        <ele>153</ele>
        <time>2017-05-17T12:42:41.293</time>
      </trkpt>
      <trkpt lat="48.49311" lon="2.63493">
        <ele>153</ele>
        <time>2017-05-17T12:42:42.293</time>
      </trkpt>
      <trkpt lat="48.49315" lon="2.63493">
        <ele>153</ele>
        <time>2017-05-17T12:42:43.291</time>
      </trkpt>
      <trkpt lat="48.49319" lon="2.63492">
        <ele>153</ele>
        <time>2017-05-17T12:42:44.292</time>
      </trkpt>
      <trkpt lat="48.49323" lon="2.63492">
        <ele>153</ele>
        <time>2017-05-17T12:42:45.293</time>
      </trkpt>
      <trkpt lat="48.49326" lon="2.63491">
        <ele>153</ele>
        <time>2017-05-17T12:42:46.294</time>
      </trkpt>
      <trkpt lat="48.49328" lon="2.63492">
        <ele>154</ele>
        <time>2017-05-17T12:42:47.293</time>
      </trkpt>
      <trkpt lat="48.4933" lon="2.63492">
        <ele>153</ele>
        <time>2017-05-17T12:42:48.294</time>
      </trkpt>
      <trkpt lat="48.49332" lon="2.63492">
        <ele>153</ele>
        <time>2017-05-17T12:42:49.293</time>
      </trkpt>
      <trkpt lat="48.49336" lon="2.63492">
        <ele>153</ele>
        <time>2017-05-17T12:42:50.293</time>
      </trkpt>
      <trkpt lat="48.49338" lon="2.63492">
        <ele>153</ele>
        <time>2017-05-17T12:42:51.293</time>
      </trkpt>
      <trkpt lat="48.49341" lon="2.63491">
        <ele>153</ele>
        <time>2017-05-17T12:42:52.293</time>
      </trkpt>
      <trkpt lat="48.49343" lon="2.63491">
        <ele>154</ele>
        <time>2017-05-17T12:42:53.294</time>
      </trkpt>
      <trkpt lat="48.49347" lon="2.6349">
        <ele>154</ele>
        <time>2017-05-17T12:42:54.293</time>
      </trkpt>
      <trkpt lat="48.4935" lon="2.6349">
        <ele>154</ele>
        <time>2017-05-17T12:42:55.293</time>
      </trkpt>
      <trkpt lat="48.49353" lon="2.6349">
        <ele>155</ele>
        <time>2017-05-17T12:42:56.294</time>
      </trkpt>
      <trkpt lat="48.49357" lon="2.63489">
        <ele>155</ele>
        <time>2017-05-17T12:42:57.293</time>
      </trkpt>
      <trkpt lat="48.49361" lon="2.63489">
        <ele>155</ele>
        <time>2017-05-17T12:42:58.294</time>
      </trkpt>
      <trkpt lat="48.49366" lon="2.63488">
        <ele>156</ele>
        <time>2017-05-17T12:42:59.292</time>
      </trkpt>
      <trkpt lat="48.49369" lon="2.63489">
        <ele>156</ele>
        <time>2017-05-17T12:43:00.294</time>
      </trkpt>
      <trkpt lat="48.49373" lon="2.63487">
        <ele>156</ele>
        <time>2017-05-17T12:43:01.296</time>
      </trkpt>
      <trkpt lat="48.49377" lon="2.63488">
        <ele>155</ele>
        <time>2017-05-17T12:43:02.295</time>
      </trkpt>
      <trkpt lat="48.49382" lon="2.63486">
        <ele>155</ele>
        <time>2017-05-17T12:43:03.295</time>
      </trkpt>
      <trkpt lat="48.49384" lon="2.63486">
        <ele>154</ele>
        <time>2017-05-17T12:43:04.295</time>
      </trkpt>
      <trkpt lat="48.49389" lon="2.63487">
        <ele>154</ele>
        <time>2017-05-17T12:43:05.301</time>
      </trkpt>
      <trkpt lat="48.49393" lon="2.63486">
        <ele>154</ele>
        <time>2017-05-17T12:43:06.298</time>
      </trkpt>
      <trkpt lat="48.49397" lon="2.63485">
        <ele>154</ele>
        <time>2017-05-17T12:43:07.296</time>
      </trkpt>
      <trkpt lat="48.49401" lon="2.63485">
        <ele>154</ele>
        <time>2017-05-17T12:43:08.301</time>
      </trkpt>
      <trkpt lat="48.49406" lon="2.63485">
        <ele>153</ele>
        <time>2017-05-17T12:43:09.313</time>
      </trkpt>
      <trkpt lat="48.4941" lon="2.63484">
        <ele>153</ele>
        <time>2017-05-17T12:43:10.297</time>
      </trkpt>
      <trkpt lat="48.49414" lon="2.63484">
        <ele>153</ele>
        <time>2017-05-17T12:43:11.295</time>
      </trkpt>
      <trkpt lat="48.49418" lon="2.63484">
        <ele>153</ele>
        <time>2017-05-17T12:43:12.294</time>
      </trkpt>
      <trkpt lat="48.49423" lon="2.63483">
        <ele>153</ele>
        <time>2017-05-17T12:43:13.293</time>
      </trkpt>
      <trkpt lat="48.49427" lon="2.63482">
        <ele>152</ele>
        <time>2017-05-17T12:43:14.293</time>
      </trkpt>
      <trkpt lat="48.49432" lon="2.63482">
        <ele>152</ele>
        <time>2017-05-17T12:43:15.293</time>
      </trkpt>
      <trkpt lat="48.49436" lon="2.63482">
        <ele>152</ele>
        <time>2017-05-17T12:43:16.293</time>
      </trkpt>
      <trkpt lat="48.49441" lon="2.63482">
        <ele>152</ele>
        <time>2017-05-17T12:43:17.295</time>
      </trkpt>
      <trkpt lat="48.49447" lon="2.63481">
        <ele>152</ele>
        <time>2017-05-17T12:43:18.295</time>
      </trkpt>
      <trkpt lat="48.49452" lon="2.6348">
        <ele>152</ele>
        <time>2017-05-17T12:43:19.295</time>
      </trkpt>
      <trkpt lat="48.49458" lon="2.63478">
        <ele>152</ele>
        <time>2017-05-17T12:43:20.293</time>
      </trkpt>
      <trkpt lat="48.49463" lon="2.63478">
        <ele>153</ele>
        <time>2017-05-17T12:43:21.295</time>
      </trkpt>
      <trkpt lat="48.49469" lon="2.63477">
        <ele>153</ele>
        <time>2017-05-17T12:43:22.294</time>
      </trkpt>
      <trkpt lat="48.49474" lon="2.63476">
        <ele>153</ele>
        <time>2017-05-17T12:43:23.291</time>
      </trkpt>
      <trkpt lat="48.4948" lon="2.63475">
        <ele>153</ele>
        <time>2017-05-17T12:43:24.292</time>
      </trkpt>
      <trkpt lat="48.49485" lon="2.63475">
        <ele>153</ele>
        <time>2017-05-17T12:43:25.294</time>
      </trkpt>
      <trkpt lat="48.49491" lon="2.63475">
        <ele>153</ele>
        <time>2017-05-17T12:43:26.293</time>
      </trkpt>
      <trkpt lat="48.49496" lon="2.63474">
        <ele>152</ele>
        <time>2017-05-17T12:43:27.292</time>
      </trkpt>
      <trkpt lat="48.49502" lon="2.63473">
        <ele>152</ele>
        <time>2017-05-17T12:43:28.292</time>
      </trkpt>
      <trkpt lat="48.49507" lon="2.63473">
        <ele>151</ele>
        <time>2017-05-17T12:43:29.292</time>
      </trkpt>
      <trkpt lat="48.49513" lon="2.63473">
        <ele>150</ele>
        <time>2017-05-17T12:43:30.292</time>
      </trkpt>
      <trkpt lat="48.49519" lon="2.63471">
        <ele>149</ele>
        <time>2017-05-17T12:43:31.293</time>
      </trkpt>
      <trkpt lat="48.49525" lon="2.6347">
        <ele>149</ele>
        <time>2017-05-17T12:43:32.293</time>
      </trkpt>
      <trkpt lat="48.49531" lon="2.63469">
        <ele>149</ele>
        <time>2017-05-17T12:43:33.294</time>
      </trkpt>
      <trkpt lat="48.49538" lon="2.63469">
        <ele>149</ele>
        <time>2017-05-17T12:43:34.294</time>
      </trkpt>
      <trkpt lat="48.49543" lon="2.6347">
        <ele>149</ele>
        <time>2017-05-17T12:43:35.296</time>
      </trkpt>
      <trkpt lat="48.49549" lon="2.63469">
        <ele>149</ele>
        <time>2017-05-17T12:43:36.295</time>
      </trkpt>
      <trkpt lat="48.49555" lon="2.63468">
        <ele>149</ele>
        <time>2017-05-17T12:43:37.293</time>
      </trkpt>
      <trkpt lat="48.49562" lon="2.63467">
        <ele>150</ele>
        <time>2017-05-17T12:43:38.294</time>
      </trkpt>
      <trkpt lat="48.49569" lon="2.63465">
        <ele>150</ele>
        <time>2017-05-17T12:43:39.295</time>
      </trkpt>
      <trkpt lat="48.49577" lon="2.63464">
        <ele>151</ele>
        <time>2017-05-17T12:43:40.294</time>
      </trkpt>
      <trkpt lat="48.49585" lon="2.63464">
        <ele>150</ele>
        <time>2017-05-17T12:43:41.294</time>
      </trkpt>
      <trkpt lat="48.4959" lon="2.63464">
        <ele>149</ele>
        <time>2017-05-17T12:43:42.295</time>
      </trkpt>
      <trkpt lat="48.49596" lon="2.63463">
        <ele>148</ele>
        <time>2017-05-17T12:43:43.295</time>
      </trkpt>
      <trkpt lat="48.49603" lon="2.63463">
        <ele>147</ele>
        <time>2017-05-17T12:43:44.294</time>
      </trkpt>
      <trkpt lat="48.49608" lon="2.63463">
        <ele>148</ele>
        <time>2017-05-17T12:43:45.294</time>
      </trkpt>
      <trkpt lat="48.49615" lon="2.63463">
        <ele>148</ele>
        <time>2017-05-17T12:43:46.296</time>
      </trkpt>
      <trkpt lat="48.4962" lon="2.63464">
        <ele>147</ele>
        <time>2017-05-17T12:43:47.293</time>
      </trkpt>
      <trkpt lat="48.49625" lon="2.63464">
        <ele>147</ele>
        <time>2017-05-17T12:43:48.294</time>
      </trkpt>
      <trkpt lat="48.49631" lon="2.63463">
        <ele>147</ele>
        <time>2017-05-17T12:43:49.294</time>
      </trkpt>
      <trkpt lat="48.49635" lon="2.63462">
        <ele>148</ele>
        <time>2017-05-17T12:43:50.295</time>
      </trkpt>
      <trkpt lat="48.49638" lon="2.63461">
        <ele>146</ele>
        <time>2017-05-17T12:43:51.293</time>
      </trkpt>
      <trkpt lat="48.49644" lon="2.6346">
        <ele>146</ele>
        <time>2017-05-17T12:43:52.294</time>
      </trkpt>
      <trkpt lat="48.49648" lon="2.6346">
        <ele>146</ele>
        <time>2017-05-17T12:43:53.294</time>
      </trkpt>
      <trkpt lat="48.49653" lon="2.6346">
        <ele>147</ele>
        <time>2017-05-17T12:43:54.294</time>
      </trkpt>
      <trkpt lat="48.49656" lon="2.63461">
        <ele>146</ele>
        <time>2017-05-17T12:43:55.291</time>
      </trkpt>
      <trkpt lat="48.4966" lon="2.63463">
        <ele>146</ele>
        <time>2017-05-17T12:43:56.293</time>
      </trkpt>
      <trkpt lat="48.49664" lon="2.63463">
        <ele>145</ele>
        <time>2017-05-17T12:43:57.292</time>
      </trkpt>
      <trkpt lat="48.49668" lon="2.63466">
        <ele>145</ele>
        <time>2017-05-17T12:43:58.293</time>
      </trkpt>
      <trkpt lat="48.49672" lon="2.63467">
        <ele>146</ele>
        <time>2017-05-17T12:43:59.292</time>
      </trkpt>
      <trkpt lat="48.49676" lon="2.63469">
        <ele>147</ele>
        <time>2017-05-17T12:44:00.411</time>
      </trkpt>
      <trkpt lat="48.49678" lon="2.6347">
        <ele>147</ele>
        <time>2017-05-17T12:44:01.293</time>
      </trkpt>
      <trkpt lat="48.49679" lon="2.63471">
        <ele>147</ele>
        <time>2017-05-17T12:44:02.295</time>
      </trkpt>
      <trkpt lat="48.49679" lon="2.6347">
        <ele>147</ele>
        <time>2017-05-17T12:44:03.294</time>
      </trkpt>
      <trkpt lat="48.49678" lon="2.63471">
        <ele>147</ele>
        <time>2017-05-17T12:44:04.292</time>
      </trkpt>
      <trkpt lat="48.49678" lon="2.6347">
        <ele>147</ele>
        <time>2017-05-17T12:44:05.291</time>
      </trkpt>
      <trkpt lat="48.49678" lon="2.63469">
        <ele>147</ele>
        <time>2017-05-17T12:44:06.292</time>
      </trkpt>
      <trkpt lat="48.49678" lon="2.63469">
        <ele>147</ele>
        <time>2017-05-17T12:44:07.291</time>
      </trkpt>
      <trkpt lat="48.49678" lon="2.63469">
        <ele>147</ele>
        <time>2017-05-17T12:44:08.293</time>
      </trkpt>
      <trkpt lat="48.4968" lon="2.6347">
        <ele>147</ele>
        <time>2017-05-17T12:44:09.294</time>
      </trkpt>
      <trkpt lat="48.49682" lon="2.63472">
        <ele>148</ele>
        <time>2017-05-17T12:44:10.293</time>
      </trkpt>
      <trkpt lat="48.49683" lon="2.63474">
        <ele>148</ele>
        <time>2017-05-17T12:44:11.293</time>
      </trkpt>
      <trkpt lat="48.49685" lon="2.63477">
        <ele>147</ele>
        <time>2017-05-17T12:44:12.294</time>
      </trkpt>
      <trkpt lat="48.49688" lon="2.63481">
        <ele>147</ele>
        <time>2017-05-17T12:44:13.294</time>
      </trkpt>
      <trkpt lat="48.4969" lon="2.63487">
        <ele>147</ele>
        <time>2017-05-17T12:44:14.294</time>
      </trkpt>
      <trkpt lat="48.49691" lon="2.63495">
        <ele>147</ele>
        <time>2017-05-17T12:44:15.294</time>
      </trkpt>
      <trkpt lat="48.49693" lon="2.63502">
        <ele>147</ele>
        <time>2017-05-17T12:44:16.294</time>
      </trkpt>
      <trkpt lat="48.49695" lon="2.6351">
        <ele>147</ele>
        <time>2017-05-17T12:44:17.294</time>
      </trkpt>
      <trkpt lat="48.49696" lon="2.63518">
        <ele>146</ele>
        <time>2017-05-17T12:44:18.293</time>
      </trkpt>
      <trkpt lat="48.49698" lon="2.63525">
        <ele>147</ele>
        <time>2017-05-17T12:44:19.294</time>
      </trkpt>
      <trkpt lat="48.497" lon="2.63532">
        <ele>148</ele>
        <time>2017-05-17T12:44:20.295</time>
      </trkpt>
      <trkpt lat="48.49702" lon="2.63539">
        <ele>149</ele>
        <time>2017-05-17T12:44:21.295</time>
      </trkpt>
      <trkpt lat="48.49704" lon="2.63546">
        <ele>148</ele>
        <time>2017-05-17T12:44:22.295</time>
      </trkpt>
      <trkpt lat="48.49705" lon="2.63554">
        <ele>148</ele>
        <time>2017-05-17T12:44:23.293</time>
      </trkpt>
      <trkpt lat="48.49707" lon="2.63562">
        <ele>148</ele>
        <time>2017-05-17T12:44:24.294</time>
      </trkpt>
      <trkpt lat="48.49707" lon="2.63569">
        <ele>147</ele>
        <time>2017-05-17T12:44:25.298</time>
      </trkpt>
      <trkpt lat="48.4971" lon="2.63577">
        <ele>148</ele>
        <time>2017-05-17T12:44:26.294</time>
      </trkpt>
      <trkpt lat="48.49711" lon="2.63584">
        <ele>148</ele>
        <time>2017-05-17T12:44:27.295</time>
      </trkpt>
      <trkpt lat="48.49712" lon="2.63593">
        <ele>148</ele>
        <time>2017-05-17T12:44:28.294</time>
      </trkpt>
      <trkpt lat="48.49713" lon="2.636">
        <ele>148</ele>
        <time>2017-05-17T12:44:29.294</time>
      </trkpt>
      <trkpt lat="48.49715" lon="2.63608">
        <ele>149</ele>
        <time>2017-05-17T12:44:30.295</time>
      </trkpt>
      <trkpt lat="48.49716" lon="2.63616">
        <ele>149</ele>
        <time>2017-05-17T12:44:31.294</time>
      </trkpt>
      <trkpt lat="48.49717" lon="2.63623">
        <ele>149</ele>
        <time>2017-05-17T12:44:32.292</time>
      </trkpt>
      <trkpt lat="48.49719" lon="2.6363">
        <ele>149</ele>
        <time>2017-05-17T12:44:33.291</time>
      </trkpt>
      <trkpt lat="48.49721" lon="2.63639">
        <ele>149</ele>
        <time>2017-05-17T12:44:34.293</time>
      </trkpt>
      <trkpt lat="48.49722" lon="2.63646">
        <ele>150</ele>
        <time>2017-05-17T12:44:35.294</time>
      </trkpt>
      <trkpt lat="48.49723" lon="2.63653">
        <ele>150</ele>
        <time>2017-05-17T12:44:36.293</time>
      </trkpt>
      <trkpt lat="48.49724" lon="2.63661">
        <ele>150</ele>
        <time>2017-05-17T12:44:37.292</time>
      </trkpt>
      <trkpt lat="48.49727" lon="2.63668">
        <ele>151</ele>
        <time>2017-05-17T12:44:38.293</time>
      </trkpt>
      <trkpt lat="48.49729" lon="2.63675">
        <ele>151</ele>
        <time>2017-05-17T12:44:39.292</time>
      </trkpt>
      <trkpt lat="48.49728" lon="2.63682">
        <ele>149</ele>
        <time>2017-05-17T12:44:40.292</time>
      </trkpt>
      <trkpt lat="48.4973" lon="2.63689">
        <ele>149</ele>
        <time>2017-05-17T12:44:41.293</time>
      </trkpt>
      <trkpt lat="48.49732" lon="2.63695">
        <ele>149</ele>
        <time>2017-05-17T12:44:42.294</time>
      </trkpt>
      <trkpt lat="48.49733" lon="2.63702">
        <ele>149</ele>
        <time>2017-05-17T12:44:43.293</time>
      </trkpt>
      <trkpt lat="48.49734" lon="2.6371">
        <ele>149</ele>
        <time>2017-05-17T12:44:44.293</time>
      </trkpt>
      <trkpt lat="48.49735" lon="2.63718">
        <ele>148</ele>
        <time>2017-05-17T12:44:45.292</time>
      </trkpt>
      <trkpt lat="48.49735" lon="2.63726">
        <ele>146</ele>
        <time>2017-05-17T12:44:46.292</time>
      </trkpt>
      <trkpt lat="48.49737" lon="2.63733">
        <ele>146</ele>
        <time>2017-05-17T12:44:47.292</time>
      </trkpt>
      <trkpt lat="48.49737" lon="2.63741">
        <ele>144</ele>
        <time>2017-05-17T12:44:48.293</time>
      </trkpt>
      <trkpt lat="48.49739" lon="2.63748">
        <ele>144</ele>
        <time>2017-05-17T12:44:49.293</time>
      </trkpt>
      <trkpt lat="48.4974" lon="2.63756">
        <ele>144</ele>
        <time>2017-05-17T12:44:50.294</time>
      </trkpt>
      <trkpt lat="48.49741" lon="2.63763">
        <ele>143</ele>
        <time>2017-05-17T12:44:51.294</time>
      </trkpt>
      <trkpt lat="48.49742" lon="2.63771">
        <ele>143</ele>
        <time>2017-05-17T12:44:52.293</time>
      </trkpt>
      <trkpt lat="48.49744" lon="2.63779">
        <ele>142</ele>
        <time>2017-05-17T12:44:53.293</time>
      </trkpt>
      <trkpt lat="48.49746" lon="2.63786">
        <ele>142</ele>
        <time>2017-05-17T12:44:54.294</time>
      </trkpt>
      <trkpt lat="48.49748" lon="2.63794">
        <ele>143</ele>
        <time>2017-05-17T12:44:55.294</time>
      </trkpt>
      <trkpt lat="48.49751" lon="2.638">
        <ele>144</ele>
        <time>2017-05-17T12:44:56.294</time>
      </trkpt>
      <trkpt lat="48.49753" lon="2.63808">
        <ele>145</ele>
        <time>2017-05-17T12:44:57.295</time>
      </trkpt>
      <trkpt lat="48.49755" lon="2.63817">
        <ele>145</ele>
        <time>2017-05-17T12:44:58.295</time>
      </trkpt>
      <trkpt lat="48.49758" lon="2.63824">
        <ele>145</ele>
        <time>2017-05-17T12:44:59.293</time>
      </trkpt>
      <trkpt lat="48.49758" lon="2.63832">
        <ele>145</ele>
        <time>2017-05-17T12:45:00.294</time>
      </trkpt>
      <trkpt lat="48.49761" lon="2.63839">
        <ele>144</ele>
        <time>2017-05-17T12:45:01.294</time>
      </trkpt>
      <trkpt lat="48.49762" lon="2.63847">
        <ele>145</ele>
        <time>2017-05-17T12:45:02.293</time>
      </trkpt>
      <trkpt lat="48.49765" lon="2.63854">
        <ele>145</ele>
        <time>2017-05-17T12:45:03.306</time>
      </trkpt>
      <trkpt lat="48.49767" lon="2.63862">
        <ele>146</ele>
        <time>2017-05-17T12:45:04.294</time>
      </trkpt>
      <trkpt lat="48.49768" lon="2.6387">
        <ele>146</ele>
        <time>2017-05-17T12:45:05.293</time>
      </trkpt>
      <trkpt lat="48.4977" lon="2.63877">
        <ele>147</ele>
        <time>2017-05-17T12:45:06.293</time>
      </trkpt>
      <trkpt lat="48.4977" lon="2.63885">
        <ele>147</ele>
        <time>2017-05-17T12:45:07.294</time>
      </trkpt>
      <trkpt lat="48.49772" lon="2.63892">
        <ele>145</ele>
        <time>2017-05-17T12:45:08.294</time>
      </trkpt>
      <trkpt lat="48.49774" lon="2.63901">
        <ele>145</ele>
        <time>2017-05-17T12:45:09.293</time>
      </trkpt>
      <trkpt lat="48.49775" lon="2.63908">
        <ele>145</ele>
        <time>2017-05-17T12:45:10.293</time>
      </trkpt>
      <trkpt lat="48.49775" lon="2.63919">
        <ele>145</ele>
        <time>2017-05-17T12:45:11.292</time>
      </trkpt>
      <trkpt lat="48.49776" lon="2.63927">
        <ele>145</ele>
        <time>2017-05-17T12:45:12.295</time>
      </trkpt>
      <trkpt lat="48.49776" lon="2.63937">
        <ele>145</ele>
        <time>2017-05-17T12:45:13.294</time>
      </trkpt>
      <trkpt lat="48.49782" lon="2.63943">
        <ele>147</ele>
        <time>2017-05-17T12:45:14.294</time>
      </trkpt>
      <trkpt lat="48.49784" lon="2.63952">
        <ele>148</ele>
        <time>2017-05-17T12:45:15.293</time>
      </trkpt>
      <trkpt lat="48.49787" lon="2.63959">
        <ele>149</ele>
        <time>2017-05-17T12:45:16.294</time>
      </trkpt>
      <trkpt lat="48.49788" lon="2.63967">
        <ele>148</ele>
        <time>2017-05-17T12:45:17.293</time>
      </trkpt>
      <trkpt lat="48.49789" lon="2.63974">
        <ele>147</ele>
        <time>2017-05-17T12:45:18.293</time>
      </trkpt>
      <trkpt lat="48.49791" lon="2.63981">
        <ele>147</ele>
        <time>2017-05-17T12:45:19.294</time>
      </trkpt>
      <trkpt lat="48.49792" lon="2.63989">
        <ele>147</ele>
        <time>2017-05-17T12:45:20.295</time>
      </trkpt>
      <trkpt lat="48.49794" lon="2.63997">
        <ele>147</ele>
        <time>2017-05-17T12:45:21.294</time>
      </trkpt>
      <trkpt lat="48.49795" lon="2.64004">
        <ele>147</ele>
        <time>2017-05-17T12:45:22.292</time>
      </trkpt>
      <trkpt lat="48.49797" lon="2.64012">
        <ele>148</ele>
        <time>2017-05-17T12:45:23.292</time>
      </trkpt>
      <trkpt lat="48.49798" lon="2.6402">
        <ele>148</ele>
        <time>2017-05-17T12:45:24.291</time>
      </trkpt>
      <trkpt lat="48.498" lon="2.64027">
        <ele>148</ele>
        <time>2017-05-17T12:45:25.292</time>
      </trkpt>
      <trkpt lat="48.49801" lon="2.64036">
        <ele>148</ele>
        <time>2017-05-17T12:45:26.291</time>
      </trkpt>
      <trkpt lat="48.49802" lon="2.64045">
        <ele>148</ele>
        <time>2017-05-17T12:45:27.291</time>
      </trkpt>
      <trkpt lat="48.49805" lon="2.64053">
        <ele>148</ele>
        <time>2017-05-17T12:45:28.292</time>
      </trkpt>
      <trkpt lat="48.49805" lon="2.64062">
        <ele>147</ele>
        <time>2017-05-17T12:45:29.292</time>
      </trkpt>
      <trkpt lat="48.49806" lon="2.6407">
        <ele>147</ele>
        <time>2017-05-17T12:45:30.292</time>
      </trkpt>
      <trkpt lat="48.49808" lon="2.64079">
        <ele>147</ele>
        <time>2017-05-17T12:45:31.293</time>
      </trkpt>
      <trkpt lat="48.49809" lon="2.64088">
        <ele>147</ele>
        <time>2017-05-17T12:45:32.291</time>
      </trkpt>
      <trkpt lat="48.4981" lon="2.64096">
        <ele>147</ele>
        <time>2017-05-17T12:45:33.293</time>
      </trkpt>
      <trkpt lat="48.49812" lon="2.64104">
        <ele>147</ele>
        <time>2017-05-17T12:45:34.293</time>
      </trkpt>
      <trkpt lat="48.49815" lon="2.64114">
        <ele>150</ele>
        <time>2017-05-17T12:45:35.293</time>
      </trkpt>
      <trkpt lat="48.49816" lon="2.64122">
        <ele>149</ele>
        <time>2017-05-17T12:45:36.293</time>
      </trkpt>
      <trkpt lat="48.49817" lon="2.64131">
        <ele>149</ele>
        <time>2017-05-17T12:45:37.293</time>
      </trkpt>
      <trkpt lat="48.49818" lon="2.6414">
        <ele>148</ele>
        <time>2017-05-17T12:45:38.291</time>
      </trkpt>
      <trkpt lat="48.49821" lon="2.64147">
        <ele>149</ele>
        <time>2017-05-17T12:45:39.291</time>
      </trkpt>
      <trkpt lat="48.49822" lon="2.64155">
        <ele>149</ele>
        <time>2017-05-17T12:45:40.290</time>
      </trkpt>
      <trkpt lat="48.49824" lon="2.64163">
        <ele>148</ele>
        <time>2017-05-17T12:45:41.290</time>
      </trkpt>
      <trkpt lat="48.49825" lon="2.64172">
        <ele>148</ele>
        <time>2017-05-17T12:45:42.291</time>
      </trkpt>
      <trkpt lat="48.49826" lon="2.6418">
        <ele>148</ele>
        <time>2017-05-17T12:45:43.291</time>
      </trkpt>
      <trkpt lat="48.49828" lon="2.64189">
        <ele>148</ele>
        <time>2017-05-17T12:45:44.292</time>
      </trkpt>
      <trkpt lat="48.49829" lon="2.64197">
        <ele>149</ele>
        <time>2017-05-17T12:45:45.292</time>
      </trkpt>
      <trkpt lat="48.4983" lon="2.64205">
        <ele>148</ele>
        <time>2017-05-17T12:45:46.292</time>
      </trkpt>
      <trkpt lat="48.49832" lon="2.64213">
        <ele>147</ele>
        <time>2017-05-17T12:45:47.291</time>
      </trkpt>
      <trkpt lat="48.49832" lon="2.6422">
        <ele>146</ele>
        <time>2017-05-17T12:45:48.290</time>
      </trkpt>
      <trkpt lat="48.49834" lon="2.64229">
        <ele>146</ele>
        <time>2017-05-17T12:45:49.291</time>
      </trkpt>
      <trkpt lat="48.49836" lon="2.64236">
        <ele>145</ele>
        <time>2017-05-17T12:45:50.292</time>
      </trkpt>
      <trkpt lat="48.49838" lon="2.64244">
        <ele>145</ele>
        <time>2017-05-17T12:45:51.293</time>
      </trkpt>
      <trkpt lat="48.49838" lon="2.64253">
        <ele>145</ele>
        <time>2017-05-17T12:45:52.292</time>
      </trkpt>
      <trkpt lat="48.4984" lon="2.6426">
        <ele>145</ele>
        <time>2017-05-17T12:45:53.291</time>
      </trkpt>
      <trkpt lat="48.49842" lon="2.64268">
        <ele>145</ele>
        <time>2017-05-17T12:45:54.292</time>
      </trkpt>
      <trkpt lat="48.49843" lon="2.64276">
        <ele>145</ele>
        <time>2017-05-17T12:45:55.291</time>
      </trkpt>
      <trkpt lat="48.49843" lon="2.64284">
        <ele>143</ele>
        <time>2017-05-17T12:45:56.290</time>
      </trkpt>
      <trkpt lat="48.49845" lon="2.64292">
        <ele>143</ele>
        <time>2017-05-17T12:45:57.292</time>
      </trkpt>
      <trkpt lat="48.49847" lon="2.64301">
        <ele>144</ele>
        <time>2017-05-17T12:45:58.294</time>
      </trkpt>
      <trkpt lat="48.49849" lon="2.64309">
        <ele>144</ele>
        <time>2017-05-17T12:45:59.292</time>
      </trkpt>
      <trkpt lat="48.49851" lon="2.64317">
        <ele>144</ele>
        <time>2017-05-17T12:46:00.291</time>
      </trkpt>
      <trkpt lat="48.49851" lon="2.64326">
        <ele>145</ele>
        <time>2017-05-17T12:46:01.292</time>
      </trkpt>
      <trkpt lat="48.49854" lon="2.64334">
        <ele>146</ele>
        <time>2017-05-17T12:46:02.303</time>
      </trkpt>
      <trkpt lat="48.49858" lon="2.64341">
        <ele>146</ele>
        <time>2017-05-17T12:46:03.298</time>
      </trkpt>
      <trkpt lat="48.49861" lon="2.64349">
        <ele>146</ele>
        <time>2017-05-17T12:46:04.304</time>
      </trkpt>
      <trkpt lat="48.49862" lon="2.64358">
        <ele>146</ele>
        <time>2017-05-17T12:46:05.298</time>
      </trkpt>
      <trkpt lat="48.49864" lon="2.64366">
        <ele>146</ele>
        <time>2017-05-17T12:46:06.308</time>
      </trkpt>
      <trkpt lat="48.49866" lon="2.64375">
        <ele>146</ele>
        <time>2017-05-17T12:46:07.303</time>
      </trkpt>
      <trkpt lat="48.49866" lon="2.64385">
        <ele>147</ele>
        <time>2017-05-17T12:46:08.303</time>
      </trkpt>
      <trkpt lat="48.49867" lon="2.64394">
        <ele>147</ele>
        <time>2017-05-17T12:46:09.294</time>
      </trkpt>
      <trkpt lat="48.49868" lon="2.64403">
        <ele>146</ele>
        <time>2017-05-17T12:46:10.291</time>
      </trkpt>
      <trkpt lat="48.49869" lon="2.64412">
        <ele>146</ele>
        <time>2017-05-17T12:46:11.292</time>
      </trkpt>
      <trkpt lat="48.49872" lon="2.64419">
        <ele>147</ele>
        <time>2017-05-17T12:46:12.293</time>
      </trkpt>
      <trkpt lat="48.49874" lon="2.64426">
        <ele>148</ele>
        <time>2017-05-17T12:46:13.293</time>
      </trkpt>
      <trkpt lat="48.49876" lon="2.64433">
        <ele>148</ele>
        <time>2017-05-17T12:46:14.294</time>
      </trkpt>
      <trkpt lat="48.49878" lon="2.64442">
        <ele>148</ele>
        <time>2017-05-17T12:46:15.293</time>
      </trkpt>
      <trkpt lat="48.4988" lon="2.64449">
        <ele>148</ele>
        <time>2017-05-17T12:46:16.292</time>
      </trkpt>
      <trkpt lat="48.49882" lon="2.64457">
        <ele>148</ele>
        <time>2017-05-17T12:46:17.292</time>
      </trkpt>
      <trkpt lat="48.49883" lon="2.64466">
        <ele>147</ele>
        <time>2017-05-17T12:46:18.292</time>
      </trkpt>
      <trkpt lat="48.49884" lon="2.64473">
        <ele>147</ele>
        <time>2017-05-17T12:46:19.293</time>
      </trkpt>
      <trkpt lat="48.49886" lon="2.64481">
        <ele>147</ele>
        <time>2017-05-17T12:46:20.292</time>
      </trkpt>
      <trkpt lat="48.49888" lon="2.64489">
        <ele>147</ele>
        <time>2017-05-17T12:46:21.293</time>
      </trkpt>
      <trkpt lat="48.4989" lon="2.64497">
        <ele>148</ele>
        <time>2017-05-17T12:46:22.293</time>
      </trkpt>
      <trkpt lat="48.49893" lon="2.64502">
        <ele>149</ele>
        <time>2017-05-17T12:46:23.293</time>
      </trkpt>
      <trkpt lat="48.49894" lon="2.6451">
        <ele>150</ele>
        <time>2017-05-17T12:46:24.293</time>
      </trkpt>
      <trkpt lat="48.49895" lon="2.64518">
        <ele>150</ele>
        <time>2017-05-17T12:46:25.294</time>
      </trkpt>
      <trkpt lat="48.49896" lon="2.64526">
        <ele>150</ele>
        <time>2017-05-17T12:46:26.293</time>
      </trkpt>
      <trkpt lat="48.49897" lon="2.64532">
        <ele>149</ele>
        <time>2017-05-17T12:46:27.293</time>
      </trkpt>
      <trkpt lat="48.49898" lon="2.64539">
        <ele>150</ele>
        <time>2017-05-17T12:46:28.292</time>
      </trkpt>
      <trkpt lat="48.499" lon="2.64544">
        <ele>151</ele>
        <time>2017-05-17T12:46:29.292</time>
      </trkpt>
      <trkpt lat="48.49902" lon="2.64551">
        <ele>151</ele>
        <time>2017-05-17T12:46:30.293</time>
      </trkpt>
      <trkpt lat="48.49904" lon="2.64558">
        <ele>151</ele>
        <time>2017-05-17T12:46:31.293</time>
      </trkpt>
      <trkpt lat="48.49905" lon="2.64565">
        <ele>149</ele>
        <time>2017-05-17T12:46:32.293</time>
      </trkpt>
      <trkpt lat="48.49907" lon="2.64571">
        <ele>149</ele>
        <time>2017-05-17T12:46:33.292</time>
      </trkpt>
      <trkpt lat="48.49911" lon="2.64576">
        <ele>149</ele>
        <time>2017-05-17T12:46:34.294</time>
      </trkpt>
      <trkpt lat="48.49916" lon="2.64579">
        <ele>150</ele>
        <time>2017-05-17T12:46:35.294</time>
      </trkpt>
      <trkpt lat="48.49921" lon="2.64581">
        <ele>151</ele>
        <time>2017-05-17T12:46:36.295</time>
      </trkpt>
      <trkpt lat="48.49925" lon="2.64579">
        <ele>151</ele>
        <time>2017-05-17T12:46:37.295</time>
      </trkpt>
      <trkpt lat="48.4993" lon="2.64579">
        <ele>151</ele>
        <time>2017-05-17T12:46:38.294</time>
      </trkpt>
      <trkpt lat="48.49934" lon="2.64578">
        <ele>151</ele>
        <time>2017-05-17T12:46:39.294</time>
      </trkpt>
      <trkpt lat="48.49939" lon="2.64577">
        <ele>151</ele>
        <time>2017-05-17T12:46:40.294</time>
      </trkpt>
      <trkpt lat="48.49943" lon="2.64579">
        <ele>151</ele>
        <time>2017-05-17T12:46:41.293</time>
      </trkpt>
      <trkpt lat="48.49949" lon="2.6458">
        <ele>153</ele>
        <time>2017-05-17T12:46:42.296</time>
      </trkpt>
      <trkpt lat="48.49954" lon="2.64576">
        <ele>154</ele>
        <time>2017-05-17T12:46:43.295</time>
      </trkpt>
      <trkpt lat="48.49961" lon="2.64575">
        <ele>155</ele>
        <time>2017-05-17T12:46:44.295</time>
      </trkpt>
      <trkpt lat="48.49971" lon="2.64573">
        <ele>156</ele>
        <time>2017-05-17T12:46:45.296</time>
      </trkpt>
      <trkpt lat="48.49975" lon="2.64576">
        <ele>155</ele>
        <time>2017-05-17T12:46:46.294</time>
      </trkpt>
      <trkpt lat="48.4998" lon="2.64577">
        <ele>155</ele>
        <time>2017-05-17T12:46:47.294</time>
      </trkpt>
      <trkpt lat="48.49985" lon="2.64579">
        <ele>155</ele>
        <time>2017-05-17T12:46:48.295</time>
      </trkpt>
      <trkpt lat="48.4999" lon="2.64579">
        <ele>153</ele>
        <time>2017-05-17T12:46:49.294</time>
      </trkpt>
      <trkpt lat="48.49996" lon="2.6458">
        <ele>152</ele>
        <time>2017-05-17T12:46:50.294</time>
      </trkpt>
      <trkpt lat="48.5" lon="2.64578">
        <ele>154</ele>
        <time>2017-05-17T12:46:51.294</time>
      </trkpt>
      <trkpt lat="48.50005" lon="2.64577">
        <ele>154</ele>
        <time>2017-05-17T12:46:52.295</time>
      </trkpt>
      <trkpt lat="48.50012" lon="2.64579">
        <ele>154</ele>
        <time>2017-05-17T12:46:53.296</time>
      </trkpt>
      <trkpt lat="48.50017" lon="2.64583">
        <ele>154</ele>
        <time>2017-05-17T12:46:54.296</time>
      </trkpt>
      <trkpt lat="48.50024" lon="2.64587">
        <ele>155</ele>
        <time>2017-05-17T12:46:55.295</time>
      </trkpt>
      <trkpt lat="48.5003" lon="2.64591">
        <ele>155</ele>
        <time>2017-05-17T12:46:56.294</time>
      </trkpt>
      <trkpt lat="48.50035" lon="2.64595">
        <ele>154</ele>
        <time>2017-05-17T12:46:57.294</time>
      </trkpt>
      <trkpt lat="48.50042" lon="2.646">
        <ele>155</ele>
        <time>2017-05-17T12:46:58.295</time>
      </trkpt>
      <trkpt lat="48.50047" lon="2.64604">
        <ele>154</ele>
        <time>2017-05-17T12:46:59.294</time>
      </trkpt>
      <trkpt lat="48.50053" lon="2.64607">
        <ele>153</ele>
        <time>2017-05-17T12:47:00.293</time>
      </trkpt>
      <trkpt lat="48.50059" lon="2.64609">
        <ele>152</ele>
        <time>2017-05-17T12:47:01.294</time>
      </trkpt>
      <trkpt lat="48.50066" lon="2.64611">
        <ele>153</ele>
        <time>2017-05-17T12:47:02.296</time>
      </trkpt>
      <trkpt lat="48.50072" lon="2.64613">
        <ele>154</ele>
        <time>2017-05-17T12:47:03.296</time>
      </trkpt>
      <trkpt lat="48.50079" lon="2.64614">
        <ele>154</ele>
        <time>2017-05-17T12:47:04.295</time>
      </trkpt>
      <trkpt lat="48.50085" lon="2.6462">
        <ele>154</ele>
        <time>2017-05-17T12:47:05.294</time>
      </trkpt>
      <trkpt lat="48.5009" lon="2.64624">
        <ele>153</ele>
        <time>2017-05-17T12:47:06.295</time>
      </trkpt>
      <trkpt lat="48.50096" lon="2.64629">
        <ele>154</ele>
        <time>2017-05-17T12:47:07.294</time>
      </trkpt>
      <trkpt lat="48.50101" lon="2.64633">
        <ele>155</ele>
        <time>2017-05-17T12:47:08.294</time>
      </trkpt>
      <trkpt lat="48.50107" lon="2.64635">
        <ele>154</ele>
        <time>2017-05-17T12:47:09.293</time>
      </trkpt>
      <trkpt lat="48.50112" lon="2.6464">
        <ele>154</ele>
        <time>2017-05-17T12:47:10.293</time>
      </trkpt>
      <trkpt lat="48.50118" lon="2.64642">
        <ele>154</ele>
        <time>2017-05-17T12:47:11.293</time>
      </trkpt>
      <trkpt lat="48.50123" lon="2.64645">
        <ele>154</ele>
        <time>2017-05-17T12:47:12.293</time>
      </trkpt>
      <trkpt lat="48.50129" lon="2.64648">
        <ele>153</ele>
        <time>2017-05-17T12:47:13.295</time>
      </trkpt>
      <trkpt lat="48.50135" lon="2.64652">
        <ele>153</ele>
        <time>2017-05-17T12:47:14.294</time>
      </trkpt>
      <trkpt lat="48.50139" lon="2.64656">
        <ele>152</ele>
        <time>2017-05-17T12:47:15.293</time>
      </trkpt>
      <trkpt lat="48.50146" lon="2.64659">
        <ele>152</ele>
        <time>2017-05-17T12:47:16.293</time>
      </trkpt>
      <trkpt lat="48.5015" lon="2.64662">
        <ele>152</ele>
        <time>2017-05-17T12:47:17.295</time>
      </trkpt>
      <trkpt lat="48.50156" lon="2.64665">
        <ele>152</ele>
        <time>2017-05-17T12:47:18.294</time>
      </trkpt>
      <trkpt lat="48.50162" lon="2.64668">
        <ele>153</ele>
        <time>2017-05-17T12:47:19.294</time>
      </trkpt>
      <trkpt lat="48.50167" lon="2.64671">
        <ele>153</ele>
        <time>2017-05-17T12:47:20.294</time>
      </trkpt>
      <trkpt lat="48.50171" lon="2.64673">
        <ele>152</ele>
        <time>2017-05-17T12:47:21.293</time>
      </trkpt>
      <trkpt lat="48.50176" lon="2.64677">
        <ele>153</ele>
        <time>2017-05-17T12:47:22.292</time>
      </trkpt>
      <trkpt lat="48.50182" lon="2.6468">
        <ele>153</ele>
        <time>2017-05-17T12:47:23.294</time>
      </trkpt>
      <trkpt lat="48.50189" lon="2.64684">
        <ele>153</ele>
        <time>2017-05-17T12:47:24.295</time>
      </trkpt>
      <trkpt lat="48.50194" lon="2.64686">
        <ele>152</ele>
        <time>2017-05-17T12:47:25.294</time>
      </trkpt>
      <trkpt lat="48.502" lon="2.6469">
        <ele>153</ele>
        <time>2017-05-17T12:47:26.293</time>
      </trkpt>
      <trkpt lat="48.50206" lon="2.64693">
        <ele>153</ele>
        <time>2017-05-17T12:47:27.294</time>
      </trkpt>
      <trkpt lat="48.50213" lon="2.64697">
        <ele>153</ele>
        <time>2017-05-17T12:47:28.293</time>
      </trkpt>
      <trkpt lat="48.5022" lon="2.64699">
        <ele>153</ele>
        <time>2017-05-17T12:47:29.293</time>
      </trkpt>
      <trkpt lat="48.50227" lon="2.64703">
        <ele>152</ele>
        <time>2017-05-17T12:47:30.293</time>
      </trkpt>
      <trkpt lat="48.50233" lon="2.64709">
        <ele>152</ele>
        <time>2017-05-17T12:47:31.295</time>
      </trkpt>
      <trkpt lat="48.5024" lon="2.64711">
        <ele>153</ele>
        <time>2017-05-17T12:47:32.296</time>
      </trkpt>
      <trkpt lat="48.50246" lon="2.64715">
        <ele>152</ele>
        <time>2017-05-17T12:47:33.295</time>
      </trkpt>
      <trkpt lat="48.50255" lon="2.64718">
        <ele>153</ele>
        <time>2017-05-17T12:47:34.295</time>
      </trkpt>
      <trkpt lat="48.5026" lon="2.64722">
        <ele>153</ele>
        <time>2017-05-17T12:47:35.294</time>
      </trkpt>
      <trkpt lat="48.50267" lon="2.64728">
        <ele>153</ele>
        <time>2017-05-17T12:47:36.295</time>
      </trkpt>
      <trkpt lat="48.50278" lon="2.64729">
        <ele>153</ele>
        <time>2017-05-17T12:47:37.295</time>
      </trkpt>
      <trkpt lat="48.50286" lon="2.64734">
        <ele>152</ele>
        <time>2017-05-17T12:47:38.295</time>
      </trkpt>
      <trkpt lat="48.50292" lon="2.64742">
        <ele>151</ele>
        <time>2017-05-17T12:47:39.293</time>
      </trkpt>
      <trkpt lat="48.503" lon="2.64745">
        <ele>151</ele>
        <time>2017-05-17T12:47:40.293</time>
      </trkpt>
      <trkpt lat="48.50307" lon="2.6475">
        <ele>151</ele>
        <time>2017-05-17T12:47:41.294</time>
      </trkpt>
      <trkpt lat="48.50314" lon="2.64756">
        <ele>151</ele>
        <time>2017-05-17T12:47:42.293</time>
      </trkpt>
      <trkpt lat="48.50322" lon="2.64761">
        <ele>151</ele>
        <time>2017-05-17T12:47:43.293</time>
      </trkpt>
      <trkpt lat="48.5033" lon="2.64765">
        <ele>151</ele>
        <time>2017-05-17T12:47:44.294</time>
      </trkpt>
      <trkpt lat="48.50339" lon="2.64769">
        <ele>151</ele>
        <time>2017-05-17T12:47:45.294</time>
      </trkpt>
      <trkpt lat="48.50348" lon="2.64772">
        <ele>151</ele>
        <time>2017-05-17T12:47:46.294</time>
      </trkpt>
      <trkpt lat="48.50358" lon="2.64776">
        <ele>153</ele>
        <time>2017-05-17T12:47:47.293</time>
      </trkpt>
      <trkpt lat="48.50366" lon="2.6478">
        <ele>153</ele>
        <time>2017-05-17T12:47:48.293</time>
      </trkpt>
      <trkpt lat="48.50373" lon="2.64785">
        <ele>153</ele>
        <time>2017-05-17T12:47:49.294</time>
      </trkpt>
      <trkpt lat="48.5038" lon="2.64789">
        <ele>152</ele>
        <time>2017-05-17T12:47:50.294</time>
      </trkpt>
      <trkpt lat="48.50388" lon="2.64793">
        <ele>151</ele>
        <time>2017-05-17T12:47:51.295</time>
      </trkpt>
      <trkpt lat="48.50394" lon="2.64798">
        <ele>150</ele>
        <time>2017-05-17T12:47:52.295</time>
      </trkpt>
      <trkpt lat="48.50402" lon="2.64801">
        <ele>150</ele>
        <time>2017-05-17T12:47:53.295</time>
      </trkpt>
      <trkpt lat="48.5041" lon="2.64805">
        <ele>150</ele>
        <time>2017-05-17T12:47:54.294</time>
      </trkpt>
      <trkpt lat="48.50418" lon="2.64809">
        <ele>150</ele>
        <time>2017-05-17T12:47:55.293</time>
      </trkpt>
      <trkpt lat="48.50426" lon="2.64813">
        <ele>150</ele>
        <time>2017-05-17T12:47:56.293</time>
      </trkpt>
      <trkpt lat="48.50437" lon="2.64817">
        <ele>150</ele>
        <time>2017-05-17T12:47:57.294</time>
      </trkpt>
      <trkpt lat="48.50444" lon="2.64826">
        <ele>149</ele>
        <time>2017-05-17T12:47:58.294</time>
      </trkpt>
      <trkpt lat="48.5045" lon="2.6483">
        <ele>148</ele>
        <time>2017-05-17T12:47:59.295</time>
      </trkpt>
      <trkpt lat="48.50458" lon="2.64835">
        <ele>146</ele>
        <time>2017-05-17T12:48:00.294</time>
      </trkpt>
      <trkpt lat="48.50465" lon="2.64837">
        <ele>146</ele>
        <time>2017-05-17T12:48:01.295</time>
      </trkpt>
      <trkpt lat="48.50473" lon="2.64841">
        <ele>147</ele>
        <time>2017-05-17T12:48:02.294</time>
      </trkpt>
      <trkpt lat="48.50481" lon="2.64844">
        <ele>148</ele>
        <time>2017-05-17T12:48:03.291</time>
      </trkpt>
      <trkpt lat="48.50488" lon="2.64848">
        <ele>148</ele>
        <time>2017-05-17T12:48:04.293</time>
      </trkpt>
      <trkpt lat="48.50495" lon="2.64854">
        <ele>147</ele>
        <time>2017-05-17T12:48:05.293</time>
      </trkpt>
      <trkpt lat="48.50501" lon="2.64859">
        <ele>147</ele>
        <time>2017-05-17T12:48:06.293</time>
      </trkpt>
      <trkpt lat="48.50509" lon="2.64862">
        <ele>147</ele>
        <time>2017-05-17T12:48:07.293</time>
      </trkpt>
      <trkpt lat="48.50517" lon="2.64867">
        <ele>147</ele>
        <time>2017-05-17T12:48:08.294</time>
      </trkpt>
      <trkpt lat="48.50524" lon="2.6487">
        <ele>146</ele>
        <time>2017-05-17T12:48:09.296</time>
      </trkpt>
      <trkpt lat="48.5053" lon="2.64876">
        <ele>145</ele>
        <time>2017-05-17T12:48:10.294</time>
      </trkpt>
      <trkpt lat="48.50537" lon="2.64882">
        <ele>144</ele>
        <time>2017-05-17T12:48:11.294</time>
      </trkpt>
      <trkpt lat="48.50546" lon="2.64885">
        <ele>144</ele>
        <time>2017-05-17T12:48:12.295</time>
      </trkpt>
      <trkpt lat="48.50554" lon="2.64889">
        <ele>143</ele>
        <time>2017-05-17T12:48:13.294</time>
      </trkpt>
      <trkpt lat="48.50561" lon="2.64892">
        <ele>144</ele>
        <time>2017-05-17T12:48:14.295</time>
      </trkpt>
      <trkpt lat="48.50568" lon="2.64897">
        <ele>144</ele>
        <time>2017-05-17T12:48:15.295</time>
      </trkpt>
      <trkpt lat="48.50575" lon="2.64902">
        <ele>144</ele>
        <time>2017-05-17T12:48:16.294</time>
      </trkpt>
      <trkpt lat="48.50581" lon="2.64907">
        <ele>144</ele>
        <time>2017-05-17T12:48:17.294</time>
      </trkpt>
      <trkpt lat="48.50588" lon="2.64911">
        <ele>145</ele>
        <time>2017-05-17T12:48:18.295</time>
      </trkpt>
      <trkpt lat="48.50595" lon="2.64915">
        <ele>145</ele>
        <time>2017-05-17T12:48:19.295</time>
      </trkpt>
      <trkpt lat="48.50601" lon="2.64921">
        <ele>145</ele>
        <time>2017-05-17T12:48:20.294</time>
      </trkpt>
      <trkpt lat="48.50606" lon="2.64925">
        <ele>144</ele>
        <time>2017-05-17T12:48:21.293</time>
      </trkpt>
      <trkpt lat="48.50613" lon="2.64927">
        <ele>144</ele>
        <time>2017-05-17T12:48:22.293</time>
      </trkpt>
      <trkpt lat="48.50619" lon="2.6493">
        <ele>144</ele>
        <time>2017-05-17T12:48:23.294</time>
      </trkpt>
      <trkpt lat="48.50624" lon="2.64932">
        <ele>143</ele>
        <time>2017-05-17T12:48:24.293</time>
      </trkpt>
      <trkpt lat="48.5063" lon="2.64933">
        <ele>143</ele>
        <time>2017-05-17T12:48:25.293</time>
      </trkpt>
      <trkpt lat="48.50637" lon="2.64933">
        <ele>144</ele>
        <time>2017-05-17T12:48:26.294</time>
      </trkpt>
      <trkpt lat="48.50645" lon="2.64934">
        <ele>144</ele>
        <time>2017-05-17T12:48:27.292</time>
      </trkpt>
      <trkpt lat="48.50653" lon="2.64935">
        <ele>145</ele>
        <time>2017-05-17T12:48:28.293</time>
      </trkpt>
      <trkpt lat="48.50661" lon="2.64935">
        <ele>146</ele>
        <time>2017-05-17T12:48:29.293</time>
      </trkpt>
      <trkpt lat="48.50668" lon="2.64937">
        <ele>147</ele>
        <time>2017-05-17T12:48:30.294</time>
      </trkpt>
      <trkpt lat="48.50675" lon="2.64939">
        <ele>146</ele>
        <time>2017-05-17T12:48:31.294</time>
      </trkpt>
      <trkpt lat="48.50684" lon="2.64942">
        <ele>147</ele>
        <time>2017-05-17T12:48:32.294</time>
      </trkpt>
      <trkpt lat="48.50688" lon="2.64944">
        <ele>148</ele>
        <time>2017-05-17T12:48:33.293</time>
      </trkpt>
      <trkpt lat="48.50697" lon="2.64944">
        <ele>150</ele>
        <time>2017-05-17T12:48:34.294</time>
      </trkpt>
      <trkpt lat="48.50704" lon="2.64946">
        <ele>149</ele>
        <time>2017-05-17T12:48:35.293</time>
      </trkpt>
      <trkpt lat="48.50714" lon="2.64943">
        <ele>150</ele>
        <time>2017-05-17T12:48:36.294</time>
      </trkpt>
      <trkpt lat="48.50721" lon="2.64943">
        <ele>150</ele>
        <time>2017-05-17T12:48:37.294</time>
      </trkpt>
      <trkpt lat="48.50726" lon="2.64944">
        <ele>148</ele>
        <time>2017-05-17T12:48:38.294</time>
      </trkpt>
      <trkpt lat="48.50734" lon="2.64945">
        <ele>149</ele>
        <time>2017-05-17T12:48:39.295</time>
      </trkpt>
      <trkpt lat="48.50742" lon="2.64944">
        <ele>148</ele>
        <time>2017-05-17T12:48:40.294</time>
      </trkpt>
      <trkpt lat="48.50749" lon="2.64945">
        <ele>148</ele>
        <time>2017-05-17T12:48:41.296</time>
      </trkpt>
      <trkpt lat="48.50758" lon="2.64946">
        <ele>149</ele>
        <time>2017-05-17T12:48:42.294</time>
      </trkpt>
      <trkpt lat="48.50764" lon="2.64946">
        <ele>149</ele>
        <time>2017-05-17T12:48:43.294</time>
      </trkpt>
      <trkpt lat="48.50771" lon="2.64947">
        <ele>150</ele>
        <time>2017-05-17T12:48:44.292</time>
      </trkpt>
      <trkpt lat="48.50776" lon="2.64947">
        <ele>150</ele>
        <time>2017-05-17T12:48:45.293</time>
      </trkpt>
      <trkpt lat="48.50784" lon="2.64947">
        <ele>150</ele>
        <time>2017-05-17T12:48:46.294</time>
      </trkpt>
      <trkpt lat="48.50792" lon="2.64948">
        <ele>151</ele>
        <time>2017-05-17T12:48:47.294</time>
      </trkpt>
      <trkpt lat="48.50799" lon="2.64951">
        <ele>150</ele>
        <time>2017-05-17T12:48:48.293</time>
      </trkpt>
      <trkpt lat="48.50804" lon="2.64953">
        <ele>151</ele>
        <time>2017-05-17T12:48:49.293</time>
      </trkpt>
      <trkpt lat="48.50813" lon="2.64953">
        <ele>151</ele>
        <time>2017-05-17T12:48:50.293</time>
      </trkpt>
      <trkpt lat="48.50822" lon="2.64953">
        <ele>148</ele>
        <time>2017-05-17T12:48:51.292</time>
      </trkpt>
      <trkpt lat="48.50827" lon="2.64955">
        <ele>147</ele>
        <time>2017-05-17T12:48:52.294</time>
      </trkpt>
      <trkpt lat="48.50835" lon="2.64953">
        <ele>149</ele>
        <time>2017-05-17T12:48:53.292</time>
      </trkpt>
      <trkpt lat="48.50843" lon="2.64954">
        <ele>149</ele>
        <time>2017-05-17T12:48:54.293</time>
      </trkpt>
      <trkpt lat="48.50852" lon="2.64954">
        <ele>149</ele>
        <time>2017-05-17T12:48:55.293</time>
      </trkpt>
      <trkpt lat="48.5086" lon="2.64955">
        <ele>150</ele>
        <time>2017-05-17T12:48:56.293</time>
      </trkpt>
      <trkpt lat="48.5087" lon="2.64955">
        <ele>150</ele>
        <time>2017-05-17T12:48:57.292</time>
      </trkpt>
      <trkpt lat="48.50876" lon="2.64958">
        <ele>149</ele>
        <time>2017-05-17T12:48:58.293</time>
      </trkpt>
      <trkpt lat="48.50884" lon="2.64959">
        <ele>148</ele>
        <time>2017-05-17T12:48:59.293</time>
      </trkpt>
      <trkpt lat="48.50891" lon="2.64959">
        <ele>147</ele>
        <time>2017-05-17T12:49:00.292</time>
      </trkpt>
      <trkpt lat="48.50898" lon="2.64959">
        <ele>147</ele>
        <time>2017-05-17T12:49:01.293</time>
      </trkpt>
      <trkpt lat="48.50904" lon="2.64962">
        <ele>146</ele>
        <time>2017-05-17T12:49:02.292</time>
      </trkpt>
      <trkpt lat="48.5091" lon="2.64964">
        <ele>146</ele>
        <time>2017-05-17T12:49:03.293</time>
      </trkpt>
      <trkpt lat="48.50919" lon="2.64967">
        <ele>145</ele>
        <time>2017-05-17T12:49:04.293</time>
      </trkpt>
      <trkpt lat="48.50928" lon="2.64968">
        <ele>143</ele>
        <time>2017-05-17T12:49:05.294</time>
      </trkpt>
      <trkpt lat="48.5094" lon="2.64968">
        <ele>142</ele>
        <time>2017-05-17T12:49:06.293</time>
      </trkpt>
      <trkpt lat="48.5095" lon="2.64969">
        <ele>142</ele>
        <time>2017-05-17T12:49:07.293</time>
      </trkpt>
      <trkpt lat="48.50959" lon="2.64972">
        <ele>141</ele>
        <time>2017-05-17T12:49:08.294</time>
      </trkpt>
      <trkpt lat="48.50969" lon="2.64972">
        <ele>141</ele>
        <time>2017-05-17T12:49:09.294</time>
      </trkpt>
      <trkpt lat="48.50978" lon="2.64973">
        <ele>142</ele>
        <time>2017-05-17T12:49:10.293</time>
      </trkpt>
      <trkpt lat="48.50989" lon="2.64975">
        <ele>143</ele>
        <time>2017-05-17T12:49:11.294</time>
      </trkpt>
      <trkpt lat="48.50997" lon="2.64977">
        <ele>142</ele>
        <time>2017-05-17T12:49:12.293</time>
      </trkpt>
      <trkpt lat="48.51007" lon="2.64978">
        <ele>142</ele>
        <time>2017-05-17T12:49:13.302</time>
      </trkpt>
      <trkpt lat="48.51015" lon="2.64979">
        <ele>142</ele>
        <time>2017-05-17T12:49:14.295</time>
      </trkpt>
      <trkpt lat="48.51025" lon="2.64979">
        <ele>143</ele>
        <time>2017-05-17T12:49:15.294</time>
      </trkpt>
      <trkpt lat="48.51033" lon="2.64981">
        <ele>143</ele>
        <time>2017-05-17T12:49:16.294</time>
      </trkpt>
      <trkpt lat="48.51042" lon="2.64982">
        <ele>142</ele>
        <time>2017-05-17T12:49:17.304</time>
      </trkpt>
      <trkpt lat="48.51051" lon="2.64985">
        <ele>142</ele>
        <time>2017-05-17T12:49:18.313</time>
      </trkpt>
      <trkpt lat="48.5106" lon="2.64985">
        <ele>142</ele>
        <time>2017-05-17T12:49:19.309</time>
      </trkpt>
      <trkpt lat="48.51069" lon="2.64987">
        <ele>142</ele>
        <time>2017-05-17T12:49:20.309</time>
      </trkpt>
      <trkpt lat="48.51079" lon="2.6499">
        <ele>143</ele>
        <time>2017-05-17T12:49:21.296</time>
      </trkpt>
      <trkpt lat="48.51087" lon="2.6499">
        <ele>143</ele>
        <time>2017-05-17T12:49:22.294</time>
      </trkpt>
      <trkpt lat="48.51095" lon="2.64991">
        <ele>143</ele>
        <time>2017-05-17T12:49:23.293</time>
      </trkpt>
      <trkpt lat="48.51103" lon="2.64993">
        <ele>143</ele>
        <time>2017-05-17T12:49:24.293</time>
      </trkpt>
      <trkpt lat="48.51112" lon="2.64993">
        <ele>143</ele>
        <time>2017-05-17T12:49:25.293</time>
      </trkpt>
      <trkpt lat="48.5112" lon="2.64994">
        <ele>143</ele>
        <time>2017-05-17T12:49:26.291</time>
      </trkpt>
      <trkpt lat="48.51129" lon="2.64995">
        <ele>143</ele>
        <time>2017-05-17T12:49:27.293</time>
      </trkpt>
      <trkpt lat="48.51137" lon="2.64996">
        <ele>143</ele>
        <time>2017-05-17T12:49:28.294</time>
      </trkpt>
      <trkpt lat="48.51145" lon="2.64997">
        <ele>143</ele>
        <time>2017-05-17T12:49:29.294</time>
      </trkpt>
      <trkpt lat="48.51154" lon="2.64999">
        <ele>142</ele>
        <time>2017-05-17T12:49:30.293</time>
      </trkpt>
      <trkpt lat="48.51163" lon="2.65">
        <ele>143</ele>
        <time>2017-05-17T12:49:31.294</time>
      </trkpt>
      <trkpt lat="48.51174" lon="2.65002">
        <ele>143</ele>
        <time>2017-05-17T12:49:32.296</time>
      </trkpt>
      <trkpt lat="48.51183" lon="2.65002">
        <ele>144</ele>
        <time>2017-05-17T12:49:33.295</time>
      </trkpt>
      <trkpt lat="48.51189" lon="2.65004">
        <ele>143</ele>
        <time>2017-05-17T12:49:34.294</time>
      </trkpt>
      <trkpt lat="48.51196" lon="2.65005">
        <ele>143</ele>
        <time>2017-05-17T12:49:35.295</time>
      </trkpt>
      <trkpt lat="48.51204" lon="2.65006">
        <ele>143</ele>
        <time>2017-05-17T12:49:36.295</time>
      </trkpt>
      <trkpt lat="48.51212" lon="2.65006">
        <ele>142</ele>
        <time>2017-05-17T12:49:37.293</time>
      </trkpt>
      <trkpt lat="48.5122" lon="2.65009">
        <ele>142</ele>
        <time>2017-05-17T12:49:38.295</time>
      </trkpt>
      <trkpt lat="48.51226" lon="2.65011">
        <ele>142</ele>
        <time>2017-05-17T12:49:39.296</time>
      </trkpt>
      <trkpt lat="48.51235" lon="2.65013">
        <ele>141</ele>
        <time>2017-05-17T12:49:40.294</time>
      </trkpt>
      <trkpt lat="48.51243" lon="2.65015">
        <ele>142</ele>
        <time>2017-05-17T12:49:41.293</time>
      </trkpt>
      <trkpt lat="48.51251" lon="2.65016">
        <ele>141</ele>
        <time>2017-05-17T12:49:42.293</time>
      </trkpt>
      <trkpt lat="48.51259" lon="2.6502">
        <ele>140</ele>
        <time>2017-05-17T12:49:43.295</time>
      </trkpt>
      <trkpt lat="48.51268" lon="2.65019">
        <ele>140</ele>
        <time>2017-05-17T12:49:44.293</time>
      </trkpt>
      <trkpt lat="48.51276" lon="2.6502">
        <ele>139</ele>
        <time>2017-05-17T12:49:45.292</time>
      </trkpt>
      <trkpt lat="48.51284" lon="2.65021">
        <ele>139</ele>
        <time>2017-05-17T12:49:46.293</time>
      </trkpt>
      <trkpt lat="48.51292" lon="2.65022">
        <ele>139</ele>
        <time>2017-05-17T12:49:47.293</time>
      </trkpt>
      <trkpt lat="48.513" lon="2.65023">
        <ele>138</ele>
        <time>2017-05-17T12:49:48.294</time>
      </trkpt>
      <trkpt lat="48.51309" lon="2.65025">
        <ele>137</ele>
        <time>2017-05-17T12:49:49.294</time>
      </trkpt>
      <trkpt lat="48.51315" lon="2.65027">
        <ele>138</ele>
        <time>2017-05-17T12:49:50.292</time>
      </trkpt>
      <trkpt lat="48.51322" lon="2.65027">
        <ele>138</ele>
        <time>2017-05-17T12:49:51.292</time>
      </trkpt>
      <trkpt lat="48.5133" lon="2.65028">
        <ele>138</ele>
        <time>2017-05-17T12:49:52.293</time>
      </trkpt>
      <trkpt lat="48.51337" lon="2.65029">
        <ele>138</ele>
        <time>2017-05-17T12:49:53.294</time>
      </trkpt>
      <trkpt lat="48.51346" lon="2.6503">
        <ele>138</ele>
        <time>2017-05-17T12:49:54.295</time>
      </trkpt>
      <trkpt lat="48.51352" lon="2.65032">
        <ele>138</ele>
        <time>2017-05-17T12:49:55.294</time>
      </trkpt>
      <trkpt lat="48.51359" lon="2.65033">
        <ele>138</ele>
        <time>2017-05-17T12:49:56.293</time>
      </trkpt>
      <trkpt lat="48.51366" lon="2.65034">
        <ele>138</ele>
        <time>2017-05-17T12:49:57.294</time>
      </trkpt>
      <trkpt lat="48.51373" lon="2.65035">
        <ele>139</ele>
        <time>2017-05-17T12:49:58.294</time>
      </trkpt>
      <trkpt lat="48.51382" lon="2.65033">
        <ele>138</ele>
        <time>2017-05-17T12:49:59.294</time>
      </trkpt>
      <trkpt lat="48.51392" lon="2.65036">
        <ele>138</ele>
        <time>2017-05-17T12:50:00.293</time>
      </trkpt>
      <trkpt lat="48.514" lon="2.65036">
        <ele>138</ele>
        <time>2017-05-17T12:50:01.292</time>
      </trkpt>
      <trkpt lat="48.51411" lon="2.65039">
        <ele>136</ele>
        <time>2017-05-17T12:50:02.295</time>
      </trkpt>
      <trkpt lat="48.51418" lon="2.6504">
        <ele>136</ele>
        <time>2017-05-17T12:50:03.294</time>
      </trkpt>
      <trkpt lat="48.51425" lon="2.65043">
        <ele>136</ele>
        <time>2017-05-17T12:50:04.295</time>
      </trkpt>
      <trkpt lat="48.51435" lon="2.65042">
        <ele>135</ele>
        <time>2017-05-17T12:50:05.294</time>
      </trkpt>
      <trkpt lat="48.51443" lon="2.65043">
        <ele>134</ele>
        <time>2017-05-17T12:50:06.293</time>
      </trkpt>
      <trkpt lat="48.51452" lon="2.65045">
        <ele>134</ele>
        <time>2017-05-17T12:50:07.294</time>
      </trkpt>
      <trkpt lat="48.51461" lon="2.65046">
        <ele>133</ele>
        <time>2017-05-17T12:50:08.295</time>
      </trkpt>
      <trkpt lat="48.51468" lon="2.65049">
        <ele>133</ele>
        <time>2017-05-17T12:50:09.294</time>
      </trkpt>
      <trkpt lat="48.51473" lon="2.6505">
        <ele>132</ele>
        <time>2017-05-17T12:50:10.295</time>
      </trkpt>
      <trkpt lat="48.51474" lon="2.65051">
        <ele>133</ele>
        <time>2017-05-17T12:50:11.294</time>
      </trkpt>
      <trkpt lat="48.51475" lon="2.65052">
        <ele>132</ele>
        <time>2017-05-17T12:50:12.293</time>
      </trkpt>
      <trkpt lat="48.51477" lon="2.65053">
        <ele>131</ele>
        <time>2017-05-17T12:50:13.295</time>
      </trkpt>
      <trkpt lat="48.51479" lon="2.65053">
        <ele>131</ele>
        <time>2017-05-17T12:50:14.294</time>
      </trkpt>
      <trkpt lat="48.51482" lon="2.65053">
        <ele>131</ele>
        <time>2017-05-17T12:50:15.296</time>
      </trkpt>
      <trkpt lat="48.51485" lon="2.65053">
        <ele>131</ele>
        <time>2017-05-17T12:50:16.294</time>
      </trkpt>
      <trkpt lat="48.5149" lon="2.65051">
        <ele>132</ele>
        <time>2017-05-17T12:50:17.294</time>
      </trkpt>
      <trkpt lat="48.51493" lon="2.65052">
        <ele>131</ele>
        <time>2017-05-17T12:50:18.296</time>
      </trkpt>
      <trkpt lat="48.51496" lon="2.65053">
        <ele>131</ele>
        <time>2017-05-17T12:50:19.296</time>
      </trkpt>
      <trkpt lat="48.51496" lon="2.65055">
        <ele>132</ele>
        <time>2017-05-17T12:50:20.295</time>
      </trkpt>
      <trkpt lat="48.51496" lon="2.65055">
        <ele>131</ele>
        <time>2017-05-17T12:50:21.292</time>
      </trkpt>
      <trkpt lat="48.51496" lon="2.65055">
        <ele>131</ele>
        <time>2017-05-17T12:50:22.294</time>
      </trkpt>
      <trkpt lat="48.51496" lon="2.65054">
        <ele>131</ele>
        <time>2017-05-17T12:50:23.296</time>
      </trkpt>
      <trkpt lat="48.51496" lon="2.65054">
        <ele>132</ele>
        <time>2017-05-17T12:50:24.295</time>
      </trkpt>
      <trkpt lat="48.51497" lon="2.65055">
        <ele>132</ele>
        <time>2017-05-17T12:50:25.295</time>
      </trkpt>
      <trkpt lat="48.51499" lon="2.65056">
        <ele>131</ele>
        <time>2017-05-17T12:50:26.294</time>
      </trkpt>
      <trkpt lat="48.51501" lon="2.65057">
        <ele>131</ele>
        <time>2017-05-17T12:50:27.294</time>
      </trkpt>
      <trkpt lat="48.51502" lon="2.6506">
        <ele>130</ele>
        <time>2017-05-17T12:50:28.297</time>
      </trkpt>
      <trkpt lat="48.51502" lon="2.65064">
        <ele>130</ele>
        <time>2017-05-17T12:50:29.297</time>
      </trkpt>
      <trkpt lat="48.51502" lon="2.65068">
        <ele>130</ele>
        <time>2017-05-17T12:50:30.297</time>
      </trkpt>
      <trkpt lat="48.51502" lon="2.65074">
        <ele>130</ele>
        <time>2017-05-17T12:50:31.297</time>
      </trkpt>
      <trkpt lat="48.51501" lon="2.65079">
        <ele>129</ele>
        <time>2017-05-17T12:50:32.296</time>
      </trkpt>
      <trkpt lat="48.51502" lon="2.65085">
        <ele>129</ele>
        <time>2017-05-17T12:50:33.296</time>
      </trkpt>
      <trkpt lat="48.51503" lon="2.65092">
        <ele>129</ele>
        <time>2017-05-17T12:50:34.295</time>
      </trkpt>
      <trkpt lat="48.51504" lon="2.65099">
        <ele>129</ele>
        <time>2017-05-17T12:50:35.295</time>
      </trkpt>
      <trkpt lat="48.51505" lon="2.65106">
        <ele>129</ele>
        <time>2017-05-17T12:50:36.295</time>
      </trkpt>
      <trkpt lat="48.51505" lon="2.65114">
        <ele>128</ele>
        <time>2017-05-17T12:50:37.294</time>
      </trkpt>
      <trkpt lat="48.51505" lon="2.65122">
        <ele>128</ele>
        <time>2017-05-17T12:50:38.294</time>
      </trkpt>
      <trkpt lat="48.51506" lon="2.6513">
        <ele>129</ele>
        <time>2017-05-17T12:50:39.293</time>
      </trkpt>
      <trkpt lat="48.51506" lon="2.65138">
        <ele>129</ele>
        <time>2017-05-17T12:50:40.295</time>
      </trkpt>
      <trkpt lat="48.51506" lon="2.65146">
        <ele>129</ele>
        <time>2017-05-17T12:50:41.296</time>
      </trkpt>
      <trkpt lat="48.51505" lon="2.65154">
        <ele>129</ele>
        <time>2017-05-17T12:50:42.295</time>
      </trkpt>
      <trkpt lat="48.51505" lon="2.65162">
        <ele>129</ele>
        <time>2017-05-17T12:50:43.296</time>
      </trkpt>
      <trkpt lat="48.51506" lon="2.65171">
        <ele>129</ele>
        <time>2017-05-17T12:50:44.295</time>
      </trkpt>
      <trkpt lat="48.51506" lon="2.6518">
        <ele>129</ele>
        <time>2017-05-17T12:50:45.294</time>
      </trkpt>
      <trkpt lat="48.51505" lon="2.65189">
        <ele>128</ele>
        <time>2017-05-17T12:50:46.294</time>
      </trkpt>
      <trkpt lat="48.51504" lon="2.65197">
        <ele>126</ele>
        <time>2017-05-17T12:50:47.294</time>
      </trkpt>
      <trkpt lat="48.51504" lon="2.65206">
        <ele>127</ele>
        <time>2017-05-17T12:50:48.295</time>
      </trkpt>
      <trkpt lat="48.51505" lon="2.65218">
        <ele>126</ele>
        <time>2017-05-17T12:50:49.295</time>
      </trkpt>
      <trkpt lat="48.51506" lon="2.65229">
        <ele>127</ele>
        <time>2017-05-17T12:50:50.293</time>
      </trkpt>
      <trkpt lat="48.51507" lon="2.65238">
        <ele>127</ele>
        <time>2017-05-17T12:50:51.295</time>
      </trkpt>
      <trkpt lat="48.51507" lon="2.65249">
        <ele>128</ele>
        <time>2017-05-17T12:50:52.293</time>
      </trkpt>
      <trkpt lat="48.51506" lon="2.65259">
        <ele>128</ele>
        <time>2017-05-17T12:50:53.295</time>
      </trkpt>
      <trkpt lat="48.51506" lon="2.65269">
        <ele>127</ele>
        <time>2017-05-17T12:50:54.296</time>
      </trkpt>
      <trkpt lat="48.51506" lon="2.6528">
        <ele>128</ele>
        <time>2017-05-17T12:50:55.294</time>
      </trkpt>
      <trkpt lat="48.51505" lon="2.6529">
        <ele>127</ele>
        <time>2017-05-17T12:50:56.295</time>
      </trkpt>
      <trkpt lat="48.51506" lon="2.653">
        <ele>127</ele>
        <time>2017-05-17T12:50:57.295</time>
      </trkpt>
      <trkpt lat="48.51507" lon="2.6531">
        <ele>126</ele>
        <time>2017-05-17T12:50:58.294</time>
      </trkpt>
      <trkpt lat="48.51506" lon="2.65319">
        <ele>126</ele>
        <time>2017-05-17T12:50:59.296</time>
      </trkpt>
      <trkpt lat="48.51507" lon="2.65329">
        <ele>126</ele>
        <time>2017-05-17T12:51:00.294</time>
      </trkpt>
      <trkpt lat="48.51507" lon="2.65339">
        <ele>125</ele>
        <time>2017-05-17T12:51:01.294</time>
      </trkpt>
      <trkpt lat="48.51508" lon="2.65349">
        <ele>125</ele>
        <time>2017-05-17T12:51:02.295</time>
      </trkpt>
      <trkpt lat="48.51509" lon="2.65359">
        <ele>125</ele>
        <time>2017-05-17T12:51:03.295</time>
      </trkpt>
      <trkpt lat="48.51509" lon="2.65369">
        <ele>124</ele>
        <time>2017-05-17T12:51:04.293</time>
      </trkpt>
      <trkpt lat="48.51509" lon="2.65379">
        <ele>124</ele>
        <time>2017-05-17T12:51:05.294</time>
      </trkpt>
      <trkpt lat="48.51509" lon="2.65388">
        <ele>124</ele>
        <time>2017-05-17T12:51:06.296</time>
      </trkpt>
      <trkpt lat="48.5151" lon="2.65397">
        <ele>124</ele>
        <time>2017-05-17T12:51:07.294</time>
      </trkpt>
      <trkpt lat="48.5151" lon="2.65407">
        <ele>124</ele>
        <time>2017-05-17T12:51:08.294</time>
      </trkpt>
      <trkpt lat="48.51509" lon="2.65416">
        <ele>123</ele>
        <time>2017-05-17T12:51:09.293</time>
      </trkpt>
      <trkpt lat="48.51509" lon="2.65425">
        <ele>123</ele>
        <time>2017-05-17T12:51:10.293</time>
      </trkpt>
      <trkpt lat="48.51509" lon="2.65434">
        <ele>124</ele>
        <time>2017-05-17T12:51:11.293</time>
      </trkpt>
      <trkpt lat="48.51508" lon="2.65442">
        <ele>123</ele>
        <time>2017-05-17T12:51:12.292</time>
      </trkpt>
      <trkpt lat="48.51509" lon="2.65451">
        <ele>123</ele>
        <time>2017-05-17T12:51:13.293</time>
      </trkpt>
      <trkpt lat="48.5151" lon="2.6546">
        <ele>123</ele>
        <time>2017-05-17T12:51:14.292</time>
      </trkpt>
      <trkpt lat="48.5151" lon="2.65469">
        <ele>123</ele>
        <time>2017-05-17T12:51:15.293</time>
      </trkpt>
      <trkpt lat="48.5151" lon="2.65477">
        <ele>123</ele>
        <time>2017-05-17T12:51:16.294</time>
      </trkpt>
      <trkpt lat="48.5151" lon="2.65485">
        <ele>123</ele>
        <time>2017-05-17T12:51:17.295</time>
      </trkpt>
      <trkpt lat="48.51511" lon="2.65494">
        <ele>124</ele>
        <time>2017-05-17T12:51:18.295</time>
      </trkpt>
      <trkpt lat="48.5151" lon="2.65503">
        <ele>124</ele>
        <time>2017-05-17T12:51:19.294</time>
      </trkpt>
      <trkpt lat="48.5151" lon="2.65511">
        <ele>124</ele>
        <time>2017-05-17T12:51:20.295</time>
      </trkpt>
      <trkpt lat="48.51508" lon="2.65519">
        <ele>124</ele>
        <time>2017-05-17T12:51:21.294</time>
      </trkpt>
      <trkpt lat="48.51508" lon="2.65526">
        <ele>124</ele>
        <time>2017-05-17T12:51:22.293</time>
      </trkpt>
      <trkpt lat="48.51508" lon="2.65534">
        <ele>123</ele>
        <time>2017-05-17T12:51:23.293</time>
      </trkpt>
      <trkpt lat="48.51508" lon="2.65542">
        <ele>124</ele>
        <time>2017-05-17T12:51:24.293</time>
      </trkpt>
      <trkpt lat="48.51509" lon="2.6555">
        <ele>125</ele>
        <time>2017-05-17T12:51:25.293</time>
      </trkpt>
      <trkpt lat="48.5151" lon="2.65559">
        <ele>126</ele>
        <time>2017-05-17T12:51:26.295</time>
      </trkpt>
      <trkpt lat="48.51511" lon="2.65566">
        <ele>126</ele>
        <time>2017-05-17T12:51:27.294</time>
      </trkpt>
      <trkpt lat="48.51512" lon="2.65572">
        <ele>125</ele>
        <time>2017-05-17T12:51:28.293</time>
      </trkpt>
      <trkpt lat="48.51514" lon="2.65576">
        <ele>126</ele>
        <time>2017-05-17T12:51:29.293</time>
      </trkpt>
      <trkpt lat="48.51516" lon="2.65578">
        <ele>126</ele>
        <time>2017-05-17T12:51:30.294</time>
      </trkpt>
      <trkpt lat="48.51521" lon="2.65579">
        <ele>127</ele>
        <time>2017-05-17T12:51:31.292</time>
      </trkpt>
      <trkpt lat="48.51523" lon="2.65581">
        <ele>127</ele>
        <time>2017-05-17T12:51:32.294</time>
      </trkpt>
      <trkpt lat="48.51522" lon="2.65582">
        <ele>126</ele>
        <time>2017-05-17T12:51:33.293</time>
      </trkpt>
      <trkpt lat="48.51523" lon="2.65582">
        <ele>126</ele>
        <time>2017-05-17T12:51:34.293</time>
      </trkpt>
      <trkpt lat="48.51523" lon="2.65582">
        <ele>127</ele>
        <time>2017-05-17T12:51:35.293</time>
      </trkpt>
      <trkpt lat="48.51522" lon="2.65582">
        <ele>127</ele>
        <time>2017-05-17T12:51:36.292</time>
      </trkpt>
      <trkpt lat="48.51523" lon="2.65582">
        <ele>127</ele>
        <time>2017-05-17T12:51:37.291</time>
      </trkpt>
      <trkpt lat="48.51523" lon="2.65582">
        <ele>127</ele>
        <time>2017-05-17T12:51:38.291</time>
      </trkpt>
      <trkpt lat="48.51523" lon="2.65582">
        <ele>128</ele>
        <time>2017-05-17T12:51:39.292</time>
      </trkpt>
      <trkpt lat="48.51523" lon="2.65582">
        <ele>129</ele>
        <time>2017-05-17T12:51:40.291</time>
      </trkpt>
      <trkpt lat="48.51523" lon="2.65582">
        <ele>129</ele>
        <time>2017-05-17T12:51:41.292</time>
      </trkpt>
      <trkpt lat="48.51524" lon="2.65584">
        <ele>129</ele>
        <time>2017-05-17T12:51:42.294</time>
      </trkpt>
      <trkpt lat="48.51524" lon="2.65586">
        <ele>130</ele>
        <time>2017-05-17T12:51:43.294</time>
      </trkpt>
      <trkpt lat="48.51524" lon="2.65589">
        <ele>129</ele>
        <time>2017-05-17T12:51:44.295</time>
      </trkpt>
      <trkpt lat="48.51525" lon="2.65593">
        <ele>128</ele>
        <time>2017-05-17T12:51:45.296</time>
      </trkpt>
      <trkpt lat="48.51525" lon="2.65598">
        <ele>128</ele>
        <time>2017-05-17T12:51:46.295</time>
      </trkpt>
      <trkpt lat="48.51526" lon="2.65603">
        <ele>128</ele>
        <time>2017-05-17T12:51:47.296</time>
      </trkpt>
      <trkpt lat="48.51526" lon="2.65609">
        <ele>127</ele>
        <time>2017-05-17T12:51:48.295</time>
      </trkpt>
      <trkpt lat="48.51527" lon="2.65615">
        <ele>126</ele>
        <time>2017-05-17T12:51:49.296</time>
      </trkpt>
      <trkpt lat="48.51528" lon="2.65621">
        <ele>126</ele>
        <time>2017-05-17T12:51:50.294</time>
      </trkpt>
      <trkpt lat="48.51531" lon="2.65626">
        <ele>125</ele>
        <time>2017-05-17T12:51:51.292</time>
      </trkpt>
      <trkpt lat="48.51535" lon="2.65633">
        <ele>125</ele>
        <time>2017-05-17T12:51:52.294</time>
      </trkpt>
      <trkpt lat="48.51537" lon="2.65636">
        <ele>125</ele>
        <time>2017-05-17T12:51:53.296</time>
      </trkpt>
      <trkpt lat="48.51544" lon="2.6563">
        <ele>123</ele>
        <time>2017-05-17T12:51:54.294</time>
      </trkpt>
      <trkpt lat="48.51548" lon="2.65629">
        <ele>121</ele>
        <time>2017-05-17T12:51:55.292</time>
      </trkpt>
      <trkpt lat="48.51552" lon="2.65629">
        <ele>121</ele>
        <time>2017-05-17T12:51:56.292</time>
      </trkpt>
      <trkpt lat="48.51555" lon="2.65625">
        <ele>121</ele>
        <time>2017-05-17T12:51:57.294</time>
      </trkpt>
      <trkpt lat="48.5156" lon="2.65624">
        <ele>121</ele>
        <time>2017-05-17T12:51:58.295</time>
      </trkpt>
      <trkpt lat="48.51566" lon="2.65618">
        <ele>120</ele>
        <time>2017-05-17T12:51:59.292</time>
      </trkpt>
      <trkpt lat="48.51571" lon="2.65617">
        <ele>121</ele>
        <time>2017-05-17T12:52:00.294</time>
      </trkpt>
      <trkpt lat="48.51575" lon="2.65616">
        <ele>121</ele>
        <time>2017-05-17T12:52:01.294</time>
      </trkpt>
      <trkpt lat="48.5158" lon="2.65617">
        <ele>120</ele>
        <time>2017-05-17T12:52:02.295</time>
      </trkpt>
      <trkpt lat="48.51588" lon="2.65613">
        <ele>120</ele>
        <time>2017-05-17T12:52:03.294</time>
      </trkpt>
      <trkpt lat="48.51593" lon="2.65611">
        <ele>120</ele>
        <time>2017-05-17T12:52:04.292</time>
      </trkpt>
      <trkpt lat="48.51601" lon="2.65609">
        <ele>119</ele>
        <time>2017-05-17T12:52:05.293</time>
      </trkpt>
      <trkpt lat="48.51609" lon="2.65605">
        <ele>119</ele>
        <time>2017-05-17T12:52:06.293</time>
      </trkpt>
      <trkpt lat="48.51617" lon="2.65604">
        <ele>119</ele>
        <time>2017-05-17T12:52:07.294</time>
      </trkpt>
      <trkpt lat="48.51623" lon="2.65608">
        <ele>119</ele>
        <time>2017-05-17T12:52:08.295</time>
      </trkpt>
      <trkpt lat="48.51629" lon="2.65615">
        <ele>118</ele>
        <time>2017-05-17T12:52:09.295</time>
      </trkpt>
      <trkpt lat="48.51633" lon="2.65622">
        <ele>117</ele>
        <time>2017-05-17T12:52:10.295</time>
      </trkpt>
      <trkpt lat="48.51638" lon="2.65629">
        <ele>118</ele>
        <time>2017-05-17T12:52:11.294</time>
      </trkpt>
      <trkpt lat="48.51643" lon="2.65635">
        <ele>118</ele>
        <time>2017-05-17T12:52:12.292</time>
      </trkpt>
      <trkpt lat="48.51648" lon="2.65642">
        <ele>117</ele>
        <time>2017-05-17T12:52:13.295</time>
      </trkpt>
      <trkpt lat="48.51653" lon="2.6565">
        <ele>119</ele>
        <time>2017-05-17T12:52:14.295</time>
      </trkpt>
      <trkpt lat="48.51659" lon="2.65657">
        <ele>121</ele>
        <time>2017-05-17T12:52:15.297</time>
      </trkpt>
      <trkpt lat="48.51664" lon="2.65661">
        <ele>121</ele>
        <time>2017-05-17T12:52:16.296</time>
      </trkpt>
      <trkpt lat="48.51668" lon="2.65665">
        <ele>121</ele>
        <time>2017-05-17T12:52:17.293</time>
      </trkpt>
      <trkpt lat="48.51673" lon="2.65673">
        <ele>121</ele>
        <time>2017-05-17T12:52:18.293</time>
      </trkpt>
      <trkpt lat="48.51675" lon="2.65681">
        <ele>121</ele>
        <time>2017-05-17T12:52:19.294</time>
      </trkpt>
      <trkpt lat="48.51676" lon="2.6569">
        <ele>121</ele>
        <time>2017-05-17T12:52:20.292</time>
      </trkpt>
      <trkpt lat="48.51677" lon="2.65697">
        <ele>120</ele>
        <time>2017-05-17T12:52:21.293</time>
      </trkpt>
      <trkpt lat="48.51679" lon="2.65703">
        <ele>121</ele>
        <time>2017-05-17T12:52:22.296</time>
      </trkpt>
      <trkpt lat="48.51684" lon="2.65704">
        <ele>121</ele>
        <time>2017-05-17T12:52:23.295</time>
      </trkpt>
      <trkpt lat="48.51687" lon="2.65704">
        <ele>121</ele>
        <time>2017-05-17T12:52:24.295</time>
      </trkpt>
      <trkpt lat="48.51692" lon="2.65704">
        <ele>122</ele>
        <time>2017-05-17T12:52:25.295</time>
      </trkpt>
      <trkpt lat="48.51696" lon="2.65703">
        <ele>122</ele>
        <time>2017-05-17T12:52:26.295</time>
      </trkpt>
      <trkpt lat="48.51699" lon="2.65702">
        <ele>122</ele>
        <time>2017-05-17T12:52:27.296</time>
      </trkpt>
      <trkpt lat="48.51703" lon="2.65702">
        <ele>122</ele>
        <time>2017-05-17T12:52:28.295</time>
      </trkpt>
      <trkpt lat="48.51705" lon="2.65701">
        <ele>122</ele>
        <time>2017-05-17T12:52:29.294</time>
      </trkpt>
      <trkpt lat="48.51709" lon="2.657">
        <ele>123</ele>
        <time>2017-05-17T12:52:30.293</time>
      </trkpt>
      <trkpt lat="48.51712" lon="2.65699">
        <ele>123</ele>
        <time>2017-05-17T12:52:31.294</time>
      </trkpt>
      <trkpt lat="48.51716" lon="2.65698">
        <ele>122</ele>
        <time>2017-05-17T12:52:32.294</time>
      </trkpt>
      <trkpt lat="48.51719" lon="2.65697">
        <ele>123</ele>
        <time>2017-05-17T12:52:33.296</time>
      </trkpt>
      <trkpt lat="48.51723" lon="2.657">
        <ele>123</ele>
        <time>2017-05-17T12:52:34.295</time>
      </trkpt>
      <trkpt lat="48.51727" lon="2.65701">
        <ele>122</ele>
        <time>2017-05-17T12:52:35.292</time>
      </trkpt>
      <trkpt lat="48.51731" lon="2.65701">
        <ele>123</ele>
        <time>2017-05-17T12:52:36.292</time>
      </trkpt>
      <trkpt lat="48.51734" lon="2.657">
        <ele>123</ele>
        <time>2017-05-17T12:52:37.292</time>
      </trkpt>
      <trkpt lat="48.51738" lon="2.65698">
        <ele>123</ele>
        <time>2017-05-17T12:52:38.293</time>
      </trkpt>
      <trkpt lat="48.51742" lon="2.65695">
        <ele>122</ele>
        <time>2017-05-17T12:52:39.293</time>
      </trkpt>
      <trkpt lat="48.51745" lon="2.6569">
        <ele>122</ele>
        <time>2017-05-17T12:52:40.293</time>
      </trkpt>
      <trkpt lat="48.51749" lon="2.65686">
        <ele>122</ele>
        <time>2017-05-17T12:52:41.293</time>
      </trkpt>
      <trkpt lat="48.51752" lon="2.65682">
        <ele>122</ele>
        <time>2017-05-17T12:52:42.294</time>
      </trkpt>
      <trkpt lat="48.51755" lon="2.65678">
        <ele>122</ele>
        <time>2017-05-17T12:52:43.292</time>
      </trkpt>
      <trkpt lat="48.51759" lon="2.65674">
        <ele>122</ele>
        <time>2017-05-17T12:52:44.293</time>
      </trkpt>
      <trkpt lat="48.51762" lon="2.6567">
        <ele>121</ele>
        <time>2017-05-17T12:52:45.293</time>
      </trkpt>
      <trkpt lat="48.51766" lon="2.65666">
        <ele>121</ele>
        <time>2017-05-17T12:52:46.293</time>
      </trkpt>
      <trkpt lat="48.51769" lon="2.6566">
        <ele>121</ele>
        <time>2017-05-17T12:52:47.294</time>
      </trkpt>
      <trkpt lat="48.51772" lon="2.65655">
        <ele>121</ele>
        <time>2017-05-17T12:52:48.294</time>
      </trkpt>
      <trkpt lat="48.51775" lon="2.65649">
        <ele>121</ele>
        <time>2017-05-17T12:52:49.293</time>
      </trkpt>
      <trkpt lat="48.5178" lon="2.65645">
        <ele>121</ele>
        <time>2017-05-17T12:52:50.295</time>
      </trkpt>
      <trkpt lat="48.51785" lon="2.65644">
        <ele>120</ele>
        <time>2017-05-17T12:52:51.295</time>
      </trkpt>
      <trkpt lat="48.5179" lon="2.65647">
        <ele>120</ele>
        <time>2017-05-17T12:52:52.295</time>
      </trkpt>
      <trkpt lat="48.51794" lon="2.6565">
        <ele>120</ele>
        <time>2017-05-17T12:52:53.294</time>
      </trkpt>
      <trkpt lat="48.51798" lon="2.65655">
        <ele>120</ele>
        <time>2017-05-17T12:52:54.295</time>
      </trkpt>
      <trkpt lat="48.51801" lon="2.65663">
        <ele>120</ele>
        <time>2017-05-17T12:52:55.294</time>
      </trkpt>
      <trkpt lat="48.51804" lon="2.65669">
        <ele>120</ele>
        <time>2017-05-17T12:52:56.295</time>
      </trkpt>
      <trkpt lat="48.51805" lon="2.65677">
        <ele>120</ele>
        <time>2017-05-17T12:52:57.296</time>
      </trkpt>
      <trkpt lat="48.51807" lon="2.65685">
        <ele>120</ele>
        <time>2017-05-17T12:52:58.298</time>
      </trkpt>
      <trkpt lat="48.51809" lon="2.65692">
        <ele>120</ele>
        <time>2017-05-17T12:52:59.294</time>
      </trkpt>
      <trkpt lat="48.51811" lon="2.657">
        <ele>121</ele>
        <time>2017-05-17T12:53:00.295</time>
      </trkpt>
      <trkpt lat="48.51814" lon="2.65708">
        <ele>120</ele>
        <time>2017-05-17T12:53:01.295</time>
      </trkpt>
      <trkpt lat="48.51817" lon="2.65715">
        <ele>120</ele>
        <time>2017-05-17T12:53:02.294</time>
      </trkpt>
      <trkpt lat="48.5182" lon="2.65722">
        <ele>120</ele>
        <time>2017-05-17T12:53:03.294</time>
      </trkpt>
      <trkpt lat="48.51823" lon="2.65729">
        <ele>120</ele>
        <time>2017-05-17T12:53:04.293</time>
      </trkpt>
      <trkpt lat="48.51826" lon="2.65737">
        <ele>120</ele>
        <time>2017-05-17T12:53:05.291</time>
      </trkpt>
      <trkpt lat="48.5183" lon="2.65744">
        <ele>120</ele>
        <time>2017-05-17T12:53:06.292</time>
      </trkpt>
      <trkpt lat="48.51833" lon="2.65751">
        <ele>120</ele>
        <time>2017-05-17T12:53:07.293</time>
      </trkpt>
      <trkpt lat="48.51837" lon="2.65757">
        <ele>120</ele>
        <time>2017-05-17T12:53:08.294</time>
      </trkpt>
      <trkpt lat="48.51841" lon="2.65763">
        <ele>120</ele>
        <time>2017-05-17T12:53:09.292</time>
      </trkpt>
      <trkpt lat="48.51845" lon="2.6577">
        <ele>120</ele>
        <time>2017-05-17T12:53:10.292</time>
      </trkpt>
      <trkpt lat="48.51849" lon="2.65776">
        <ele>120</ele>
        <time>2017-05-17T12:53:11.292</time>
      </trkpt>
      <trkpt lat="48.51854" lon="2.65783">
        <ele>120</ele>
        <time>2017-05-17T12:53:12.294</time>
      </trkpt>
      <trkpt lat="48.51858" lon="2.65789">
        <ele>120</ele>
        <time>2017-05-17T12:53:13.294</time>
      </trkpt>
      <trkpt lat="48.51863" lon="2.65795">
        <ele>120</ele>
        <time>2017-05-17T12:53:14.293</time>
      </trkpt>
      <trkpt lat="48.51867" lon="2.65801">
        <ele>120</ele>
        <time>2017-05-17T12:53:15.292</time>
      </trkpt>
      <trkpt lat="48.51872" lon="2.65807">
        <ele>120</ele>
        <time>2017-05-17T12:53:16.295</time>
      </trkpt>
      <trkpt lat="48.51877" lon="2.65813">
        <ele>120</ele>
        <time>2017-05-17T12:53:17.295</time>
      </trkpt>
      <trkpt lat="48.51882" lon="2.65818">
        <ele>120</ele>
        <time>2017-05-17T12:53:18.293</time>
      </trkpt>
      <trkpt lat="48.51888" lon="2.65823">
        <ele>120</ele>
        <time>2017-05-17T12:53:19.293</time>
      </trkpt>
      <trkpt lat="48.51894" lon="2.65828">
        <ele>120</ele>
        <time>2017-05-17T12:53:20.291</time>
      </trkpt>
      <trkpt lat="48.51899" lon="2.65832">
        <ele>120</ele>
        <time>2017-05-17T12:53:21.293</time>
      </trkpt>
      <trkpt lat="48.51905" lon="2.65837">
        <ele>120</ele>
        <time>2017-05-17T12:53:22.294</time>
      </trkpt>
      <trkpt lat="48.51911" lon="2.65841">
        <ele>120</ele>
        <time>2017-05-17T12:53:23.292</time>
      </trkpt>
      <trkpt lat="48.51916" lon="2.65845">
        <ele>120</ele>
        <time>2017-05-17T12:53:24.296</time>
      </trkpt>
      <trkpt lat="48.51922" lon="2.65848">
        <ele>119</ele>
        <time>2017-05-17T12:53:25.294</time>
      </trkpt>
      <trkpt lat="48.51928" lon="2.65852">
        <ele>119</ele>
        <time>2017-05-17T12:53:26.294</time>
      </trkpt>
      <trkpt lat="48.51934" lon="2.65854">
        <ele>119</ele>
        <time>2017-05-17T12:53:27.294</time>
      </trkpt>
      <trkpt lat="48.51941" lon="2.65857">
        <ele>120</ele>
        <time>2017-05-17T12:53:28.295</time>
      </trkpt>
      <trkpt lat="48.51947" lon="2.6586">
        <ele>120</ele>
        <time>2017-05-17T12:53:29.294</time>
      </trkpt>
      <trkpt lat="48.51953" lon="2.65863">
        <ele>120</ele>
        <time>2017-05-17T12:53:30.294</time>
      </trkpt>
      <trkpt lat="48.5196" lon="2.65865">
        <ele>120</ele>
        <time>2017-05-17T12:53:31.303</time>
      </trkpt>
      <trkpt lat="48.51966" lon="2.65867">
        <ele>120</ele>
        <time>2017-05-17T12:53:32.295</time>
      </trkpt>
      <trkpt lat="48.51972" lon="2.65868">
        <ele>120</ele>
        <time>2017-05-17T12:53:33.304</time>
      </trkpt>
      <trkpt lat="48.51979" lon="2.65869">
        <ele>120</ele>
        <time>2017-05-17T12:53:34.302</time>
      </trkpt>
      <trkpt lat="48.51986" lon="2.65869">
        <ele>120</ele>
        <time>2017-05-17T12:53:35.302</time>
      </trkpt>
      <trkpt lat="48.51992" lon="2.6587">
        <ele>120</ele>
        <time>2017-05-17T12:53:36.303</time>
      </trkpt>
      <trkpt lat="48.51999" lon="2.6587">
        <ele>120</ele>
        <time>2017-05-17T12:53:37.311</time>
      </trkpt>
      <trkpt lat="48.52005" lon="2.6587">
        <ele>120</ele>
        <time>2017-05-17T12:53:38.313</time>
      </trkpt>
      <trkpt lat="48.52012" lon="2.6587">
        <ele>120</ele>
        <time>2017-05-17T12:53:39.313</time>
      </trkpt>
      <trkpt lat="48.52018" lon="2.65869">
        <ele>120</ele>
        <time>2017-05-17T12:53:40.313</time>
      </trkpt>
      <trkpt lat="48.52025" lon="2.65868">
        <ele>119</ele>
        <time>2017-05-17T12:53:41.293</time>
      </trkpt>
      <trkpt lat="48.52032" lon="2.65866">
        <ele>119</ele>
        <time>2017-05-17T12:53:42.293</time>
      </trkpt>
      <trkpt lat="48.52039" lon="2.65865">
        <ele>119</ele>
        <time>2017-05-17T12:53:43.294</time>
      </trkpt>
      <trkpt lat="48.52046" lon="2.65863">
        <ele>119</ele>
        <time>2017-05-17T12:53:44.294</time>
      </trkpt>
      <trkpt lat="48.52052" lon="2.65861">
        <ele>119</ele>
        <time>2017-05-17T12:53:45.292</time>
      </trkpt>
      <trkpt lat="48.52058" lon="2.65858">
        <ele>120</ele>
        <time>2017-05-17T12:53:46.293</time>
      </trkpt>
      <trkpt lat="48.52065" lon="2.65856">
        <ele>119</ele>
        <time>2017-05-17T12:53:47.295</time>
      </trkpt>
      <trkpt lat="48.52071" lon="2.65855">
        <ele>119</ele>
        <time>2017-05-17T12:53:48.295</time>
      </trkpt>
      <trkpt lat="48.52077" lon="2.65852">
        <ele>120</ele>
        <time>2017-05-17T12:53:49.296</time>
      </trkpt>
      <trkpt lat="48.52084" lon="2.6585">
        <ele>119</ele>
        <time>2017-05-17T12:53:50.296</time>
      </trkpt>
      <trkpt lat="48.52091" lon="2.65847">
        <ele>120</ele>
        <time>2017-05-17T12:53:51.293</time>
      </trkpt>
      <trkpt lat="48.52097" lon="2.65845">
        <ele>119</ele>
        <time>2017-05-17T12:53:52.293</time>
      </trkpt>
      <trkpt lat="48.52103" lon="2.65842">
        <ele>119</ele>
        <time>2017-05-17T12:53:53.293</time>
      </trkpt>
      <trkpt lat="48.5211" lon="2.65839">
        <ele>119</ele>
        <time>2017-05-17T12:53:54.294</time>
      </trkpt>
      <trkpt lat="48.52116" lon="2.65836">
        <ele>119</ele>
        <time>2017-05-17T12:53:55.295</time>
      </trkpt>
      <trkpt lat="48.52123" lon="2.65834">
        <ele>119</ele>
        <time>2017-05-17T12:53:56.293</time>
      </trkpt>
      <trkpt lat="48.52129" lon="2.65832">
        <ele>118</ele>
        <time>2017-05-17T12:53:57.294</time>
      </trkpt>
      <trkpt lat="48.52136" lon="2.65831">
        <ele>118</ele>
        <time>2017-05-17T12:53:58.292</time>
      </trkpt>
      <trkpt lat="48.52143" lon="2.6583">
        <ele>118</ele>
        <time>2017-05-17T12:53:59.293</time>
      </trkpt>
      <trkpt lat="48.52149" lon="2.65828">
        <ele>119</ele>
        <time>2017-05-17T12:54:00.291</time>
      </trkpt>
      <trkpt lat="48.52155" lon="2.65827">
        <ele>118</ele>
        <time>2017-05-17T12:54:01.294</time>
      </trkpt>
      <trkpt lat="48.52162" lon="2.65828">
        <ele>118</ele>
        <time>2017-05-17T12:54:02.295</time>
      </trkpt>
      <trkpt lat="48.52167" lon="2.65834">
        <ele>118</ele>
        <time>2017-05-17T12:54:03.293</time>
      </trkpt>
      <trkpt lat="48.52172" lon="2.6584">
        <ele>118</ele>
        <time>2017-05-17T12:54:04.296</time>
      </trkpt>
      <trkpt lat="48.52176" lon="2.65847">
        <ele>118</ele>
        <time>2017-05-17T12:54:05.294</time>
      </trkpt>
      <trkpt lat="48.52181" lon="2.65852">
        <ele>118</ele>
        <time>2017-05-17T12:54:06.294</time>
      </trkpt>
      <trkpt lat="48.52185" lon="2.65859">
        <ele>118</ele>
        <time>2017-05-17T12:54:07.295</time>
      </trkpt>
      <trkpt lat="48.52186" lon="2.65868">
        <ele>118</ele>
        <time>2017-05-17T12:54:08.294</time>
      </trkpt>
      <trkpt lat="48.52186" lon="2.65877">
        <ele>118</ele>
        <time>2017-05-17T12:54:09.293</time>
      </trkpt>
      <trkpt lat="48.52187" lon="2.65885">
        <ele>119</ele>
        <time>2017-05-17T12:54:10.295</time>
      </trkpt>
      <trkpt lat="48.52188" lon="2.65895">
        <ele>119</ele>
        <time>2017-05-17T12:54:11.296</time>
      </trkpt>
      <trkpt lat="48.52188" lon="2.65904">
        <ele>119</ele>
        <time>2017-05-17T12:54:12.295</time>
      </trkpt>
      <trkpt lat="48.52189" lon="2.65913">
        <ele>119</ele>
        <time>2017-05-17T12:54:13.294</time>
      </trkpt>
      <trkpt lat="48.52189" lon="2.65923">
        <ele>119</ele>
        <time>2017-05-17T12:54:14.293</time>
      </trkpt>
      <trkpt lat="48.52189" lon="2.65932">
        <ele>119</ele>
        <time>2017-05-17T12:54:15.293</time>
      </trkpt>
      <trkpt lat="48.52189" lon="2.6594">
        <ele>119</ele>
        <time>2017-05-17T12:54:16.294</time>
      </trkpt>
      <trkpt lat="48.52189" lon="2.6595">
        <ele>119</ele>
        <time>2017-05-17T12:54:17.292</time>
      </trkpt>
      <trkpt lat="48.52189" lon="2.65959">
        <ele>118</ele>
        <time>2017-05-17T12:54:18.293</time>
      </trkpt>
      <trkpt lat="48.52189" lon="2.65968">
        <ele>118</ele>
        <time>2017-05-17T12:54:19.294</time>
      </trkpt>
      <trkpt lat="48.5219" lon="2.65977">
        <ele>118</ele>
        <time>2017-05-17T12:54:20.295</time>
      </trkpt>
      <trkpt lat="48.5219" lon="2.65986">
        <ele>118</ele>
        <time>2017-05-17T12:54:21.293</time>
      </trkpt>
      <trkpt lat="48.5219" lon="2.65995">
        <ele>119</ele>
        <time>2017-05-17T12:54:22.294</time>
      </trkpt>
      <trkpt lat="48.5219" lon="2.66005">
        <ele>119</ele>
        <time>2017-05-17T12:54:23.295</time>
      </trkpt>
      <trkpt lat="48.5219" lon="2.66014">
        <ele>119</ele>
        <time>2017-05-17T12:54:24.294</time>
      </trkpt>
      <trkpt lat="48.5219" lon="2.66023">
        <ele>119</ele>
        <time>2017-05-17T12:54:25.294</time>
      </trkpt>
      <trkpt lat="48.52191" lon="2.66032">
        <ele>119</ele>
        <time>2017-05-17T12:54:26.294</time>
      </trkpt>
      <trkpt lat="48.52191" lon="2.66042">
        <ele>120</ele>
        <time>2017-05-17T12:54:27.295</time>
      </trkpt>
      <trkpt lat="48.52191" lon="2.66051">
        <ele>120</ele>
        <time>2017-05-17T12:54:28.295</time>
      </trkpt>
      <trkpt lat="48.52191" lon="2.66059">
        <ele>120</ele>
        <time>2017-05-17T12:54:29.296</time>
      </trkpt>
      <trkpt lat="48.52192" lon="2.66067">
        <ele>120</ele>
        <time>2017-05-17T12:54:30.297</time>
      </trkpt>
      <trkpt lat="48.52194" lon="2.66073">
        <ele>120</ele>
        <time>2017-05-17T12:54:31.298</time>
      </trkpt>
      <trkpt lat="48.52196" lon="2.66077">
        <ele>120</ele>
        <time>2017-05-17T12:54:32.296</time>
      </trkpt>
      <trkpt lat="48.52198" lon="2.66082">
        <ele>119</ele>
        <time>2017-05-17T12:54:33.296</time>
      </trkpt>
      <trkpt lat="48.522" lon="2.66085">
        <ele>119</ele>
        <time>2017-05-17T12:54:34.297</time>
      </trkpt>
      <trkpt lat="48.52204" lon="2.66088">
        <ele>119</ele>
        <time>2017-05-17T12:54:35.295</time>
      </trkpt>
      <trkpt lat="48.52207" lon="2.66088">
        <ele>119</ele>
        <time>2017-05-17T12:54:36.294</time>
      </trkpt>
      <trkpt lat="48.5221" lon="2.66087">
        <ele>120</ele>
        <time>2017-05-17T12:54:37.294</time>
      </trkpt>
      <trkpt lat="48.52213" lon="2.66086">
        <ele>119</ele>
        <time>2017-05-17T12:54:38.294</time>
      </trkpt>
      <trkpt lat="48.52216" lon="2.66087">
        <ele>118</ele>
        <time>2017-05-17T12:54:39.294</time>
      </trkpt>
      <trkpt lat="48.52219" lon="2.66089">
        <ele>119</ele>
        <time>2017-05-17T12:54:40.294</time>
      </trkpt>
      <trkpt lat="48.5222" lon="2.66089">
        <ele>120</ele>
        <time>2017-05-17T12:54:41.293</time>
      </trkpt>
      <trkpt lat="48.52222" lon="2.66089">
        <ele>120</ele>
        <time>2017-05-17T12:54:42.294</time>
      </trkpt>
      <trkpt lat="48.52225" lon="2.66089">
        <ele>120</ele>
        <time>2017-05-17T12:54:43.294</time>
      </trkpt>
      <trkpt lat="48.52226" lon="2.66089">
        <ele>121</ele>
        <time>2017-05-17T12:54:44.295</time>
      </trkpt>
      <trkpt lat="48.52228" lon="2.66089">
        <ele>122</ele>
        <time>2017-05-17T12:54:45.295</time>
      </trkpt>
      <trkpt lat="48.52231" lon="2.66087">
        <ele>121</ele>
        <time>2017-05-17T12:54:46.297</time>
      </trkpt>
      <trkpt lat="48.52233" lon="2.66086">
        <ele>121</ele>
        <time>2017-05-17T12:54:47.294</time>
      </trkpt>
      <trkpt lat="48.52237" lon="2.66084">
        <ele>121</ele>
        <time>2017-05-17T12:54:48.293</time>
      </trkpt>
      <trkpt lat="48.52239" lon="2.66084">
        <ele>119</ele>
        <time>2017-05-17T12:54:49.293</time>
      </trkpt>
      <trkpt lat="48.52242" lon="2.66083">
        <ele>119</ele>
        <time>2017-05-17T12:54:50.294</time>
      </trkpt>
      <trkpt lat="48.52242" lon="2.66082">
        <ele>120</ele>
        <time>2017-05-17T12:54:51.294</time>
      </trkpt>
      <trkpt lat="48.52243" lon="2.66083">
        <ele>119</ele>
        <time>2017-05-17T12:54:52.293</time>
      </trkpt>
      <trkpt lat="48.52243" lon="2.66084">
        <ele>119</ele>
        <time>2017-05-17T12:54:53.293</time>
      </trkpt>
      <trkpt lat="48.52243" lon="2.66084">
        <ele>119</ele>
        <time>2017-05-17T12:54:54.292</time>
      </trkpt>
      <trkpt lat="48.52243" lon="2.66083">
        <ele>119</ele>
        <time>2017-05-17T12:54:55.292</time>
      </trkpt>
      <trkpt lat="48.52244" lon="2.66083">
        <ele>119</ele>
        <time>2017-05-17T12:54:56.292</time>
      </trkpt>
      <trkpt lat="48.52243" lon="2.66083">
        <ele>119</ele>
        <time>2017-05-17T12:54:57.292</time>
      </trkpt>
      <trkpt lat="48.52243" lon="2.66083">
        <ele>119</ele>
        <time>2017-05-17T12:54:58.360</time>
      </trkpt>
      <trkpt lat="48.52243" lon="2.66083">
        <ele>119</ele>
        <time>2017-05-17T12:54:59.291</time>
      </trkpt>
      <trkpt lat="48.52243" lon="2.66084">
        <ele>119</ele>
        <time>2017-05-17T12:55:00.293</time>
      </trkpt>
      <trkpt lat="48.52243" lon="2.66083">
        <ele>119</ele>
        <time>2017-05-17T12:55:01.290</time>
      </trkpt>
      <trkpt lat="48.52244" lon="2.66083">
        <ele>119</ele>
        <time>2017-05-17T12:55:02.303</time>
      </trkpt>
    </trkseg>
  </trk>
</gpx>